<?xml version="1.0" encoding="UTF-8" standalone="no" ?>
<gpx xmlns="http://www.topografix.com/GPX/1/1" xmlns:xsi="http://www.w3.org/2001/XMLSchema-instance" xsi:schemaLocation="http://www.topografix.com/GPX/1/1 http://www.topografix.com/GPX/1/1/gpx.xsd" version="1.1" creator="VisuGPX - https://www.visugpx.com">
  <metadata>
    <name>Rocheville </name>
    <desc><![CDATA[Avec Savane ... seul
Belle meteo, une petite épicerie/bar/tabac en milieu de parcours et les Roches 🤪
Le tout à bonne allure, une bonne sortie !]]></desc>
  </metadata>
  <trk>
    <name><![CDATA[Trace 1774874644000]]></name>
    <trkseg>
      <trkpt lat="49.52636" lon="-1.59317">
        <ele>104.7</ele>
        <time>2026-03-30T12:44:04.000Z</time>
      </trkpt>
      <trkpt lat="49.52636" lon="-1.59316">
        <ele>105</ele>
        <time>2026-03-30T12:44:05.000Z</time>
      </trkpt>
      <trkpt lat="49.52635" lon="-1.59317">
        <ele>103.7</ele>
        <time>2026-03-30T12:44:06.000Z</time>
      </trkpt>
      <trkpt lat="49.52636" lon="-1.59315">
        <ele>102.3</ele>
        <time>2026-03-30T12:44:07.000Z</time>
      </trkpt>
      <trkpt lat="49.52636" lon="-1.59315">
        <ele>102.2</ele>
        <time>2026-03-30T12:44:08.000Z</time>
      </trkpt>
      <trkpt lat="49.52635" lon="-1.59313">
        <ele>96.3</ele>
        <time>2026-03-30T12:44:29.000Z</time>
      </trkpt>
      <trkpt lat="49.52634" lon="-1.59313">
        <ele>95.8</ele>
        <time>2026-03-30T12:44:30.000Z</time>
      </trkpt>
      <trkpt lat="49.52634" lon="-1.59313">
        <ele>95.3</ele>
        <time>2026-03-30T12:44:31.000Z</time>
      </trkpt>
      <trkpt lat="49.52633" lon="-1.59313">
        <ele>94.9</ele>
        <time>2026-03-30T12:44:32.000Z</time>
      </trkpt>
      <trkpt lat="49.52632" lon="-1.59313">
        <ele>94.2</ele>
        <time>2026-03-30T12:44:33.000Z</time>
      </trkpt>
      <trkpt lat="49.52631" lon="-1.59314">
        <ele>93.9</ele>
        <time>2026-03-30T12:44:34.000Z</time>
      </trkpt>
      <trkpt lat="49.5263" lon="-1.59314">
        <ele>94.2</ele>
        <time>2026-03-30T12:44:35.000Z</time>
      </trkpt>
      <trkpt lat="49.52629" lon="-1.59315">
        <ele>94</ele>
        <time>2026-03-30T12:44:36.000Z</time>
      </trkpt>
      <trkpt lat="49.52628" lon="-1.59315">
        <ele>93.8</ele>
        <time>2026-03-30T12:44:37.000Z</time>
      </trkpt>
      <trkpt lat="49.52627" lon="-1.59316">
        <ele>93.4</ele>
        <time>2026-03-30T12:44:38.000Z</time>
      </trkpt>
      <trkpt lat="49.52626" lon="-1.59316">
        <ele>92.8</ele>
        <time>2026-03-30T12:44:39.000Z</time>
      </trkpt>
      <trkpt lat="49.52626" lon="-1.59316">
        <ele>92.4</ele>
        <time>2026-03-30T12:44:40.000Z</time>
      </trkpt>
      <trkpt lat="49.52625" lon="-1.59317">
        <ele>91.3</ele>
        <time>2026-03-30T12:44:41.000Z</time>
      </trkpt>
      <trkpt lat="49.52626" lon="-1.59318">
        <ele>91</ele>
        <time>2026-03-30T12:44:42.000Z</time>
      </trkpt>
      <trkpt lat="49.52626" lon="-1.5932">
        <ele>90.8</ele>
        <time>2026-03-30T12:44:43.000Z</time>
      </trkpt>
      <trkpt lat="49.52626" lon="-1.5932">
        <ele>90.8</ele>
        <time>2026-03-30T12:44:44.000Z</time>
      </trkpt>
      <trkpt lat="49.52626" lon="-1.59321">
        <ele>91.1</ele>
        <time>2026-03-30T12:44:45.000Z</time>
      </trkpt>
      <trkpt lat="49.52626" lon="-1.59321">
        <ele>91.1</ele>
        <time>2026-03-30T12:44:46.000Z</time>
      </trkpt>
      <trkpt lat="49.52626" lon="-1.59322">
        <ele>91.2</ele>
        <time>2026-03-30T12:44:47.000Z</time>
      </trkpt>
      <trkpt lat="49.52626" lon="-1.59323">
        <ele>90.8</ele>
        <time>2026-03-30T12:44:48.000Z</time>
      </trkpt>
      <trkpt lat="49.52624" lon="-1.59322">
        <ele>89.7</ele>
        <time>2026-03-30T12:46:46.000Z</time>
      </trkpt>
      <trkpt lat="49.52624" lon="-1.59322">
        <ele>89.5</ele>
        <time>2026-03-30T12:46:47.000Z</time>
      </trkpt>
      <trkpt lat="49.52624" lon="-1.59323">
        <ele>89.1</ele>
        <time>2026-03-30T12:46:48.000Z</time>
      </trkpt>
      <trkpt lat="49.52625" lon="-1.5932">
        <ele>89</ele>
        <time>2026-03-30T12:48:53.000Z</time>
      </trkpt>
      <trkpt lat="49.52625" lon="-1.59319">
        <ele>89.3</ele>
        <time>2026-03-30T12:48:54.000Z</time>
      </trkpt>
      <trkpt lat="49.52625" lon="-1.59318">
        <ele>89.9</ele>
        <time>2026-03-30T12:48:55.000Z</time>
      </trkpt>
      <trkpt lat="49.52625" lon="-1.59317">
        <ele>89.7</ele>
        <time>2026-03-30T12:48:56.000Z</time>
      </trkpt>
      <trkpt lat="49.52625" lon="-1.59316">
        <ele>89.1</ele>
        <time>2026-03-30T12:48:57.000Z</time>
      </trkpt>
      <trkpt lat="49.52625" lon="-1.59316">
        <ele>89.4</ele>
        <time>2026-03-30T12:48:58.000Z</time>
      </trkpt>
      <trkpt lat="49.52625" lon="-1.59315">
        <ele>89.2</ele>
        <time>2026-03-30T12:48:59.000Z</time>
      </trkpt>
      <trkpt lat="49.52624" lon="-1.59315">
        <ele>89.1</ele>
        <time>2026-03-30T12:49:00.000Z</time>
      </trkpt>
      <trkpt lat="49.52624" lon="-1.59315">
        <ele>89.9</ele>
        <time>2026-03-30T12:49:01.000Z</time>
      </trkpt>
      <trkpt lat="49.52624" lon="-1.59315">
        <ele>89.6</ele>
        <time>2026-03-30T12:49:02.000Z</time>
      </trkpt>
      <trkpt lat="49.52624" lon="-1.59315">
        <ele>89.6</ele>
        <time>2026-03-30T12:49:03.000Z</time>
      </trkpt>
      <trkpt lat="49.52624" lon="-1.59315">
        <ele>90</ele>
        <time>2026-03-30T12:49:04.000Z</time>
      </trkpt>
      <trkpt lat="49.52624" lon="-1.59315">
        <ele>90.2</ele>
        <time>2026-03-30T12:49:05.000Z</time>
      </trkpt>
      <trkpt lat="49.52625" lon="-1.59314">
        <ele>90.6</ele>
        <time>2026-03-30T12:49:06.000Z</time>
      </trkpt>
      <trkpt lat="49.52625" lon="-1.59314">
        <ele>90.2</ele>
        <time>2026-03-30T12:49:07.000Z</time>
      </trkpt>
      <trkpt lat="49.52626" lon="-1.59314">
        <ele>89.8</ele>
        <time>2026-03-30T12:49:08.000Z</time>
      </trkpt>
      <trkpt lat="49.52627" lon="-1.59314">
        <ele>89.9</ele>
        <time>2026-03-30T12:49:09.000Z</time>
      </trkpt>
      <trkpt lat="49.52628" lon="-1.59313">
        <ele>89.7</ele>
        <time>2026-03-30T12:49:10.000Z</time>
      </trkpt>
      <trkpt lat="49.52628" lon="-1.59312">
        <ele>89.7</ele>
        <time>2026-03-30T12:49:11.000Z</time>
      </trkpt>
      <trkpt lat="49.52629" lon="-1.59311">
        <ele>89.6</ele>
        <time>2026-03-30T12:49:12.000Z</time>
      </trkpt>
      <trkpt lat="49.52629" lon="-1.59309">
        <ele>89.7</ele>
        <time>2026-03-30T12:49:13.000Z</time>
      </trkpt>
      <trkpt lat="49.5263" lon="-1.59308">
        <ele>90.1</ele>
        <time>2026-03-30T12:49:14.000Z</time>
      </trkpt>
      <trkpt lat="49.52631" lon="-1.59307">
        <ele>89.7</ele>
        <time>2026-03-30T12:49:15.000Z</time>
      </trkpt>
      <trkpt lat="49.52631" lon="-1.59305">
        <ele>89.7</ele>
        <time>2026-03-30T12:49:16.000Z</time>
      </trkpt>
      <trkpt lat="49.52632" lon="-1.59303">
        <ele>89.6</ele>
        <time>2026-03-30T12:49:17.000Z</time>
      </trkpt>
      <trkpt lat="49.52633" lon="-1.59302">
        <ele>89.6</ele>
        <time>2026-03-30T12:49:18.000Z</time>
      </trkpt>
      <trkpt lat="49.52634" lon="-1.59301">
        <ele>90</ele>
        <time>2026-03-30T12:49:19.000Z</time>
      </trkpt>
      <trkpt lat="49.52635" lon="-1.59299">
        <ele>89.8</ele>
        <time>2026-03-30T12:49:20.000Z</time>
      </trkpt>
      <trkpt lat="49.52635" lon="-1.59298">
        <ele>89.9</ele>
        <time>2026-03-30T12:49:21.000Z</time>
      </trkpt>
      <trkpt lat="49.52636" lon="-1.59297">
        <ele>90</ele>
        <time>2026-03-30T12:49:22.000Z</time>
      </trkpt>
      <trkpt lat="49.52637" lon="-1.59296">
        <ele>90.3</ele>
        <time>2026-03-30T12:49:23.000Z</time>
      </trkpt>
      <trkpt lat="49.52637" lon="-1.59294">
        <ele>90.1</ele>
        <time>2026-03-30T12:49:24.000Z</time>
      </trkpt>
      <trkpt lat="49.52638" lon="-1.59292">
        <ele>90</ele>
        <time>2026-03-30T12:49:25.000Z</time>
      </trkpt>
      <trkpt lat="49.52639" lon="-1.59291">
        <ele>89.9</ele>
        <time>2026-03-30T12:49:26.000Z</time>
      </trkpt>
      <trkpt lat="49.52639" lon="-1.59289">
        <ele>90.4</ele>
        <time>2026-03-30T12:49:27.000Z</time>
      </trkpt>
      <trkpt lat="49.5264" lon="-1.59287">
        <ele>90.2</ele>
        <time>2026-03-30T12:49:28.000Z</time>
      </trkpt>
      <trkpt lat="49.52641" lon="-1.59286">
        <ele>90.6</ele>
        <time>2026-03-30T12:49:29.000Z</time>
      </trkpt>
      <trkpt lat="49.52641" lon="-1.59284">
        <ele>90.6</ele>
        <time>2026-03-30T12:49:30.000Z</time>
      </trkpt>
      <trkpt lat="49.52642" lon="-1.59283">
        <ele>90.4</ele>
        <time>2026-03-30T12:49:31.000Z</time>
      </trkpt>
      <trkpt lat="49.52643" lon="-1.59281">
        <ele>89</ele>
        <time>2026-03-30T12:49:32.000Z</time>
      </trkpt>
      <trkpt lat="49.52644" lon="-1.59281">
        <ele>88.5</ele>
        <time>2026-03-30T12:49:33.000Z</time>
      </trkpt>
      <trkpt lat="49.52644" lon="-1.59279">
        <ele>88.1</ele>
        <time>2026-03-30T12:49:34.000Z</time>
      </trkpt>
      <trkpt lat="49.52645" lon="-1.59277">
        <ele>88.2</ele>
        <time>2026-03-30T12:49:35.000Z</time>
      </trkpt>
      <trkpt lat="49.52645" lon="-1.59275">
        <ele>87.4</ele>
        <time>2026-03-30T12:49:36.000Z</time>
      </trkpt>
      <trkpt lat="49.52645" lon="-1.59274">
        <ele>88.1</ele>
        <time>2026-03-30T12:49:37.000Z</time>
      </trkpt>
      <trkpt lat="49.52645" lon="-1.59272">
        <ele>87.6</ele>
        <time>2026-03-30T12:49:38.000Z</time>
      </trkpt>
      <trkpt lat="49.52645" lon="-1.5927">
        <ele>87.1</ele>
        <time>2026-03-30T12:49:39.000Z</time>
      </trkpt>
      <trkpt lat="49.52645" lon="-1.59268">
        <ele>87.1</ele>
        <time>2026-03-30T12:49:40.000Z</time>
      </trkpt>
      <trkpt lat="49.52646" lon="-1.59266">
        <ele>87.1</ele>
        <time>2026-03-30T12:49:41.000Z</time>
      </trkpt>
      <trkpt lat="49.52647" lon="-1.59265">
        <ele>85.2</ele>
        <time>2026-03-30T12:49:42.000Z</time>
      </trkpt>
      <trkpt lat="49.52648" lon="-1.59264">
        <ele>85.3</ele>
        <time>2026-03-30T12:49:43.000Z</time>
      </trkpt>
      <trkpt lat="49.52649" lon="-1.59262">
        <ele>85.1</ele>
        <time>2026-03-30T12:49:44.000Z</time>
      </trkpt>
      <trkpt lat="49.5265" lon="-1.59261">
        <ele>85.7</ele>
        <time>2026-03-30T12:49:45.000Z</time>
      </trkpt>
      <trkpt lat="49.5265" lon="-1.59259">
        <ele>86.2</ele>
        <time>2026-03-30T12:49:46.000Z</time>
      </trkpt>
      <trkpt lat="49.5265" lon="-1.59257">
        <ele>87.1</ele>
        <time>2026-03-30T12:49:47.000Z</time>
      </trkpt>
      <trkpt lat="49.52649" lon="-1.59255">
        <ele>87.2</ele>
        <time>2026-03-30T12:49:48.000Z</time>
      </trkpt>
      <trkpt lat="49.52649" lon="-1.59254">
        <ele>87.7</ele>
        <time>2026-03-30T12:49:49.000Z</time>
      </trkpt>
      <trkpt lat="49.52648" lon="-1.59252">
        <ele>88.5</ele>
        <time>2026-03-30T12:49:50.000Z</time>
      </trkpt>
      <trkpt lat="49.52648" lon="-1.59251">
        <ele>88.6</ele>
        <time>2026-03-30T12:49:51.000Z</time>
      </trkpt>
      <trkpt lat="49.52647" lon="-1.59249">
        <ele>88.9</ele>
        <time>2026-03-30T12:49:52.000Z</time>
      </trkpt>
      <trkpt lat="49.52647" lon="-1.59248">
        <ele>89.9</ele>
        <time>2026-03-30T12:49:53.000Z</time>
      </trkpt>
      <trkpt lat="49.52646" lon="-1.59246">
        <ele>89.6</ele>
        <time>2026-03-30T12:49:54.000Z</time>
      </trkpt>
      <trkpt lat="49.52645" lon="-1.59244">
        <ele>90</ele>
        <time>2026-03-30T12:49:55.000Z</time>
      </trkpt>
      <trkpt lat="49.52645" lon="-1.59242">
        <ele>90.1</ele>
        <time>2026-03-30T12:49:56.000Z</time>
      </trkpt>
      <trkpt lat="49.52645" lon="-1.59241">
        <ele>90.6</ele>
        <time>2026-03-30T12:49:57.000Z</time>
      </trkpt>
      <trkpt lat="49.52645" lon="-1.59239">
        <ele>90.1</ele>
        <time>2026-03-30T12:49:58.000Z</time>
      </trkpt>
      <trkpt lat="49.52645" lon="-1.59238">
        <ele>90.1</ele>
        <time>2026-03-30T12:49:59.000Z</time>
      </trkpt>
      <trkpt lat="49.52644" lon="-1.59236">
        <ele>90.4</ele>
        <time>2026-03-30T12:50:00.000Z</time>
      </trkpt>
      <trkpt lat="49.52643" lon="-1.59235">
        <ele>90.5</ele>
        <time>2026-03-30T12:50:01.000Z</time>
      </trkpt>
      <trkpt lat="49.52643" lon="-1.59233">
        <ele>90.2</ele>
        <time>2026-03-30T12:50:02.000Z</time>
      </trkpt>
      <trkpt lat="49.52642" lon="-1.59231">
        <ele>90.4</ele>
        <time>2026-03-30T12:50:03.000Z</time>
      </trkpt>
      <trkpt lat="49.52642" lon="-1.5923">
        <ele>90.9</ele>
        <time>2026-03-30T12:50:04.000Z</time>
      </trkpt>
      <trkpt lat="49.52641" lon="-1.59228">
        <ele>90.5</ele>
        <time>2026-03-30T12:50:05.000Z</time>
      </trkpt>
      <trkpt lat="49.5264" lon="-1.59227">
        <ele>90.4</ele>
        <time>2026-03-30T12:50:06.000Z</time>
      </trkpt>
      <trkpt lat="49.52639" lon="-1.59226">
        <ele>89.7</ele>
        <time>2026-03-30T12:50:07.000Z</time>
      </trkpt>
      <trkpt lat="49.52638" lon="-1.59224">
        <ele>88.9</ele>
        <time>2026-03-30T12:50:08.000Z</time>
      </trkpt>
      <trkpt lat="49.52637" lon="-1.59223">
        <ele>89.3</ele>
        <time>2026-03-30T12:50:09.000Z</time>
      </trkpt>
      <trkpt lat="49.52636" lon="-1.59222">
        <ele>89.9</ele>
        <time>2026-03-30T12:50:10.000Z</time>
      </trkpt>
      <trkpt lat="49.52634" lon="-1.59222">
        <ele>89.7</ele>
        <time>2026-03-30T12:50:11.000Z</time>
      </trkpt>
      <trkpt lat="49.52633" lon="-1.59221">
        <ele>90.1</ele>
        <time>2026-03-30T12:50:12.000Z</time>
      </trkpt>
      <trkpt lat="49.52632" lon="-1.5922">
        <ele>90.3</ele>
        <time>2026-03-30T12:50:13.000Z</time>
      </trkpt>
      <trkpt lat="49.52632" lon="-1.59218">
        <ele>90.9</ele>
        <time>2026-03-30T12:50:14.000Z</time>
      </trkpt>
      <trkpt lat="49.52632" lon="-1.59217">
        <ele>91</ele>
        <time>2026-03-30T12:50:15.000Z</time>
      </trkpt>
      <trkpt lat="49.52631" lon="-1.59215">
        <ele>90.8</ele>
        <time>2026-03-30T12:50:16.000Z</time>
      </trkpt>
      <trkpt lat="49.52631" lon="-1.59214">
        <ele>91.2</ele>
        <time>2026-03-30T12:50:17.000Z</time>
      </trkpt>
      <trkpt lat="49.52631" lon="-1.59212">
        <ele>90.4</ele>
        <time>2026-03-30T12:50:18.000Z</time>
      </trkpt>
      <trkpt lat="49.52631" lon="-1.59212">
        <ele>89.5</ele>
        <time>2026-03-30T12:50:19.000Z</time>
      </trkpt>
      <trkpt lat="49.52631" lon="-1.59212">
        <ele>88.7</ele>
        <time>2026-03-30T12:50:20.000Z</time>
      </trkpt>
      <trkpt lat="49.52631" lon="-1.59212">
        <ele>88.3</ele>
        <time>2026-03-30T12:50:21.000Z</time>
      </trkpt>
      <trkpt lat="49.5263" lon="-1.59211">
        <ele>86.5</ele>
        <time>2026-03-30T12:50:22.000Z</time>
      </trkpt>
      <trkpt lat="49.52629" lon="-1.59211">
        <ele>85.6</ele>
        <time>2026-03-30T12:50:23.000Z</time>
      </trkpt>
      <trkpt lat="49.52629" lon="-1.59211">
        <ele>85.7</ele>
        <time>2026-03-30T12:50:24.000Z</time>
      </trkpt>
      <trkpt lat="49.52629" lon="-1.59212">
        <ele>85.7</ele>
        <time>2026-03-30T12:50:25.000Z</time>
      </trkpt>
      <trkpt lat="49.52629" lon="-1.59212">
        <ele>85.7</ele>
        <time>2026-03-30T12:50:26.000Z</time>
      </trkpt>
      <trkpt lat="49.52629" lon="-1.59212">
        <ele>85.8</ele>
        <time>2026-03-30T12:50:27.000Z</time>
      </trkpt>
      <trkpt lat="49.52629" lon="-1.59211">
        <ele>86.1</ele>
        <time>2026-03-30T12:50:28.000Z</time>
      </trkpt>
      <trkpt lat="49.52629" lon="-1.59211">
        <ele>86.3</ele>
        <time>2026-03-30T12:50:29.000Z</time>
      </trkpt>
      <trkpt lat="49.52629" lon="-1.59211">
        <ele>86.6</ele>
        <time>2026-03-30T12:50:30.000Z</time>
      </trkpt>
      <trkpt lat="49.52629" lon="-1.5921">
        <ele>86.7</ele>
        <time>2026-03-30T12:50:31.000Z</time>
      </trkpt>
      <trkpt lat="49.52628" lon="-1.59209">
        <ele>87.1</ele>
        <time>2026-03-30T12:50:32.000Z</time>
      </trkpt>
      <trkpt lat="49.52628" lon="-1.59208">
        <ele>86.9</ele>
        <time>2026-03-30T12:50:33.000Z</time>
      </trkpt>
      <trkpt lat="49.52628" lon="-1.59206">
        <ele>87.5</ele>
        <time>2026-03-30T12:50:34.000Z</time>
      </trkpt>
      <trkpt lat="49.52628" lon="-1.59205">
        <ele>88</ele>
        <time>2026-03-30T12:50:35.000Z</time>
      </trkpt>
      <trkpt lat="49.52627" lon="-1.59203">
        <ele>88.5</ele>
        <time>2026-03-30T12:50:36.000Z</time>
      </trkpt>
      <trkpt lat="49.52627" lon="-1.59202">
        <ele>88.1</ele>
        <time>2026-03-30T12:50:37.000Z</time>
      </trkpt>
      <trkpt lat="49.52627" lon="-1.59201">
        <ele>88.4</ele>
        <time>2026-03-30T12:50:38.000Z</time>
      </trkpt>
      <trkpt lat="49.52627" lon="-1.59199">
        <ele>88.2</ele>
        <time>2026-03-30T12:50:39.000Z</time>
      </trkpt>
      <trkpt lat="49.52626" lon="-1.59197">
        <ele>88.5</ele>
        <time>2026-03-30T12:50:40.000Z</time>
      </trkpt>
      <trkpt lat="49.52626" lon="-1.59196">
        <ele>89.2</ele>
        <time>2026-03-30T12:50:41.000Z</time>
      </trkpt>
      <trkpt lat="49.52626" lon="-1.59194">
        <ele>89.6</ele>
        <time>2026-03-30T12:50:42.000Z</time>
      </trkpt>
      <trkpt lat="49.52626" lon="-1.59193">
        <ele>89.7</ele>
        <time>2026-03-30T12:50:43.000Z</time>
      </trkpt>
      <trkpt lat="49.52625" lon="-1.59191">
        <ele>90.1</ele>
        <time>2026-03-30T12:50:44.000Z</time>
      </trkpt>
      <trkpt lat="49.52625" lon="-1.59189">
        <ele>88.7</ele>
        <time>2026-03-30T12:50:45.000Z</time>
      </trkpt>
      <trkpt lat="49.52625" lon="-1.59187">
        <ele>88</ele>
        <time>2026-03-30T12:50:46.000Z</time>
      </trkpt>
      <trkpt lat="49.52624" lon="-1.59186">
        <ele>87.8</ele>
        <time>2026-03-30T12:50:47.000Z</time>
      </trkpt>
      <trkpt lat="49.52623" lon="-1.59184">
        <ele>87.6</ele>
        <time>2026-03-30T12:50:48.000Z</time>
      </trkpt>
      <trkpt lat="49.52623" lon="-1.59182">
        <ele>88.2</ele>
        <time>2026-03-30T12:50:49.000Z</time>
      </trkpt>
      <trkpt lat="49.52622" lon="-1.59181">
        <ele>88.3</ele>
        <time>2026-03-30T12:50:50.000Z</time>
      </trkpt>
      <trkpt lat="49.52622" lon="-1.59179">
        <ele>88.3</ele>
        <time>2026-03-30T12:50:51.000Z</time>
      </trkpt>
      <trkpt lat="49.52619" lon="-1.59178">
        <ele>88.5</ele>
        <time>2026-03-30T12:50:52.000Z</time>
      </trkpt>
      <trkpt lat="49.52618" lon="-1.59176">
        <ele>89</ele>
        <time>2026-03-30T12:50:53.000Z</time>
      </trkpt>
      <trkpt lat="49.52618" lon="-1.59175">
        <ele>89.1</ele>
        <time>2026-03-30T12:50:54.000Z</time>
      </trkpt>
      <trkpt lat="49.52618" lon="-1.59173">
        <ele>88.2</ele>
        <time>2026-03-30T12:50:55.000Z</time>
      </trkpt>
      <trkpt lat="49.52617" lon="-1.59171">
        <ele>88.7</ele>
        <time>2026-03-30T12:50:56.000Z</time>
      </trkpt>
      <trkpt lat="49.52617" lon="-1.59169">
        <ele>88.5</ele>
        <time>2026-03-30T12:50:57.000Z</time>
      </trkpt>
      <trkpt lat="49.52617" lon="-1.59167">
        <ele>87.8</ele>
        <time>2026-03-30T12:50:58.000Z</time>
      </trkpt>
      <trkpt lat="49.52617" lon="-1.59165">
        <ele>87.8</ele>
        <time>2026-03-30T12:50:59.000Z</time>
      </trkpt>
      <trkpt lat="49.52616" lon="-1.59163">
        <ele>87.3</ele>
        <time>2026-03-30T12:51:00.000Z</time>
      </trkpt>
      <trkpt lat="49.52615" lon="-1.59162">
        <ele>87.3</ele>
        <time>2026-03-30T12:51:01.000Z</time>
      </trkpt>
      <trkpt lat="49.52615" lon="-1.5916">
        <ele>86.9</ele>
        <time>2026-03-30T12:51:02.000Z</time>
      </trkpt>
      <trkpt lat="49.52614" lon="-1.59158">
        <ele>86</ele>
        <time>2026-03-30T12:51:03.000Z</time>
      </trkpt>
      <trkpt lat="49.52614" lon="-1.59157">
        <ele>85.3</ele>
        <time>2026-03-30T12:51:04.000Z</time>
      </trkpt>
      <trkpt lat="49.52613" lon="-1.59155">
        <ele>84.9</ele>
        <time>2026-03-30T12:51:05.000Z</time>
      </trkpt>
      <trkpt lat="49.52612" lon="-1.59154">
        <ele>85</ele>
        <time>2026-03-30T12:51:06.000Z</time>
      </trkpt>
      <trkpt lat="49.52612" lon="-1.59152">
        <ele>84.1</ele>
        <time>2026-03-30T12:51:07.000Z</time>
      </trkpt>
      <trkpt lat="49.52611" lon="-1.59151">
        <ele>83.7</ele>
        <time>2026-03-30T12:51:08.000Z</time>
      </trkpt>
      <trkpt lat="49.52611" lon="-1.59149">
        <ele>82.3</ele>
        <time>2026-03-30T12:51:09.000Z</time>
      </trkpt>
      <trkpt lat="49.5261" lon="-1.59147">
        <ele>80.5</ele>
        <time>2026-03-30T12:51:10.000Z</time>
      </trkpt>
      <trkpt lat="49.5261" lon="-1.59146">
        <ele>80.1</ele>
        <time>2026-03-30T12:51:11.000Z</time>
      </trkpt>
      <trkpt lat="49.52609" lon="-1.59144">
        <ele>80.4</ele>
        <time>2026-03-30T12:51:12.000Z</time>
      </trkpt>
      <trkpt lat="49.52609" lon="-1.59142">
        <ele>81.8</ele>
        <time>2026-03-30T12:51:13.000Z</time>
      </trkpt>
      <trkpt lat="49.52609" lon="-1.59141">
        <ele>82</ele>
        <time>2026-03-30T12:51:14.000Z</time>
      </trkpt>
      <trkpt lat="49.52608" lon="-1.59139">
        <ele>82.6</ele>
        <time>2026-03-30T12:51:15.000Z</time>
      </trkpt>
      <trkpt lat="49.52607" lon="-1.59138">
        <ele>82.6</ele>
        <time>2026-03-30T12:51:16.000Z</time>
      </trkpt>
      <trkpt lat="49.52606" lon="-1.59137">
        <ele>81.7</ele>
        <time>2026-03-30T12:51:17.000Z</time>
      </trkpt>
      <trkpt lat="49.52606" lon="-1.59135">
        <ele>81.7</ele>
        <time>2026-03-30T12:51:18.000Z</time>
      </trkpt>
      <trkpt lat="49.52605" lon="-1.59134">
        <ele>82</ele>
        <time>2026-03-30T12:51:19.000Z</time>
      </trkpt>
      <trkpt lat="49.52605" lon="-1.59132">
        <ele>82.8</ele>
        <time>2026-03-30T12:51:20.000Z</time>
      </trkpt>
      <trkpt lat="49.52605" lon="-1.5913">
        <ele>82.8</ele>
        <time>2026-03-30T12:51:21.000Z</time>
      </trkpt>
      <trkpt lat="49.52605" lon="-1.59128">
        <ele>82</ele>
        <time>2026-03-30T12:51:22.000Z</time>
      </trkpt>
      <trkpt lat="49.52604" lon="-1.59127">
        <ele>81.8</ele>
        <time>2026-03-30T12:51:23.000Z</time>
      </trkpt>
      <trkpt lat="49.52604" lon="-1.59125">
        <ele>82.5</ele>
        <time>2026-03-30T12:51:24.000Z</time>
      </trkpt>
      <trkpt lat="49.52603" lon="-1.59124">
        <ele>83.7</ele>
        <time>2026-03-30T12:51:25.000Z</time>
      </trkpt>
      <trkpt lat="49.52603" lon="-1.59122">
        <ele>84.3</ele>
        <time>2026-03-30T12:51:26.000Z</time>
      </trkpt>
      <trkpt lat="49.52602" lon="-1.5912">
        <ele>84.7</ele>
        <time>2026-03-30T12:51:27.000Z</time>
      </trkpt>
      <trkpt lat="49.52602" lon="-1.59118">
        <ele>85.7</ele>
        <time>2026-03-30T12:51:28.000Z</time>
      </trkpt>
      <trkpt lat="49.52602" lon="-1.59117">
        <ele>85.9</ele>
        <time>2026-03-30T12:51:29.000Z</time>
      </trkpt>
      <trkpt lat="49.52601" lon="-1.59115">
        <ele>86.5</ele>
        <time>2026-03-30T12:51:30.000Z</time>
      </trkpt>
      <trkpt lat="49.52601" lon="-1.59113">
        <ele>87.5</ele>
        <time>2026-03-30T12:51:31.000Z</time>
      </trkpt>
      <trkpt lat="49.52601" lon="-1.59112">
        <ele>87.6</ele>
        <time>2026-03-30T12:51:32.000Z</time>
      </trkpt>
      <trkpt lat="49.526" lon="-1.5911">
        <ele>88.4</ele>
        <time>2026-03-30T12:51:33.000Z</time>
      </trkpt>
      <trkpt lat="49.526" lon="-1.59109">
        <ele>89.6</ele>
        <time>2026-03-30T12:51:34.000Z</time>
      </trkpt>
      <trkpt lat="49.52599" lon="-1.59107">
        <ele>89.9</ele>
        <time>2026-03-30T12:51:35.000Z</time>
      </trkpt>
      <trkpt lat="49.52599" lon="-1.59105">
        <ele>89</ele>
        <time>2026-03-30T12:51:36.000Z</time>
      </trkpt>
      <trkpt lat="49.52599" lon="-1.59103">
        <ele>89.6</ele>
        <time>2026-03-30T12:51:37.000Z</time>
      </trkpt>
      <trkpt lat="49.52599" lon="-1.59101">
        <ele>89.9</ele>
        <time>2026-03-30T12:51:38.000Z</time>
      </trkpt>
      <trkpt lat="49.52599" lon="-1.59099">
        <ele>90.2</ele>
        <time>2026-03-30T12:51:39.000Z</time>
      </trkpt>
      <trkpt lat="49.52598" lon="-1.59098">
        <ele>90.7</ele>
        <time>2026-03-30T12:51:40.000Z</time>
      </trkpt>
      <trkpt lat="49.52598" lon="-1.59096">
        <ele>90.5</ele>
        <time>2026-03-30T12:51:41.000Z</time>
      </trkpt>
      <trkpt lat="49.52598" lon="-1.59094">
        <ele>90.1</ele>
        <time>2026-03-30T12:51:42.000Z</time>
      </trkpt>
      <trkpt lat="49.52598" lon="-1.59092">
        <ele>90.4</ele>
        <time>2026-03-30T12:51:43.000Z</time>
      </trkpt>
      <trkpt lat="49.52598" lon="-1.5909">
        <ele>90.5</ele>
        <time>2026-03-30T12:51:44.000Z</time>
      </trkpt>
      <trkpt lat="49.52597" lon="-1.59088">
        <ele>90.7</ele>
        <time>2026-03-30T12:51:45.000Z</time>
      </trkpt>
      <trkpt lat="49.52597" lon="-1.59086">
        <ele>91.2</ele>
        <time>2026-03-30T12:51:46.000Z</time>
      </trkpt>
      <trkpt lat="49.52597" lon="-1.59084">
        <ele>90.8</ele>
        <time>2026-03-30T12:51:47.000Z</time>
      </trkpt>
      <trkpt lat="49.52596" lon="-1.59083">
        <ele>90.9</ele>
        <time>2026-03-30T12:51:48.000Z</time>
      </trkpt>
      <trkpt lat="49.52596" lon="-1.59081">
        <ele>91.3</ele>
        <time>2026-03-30T12:51:49.000Z</time>
      </trkpt>
      <trkpt lat="49.52596" lon="-1.59079">
        <ele>91.2</ele>
        <time>2026-03-30T12:51:50.000Z</time>
      </trkpt>
      <trkpt lat="49.52595" lon="-1.59077">
        <ele>91.7</ele>
        <time>2026-03-30T12:51:51.000Z</time>
      </trkpt>
      <trkpt lat="49.52595" lon="-1.59076">
        <ele>91.8</ele>
        <time>2026-03-30T12:51:52.000Z</time>
      </trkpt>
      <trkpt lat="49.52595" lon="-1.59074">
        <ele>92.6</ele>
        <time>2026-03-30T12:51:53.000Z</time>
      </trkpt>
      <trkpt lat="49.52594" lon="-1.59072">
        <ele>92.5</ele>
        <time>2026-03-30T12:51:54.000Z</time>
      </trkpt>
      <trkpt lat="49.52594" lon="-1.5907">
        <ele>93.3</ele>
        <time>2026-03-30T12:51:55.000Z</time>
      </trkpt>
      <trkpt lat="49.52594" lon="-1.59068">
        <ele>93.5</ele>
        <time>2026-03-30T12:51:56.000Z</time>
      </trkpt>
      <trkpt lat="49.52593" lon="-1.59066">
        <ele>93.4</ele>
        <time>2026-03-30T12:51:57.000Z</time>
      </trkpt>
      <trkpt lat="49.52593" lon="-1.59064">
        <ele>92.9</ele>
        <time>2026-03-30T12:51:58.000Z</time>
      </trkpt>
      <trkpt lat="49.52592" lon="-1.59063">
        <ele>92.4</ele>
        <time>2026-03-30T12:51:59.000Z</time>
      </trkpt>
      <trkpt lat="49.52592" lon="-1.59061">
        <ele>92.1</ele>
        <time>2026-03-30T12:52:00.000Z</time>
      </trkpt>
      <trkpt lat="49.52592" lon="-1.59059">
        <ele>92.7</ele>
        <time>2026-03-30T12:52:01.000Z</time>
      </trkpt>
      <trkpt lat="49.52592" lon="-1.59057">
        <ele>92.5</ele>
        <time>2026-03-30T12:52:02.000Z</time>
      </trkpt>
      <trkpt lat="49.52591" lon="-1.59055">
        <ele>92</ele>
        <time>2026-03-30T12:52:03.000Z</time>
      </trkpt>
      <trkpt lat="49.52591" lon="-1.59054">
        <ele>92.4</ele>
        <time>2026-03-30T12:52:04.000Z</time>
      </trkpt>
      <trkpt lat="49.52591" lon="-1.59052">
        <ele>92.4</ele>
        <time>2026-03-30T12:52:05.000Z</time>
      </trkpt>
      <trkpt lat="49.5259" lon="-1.5905">
        <ele>92.1</ele>
        <time>2026-03-30T12:52:06.000Z</time>
      </trkpt>
      <trkpt lat="49.5259" lon="-1.59048">
        <ele>92.1</ele>
        <time>2026-03-30T12:52:07.000Z</time>
      </trkpt>
      <trkpt lat="49.52589" lon="-1.59046">
        <ele>92.6</ele>
        <time>2026-03-30T12:52:08.000Z</time>
      </trkpt>
      <trkpt lat="49.52589" lon="-1.59044">
        <ele>93</ele>
        <time>2026-03-30T12:52:09.000Z</time>
      </trkpt>
      <trkpt lat="49.52589" lon="-1.59043">
        <ele>92.7</ele>
        <time>2026-03-30T12:52:10.000Z</time>
      </trkpt>
      <trkpt lat="49.52588" lon="-1.59041">
        <ele>92.7</ele>
        <time>2026-03-30T12:52:11.000Z</time>
      </trkpt>
      <trkpt lat="49.52588" lon="-1.59039">
        <ele>92.5</ele>
        <time>2026-03-30T12:52:12.000Z</time>
      </trkpt>
      <trkpt lat="49.52588" lon="-1.59038">
        <ele>92.3</ele>
        <time>2026-03-30T12:52:13.000Z</time>
      </trkpt>
      <trkpt lat="49.52587" lon="-1.59036">
        <ele>92.3</ele>
        <time>2026-03-30T12:52:14.000Z</time>
      </trkpt>
      <trkpt lat="49.52587" lon="-1.59034">
        <ele>92.1</ele>
        <time>2026-03-30T12:52:15.000Z</time>
      </trkpt>
      <trkpt lat="49.52587" lon="-1.59033">
        <ele>92</ele>
        <time>2026-03-30T12:52:16.000Z</time>
      </trkpt>
      <trkpt lat="49.52586" lon="-1.59031">
        <ele>92.3</ele>
        <time>2026-03-30T12:52:17.000Z</time>
      </trkpt>
      <trkpt lat="49.52585" lon="-1.5903">
        <ele>93.4</ele>
        <time>2026-03-30T12:52:18.000Z</time>
      </trkpt>
      <trkpt lat="49.52585" lon="-1.59028">
        <ele>91.7</ele>
        <time>2026-03-30T12:52:19.000Z</time>
      </trkpt>
      <trkpt lat="49.52584" lon="-1.59026">
        <ele>91.4</ele>
        <time>2026-03-30T12:52:20.000Z</time>
      </trkpt>
      <trkpt lat="49.52584" lon="-1.59024">
        <ele>91.3</ele>
        <time>2026-03-30T12:52:21.000Z</time>
      </trkpt>
      <trkpt lat="49.52583" lon="-1.59023">
        <ele>92</ele>
        <time>2026-03-30T12:52:22.000Z</time>
      </trkpt>
      <trkpt lat="49.52582" lon="-1.59021">
        <ele>91.6</ele>
        <time>2026-03-30T12:52:23.000Z</time>
      </trkpt>
      <trkpt lat="49.52582" lon="-1.59019">
        <ele>90.9</ele>
        <time>2026-03-30T12:52:24.000Z</time>
      </trkpt>
      <trkpt lat="49.52582" lon="-1.59017">
        <ele>90.6</ele>
        <time>2026-03-30T12:52:25.000Z</time>
      </trkpt>
      <trkpt lat="49.52581" lon="-1.59015">
        <ele>89.6</ele>
        <time>2026-03-30T12:52:26.000Z</time>
      </trkpt>
      <trkpt lat="49.52581" lon="-1.59013">
        <ele>89.9</ele>
        <time>2026-03-30T12:52:27.000Z</time>
      </trkpt>
      <trkpt lat="49.5258" lon="-1.59012">
        <ele>90.2</ele>
        <time>2026-03-30T12:52:28.000Z</time>
      </trkpt>
      <trkpt lat="49.5258" lon="-1.5901">
        <ele>90.1</ele>
        <time>2026-03-30T12:52:29.000Z</time>
      </trkpt>
      <trkpt lat="49.5258" lon="-1.59008">
        <ele>90.6</ele>
        <time>2026-03-30T12:52:30.000Z</time>
      </trkpt>
      <trkpt lat="49.52579" lon="-1.59006">
        <ele>90.5</ele>
        <time>2026-03-30T12:52:31.000Z</time>
      </trkpt>
      <trkpt lat="49.52578" lon="-1.59004">
        <ele>90.7</ele>
        <time>2026-03-30T12:52:32.000Z</time>
      </trkpt>
      <trkpt lat="49.52578" lon="-1.59003">
        <ele>90.1</ele>
        <time>2026-03-30T12:52:33.000Z</time>
      </trkpt>
      <trkpt lat="49.52577" lon="-1.59001">
        <ele>90.5</ele>
        <time>2026-03-30T12:52:34.000Z</time>
      </trkpt>
      <trkpt lat="49.52577" lon="-1.59">
        <ele>90.5</ele>
        <time>2026-03-30T12:52:35.000Z</time>
      </trkpt>
      <trkpt lat="49.52576" lon="-1.58998">
        <ele>90.8</ele>
        <time>2026-03-30T12:52:36.000Z</time>
      </trkpt>
      <trkpt lat="49.52576" lon="-1.58997">
        <ele>90.4</ele>
        <time>2026-03-30T12:52:37.000Z</time>
      </trkpt>
      <trkpt lat="49.52575" lon="-1.58995">
        <ele>90.3</ele>
        <time>2026-03-30T12:52:38.000Z</time>
      </trkpt>
      <trkpt lat="49.52575" lon="-1.58993">
        <ele>90.4</ele>
        <time>2026-03-30T12:52:39.000Z</time>
      </trkpt>
      <trkpt lat="49.52574" lon="-1.58991">
        <ele>90.2</ele>
        <time>2026-03-30T12:52:40.000Z</time>
      </trkpt>
      <trkpt lat="49.52574" lon="-1.58989">
        <ele>90</ele>
        <time>2026-03-30T12:52:41.000Z</time>
      </trkpt>
      <trkpt lat="49.52573" lon="-1.58988">
        <ele>89.8</ele>
        <time>2026-03-30T12:52:42.000Z</time>
      </trkpt>
      <trkpt lat="49.52573" lon="-1.58986">
        <ele>90.2</ele>
        <time>2026-03-30T12:52:43.000Z</time>
      </trkpt>
      <trkpt lat="49.52572" lon="-1.58984">
        <ele>90.1</ele>
        <time>2026-03-30T12:52:44.000Z</time>
      </trkpt>
      <trkpt lat="49.52571" lon="-1.58982">
        <ele>89.6</ele>
        <time>2026-03-30T12:52:45.000Z</time>
      </trkpt>
      <trkpt lat="49.52571" lon="-1.58981">
        <ele>88.7</ele>
        <time>2026-03-30T12:52:46.000Z</time>
      </trkpt>
      <trkpt lat="49.5257" lon="-1.58979">
        <ele>88.7</ele>
        <time>2026-03-30T12:52:47.000Z</time>
      </trkpt>
      <trkpt lat="49.52569" lon="-1.58977">
        <ele>88.4</ele>
        <time>2026-03-30T12:52:48.000Z</time>
      </trkpt>
      <trkpt lat="49.52569" lon="-1.58976">
        <ele>88.5</ele>
        <time>2026-03-30T12:52:49.000Z</time>
      </trkpt>
      <trkpt lat="49.52567" lon="-1.58975">
        <ele>88.7</ele>
        <time>2026-03-30T12:52:50.000Z</time>
      </trkpt>
      <trkpt lat="49.52566" lon="-1.58974">
        <ele>88.3</ele>
        <time>2026-03-30T12:52:51.000Z</time>
      </trkpt>
      <trkpt lat="49.52566" lon="-1.58973">
        <ele>89.1</ele>
        <time>2026-03-30T12:52:52.000Z</time>
      </trkpt>
      <trkpt lat="49.52565" lon="-1.58971">
        <ele>89.5</ele>
        <time>2026-03-30T12:52:53.000Z</time>
      </trkpt>
      <trkpt lat="49.52565" lon="-1.58969">
        <ele>89.2</ele>
        <time>2026-03-30T12:52:54.000Z</time>
      </trkpt>
      <trkpt lat="49.52564" lon="-1.58968">
        <ele>89.4</ele>
        <time>2026-03-30T12:52:55.000Z</time>
      </trkpt>
      <trkpt lat="49.52564" lon="-1.58966">
        <ele>89.5</ele>
        <time>2026-03-30T12:52:56.000Z</time>
      </trkpt>
      <trkpt lat="49.52563" lon="-1.58965">
        <ele>89.4</ele>
        <time>2026-03-30T12:52:57.000Z</time>
      </trkpt>
      <trkpt lat="49.52563" lon="-1.58962">
        <ele>89.4</ele>
        <time>2026-03-30T12:52:58.000Z</time>
      </trkpt>
      <trkpt lat="49.52563" lon="-1.5896">
        <ele>88.9</ele>
        <time>2026-03-30T12:52:59.000Z</time>
      </trkpt>
      <trkpt lat="49.52562" lon="-1.58959">
        <ele>88.9</ele>
        <time>2026-03-30T12:53:00.000Z</time>
      </trkpt>
      <trkpt lat="49.52562" lon="-1.58957">
        <ele>87.6</ele>
        <time>2026-03-30T12:53:01.000Z</time>
      </trkpt>
      <trkpt lat="49.52561" lon="-1.58956">
        <ele>88.4</ele>
        <time>2026-03-30T12:53:02.000Z</time>
      </trkpt>
      <trkpt lat="49.5256" lon="-1.58955">
        <ele>89.5</ele>
        <time>2026-03-30T12:53:03.000Z</time>
      </trkpt>
      <trkpt lat="49.52559" lon="-1.58955">
        <ele>89.8</ele>
        <time>2026-03-30T12:53:04.000Z</time>
      </trkpt>
      <trkpt lat="49.52558" lon="-1.58955">
        <ele>90.1</ele>
        <time>2026-03-30T12:53:05.000Z</time>
      </trkpt>
      <trkpt lat="49.52557" lon="-1.58955">
        <ele>90.4</ele>
        <time>2026-03-30T12:53:06.000Z</time>
      </trkpt>
      <trkpt lat="49.52556" lon="-1.58954">
        <ele>90.6</ele>
        <time>2026-03-30T12:53:07.000Z</time>
      </trkpt>
      <trkpt lat="49.52556" lon="-1.58952">
        <ele>90.4</ele>
        <time>2026-03-30T12:53:08.000Z</time>
      </trkpt>
      <trkpt lat="49.52556" lon="-1.58951">
        <ele>90.4</ele>
        <time>2026-03-30T12:53:09.000Z</time>
      </trkpt>
      <trkpt lat="49.52556" lon="-1.58951">
        <ele>90.4</ele>
        <time>2026-03-30T12:53:10.000Z</time>
      </trkpt>
      <trkpt lat="49.52557" lon="-1.58951">
        <ele>90.4</ele>
        <time>2026-03-30T12:53:11.000Z</time>
      </trkpt>
      <trkpt lat="49.52557" lon="-1.58951">
        <ele>90.4</ele>
        <time>2026-03-30T12:53:12.000Z</time>
      </trkpt>
      <trkpt lat="49.52557" lon="-1.58951">
        <ele>90.1</ele>
        <time>2026-03-30T12:53:13.000Z</time>
      </trkpt>
      <trkpt lat="49.52557" lon="-1.58951">
        <ele>89.8</ele>
        <time>2026-03-30T12:53:14.000Z</time>
      </trkpt>
      <trkpt lat="49.52558" lon="-1.5895">
        <ele>90</ele>
        <time>2026-03-30T12:53:15.000Z</time>
      </trkpt>
      <trkpt lat="49.52559" lon="-1.58949">
        <ele>90.1</ele>
        <time>2026-03-30T12:53:16.000Z</time>
      </trkpt>
      <trkpt lat="49.5256" lon="-1.58948">
        <ele>90.1</ele>
        <time>2026-03-30T12:53:17.000Z</time>
      </trkpt>
      <trkpt lat="49.5256" lon="-1.58947">
        <ele>89.8</ele>
        <time>2026-03-30T12:53:18.000Z</time>
      </trkpt>
      <trkpt lat="49.52561" lon="-1.58946">
        <ele>89.9</ele>
        <time>2026-03-30T12:53:19.000Z</time>
      </trkpt>
      <trkpt lat="49.52561" lon="-1.58946">
        <ele>89.9</ele>
        <time>2026-03-30T12:53:20.000Z</time>
      </trkpt>
      <trkpt lat="49.52562" lon="-1.58946">
        <ele>90.7</ele>
        <time>2026-03-30T12:53:21.000Z</time>
      </trkpt>
      <trkpt lat="49.52564" lon="-1.58948">
        <ele>94.9</ele>
        <time>2026-03-30T12:55:19.000Z</time>
      </trkpt>
      <trkpt lat="49.52564" lon="-1.58949">
        <ele>95.2</ele>
        <time>2026-03-30T12:55:20.000Z</time>
      </trkpt>
      <trkpt lat="49.52566" lon="-1.58947">
        <ele>94.9</ele>
        <time>2026-03-30T12:55:21.000Z</time>
      </trkpt>
      <trkpt lat="49.52566" lon="-1.58945">
        <ele>94.6</ele>
        <time>2026-03-30T12:55:22.000Z</time>
      </trkpt>
      <trkpt lat="49.52566" lon="-1.58944">
        <ele>94</ele>
        <time>2026-03-30T12:55:23.000Z</time>
      </trkpt>
      <trkpt lat="49.52565" lon="-1.58944">
        <ele>92.8</ele>
        <time>2026-03-30T12:55:24.000Z</time>
      </trkpt>
      <trkpt lat="49.52564" lon="-1.58943">
        <ele>92.6</ele>
        <time>2026-03-30T12:55:25.000Z</time>
      </trkpt>
      <trkpt lat="49.52563" lon="-1.58943">
        <ele>92.6</ele>
        <time>2026-03-30T12:55:26.000Z</time>
      </trkpt>
      <trkpt lat="49.52563" lon="-1.58943">
        <ele>92.6</ele>
        <time>2026-03-30T12:55:27.000Z</time>
      </trkpt>
      <trkpt lat="49.52563" lon="-1.58943">
        <ele>92.6</ele>
        <time>2026-03-30T12:55:28.000Z</time>
      </trkpt>
      <trkpt lat="49.52564" lon="-1.58943">
        <ele>92.6</ele>
        <time>2026-03-30T12:55:29.000Z</time>
      </trkpt>
      <trkpt lat="49.52564" lon="-1.58943">
        <ele>92.5</ele>
        <time>2026-03-30T12:55:30.000Z</time>
      </trkpt>
      <trkpt lat="49.52564" lon="-1.58944">
        <ele>92.6</ele>
        <time>2026-03-30T12:55:31.000Z</time>
      </trkpt>
      <trkpt lat="49.52564" lon="-1.58944">
        <ele>92.6</ele>
        <time>2026-03-30T12:55:32.000Z</time>
      </trkpt>
      <trkpt lat="49.52564" lon="-1.58944">
        <ele>92.7</ele>
        <time>2026-03-30T12:55:33.000Z</time>
      </trkpt>
      <trkpt lat="49.52564" lon="-1.58945">
        <ele>92.3</ele>
        <time>2026-03-30T12:55:34.000Z</time>
      </trkpt>
      <trkpt lat="49.52564" lon="-1.58947">
        <ele>93</ele>
        <time>2026-03-30T12:55:35.000Z</time>
      </trkpt>
      <trkpt lat="49.52564" lon="-1.58949">
        <ele>92.3</ele>
        <time>2026-03-30T12:55:36.000Z</time>
      </trkpt>
      <trkpt lat="49.52565" lon="-1.5895">
        <ele>91.9</ele>
        <time>2026-03-30T12:55:37.000Z</time>
      </trkpt>
      <trkpt lat="49.52565" lon="-1.58951">
        <ele>92.2</ele>
        <time>2026-03-30T12:55:38.000Z</time>
      </trkpt>
      <trkpt lat="49.52566" lon="-1.58952">
        <ele>92.6</ele>
        <time>2026-03-30T12:55:39.000Z</time>
      </trkpt>
      <trkpt lat="49.52566" lon="-1.58953">
        <ele>92.4</ele>
        <time>2026-03-30T12:55:40.000Z</time>
      </trkpt>
      <trkpt lat="49.52567" lon="-1.58954">
        <ele>92.8</ele>
        <time>2026-03-30T12:55:41.000Z</time>
      </trkpt>
      <trkpt lat="49.52567" lon="-1.58955">
        <ele>92.9</ele>
        <time>2026-03-30T12:55:42.000Z</time>
      </trkpt>
      <trkpt lat="49.52568" lon="-1.58956">
        <ele>92.2</ele>
        <time>2026-03-30T12:55:43.000Z</time>
      </trkpt>
      <trkpt lat="49.52569" lon="-1.58957">
        <ele>91.8</ele>
        <time>2026-03-30T12:55:44.000Z</time>
      </trkpt>
      <trkpt lat="49.52569" lon="-1.58958">
        <ele>91.2</ele>
        <time>2026-03-30T12:55:45.000Z</time>
      </trkpt>
      <trkpt lat="49.5257" lon="-1.58959">
        <ele>90.9</ele>
        <time>2026-03-30T12:55:46.000Z</time>
      </trkpt>
      <trkpt lat="49.52571" lon="-1.58961">
        <ele>91.2</ele>
        <time>2026-03-30T12:55:47.000Z</time>
      </trkpt>
      <trkpt lat="49.5257" lon="-1.58963">
        <ele>90.3</ele>
        <time>2026-03-30T12:55:48.000Z</time>
      </trkpt>
      <trkpt lat="49.5257" lon="-1.58965">
        <ele>90.1</ele>
        <time>2026-03-30T12:55:49.000Z</time>
      </trkpt>
      <trkpt lat="49.52569" lon="-1.58967">
        <ele>89.7</ele>
        <time>2026-03-30T12:55:50.000Z</time>
      </trkpt>
      <trkpt lat="49.52569" lon="-1.58968">
        <ele>89.7</ele>
        <time>2026-03-30T12:55:51.000Z</time>
      </trkpt>
      <trkpt lat="49.52569" lon="-1.5897">
        <ele>90.4</ele>
        <time>2026-03-30T12:55:52.000Z</time>
      </trkpt>
      <trkpt lat="49.52569" lon="-1.58971">
        <ele>90.2</ele>
        <time>2026-03-30T12:55:53.000Z</time>
      </trkpt>
      <trkpt lat="49.5257" lon="-1.58972">
        <ele>90.6</ele>
        <time>2026-03-30T12:55:54.000Z</time>
      </trkpt>
      <trkpt lat="49.5257" lon="-1.58974">
        <ele>90.5</ele>
        <time>2026-03-30T12:55:55.000Z</time>
      </trkpt>
      <trkpt lat="49.5257" lon="-1.58976">
        <ele>90.3</ele>
        <time>2026-03-30T12:55:56.000Z</time>
      </trkpt>
      <trkpt lat="49.5257" lon="-1.58977">
        <ele>90.3</ele>
        <time>2026-03-30T12:55:57.000Z</time>
      </trkpt>
      <trkpt lat="49.5257" lon="-1.58979">
        <ele>90</ele>
        <time>2026-03-30T12:55:58.000Z</time>
      </trkpt>
      <trkpt lat="49.52571" lon="-1.5898">
        <ele>89.9</ele>
        <time>2026-03-30T12:55:59.000Z</time>
      </trkpt>
      <trkpt lat="49.52571" lon="-1.58982">
        <ele>89.9</ele>
        <time>2026-03-30T12:56:00.000Z</time>
      </trkpt>
      <trkpt lat="49.52571" lon="-1.58983">
        <ele>89.7</ele>
        <time>2026-03-30T12:56:01.000Z</time>
      </trkpt>
      <trkpt lat="49.52571" lon="-1.58984">
        <ele>89.5</ele>
        <time>2026-03-30T12:56:02.000Z</time>
      </trkpt>
      <trkpt lat="49.52572" lon="-1.58986">
        <ele>89.6</ele>
        <time>2026-03-30T12:56:03.000Z</time>
      </trkpt>
      <trkpt lat="49.52572" lon="-1.58988">
        <ele>90.5</ele>
        <time>2026-03-30T12:56:04.000Z</time>
      </trkpt>
      <trkpt lat="49.52573" lon="-1.58989">
        <ele>91.3</ele>
        <time>2026-03-30T12:56:05.000Z</time>
      </trkpt>
      <trkpt lat="49.52573" lon="-1.58991">
        <ele>91.5</ele>
        <time>2026-03-30T12:56:06.000Z</time>
      </trkpt>
      <trkpt lat="49.52574" lon="-1.58992">
        <ele>91.5</ele>
        <time>2026-03-30T12:56:07.000Z</time>
      </trkpt>
      <trkpt lat="49.52574" lon="-1.58994">
        <ele>90.9</ele>
        <time>2026-03-30T12:56:08.000Z</time>
      </trkpt>
      <trkpt lat="49.52575" lon="-1.58995">
        <ele>90.6</ele>
        <time>2026-03-30T12:56:09.000Z</time>
      </trkpt>
      <trkpt lat="49.52575" lon="-1.58997">
        <ele>90.5</ele>
        <time>2026-03-30T12:56:10.000Z</time>
      </trkpt>
      <trkpt lat="49.52576" lon="-1.58999">
        <ele>90.5</ele>
        <time>2026-03-30T12:56:11.000Z</time>
      </trkpt>
      <trkpt lat="49.52576" lon="-1.59">
        <ele>90.6</ele>
        <time>2026-03-30T12:56:12.000Z</time>
      </trkpt>
      <trkpt lat="49.52577" lon="-1.59002">
        <ele>90.8</ele>
        <time>2026-03-30T12:56:13.000Z</time>
      </trkpt>
      <trkpt lat="49.52577" lon="-1.59003">
        <ele>90.3</ele>
        <time>2026-03-30T12:56:14.000Z</time>
      </trkpt>
      <trkpt lat="49.52577" lon="-1.59005">
        <ele>90.6</ele>
        <time>2026-03-30T12:56:15.000Z</time>
      </trkpt>
      <trkpt lat="49.52578" lon="-1.59006">
        <ele>90.8</ele>
        <time>2026-03-30T12:56:16.000Z</time>
      </trkpt>
      <trkpt lat="49.52578" lon="-1.59007">
        <ele>90.7</ele>
        <time>2026-03-30T12:56:17.000Z</time>
      </trkpt>
      <trkpt lat="49.52579" lon="-1.59009">
        <ele>91</ele>
        <time>2026-03-30T12:56:18.000Z</time>
      </trkpt>
      <trkpt lat="49.52579" lon="-1.59011">
        <ele>91.3</ele>
        <time>2026-03-30T12:56:19.000Z</time>
      </trkpt>
      <trkpt lat="49.5258" lon="-1.59012">
        <ele>91.1</ele>
        <time>2026-03-30T12:56:20.000Z</time>
      </trkpt>
      <trkpt lat="49.5258" lon="-1.59013">
        <ele>90.7</ele>
        <time>2026-03-30T12:56:21.000Z</time>
      </trkpt>
      <trkpt lat="49.52581" lon="-1.59015">
        <ele>91.2</ele>
        <time>2026-03-30T12:56:22.000Z</time>
      </trkpt>
      <trkpt lat="49.52581" lon="-1.59017">
        <ele>91.2</ele>
        <time>2026-03-30T12:56:23.000Z</time>
      </trkpt>
      <trkpt lat="49.52581" lon="-1.59018">
        <ele>91.8</ele>
        <time>2026-03-30T12:56:24.000Z</time>
      </trkpt>
      <trkpt lat="49.52582" lon="-1.5902">
        <ele>91.9</ele>
        <time>2026-03-30T12:56:25.000Z</time>
      </trkpt>
      <trkpt lat="49.52582" lon="-1.59021">
        <ele>91.7</ele>
        <time>2026-03-30T12:56:26.000Z</time>
      </trkpt>
      <trkpt lat="49.52583" lon="-1.59023">
        <ele>92</ele>
        <time>2026-03-30T12:56:27.000Z</time>
      </trkpt>
      <trkpt lat="49.52583" lon="-1.59024">
        <ele>92</ele>
        <time>2026-03-30T12:56:28.000Z</time>
      </trkpt>
      <trkpt lat="49.52584" lon="-1.59026">
        <ele>91.8</ele>
        <time>2026-03-30T12:56:29.000Z</time>
      </trkpt>
      <trkpt lat="49.52584" lon="-1.59028">
        <ele>91.2</ele>
        <time>2026-03-30T12:56:30.000Z</time>
      </trkpt>
      <trkpt lat="49.52584" lon="-1.5903">
        <ele>91.1</ele>
        <time>2026-03-30T12:56:31.000Z</time>
      </trkpt>
      <trkpt lat="49.52584" lon="-1.59032">
        <ele>91</ele>
        <time>2026-03-30T12:56:32.000Z</time>
      </trkpt>
      <trkpt lat="49.52584" lon="-1.59034">
        <ele>91</ele>
        <time>2026-03-30T12:56:33.000Z</time>
      </trkpt>
      <trkpt lat="49.52585" lon="-1.59035">
        <ele>91.1</ele>
        <time>2026-03-30T12:56:34.000Z</time>
      </trkpt>
      <trkpt lat="49.52585" lon="-1.59037">
        <ele>91.4</ele>
        <time>2026-03-30T12:56:35.000Z</time>
      </trkpt>
      <trkpt lat="49.52586" lon="-1.59039">
        <ele>91.2</ele>
        <time>2026-03-30T12:56:36.000Z</time>
      </trkpt>
      <trkpt lat="49.52586" lon="-1.59041">
        <ele>91.3</ele>
        <time>2026-03-30T12:56:37.000Z</time>
      </trkpt>
      <trkpt lat="49.52587" lon="-1.59043">
        <ele>91.9</ele>
        <time>2026-03-30T12:56:38.000Z</time>
      </trkpt>
      <trkpt lat="49.52587" lon="-1.59044">
        <ele>91.9</ele>
        <time>2026-03-30T12:56:39.000Z</time>
      </trkpt>
      <trkpt lat="49.52588" lon="-1.59046">
        <ele>92.3</ele>
        <time>2026-03-30T12:56:40.000Z</time>
      </trkpt>
      <trkpt lat="49.52588" lon="-1.59048">
        <ele>92.7</ele>
        <time>2026-03-30T12:56:41.000Z</time>
      </trkpt>
      <trkpt lat="49.52589" lon="-1.5905">
        <ele>93.5</ele>
        <time>2026-03-30T12:56:42.000Z</time>
      </trkpt>
      <trkpt lat="49.52589" lon="-1.59052">
        <ele>93.6</ele>
        <time>2026-03-30T12:56:43.000Z</time>
      </trkpt>
      <trkpt lat="49.5259" lon="-1.59054">
        <ele>93.5</ele>
        <time>2026-03-30T12:56:44.000Z</time>
      </trkpt>
      <trkpt lat="49.5259" lon="-1.59056">
        <ele>93.5</ele>
        <time>2026-03-30T12:56:45.000Z</time>
      </trkpt>
      <trkpt lat="49.52591" lon="-1.59057">
        <ele>93.4</ele>
        <time>2026-03-30T12:56:46.000Z</time>
      </trkpt>
      <trkpt lat="49.52591" lon="-1.5906">
        <ele>93.6</ele>
        <time>2026-03-30T12:56:47.000Z</time>
      </trkpt>
      <trkpt lat="49.52592" lon="-1.59061">
        <ele>93.8</ele>
        <time>2026-03-30T12:56:48.000Z</time>
      </trkpt>
      <trkpt lat="49.52592" lon="-1.59063">
        <ele>93.4</ele>
        <time>2026-03-30T12:56:49.000Z</time>
      </trkpt>
      <trkpt lat="49.52592" lon="-1.59065">
        <ele>93.6</ele>
        <time>2026-03-30T12:56:50.000Z</time>
      </trkpt>
      <trkpt lat="49.52593" lon="-1.59067">
        <ele>93.6</ele>
        <time>2026-03-30T12:56:51.000Z</time>
      </trkpt>
      <trkpt lat="49.52593" lon="-1.59068">
        <ele>93.3</ele>
        <time>2026-03-30T12:56:52.000Z</time>
      </trkpt>
      <trkpt lat="49.52594" lon="-1.5907">
        <ele>93.4</ele>
        <time>2026-03-30T12:56:53.000Z</time>
      </trkpt>
      <trkpt lat="49.52595" lon="-1.59071">
        <ele>92.9</ele>
        <time>2026-03-30T12:56:54.000Z</time>
      </trkpt>
      <trkpt lat="49.52595" lon="-1.59073">
        <ele>92.5</ele>
        <time>2026-03-30T12:56:55.000Z</time>
      </trkpt>
      <trkpt lat="49.52596" lon="-1.59075">
        <ele>92.5</ele>
        <time>2026-03-30T12:56:56.000Z</time>
      </trkpt>
      <trkpt lat="49.52596" lon="-1.59077">
        <ele>91.8</ele>
        <time>2026-03-30T12:56:57.000Z</time>
      </trkpt>
      <trkpt lat="49.52597" lon="-1.59078">
        <ele>90.9</ele>
        <time>2026-03-30T12:56:58.000Z</time>
      </trkpt>
      <trkpt lat="49.52598" lon="-1.59079">
        <ele>90.7</ele>
        <time>2026-03-30T12:56:59.000Z</time>
      </trkpt>
      <trkpt lat="49.52599" lon="-1.59081">
        <ele>89.8</ele>
        <time>2026-03-30T12:57:00.000Z</time>
      </trkpt>
      <trkpt lat="49.52599" lon="-1.59083">
        <ele>90.4</ele>
        <time>2026-03-30T12:57:01.000Z</time>
      </trkpt>
      <trkpt lat="49.52599" lon="-1.59085">
        <ele>90.6</ele>
        <time>2026-03-30T12:57:02.000Z</time>
      </trkpt>
      <trkpt lat="49.526" lon="-1.59087">
        <ele>91</ele>
        <time>2026-03-30T12:57:03.000Z</time>
      </trkpt>
      <trkpt lat="49.526" lon="-1.59088">
        <ele>91.1</ele>
        <time>2026-03-30T12:57:04.000Z</time>
      </trkpt>
      <trkpt lat="49.526" lon="-1.59091">
        <ele>91.4</ele>
        <time>2026-03-30T12:57:05.000Z</time>
      </trkpt>
      <trkpt lat="49.526" lon="-1.59093">
        <ele>92.5</ele>
        <time>2026-03-30T12:57:06.000Z</time>
      </trkpt>
      <trkpt lat="49.52601" lon="-1.59095">
        <ele>93.8</ele>
        <time>2026-03-30T12:57:07.000Z</time>
      </trkpt>
      <trkpt lat="49.52601" lon="-1.59097">
        <ele>94.8</ele>
        <time>2026-03-30T12:57:08.000Z</time>
      </trkpt>
      <trkpt lat="49.52602" lon="-1.59098">
        <ele>95.3</ele>
        <time>2026-03-30T12:57:09.000Z</time>
      </trkpt>
      <trkpt lat="49.52602" lon="-1.591">
        <ele>96.2</ele>
        <time>2026-03-30T12:57:10.000Z</time>
      </trkpt>
      <trkpt lat="49.52603" lon="-1.59103">
        <ele>95.7</ele>
        <time>2026-03-30T12:57:11.000Z</time>
      </trkpt>
      <trkpt lat="49.52603" lon="-1.59105">
        <ele>95.6</ele>
        <time>2026-03-30T12:57:12.000Z</time>
      </trkpt>
      <trkpt lat="49.52604" lon="-1.59107">
        <ele>96.8</ele>
        <time>2026-03-30T12:57:13.000Z</time>
      </trkpt>
      <trkpt lat="49.52604" lon="-1.59109">
        <ele>95.8</ele>
        <time>2026-03-30T12:57:14.000Z</time>
      </trkpt>
      <trkpt lat="49.52605" lon="-1.59111">
        <ele>94.9</ele>
        <time>2026-03-30T12:57:15.000Z</time>
      </trkpt>
      <trkpt lat="49.52605" lon="-1.59113">
        <ele>94.8</ele>
        <time>2026-03-30T12:57:16.000Z</time>
      </trkpt>
      <trkpt lat="49.52605" lon="-1.59114">
        <ele>95.3</ele>
        <time>2026-03-30T12:57:17.000Z</time>
      </trkpt>
      <trkpt lat="49.52606" lon="-1.59117">
        <ele>94.7</ele>
        <time>2026-03-30T12:57:18.000Z</time>
      </trkpt>
      <trkpt lat="49.52607" lon="-1.59119">
        <ele>95.4</ele>
        <time>2026-03-30T12:57:19.000Z</time>
      </trkpt>
      <trkpt lat="49.52607" lon="-1.59121">
        <ele>94.4</ele>
        <time>2026-03-30T12:57:20.000Z</time>
      </trkpt>
      <trkpt lat="49.52607" lon="-1.59123">
        <ele>94.5</ele>
        <time>2026-03-30T12:57:21.000Z</time>
      </trkpt>
      <trkpt lat="49.52607" lon="-1.59125">
        <ele>94.7</ele>
        <time>2026-03-30T12:57:22.000Z</time>
      </trkpt>
      <trkpt lat="49.52607" lon="-1.59126">
        <ele>95.7</ele>
        <time>2026-03-30T12:57:23.000Z</time>
      </trkpt>
      <trkpt lat="49.52608" lon="-1.59127">
        <ele>96.1</ele>
        <time>2026-03-30T12:57:24.000Z</time>
      </trkpt>
      <trkpt lat="49.52608" lon="-1.59129">
        <ele>95.9</ele>
        <time>2026-03-30T12:57:25.000Z</time>
      </trkpt>
      <trkpt lat="49.52609" lon="-1.5913">
        <ele>96.2</ele>
        <time>2026-03-30T12:57:26.000Z</time>
      </trkpt>
      <trkpt lat="49.5261" lon="-1.59132">
        <ele>96.7</ele>
        <time>2026-03-30T12:57:27.000Z</time>
      </trkpt>
      <trkpt lat="49.5261" lon="-1.59133">
        <ele>96.8</ele>
        <time>2026-03-30T12:57:28.000Z</time>
      </trkpt>
      <trkpt lat="49.5261" lon="-1.59135">
        <ele>97.2</ele>
        <time>2026-03-30T12:57:29.000Z</time>
      </trkpt>
      <trkpt lat="49.5261" lon="-1.59137">
        <ele>96.4</ele>
        <time>2026-03-30T12:57:30.000Z</time>
      </trkpt>
      <trkpt lat="49.52611" lon="-1.59139">
        <ele>96.8</ele>
        <time>2026-03-30T12:57:31.000Z</time>
      </trkpt>
      <trkpt lat="49.52611" lon="-1.59141">
        <ele>97.1</ele>
        <time>2026-03-30T12:57:32.000Z</time>
      </trkpt>
      <trkpt lat="49.52611" lon="-1.59142">
        <ele>96.6</ele>
        <time>2026-03-30T12:57:33.000Z</time>
      </trkpt>
      <trkpt lat="49.52612" lon="-1.59144">
        <ele>96.6</ele>
        <time>2026-03-30T12:57:34.000Z</time>
      </trkpt>
      <trkpt lat="49.52613" lon="-1.59145">
        <ele>96.9</ele>
        <time>2026-03-30T12:57:35.000Z</time>
      </trkpt>
      <trkpt lat="49.52613" lon="-1.59146">
        <ele>97</ele>
        <time>2026-03-30T12:57:36.000Z</time>
      </trkpt>
      <trkpt lat="49.52614" lon="-1.59147">
        <ele>97</ele>
        <time>2026-03-30T12:57:37.000Z</time>
      </trkpt>
      <trkpt lat="49.52614" lon="-1.59149">
        <ele>96.9</ele>
        <time>2026-03-30T12:57:38.000Z</time>
      </trkpt>
      <trkpt lat="49.52615" lon="-1.5915">
        <ele>97.1</ele>
        <time>2026-03-30T12:57:39.000Z</time>
      </trkpt>
      <trkpt lat="49.52615" lon="-1.59151">
        <ele>97.7</ele>
        <time>2026-03-30T12:57:40.000Z</time>
      </trkpt>
      <trkpt lat="49.52615" lon="-1.59153">
        <ele>98.5</ele>
        <time>2026-03-30T12:57:41.000Z</time>
      </trkpt>
      <trkpt lat="49.52616" lon="-1.59154">
        <ele>99.2</ele>
        <time>2026-03-30T12:57:42.000Z</time>
      </trkpt>
      <trkpt lat="49.52616" lon="-1.59155">
        <ele>99.4</ele>
        <time>2026-03-30T12:57:43.000Z</time>
      </trkpt>
      <trkpt lat="49.52617" lon="-1.59156">
        <ele>99.3</ele>
        <time>2026-03-30T12:57:44.000Z</time>
      </trkpt>
      <trkpt lat="49.52617" lon="-1.59158">
        <ele>99.9</ele>
        <time>2026-03-30T12:57:45.000Z</time>
      </trkpt>
      <trkpt lat="49.52618" lon="-1.59159">
        <ele>100.2</ele>
        <time>2026-03-30T12:57:46.000Z</time>
      </trkpt>
      <trkpt lat="49.52618" lon="-1.59161">
        <ele>100.4</ele>
        <time>2026-03-30T12:57:47.000Z</time>
      </trkpt>
      <trkpt lat="49.52619" lon="-1.59162">
        <ele>100.3</ele>
        <time>2026-03-30T12:57:48.000Z</time>
      </trkpt>
      <trkpt lat="49.52619" lon="-1.59164">
        <ele>99.7</ele>
        <time>2026-03-30T12:57:49.000Z</time>
      </trkpt>
      <trkpt lat="49.52619" lon="-1.59166">
        <ele>99.4</ele>
        <time>2026-03-30T12:57:50.000Z</time>
      </trkpt>
      <trkpt lat="49.52619" lon="-1.59167">
        <ele>99.1</ele>
        <time>2026-03-30T12:57:51.000Z</time>
      </trkpt>
      <trkpt lat="49.52619" lon="-1.59169">
        <ele>98.7</ele>
        <time>2026-03-30T12:57:52.000Z</time>
      </trkpt>
      <trkpt lat="49.52619" lon="-1.5917">
        <ele>98.4</ele>
        <time>2026-03-30T12:57:53.000Z</time>
      </trkpt>
      <trkpt lat="49.5262" lon="-1.59172">
        <ele>98.2</ele>
        <time>2026-03-30T12:57:54.000Z</time>
      </trkpt>
      <trkpt lat="49.5262" lon="-1.59174">
        <ele>98.2</ele>
        <time>2026-03-30T12:57:55.000Z</time>
      </trkpt>
      <trkpt lat="49.5262" lon="-1.59176">
        <ele>98.1</ele>
        <time>2026-03-30T12:57:56.000Z</time>
      </trkpt>
      <trkpt lat="49.5262" lon="-1.59177">
        <ele>98.5</ele>
        <time>2026-03-30T12:57:57.000Z</time>
      </trkpt>
      <trkpt lat="49.52621" lon="-1.59179">
        <ele>98.7</ele>
        <time>2026-03-30T12:57:58.000Z</time>
      </trkpt>
      <trkpt lat="49.52621" lon="-1.59181">
        <ele>98.7</ele>
        <time>2026-03-30T12:57:59.000Z</time>
      </trkpt>
      <trkpt lat="49.52621" lon="-1.59183">
        <ele>98.1</ele>
        <time>2026-03-30T12:58:00.000Z</time>
      </trkpt>
      <trkpt lat="49.52622" lon="-1.59185">
        <ele>98.3</ele>
        <time>2026-03-30T12:58:01.000Z</time>
      </trkpt>
      <trkpt lat="49.52622" lon="-1.59187">
        <ele>98.2</ele>
        <time>2026-03-30T12:58:02.000Z</time>
      </trkpt>
      <trkpt lat="49.52622" lon="-1.59189">
        <ele>98.5</ele>
        <time>2026-03-30T12:58:03.000Z</time>
      </trkpt>
      <trkpt lat="49.52623" lon="-1.59191">
        <ele>98.3</ele>
        <time>2026-03-30T12:58:04.000Z</time>
      </trkpt>
      <trkpt lat="49.52623" lon="-1.59193">
        <ele>97.7</ele>
        <time>2026-03-30T12:58:05.000Z</time>
      </trkpt>
      <trkpt lat="49.52623" lon="-1.59195">
        <ele>97.8</ele>
        <time>2026-03-30T12:58:06.000Z</time>
      </trkpt>
      <trkpt lat="49.52624" lon="-1.59196">
        <ele>98.9</ele>
        <time>2026-03-30T12:58:07.000Z</time>
      </trkpt>
      <trkpt lat="49.52624" lon="-1.59199">
        <ele>99</ele>
        <time>2026-03-30T12:58:08.000Z</time>
      </trkpt>
      <trkpt lat="49.52624" lon="-1.59201">
        <ele>98.3</ele>
        <time>2026-03-30T12:58:09.000Z</time>
      </trkpt>
      <trkpt lat="49.52625" lon="-1.59202">
        <ele>97.7</ele>
        <time>2026-03-30T12:58:10.000Z</time>
      </trkpt>
      <trkpt lat="49.52625" lon="-1.59204">
        <ele>97.1</ele>
        <time>2026-03-30T12:58:11.000Z</time>
      </trkpt>
      <trkpt lat="49.52625" lon="-1.59206">
        <ele>97.1</ele>
        <time>2026-03-30T12:58:12.000Z</time>
      </trkpt>
      <trkpt lat="49.52626" lon="-1.59208">
        <ele>97.3</ele>
        <time>2026-03-30T12:58:13.000Z</time>
      </trkpt>
      <trkpt lat="49.52626" lon="-1.5921">
        <ele>97</ele>
        <time>2026-03-30T12:58:14.000Z</time>
      </trkpt>
      <trkpt lat="49.52627" lon="-1.59212">
        <ele>97.3</ele>
        <time>2026-03-30T12:58:15.000Z</time>
      </trkpt>
      <trkpt lat="49.52628" lon="-1.59214">
        <ele>96.6</ele>
        <time>2026-03-30T12:58:16.000Z</time>
      </trkpt>
      <trkpt lat="49.52629" lon="-1.59216">
        <ele>96.8</ele>
        <time>2026-03-30T12:58:17.000Z</time>
      </trkpt>
      <trkpt lat="49.5263" lon="-1.59218">
        <ele>96.2</ele>
        <time>2026-03-30T12:58:18.000Z</time>
      </trkpt>
      <trkpt lat="49.5263" lon="-1.5922">
        <ele>95.9</ele>
        <time>2026-03-30T12:58:19.000Z</time>
      </trkpt>
      <trkpt lat="49.52631" lon="-1.59222">
        <ele>96</ele>
        <time>2026-03-30T12:58:20.000Z</time>
      </trkpt>
      <trkpt lat="49.52632" lon="-1.59223">
        <ele>95.8</ele>
        <time>2026-03-30T12:58:21.000Z</time>
      </trkpt>
      <trkpt lat="49.52632" lon="-1.59225">
        <ele>95</ele>
        <time>2026-03-30T12:58:22.000Z</time>
      </trkpt>
      <trkpt lat="49.52632" lon="-1.59226">
        <ele>94.1</ele>
        <time>2026-03-30T12:58:23.000Z</time>
      </trkpt>
      <trkpt lat="49.52632" lon="-1.59228">
        <ele>93.2</ele>
        <time>2026-03-30T12:58:24.000Z</time>
      </trkpt>
      <trkpt lat="49.52633" lon="-1.5923">
        <ele>92.4</ele>
        <time>2026-03-30T12:58:25.000Z</time>
      </trkpt>
      <trkpt lat="49.52633" lon="-1.59231">
        <ele>91.6</ele>
        <time>2026-03-30T12:58:26.000Z</time>
      </trkpt>
      <trkpt lat="49.52634" lon="-1.59233">
        <ele>91.8</ele>
        <time>2026-03-30T12:58:27.000Z</time>
      </trkpt>
      <trkpt lat="49.52634" lon="-1.59235">
        <ele>91.4</ele>
        <time>2026-03-30T12:58:28.000Z</time>
      </trkpt>
      <trkpt lat="49.52635" lon="-1.59237">
        <ele>90.7</ele>
        <time>2026-03-30T12:58:29.000Z</time>
      </trkpt>
      <trkpt lat="49.52636" lon="-1.59238">
        <ele>90.4</ele>
        <time>2026-03-30T12:58:30.000Z</time>
      </trkpt>
      <trkpt lat="49.52636" lon="-1.5924">
        <ele>90.3</ele>
        <time>2026-03-30T12:58:31.000Z</time>
      </trkpt>
      <trkpt lat="49.52636" lon="-1.59242">
        <ele>89.9</ele>
        <time>2026-03-30T12:58:32.000Z</time>
      </trkpt>
      <trkpt lat="49.52637" lon="-1.59243">
        <ele>89.5</ele>
        <time>2026-03-30T12:58:33.000Z</time>
      </trkpt>
      <trkpt lat="49.52637" lon="-1.59245">
        <ele>89.1</ele>
        <time>2026-03-30T12:58:34.000Z</time>
      </trkpt>
      <trkpt lat="49.52638" lon="-1.59246">
        <ele>89</ele>
        <time>2026-03-30T12:58:35.000Z</time>
      </trkpt>
      <trkpt lat="49.52638" lon="-1.59248">
        <ele>88.5</ele>
        <time>2026-03-30T12:58:36.000Z</time>
      </trkpt>
      <trkpt lat="49.52639" lon="-1.5925">
        <ele>88.9</ele>
        <time>2026-03-30T12:58:37.000Z</time>
      </trkpt>
      <trkpt lat="49.52639" lon="-1.59251">
        <ele>88.7</ele>
        <time>2026-03-30T12:58:38.000Z</time>
      </trkpt>
      <trkpt lat="49.5264" lon="-1.59253">
        <ele>88.6</ele>
        <time>2026-03-30T12:58:39.000Z</time>
      </trkpt>
      <trkpt lat="49.5264" lon="-1.59255">
        <ele>88.8</ele>
        <time>2026-03-30T12:58:40.000Z</time>
      </trkpt>
      <trkpt lat="49.52641" lon="-1.59257">
        <ele>88.7</ele>
        <time>2026-03-30T12:58:41.000Z</time>
      </trkpt>
      <trkpt lat="49.52641" lon="-1.59259">
        <ele>88.8</ele>
        <time>2026-03-30T12:58:42.000Z</time>
      </trkpt>
      <trkpt lat="49.52642" lon="-1.59261">
        <ele>88.4</ele>
        <time>2026-03-30T12:58:43.000Z</time>
      </trkpt>
      <trkpt lat="49.52643" lon="-1.59263">
        <ele>88.3</ele>
        <time>2026-03-30T12:58:44.000Z</time>
      </trkpt>
      <trkpt lat="49.52643" lon="-1.59265">
        <ele>87.8</ele>
        <time>2026-03-30T12:58:45.000Z</time>
      </trkpt>
      <trkpt lat="49.52644" lon="-1.59267">
        <ele>86.9</ele>
        <time>2026-03-30T12:58:46.000Z</time>
      </trkpt>
      <trkpt lat="49.52644" lon="-1.59268">
        <ele>86.9</ele>
        <time>2026-03-30T12:58:47.000Z</time>
      </trkpt>
      <trkpt lat="49.52645" lon="-1.5927">
        <ele>86.9</ele>
        <time>2026-03-30T12:58:48.000Z</time>
      </trkpt>
      <trkpt lat="49.52645" lon="-1.59272">
        <ele>87.1</ele>
        <time>2026-03-30T12:58:49.000Z</time>
      </trkpt>
      <trkpt lat="49.52645" lon="-1.59274">
        <ele>86.8</ele>
        <time>2026-03-30T12:58:50.000Z</time>
      </trkpt>
      <trkpt lat="49.52644" lon="-1.59276">
        <ele>86.8</ele>
        <time>2026-03-30T12:58:51.000Z</time>
      </trkpt>
      <trkpt lat="49.52643" lon="-1.59278">
        <ele>87.3</ele>
        <time>2026-03-30T12:58:52.000Z</time>
      </trkpt>
      <trkpt lat="49.52642" lon="-1.5928">
        <ele>87</ele>
        <time>2026-03-30T12:58:53.000Z</time>
      </trkpt>
      <trkpt lat="49.52642" lon="-1.59281">
        <ele>87.5</ele>
        <time>2026-03-30T12:58:54.000Z</time>
      </trkpt>
      <trkpt lat="49.52641" lon="-1.59283">
        <ele>88</ele>
        <time>2026-03-30T12:58:55.000Z</time>
      </trkpt>
      <trkpt lat="49.5264" lon="-1.59284">
        <ele>88.1</ele>
        <time>2026-03-30T12:58:56.000Z</time>
      </trkpt>
      <trkpt lat="49.52639" lon="-1.59286">
        <ele>88.3</ele>
        <time>2026-03-30T12:58:57.000Z</time>
      </trkpt>
      <trkpt lat="49.52638" lon="-1.59287">
        <ele>88.8</ele>
        <time>2026-03-30T12:58:58.000Z</time>
      </trkpt>
      <trkpt lat="49.52637" lon="-1.59288">
        <ele>88.8</ele>
        <time>2026-03-30T12:58:59.000Z</time>
      </trkpt>
      <trkpt lat="49.52636" lon="-1.5929">
        <ele>89.4</ele>
        <time>2026-03-30T12:59:00.000Z</time>
      </trkpt>
      <trkpt lat="49.52635" lon="-1.59291">
        <ele>89.7</ele>
        <time>2026-03-30T12:59:01.000Z</time>
      </trkpt>
      <trkpt lat="49.52634" lon="-1.59292">
        <ele>89.9</ele>
        <time>2026-03-30T12:59:02.000Z</time>
      </trkpt>
      <trkpt lat="49.52633" lon="-1.59293">
        <ele>89.4</ele>
        <time>2026-03-30T12:59:03.000Z</time>
      </trkpt>
      <trkpt lat="49.52632" lon="-1.59294">
        <ele>89.2</ele>
        <time>2026-03-30T12:59:04.000Z</time>
      </trkpt>
      <trkpt lat="49.52631" lon="-1.59295">
        <ele>89.4</ele>
        <time>2026-03-30T12:59:05.000Z</time>
      </trkpt>
      <trkpt lat="49.5263" lon="-1.59296">
        <ele>89.5</ele>
        <time>2026-03-30T12:59:06.000Z</time>
      </trkpt>
      <trkpt lat="49.52628" lon="-1.59297">
        <ele>89.8</ele>
        <time>2026-03-30T12:59:07.000Z</time>
      </trkpt>
      <trkpt lat="49.52627" lon="-1.59297">
        <ele>89.7</ele>
        <time>2026-03-30T12:59:08.000Z</time>
      </trkpt>
      <trkpt lat="49.52626" lon="-1.59298">
        <ele>89.7</ele>
        <time>2026-03-30T12:59:09.000Z</time>
      </trkpt>
      <trkpt lat="49.52625" lon="-1.59299">
        <ele>89.3</ele>
        <time>2026-03-30T12:59:10.000Z</time>
      </trkpt>
      <trkpt lat="49.52624" lon="-1.59301">
        <ele>89.2</ele>
        <time>2026-03-30T12:59:11.000Z</time>
      </trkpt>
      <trkpt lat="49.52623" lon="-1.59301">
        <ele>88.9</ele>
        <time>2026-03-30T12:59:12.000Z</time>
      </trkpt>
      <trkpt lat="49.52622" lon="-1.59302">
        <ele>88.4</ele>
        <time>2026-03-30T12:59:13.000Z</time>
      </trkpt>
      <trkpt lat="49.52621" lon="-1.59303">
        <ele>88.1</ele>
        <time>2026-03-30T12:59:14.000Z</time>
      </trkpt>
      <trkpt lat="49.5262" lon="-1.59304">
        <ele>88.1</ele>
        <time>2026-03-30T12:59:15.000Z</time>
      </trkpt>
      <trkpt lat="49.5262" lon="-1.59304">
        <ele>87.6</ele>
        <time>2026-03-30T12:59:16.000Z</time>
      </trkpt>
      <trkpt lat="49.52619" lon="-1.59304">
        <ele>87.1</ele>
        <time>2026-03-30T12:59:17.000Z</time>
      </trkpt>
      <trkpt lat="49.52618" lon="-1.59304">
        <ele>87.6</ele>
        <time>2026-03-30T12:59:18.000Z</time>
      </trkpt>
      <trkpt lat="49.52617" lon="-1.59304">
        <ele>87.1</ele>
        <time>2026-03-30T12:59:19.000Z</time>
      </trkpt>
      <trkpt lat="49.52616" lon="-1.59305">
        <ele>87.1</ele>
        <time>2026-03-30T12:59:20.000Z</time>
      </trkpt>
      <trkpt lat="49.52614" lon="-1.59305">
        <ele>87.2</ele>
        <time>2026-03-30T12:59:21.000Z</time>
      </trkpt>
      <trkpt lat="49.52613" lon="-1.59305">
        <ele>87.4</ele>
        <time>2026-03-30T12:59:22.000Z</time>
      </trkpt>
      <trkpt lat="49.52612" lon="-1.59306">
        <ele>88</ele>
        <time>2026-03-30T12:59:23.000Z</time>
      </trkpt>
      <trkpt lat="49.52611" lon="-1.59306">
        <ele>87.7</ele>
        <time>2026-03-30T12:59:24.000Z</time>
      </trkpt>
      <trkpt lat="49.5261" lon="-1.59306">
        <ele>88.1</ele>
        <time>2026-03-30T12:59:25.000Z</time>
      </trkpt>
      <trkpt lat="49.52609" lon="-1.59307">
        <ele>88.5</ele>
        <time>2026-03-30T12:59:26.000Z</time>
      </trkpt>
      <trkpt lat="49.52608" lon="-1.59307">
        <ele>88.6</ele>
        <time>2026-03-30T12:59:27.000Z</time>
      </trkpt>
      <trkpt lat="49.52607" lon="-1.59308">
        <ele>87.9</ele>
        <time>2026-03-30T12:59:28.000Z</time>
      </trkpt>
      <trkpt lat="49.52606" lon="-1.59308">
        <ele>87.7</ele>
        <time>2026-03-30T12:59:29.000Z</time>
      </trkpt>
      <trkpt lat="49.52605" lon="-1.59309">
        <ele>87.6</ele>
        <time>2026-03-30T12:59:30.000Z</time>
      </trkpt>
      <trkpt lat="49.52603" lon="-1.59309">
        <ele>87.8</ele>
        <time>2026-03-30T12:59:31.000Z</time>
      </trkpt>
      <trkpt lat="49.52602" lon="-1.59309">
        <ele>87.4</ele>
        <time>2026-03-30T12:59:32.000Z</time>
      </trkpt>
      <trkpt lat="49.52601" lon="-1.5931">
        <ele>87.6</ele>
        <time>2026-03-30T12:59:33.000Z</time>
      </trkpt>
      <trkpt lat="49.526" lon="-1.5931">
        <ele>86.7</ele>
        <time>2026-03-30T12:59:34.000Z</time>
      </trkpt>
      <trkpt lat="49.52599" lon="-1.5931">
        <ele>85.7</ele>
        <time>2026-03-30T12:59:35.000Z</time>
      </trkpt>
      <trkpt lat="49.52598" lon="-1.59312">
        <ele>86.4</ele>
        <time>2026-03-30T12:59:36.000Z</time>
      </trkpt>
      <trkpt lat="49.52597" lon="-1.59312">
        <ele>86.7</ele>
        <time>2026-03-30T12:59:37.000Z</time>
      </trkpt>
      <trkpt lat="49.52595" lon="-1.59313">
        <ele>87.7</ele>
        <time>2026-03-30T12:59:38.000Z</time>
      </trkpt>
      <trkpt lat="49.52594" lon="-1.59313">
        <ele>88.1</ele>
        <time>2026-03-30T12:59:39.000Z</time>
      </trkpt>
      <trkpt lat="49.52593" lon="-1.59313">
        <ele>87.5</ele>
        <time>2026-03-30T12:59:40.000Z</time>
      </trkpt>
      <trkpt lat="49.52592" lon="-1.59313">
        <ele>87.8</ele>
        <time>2026-03-30T12:59:41.000Z</time>
      </trkpt>
      <trkpt lat="49.5259" lon="-1.59313">
        <ele>87.8</ele>
        <time>2026-03-30T12:59:42.000Z</time>
      </trkpt>
      <trkpt lat="49.52589" lon="-1.59313">
        <ele>87.8</ele>
        <time>2026-03-30T12:59:43.000Z</time>
      </trkpt>
      <trkpt lat="49.52588" lon="-1.59313">
        <ele>88</ele>
        <time>2026-03-30T12:59:44.000Z</time>
      </trkpt>
      <trkpt lat="49.52587" lon="-1.59312">
        <ele>88</ele>
        <time>2026-03-30T12:59:45.000Z</time>
      </trkpt>
      <trkpt lat="49.52585" lon="-1.59312">
        <ele>88.2</ele>
        <time>2026-03-30T12:59:46.000Z</time>
      </trkpt>
      <trkpt lat="49.52584" lon="-1.59311">
        <ele>87.4</ele>
        <time>2026-03-30T12:59:47.000Z</time>
      </trkpt>
      <trkpt lat="49.52583" lon="-1.5931">
        <ele>87</ele>
        <time>2026-03-30T12:59:48.000Z</time>
      </trkpt>
      <trkpt lat="49.52582" lon="-1.59309">
        <ele>86.7</ele>
        <time>2026-03-30T12:59:49.000Z</time>
      </trkpt>
      <trkpt lat="49.52581" lon="-1.59307">
        <ele>86.4</ele>
        <time>2026-03-30T12:59:50.000Z</time>
      </trkpt>
      <trkpt lat="49.5258" lon="-1.59306">
        <ele>86.5</ele>
        <time>2026-03-30T12:59:51.000Z</time>
      </trkpt>
      <trkpt lat="49.52579" lon="-1.59304">
        <ele>86.4</ele>
        <time>2026-03-30T12:59:52.000Z</time>
      </trkpt>
      <trkpt lat="49.52578" lon="-1.59303">
        <ele>86.5</ele>
        <time>2026-03-30T12:59:53.000Z</time>
      </trkpt>
      <trkpt lat="49.52577" lon="-1.59302">
        <ele>86.6</ele>
        <time>2026-03-30T12:59:54.000Z</time>
      </trkpt>
      <trkpt lat="49.52576" lon="-1.59301">
        <ele>86.9</ele>
        <time>2026-03-30T12:59:55.000Z</time>
      </trkpt>
      <trkpt lat="49.52575" lon="-1.593">
        <ele>87.2</ele>
        <time>2026-03-30T12:59:56.000Z</time>
      </trkpt>
      <trkpt lat="49.52574" lon="-1.59299">
        <ele>87.6</ele>
        <time>2026-03-30T12:59:57.000Z</time>
      </trkpt>
      <trkpt lat="49.52573" lon="-1.59299">
        <ele>87.8</ele>
        <time>2026-03-30T12:59:58.000Z</time>
      </trkpt>
      <trkpt lat="49.52571" lon="-1.59298">
        <ele>88</ele>
        <time>2026-03-30T12:59:59.000Z</time>
      </trkpt>
      <trkpt lat="49.5257" lon="-1.59299">
        <ele>88.2</ele>
        <time>2026-03-30T13:00:00.000Z</time>
      </trkpt>
      <trkpt lat="49.52569" lon="-1.59299">
        <ele>87.9</ele>
        <time>2026-03-30T13:00:01.000Z</time>
      </trkpt>
      <trkpt lat="49.52568" lon="-1.59299">
        <ele>87.3</ele>
        <time>2026-03-30T13:00:02.000Z</time>
      </trkpt>
      <trkpt lat="49.52567" lon="-1.593">
        <ele>86.5</ele>
        <time>2026-03-30T13:00:03.000Z</time>
      </trkpt>
      <trkpt lat="49.52565" lon="-1.593">
        <ele>86.4</ele>
        <time>2026-03-30T13:00:04.000Z</time>
      </trkpt>
      <trkpt lat="49.52564" lon="-1.59299">
        <ele>86.4</ele>
        <time>2026-03-30T13:00:05.000Z</time>
      </trkpt>
      <trkpt lat="49.52563" lon="-1.59299">
        <ele>86.3</ele>
        <time>2026-03-30T13:00:06.000Z</time>
      </trkpt>
      <trkpt lat="49.52562" lon="-1.59298">
        <ele>86.1</ele>
        <time>2026-03-30T13:00:07.000Z</time>
      </trkpt>
      <trkpt lat="49.52561" lon="-1.59297">
        <ele>86.5</ele>
        <time>2026-03-30T13:00:08.000Z</time>
      </trkpt>
      <trkpt lat="49.5256" lon="-1.59296">
        <ele>87</ele>
        <time>2026-03-30T13:00:09.000Z</time>
      </trkpt>
      <trkpt lat="49.52559" lon="-1.59295">
        <ele>87.2</ele>
        <time>2026-03-30T13:00:10.000Z</time>
      </trkpt>
      <trkpt lat="49.52558" lon="-1.59294">
        <ele>87.3</ele>
        <time>2026-03-30T13:00:11.000Z</time>
      </trkpt>
      <trkpt lat="49.52558" lon="-1.59293">
        <ele>87.1</ele>
        <time>2026-03-30T13:00:12.000Z</time>
      </trkpt>
      <trkpt lat="49.52557" lon="-1.59291">
        <ele>87</ele>
        <time>2026-03-30T13:00:13.000Z</time>
      </trkpt>
      <trkpt lat="49.52557" lon="-1.5929">
        <ele>87.1</ele>
        <time>2026-03-30T13:00:14.000Z</time>
      </trkpt>
      <trkpt lat="49.52556" lon="-1.59289">
        <ele>87.5</ele>
        <time>2026-03-30T13:00:15.000Z</time>
      </trkpt>
      <trkpt lat="49.52555" lon="-1.59287">
        <ele>87.8</ele>
        <time>2026-03-30T13:00:16.000Z</time>
      </trkpt>
      <trkpt lat="49.52554" lon="-1.59286">
        <ele>87.3</ele>
        <time>2026-03-30T13:00:17.000Z</time>
      </trkpt>
      <trkpt lat="49.52554" lon="-1.59284">
        <ele>87.3</ele>
        <time>2026-03-30T13:00:18.000Z</time>
      </trkpt>
      <trkpt lat="49.52553" lon="-1.59283">
        <ele>87.9</ele>
        <time>2026-03-30T13:00:19.000Z</time>
      </trkpt>
      <trkpt lat="49.52552" lon="-1.59281">
        <ele>88</ele>
        <time>2026-03-30T13:00:20.000Z</time>
      </trkpt>
      <trkpt lat="49.52551" lon="-1.5928">
        <ele>88.2</ele>
        <time>2026-03-30T13:00:21.000Z</time>
      </trkpt>
      <trkpt lat="49.52551" lon="-1.59279">
        <ele>87.8</ele>
        <time>2026-03-30T13:00:22.000Z</time>
      </trkpt>
      <trkpt lat="49.5255" lon="-1.59277">
        <ele>87.8</ele>
        <time>2026-03-30T13:00:23.000Z</time>
      </trkpt>
      <trkpt lat="49.52549" lon="-1.59276">
        <ele>87.7</ele>
        <time>2026-03-30T13:00:24.000Z</time>
      </trkpt>
      <trkpt lat="49.52548" lon="-1.59274">
        <ele>87.8</ele>
        <time>2026-03-30T13:00:25.000Z</time>
      </trkpt>
      <trkpt lat="49.52547" lon="-1.59273">
        <ele>87.8</ele>
        <time>2026-03-30T13:00:26.000Z</time>
      </trkpt>
      <trkpt lat="49.52547" lon="-1.59271">
        <ele>87.6</ele>
        <time>2026-03-30T13:00:27.000Z</time>
      </trkpt>
      <trkpt lat="49.52546" lon="-1.59269">
        <ele>87.8</ele>
        <time>2026-03-30T13:00:28.000Z</time>
      </trkpt>
      <trkpt lat="49.52547" lon="-1.59267">
        <ele>88.8</ele>
        <time>2026-03-30T13:00:29.000Z</time>
      </trkpt>
      <trkpt lat="49.52546" lon="-1.59265">
        <ele>88.5</ele>
        <time>2026-03-30T13:00:30.000Z</time>
      </trkpt>
      <trkpt lat="49.52546" lon="-1.59263">
        <ele>88.2</ele>
        <time>2026-03-30T13:00:31.000Z</time>
      </trkpt>
      <trkpt lat="49.52545" lon="-1.59261">
        <ele>88</ele>
        <time>2026-03-30T13:00:32.000Z</time>
      </trkpt>
      <trkpt lat="49.52544" lon="-1.5926">
        <ele>88.2</ele>
        <time>2026-03-30T13:00:33.000Z</time>
      </trkpt>
      <trkpt lat="49.52543" lon="-1.59259">
        <ele>88</ele>
        <time>2026-03-30T13:00:34.000Z</time>
      </trkpt>
      <trkpt lat="49.52542" lon="-1.59257">
        <ele>87.7</ele>
        <time>2026-03-30T13:00:35.000Z</time>
      </trkpt>
      <trkpt lat="49.52541" lon="-1.59256">
        <ele>88</ele>
        <time>2026-03-30T13:00:36.000Z</time>
      </trkpt>
      <trkpt lat="49.5254" lon="-1.59255">
        <ele>88</ele>
        <time>2026-03-30T13:00:37.000Z</time>
      </trkpt>
      <trkpt lat="49.52539" lon="-1.59253">
        <ele>88.6</ele>
        <time>2026-03-30T13:00:38.000Z</time>
      </trkpt>
      <trkpt lat="49.52538" lon="-1.59252">
        <ele>88.7</ele>
        <time>2026-03-30T13:00:39.000Z</time>
      </trkpt>
      <trkpt lat="49.52538" lon="-1.5925">
        <ele>88.7</ele>
        <time>2026-03-30T13:00:40.000Z</time>
      </trkpt>
      <trkpt lat="49.52537" lon="-1.59249">
        <ele>88.3</ele>
        <time>2026-03-30T13:00:41.000Z</time>
      </trkpt>
      <trkpt lat="49.52536" lon="-1.59248">
        <ele>88.4</ele>
        <time>2026-03-30T13:00:42.000Z</time>
      </trkpt>
      <trkpt lat="49.52535" lon="-1.59246">
        <ele>88.3</ele>
        <time>2026-03-30T13:00:43.000Z</time>
      </trkpt>
      <trkpt lat="49.52534" lon="-1.59245">
        <ele>88</ele>
        <time>2026-03-30T13:00:44.000Z</time>
      </trkpt>
      <trkpt lat="49.52533" lon="-1.59244">
        <ele>88.2</ele>
        <time>2026-03-30T13:00:45.000Z</time>
      </trkpt>
      <trkpt lat="49.52532" lon="-1.59243">
        <ele>88.4</ele>
        <time>2026-03-30T13:00:46.000Z</time>
      </trkpt>
      <trkpt lat="49.52531" lon="-1.59242">
        <ele>87.8</ele>
        <time>2026-03-30T13:00:47.000Z</time>
      </trkpt>
      <trkpt lat="49.5253" lon="-1.5924">
        <ele>87.9</ele>
        <time>2026-03-30T13:00:48.000Z</time>
      </trkpt>
      <trkpt lat="49.5253" lon="-1.59239">
        <ele>87.1</ele>
        <time>2026-03-30T13:00:49.000Z</time>
      </trkpt>
      <trkpt lat="49.52529" lon="-1.59237">
        <ele>88.1</ele>
        <time>2026-03-30T13:00:50.000Z</time>
      </trkpt>
      <trkpt lat="49.52528" lon="-1.59236">
        <ele>87.7</ele>
        <time>2026-03-30T13:00:51.000Z</time>
      </trkpt>
      <trkpt lat="49.52527" lon="-1.59235">
        <ele>87.4</ele>
        <time>2026-03-30T13:00:52.000Z</time>
      </trkpt>
      <trkpt lat="49.52526" lon="-1.59234">
        <ele>86.7</ele>
        <time>2026-03-30T13:00:53.000Z</time>
      </trkpt>
      <trkpt lat="49.52525" lon="-1.59233">
        <ele>86.6</ele>
        <time>2026-03-30T13:00:54.000Z</time>
      </trkpt>
      <trkpt lat="49.52524" lon="-1.59231">
        <ele>86.3</ele>
        <time>2026-03-30T13:00:55.000Z</time>
      </trkpt>
      <trkpt lat="49.52524" lon="-1.5923">
        <ele>86.3</ele>
        <time>2026-03-30T13:00:56.000Z</time>
      </trkpt>
      <trkpt lat="49.52523" lon="-1.59229">
        <ele>86.9</ele>
        <time>2026-03-30T13:00:57.000Z</time>
      </trkpt>
      <trkpt lat="49.52522" lon="-1.59227">
        <ele>87.8</ele>
        <time>2026-03-30T13:00:58.000Z</time>
      </trkpt>
      <trkpt lat="49.52521" lon="-1.59226">
        <ele>88.1</ele>
        <time>2026-03-30T13:00:59.000Z</time>
      </trkpt>
      <trkpt lat="49.5252" lon="-1.59225">
        <ele>88</ele>
        <time>2026-03-30T13:01:00.000Z</time>
      </trkpt>
      <trkpt lat="49.52519" lon="-1.59223">
        <ele>88.7</ele>
        <time>2026-03-30T13:01:01.000Z</time>
      </trkpt>
      <trkpt lat="49.52518" lon="-1.59222">
        <ele>88.6</ele>
        <time>2026-03-30T13:01:02.000Z</time>
      </trkpt>
      <trkpt lat="49.52517" lon="-1.5922">
        <ele>88.9</ele>
        <time>2026-03-30T13:01:03.000Z</time>
      </trkpt>
      <trkpt lat="49.52517" lon="-1.59219">
        <ele>88.2</ele>
        <time>2026-03-30T13:01:04.000Z</time>
      </trkpt>
      <trkpt lat="49.52516" lon="-1.59217">
        <ele>88.2</ele>
        <time>2026-03-30T13:01:05.000Z</time>
      </trkpt>
      <trkpt lat="49.52515" lon="-1.59216">
        <ele>88.2</ele>
        <time>2026-03-30T13:01:06.000Z</time>
      </trkpt>
      <trkpt lat="49.52514" lon="-1.59215">
        <ele>88.5</ele>
        <time>2026-03-30T13:01:07.000Z</time>
      </trkpt>
      <trkpt lat="49.52513" lon="-1.59213">
        <ele>88.6</ele>
        <time>2026-03-30T13:01:08.000Z</time>
      </trkpt>
      <trkpt lat="49.52512" lon="-1.59212">
        <ele>88.3</ele>
        <time>2026-03-30T13:01:09.000Z</time>
      </trkpt>
      <trkpt lat="49.52511" lon="-1.59211">
        <ele>88.5</ele>
        <time>2026-03-30T13:01:10.000Z</time>
      </trkpt>
      <trkpt lat="49.5251" lon="-1.59209">
        <ele>88.6</ele>
        <time>2026-03-30T13:01:11.000Z</time>
      </trkpt>
      <trkpt lat="49.52509" lon="-1.59207">
        <ele>89.1</ele>
        <time>2026-03-30T13:01:12.000Z</time>
      </trkpt>
      <trkpt lat="49.52508" lon="-1.59206">
        <ele>89</ele>
        <time>2026-03-30T13:01:13.000Z</time>
      </trkpt>
      <trkpt lat="49.52508" lon="-1.59204">
        <ele>89.5</ele>
        <time>2026-03-30T13:01:14.000Z</time>
      </trkpt>
      <trkpt lat="49.52507" lon="-1.59203">
        <ele>89.8</ele>
        <time>2026-03-30T13:01:15.000Z</time>
      </trkpt>
      <trkpt lat="49.52506" lon="-1.59201">
        <ele>89.6</ele>
        <time>2026-03-30T13:01:16.000Z</time>
      </trkpt>
      <trkpt lat="49.52505" lon="-1.592">
        <ele>89.6</ele>
        <time>2026-03-30T13:01:17.000Z</time>
      </trkpt>
      <trkpt lat="49.52504" lon="-1.59198">
        <ele>89.3</ele>
        <time>2026-03-30T13:01:18.000Z</time>
      </trkpt>
      <trkpt lat="49.52503" lon="-1.59197">
        <ele>89.8</ele>
        <time>2026-03-30T13:01:19.000Z</time>
      </trkpt>
      <trkpt lat="49.52502" lon="-1.59196">
        <ele>90.9</ele>
        <time>2026-03-30T13:01:20.000Z</time>
      </trkpt>
      <trkpt lat="49.52501" lon="-1.59194">
        <ele>90.9</ele>
        <time>2026-03-30T13:01:21.000Z</time>
      </trkpt>
      <trkpt lat="49.525" lon="-1.59193">
        <ele>90.9</ele>
        <time>2026-03-30T13:01:22.000Z</time>
      </trkpt>
      <trkpt lat="49.525" lon="-1.59192">
        <ele>91.1</ele>
        <time>2026-03-30T13:01:23.000Z</time>
      </trkpt>
      <trkpt lat="49.52499" lon="-1.59191">
        <ele>91.4</ele>
        <time>2026-03-30T13:01:24.000Z</time>
      </trkpt>
      <trkpt lat="49.52498" lon="-1.59189">
        <ele>91</ele>
        <time>2026-03-30T13:01:25.000Z</time>
      </trkpt>
      <trkpt lat="49.52497" lon="-1.59188">
        <ele>91.1</ele>
        <time>2026-03-30T13:01:26.000Z</time>
      </trkpt>
      <trkpt lat="49.52496" lon="-1.59187">
        <ele>90.9</ele>
        <time>2026-03-30T13:01:27.000Z</time>
      </trkpt>
      <trkpt lat="49.52495" lon="-1.59185">
        <ele>91.4</ele>
        <time>2026-03-30T13:01:28.000Z</time>
      </trkpt>
      <trkpt lat="49.52494" lon="-1.59184">
        <ele>91.4</ele>
        <time>2026-03-30T13:01:29.000Z</time>
      </trkpt>
      <trkpt lat="49.52493" lon="-1.59183">
        <ele>91.8</ele>
        <time>2026-03-30T13:01:30.000Z</time>
      </trkpt>
      <trkpt lat="49.52492" lon="-1.59181">
        <ele>92.1</ele>
        <time>2026-03-30T13:01:31.000Z</time>
      </trkpt>
      <trkpt lat="49.52491" lon="-1.5918">
        <ele>92.2</ele>
        <time>2026-03-30T13:01:32.000Z</time>
      </trkpt>
      <trkpt lat="49.5249" lon="-1.59178">
        <ele>91.8</ele>
        <time>2026-03-30T13:01:33.000Z</time>
      </trkpt>
      <trkpt lat="49.5249" lon="-1.59177">
        <ele>92</ele>
        <time>2026-03-30T13:01:34.000Z</time>
      </trkpt>
      <trkpt lat="49.52489" lon="-1.59176">
        <ele>92.4</ele>
        <time>2026-03-30T13:01:35.000Z</time>
      </trkpt>
      <trkpt lat="49.52488" lon="-1.59175">
        <ele>92</ele>
        <time>2026-03-30T13:01:36.000Z</time>
      </trkpt>
      <trkpt lat="49.52487" lon="-1.59173">
        <ele>92.3</ele>
        <time>2026-03-30T13:01:37.000Z</time>
      </trkpt>
      <trkpt lat="49.52486" lon="-1.59172">
        <ele>91.9</ele>
        <time>2026-03-30T13:01:38.000Z</time>
      </trkpt>
      <trkpt lat="49.52485" lon="-1.59171">
        <ele>92.6</ele>
        <time>2026-03-30T13:01:39.000Z</time>
      </trkpt>
      <trkpt lat="49.52484" lon="-1.5917">
        <ele>92.2</ele>
        <time>2026-03-30T13:01:40.000Z</time>
      </trkpt>
      <trkpt lat="49.52483" lon="-1.59169">
        <ele>92.6</ele>
        <time>2026-03-30T13:01:41.000Z</time>
      </trkpt>
      <trkpt lat="49.52482" lon="-1.59168">
        <ele>92.5</ele>
        <time>2026-03-30T13:01:42.000Z</time>
      </trkpt>
      <trkpt lat="49.5248" lon="-1.59167">
        <ele>92.4</ele>
        <time>2026-03-30T13:01:43.000Z</time>
      </trkpt>
      <trkpt lat="49.52479" lon="-1.59166">
        <ele>92.3</ele>
        <time>2026-03-30T13:01:44.000Z</time>
      </trkpt>
      <trkpt lat="49.52478" lon="-1.59165">
        <ele>93</ele>
        <time>2026-03-30T13:01:45.000Z</time>
      </trkpt>
      <trkpt lat="49.52477" lon="-1.59164">
        <ele>93.2</ele>
        <time>2026-03-30T13:01:46.000Z</time>
      </trkpt>
      <trkpt lat="49.52476" lon="-1.59163">
        <ele>93.4</ele>
        <time>2026-03-30T13:01:47.000Z</time>
      </trkpt>
      <trkpt lat="49.52475" lon="-1.59161">
        <ele>93.2</ele>
        <time>2026-03-30T13:01:48.000Z</time>
      </trkpt>
      <trkpt lat="49.52474" lon="-1.5916">
        <ele>92.9</ele>
        <time>2026-03-30T13:01:49.000Z</time>
      </trkpt>
      <trkpt lat="49.52473" lon="-1.59159">
        <ele>92.9</ele>
        <time>2026-03-30T13:01:50.000Z</time>
      </trkpt>
      <trkpt lat="49.52472" lon="-1.59159">
        <ele>93.1</ele>
        <time>2026-03-30T13:01:51.000Z</time>
      </trkpt>
      <trkpt lat="49.52471" lon="-1.59158">
        <ele>93</ele>
        <time>2026-03-30T13:01:52.000Z</time>
      </trkpt>
      <trkpt lat="49.5247" lon="-1.59157">
        <ele>92.9</ele>
        <time>2026-03-30T13:01:53.000Z</time>
      </trkpt>
      <trkpt lat="49.52469" lon="-1.59156">
        <ele>92.1</ele>
        <time>2026-03-30T13:01:54.000Z</time>
      </trkpt>
      <trkpt lat="49.52467" lon="-1.59155">
        <ele>92</ele>
        <time>2026-03-30T13:01:55.000Z</time>
      </trkpt>
      <trkpt lat="49.52466" lon="-1.59155">
        <ele>92.4</ele>
        <time>2026-03-30T13:01:56.000Z</time>
      </trkpt>
      <trkpt lat="49.52465" lon="-1.59154">
        <ele>92.1</ele>
        <time>2026-03-30T13:01:57.000Z</time>
      </trkpt>
      <trkpt lat="49.52464" lon="-1.59153">
        <ele>92.8</ele>
        <time>2026-03-30T13:01:58.000Z</time>
      </trkpt>
      <trkpt lat="49.52463" lon="-1.59152">
        <ele>93</ele>
        <time>2026-03-30T13:01:59.000Z</time>
      </trkpt>
      <trkpt lat="49.52462" lon="-1.59151">
        <ele>93.2</ele>
        <time>2026-03-30T13:02:00.000Z</time>
      </trkpt>
      <trkpt lat="49.5246" lon="-1.5915">
        <ele>93.1</ele>
        <time>2026-03-30T13:02:01.000Z</time>
      </trkpt>
      <trkpt lat="49.52459" lon="-1.59149">
        <ele>92.5</ele>
        <time>2026-03-30T13:02:02.000Z</time>
      </trkpt>
      <trkpt lat="49.52457" lon="-1.59148">
        <ele>92.4</ele>
        <time>2026-03-30T13:02:03.000Z</time>
      </trkpt>
      <trkpt lat="49.52456" lon="-1.59147">
        <ele>92.7</ele>
        <time>2026-03-30T13:02:04.000Z</time>
      </trkpt>
      <trkpt lat="49.52455" lon="-1.59146">
        <ele>92.8</ele>
        <time>2026-03-30T13:02:05.000Z</time>
      </trkpt>
      <trkpt lat="49.52454" lon="-1.59146">
        <ele>93</ele>
        <time>2026-03-30T13:02:06.000Z</time>
      </trkpt>
      <trkpt lat="49.52453" lon="-1.59145">
        <ele>92.7</ele>
        <time>2026-03-30T13:02:07.000Z</time>
      </trkpt>
      <trkpt lat="49.52452" lon="-1.59145">
        <ele>93.3</ele>
        <time>2026-03-30T13:02:08.000Z</time>
      </trkpt>
      <trkpt lat="49.5245" lon="-1.59144">
        <ele>94.2</ele>
        <time>2026-03-30T13:02:09.000Z</time>
      </trkpt>
      <trkpt lat="49.52449" lon="-1.59143">
        <ele>94.5</ele>
        <time>2026-03-30T13:02:10.000Z</time>
      </trkpt>
      <trkpt lat="49.52448" lon="-1.59143">
        <ele>94.9</ele>
        <time>2026-03-30T13:02:11.000Z</time>
      </trkpt>
      <trkpt lat="49.52447" lon="-1.59142">
        <ele>95.2</ele>
        <time>2026-03-30T13:02:12.000Z</time>
      </trkpt>
      <trkpt lat="49.52446" lon="-1.59141">
        <ele>95.5</ele>
        <time>2026-03-30T13:02:13.000Z</time>
      </trkpt>
      <trkpt lat="49.52444" lon="-1.59141">
        <ele>95.3</ele>
        <time>2026-03-30T13:02:14.000Z</time>
      </trkpt>
      <trkpt lat="49.52443" lon="-1.59141">
        <ele>95.1</ele>
        <time>2026-03-30T13:02:15.000Z</time>
      </trkpt>
      <trkpt lat="49.52441" lon="-1.5914">
        <ele>95.4</ele>
        <time>2026-03-30T13:02:16.000Z</time>
      </trkpt>
      <trkpt lat="49.5244" lon="-1.59139">
        <ele>95.5</ele>
        <time>2026-03-30T13:02:17.000Z</time>
      </trkpt>
      <trkpt lat="49.52439" lon="-1.59138">
        <ele>95.7</ele>
        <time>2026-03-30T13:02:18.000Z</time>
      </trkpt>
      <trkpt lat="49.52438" lon="-1.59137">
        <ele>95.1</ele>
        <time>2026-03-30T13:02:19.000Z</time>
      </trkpt>
      <trkpt lat="49.52436" lon="-1.59137">
        <ele>94.9</ele>
        <time>2026-03-30T13:02:20.000Z</time>
      </trkpt>
      <trkpt lat="49.52435" lon="-1.59136">
        <ele>95</ele>
        <time>2026-03-30T13:02:21.000Z</time>
      </trkpt>
      <trkpt lat="49.52434" lon="-1.59135">
        <ele>94.8</ele>
        <time>2026-03-30T13:02:22.000Z</time>
      </trkpt>
      <trkpt lat="49.52433" lon="-1.59134">
        <ele>95.3</ele>
        <time>2026-03-30T13:02:23.000Z</time>
      </trkpt>
      <trkpt lat="49.52431" lon="-1.59134">
        <ele>95.8</ele>
        <time>2026-03-30T13:02:24.000Z</time>
      </trkpt>
      <trkpt lat="49.5243" lon="-1.59133">
        <ele>95.9</ele>
        <time>2026-03-30T13:02:25.000Z</time>
      </trkpt>
      <trkpt lat="49.52429" lon="-1.59132">
        <ele>95.8</ele>
        <time>2026-03-30T13:02:26.000Z</time>
      </trkpt>
      <trkpt lat="49.52428" lon="-1.59131">
        <ele>96.2</ele>
        <time>2026-03-30T13:02:27.000Z</time>
      </trkpt>
      <trkpt lat="49.52427" lon="-1.5913">
        <ele>96.3</ele>
        <time>2026-03-30T13:02:28.000Z</time>
      </trkpt>
      <trkpt lat="49.52425" lon="-1.59129">
        <ele>96.6</ele>
        <time>2026-03-30T13:02:29.000Z</time>
      </trkpt>
      <trkpt lat="49.52424" lon="-1.59129">
        <ele>96.8</ele>
        <time>2026-03-30T13:02:30.000Z</time>
      </trkpt>
      <trkpt lat="49.52423" lon="-1.59128">
        <ele>97.3</ele>
        <time>2026-03-30T13:02:31.000Z</time>
      </trkpt>
      <trkpt lat="49.52421" lon="-1.59127">
        <ele>97</ele>
        <time>2026-03-30T13:02:32.000Z</time>
      </trkpt>
      <trkpt lat="49.5242" lon="-1.59127">
        <ele>97.6</ele>
        <time>2026-03-30T13:02:33.000Z</time>
      </trkpt>
      <trkpt lat="49.52419" lon="-1.59126">
        <ele>97.7</ele>
        <time>2026-03-30T13:02:34.000Z</time>
      </trkpt>
      <trkpt lat="49.52418" lon="-1.59126">
        <ele>97.2</ele>
        <time>2026-03-30T13:02:35.000Z</time>
      </trkpt>
      <trkpt lat="49.52416" lon="-1.59126">
        <ele>96.8</ele>
        <time>2026-03-30T13:02:36.000Z</time>
      </trkpt>
      <trkpt lat="49.52415" lon="-1.59125">
        <ele>97.1</ele>
        <time>2026-03-30T13:02:37.000Z</time>
      </trkpt>
      <trkpt lat="49.52414" lon="-1.59124">
        <ele>97.3</ele>
        <time>2026-03-30T13:02:38.000Z</time>
      </trkpt>
      <trkpt lat="49.52413" lon="-1.59124">
        <ele>97.1</ele>
        <time>2026-03-30T13:02:39.000Z</time>
      </trkpt>
      <trkpt lat="49.52412" lon="-1.59123">
        <ele>96.6</ele>
        <time>2026-03-30T13:02:40.000Z</time>
      </trkpt>
      <trkpt lat="49.5241" lon="-1.59122">
        <ele>97.2</ele>
        <time>2026-03-30T13:02:41.000Z</time>
      </trkpt>
      <trkpt lat="49.52409" lon="-1.59122">
        <ele>97.6</ele>
        <time>2026-03-30T13:02:42.000Z</time>
      </trkpt>
      <trkpt lat="49.52407" lon="-1.59122">
        <ele>97.4</ele>
        <time>2026-03-30T13:02:43.000Z</time>
      </trkpt>
      <trkpt lat="49.52406" lon="-1.59121">
        <ele>96.8</ele>
        <time>2026-03-30T13:02:44.000Z</time>
      </trkpt>
      <trkpt lat="49.52405" lon="-1.59121">
        <ele>97.2</ele>
        <time>2026-03-30T13:02:45.000Z</time>
      </trkpt>
      <trkpt lat="49.52404" lon="-1.5912">
        <ele>97.3</ele>
        <time>2026-03-30T13:02:46.000Z</time>
      </trkpt>
      <trkpt lat="49.52402" lon="-1.5912">
        <ele>97.5</ele>
        <time>2026-03-30T13:02:47.000Z</time>
      </trkpt>
      <trkpt lat="49.52401" lon="-1.59119">
        <ele>97.4</ele>
        <time>2026-03-30T13:02:48.000Z</time>
      </trkpt>
      <trkpt lat="49.524" lon="-1.59119">
        <ele>97.5</ele>
        <time>2026-03-30T13:02:49.000Z</time>
      </trkpt>
      <trkpt lat="49.52399" lon="-1.59118">
        <ele>97.4</ele>
        <time>2026-03-30T13:02:50.000Z</time>
      </trkpt>
      <trkpt lat="49.52397" lon="-1.59118">
        <ele>97.1</ele>
        <time>2026-03-30T13:02:51.000Z</time>
      </trkpt>
      <trkpt lat="49.52396" lon="-1.59117">
        <ele>97.2</ele>
        <time>2026-03-30T13:02:52.000Z</time>
      </trkpt>
      <trkpt lat="49.52395" lon="-1.59117">
        <ele>97.4</ele>
        <time>2026-03-30T13:02:53.000Z</time>
      </trkpt>
      <trkpt lat="49.52394" lon="-1.59117">
        <ele>97.1</ele>
        <time>2026-03-30T13:02:54.000Z</time>
      </trkpt>
      <trkpt lat="49.52392" lon="-1.59117">
        <ele>96.7</ele>
        <time>2026-03-30T13:02:55.000Z</time>
      </trkpt>
      <trkpt lat="49.52391" lon="-1.59116">
        <ele>96</ele>
        <time>2026-03-30T13:02:56.000Z</time>
      </trkpt>
      <trkpt lat="49.5239" lon="-1.59115">
        <ele>95.7</ele>
        <time>2026-03-30T13:02:57.000Z</time>
      </trkpt>
      <trkpt lat="49.52388" lon="-1.59115">
        <ele>96.1</ele>
        <time>2026-03-30T13:02:58.000Z</time>
      </trkpt>
      <trkpt lat="49.52387" lon="-1.59114">
        <ele>96.9</ele>
        <time>2026-03-30T13:02:59.000Z</time>
      </trkpt>
      <trkpt lat="49.52386" lon="-1.59114">
        <ele>97</ele>
        <time>2026-03-30T13:03:00.000Z</time>
      </trkpt>
      <trkpt lat="49.52384" lon="-1.59113">
        <ele>96.9</ele>
        <time>2026-03-30T13:03:01.000Z</time>
      </trkpt>
      <trkpt lat="49.52383" lon="-1.59113">
        <ele>96.8</ele>
        <time>2026-03-30T13:03:02.000Z</time>
      </trkpt>
      <trkpt lat="49.52382" lon="-1.59113">
        <ele>96.3</ele>
        <time>2026-03-30T13:03:03.000Z</time>
      </trkpt>
      <trkpt lat="49.52381" lon="-1.59112">
        <ele>96.4</ele>
        <time>2026-03-30T13:03:04.000Z</time>
      </trkpt>
      <trkpt lat="49.52379" lon="-1.59112">
        <ele>96.2</ele>
        <time>2026-03-30T13:03:05.000Z</time>
      </trkpt>
      <trkpt lat="49.52378" lon="-1.59111">
        <ele>95</ele>
        <time>2026-03-30T13:03:06.000Z</time>
      </trkpt>
      <trkpt lat="49.52377" lon="-1.5911">
        <ele>94.4</ele>
        <time>2026-03-30T13:03:07.000Z</time>
      </trkpt>
      <trkpt lat="49.52376" lon="-1.5911">
        <ele>94.7</ele>
        <time>2026-03-30T13:03:08.000Z</time>
      </trkpt>
      <trkpt lat="49.52374" lon="-1.59109">
        <ele>94.8</ele>
        <time>2026-03-30T13:03:09.000Z</time>
      </trkpt>
      <trkpt lat="49.52373" lon="-1.59108">
        <ele>94.3</ele>
        <time>2026-03-30T13:03:10.000Z</time>
      </trkpt>
      <trkpt lat="49.52372" lon="-1.59108">
        <ele>94.2</ele>
        <time>2026-03-30T13:03:11.000Z</time>
      </trkpt>
      <trkpt lat="49.52371" lon="-1.59107">
        <ele>93.8</ele>
        <time>2026-03-30T13:03:12.000Z</time>
      </trkpt>
      <trkpt lat="49.5237" lon="-1.59107">
        <ele>93.4</ele>
        <time>2026-03-30T13:03:13.000Z</time>
      </trkpt>
      <trkpt lat="49.52368" lon="-1.59106">
        <ele>93.3</ele>
        <time>2026-03-30T13:03:14.000Z</time>
      </trkpt>
      <trkpt lat="49.52367" lon="-1.59106">
        <ele>93.1</ele>
        <time>2026-03-30T13:03:15.000Z</time>
      </trkpt>
      <trkpt lat="49.52366" lon="-1.59105">
        <ele>93.2</ele>
        <time>2026-03-30T13:03:16.000Z</time>
      </trkpt>
      <trkpt lat="49.52365" lon="-1.59104">
        <ele>93.3</ele>
        <time>2026-03-30T13:03:17.000Z</time>
      </trkpt>
      <trkpt lat="49.52363" lon="-1.59104">
        <ele>93.2</ele>
        <time>2026-03-30T13:03:18.000Z</time>
      </trkpt>
      <trkpt lat="49.52362" lon="-1.59103">
        <ele>92.8</ele>
        <time>2026-03-30T13:03:19.000Z</time>
      </trkpt>
      <trkpt lat="49.52361" lon="-1.59102">
        <ele>92.6</ele>
        <time>2026-03-30T13:03:20.000Z</time>
      </trkpt>
      <trkpt lat="49.52359" lon="-1.59101">
        <ele>92.4</ele>
        <time>2026-03-30T13:03:21.000Z</time>
      </trkpt>
      <trkpt lat="49.52358" lon="-1.59101">
        <ele>92.1</ele>
        <time>2026-03-30T13:03:22.000Z</time>
      </trkpt>
      <trkpt lat="49.52357" lon="-1.591">
        <ele>92.2</ele>
        <time>2026-03-30T13:03:23.000Z</time>
      </trkpt>
      <trkpt lat="49.52355" lon="-1.591">
        <ele>92.1</ele>
        <time>2026-03-30T13:03:24.000Z</time>
      </trkpt>
      <trkpt lat="49.52354" lon="-1.59099">
        <ele>92.1</ele>
        <time>2026-03-30T13:03:25.000Z</time>
      </trkpt>
      <trkpt lat="49.52353" lon="-1.59098">
        <ele>91.9</ele>
        <time>2026-03-30T13:03:26.000Z</time>
      </trkpt>
      <trkpt lat="49.52352" lon="-1.59098">
        <ele>91.9</ele>
        <time>2026-03-30T13:03:27.000Z</time>
      </trkpt>
      <trkpt lat="49.5235" lon="-1.59097">
        <ele>91.8</ele>
        <time>2026-03-30T13:03:28.000Z</time>
      </trkpt>
      <trkpt lat="49.52349" lon="-1.59097">
        <ele>91.9</ele>
        <time>2026-03-30T13:03:29.000Z</time>
      </trkpt>
      <trkpt lat="49.52348" lon="-1.59097">
        <ele>91.6</ele>
        <time>2026-03-30T13:03:30.000Z</time>
      </trkpt>
      <trkpt lat="49.52347" lon="-1.59097">
        <ele>91.3</ele>
        <time>2026-03-30T13:03:31.000Z</time>
      </trkpt>
      <trkpt lat="49.52345" lon="-1.59096">
        <ele>91.7</ele>
        <time>2026-03-30T13:03:32.000Z</time>
      </trkpt>
      <trkpt lat="49.52344" lon="-1.59097">
        <ele>91.7</ele>
        <time>2026-03-30T13:03:33.000Z</time>
      </trkpt>
      <trkpt lat="49.52343" lon="-1.59096">
        <ele>91.7</ele>
        <time>2026-03-30T13:03:34.000Z</time>
      </trkpt>
      <trkpt lat="49.52341" lon="-1.59096">
        <ele>91.7</ele>
        <time>2026-03-30T13:03:35.000Z</time>
      </trkpt>
      <trkpt lat="49.5234" lon="-1.59096">
        <ele>92.1</ele>
        <time>2026-03-30T13:03:36.000Z</time>
      </trkpt>
      <trkpt lat="49.52339" lon="-1.59095">
        <ele>91.8</ele>
        <time>2026-03-30T13:03:37.000Z</time>
      </trkpt>
      <trkpt lat="49.52337" lon="-1.59095">
        <ele>91.9</ele>
        <time>2026-03-30T13:03:38.000Z</time>
      </trkpt>
      <trkpt lat="49.52336" lon="-1.59094">
        <ele>92.4</ele>
        <time>2026-03-30T13:03:39.000Z</time>
      </trkpt>
      <trkpt lat="49.52335" lon="-1.59094">
        <ele>92.5</ele>
        <time>2026-03-30T13:03:40.000Z</time>
      </trkpt>
      <trkpt lat="49.52333" lon="-1.59094">
        <ele>92.4</ele>
        <time>2026-03-30T13:03:41.000Z</time>
      </trkpt>
      <trkpt lat="49.52332" lon="-1.59093">
        <ele>92.2</ele>
        <time>2026-03-30T13:03:42.000Z</time>
      </trkpt>
      <trkpt lat="49.52331" lon="-1.59093">
        <ele>92.1</ele>
        <time>2026-03-30T13:03:43.000Z</time>
      </trkpt>
      <trkpt lat="49.5233" lon="-1.59093">
        <ele>91.7</ele>
        <time>2026-03-30T13:03:44.000Z</time>
      </trkpt>
      <trkpt lat="49.52328" lon="-1.59093">
        <ele>91.2</ele>
        <time>2026-03-30T13:03:45.000Z</time>
      </trkpt>
      <trkpt lat="49.52327" lon="-1.59093">
        <ele>91</ele>
        <time>2026-03-30T13:03:46.000Z</time>
      </trkpt>
      <trkpt lat="49.52326" lon="-1.59093">
        <ele>91.1</ele>
        <time>2026-03-30T13:03:47.000Z</time>
      </trkpt>
      <trkpt lat="49.52324" lon="-1.59093">
        <ele>90.9</ele>
        <time>2026-03-30T13:03:48.000Z</time>
      </trkpt>
      <trkpt lat="49.52323" lon="-1.59092">
        <ele>90.5</ele>
        <time>2026-03-30T13:03:49.000Z</time>
      </trkpt>
      <trkpt lat="49.52322" lon="-1.59092">
        <ele>90.6</ele>
        <time>2026-03-30T13:03:50.000Z</time>
      </trkpt>
      <trkpt lat="49.5232" lon="-1.59092">
        <ele>90.4</ele>
        <time>2026-03-30T13:03:51.000Z</time>
      </trkpt>
      <trkpt lat="49.52319" lon="-1.59091">
        <ele>90.5</ele>
        <time>2026-03-30T13:03:52.000Z</time>
      </trkpt>
      <trkpt lat="49.52318" lon="-1.59091">
        <ele>90.9</ele>
        <time>2026-03-30T13:03:53.000Z</time>
      </trkpt>
      <trkpt lat="49.52316" lon="-1.59091">
        <ele>90.7</ele>
        <time>2026-03-30T13:03:54.000Z</time>
      </trkpt>
      <trkpt lat="49.52315" lon="-1.59091">
        <ele>91.1</ele>
        <time>2026-03-30T13:03:55.000Z</time>
      </trkpt>
      <trkpt lat="49.52313" lon="-1.59091">
        <ele>91.4</ele>
        <time>2026-03-30T13:03:56.000Z</time>
      </trkpt>
      <trkpt lat="49.52312" lon="-1.59091">
        <ele>91.2</ele>
        <time>2026-03-30T13:03:57.000Z</time>
      </trkpt>
      <trkpt lat="49.52311" lon="-1.59091">
        <ele>91.1</ele>
        <time>2026-03-30T13:03:58.000Z</time>
      </trkpt>
      <trkpt lat="49.52309" lon="-1.59091">
        <ele>91</ele>
        <time>2026-03-30T13:03:59.000Z</time>
      </trkpt>
      <trkpt lat="49.52308" lon="-1.59093">
        <ele>90.5</ele>
        <time>2026-03-30T13:04:00.000Z</time>
      </trkpt>
      <trkpt lat="49.52307" lon="-1.59094">
        <ele>89.9</ele>
        <time>2026-03-30T13:04:01.000Z</time>
      </trkpt>
      <trkpt lat="49.52306" lon="-1.59094">
        <ele>90.1</ele>
        <time>2026-03-30T13:04:02.000Z</time>
      </trkpt>
      <trkpt lat="49.52305" lon="-1.59095">
        <ele>89.6</ele>
        <time>2026-03-30T13:04:03.000Z</time>
      </trkpt>
      <trkpt lat="49.52304" lon="-1.59095">
        <ele>89.6</ele>
        <time>2026-03-30T13:04:04.000Z</time>
      </trkpt>
      <trkpt lat="49.52303" lon="-1.59095">
        <ele>89.5</ele>
        <time>2026-03-30T13:04:05.000Z</time>
      </trkpt>
      <trkpt lat="49.52301" lon="-1.59095">
        <ele>89.2</ele>
        <time>2026-03-30T13:04:06.000Z</time>
      </trkpt>
      <trkpt lat="49.523" lon="-1.59094">
        <ele>89.3</ele>
        <time>2026-03-30T13:04:07.000Z</time>
      </trkpt>
      <trkpt lat="49.52299" lon="-1.59094">
        <ele>89.4</ele>
        <time>2026-03-30T13:04:08.000Z</time>
      </trkpt>
      <trkpt lat="49.52297" lon="-1.59094">
        <ele>89.6</ele>
        <time>2026-03-30T13:04:09.000Z</time>
      </trkpt>
      <trkpt lat="49.52296" lon="-1.59094">
        <ele>89.5</ele>
        <time>2026-03-30T13:04:10.000Z</time>
      </trkpt>
      <trkpt lat="49.52295" lon="-1.59093">
        <ele>89.4</ele>
        <time>2026-03-30T13:04:11.000Z</time>
      </trkpt>
      <trkpt lat="49.52294" lon="-1.59093">
        <ele>89.3</ele>
        <time>2026-03-30T13:04:12.000Z</time>
      </trkpt>
      <trkpt lat="49.52292" lon="-1.59093">
        <ele>88.9</ele>
        <time>2026-03-30T13:04:13.000Z</time>
      </trkpt>
      <trkpt lat="49.52291" lon="-1.59093">
        <ele>89.1</ele>
        <time>2026-03-30T13:04:14.000Z</time>
      </trkpt>
      <trkpt lat="49.5229" lon="-1.59093">
        <ele>89</ele>
        <time>2026-03-30T13:04:15.000Z</time>
      </trkpt>
      <trkpt lat="49.52289" lon="-1.59092">
        <ele>89.4</ele>
        <time>2026-03-30T13:04:16.000Z</time>
      </trkpt>
      <trkpt lat="49.52287" lon="-1.59092">
        <ele>89.4</ele>
        <time>2026-03-30T13:04:17.000Z</time>
      </trkpt>
      <trkpt lat="49.52286" lon="-1.59091">
        <ele>89.7</ele>
        <time>2026-03-30T13:04:18.000Z</time>
      </trkpt>
      <trkpt lat="49.52285" lon="-1.5909">
        <ele>89.3</ele>
        <time>2026-03-30T13:04:19.000Z</time>
      </trkpt>
      <trkpt lat="49.52284" lon="-1.5909">
        <ele>89.3</ele>
        <time>2026-03-30T13:04:20.000Z</time>
      </trkpt>
      <trkpt lat="49.52282" lon="-1.5909">
        <ele>89.5</ele>
        <time>2026-03-30T13:04:21.000Z</time>
      </trkpt>
      <trkpt lat="49.52281" lon="-1.59089">
        <ele>89.6</ele>
        <time>2026-03-30T13:04:22.000Z</time>
      </trkpt>
      <trkpt lat="49.5228" lon="-1.59089">
        <ele>89.5</ele>
        <time>2026-03-30T13:04:23.000Z</time>
      </trkpt>
      <trkpt lat="49.52279" lon="-1.59089">
        <ele>89.4</ele>
        <time>2026-03-30T13:04:24.000Z</time>
      </trkpt>
      <trkpt lat="49.52277" lon="-1.5909">
        <ele>89.5</ele>
        <time>2026-03-30T13:04:25.000Z</time>
      </trkpt>
      <trkpt lat="49.52276" lon="-1.5909">
        <ele>89.1</ele>
        <time>2026-03-30T13:04:26.000Z</time>
      </trkpt>
      <trkpt lat="49.52275" lon="-1.59091">
        <ele>89</ele>
        <time>2026-03-30T13:04:27.000Z</time>
      </trkpt>
      <trkpt lat="49.52273" lon="-1.59091">
        <ele>88.6</ele>
        <time>2026-03-30T13:04:28.000Z</time>
      </trkpt>
      <trkpt lat="49.52272" lon="-1.59091">
        <ele>88.4</ele>
        <time>2026-03-30T13:04:29.000Z</time>
      </trkpt>
      <trkpt lat="49.5227" lon="-1.59092">
        <ele>88.1</ele>
        <time>2026-03-30T13:04:30.000Z</time>
      </trkpt>
      <trkpt lat="49.52269" lon="-1.59092">
        <ele>88.1</ele>
        <time>2026-03-30T13:04:31.000Z</time>
      </trkpt>
      <trkpt lat="49.5227" lon="-1.59093">
        <ele>88.3</ele>
        <time>2026-03-30T13:04:52.000Z</time>
      </trkpt>
      <trkpt lat="49.52272" lon="-1.59093">
        <ele>87.9</ele>
        <time>2026-03-30T13:04:53.000Z</time>
      </trkpt>
      <trkpt lat="49.52273" lon="-1.59094">
        <ele>87.4</ele>
        <time>2026-03-30T13:04:54.000Z</time>
      </trkpt>
      <trkpt lat="49.52273" lon="-1.59094">
        <ele>87.2</ele>
        <time>2026-03-30T13:04:55.000Z</time>
      </trkpt>
      <trkpt lat="49.52275" lon="-1.59094">
        <ele>88.2</ele>
        <time>2026-03-30T13:04:56.000Z</time>
      </trkpt>
      <trkpt lat="49.52276" lon="-1.59094">
        <ele>87.9</ele>
        <time>2026-03-30T13:04:57.000Z</time>
      </trkpt>
      <trkpt lat="49.52277" lon="-1.59094">
        <ele>87.9</ele>
        <time>2026-03-30T13:04:58.000Z</time>
      </trkpt>
      <trkpt lat="49.52278" lon="-1.59094">
        <ele>87.9</ele>
        <time>2026-03-30T13:04:59.000Z</time>
      </trkpt>
      <trkpt lat="49.5228" lon="-1.59094">
        <ele>88</ele>
        <time>2026-03-30T13:05:00.000Z</time>
      </trkpt>
      <trkpt lat="49.52281" lon="-1.59094">
        <ele>87.6</ele>
        <time>2026-03-30T13:05:01.000Z</time>
      </trkpt>
      <trkpt lat="49.52282" lon="-1.59094">
        <ele>88.1</ele>
        <time>2026-03-30T13:05:02.000Z</time>
      </trkpt>
      <trkpt lat="49.52283" lon="-1.59094">
        <ele>87.9</ele>
        <time>2026-03-30T13:05:03.000Z</time>
      </trkpt>
      <trkpt lat="49.52284" lon="-1.59094">
        <ele>88.1</ele>
        <time>2026-03-30T13:05:04.000Z</time>
      </trkpt>
      <trkpt lat="49.52285" lon="-1.59094">
        <ele>88.2</ele>
        <time>2026-03-30T13:05:05.000Z</time>
      </trkpt>
      <trkpt lat="49.52286" lon="-1.59095">
        <ele>88.3</ele>
        <time>2026-03-30T13:05:06.000Z</time>
      </trkpt>
      <trkpt lat="49.52287" lon="-1.59095">
        <ele>88.5</ele>
        <time>2026-03-30T13:05:07.000Z</time>
      </trkpt>
      <trkpt lat="49.52288" lon="-1.59096">
        <ele>89.1</ele>
        <time>2026-03-30T13:05:08.000Z</time>
      </trkpt>
      <trkpt lat="49.52289" lon="-1.59097">
        <ele>89.5</ele>
        <time>2026-03-30T13:05:09.000Z</time>
      </trkpt>
      <trkpt lat="49.52291" lon="-1.59098">
        <ele>89.6</ele>
        <time>2026-03-30T13:05:10.000Z</time>
      </trkpt>
      <trkpt lat="49.52292" lon="-1.59099">
        <ele>89.6</ele>
        <time>2026-03-30T13:05:11.000Z</time>
      </trkpt>
      <trkpt lat="49.52292" lon="-1.591">
        <ele>89.4</ele>
        <time>2026-03-30T13:05:12.000Z</time>
      </trkpt>
      <trkpt lat="49.52293" lon="-1.59102">
        <ele>88.8</ele>
        <time>2026-03-30T13:05:13.000Z</time>
      </trkpt>
      <trkpt lat="49.52294" lon="-1.59103">
        <ele>88.6</ele>
        <time>2026-03-30T13:05:14.000Z</time>
      </trkpt>
      <trkpt lat="49.52295" lon="-1.59104">
        <ele>88.8</ele>
        <time>2026-03-30T13:05:15.000Z</time>
      </trkpt>
      <trkpt lat="49.52296" lon="-1.59105">
        <ele>88.8</ele>
        <time>2026-03-30T13:05:16.000Z</time>
      </trkpt>
      <trkpt lat="49.52296" lon="-1.59106">
        <ele>88.3</ele>
        <time>2026-03-30T13:05:17.000Z</time>
      </trkpt>
      <trkpt lat="49.52297" lon="-1.59107">
        <ele>88.3</ele>
        <time>2026-03-30T13:05:18.000Z</time>
      </trkpt>
      <trkpt lat="49.52297" lon="-1.59109">
        <ele>87.6</ele>
        <time>2026-03-30T13:05:19.000Z</time>
      </trkpt>
      <trkpt lat="49.52298" lon="-1.5911">
        <ele>87.7</ele>
        <time>2026-03-30T13:05:20.000Z</time>
      </trkpt>
      <trkpt lat="49.52299" lon="-1.59112">
        <ele>88</ele>
        <time>2026-03-30T13:05:21.000Z</time>
      </trkpt>
      <trkpt lat="49.52299" lon="-1.59113">
        <ele>88.7</ele>
        <time>2026-03-30T13:05:22.000Z</time>
      </trkpt>
      <trkpt lat="49.523" lon="-1.59115">
        <ele>88.5</ele>
        <time>2026-03-30T13:05:23.000Z</time>
      </trkpt>
      <trkpt lat="49.523" lon="-1.59116">
        <ele>87.3</ele>
        <time>2026-03-30T13:05:24.000Z</time>
      </trkpt>
      <trkpt lat="49.52301" lon="-1.59118">
        <ele>87.4</ele>
        <time>2026-03-30T13:05:25.000Z</time>
      </trkpt>
      <trkpt lat="49.52301" lon="-1.59119">
        <ele>87.1</ele>
        <time>2026-03-30T13:05:26.000Z</time>
      </trkpt>
      <trkpt lat="49.52302" lon="-1.59121">
        <ele>87.1</ele>
        <time>2026-03-30T13:05:27.000Z</time>
      </trkpt>
      <trkpt lat="49.52302" lon="-1.59122">
        <ele>86.9</ele>
        <time>2026-03-30T13:05:28.000Z</time>
      </trkpt>
      <trkpt lat="49.52303" lon="-1.59124">
        <ele>86.4</ele>
        <time>2026-03-30T13:05:29.000Z</time>
      </trkpt>
      <trkpt lat="49.52304" lon="-1.59125">
        <ele>86.6</ele>
        <time>2026-03-30T13:05:30.000Z</time>
      </trkpt>
      <trkpt lat="49.52305" lon="-1.59126">
        <ele>87</ele>
        <time>2026-03-30T13:05:31.000Z</time>
      </trkpt>
      <trkpt lat="49.52306" lon="-1.59128">
        <ele>87</ele>
        <time>2026-03-30T13:05:32.000Z</time>
      </trkpt>
      <trkpt lat="49.52307" lon="-1.59129">
        <ele>87.2</ele>
        <time>2026-03-30T13:05:33.000Z</time>
      </trkpt>
      <trkpt lat="49.52308" lon="-1.59131">
        <ele>86.8</ele>
        <time>2026-03-30T13:05:34.000Z</time>
      </trkpt>
      <trkpt lat="49.52308" lon="-1.59133">
        <ele>86.6</ele>
        <time>2026-03-30T13:05:35.000Z</time>
      </trkpt>
      <trkpt lat="49.52309" lon="-1.59135">
        <ele>86.8</ele>
        <time>2026-03-30T13:05:36.000Z</time>
      </trkpt>
      <trkpt lat="49.52309" lon="-1.59137">
        <ele>86.9</ele>
        <time>2026-03-30T13:05:37.000Z</time>
      </trkpt>
      <trkpt lat="49.52308" lon="-1.59139">
        <ele>86.7</ele>
        <time>2026-03-30T13:05:38.000Z</time>
      </trkpt>
      <trkpt lat="49.52308" lon="-1.59141">
        <ele>86.3</ele>
        <time>2026-03-30T13:05:39.000Z</time>
      </trkpt>
      <trkpt lat="49.52307" lon="-1.59143">
        <ele>86.2</ele>
        <time>2026-03-30T13:05:40.000Z</time>
      </trkpt>
      <trkpt lat="49.52307" lon="-1.59145">
        <ele>85.7</ele>
        <time>2026-03-30T13:05:41.000Z</time>
      </trkpt>
      <trkpt lat="49.52306" lon="-1.59147">
        <ele>85.2</ele>
        <time>2026-03-30T13:05:42.000Z</time>
      </trkpt>
      <trkpt lat="49.52306" lon="-1.59148">
        <ele>85.3</ele>
        <time>2026-03-30T13:05:43.000Z</time>
      </trkpt>
      <trkpt lat="49.52305" lon="-1.5915">
        <ele>85.7</ele>
        <time>2026-03-30T13:05:44.000Z</time>
      </trkpt>
      <trkpt lat="49.52304" lon="-1.59151">
        <ele>85.5</ele>
        <time>2026-03-30T13:05:45.000Z</time>
      </trkpt>
      <trkpt lat="49.52304" lon="-1.59152">
        <ele>85.3</ele>
        <time>2026-03-30T13:05:46.000Z</time>
      </trkpt>
      <trkpt lat="49.52304" lon="-1.59153">
        <ele>85.3</ele>
        <time>2026-03-30T13:05:47.000Z</time>
      </trkpt>
      <trkpt lat="49.52303" lon="-1.59155">
        <ele>85</ele>
        <time>2026-03-30T13:05:48.000Z</time>
      </trkpt>
      <trkpt lat="49.52303" lon="-1.59157">
        <ele>84.6</ele>
        <time>2026-03-30T13:05:49.000Z</time>
      </trkpt>
      <trkpt lat="49.52302" lon="-1.59159">
        <ele>85.3</ele>
        <time>2026-03-30T13:05:50.000Z</time>
      </trkpt>
      <trkpt lat="49.52301" lon="-1.5916">
        <ele>85.4</ele>
        <time>2026-03-30T13:05:51.000Z</time>
      </trkpt>
      <trkpt lat="49.523" lon="-1.59161">
        <ele>85.2</ele>
        <time>2026-03-30T13:05:52.000Z</time>
      </trkpt>
      <trkpt lat="49.523" lon="-1.59162">
        <ele>85.2</ele>
        <time>2026-03-30T13:05:53.000Z</time>
      </trkpt>
      <trkpt lat="49.523" lon="-1.59162">
        <ele>85.3</ele>
        <time>2026-03-30T13:05:54.000Z</time>
      </trkpt>
      <trkpt lat="49.523" lon="-1.59163">
        <ele>85.2</ele>
        <time>2026-03-30T13:05:55.000Z</time>
      </trkpt>
      <trkpt lat="49.523" lon="-1.59163">
        <ele>85.1</ele>
        <time>2026-03-30T13:05:56.000Z</time>
      </trkpt>
      <trkpt lat="49.523" lon="-1.59164">
        <ele>84.6</ele>
        <time>2026-03-30T13:05:57.000Z</time>
      </trkpt>
      <trkpt lat="49.523" lon="-1.59164">
        <ele>84.5</ele>
        <time>2026-03-30T13:05:58.000Z</time>
      </trkpt>
      <trkpt lat="49.523" lon="-1.59165">
        <ele>84.3</ele>
        <time>2026-03-30T13:05:59.000Z</time>
      </trkpt>
      <trkpt lat="49.523" lon="-1.59164">
        <ele>84.2</ele>
        <time>2026-03-30T13:06:00.000Z</time>
      </trkpt>
      <trkpt lat="49.523" lon="-1.59164">
        <ele>84.2</ele>
        <time>2026-03-30T13:06:01.000Z</time>
      </trkpt>
      <trkpt lat="49.523" lon="-1.59164">
        <ele>84.2</ele>
        <time>2026-03-30T13:06:02.000Z</time>
      </trkpt>
      <trkpt lat="49.523" lon="-1.59165">
        <ele>84.2</ele>
        <time>2026-03-30T13:06:03.000Z</time>
      </trkpt>
      <trkpt lat="49.523" lon="-1.59166">
        <ele>84</ele>
        <time>2026-03-30T13:06:04.000Z</time>
      </trkpt>
      <trkpt lat="49.52299" lon="-1.59168">
        <ele>83.8</ele>
        <time>2026-03-30T13:06:05.000Z</time>
      </trkpt>
      <trkpt lat="49.52299" lon="-1.59169">
        <ele>83.7</ele>
        <time>2026-03-30T13:06:06.000Z</time>
      </trkpt>
      <trkpt lat="49.52298" lon="-1.59171">
        <ele>83.6</ele>
        <time>2026-03-30T13:06:07.000Z</time>
      </trkpt>
      <trkpt lat="49.52297" lon="-1.59173">
        <ele>83.6</ele>
        <time>2026-03-30T13:06:08.000Z</time>
      </trkpt>
      <trkpt lat="49.52296" lon="-1.59174">
        <ele>83.3</ele>
        <time>2026-03-30T13:06:09.000Z</time>
      </trkpt>
      <trkpt lat="49.52295" lon="-1.59176">
        <ele>83.1</ele>
        <time>2026-03-30T13:06:10.000Z</time>
      </trkpt>
      <trkpt lat="49.52294" lon="-1.59177">
        <ele>83.2</ele>
        <time>2026-03-30T13:06:11.000Z</time>
      </trkpt>
      <trkpt lat="49.52293" lon="-1.59178">
        <ele>83.3</ele>
        <time>2026-03-30T13:06:12.000Z</time>
      </trkpt>
      <trkpt lat="49.52293" lon="-1.5918">
        <ele>83.5</ele>
        <time>2026-03-30T13:06:13.000Z</time>
      </trkpt>
      <trkpt lat="49.52292" lon="-1.59181">
        <ele>83.6</ele>
        <time>2026-03-30T13:06:14.000Z</time>
      </trkpt>
      <trkpt lat="49.52291" lon="-1.59183">
        <ele>84</ele>
        <time>2026-03-30T13:06:15.000Z</time>
      </trkpt>
      <trkpt lat="49.52291" lon="-1.59185">
        <ele>83.9</ele>
        <time>2026-03-30T13:06:16.000Z</time>
      </trkpt>
      <trkpt lat="49.5229" lon="-1.59187">
        <ele>83.5</ele>
        <time>2026-03-30T13:06:17.000Z</time>
      </trkpt>
      <trkpt lat="49.52289" lon="-1.59188">
        <ele>83.5</ele>
        <time>2026-03-30T13:06:18.000Z</time>
      </trkpt>
      <trkpt lat="49.52288" lon="-1.59189">
        <ele>83.9</ele>
        <time>2026-03-30T13:06:19.000Z</time>
      </trkpt>
      <trkpt lat="49.52287" lon="-1.5919">
        <ele>84.4</ele>
        <time>2026-03-30T13:06:20.000Z</time>
      </trkpt>
      <trkpt lat="49.52286" lon="-1.59191">
        <ele>84.6</ele>
        <time>2026-03-30T13:06:21.000Z</time>
      </trkpt>
      <trkpt lat="49.52286" lon="-1.59193">
        <ele>84.5</ele>
        <time>2026-03-30T13:06:22.000Z</time>
      </trkpt>
      <trkpt lat="49.52285" lon="-1.59195">
        <ele>84.7</ele>
        <time>2026-03-30T13:06:23.000Z</time>
      </trkpt>
      <trkpt lat="49.52284" lon="-1.59196">
        <ele>84.7</ele>
        <time>2026-03-30T13:06:24.000Z</time>
      </trkpt>
      <trkpt lat="49.52284" lon="-1.59198">
        <ele>84.6</ele>
        <time>2026-03-30T13:06:25.000Z</time>
      </trkpt>
      <trkpt lat="49.52283" lon="-1.59199">
        <ele>84.9</ele>
        <time>2026-03-30T13:06:26.000Z</time>
      </trkpt>
      <trkpt lat="49.52282" lon="-1.592">
        <ele>85.4</ele>
        <time>2026-03-30T13:06:27.000Z</time>
      </trkpt>
      <trkpt lat="49.52281" lon="-1.59202">
        <ele>85.2</ele>
        <time>2026-03-30T13:06:28.000Z</time>
      </trkpt>
      <trkpt lat="49.52281" lon="-1.59203">
        <ele>85</ele>
        <time>2026-03-30T13:06:29.000Z</time>
      </trkpt>
      <trkpt lat="49.5228" lon="-1.59205">
        <ele>84.3</ele>
        <time>2026-03-30T13:06:30.000Z</time>
      </trkpt>
      <trkpt lat="49.52279" lon="-1.59206">
        <ele>84.9</ele>
        <time>2026-03-30T13:06:31.000Z</time>
      </trkpt>
      <trkpt lat="49.52279" lon="-1.59208">
        <ele>84.9</ele>
        <time>2026-03-30T13:06:32.000Z</time>
      </trkpt>
      <trkpt lat="49.52278" lon="-1.59209">
        <ele>85</ele>
        <time>2026-03-30T13:06:33.000Z</time>
      </trkpt>
      <trkpt lat="49.52277" lon="-1.5921">
        <ele>85.2</ele>
        <time>2026-03-30T13:06:34.000Z</time>
      </trkpt>
      <trkpt lat="49.52276" lon="-1.59211">
        <ele>85.1</ele>
        <time>2026-03-30T13:06:35.000Z</time>
      </trkpt>
      <trkpt lat="49.52276" lon="-1.59212">
        <ele>84.9</ele>
        <time>2026-03-30T13:06:36.000Z</time>
      </trkpt>
      <trkpt lat="49.52275" lon="-1.59213">
        <ele>84.6</ele>
        <time>2026-03-30T13:06:37.000Z</time>
      </trkpt>
      <trkpt lat="49.52274" lon="-1.59214">
        <ele>84.8</ele>
        <time>2026-03-30T13:06:38.000Z</time>
      </trkpt>
      <trkpt lat="49.52273" lon="-1.59215">
        <ele>84.7</ele>
        <time>2026-03-30T13:06:39.000Z</time>
      </trkpt>
      <trkpt lat="49.52272" lon="-1.59216">
        <ele>84.8</ele>
        <time>2026-03-30T13:06:40.000Z</time>
      </trkpt>
      <trkpt lat="49.52271" lon="-1.59218">
        <ele>85</ele>
        <time>2026-03-30T13:06:41.000Z</time>
      </trkpt>
      <trkpt lat="49.52271" lon="-1.59219">
        <ele>85.8</ele>
        <time>2026-03-30T13:06:42.000Z</time>
      </trkpt>
      <trkpt lat="49.5227" lon="-1.59221">
        <ele>85.7</ele>
        <time>2026-03-30T13:06:43.000Z</time>
      </trkpt>
      <trkpt lat="49.52269" lon="-1.59223">
        <ele>85.9</ele>
        <time>2026-03-30T13:06:44.000Z</time>
      </trkpt>
      <trkpt lat="49.52268" lon="-1.59224">
        <ele>86.5</ele>
        <time>2026-03-30T13:06:45.000Z</time>
      </trkpt>
      <trkpt lat="49.52268" lon="-1.59226">
        <ele>86.7</ele>
        <time>2026-03-30T13:06:46.000Z</time>
      </trkpt>
      <trkpt lat="49.52267" lon="-1.59228">
        <ele>86.6</ele>
        <time>2026-03-30T13:06:47.000Z</time>
      </trkpt>
      <trkpt lat="49.52266" lon="-1.5923">
        <ele>87</ele>
        <time>2026-03-30T13:06:48.000Z</time>
      </trkpt>
      <trkpt lat="49.52265" lon="-1.59231">
        <ele>87</ele>
        <time>2026-03-30T13:06:49.000Z</time>
      </trkpt>
      <trkpt lat="49.52264" lon="-1.59233">
        <ele>87.9</ele>
        <time>2026-03-30T13:06:50.000Z</time>
      </trkpt>
      <trkpt lat="49.52263" lon="-1.59234">
        <ele>87.9</ele>
        <time>2026-03-30T13:06:51.000Z</time>
      </trkpt>
      <trkpt lat="49.52262" lon="-1.59235">
        <ele>87.7</ele>
        <time>2026-03-30T13:06:52.000Z</time>
      </trkpt>
      <trkpt lat="49.52261" lon="-1.59236">
        <ele>87.6</ele>
        <time>2026-03-30T13:06:53.000Z</time>
      </trkpt>
      <trkpt lat="49.5226" lon="-1.59237">
        <ele>88.1</ele>
        <time>2026-03-30T13:06:54.000Z</time>
      </trkpt>
      <trkpt lat="49.5226" lon="-1.59239">
        <ele>87.7</ele>
        <time>2026-03-30T13:06:55.000Z</time>
      </trkpt>
      <trkpt lat="49.52259" lon="-1.5924">
        <ele>87.9</ele>
        <time>2026-03-30T13:06:56.000Z</time>
      </trkpt>
      <trkpt lat="49.52258" lon="-1.59242">
        <ele>87.7</ele>
        <time>2026-03-30T13:06:57.000Z</time>
      </trkpt>
      <trkpt lat="49.52258" lon="-1.59244">
        <ele>87.2</ele>
        <time>2026-03-30T13:06:58.000Z</time>
      </trkpt>
      <trkpt lat="49.52257" lon="-1.59245">
        <ele>87</ele>
        <time>2026-03-30T13:06:59.000Z</time>
      </trkpt>
      <trkpt lat="49.52257" lon="-1.59247">
        <ele>86.6</ele>
        <time>2026-03-30T13:07:00.000Z</time>
      </trkpt>
      <trkpt lat="49.52256" lon="-1.59249">
        <ele>85.7</ele>
        <time>2026-03-30T13:07:01.000Z</time>
      </trkpt>
      <trkpt lat="49.52256" lon="-1.5925">
        <ele>85.7</ele>
        <time>2026-03-30T13:07:02.000Z</time>
      </trkpt>
      <trkpt lat="49.52255" lon="-1.59252">
        <ele>85.4</ele>
        <time>2026-03-30T13:07:03.000Z</time>
      </trkpt>
      <trkpt lat="49.52255" lon="-1.59254">
        <ele>84.6</ele>
        <time>2026-03-30T13:07:04.000Z</time>
      </trkpt>
      <trkpt lat="49.52255" lon="-1.59256">
        <ele>84.8</ele>
        <time>2026-03-30T13:07:05.000Z</time>
      </trkpt>
      <trkpt lat="49.52254" lon="-1.59257">
        <ele>84.5</ele>
        <time>2026-03-30T13:07:06.000Z</time>
      </trkpt>
      <trkpt lat="49.52254" lon="-1.59258">
        <ele>84</ele>
        <time>2026-03-30T13:07:07.000Z</time>
      </trkpt>
      <trkpt lat="49.52254" lon="-1.5926">
        <ele>84.4</ele>
        <time>2026-03-30T13:07:08.000Z</time>
      </trkpt>
      <trkpt lat="49.52253" lon="-1.59262">
        <ele>84.8</ele>
        <time>2026-03-30T13:07:09.000Z</time>
      </trkpt>
      <trkpt lat="49.52253" lon="-1.59264">
        <ele>84.3</ele>
        <time>2026-03-30T13:07:10.000Z</time>
      </trkpt>
      <trkpt lat="49.52252" lon="-1.59265">
        <ele>84.3</ele>
        <time>2026-03-30T13:07:11.000Z</time>
      </trkpt>
      <trkpt lat="49.52252" lon="-1.59267">
        <ele>85</ele>
        <time>2026-03-30T13:07:12.000Z</time>
      </trkpt>
      <trkpt lat="49.52251" lon="-1.59269">
        <ele>84.3</ele>
        <time>2026-03-30T13:07:13.000Z</time>
      </trkpt>
      <trkpt lat="49.52251" lon="-1.59271">
        <ele>84.6</ele>
        <time>2026-03-30T13:07:14.000Z</time>
      </trkpt>
      <trkpt lat="49.52251" lon="-1.59272">
        <ele>84.4</ele>
        <time>2026-03-30T13:07:15.000Z</time>
      </trkpt>
      <trkpt lat="49.52251" lon="-1.59274">
        <ele>84.6</ele>
        <time>2026-03-30T13:07:16.000Z</time>
      </trkpt>
      <trkpt lat="49.5225" lon="-1.59276">
        <ele>84.7</ele>
        <time>2026-03-30T13:07:17.000Z</time>
      </trkpt>
      <trkpt lat="49.5225" lon="-1.59278">
        <ele>85</ele>
        <time>2026-03-30T13:07:18.000Z</time>
      </trkpt>
      <trkpt lat="49.5225" lon="-1.5928">
        <ele>84.8</ele>
        <time>2026-03-30T13:07:19.000Z</time>
      </trkpt>
      <trkpt lat="49.52249" lon="-1.59282">
        <ele>85</ele>
        <time>2026-03-30T13:07:20.000Z</time>
      </trkpt>
      <trkpt lat="49.52249" lon="-1.59284">
        <ele>84.4</ele>
        <time>2026-03-30T13:07:21.000Z</time>
      </trkpt>
      <trkpt lat="49.52248" lon="-1.59285">
        <ele>84.5</ele>
        <time>2026-03-30T13:07:22.000Z</time>
      </trkpt>
      <trkpt lat="49.52248" lon="-1.59287">
        <ele>84.6</ele>
        <time>2026-03-30T13:07:23.000Z</time>
      </trkpt>
      <trkpt lat="49.52248" lon="-1.59289">
        <ele>84.2</ele>
        <time>2026-03-30T13:07:24.000Z</time>
      </trkpt>
      <trkpt lat="49.52247" lon="-1.5929">
        <ele>84.1</ele>
        <time>2026-03-30T13:07:25.000Z</time>
      </trkpt>
      <trkpt lat="49.52247" lon="-1.59292">
        <ele>83.8</ele>
        <time>2026-03-30T13:07:26.000Z</time>
      </trkpt>
      <trkpt lat="49.52247" lon="-1.59294">
        <ele>84.2</ele>
        <time>2026-03-30T13:07:27.000Z</time>
      </trkpt>
      <trkpt lat="49.52246" lon="-1.59296">
        <ele>84.3</ele>
        <time>2026-03-30T13:07:28.000Z</time>
      </trkpt>
      <trkpt lat="49.52246" lon="-1.59298">
        <ele>84.8</ele>
        <time>2026-03-30T13:07:29.000Z</time>
      </trkpt>
      <trkpt lat="49.52245" lon="-1.59299">
        <ele>84.1</ele>
        <time>2026-03-30T13:07:30.000Z</time>
      </trkpt>
      <trkpt lat="49.52244" lon="-1.59301">
        <ele>84.8</ele>
        <time>2026-03-30T13:07:31.000Z</time>
      </trkpt>
      <trkpt lat="49.52243" lon="-1.59302">
        <ele>84.5</ele>
        <time>2026-03-30T13:07:32.000Z</time>
      </trkpt>
      <trkpt lat="49.52243" lon="-1.59304">
        <ele>84.6</ele>
        <time>2026-03-30T13:07:33.000Z</time>
      </trkpt>
      <trkpt lat="49.52242" lon="-1.59305">
        <ele>84.3</ele>
        <time>2026-03-30T13:07:34.000Z</time>
      </trkpt>
      <trkpt lat="49.52242" lon="-1.59307">
        <ele>84.5</ele>
        <time>2026-03-30T13:07:35.000Z</time>
      </trkpt>
      <trkpt lat="49.52241" lon="-1.59308">
        <ele>85</ele>
        <time>2026-03-30T13:07:36.000Z</time>
      </trkpt>
      <trkpt lat="49.5224" lon="-1.5931">
        <ele>85.3</ele>
        <time>2026-03-30T13:07:37.000Z</time>
      </trkpt>
      <trkpt lat="49.5224" lon="-1.59311">
        <ele>85.4</ele>
        <time>2026-03-30T13:07:38.000Z</time>
      </trkpt>
      <trkpt lat="49.52239" lon="-1.59312">
        <ele>85.5</ele>
        <time>2026-03-30T13:07:39.000Z</time>
      </trkpt>
      <trkpt lat="49.52239" lon="-1.59314">
        <ele>85.5</ele>
        <time>2026-03-30T13:07:40.000Z</time>
      </trkpt>
      <trkpt lat="49.52238" lon="-1.59315">
        <ele>85.8</ele>
        <time>2026-03-30T13:07:41.000Z</time>
      </trkpt>
      <trkpt lat="49.52237" lon="-1.59317">
        <ele>86.1</ele>
        <time>2026-03-30T13:07:42.000Z</time>
      </trkpt>
      <trkpt lat="49.52237" lon="-1.59317">
        <ele>85.6</ele>
        <time>2026-03-30T13:08:11.000Z</time>
      </trkpt>
      <trkpt lat="49.52236" lon="-1.59318">
        <ele>84.1</ele>
        <time>2026-03-30T13:08:12.000Z</time>
      </trkpt>
      <trkpt lat="49.52236" lon="-1.59318">
        <ele>83.7</ele>
        <time>2026-03-30T13:08:13.000Z</time>
      </trkpt>
      <trkpt lat="49.52236" lon="-1.59319">
        <ele>84.7</ele>
        <time>2026-03-30T13:08:27.000Z</time>
      </trkpt>
      <trkpt lat="49.52236" lon="-1.5932">
        <ele>84.1</ele>
        <time>2026-03-30T13:08:28.000Z</time>
      </trkpt>
      <trkpt lat="49.52237" lon="-1.59321">
        <ele>82.8</ele>
        <time>2026-03-30T13:08:29.000Z</time>
      </trkpt>
      <trkpt lat="49.52237" lon="-1.59322">
        <ele>82.8</ele>
        <time>2026-03-30T13:08:30.000Z</time>
      </trkpt>
      <trkpt lat="49.52237" lon="-1.5932">
        <ele>83.2</ele>
        <time>2026-03-30T13:10:41.000Z</time>
      </trkpt>
      <trkpt lat="49.52236" lon="-1.5932">
        <ele>83</ele>
        <time>2026-03-30T13:10:42.000Z</time>
      </trkpt>
      <trkpt lat="49.52235" lon="-1.59318">
        <ele>83.1</ele>
        <time>2026-03-30T13:10:43.000Z</time>
      </trkpt>
      <trkpt lat="49.52235" lon="-1.59318">
        <ele>83.8</ele>
        <time>2026-03-30T13:10:44.000Z</time>
      </trkpt>
      <trkpt lat="49.52234" lon="-1.59317">
        <ele>84.3</ele>
        <time>2026-03-30T13:10:45.000Z</time>
      </trkpt>
      <trkpt lat="49.52233" lon="-1.59316">
        <ele>84.4</ele>
        <time>2026-03-30T13:10:46.000Z</time>
      </trkpt>
      <trkpt lat="49.52231" lon="-1.59315">
        <ele>84.8</ele>
        <time>2026-03-30T13:10:47.000Z</time>
      </trkpt>
      <trkpt lat="49.5223" lon="-1.59315">
        <ele>85.3</ele>
        <time>2026-03-30T13:10:48.000Z</time>
      </trkpt>
      <trkpt lat="49.52229" lon="-1.59314">
        <ele>85.2</ele>
        <time>2026-03-30T13:10:49.000Z</time>
      </trkpt>
      <trkpt lat="49.52228" lon="-1.59313">
        <ele>84.4</ele>
        <time>2026-03-30T13:10:50.000Z</time>
      </trkpt>
      <trkpt lat="49.52227" lon="-1.59313">
        <ele>84.7</ele>
        <time>2026-03-30T13:10:51.000Z</time>
      </trkpt>
      <trkpt lat="49.52225" lon="-1.59313">
        <ele>85.3</ele>
        <time>2026-03-30T13:10:52.000Z</time>
      </trkpt>
      <trkpt lat="49.52224" lon="-1.59313">
        <ele>85.1</ele>
        <time>2026-03-30T13:10:53.000Z</time>
      </trkpt>
      <trkpt lat="49.52222" lon="-1.59313">
        <ele>85.5</ele>
        <time>2026-03-30T13:10:54.000Z</time>
      </trkpt>
      <trkpt lat="49.52221" lon="-1.59312">
        <ele>86.2</ele>
        <time>2026-03-30T13:10:55.000Z</time>
      </trkpt>
      <trkpt lat="49.52219" lon="-1.59312">
        <ele>86.2</ele>
        <time>2026-03-30T13:10:56.000Z</time>
      </trkpt>
      <trkpt lat="49.52217" lon="-1.59311">
        <ele>86.7</ele>
        <time>2026-03-30T13:10:57.000Z</time>
      </trkpt>
      <trkpt lat="49.52216" lon="-1.5931">
        <ele>87.1</ele>
        <time>2026-03-30T13:10:58.000Z</time>
      </trkpt>
      <trkpt lat="49.52214" lon="-1.5931">
        <ele>86.8</ele>
        <time>2026-03-30T13:10:59.000Z</time>
      </trkpt>
      <trkpt lat="49.52213" lon="-1.5931">
        <ele>87</ele>
        <time>2026-03-30T13:11:00.000Z</time>
      </trkpt>
      <trkpt lat="49.52212" lon="-1.59309">
        <ele>86.9</ele>
        <time>2026-03-30T13:11:01.000Z</time>
      </trkpt>
      <trkpt lat="49.52211" lon="-1.59309">
        <ele>87.1</ele>
        <time>2026-03-30T13:11:02.000Z</time>
      </trkpt>
      <trkpt lat="49.5221" lon="-1.59309">
        <ele>86.5</ele>
        <time>2026-03-30T13:11:03.000Z</time>
      </trkpt>
      <trkpt lat="49.52208" lon="-1.59309">
        <ele>86.5</ele>
        <time>2026-03-30T13:11:04.000Z</time>
      </trkpt>
      <trkpt lat="49.52207" lon="-1.59308">
        <ele>85.5</ele>
        <time>2026-03-30T13:11:05.000Z</time>
      </trkpt>
      <trkpt lat="49.52206" lon="-1.59307">
        <ele>85.5</ele>
        <time>2026-03-30T13:11:06.000Z</time>
      </trkpt>
      <trkpt lat="49.52205" lon="-1.59306">
        <ele>85.6</ele>
        <time>2026-03-30T13:11:07.000Z</time>
      </trkpt>
      <trkpt lat="49.52204" lon="-1.59305">
        <ele>85.3</ele>
        <time>2026-03-30T13:11:08.000Z</time>
      </trkpt>
      <trkpt lat="49.52202" lon="-1.59305">
        <ele>85.4</ele>
        <time>2026-03-30T13:11:09.000Z</time>
      </trkpt>
      <trkpt lat="49.52201" lon="-1.59304">
        <ele>85</ele>
        <time>2026-03-30T13:11:10.000Z</time>
      </trkpt>
      <trkpt lat="49.522" lon="-1.59303">
        <ele>84.8</ele>
        <time>2026-03-30T13:11:11.000Z</time>
      </trkpt>
      <trkpt lat="49.52198" lon="-1.59302">
        <ele>85.2</ele>
        <time>2026-03-30T13:11:12.000Z</time>
      </trkpt>
      <trkpt lat="49.52197" lon="-1.59301">
        <ele>85.9</ele>
        <time>2026-03-30T13:11:13.000Z</time>
      </trkpt>
      <trkpt lat="49.52195" lon="-1.59301">
        <ele>86.2</ele>
        <time>2026-03-30T13:11:14.000Z</time>
      </trkpt>
      <trkpt lat="49.52194" lon="-1.593">
        <ele>86.1</ele>
        <time>2026-03-30T13:11:15.000Z</time>
      </trkpt>
      <trkpt lat="49.52192" lon="-1.593">
        <ele>86.8</ele>
        <time>2026-03-30T13:11:16.000Z</time>
      </trkpt>
      <trkpt lat="49.52191" lon="-1.593">
        <ele>86.7</ele>
        <time>2026-03-30T13:11:17.000Z</time>
      </trkpt>
      <trkpt lat="49.52189" lon="-1.59299">
        <ele>86.6</ele>
        <time>2026-03-30T13:11:18.000Z</time>
      </trkpt>
      <trkpt lat="49.52188" lon="-1.59299">
        <ele>86.4</ele>
        <time>2026-03-30T13:11:19.000Z</time>
      </trkpt>
      <trkpt lat="49.52187" lon="-1.59299">
        <ele>86.7</ele>
        <time>2026-03-30T13:11:20.000Z</time>
      </trkpt>
      <trkpt lat="49.52185" lon="-1.59299">
        <ele>86.5</ele>
        <time>2026-03-30T13:11:21.000Z</time>
      </trkpt>
      <trkpt lat="49.52184" lon="-1.59299">
        <ele>86</ele>
        <time>2026-03-30T13:11:22.000Z</time>
      </trkpt>
      <trkpt lat="49.52183" lon="-1.59298">
        <ele>86.3</ele>
        <time>2026-03-30T13:11:23.000Z</time>
      </trkpt>
      <trkpt lat="49.52182" lon="-1.59298">
        <ele>86.4</ele>
        <time>2026-03-30T13:11:24.000Z</time>
      </trkpt>
      <trkpt lat="49.5218" lon="-1.59298">
        <ele>86.5</ele>
        <time>2026-03-30T13:11:25.000Z</time>
      </trkpt>
      <trkpt lat="49.52179" lon="-1.59298">
        <ele>86.6</ele>
        <time>2026-03-30T13:11:26.000Z</time>
      </trkpt>
      <trkpt lat="49.52178" lon="-1.59298">
        <ele>86.3</ele>
        <time>2026-03-30T13:11:27.000Z</time>
      </trkpt>
      <trkpt lat="49.52177" lon="-1.59297">
        <ele>86.4</ele>
        <time>2026-03-30T13:11:28.000Z</time>
      </trkpt>
      <trkpt lat="49.52175" lon="-1.59296">
        <ele>86.5</ele>
        <time>2026-03-30T13:11:29.000Z</time>
      </trkpt>
      <trkpt lat="49.52174" lon="-1.59296">
        <ele>86.7</ele>
        <time>2026-03-30T13:11:30.000Z</time>
      </trkpt>
      <trkpt lat="49.52173" lon="-1.59295">
        <ele>86.8</ele>
        <time>2026-03-30T13:11:31.000Z</time>
      </trkpt>
      <trkpt lat="49.52171" lon="-1.59295">
        <ele>86</ele>
        <time>2026-03-30T13:11:32.000Z</time>
      </trkpt>
      <trkpt lat="49.5217" lon="-1.59295">
        <ele>86.5</ele>
        <time>2026-03-30T13:11:33.000Z</time>
      </trkpt>
      <trkpt lat="49.52169" lon="-1.59294">
        <ele>87</ele>
        <time>2026-03-30T13:11:34.000Z</time>
      </trkpt>
      <trkpt lat="49.52168" lon="-1.59293">
        <ele>87.2</ele>
        <time>2026-03-30T13:11:35.000Z</time>
      </trkpt>
      <trkpt lat="49.52167" lon="-1.59293">
        <ele>87</ele>
        <time>2026-03-30T13:11:36.000Z</time>
      </trkpt>
      <trkpt lat="49.52165" lon="-1.59292">
        <ele>87.5</ele>
        <time>2026-03-30T13:11:37.000Z</time>
      </trkpt>
      <trkpt lat="49.52164" lon="-1.59292">
        <ele>87.9</ele>
        <time>2026-03-30T13:11:38.000Z</time>
      </trkpt>
      <trkpt lat="49.52163" lon="-1.59291">
        <ele>87.9</ele>
        <time>2026-03-30T13:11:39.000Z</time>
      </trkpt>
      <trkpt lat="49.52162" lon="-1.59291">
        <ele>88.3</ele>
        <time>2026-03-30T13:11:40.000Z</time>
      </trkpt>
      <trkpt lat="49.5216" lon="-1.5929">
        <ele>88.3</ele>
        <time>2026-03-30T13:11:41.000Z</time>
      </trkpt>
      <trkpt lat="49.52159" lon="-1.5929">
        <ele>88.5</ele>
        <time>2026-03-30T13:11:42.000Z</time>
      </trkpt>
      <trkpt lat="49.52158" lon="-1.5929">
        <ele>88.4</ele>
        <time>2026-03-30T13:11:43.000Z</time>
      </trkpt>
      <trkpt lat="49.52156" lon="-1.5929">
        <ele>88.5</ele>
        <time>2026-03-30T13:11:44.000Z</time>
      </trkpt>
      <trkpt lat="49.52155" lon="-1.59289">
        <ele>88.5</ele>
        <time>2026-03-30T13:11:45.000Z</time>
      </trkpt>
      <trkpt lat="49.52154" lon="-1.59288">
        <ele>88.3</ele>
        <time>2026-03-30T13:11:46.000Z</time>
      </trkpt>
      <trkpt lat="49.52153" lon="-1.59288">
        <ele>88.2</ele>
        <time>2026-03-30T13:11:47.000Z</time>
      </trkpt>
      <trkpt lat="49.52152" lon="-1.59288">
        <ele>88.2</ele>
        <time>2026-03-30T13:11:48.000Z</time>
      </trkpt>
      <trkpt lat="49.5215" lon="-1.59287">
        <ele>88.4</ele>
        <time>2026-03-30T13:11:49.000Z</time>
      </trkpt>
      <trkpt lat="49.52149" lon="-1.59287">
        <ele>87.9</ele>
        <time>2026-03-30T13:11:50.000Z</time>
      </trkpt>
      <trkpt lat="49.52148" lon="-1.59286">
        <ele>87.7</ele>
        <time>2026-03-30T13:11:51.000Z</time>
      </trkpt>
      <trkpt lat="49.52147" lon="-1.59286">
        <ele>86.7</ele>
        <time>2026-03-30T13:11:52.000Z</time>
      </trkpt>
      <trkpt lat="49.52146" lon="-1.59285">
        <ele>86.8</ele>
        <time>2026-03-30T13:11:53.000Z</time>
      </trkpt>
      <trkpt lat="49.52144" lon="-1.59285">
        <ele>86.4</ele>
        <time>2026-03-30T13:11:54.000Z</time>
      </trkpt>
      <trkpt lat="49.52143" lon="-1.59284">
        <ele>85.3</ele>
        <time>2026-03-30T13:11:55.000Z</time>
      </trkpt>
      <trkpt lat="49.52142" lon="-1.59284">
        <ele>85.1</ele>
        <time>2026-03-30T13:11:56.000Z</time>
      </trkpt>
      <trkpt lat="49.52141" lon="-1.59283">
        <ele>86</ele>
        <time>2026-03-30T13:11:57.000Z</time>
      </trkpt>
      <trkpt lat="49.52139" lon="-1.59282">
        <ele>85.8</ele>
        <time>2026-03-30T13:11:58.000Z</time>
      </trkpt>
      <trkpt lat="49.52138" lon="-1.59282">
        <ele>85.8</ele>
        <time>2026-03-30T13:11:59.000Z</time>
      </trkpt>
      <trkpt lat="49.52137" lon="-1.59281">
        <ele>85.5</ele>
        <time>2026-03-30T13:12:00.000Z</time>
      </trkpt>
      <trkpt lat="49.52136" lon="-1.59281">
        <ele>85.8</ele>
        <time>2026-03-30T13:12:01.000Z</time>
      </trkpt>
      <trkpt lat="49.52135" lon="-1.5928">
        <ele>86.1</ele>
        <time>2026-03-30T13:12:02.000Z</time>
      </trkpt>
      <trkpt lat="49.52133" lon="-1.5928">
        <ele>86.1</ele>
        <time>2026-03-30T13:12:03.000Z</time>
      </trkpt>
      <trkpt lat="49.52132" lon="-1.59279">
        <ele>86.3</ele>
        <time>2026-03-30T13:12:04.000Z</time>
      </trkpt>
      <trkpt lat="49.52131" lon="-1.59278">
        <ele>87</ele>
        <time>2026-03-30T13:12:05.000Z</time>
      </trkpt>
      <trkpt lat="49.52129" lon="-1.59278">
        <ele>87.5</ele>
        <time>2026-03-30T13:12:06.000Z</time>
      </trkpt>
      <trkpt lat="49.52128" lon="-1.59277">
        <ele>87.9</ele>
        <time>2026-03-30T13:12:07.000Z</time>
      </trkpt>
      <trkpt lat="49.52127" lon="-1.59277">
        <ele>87.8</ele>
        <time>2026-03-30T13:12:08.000Z</time>
      </trkpt>
      <trkpt lat="49.52125" lon="-1.59277">
        <ele>87.1</ele>
        <time>2026-03-30T13:12:09.000Z</time>
      </trkpt>
      <trkpt lat="49.52124" lon="-1.59276">
        <ele>87.5</ele>
        <time>2026-03-30T13:12:10.000Z</time>
      </trkpt>
      <trkpt lat="49.52123" lon="-1.59276">
        <ele>87.8</ele>
        <time>2026-03-30T13:12:11.000Z</time>
      </trkpt>
      <trkpt lat="49.52121" lon="-1.59276">
        <ele>88.1</ele>
        <time>2026-03-30T13:12:12.000Z</time>
      </trkpt>
      <trkpt lat="49.5212" lon="-1.59275">
        <ele>89</ele>
        <time>2026-03-30T13:12:13.000Z</time>
      </trkpt>
      <trkpt lat="49.52119" lon="-1.59274">
        <ele>89</ele>
        <time>2026-03-30T13:12:14.000Z</time>
      </trkpt>
      <trkpt lat="49.52118" lon="-1.59274">
        <ele>89.2</ele>
        <time>2026-03-30T13:12:15.000Z</time>
      </trkpt>
      <trkpt lat="49.52116" lon="-1.59273">
        <ele>89.3</ele>
        <time>2026-03-30T13:12:16.000Z</time>
      </trkpt>
      <trkpt lat="49.52115" lon="-1.59273">
        <ele>89.8</ele>
        <time>2026-03-30T13:12:17.000Z</time>
      </trkpt>
      <trkpt lat="49.52114" lon="-1.59272">
        <ele>89.7</ele>
        <time>2026-03-30T13:12:18.000Z</time>
      </trkpt>
      <trkpt lat="49.52113" lon="-1.59272">
        <ele>88.9</ele>
        <time>2026-03-30T13:12:19.000Z</time>
      </trkpt>
      <trkpt lat="49.52111" lon="-1.59271">
        <ele>89.1</ele>
        <time>2026-03-30T13:12:20.000Z</time>
      </trkpt>
      <trkpt lat="49.5211" lon="-1.59271">
        <ele>89.6</ele>
        <time>2026-03-30T13:12:21.000Z</time>
      </trkpt>
      <trkpt lat="49.52109" lon="-1.59271">
        <ele>89.5</ele>
        <time>2026-03-30T13:12:22.000Z</time>
      </trkpt>
      <trkpt lat="49.52107" lon="-1.5927">
        <ele>89.1</ele>
        <time>2026-03-30T13:12:23.000Z</time>
      </trkpt>
      <trkpt lat="49.52106" lon="-1.5927">
        <ele>89.3</ele>
        <time>2026-03-30T13:12:24.000Z</time>
      </trkpt>
      <trkpt lat="49.52105" lon="-1.5927">
        <ele>89.4</ele>
        <time>2026-03-30T13:12:25.000Z</time>
      </trkpt>
      <trkpt lat="49.52104" lon="-1.5927">
        <ele>88.8</ele>
        <time>2026-03-30T13:12:26.000Z</time>
      </trkpt>
      <trkpt lat="49.52102" lon="-1.5927">
        <ele>88.5</ele>
        <time>2026-03-30T13:12:27.000Z</time>
      </trkpt>
      <trkpt lat="49.52101" lon="-1.5927">
        <ele>87.7</ele>
        <time>2026-03-30T13:12:28.000Z</time>
      </trkpt>
      <trkpt lat="49.521" lon="-1.59271">
        <ele>89.5</ele>
        <time>2026-03-30T13:12:29.000Z</time>
      </trkpt>
      <trkpt lat="49.52099" lon="-1.59273">
        <ele>90.4</ele>
        <time>2026-03-30T13:12:30.000Z</time>
      </trkpt>
      <trkpt lat="49.52098" lon="-1.59275">
        <ele>90.5</ele>
        <time>2026-03-30T13:12:31.000Z</time>
      </trkpt>
      <trkpt lat="49.52097" lon="-1.59276">
        <ele>90</ele>
        <time>2026-03-30T13:12:32.000Z</time>
      </trkpt>
      <trkpt lat="49.52096" lon="-1.59278">
        <ele>90.2</ele>
        <time>2026-03-30T13:12:33.000Z</time>
      </trkpt>
      <trkpt lat="49.52096" lon="-1.59279">
        <ele>90.3</ele>
        <time>2026-03-30T13:12:34.000Z</time>
      </trkpt>
      <trkpt lat="49.52096" lon="-1.59281">
        <ele>89.7</ele>
        <time>2026-03-30T13:12:35.000Z</time>
      </trkpt>
      <trkpt lat="49.52096" lon="-1.59284">
        <ele>89.5</ele>
        <time>2026-03-30T13:12:36.000Z</time>
      </trkpt>
      <trkpt lat="49.52095" lon="-1.59285">
        <ele>89.9</ele>
        <time>2026-03-30T13:12:37.000Z</time>
      </trkpt>
      <trkpt lat="49.52095" lon="-1.59287">
        <ele>89.7</ele>
        <time>2026-03-30T13:12:38.000Z</time>
      </trkpt>
      <trkpt lat="49.52095" lon="-1.59289">
        <ele>89.3</ele>
        <time>2026-03-30T13:12:39.000Z</time>
      </trkpt>
      <trkpt lat="49.52095" lon="-1.59291">
        <ele>89.4</ele>
        <time>2026-03-30T13:12:40.000Z</time>
      </trkpt>
      <trkpt lat="49.52095" lon="-1.59293">
        <ele>89.1</ele>
        <time>2026-03-30T13:12:41.000Z</time>
      </trkpt>
      <trkpt lat="49.52095" lon="-1.59294">
        <ele>89.5</ele>
        <time>2026-03-30T13:12:42.000Z</time>
      </trkpt>
      <trkpt lat="49.52095" lon="-1.59296">
        <ele>89.8</ele>
        <time>2026-03-30T13:12:43.000Z</time>
      </trkpt>
      <trkpt lat="49.52095" lon="-1.59298">
        <ele>89.8</ele>
        <time>2026-03-30T13:12:44.000Z</time>
      </trkpt>
      <trkpt lat="49.52095" lon="-1.593">
        <ele>88.9</ele>
        <time>2026-03-30T13:12:45.000Z</time>
      </trkpt>
      <trkpt lat="49.52094" lon="-1.59302">
        <ele>89.9</ele>
        <time>2026-03-30T13:12:46.000Z</time>
      </trkpt>
      <trkpt lat="49.52095" lon="-1.59304">
        <ele>89.8</ele>
        <time>2026-03-30T13:12:47.000Z</time>
      </trkpt>
      <trkpt lat="49.52095" lon="-1.59306">
        <ele>89.7</ele>
        <time>2026-03-30T13:12:48.000Z</time>
      </trkpt>
      <trkpt lat="49.52095" lon="-1.59308">
        <ele>89.4</ele>
        <time>2026-03-30T13:12:49.000Z</time>
      </trkpt>
      <trkpt lat="49.52094" lon="-1.59311">
        <ele>89.6</ele>
        <time>2026-03-30T13:12:50.000Z</time>
      </trkpt>
      <trkpt lat="49.52094" lon="-1.59312">
        <ele>88.8</ele>
        <time>2026-03-30T13:12:51.000Z</time>
      </trkpt>
      <trkpt lat="49.52094" lon="-1.59314">
        <ele>88.7</ele>
        <time>2026-03-30T13:12:52.000Z</time>
      </trkpt>
      <trkpt lat="49.52094" lon="-1.59316">
        <ele>87.8</ele>
        <time>2026-03-30T13:12:53.000Z</time>
      </trkpt>
      <trkpt lat="49.52093" lon="-1.59317">
        <ele>86.3</ele>
        <time>2026-03-30T13:12:54.000Z</time>
      </trkpt>
      <trkpt lat="49.52092" lon="-1.59318">
        <ele>86.2</ele>
        <time>2026-03-30T13:12:55.000Z</time>
      </trkpt>
      <trkpt lat="49.52092" lon="-1.59321">
        <ele>86.5</ele>
        <time>2026-03-30T13:12:56.000Z</time>
      </trkpt>
      <trkpt lat="49.52092" lon="-1.59323">
        <ele>87.7</ele>
        <time>2026-03-30T13:12:57.000Z</time>
      </trkpt>
      <trkpt lat="49.52091" lon="-1.59326">
        <ele>88.1</ele>
        <time>2026-03-30T13:12:58.000Z</time>
      </trkpt>
      <trkpt lat="49.52091" lon="-1.59328">
        <ele>88</ele>
        <time>2026-03-30T13:12:59.000Z</time>
      </trkpt>
      <trkpt lat="49.5209" lon="-1.5933">
        <ele>89.7</ele>
        <time>2026-03-30T13:13:00.000Z</time>
      </trkpt>
      <trkpt lat="49.5209" lon="-1.59332">
        <ele>89.8</ele>
        <time>2026-03-30T13:13:01.000Z</time>
      </trkpt>
      <trkpt lat="49.52089" lon="-1.59334">
        <ele>89.3</ele>
        <time>2026-03-30T13:13:02.000Z</time>
      </trkpt>
      <trkpt lat="49.52089" lon="-1.59336">
        <ele>89.5</ele>
        <time>2026-03-30T13:13:03.000Z</time>
      </trkpt>
      <trkpt lat="49.52089" lon="-1.59338">
        <ele>88.5</ele>
        <time>2026-03-30T13:13:04.000Z</time>
      </trkpt>
      <trkpt lat="49.52089" lon="-1.5934">
        <ele>88.5</ele>
        <time>2026-03-30T13:13:05.000Z</time>
      </trkpt>
      <trkpt lat="49.52088" lon="-1.59341">
        <ele>88.5</ele>
        <time>2026-03-30T13:13:06.000Z</time>
      </trkpt>
      <trkpt lat="49.52088" lon="-1.59344">
        <ele>88.7</ele>
        <time>2026-03-30T13:13:07.000Z</time>
      </trkpt>
      <trkpt lat="49.52088" lon="-1.59346">
        <ele>88.2</ele>
        <time>2026-03-30T13:13:08.000Z</time>
      </trkpt>
      <trkpt lat="49.52088" lon="-1.59349">
        <ele>88.5</ele>
        <time>2026-03-30T13:13:09.000Z</time>
      </trkpt>
      <trkpt lat="49.52088" lon="-1.59351">
        <ele>88.7</ele>
        <time>2026-03-30T13:13:10.000Z</time>
      </trkpt>
      <trkpt lat="49.52088" lon="-1.59352">
        <ele>88.2</ele>
        <time>2026-03-30T13:13:11.000Z</time>
      </trkpt>
      <trkpt lat="49.52088" lon="-1.59354">
        <ele>88.7</ele>
        <time>2026-03-30T13:13:12.000Z</time>
      </trkpt>
      <trkpt lat="49.52088" lon="-1.59356">
        <ele>89.1</ele>
        <time>2026-03-30T13:13:13.000Z</time>
      </trkpt>
      <trkpt lat="49.52088" lon="-1.59358">
        <ele>89.7</ele>
        <time>2026-03-30T13:13:14.000Z</time>
      </trkpt>
      <trkpt lat="49.52087" lon="-1.5936">
        <ele>89</ele>
        <time>2026-03-30T13:13:15.000Z</time>
      </trkpt>
      <trkpt lat="49.52087" lon="-1.59362">
        <ele>88.6</ele>
        <time>2026-03-30T13:13:16.000Z</time>
      </trkpt>
      <trkpt lat="49.52086" lon="-1.59364">
        <ele>88.4</ele>
        <time>2026-03-30T13:13:17.000Z</time>
      </trkpt>
      <trkpt lat="49.52086" lon="-1.59366">
        <ele>87.8</ele>
        <time>2026-03-30T13:13:18.000Z</time>
      </trkpt>
      <trkpt lat="49.52085" lon="-1.59368">
        <ele>88.3</ele>
        <time>2026-03-30T13:13:19.000Z</time>
      </trkpt>
      <trkpt lat="49.52085" lon="-1.5937">
        <ele>89.3</ele>
        <time>2026-03-30T13:13:20.000Z</time>
      </trkpt>
      <trkpt lat="49.52084" lon="-1.59373">
        <ele>89.7</ele>
        <time>2026-03-30T13:13:21.000Z</time>
      </trkpt>
      <trkpt lat="49.52084" lon="-1.59375">
        <ele>90.5</ele>
        <time>2026-03-30T13:13:22.000Z</time>
      </trkpt>
      <trkpt lat="49.52084" lon="-1.59377">
        <ele>90.4</ele>
        <time>2026-03-30T13:13:23.000Z</time>
      </trkpt>
      <trkpt lat="49.52083" lon="-1.59379">
        <ele>90.7</ele>
        <time>2026-03-30T13:13:24.000Z</time>
      </trkpt>
      <trkpt lat="49.52082" lon="-1.59381">
        <ele>90.4</ele>
        <time>2026-03-30T13:13:25.000Z</time>
      </trkpt>
      <trkpt lat="49.52082" lon="-1.59383">
        <ele>90.8</ele>
        <time>2026-03-30T13:13:26.000Z</time>
      </trkpt>
      <trkpt lat="49.52081" lon="-1.59385">
        <ele>90.5</ele>
        <time>2026-03-30T13:13:27.000Z</time>
      </trkpt>
      <trkpt lat="49.5208" lon="-1.59386">
        <ele>89.6</ele>
        <time>2026-03-30T13:13:28.000Z</time>
      </trkpt>
      <trkpt lat="49.52079" lon="-1.59387">
        <ele>90.4</ele>
        <time>2026-03-30T13:13:29.000Z</time>
      </trkpt>
      <trkpt lat="49.52079" lon="-1.5939">
        <ele>91.5</ele>
        <time>2026-03-30T13:13:30.000Z</time>
      </trkpt>
      <trkpt lat="49.52079" lon="-1.59392">
        <ele>91</ele>
        <time>2026-03-30T13:13:31.000Z</time>
      </trkpt>
      <trkpt lat="49.52078" lon="-1.59393">
        <ele>92.3</ele>
        <time>2026-03-30T13:13:32.000Z</time>
      </trkpt>
      <trkpt lat="49.52078" lon="-1.59395">
        <ele>92.3</ele>
        <time>2026-03-30T13:13:33.000Z</time>
      </trkpt>
      <trkpt lat="49.52077" lon="-1.59397">
        <ele>91.8</ele>
        <time>2026-03-30T13:13:34.000Z</time>
      </trkpt>
      <trkpt lat="49.52076" lon="-1.59399">
        <ele>90.7</ele>
        <time>2026-03-30T13:13:35.000Z</time>
      </trkpt>
      <trkpt lat="49.52076" lon="-1.594">
        <ele>90.7</ele>
        <time>2026-03-30T13:13:36.000Z</time>
      </trkpt>
      <trkpt lat="49.52075" lon="-1.59402">
        <ele>90.6</ele>
        <time>2026-03-30T13:13:37.000Z</time>
      </trkpt>
      <trkpt lat="49.52075" lon="-1.59404">
        <ele>91.7</ele>
        <time>2026-03-30T13:13:38.000Z</time>
      </trkpt>
      <trkpt lat="49.52074" lon="-1.59405">
        <ele>92.1</ele>
        <time>2026-03-30T13:13:39.000Z</time>
      </trkpt>
      <trkpt lat="49.52073" lon="-1.59407">
        <ele>91.2</ele>
        <time>2026-03-30T13:13:40.000Z</time>
      </trkpt>
      <trkpt lat="49.52072" lon="-1.59408">
        <ele>91.8</ele>
        <time>2026-03-30T13:13:41.000Z</time>
      </trkpt>
      <trkpt lat="49.52072" lon="-1.59409">
        <ele>92.3</ele>
        <time>2026-03-30T13:13:42.000Z</time>
      </trkpt>
      <trkpt lat="49.52071" lon="-1.59411">
        <ele>92.4</ele>
        <time>2026-03-30T13:13:43.000Z</time>
      </trkpt>
      <trkpt lat="49.52071" lon="-1.59413">
        <ele>93.1</ele>
        <time>2026-03-30T13:13:44.000Z</time>
      </trkpt>
      <trkpt lat="49.5207" lon="-1.59415">
        <ele>94.6</ele>
        <time>2026-03-30T13:13:45.000Z</time>
      </trkpt>
      <trkpt lat="49.5207" lon="-1.59416">
        <ele>94</ele>
        <time>2026-03-30T13:13:46.000Z</time>
      </trkpt>
      <trkpt lat="49.52069" lon="-1.59418">
        <ele>95.1</ele>
        <time>2026-03-30T13:13:47.000Z</time>
      </trkpt>
      <trkpt lat="49.52068" lon="-1.59419">
        <ele>95.6</ele>
        <time>2026-03-30T13:13:48.000Z</time>
      </trkpt>
      <trkpt lat="49.52067" lon="-1.59419">
        <ele>95.7</ele>
        <time>2026-03-30T13:13:49.000Z</time>
      </trkpt>
      <trkpt lat="49.52066" lon="-1.5942">
        <ele>95.8</ele>
        <time>2026-03-30T13:13:50.000Z</time>
      </trkpt>
      <trkpt lat="49.52065" lon="-1.59422">
        <ele>96.3</ele>
        <time>2026-03-30T13:13:51.000Z</time>
      </trkpt>
      <trkpt lat="49.52065" lon="-1.59424">
        <ele>96.4</ele>
        <time>2026-03-30T13:13:52.000Z</time>
      </trkpt>
      <trkpt lat="49.52064" lon="-1.59426">
        <ele>97</ele>
        <time>2026-03-30T13:13:53.000Z</time>
      </trkpt>
      <trkpt lat="49.52064" lon="-1.59428">
        <ele>97</ele>
        <time>2026-03-30T13:13:54.000Z</time>
      </trkpt>
      <trkpt lat="49.52063" lon="-1.59429">
        <ele>97.3</ele>
        <time>2026-03-30T13:13:55.000Z</time>
      </trkpt>
      <trkpt lat="49.52062" lon="-1.5943">
        <ele>97.8</ele>
        <time>2026-03-30T13:13:56.000Z</time>
      </trkpt>
      <trkpt lat="49.52061" lon="-1.59432">
        <ele>97.6</ele>
        <time>2026-03-30T13:13:57.000Z</time>
      </trkpt>
      <trkpt lat="49.52061" lon="-1.59434">
        <ele>97.1</ele>
        <time>2026-03-30T13:13:58.000Z</time>
      </trkpt>
      <trkpt lat="49.52061" lon="-1.59435">
        <ele>97.3</ele>
        <time>2026-03-30T13:13:59.000Z</time>
      </trkpt>
      <trkpt lat="49.5206" lon="-1.59437">
        <ele>96.6</ele>
        <time>2026-03-30T13:14:00.000Z</time>
      </trkpt>
      <trkpt lat="49.5206" lon="-1.59438">
        <ele>97.7</ele>
        <time>2026-03-30T13:14:01.000Z</time>
      </trkpt>
      <trkpt lat="49.52059" lon="-1.59439">
        <ele>97.4</ele>
        <time>2026-03-30T13:14:02.000Z</time>
      </trkpt>
      <trkpt lat="49.52059" lon="-1.59442">
        <ele>96.1</ele>
        <time>2026-03-30T13:14:03.000Z</time>
      </trkpt>
      <trkpt lat="49.52058" lon="-1.59443">
        <ele>96.3</ele>
        <time>2026-03-30T13:14:04.000Z</time>
      </trkpt>
      <trkpt lat="49.52057" lon="-1.59445">
        <ele>96</ele>
        <time>2026-03-30T13:14:05.000Z</time>
      </trkpt>
      <trkpt lat="49.52057" lon="-1.59447">
        <ele>95.9</ele>
        <time>2026-03-30T13:14:06.000Z</time>
      </trkpt>
      <trkpt lat="49.52056" lon="-1.59449">
        <ele>94.6</ele>
        <time>2026-03-30T13:14:07.000Z</time>
      </trkpt>
      <trkpt lat="49.52056" lon="-1.5945">
        <ele>94.4</ele>
        <time>2026-03-30T13:14:08.000Z</time>
      </trkpt>
      <trkpt lat="49.52055" lon="-1.59451">
        <ele>94.1</ele>
        <time>2026-03-30T13:14:09.000Z</time>
      </trkpt>
      <trkpt lat="49.52054" lon="-1.59453">
        <ele>93.3</ele>
        <time>2026-03-30T13:14:10.000Z</time>
      </trkpt>
      <trkpt lat="49.52053" lon="-1.59454">
        <ele>92.9</ele>
        <time>2026-03-30T13:14:11.000Z</time>
      </trkpt>
      <trkpt lat="49.52052" lon="-1.59456">
        <ele>93</ele>
        <time>2026-03-30T13:14:12.000Z</time>
      </trkpt>
      <trkpt lat="49.5205" lon="-1.59458">
        <ele>93.3</ele>
        <time>2026-03-30T13:14:13.000Z</time>
      </trkpt>
      <trkpt lat="49.52049" lon="-1.59459">
        <ele>93.4</ele>
        <time>2026-03-30T13:14:14.000Z</time>
      </trkpt>
      <trkpt lat="49.52049" lon="-1.5946">
        <ele>93.1</ele>
        <time>2026-03-30T13:14:15.000Z</time>
      </trkpt>
      <trkpt lat="49.52048" lon="-1.59462">
        <ele>93.4</ele>
        <time>2026-03-30T13:14:16.000Z</time>
      </trkpt>
      <trkpt lat="49.52047" lon="-1.59463">
        <ele>92.7</ele>
        <time>2026-03-30T13:14:17.000Z</time>
      </trkpt>
      <trkpt lat="49.52047" lon="-1.59464">
        <ele>92.3</ele>
        <time>2026-03-30T13:14:18.000Z</time>
      </trkpt>
      <trkpt lat="49.52045" lon="-1.59465">
        <ele>92.6</ele>
        <time>2026-03-30T13:14:19.000Z</time>
      </trkpt>
      <trkpt lat="49.52045" lon="-1.59467">
        <ele>92.5</ele>
        <time>2026-03-30T13:14:20.000Z</time>
      </trkpt>
      <trkpt lat="49.52044" lon="-1.59469">
        <ele>92.5</ele>
        <time>2026-03-30T13:14:21.000Z</time>
      </trkpt>
      <trkpt lat="49.52043" lon="-1.5947">
        <ele>92.2</ele>
        <time>2026-03-30T13:14:22.000Z</time>
      </trkpt>
      <trkpt lat="49.52042" lon="-1.59472">
        <ele>91.9</ele>
        <time>2026-03-30T13:14:23.000Z</time>
      </trkpt>
      <trkpt lat="49.52041" lon="-1.59473">
        <ele>91.6</ele>
        <time>2026-03-30T13:14:24.000Z</time>
      </trkpt>
      <trkpt lat="49.5204" lon="-1.59474">
        <ele>92.4</ele>
        <time>2026-03-30T13:14:25.000Z</time>
      </trkpt>
      <trkpt lat="49.52039" lon="-1.59476">
        <ele>92.2</ele>
        <time>2026-03-30T13:14:26.000Z</time>
      </trkpt>
      <trkpt lat="49.52037" lon="-1.59477">
        <ele>93</ele>
        <time>2026-03-30T13:14:27.000Z</time>
      </trkpt>
      <trkpt lat="49.52036" lon="-1.59479">
        <ele>93.4</ele>
        <time>2026-03-30T13:14:28.000Z</time>
      </trkpt>
      <trkpt lat="49.52036" lon="-1.5948">
        <ele>91.9</ele>
        <time>2026-03-30T13:14:29.000Z</time>
      </trkpt>
      <trkpt lat="49.52035" lon="-1.59481">
        <ele>92.1</ele>
        <time>2026-03-30T13:14:30.000Z</time>
      </trkpt>
      <trkpt lat="49.52034" lon="-1.59482">
        <ele>92.9</ele>
        <time>2026-03-30T13:14:31.000Z</time>
      </trkpt>
      <trkpt lat="49.52032" lon="-1.59482">
        <ele>92.4</ele>
        <time>2026-03-30T13:14:32.000Z</time>
      </trkpt>
      <trkpt lat="49.52031" lon="-1.59484">
        <ele>91.9</ele>
        <time>2026-03-30T13:14:33.000Z</time>
      </trkpt>
      <trkpt lat="49.5203" lon="-1.59485">
        <ele>92.4</ele>
        <time>2026-03-30T13:14:34.000Z</time>
      </trkpt>
      <trkpt lat="49.52029" lon="-1.59486">
        <ele>92.8</ele>
        <time>2026-03-30T13:14:35.000Z</time>
      </trkpt>
      <trkpt lat="49.52028" lon="-1.59488">
        <ele>92.9</ele>
        <time>2026-03-30T13:14:36.000Z</time>
      </trkpt>
      <trkpt lat="49.52027" lon="-1.59489">
        <ele>92.9</ele>
        <time>2026-03-30T13:14:37.000Z</time>
      </trkpt>
      <trkpt lat="49.52026" lon="-1.59491">
        <ele>92.7</ele>
        <time>2026-03-30T13:14:38.000Z</time>
      </trkpt>
      <trkpt lat="49.52024" lon="-1.59493">
        <ele>93.2</ele>
        <time>2026-03-30T13:14:39.000Z</time>
      </trkpt>
      <trkpt lat="49.52023" lon="-1.59494">
        <ele>92.8</ele>
        <time>2026-03-30T13:14:40.000Z</time>
      </trkpt>
      <trkpt lat="49.52022" lon="-1.59496">
        <ele>93.4</ele>
        <time>2026-03-30T13:14:41.000Z</time>
      </trkpt>
      <trkpt lat="49.52022" lon="-1.59498">
        <ele>93.6</ele>
        <time>2026-03-30T13:14:42.000Z</time>
      </trkpt>
      <trkpt lat="49.52021" lon="-1.59499">
        <ele>93.4</ele>
        <time>2026-03-30T13:14:43.000Z</time>
      </trkpt>
      <trkpt lat="49.5202" lon="-1.59501">
        <ele>93.8</ele>
        <time>2026-03-30T13:14:44.000Z</time>
      </trkpt>
      <trkpt lat="49.52019" lon="-1.59502">
        <ele>94.3</ele>
        <time>2026-03-30T13:14:45.000Z</time>
      </trkpt>
      <trkpt lat="49.52018" lon="-1.59503">
        <ele>94.4</ele>
        <time>2026-03-30T13:14:46.000Z</time>
      </trkpt>
      <trkpt lat="49.52017" lon="-1.59505">
        <ele>94.5</ele>
        <time>2026-03-30T13:14:47.000Z</time>
      </trkpt>
      <trkpt lat="49.52016" lon="-1.59506">
        <ele>95.4</ele>
        <time>2026-03-30T13:14:48.000Z</time>
      </trkpt>
      <trkpt lat="49.52015" lon="-1.59508">
        <ele>95.6</ele>
        <time>2026-03-30T13:14:49.000Z</time>
      </trkpt>
      <trkpt lat="49.52014" lon="-1.5951">
        <ele>94.7</ele>
        <time>2026-03-30T13:14:50.000Z</time>
      </trkpt>
      <trkpt lat="49.52013" lon="-1.59512">
        <ele>94.5</ele>
        <time>2026-03-30T13:14:51.000Z</time>
      </trkpt>
      <trkpt lat="49.52012" lon="-1.59513">
        <ele>94.9</ele>
        <time>2026-03-30T13:14:52.000Z</time>
      </trkpt>
      <trkpt lat="49.52011" lon="-1.59515">
        <ele>95.8</ele>
        <time>2026-03-30T13:14:53.000Z</time>
      </trkpt>
      <trkpt lat="49.5201" lon="-1.59516">
        <ele>95.7</ele>
        <time>2026-03-30T13:14:54.000Z</time>
      </trkpt>
      <trkpt lat="49.52009" lon="-1.59518">
        <ele>95.2</ele>
        <time>2026-03-30T13:14:55.000Z</time>
      </trkpt>
      <trkpt lat="49.52008" lon="-1.5952">
        <ele>94.4</ele>
        <time>2026-03-30T13:14:56.000Z</time>
      </trkpt>
      <trkpt lat="49.52007" lon="-1.5952">
        <ele>93.7</ele>
        <time>2026-03-30T13:14:57.000Z</time>
      </trkpt>
      <trkpt lat="49.52006" lon="-1.59522">
        <ele>93.8</ele>
        <time>2026-03-30T13:14:58.000Z</time>
      </trkpt>
      <trkpt lat="49.52005" lon="-1.59523">
        <ele>93.9</ele>
        <time>2026-03-30T13:14:59.000Z</time>
      </trkpt>
      <trkpt lat="49.52004" lon="-1.59524">
        <ele>94</ele>
        <time>2026-03-30T13:15:00.000Z</time>
      </trkpt>
      <trkpt lat="49.52003" lon="-1.59525">
        <ele>93.4</ele>
        <time>2026-03-30T13:15:01.000Z</time>
      </trkpt>
      <trkpt lat="49.52002" lon="-1.59527">
        <ele>93.6</ele>
        <time>2026-03-30T13:15:02.000Z</time>
      </trkpt>
      <trkpt lat="49.52002" lon="-1.59528">
        <ele>94.4</ele>
        <time>2026-03-30T13:15:03.000Z</time>
      </trkpt>
      <trkpt lat="49.52001" lon="-1.5953">
        <ele>94.4</ele>
        <time>2026-03-30T13:15:04.000Z</time>
      </trkpt>
      <trkpt lat="49.52" lon="-1.59532">
        <ele>95.4</ele>
        <time>2026-03-30T13:15:05.000Z</time>
      </trkpt>
      <trkpt lat="49.51998" lon="-1.59533">
        <ele>95.1</ele>
        <time>2026-03-30T13:15:06.000Z</time>
      </trkpt>
      <trkpt lat="49.51997" lon="-1.59535">
        <ele>95.4</ele>
        <time>2026-03-30T13:15:07.000Z</time>
      </trkpt>
      <trkpt lat="49.51997" lon="-1.59537">
        <ele>95.7</ele>
        <time>2026-03-30T13:15:08.000Z</time>
      </trkpt>
      <trkpt lat="49.51996" lon="-1.59539">
        <ele>95.9</ele>
        <time>2026-03-30T13:15:09.000Z</time>
      </trkpt>
      <trkpt lat="49.51995" lon="-1.5954">
        <ele>95.9</ele>
        <time>2026-03-30T13:15:10.000Z</time>
      </trkpt>
      <trkpt lat="49.51994" lon="-1.59541">
        <ele>96.3</ele>
        <time>2026-03-30T13:15:11.000Z</time>
      </trkpt>
      <trkpt lat="49.51992" lon="-1.59543">
        <ele>95.4</ele>
        <time>2026-03-30T13:15:12.000Z</time>
      </trkpt>
      <trkpt lat="49.51991" lon="-1.59544">
        <ele>95.6</ele>
        <time>2026-03-30T13:15:13.000Z</time>
      </trkpt>
      <trkpt lat="49.5199" lon="-1.59546">
        <ele>95.4</ele>
        <time>2026-03-30T13:15:14.000Z</time>
      </trkpt>
      <trkpt lat="49.51989" lon="-1.59548">
        <ele>95.9</ele>
        <time>2026-03-30T13:15:15.000Z</time>
      </trkpt>
      <trkpt lat="49.51988" lon="-1.5955">
        <ele>96</ele>
        <time>2026-03-30T13:15:16.000Z</time>
      </trkpt>
      <trkpt lat="49.51987" lon="-1.59552">
        <ele>96.4</ele>
        <time>2026-03-30T13:15:17.000Z</time>
      </trkpt>
      <trkpt lat="49.51986" lon="-1.59553">
        <ele>96.6</ele>
        <time>2026-03-30T13:15:18.000Z</time>
      </trkpt>
      <trkpt lat="49.51985" lon="-1.59554">
        <ele>97</ele>
        <time>2026-03-30T13:15:19.000Z</time>
      </trkpt>
      <trkpt lat="49.51984" lon="-1.59556">
        <ele>97.6</ele>
        <time>2026-03-30T13:15:20.000Z</time>
      </trkpt>
      <trkpt lat="49.51983" lon="-1.59557">
        <ele>97.9</ele>
        <time>2026-03-30T13:15:21.000Z</time>
      </trkpt>
      <trkpt lat="49.51982" lon="-1.59559">
        <ele>98.1</ele>
        <time>2026-03-30T13:15:22.000Z</time>
      </trkpt>
      <trkpt lat="49.51981" lon="-1.5956">
        <ele>98.2</ele>
        <time>2026-03-30T13:15:23.000Z</time>
      </trkpt>
      <trkpt lat="49.5198" lon="-1.59561">
        <ele>98.2</ele>
        <time>2026-03-30T13:15:24.000Z</time>
      </trkpt>
      <trkpt lat="49.51979" lon="-1.59562">
        <ele>98.6</ele>
        <time>2026-03-30T13:15:25.000Z</time>
      </trkpt>
      <trkpt lat="49.51978" lon="-1.59564">
        <ele>98.1</ele>
        <time>2026-03-30T13:15:26.000Z</time>
      </trkpt>
      <trkpt lat="49.51977" lon="-1.59564">
        <ele>98</ele>
        <time>2026-03-30T13:15:27.000Z</time>
      </trkpt>
      <trkpt lat="49.51976" lon="-1.59565">
        <ele>98.1</ele>
        <time>2026-03-30T13:15:28.000Z</time>
      </trkpt>
      <trkpt lat="49.51974" lon="-1.59566">
        <ele>97.9</ele>
        <time>2026-03-30T13:15:29.000Z</time>
      </trkpt>
      <trkpt lat="49.51973" lon="-1.59568">
        <ele>97.6</ele>
        <time>2026-03-30T13:15:30.000Z</time>
      </trkpt>
      <trkpt lat="49.51972" lon="-1.59569">
        <ele>97.3</ele>
        <time>2026-03-30T13:15:31.000Z</time>
      </trkpt>
      <trkpt lat="49.51971" lon="-1.5957">
        <ele>97.2</ele>
        <time>2026-03-30T13:15:32.000Z</time>
      </trkpt>
      <trkpt lat="49.5197" lon="-1.59571">
        <ele>97.7</ele>
        <time>2026-03-30T13:15:33.000Z</time>
      </trkpt>
      <trkpt lat="49.51969" lon="-1.59572">
        <ele>98.1</ele>
        <time>2026-03-30T13:15:34.000Z</time>
      </trkpt>
      <trkpt lat="49.51968" lon="-1.59574">
        <ele>98.9</ele>
        <time>2026-03-30T13:15:35.000Z</time>
      </trkpt>
      <trkpt lat="49.51967" lon="-1.59575">
        <ele>99.9</ele>
        <time>2026-03-30T13:15:36.000Z</time>
      </trkpt>
      <trkpt lat="49.51966" lon="-1.59576">
        <ele>100</ele>
        <time>2026-03-30T13:15:37.000Z</time>
      </trkpt>
      <trkpt lat="49.51965" lon="-1.59577">
        <ele>101.4</ele>
        <time>2026-03-30T13:15:38.000Z</time>
      </trkpt>
      <trkpt lat="49.51964" lon="-1.59579">
        <ele>102.1</ele>
        <time>2026-03-30T13:15:39.000Z</time>
      </trkpt>
      <trkpt lat="49.51963" lon="-1.5958">
        <ele>102</ele>
        <time>2026-03-30T13:15:40.000Z</time>
      </trkpt>
      <trkpt lat="49.51962" lon="-1.59581">
        <ele>102</ele>
        <time>2026-03-30T13:15:41.000Z</time>
      </trkpt>
      <trkpt lat="49.5196" lon="-1.59583">
        <ele>101.9</ele>
        <time>2026-03-30T13:15:42.000Z</time>
      </trkpt>
      <trkpt lat="49.51959" lon="-1.59584">
        <ele>100.6</ele>
        <time>2026-03-30T13:15:43.000Z</time>
      </trkpt>
      <trkpt lat="49.51958" lon="-1.59585">
        <ele>100.7</ele>
        <time>2026-03-30T13:15:44.000Z</time>
      </trkpt>
      <trkpt lat="49.51957" lon="-1.59586">
        <ele>100.9</ele>
        <time>2026-03-30T13:15:45.000Z</time>
      </trkpt>
      <trkpt lat="49.51956" lon="-1.59587">
        <ele>101.1</ele>
        <time>2026-03-30T13:15:46.000Z</time>
      </trkpt>
      <trkpt lat="49.51955" lon="-1.59589">
        <ele>101.1</ele>
        <time>2026-03-30T13:15:47.000Z</time>
      </trkpt>
      <trkpt lat="49.51954" lon="-1.5959">
        <ele>101.1</ele>
        <time>2026-03-30T13:15:48.000Z</time>
      </trkpt>
      <trkpt lat="49.51953" lon="-1.59591">
        <ele>101.4</ele>
        <time>2026-03-30T13:15:49.000Z</time>
      </trkpt>
      <trkpt lat="49.51952" lon="-1.59593">
        <ele>101.3</ele>
        <time>2026-03-30T13:15:50.000Z</time>
      </trkpt>
      <trkpt lat="49.5195" lon="-1.59593">
        <ele>100.6</ele>
        <time>2026-03-30T13:15:51.000Z</time>
      </trkpt>
      <trkpt lat="49.51949" lon="-1.59595">
        <ele>101.1</ele>
        <time>2026-03-30T13:15:52.000Z</time>
      </trkpt>
      <trkpt lat="49.51948" lon="-1.59596">
        <ele>101.3</ele>
        <time>2026-03-30T13:15:53.000Z</time>
      </trkpt>
      <trkpt lat="49.51947" lon="-1.59597">
        <ele>101.7</ele>
        <time>2026-03-30T13:15:54.000Z</time>
      </trkpt>
      <trkpt lat="49.51946" lon="-1.59599">
        <ele>102.5</ele>
        <time>2026-03-30T13:15:55.000Z</time>
      </trkpt>
      <trkpt lat="49.51946" lon="-1.59602">
        <ele>104.6</ele>
        <time>2026-03-30T13:15:56.000Z</time>
      </trkpt>
      <trkpt lat="49.51946" lon="-1.59604">
        <ele>106.2</ele>
        <time>2026-03-30T13:15:57.000Z</time>
      </trkpt>
      <trkpt lat="49.51945" lon="-1.59605">
        <ele>106.9</ele>
        <time>2026-03-30T13:15:58.000Z</time>
      </trkpt>
      <trkpt lat="49.51943" lon="-1.59606">
        <ele>107.5</ele>
        <time>2026-03-30T13:15:59.000Z</time>
      </trkpt>
      <trkpt lat="49.51942" lon="-1.59607">
        <ele>107.2</ele>
        <time>2026-03-30T13:16:00.000Z</time>
      </trkpt>
      <trkpt lat="49.51941" lon="-1.59608">
        <ele>107.6</ele>
        <time>2026-03-30T13:16:01.000Z</time>
      </trkpt>
      <trkpt lat="49.51939" lon="-1.59609">
        <ele>107.4</ele>
        <time>2026-03-30T13:16:02.000Z</time>
      </trkpt>
      <trkpt lat="49.51938" lon="-1.5961">
        <ele>107.6</ele>
        <time>2026-03-30T13:16:03.000Z</time>
      </trkpt>
      <trkpt lat="49.51937" lon="-1.59611">
        <ele>108</ele>
        <time>2026-03-30T13:16:04.000Z</time>
      </trkpt>
      <trkpt lat="49.51936" lon="-1.59612">
        <ele>108</ele>
        <time>2026-03-30T13:16:05.000Z</time>
      </trkpt>
      <trkpt lat="49.51935" lon="-1.59613">
        <ele>108.1</ele>
        <time>2026-03-30T13:16:06.000Z</time>
      </trkpt>
      <trkpt lat="49.51933" lon="-1.59613">
        <ele>107.9</ele>
        <time>2026-03-30T13:16:07.000Z</time>
      </trkpt>
      <trkpt lat="49.51932" lon="-1.59614">
        <ele>108</ele>
        <time>2026-03-30T13:16:08.000Z</time>
      </trkpt>
      <trkpt lat="49.51931" lon="-1.59616">
        <ele>108.4</ele>
        <time>2026-03-30T13:16:09.000Z</time>
      </trkpt>
      <trkpt lat="49.5193" lon="-1.59617">
        <ele>108.7</ele>
        <time>2026-03-30T13:16:10.000Z</time>
      </trkpt>
      <trkpt lat="49.51929" lon="-1.59618">
        <ele>108.2</ele>
        <time>2026-03-30T13:16:11.000Z</time>
      </trkpt>
      <trkpt lat="49.51928" lon="-1.59619">
        <ele>108</ele>
        <time>2026-03-30T13:16:12.000Z</time>
      </trkpt>
      <trkpt lat="49.51926" lon="-1.5962">
        <ele>107.6</ele>
        <time>2026-03-30T13:16:13.000Z</time>
      </trkpt>
      <trkpt lat="49.51925" lon="-1.59621">
        <ele>106.7</ele>
        <time>2026-03-30T13:16:14.000Z</time>
      </trkpt>
      <trkpt lat="49.51924" lon="-1.59622">
        <ele>106.6</ele>
        <time>2026-03-30T13:16:15.000Z</time>
      </trkpt>
      <trkpt lat="49.51923" lon="-1.59623">
        <ele>106.2</ele>
        <time>2026-03-30T13:16:16.000Z</time>
      </trkpt>
      <trkpt lat="49.51921" lon="-1.59624">
        <ele>106.3</ele>
        <time>2026-03-30T13:16:17.000Z</time>
      </trkpt>
      <trkpt lat="49.5192" lon="-1.59625">
        <ele>106.8</ele>
        <time>2026-03-30T13:16:18.000Z</time>
      </trkpt>
      <trkpt lat="49.51919" lon="-1.59627">
        <ele>106.1</ele>
        <time>2026-03-30T13:16:19.000Z</time>
      </trkpt>
      <trkpt lat="49.51918" lon="-1.59627">
        <ele>105.9</ele>
        <time>2026-03-30T13:16:20.000Z</time>
      </trkpt>
      <trkpt lat="49.51917" lon="-1.59628">
        <ele>104.7</ele>
        <time>2026-03-30T13:16:21.000Z</time>
      </trkpt>
      <trkpt lat="49.51915" lon="-1.59629">
        <ele>104.1</ele>
        <time>2026-03-30T13:16:22.000Z</time>
      </trkpt>
      <trkpt lat="49.51914" lon="-1.59629">
        <ele>104.5</ele>
        <time>2026-03-30T13:16:23.000Z</time>
      </trkpt>
      <trkpt lat="49.51913" lon="-1.5963">
        <ele>104.6</ele>
        <time>2026-03-30T13:16:24.000Z</time>
      </trkpt>
      <trkpt lat="49.51912" lon="-1.59631">
        <ele>104.3</ele>
        <time>2026-03-30T13:16:25.000Z</time>
      </trkpt>
      <trkpt lat="49.5191" lon="-1.59632">
        <ele>104.1</ele>
        <time>2026-03-30T13:16:26.000Z</time>
      </trkpt>
      <trkpt lat="49.51909" lon="-1.59632">
        <ele>103.4</ele>
        <time>2026-03-30T13:16:27.000Z</time>
      </trkpt>
      <trkpt lat="49.51908" lon="-1.59633">
        <ele>103.5</ele>
        <time>2026-03-30T13:16:28.000Z</time>
      </trkpt>
      <trkpt lat="49.51907" lon="-1.59634">
        <ele>103.5</ele>
        <time>2026-03-30T13:16:29.000Z</time>
      </trkpt>
      <trkpt lat="49.51905" lon="-1.59634">
        <ele>103.7</ele>
        <time>2026-03-30T13:16:30.000Z</time>
      </trkpt>
      <trkpt lat="49.51904" lon="-1.59634">
        <ele>104.1</ele>
        <time>2026-03-30T13:16:31.000Z</time>
      </trkpt>
      <trkpt lat="49.51903" lon="-1.59635">
        <ele>104.1</ele>
        <time>2026-03-30T13:16:32.000Z</time>
      </trkpt>
      <trkpt lat="49.51902" lon="-1.59636">
        <ele>102.8</ele>
        <time>2026-03-30T13:16:33.000Z</time>
      </trkpt>
      <trkpt lat="49.51901" lon="-1.59636">
        <ele>102.5</ele>
        <time>2026-03-30T13:16:34.000Z</time>
      </trkpt>
      <trkpt lat="49.519" lon="-1.59636">
        <ele>102.1</ele>
        <time>2026-03-30T13:16:35.000Z</time>
      </trkpt>
      <trkpt lat="49.51899" lon="-1.59637">
        <ele>101.2</ele>
        <time>2026-03-30T13:16:36.000Z</time>
      </trkpt>
      <trkpt lat="49.51898" lon="-1.59637">
        <ele>101</ele>
        <time>2026-03-30T13:16:37.000Z</time>
      </trkpt>
      <trkpt lat="49.51896" lon="-1.59638">
        <ele>100.9</ele>
        <time>2026-03-30T13:16:38.000Z</time>
      </trkpt>
      <trkpt lat="49.51895" lon="-1.59638">
        <ele>101.9</ele>
        <time>2026-03-30T13:16:39.000Z</time>
      </trkpt>
      <trkpt lat="49.51894" lon="-1.59639">
        <ele>102.1</ele>
        <time>2026-03-30T13:16:40.000Z</time>
      </trkpt>
      <trkpt lat="49.51892" lon="-1.59639">
        <ele>103.4</ele>
        <time>2026-03-30T13:16:41.000Z</time>
      </trkpt>
      <trkpt lat="49.51891" lon="-1.5964">
        <ele>103.3</ele>
        <time>2026-03-30T13:16:42.000Z</time>
      </trkpt>
      <trkpt lat="49.5189" lon="-1.59642">
        <ele>102.8</ele>
        <time>2026-03-30T13:16:43.000Z</time>
      </trkpt>
      <trkpt lat="49.51888" lon="-1.59643">
        <ele>102.3</ele>
        <time>2026-03-30T13:16:44.000Z</time>
      </trkpt>
      <trkpt lat="49.51887" lon="-1.59644">
        <ele>101.7</ele>
        <time>2026-03-30T13:16:45.000Z</time>
      </trkpt>
      <trkpt lat="49.51886" lon="-1.59644">
        <ele>102.3</ele>
        <time>2026-03-30T13:16:46.000Z</time>
      </trkpt>
      <trkpt lat="49.51884" lon="-1.59645">
        <ele>102.7</ele>
        <time>2026-03-30T13:16:47.000Z</time>
      </trkpt>
      <trkpt lat="49.51883" lon="-1.59645">
        <ele>103.6</ele>
        <time>2026-03-30T13:16:48.000Z</time>
      </trkpt>
      <trkpt lat="49.51882" lon="-1.59646">
        <ele>103.7</ele>
        <time>2026-03-30T13:16:49.000Z</time>
      </trkpt>
      <trkpt lat="49.51881" lon="-1.59646">
        <ele>103</ele>
        <time>2026-03-30T13:16:50.000Z</time>
      </trkpt>
      <trkpt lat="49.51879" lon="-1.59647">
        <ele>102.9</ele>
        <time>2026-03-30T13:16:51.000Z</time>
      </trkpt>
      <trkpt lat="49.51878" lon="-1.59647">
        <ele>102.8</ele>
        <time>2026-03-30T13:16:52.000Z</time>
      </trkpt>
      <trkpt lat="49.51877" lon="-1.59648">
        <ele>102.3</ele>
        <time>2026-03-30T13:16:53.000Z</time>
      </trkpt>
      <trkpt lat="49.51875" lon="-1.59649">
        <ele>101.8</ele>
        <time>2026-03-30T13:16:54.000Z</time>
      </trkpt>
      <trkpt lat="49.51874" lon="-1.5965">
        <ele>101.4</ele>
        <time>2026-03-30T13:16:55.000Z</time>
      </trkpt>
      <trkpt lat="49.51873" lon="-1.59651">
        <ele>100.9</ele>
        <time>2026-03-30T13:16:56.000Z</time>
      </trkpt>
      <trkpt lat="49.51871" lon="-1.59652">
        <ele>100.4</ele>
        <time>2026-03-30T13:16:57.000Z</time>
      </trkpt>
      <trkpt lat="49.5187" lon="-1.59653">
        <ele>101.7</ele>
        <time>2026-03-30T13:16:58.000Z</time>
      </trkpt>
      <trkpt lat="49.51868" lon="-1.59655">
        <ele>101.8</ele>
        <time>2026-03-30T13:16:59.000Z</time>
      </trkpt>
      <trkpt lat="49.51867" lon="-1.59656">
        <ele>102.1</ele>
        <time>2026-03-30T13:17:00.000Z</time>
      </trkpt>
      <trkpt lat="49.51865" lon="-1.59657">
        <ele>102.3</ele>
        <time>2026-03-30T13:17:01.000Z</time>
      </trkpt>
      <trkpt lat="49.51863" lon="-1.59658">
        <ele>102.5</ele>
        <time>2026-03-30T13:17:02.000Z</time>
      </trkpt>
      <trkpt lat="49.51862" lon="-1.59659">
        <ele>101.7</ele>
        <time>2026-03-30T13:17:03.000Z</time>
      </trkpt>
      <trkpt lat="49.51861" lon="-1.5966">
        <ele>101.7</ele>
        <time>2026-03-30T13:17:04.000Z</time>
      </trkpt>
      <trkpt lat="49.51859" lon="-1.59661">
        <ele>101.5</ele>
        <time>2026-03-30T13:17:05.000Z</time>
      </trkpt>
      <trkpt lat="49.51858" lon="-1.59662">
        <ele>101.6</ele>
        <time>2026-03-30T13:17:06.000Z</time>
      </trkpt>
      <trkpt lat="49.51857" lon="-1.59663">
        <ele>101.3</ele>
        <time>2026-03-30T13:17:07.000Z</time>
      </trkpt>
      <trkpt lat="49.51855" lon="-1.59663">
        <ele>101.2</ele>
        <time>2026-03-30T13:17:08.000Z</time>
      </trkpt>
      <trkpt lat="49.51855" lon="-1.59665">
        <ele>100.9</ele>
        <time>2026-03-30T13:17:09.000Z</time>
      </trkpt>
      <trkpt lat="49.51854" lon="-1.59667">
        <ele>100.3</ele>
        <time>2026-03-30T13:17:10.000Z</time>
      </trkpt>
      <trkpt lat="49.51853" lon="-1.59667">
        <ele>95.7</ele>
        <time>2026-03-30T13:17:11.000Z</time>
      </trkpt>
      <trkpt lat="49.51853" lon="-1.59667">
        <ele>94</ele>
        <time>2026-03-30T13:17:12.000Z</time>
      </trkpt>
      <trkpt lat="49.51853" lon="-1.59668">
        <ele>93.6</ele>
        <time>2026-03-30T13:17:13.000Z</time>
      </trkpt>
      <trkpt lat="49.51852" lon="-1.59668">
        <ele>93.8</ele>
        <time>2026-03-30T13:17:14.000Z</time>
      </trkpt>
      <trkpt lat="49.51851" lon="-1.59669">
        <ele>94.2</ele>
        <time>2026-03-30T13:17:15.000Z</time>
      </trkpt>
      <trkpt lat="49.5185" lon="-1.5967">
        <ele>95.3</ele>
        <time>2026-03-30T13:17:16.000Z</time>
      </trkpt>
      <trkpt lat="49.51849" lon="-1.5967">
        <ele>94.6</ele>
        <time>2026-03-30T13:17:17.000Z</time>
      </trkpt>
      <trkpt lat="49.51848" lon="-1.59671">
        <ele>94.6</ele>
        <time>2026-03-30T13:17:18.000Z</time>
      </trkpt>
      <trkpt lat="49.51846" lon="-1.59672">
        <ele>93.7</ele>
        <time>2026-03-30T13:17:19.000Z</time>
      </trkpt>
      <trkpt lat="49.51845" lon="-1.59672">
        <ele>93.4</ele>
        <time>2026-03-30T13:17:20.000Z</time>
      </trkpt>
      <trkpt lat="49.51844" lon="-1.59673">
        <ele>92.7</ele>
        <time>2026-03-30T13:17:21.000Z</time>
      </trkpt>
      <trkpt lat="49.51843" lon="-1.59674">
        <ele>92.9</ele>
        <time>2026-03-30T13:17:22.000Z</time>
      </trkpt>
      <trkpt lat="49.51841" lon="-1.59674">
        <ele>93.4</ele>
        <time>2026-03-30T13:17:23.000Z</time>
      </trkpt>
      <trkpt lat="49.5184" lon="-1.59675">
        <ele>94.2</ele>
        <time>2026-03-30T13:17:24.000Z</time>
      </trkpt>
      <trkpt lat="49.51839" lon="-1.59676">
        <ele>94.1</ele>
        <time>2026-03-30T13:17:25.000Z</time>
      </trkpt>
      <trkpt lat="49.51837" lon="-1.59677">
        <ele>94.1</ele>
        <time>2026-03-30T13:17:26.000Z</time>
      </trkpt>
      <trkpt lat="49.51836" lon="-1.59678">
        <ele>93.9</ele>
        <time>2026-03-30T13:17:27.000Z</time>
      </trkpt>
      <trkpt lat="49.51835" lon="-1.59679">
        <ele>93.8</ele>
        <time>2026-03-30T13:17:28.000Z</time>
      </trkpt>
      <trkpt lat="49.51834" lon="-1.5968">
        <ele>93.8</ele>
        <time>2026-03-30T13:17:29.000Z</time>
      </trkpt>
      <trkpt lat="49.51833" lon="-1.59681">
        <ele>94.1</ele>
        <time>2026-03-30T13:17:30.000Z</time>
      </trkpt>
      <trkpt lat="49.51831" lon="-1.59682">
        <ele>94.5</ele>
        <time>2026-03-30T13:17:31.000Z</time>
      </trkpt>
      <trkpt lat="49.5183" lon="-1.59684">
        <ele>94.6</ele>
        <time>2026-03-30T13:17:32.000Z</time>
      </trkpt>
      <trkpt lat="49.51829" lon="-1.59685">
        <ele>94.9</ele>
        <time>2026-03-30T13:17:33.000Z</time>
      </trkpt>
      <trkpt lat="49.51828" lon="-1.59686">
        <ele>95.6</ele>
        <time>2026-03-30T13:17:34.000Z</time>
      </trkpt>
      <trkpt lat="49.51827" lon="-1.59687">
        <ele>95.7</ele>
        <time>2026-03-30T13:17:35.000Z</time>
      </trkpt>
      <trkpt lat="49.51825" lon="-1.59688">
        <ele>96</ele>
        <time>2026-03-30T13:17:36.000Z</time>
      </trkpt>
      <trkpt lat="49.51824" lon="-1.59689">
        <ele>96.1</ele>
        <time>2026-03-30T13:17:37.000Z</time>
      </trkpt>
      <trkpt lat="49.51823" lon="-1.5969">
        <ele>96.5</ele>
        <time>2026-03-30T13:17:38.000Z</time>
      </trkpt>
      <trkpt lat="49.51821" lon="-1.59691">
        <ele>96.2</ele>
        <time>2026-03-30T13:17:39.000Z</time>
      </trkpt>
      <trkpt lat="49.5182" lon="-1.59692">
        <ele>96.1</ele>
        <time>2026-03-30T13:17:40.000Z</time>
      </trkpt>
      <trkpt lat="49.51819" lon="-1.59693">
        <ele>96.3</ele>
        <time>2026-03-30T13:17:41.000Z</time>
      </trkpt>
      <trkpt lat="49.51817" lon="-1.59694">
        <ele>97.3</ele>
        <time>2026-03-30T13:17:42.000Z</time>
      </trkpt>
      <trkpt lat="49.51816" lon="-1.59695">
        <ele>97.9</ele>
        <time>2026-03-30T13:17:43.000Z</time>
      </trkpt>
      <trkpt lat="49.51815" lon="-1.59696">
        <ele>98.6</ele>
        <time>2026-03-30T13:17:44.000Z</time>
      </trkpt>
      <trkpt lat="49.51814" lon="-1.59697">
        <ele>98.8</ele>
        <time>2026-03-30T13:17:45.000Z</time>
      </trkpt>
      <trkpt lat="49.51813" lon="-1.59699">
        <ele>99.2</ele>
        <time>2026-03-30T13:17:46.000Z</time>
      </trkpt>
      <trkpt lat="49.51811" lon="-1.597">
        <ele>99.5</ele>
        <time>2026-03-30T13:17:47.000Z</time>
      </trkpt>
      <trkpt lat="49.5181" lon="-1.59701">
        <ele>99.3</ele>
        <time>2026-03-30T13:17:48.000Z</time>
      </trkpt>
      <trkpt lat="49.51809" lon="-1.59702">
        <ele>100.6</ele>
        <time>2026-03-30T13:17:49.000Z</time>
      </trkpt>
      <trkpt lat="49.51808" lon="-1.59703">
        <ele>101.6</ele>
        <time>2026-03-30T13:17:50.000Z</time>
      </trkpt>
      <trkpt lat="49.51806" lon="-1.59704">
        <ele>101.9</ele>
        <time>2026-03-30T13:17:51.000Z</time>
      </trkpt>
      <trkpt lat="49.51805" lon="-1.59705">
        <ele>101.4</ele>
        <time>2026-03-30T13:17:52.000Z</time>
      </trkpt>
      <trkpt lat="49.51804" lon="-1.59706">
        <ele>101.5</ele>
        <time>2026-03-30T13:17:53.000Z</time>
      </trkpt>
      <trkpt lat="49.51803" lon="-1.59707">
        <ele>101.3</ele>
        <time>2026-03-30T13:17:54.000Z</time>
      </trkpt>
      <trkpt lat="49.51802" lon="-1.59709">
        <ele>101.9</ele>
        <time>2026-03-30T13:17:55.000Z</time>
      </trkpt>
      <trkpt lat="49.51801" lon="-1.5971">
        <ele>101.6</ele>
        <time>2026-03-30T13:17:56.000Z</time>
      </trkpt>
      <trkpt lat="49.51799" lon="-1.59711">
        <ele>101.9</ele>
        <time>2026-03-30T13:17:57.000Z</time>
      </trkpt>
      <trkpt lat="49.51798" lon="-1.59712">
        <ele>102.5</ele>
        <time>2026-03-30T13:17:58.000Z</time>
      </trkpt>
      <trkpt lat="49.51797" lon="-1.59713">
        <ele>102.5</ele>
        <time>2026-03-30T13:17:59.000Z</time>
      </trkpt>
      <trkpt lat="49.51796" lon="-1.59715">
        <ele>102.3</ele>
        <time>2026-03-30T13:18:00.000Z</time>
      </trkpt>
      <trkpt lat="49.51795" lon="-1.59717">
        <ele>104.6</ele>
        <time>2026-03-30T13:18:01.000Z</time>
      </trkpt>
      <trkpt lat="49.51794" lon="-1.59718">
        <ele>105.1</ele>
        <time>2026-03-30T13:18:02.000Z</time>
      </trkpt>
      <trkpt lat="49.51793" lon="-1.59719">
        <ele>104.9</ele>
        <time>2026-03-30T13:18:03.000Z</time>
      </trkpt>
      <trkpt lat="49.51792" lon="-1.5972">
        <ele>105.1</ele>
        <time>2026-03-30T13:18:04.000Z</time>
      </trkpt>
      <trkpt lat="49.51791" lon="-1.59721">
        <ele>104.9</ele>
        <time>2026-03-30T13:18:05.000Z</time>
      </trkpt>
      <trkpt lat="49.5179" lon="-1.59722">
        <ele>104.5</ele>
        <time>2026-03-30T13:18:06.000Z</time>
      </trkpt>
      <trkpt lat="49.51789" lon="-1.59723">
        <ele>104.2</ele>
        <time>2026-03-30T13:18:07.000Z</time>
      </trkpt>
      <trkpt lat="49.51787" lon="-1.59724">
        <ele>104</ele>
        <time>2026-03-30T13:18:08.000Z</time>
      </trkpt>
      <trkpt lat="49.51786" lon="-1.59725">
        <ele>103.7</ele>
        <time>2026-03-30T13:18:09.000Z</time>
      </trkpt>
      <trkpt lat="49.51785" lon="-1.59727">
        <ele>104</ele>
        <time>2026-03-30T13:18:10.000Z</time>
      </trkpt>
      <trkpt lat="49.51784" lon="-1.59728">
        <ele>103.2</ele>
        <time>2026-03-30T13:18:11.000Z</time>
      </trkpt>
      <trkpt lat="49.51783" lon="-1.59729">
        <ele>103.2</ele>
        <time>2026-03-30T13:18:12.000Z</time>
      </trkpt>
      <trkpt lat="49.51782" lon="-1.5973">
        <ele>103.7</ele>
        <time>2026-03-30T13:18:13.000Z</time>
      </trkpt>
      <trkpt lat="49.5178" lon="-1.59731">
        <ele>103.8</ele>
        <time>2026-03-30T13:18:14.000Z</time>
      </trkpt>
      <trkpt lat="49.51779" lon="-1.59732">
        <ele>103.5</ele>
        <time>2026-03-30T13:18:15.000Z</time>
      </trkpt>
      <trkpt lat="49.51778" lon="-1.59733">
        <ele>103</ele>
        <time>2026-03-30T13:18:16.000Z</time>
      </trkpt>
      <trkpt lat="49.51776" lon="-1.59734">
        <ele>102.9</ele>
        <time>2026-03-30T13:18:17.000Z</time>
      </trkpt>
      <trkpt lat="49.51775" lon="-1.59735">
        <ele>102.3</ele>
        <time>2026-03-30T13:18:18.000Z</time>
      </trkpt>
      <trkpt lat="49.51774" lon="-1.59736">
        <ele>101.9</ele>
        <time>2026-03-30T13:18:19.000Z</time>
      </trkpt>
      <trkpt lat="49.51773" lon="-1.59737">
        <ele>101.6</ele>
        <time>2026-03-30T13:18:20.000Z</time>
      </trkpt>
      <trkpt lat="49.51772" lon="-1.59738">
        <ele>101.9</ele>
        <time>2026-03-30T13:18:21.000Z</time>
      </trkpt>
      <trkpt lat="49.51771" lon="-1.59739">
        <ele>101.3</ele>
        <time>2026-03-30T13:18:22.000Z</time>
      </trkpt>
      <trkpt lat="49.51769" lon="-1.5974">
        <ele>101.5</ele>
        <time>2026-03-30T13:18:23.000Z</time>
      </trkpt>
      <trkpt lat="49.51768" lon="-1.5974">
        <ele>101.7</ele>
        <time>2026-03-30T13:18:24.000Z</time>
      </trkpt>
      <trkpt lat="49.51767" lon="-1.59742">
        <ele>102.2</ele>
        <time>2026-03-30T13:18:25.000Z</time>
      </trkpt>
      <trkpt lat="49.51766" lon="-1.59743">
        <ele>102.4</ele>
        <time>2026-03-30T13:18:26.000Z</time>
      </trkpt>
      <trkpt lat="49.51765" lon="-1.59744">
        <ele>102.4</ele>
        <time>2026-03-30T13:18:27.000Z</time>
      </trkpt>
      <trkpt lat="49.51763" lon="-1.59745">
        <ele>102</ele>
        <time>2026-03-30T13:18:28.000Z</time>
      </trkpt>
      <trkpt lat="49.51762" lon="-1.59746">
        <ele>101.2</ele>
        <time>2026-03-30T13:18:29.000Z</time>
      </trkpt>
      <trkpt lat="49.51761" lon="-1.59748">
        <ele>100.8</ele>
        <time>2026-03-30T13:18:30.000Z</time>
      </trkpt>
      <trkpt lat="49.51759" lon="-1.59749">
        <ele>100.4</ele>
        <time>2026-03-30T13:18:31.000Z</time>
      </trkpt>
      <trkpt lat="49.51758" lon="-1.5975">
        <ele>100.5</ele>
        <time>2026-03-30T13:18:32.000Z</time>
      </trkpt>
      <trkpt lat="49.51757" lon="-1.59751">
        <ele>100.2</ele>
        <time>2026-03-30T13:18:33.000Z</time>
      </trkpt>
      <trkpt lat="49.51756" lon="-1.59752">
        <ele>100.5</ele>
        <time>2026-03-30T13:18:34.000Z</time>
      </trkpt>
      <trkpt lat="49.51754" lon="-1.59754">
        <ele>100.8</ele>
        <time>2026-03-30T13:18:35.000Z</time>
      </trkpt>
      <trkpt lat="49.51753" lon="-1.59755">
        <ele>100.8</ele>
        <time>2026-03-30T13:18:36.000Z</time>
      </trkpt>
      <trkpt lat="49.51752" lon="-1.59756">
        <ele>100.3</ele>
        <time>2026-03-30T13:18:37.000Z</time>
      </trkpt>
      <trkpt lat="49.51751" lon="-1.59757">
        <ele>100.2</ele>
        <time>2026-03-30T13:18:38.000Z</time>
      </trkpt>
      <trkpt lat="49.5175" lon="-1.59757">
        <ele>99.4</ele>
        <time>2026-03-30T13:18:39.000Z</time>
      </trkpt>
      <trkpt lat="49.51749" lon="-1.59758">
        <ele>99.5</ele>
        <time>2026-03-30T13:18:40.000Z</time>
      </trkpt>
      <trkpt lat="49.51748" lon="-1.59759">
        <ele>99.5</ele>
        <time>2026-03-30T13:18:41.000Z</time>
      </trkpt>
      <trkpt lat="49.51747" lon="-1.59761">
        <ele>100</ele>
        <time>2026-03-30T13:18:42.000Z</time>
      </trkpt>
      <trkpt lat="49.51745" lon="-1.59762">
        <ele>100.3</ele>
        <time>2026-03-30T13:18:43.000Z</time>
      </trkpt>
      <trkpt lat="49.51744" lon="-1.59763">
        <ele>100.8</ele>
        <time>2026-03-30T13:18:44.000Z</time>
      </trkpt>
      <trkpt lat="49.51743" lon="-1.59765">
        <ele>100.4</ele>
        <time>2026-03-30T13:18:45.000Z</time>
      </trkpt>
      <trkpt lat="49.51742" lon="-1.59766">
        <ele>100</ele>
        <time>2026-03-30T13:18:46.000Z</time>
      </trkpt>
      <trkpt lat="49.51741" lon="-1.59767">
        <ele>99.1</ele>
        <time>2026-03-30T13:18:47.000Z</time>
      </trkpt>
      <trkpt lat="49.5174" lon="-1.59769">
        <ele>98.6</ele>
        <time>2026-03-30T13:18:48.000Z</time>
      </trkpt>
      <trkpt lat="49.51739" lon="-1.5977">
        <ele>98.9</ele>
        <time>2026-03-30T13:18:49.000Z</time>
      </trkpt>
      <trkpt lat="49.51738" lon="-1.59772">
        <ele>99.6</ele>
        <time>2026-03-30T13:18:50.000Z</time>
      </trkpt>
      <trkpt lat="49.51737" lon="-1.59773">
        <ele>100</ele>
        <time>2026-03-30T13:18:51.000Z</time>
      </trkpt>
      <trkpt lat="49.51736" lon="-1.59774">
        <ele>100.6</ele>
        <time>2026-03-30T13:18:52.000Z</time>
      </trkpt>
      <trkpt lat="49.51735" lon="-1.59776">
        <ele>100.7</ele>
        <time>2026-03-30T13:18:53.000Z</time>
      </trkpt>
      <trkpt lat="49.51733" lon="-1.59777">
        <ele>100.4</ele>
        <time>2026-03-30T13:18:54.000Z</time>
      </trkpt>
      <trkpt lat="49.51732" lon="-1.59778">
        <ele>100</ele>
        <time>2026-03-30T13:18:55.000Z</time>
      </trkpt>
      <trkpt lat="49.51731" lon="-1.5978">
        <ele>99.7</ele>
        <time>2026-03-30T13:18:56.000Z</time>
      </trkpt>
      <trkpt lat="49.5173" lon="-1.59781">
        <ele>99.8</ele>
        <time>2026-03-30T13:18:57.000Z</time>
      </trkpt>
      <trkpt lat="49.51729" lon="-1.59783">
        <ele>99.9</ele>
        <time>2026-03-30T13:18:58.000Z</time>
      </trkpt>
      <trkpt lat="49.51728" lon="-1.59784">
        <ele>100.1</ele>
        <time>2026-03-30T13:18:59.000Z</time>
      </trkpt>
      <trkpt lat="49.51727" lon="-1.59785">
        <ele>99.9</ele>
        <time>2026-03-30T13:19:00.000Z</time>
      </trkpt>
      <trkpt lat="49.51726" lon="-1.59787">
        <ele>100.1</ele>
        <time>2026-03-30T13:19:01.000Z</time>
      </trkpt>
      <trkpt lat="49.51725" lon="-1.59788">
        <ele>100.6</ele>
        <time>2026-03-30T13:19:02.000Z</time>
      </trkpt>
      <trkpt lat="49.51724" lon="-1.5979">
        <ele>102</ele>
        <time>2026-03-30T13:19:03.000Z</time>
      </trkpt>
      <trkpt lat="49.51722" lon="-1.5979">
        <ele>102.7</ele>
        <time>2026-03-30T13:19:04.000Z</time>
      </trkpt>
      <trkpt lat="49.51721" lon="-1.59791">
        <ele>102.9</ele>
        <time>2026-03-30T13:19:05.000Z</time>
      </trkpt>
      <trkpt lat="49.5172" lon="-1.59793">
        <ele>102.5</ele>
        <time>2026-03-30T13:19:06.000Z</time>
      </trkpt>
      <trkpt lat="49.5172" lon="-1.59794">
        <ele>102.2</ele>
        <time>2026-03-30T13:19:07.000Z</time>
      </trkpt>
      <trkpt lat="49.51719" lon="-1.59796">
        <ele>101.9</ele>
        <time>2026-03-30T13:19:08.000Z</time>
      </trkpt>
      <trkpt lat="49.51718" lon="-1.59797">
        <ele>102</ele>
        <time>2026-03-30T13:19:09.000Z</time>
      </trkpt>
      <trkpt lat="49.51717" lon="-1.59798">
        <ele>102.5</ele>
        <time>2026-03-30T13:19:10.000Z</time>
      </trkpt>
      <trkpt lat="49.51716" lon="-1.59799">
        <ele>102.5</ele>
        <time>2026-03-30T13:19:11.000Z</time>
      </trkpt>
      <trkpt lat="49.51715" lon="-1.59801">
        <ele>101.9</ele>
        <time>2026-03-30T13:19:12.000Z</time>
      </trkpt>
      <trkpt lat="49.51714" lon="-1.59802">
        <ele>102.2</ele>
        <time>2026-03-30T13:19:13.000Z</time>
      </trkpt>
      <trkpt lat="49.51713" lon="-1.59804">
        <ele>102.3</ele>
        <time>2026-03-30T13:19:14.000Z</time>
      </trkpt>
      <trkpt lat="49.51712" lon="-1.59805">
        <ele>102</ele>
        <time>2026-03-30T13:19:15.000Z</time>
      </trkpt>
      <trkpt lat="49.51711" lon="-1.59807">
        <ele>102</ele>
        <time>2026-03-30T13:19:16.000Z</time>
      </trkpt>
      <trkpt lat="49.51709" lon="-1.59808">
        <ele>101.8</ele>
        <time>2026-03-30T13:19:17.000Z</time>
      </trkpt>
      <trkpt lat="49.51708" lon="-1.59809">
        <ele>102.4</ele>
        <time>2026-03-30T13:19:18.000Z</time>
      </trkpt>
      <trkpt lat="49.51707" lon="-1.59811">
        <ele>103</ele>
        <time>2026-03-30T13:19:19.000Z</time>
      </trkpt>
      <trkpt lat="49.51706" lon="-1.59813">
        <ele>103.6</ele>
        <time>2026-03-30T13:19:20.000Z</time>
      </trkpt>
      <trkpt lat="49.51705" lon="-1.59815">
        <ele>103.9</ele>
        <time>2026-03-30T13:19:21.000Z</time>
      </trkpt>
      <trkpt lat="49.51704" lon="-1.59816">
        <ele>104</ele>
        <time>2026-03-30T13:19:22.000Z</time>
      </trkpt>
      <trkpt lat="49.51703" lon="-1.59818">
        <ele>103.9</ele>
        <time>2026-03-30T13:19:23.000Z</time>
      </trkpt>
      <trkpt lat="49.51702" lon="-1.59819">
        <ele>103.5</ele>
        <time>2026-03-30T13:19:24.000Z</time>
      </trkpt>
      <trkpt lat="49.51701" lon="-1.59821">
        <ele>103.3</ele>
        <time>2026-03-30T13:19:25.000Z</time>
      </trkpt>
      <trkpt lat="49.517" lon="-1.59823">
        <ele>103.1</ele>
        <time>2026-03-30T13:19:26.000Z</time>
      </trkpt>
      <trkpt lat="49.51699" lon="-1.59824">
        <ele>103.6</ele>
        <time>2026-03-30T13:19:27.000Z</time>
      </trkpt>
      <trkpt lat="49.51698" lon="-1.59826">
        <ele>104.1</ele>
        <time>2026-03-30T13:19:28.000Z</time>
      </trkpt>
      <trkpt lat="49.51697" lon="-1.59828">
        <ele>104</ele>
        <time>2026-03-30T13:19:29.000Z</time>
      </trkpt>
      <trkpt lat="49.51696" lon="-1.59829">
        <ele>104.4</ele>
        <time>2026-03-30T13:19:30.000Z</time>
      </trkpt>
      <trkpt lat="49.51695" lon="-1.5983">
        <ele>103.6</ele>
        <time>2026-03-30T13:19:31.000Z</time>
      </trkpt>
      <trkpt lat="49.51694" lon="-1.59832">
        <ele>103.7</ele>
        <time>2026-03-30T13:19:32.000Z</time>
      </trkpt>
      <trkpt lat="49.51693" lon="-1.59833">
        <ele>103</ele>
        <time>2026-03-30T13:19:33.000Z</time>
      </trkpt>
      <trkpt lat="49.51692" lon="-1.59835">
        <ele>103.1</ele>
        <time>2026-03-30T13:19:34.000Z</time>
      </trkpt>
      <trkpt lat="49.51691" lon="-1.59837">
        <ele>102.5</ele>
        <time>2026-03-30T13:19:35.000Z</time>
      </trkpt>
      <trkpt lat="49.5169" lon="-1.59838">
        <ele>101.9</ele>
        <time>2026-03-30T13:19:36.000Z</time>
      </trkpt>
      <trkpt lat="49.5169" lon="-1.5984">
        <ele>101.4</ele>
        <time>2026-03-30T13:19:37.000Z</time>
      </trkpt>
      <trkpt lat="49.51689" lon="-1.59842">
        <ele>100.4</ele>
        <time>2026-03-30T13:19:38.000Z</time>
      </trkpt>
      <trkpt lat="49.51688" lon="-1.59843">
        <ele>99</ele>
        <time>2026-03-30T13:19:39.000Z</time>
      </trkpt>
      <trkpt lat="49.51687" lon="-1.59845">
        <ele>98</ele>
        <time>2026-03-30T13:19:40.000Z</time>
      </trkpt>
      <trkpt lat="49.51686" lon="-1.59846">
        <ele>98.2</ele>
        <time>2026-03-30T13:19:41.000Z</time>
      </trkpt>
      <trkpt lat="49.51685" lon="-1.59848">
        <ele>97.9</ele>
        <time>2026-03-30T13:19:42.000Z</time>
      </trkpt>
      <trkpt lat="49.51684" lon="-1.5985">
        <ele>97.4</ele>
        <time>2026-03-30T13:19:43.000Z</time>
      </trkpt>
      <trkpt lat="49.51683" lon="-1.59851">
        <ele>97.5</ele>
        <time>2026-03-30T13:19:44.000Z</time>
      </trkpt>
      <trkpt lat="49.51682" lon="-1.59853">
        <ele>97.3</ele>
        <time>2026-03-30T13:19:45.000Z</time>
      </trkpt>
      <trkpt lat="49.51681" lon="-1.59855">
        <ele>97.9</ele>
        <time>2026-03-30T13:19:46.000Z</time>
      </trkpt>
      <trkpt lat="49.51681" lon="-1.59856">
        <ele>98</ele>
        <time>2026-03-30T13:19:47.000Z</time>
      </trkpt>
      <trkpt lat="49.5168" lon="-1.59858">
        <ele>98.8</ele>
        <time>2026-03-30T13:19:48.000Z</time>
      </trkpt>
      <trkpt lat="49.51679" lon="-1.59859">
        <ele>98.8</ele>
        <time>2026-03-30T13:19:49.000Z</time>
      </trkpt>
      <trkpt lat="49.51678" lon="-1.59861">
        <ele>99</ele>
        <time>2026-03-30T13:19:50.000Z</time>
      </trkpt>
      <trkpt lat="49.51677" lon="-1.59862">
        <ele>98.4</ele>
        <time>2026-03-30T13:19:51.000Z</time>
      </trkpt>
      <trkpt lat="49.51677" lon="-1.59864">
        <ele>98.6</ele>
        <time>2026-03-30T13:19:52.000Z</time>
      </trkpt>
      <trkpt lat="49.51676" lon="-1.59865">
        <ele>98.5</ele>
        <time>2026-03-30T13:19:53.000Z</time>
      </trkpt>
      <trkpt lat="49.51675" lon="-1.59867">
        <ele>98.6</ele>
        <time>2026-03-30T13:19:54.000Z</time>
      </trkpt>
      <trkpt lat="49.51674" lon="-1.59868">
        <ele>98.8</ele>
        <time>2026-03-30T13:19:55.000Z</time>
      </trkpt>
      <trkpt lat="49.51673" lon="-1.59869">
        <ele>98.5</ele>
        <time>2026-03-30T13:19:56.000Z</time>
      </trkpt>
      <trkpt lat="49.51672" lon="-1.59871">
        <ele>98.3</ele>
        <time>2026-03-30T13:19:57.000Z</time>
      </trkpt>
      <trkpt lat="49.51671" lon="-1.59872">
        <ele>98.4</ele>
        <time>2026-03-30T13:19:58.000Z</time>
      </trkpt>
      <trkpt lat="49.5167" lon="-1.59873">
        <ele>98.5</ele>
        <time>2026-03-30T13:19:59.000Z</time>
      </trkpt>
      <trkpt lat="49.5167" lon="-1.59872">
        <ele>98.2</ele>
        <time>2026-03-30T13:20:00.000Z</time>
      </trkpt>
      <trkpt lat="49.5167" lon="-1.59871">
        <ele>98</ele>
        <time>2026-03-30T13:20:01.000Z</time>
      </trkpt>
      <trkpt lat="49.51669" lon="-1.5987">
        <ele>98.2</ele>
        <time>2026-03-30T13:20:02.000Z</time>
      </trkpt>
      <trkpt lat="49.51669" lon="-1.59868">
        <ele>98.2</ele>
        <time>2026-03-30T13:20:03.000Z</time>
      </trkpt>
      <trkpt lat="49.51669" lon="-1.59867">
        <ele>97.7</ele>
        <time>2026-03-30T13:20:04.000Z</time>
      </trkpt>
      <trkpt lat="49.51669" lon="-1.59866">
        <ele>97.7</ele>
        <time>2026-03-30T13:20:05.000Z</time>
      </trkpt>
      <trkpt lat="49.51665" lon="-1.59872">
        <ele>96.2</ele>
        <time>2026-03-30T13:20:19.000Z</time>
      </trkpt>
      <trkpt lat="49.51664" lon="-1.59874">
        <ele>96.3</ele>
        <time>2026-03-30T13:20:20.000Z</time>
      </trkpt>
      <trkpt lat="49.51663" lon="-1.59875">
        <ele>96.6</ele>
        <time>2026-03-30T13:20:21.000Z</time>
      </trkpt>
      <trkpt lat="49.51662" lon="-1.59877">
        <ele>97</ele>
        <time>2026-03-30T13:20:22.000Z</time>
      </trkpt>
      <trkpt lat="49.51661" lon="-1.59878">
        <ele>97.2</ele>
        <time>2026-03-30T13:20:23.000Z</time>
      </trkpt>
      <trkpt lat="49.5166" lon="-1.59879">
        <ele>97.3</ele>
        <time>2026-03-30T13:20:24.000Z</time>
      </trkpt>
      <trkpt lat="49.51659" lon="-1.5988">
        <ele>96.8</ele>
        <time>2026-03-30T13:20:25.000Z</time>
      </trkpt>
      <trkpt lat="49.51658" lon="-1.59881">
        <ele>96.6</ele>
        <time>2026-03-30T13:20:26.000Z</time>
      </trkpt>
      <trkpt lat="49.51657" lon="-1.59882">
        <ele>95.2</ele>
        <time>2026-03-30T13:20:27.000Z</time>
      </trkpt>
      <trkpt lat="49.51656" lon="-1.59884">
        <ele>95</ele>
        <time>2026-03-30T13:20:28.000Z</time>
      </trkpt>
      <trkpt lat="49.51655" lon="-1.59885">
        <ele>94.9</ele>
        <time>2026-03-30T13:20:29.000Z</time>
      </trkpt>
      <trkpt lat="49.51654" lon="-1.59886">
        <ele>94.8</ele>
        <time>2026-03-30T13:20:30.000Z</time>
      </trkpt>
      <trkpt lat="49.51653" lon="-1.59887">
        <ele>95.4</ele>
        <time>2026-03-30T13:20:31.000Z</time>
      </trkpt>
      <trkpt lat="49.51651" lon="-1.59887">
        <ele>95.4</ele>
        <time>2026-03-30T13:20:32.000Z</time>
      </trkpt>
      <trkpt lat="49.5165" lon="-1.59888">
        <ele>95.8</ele>
        <time>2026-03-30T13:20:33.000Z</time>
      </trkpt>
      <trkpt lat="49.51649" lon="-1.59889">
        <ele>96.2</ele>
        <time>2026-03-30T13:20:34.000Z</time>
      </trkpt>
      <trkpt lat="49.51647" lon="-1.5989">
        <ele>97.2</ele>
        <time>2026-03-30T13:20:35.000Z</time>
      </trkpt>
      <trkpt lat="49.51646" lon="-1.59891">
        <ele>97.2</ele>
        <time>2026-03-30T13:20:36.000Z</time>
      </trkpt>
      <trkpt lat="49.51644" lon="-1.59892">
        <ele>96.9</ele>
        <time>2026-03-30T13:20:37.000Z</time>
      </trkpt>
      <trkpt lat="49.51643" lon="-1.59893">
        <ele>97.2</ele>
        <time>2026-03-30T13:20:38.000Z</time>
      </trkpt>
      <trkpt lat="49.51642" lon="-1.59893">
        <ele>97.4</ele>
        <time>2026-03-30T13:20:39.000Z</time>
      </trkpt>
      <trkpt lat="49.51641" lon="-1.59894">
        <ele>97</ele>
        <time>2026-03-30T13:20:40.000Z</time>
      </trkpt>
      <trkpt lat="49.51639" lon="-1.59894">
        <ele>96.8</ele>
        <time>2026-03-30T13:20:41.000Z</time>
      </trkpt>
      <trkpt lat="49.51638" lon="-1.59894">
        <ele>97.9</ele>
        <time>2026-03-30T13:20:42.000Z</time>
      </trkpt>
      <trkpt lat="49.51636" lon="-1.59895">
        <ele>98.3</ele>
        <time>2026-03-30T13:20:43.000Z</time>
      </trkpt>
      <trkpt lat="49.51635" lon="-1.59895">
        <ele>98.5</ele>
        <time>2026-03-30T13:20:44.000Z</time>
      </trkpt>
      <trkpt lat="49.51633" lon="-1.59896">
        <ele>98.6</ele>
        <time>2026-03-30T13:20:45.000Z</time>
      </trkpt>
      <trkpt lat="49.51632" lon="-1.59896">
        <ele>99</ele>
        <time>2026-03-30T13:20:46.000Z</time>
      </trkpt>
      <trkpt lat="49.51631" lon="-1.59896">
        <ele>98.9</ele>
        <time>2026-03-30T13:20:47.000Z</time>
      </trkpt>
      <trkpt lat="49.5163" lon="-1.59896">
        <ele>98.9</ele>
        <time>2026-03-30T13:20:48.000Z</time>
      </trkpt>
      <trkpt lat="49.51628" lon="-1.59896">
        <ele>99.2</ele>
        <time>2026-03-30T13:20:49.000Z</time>
      </trkpt>
      <trkpt lat="49.51627" lon="-1.59895">
        <ele>99.5</ele>
        <time>2026-03-30T13:20:50.000Z</time>
      </trkpt>
      <trkpt lat="49.51626" lon="-1.59896">
        <ele>100</ele>
        <time>2026-03-30T13:20:51.000Z</time>
      </trkpt>
      <trkpt lat="49.51624" lon="-1.59896">
        <ele>99.5</ele>
        <time>2026-03-30T13:20:52.000Z</time>
      </trkpt>
      <trkpt lat="49.51623" lon="-1.59896">
        <ele>99.8</ele>
        <time>2026-03-30T13:20:53.000Z</time>
      </trkpt>
      <trkpt lat="49.51622" lon="-1.59896">
        <ele>100.1</ele>
        <time>2026-03-30T13:20:54.000Z</time>
      </trkpt>
      <trkpt lat="49.51621" lon="-1.59896">
        <ele>99</ele>
        <time>2026-03-30T13:20:55.000Z</time>
      </trkpt>
      <trkpt lat="49.5162" lon="-1.59896">
        <ele>98.7</ele>
        <time>2026-03-30T13:20:56.000Z</time>
      </trkpt>
      <trkpt lat="49.51619" lon="-1.59896">
        <ele>98.6</ele>
        <time>2026-03-30T13:20:57.000Z</time>
      </trkpt>
      <trkpt lat="49.51618" lon="-1.59897">
        <ele>98.8</ele>
        <time>2026-03-30T13:20:58.000Z</time>
      </trkpt>
      <trkpt lat="49.51616" lon="-1.59898">
        <ele>99.6</ele>
        <time>2026-03-30T13:20:59.000Z</time>
      </trkpt>
      <trkpt lat="49.51615" lon="-1.59898">
        <ele>100.9</ele>
        <time>2026-03-30T13:21:00.000Z</time>
      </trkpt>
      <trkpt lat="49.51613" lon="-1.59898">
        <ele>101.6</ele>
        <time>2026-03-30T13:21:01.000Z</time>
      </trkpt>
      <trkpt lat="49.51612" lon="-1.59898">
        <ele>101.6</ele>
        <time>2026-03-30T13:21:02.000Z</time>
      </trkpt>
      <trkpt lat="49.5161" lon="-1.59898">
        <ele>101.7</ele>
        <time>2026-03-30T13:21:03.000Z</time>
      </trkpt>
      <trkpt lat="49.51608" lon="-1.59898">
        <ele>102.8</ele>
        <time>2026-03-30T13:21:04.000Z</time>
      </trkpt>
      <trkpt lat="49.51606" lon="-1.59899">
        <ele>103.3</ele>
        <time>2026-03-30T13:21:05.000Z</time>
      </trkpt>
      <trkpt lat="49.51605" lon="-1.599">
        <ele>103.5</ele>
        <time>2026-03-30T13:21:06.000Z</time>
      </trkpt>
      <trkpt lat="49.51603" lon="-1.599">
        <ele>103.1</ele>
        <time>2026-03-30T13:21:07.000Z</time>
      </trkpt>
      <trkpt lat="49.51602" lon="-1.59899">
        <ele>102.3</ele>
        <time>2026-03-30T13:21:08.000Z</time>
      </trkpt>
      <trkpt lat="49.516" lon="-1.599">
        <ele>102.4</ele>
        <time>2026-03-30T13:21:09.000Z</time>
      </trkpt>
      <trkpt lat="49.51599" lon="-1.599">
        <ele>101.7</ele>
        <time>2026-03-30T13:21:10.000Z</time>
      </trkpt>
      <trkpt lat="49.51598" lon="-1.599">
        <ele>101.9</ele>
        <time>2026-03-30T13:21:11.000Z</time>
      </trkpt>
      <trkpt lat="49.51597" lon="-1.599">
        <ele>102.3</ele>
        <time>2026-03-30T13:21:12.000Z</time>
      </trkpt>
      <trkpt lat="49.51595" lon="-1.59899">
        <ele>102.8</ele>
        <time>2026-03-30T13:21:13.000Z</time>
      </trkpt>
      <trkpt lat="49.51594" lon="-1.59899">
        <ele>103.3</ele>
        <time>2026-03-30T13:21:14.000Z</time>
      </trkpt>
      <trkpt lat="49.51593" lon="-1.59899">
        <ele>103.6</ele>
        <time>2026-03-30T13:21:15.000Z</time>
      </trkpt>
      <trkpt lat="49.51591" lon="-1.59899">
        <ele>104</ele>
        <time>2026-03-30T13:21:16.000Z</time>
      </trkpt>
      <trkpt lat="49.5159" lon="-1.59899">
        <ele>104</ele>
        <time>2026-03-30T13:21:17.000Z</time>
      </trkpt>
      <trkpt lat="49.51588" lon="-1.599">
        <ele>104</ele>
        <time>2026-03-30T13:21:18.000Z</time>
      </trkpt>
      <trkpt lat="49.51586" lon="-1.599">
        <ele>104.7</ele>
        <time>2026-03-30T13:21:19.000Z</time>
      </trkpt>
      <trkpt lat="49.51585" lon="-1.599">
        <ele>104.4</ele>
        <time>2026-03-30T13:21:20.000Z</time>
      </trkpt>
      <trkpt lat="49.51584" lon="-1.59901">
        <ele>104.5</ele>
        <time>2026-03-30T13:21:21.000Z</time>
      </trkpt>
      <trkpt lat="49.51582" lon="-1.59901">
        <ele>104.9</ele>
        <time>2026-03-30T13:21:22.000Z</time>
      </trkpt>
      <trkpt lat="49.51581" lon="-1.59901">
        <ele>105.2</ele>
        <time>2026-03-30T13:21:23.000Z</time>
      </trkpt>
      <trkpt lat="49.51579" lon="-1.59901">
        <ele>105.3</ele>
        <time>2026-03-30T13:21:24.000Z</time>
      </trkpt>
      <trkpt lat="49.51578" lon="-1.59902">
        <ele>104.8</ele>
        <time>2026-03-30T13:21:25.000Z</time>
      </trkpt>
      <trkpt lat="49.51576" lon="-1.59902">
        <ele>104.9</ele>
        <time>2026-03-30T13:21:26.000Z</time>
      </trkpt>
      <trkpt lat="49.51575" lon="-1.59902">
        <ele>105.2</ele>
        <time>2026-03-30T13:21:27.000Z</time>
      </trkpt>
      <trkpt lat="49.51574" lon="-1.59903">
        <ele>105.5</ele>
        <time>2026-03-30T13:21:28.000Z</time>
      </trkpt>
      <trkpt lat="49.51573" lon="-1.59903">
        <ele>106.4</ele>
        <time>2026-03-30T13:21:29.000Z</time>
      </trkpt>
      <trkpt lat="49.51571" lon="-1.59903">
        <ele>105.4</ele>
        <time>2026-03-30T13:21:30.000Z</time>
      </trkpt>
      <trkpt lat="49.5157" lon="-1.59903">
        <ele>105</ele>
        <time>2026-03-30T13:21:31.000Z</time>
      </trkpt>
      <trkpt lat="49.51569" lon="-1.59904">
        <ele>105.2</ele>
        <time>2026-03-30T13:21:32.000Z</time>
      </trkpt>
      <trkpt lat="49.51567" lon="-1.59904">
        <ele>104.8</ele>
        <time>2026-03-30T13:21:33.000Z</time>
      </trkpt>
      <trkpt lat="49.51566" lon="-1.59904">
        <ele>105.2</ele>
        <time>2026-03-30T13:21:34.000Z</time>
      </trkpt>
      <trkpt lat="49.51565" lon="-1.59906">
        <ele>105.5</ele>
        <time>2026-03-30T13:21:35.000Z</time>
      </trkpt>
      <trkpt lat="49.51563" lon="-1.59907">
        <ele>105.8</ele>
        <time>2026-03-30T13:21:36.000Z</time>
      </trkpt>
      <trkpt lat="49.51561" lon="-1.59908">
        <ele>106.4</ele>
        <time>2026-03-30T13:21:37.000Z</time>
      </trkpt>
      <trkpt lat="49.51561" lon="-1.59908">
        <ele>105.9</ele>
        <time>2026-03-30T13:21:38.000Z</time>
      </trkpt>
      <trkpt lat="49.5156" lon="-1.59908">
        <ele>105.7</ele>
        <time>2026-03-30T13:21:39.000Z</time>
      </trkpt>
      <trkpt lat="49.51559" lon="-1.59908">
        <ele>105.6</ele>
        <time>2026-03-30T13:21:40.000Z</time>
      </trkpt>
      <trkpt lat="49.51558" lon="-1.59909">
        <ele>105.1</ele>
        <time>2026-03-30T13:21:41.000Z</time>
      </trkpt>
      <trkpt lat="49.51557" lon="-1.59909">
        <ele>105.1</ele>
        <time>2026-03-30T13:21:42.000Z</time>
      </trkpt>
      <trkpt lat="49.51556" lon="-1.5991">
        <ele>105.6</ele>
        <time>2026-03-30T13:21:43.000Z</time>
      </trkpt>
      <trkpt lat="49.51555" lon="-1.59912">
        <ele>105.2</ele>
        <time>2026-03-30T13:21:44.000Z</time>
      </trkpt>
      <trkpt lat="49.51554" lon="-1.59913">
        <ele>105.1</ele>
        <time>2026-03-30T13:21:45.000Z</time>
      </trkpt>
      <trkpt lat="49.51553" lon="-1.59914">
        <ele>105.3</ele>
        <time>2026-03-30T13:21:46.000Z</time>
      </trkpt>
      <trkpt lat="49.51552" lon="-1.59915">
        <ele>106.1</ele>
        <time>2026-03-30T13:21:47.000Z</time>
      </trkpt>
      <trkpt lat="49.51551" lon="-1.59917">
        <ele>106.1</ele>
        <time>2026-03-30T13:21:48.000Z</time>
      </trkpt>
      <trkpt lat="49.5155" lon="-1.59918">
        <ele>106</ele>
        <time>2026-03-30T13:21:49.000Z</time>
      </trkpt>
      <trkpt lat="49.51549" lon="-1.59919">
        <ele>106.4</ele>
        <time>2026-03-30T13:21:50.000Z</time>
      </trkpt>
      <trkpt lat="49.51548" lon="-1.59921">
        <ele>106.6</ele>
        <time>2026-03-30T13:21:51.000Z</time>
      </trkpt>
      <trkpt lat="49.51548" lon="-1.59922">
        <ele>107.5</ele>
        <time>2026-03-30T13:21:52.000Z</time>
      </trkpt>
      <trkpt lat="49.51547" lon="-1.59924">
        <ele>107.3</ele>
        <time>2026-03-30T13:21:53.000Z</time>
      </trkpt>
      <trkpt lat="49.51546" lon="-1.59925">
        <ele>107.7</ele>
        <time>2026-03-30T13:21:54.000Z</time>
      </trkpt>
      <trkpt lat="49.51545" lon="-1.59926">
        <ele>107.8</ele>
        <time>2026-03-30T13:21:55.000Z</time>
      </trkpt>
      <trkpt lat="49.51545" lon="-1.59928">
        <ele>107.9</ele>
        <time>2026-03-30T13:21:56.000Z</time>
      </trkpt>
      <trkpt lat="49.51544" lon="-1.59929">
        <ele>107.7</ele>
        <time>2026-03-30T13:21:57.000Z</time>
      </trkpt>
      <trkpt lat="49.51543" lon="-1.59931">
        <ele>107.5</ele>
        <time>2026-03-30T13:21:58.000Z</time>
      </trkpt>
      <trkpt lat="49.51543" lon="-1.59933">
        <ele>108</ele>
        <time>2026-03-30T13:21:59.000Z</time>
      </trkpt>
      <trkpt lat="49.51542" lon="-1.59935">
        <ele>108.3</ele>
        <time>2026-03-30T13:22:00.000Z</time>
      </trkpt>
      <trkpt lat="49.51542" lon="-1.59937">
        <ele>107.7</ele>
        <time>2026-03-30T13:22:01.000Z</time>
      </trkpt>
      <trkpt lat="49.51541" lon="-1.59939">
        <ele>107.5</ele>
        <time>2026-03-30T13:22:02.000Z</time>
      </trkpt>
      <trkpt lat="49.5154" lon="-1.5994">
        <ele>107.1</ele>
        <time>2026-03-30T13:22:03.000Z</time>
      </trkpt>
      <trkpt lat="49.5154" lon="-1.59942">
        <ele>107.8</ele>
        <time>2026-03-30T13:22:04.000Z</time>
      </trkpt>
      <trkpt lat="49.51539" lon="-1.59944">
        <ele>108.3</ele>
        <time>2026-03-30T13:22:05.000Z</time>
      </trkpt>
      <trkpt lat="49.51538" lon="-1.59946">
        <ele>108.4</ele>
        <time>2026-03-30T13:22:06.000Z</time>
      </trkpt>
      <trkpt lat="49.51538" lon="-1.59948">
        <ele>108.2</ele>
        <time>2026-03-30T13:22:07.000Z</time>
      </trkpt>
      <trkpt lat="49.51537" lon="-1.59949">
        <ele>107.9</ele>
        <time>2026-03-30T13:22:08.000Z</time>
      </trkpt>
      <trkpt lat="49.51537" lon="-1.59951">
        <ele>107.6</ele>
        <time>2026-03-30T13:22:09.000Z</time>
      </trkpt>
      <trkpt lat="49.51537" lon="-1.59952">
        <ele>108.3</ele>
        <time>2026-03-30T13:22:10.000Z</time>
      </trkpt>
      <trkpt lat="49.51536" lon="-1.59954">
        <ele>108.6</ele>
        <time>2026-03-30T13:22:11.000Z</time>
      </trkpt>
      <trkpt lat="49.51536" lon="-1.59956">
        <ele>108.4</ele>
        <time>2026-03-30T13:22:12.000Z</time>
      </trkpt>
      <trkpt lat="49.51535" lon="-1.59958">
        <ele>108.9</ele>
        <time>2026-03-30T13:22:13.000Z</time>
      </trkpt>
      <trkpt lat="49.51534" lon="-1.59959">
        <ele>109.3</ele>
        <time>2026-03-30T13:22:14.000Z</time>
      </trkpt>
      <trkpt lat="49.51533" lon="-1.59961">
        <ele>109.7</ele>
        <time>2026-03-30T13:22:15.000Z</time>
      </trkpt>
      <trkpt lat="49.51532" lon="-1.59963">
        <ele>110.6</ele>
        <time>2026-03-30T13:22:16.000Z</time>
      </trkpt>
      <trkpt lat="49.51532" lon="-1.59964">
        <ele>110.3</ele>
        <time>2026-03-30T13:22:17.000Z</time>
      </trkpt>
      <trkpt lat="49.51531" lon="-1.59966">
        <ele>110.7</ele>
        <time>2026-03-30T13:22:18.000Z</time>
      </trkpt>
      <trkpt lat="49.5153" lon="-1.59968">
        <ele>110.2</ele>
        <time>2026-03-30T13:22:19.000Z</time>
      </trkpt>
      <trkpt lat="49.51529" lon="-1.59969">
        <ele>110.7</ele>
        <time>2026-03-30T13:22:20.000Z</time>
      </trkpt>
      <trkpt lat="49.51529" lon="-1.59971">
        <ele>110.9</ele>
        <time>2026-03-30T13:22:21.000Z</time>
      </trkpt>
      <trkpt lat="49.51528" lon="-1.59973">
        <ele>110.4</ele>
        <time>2026-03-30T13:22:22.000Z</time>
      </trkpt>
      <trkpt lat="49.51528" lon="-1.59974">
        <ele>110.7</ele>
        <time>2026-03-30T13:22:23.000Z</time>
      </trkpt>
      <trkpt lat="49.51527" lon="-1.59976">
        <ele>110.6</ele>
        <time>2026-03-30T13:22:24.000Z</time>
      </trkpt>
      <trkpt lat="49.51526" lon="-1.59977">
        <ele>110.4</ele>
        <time>2026-03-30T13:22:25.000Z</time>
      </trkpt>
      <trkpt lat="49.51525" lon="-1.59978">
        <ele>110.8</ele>
        <time>2026-03-30T13:22:26.000Z</time>
      </trkpt>
      <trkpt lat="49.51524" lon="-1.5998">
        <ele>111.7</ele>
        <time>2026-03-30T13:22:27.000Z</time>
      </trkpt>
      <trkpt lat="49.51524" lon="-1.59982">
        <ele>110.9</ele>
        <time>2026-03-30T13:22:28.000Z</time>
      </trkpt>
      <trkpt lat="49.51523" lon="-1.59983">
        <ele>110.2</ele>
        <time>2026-03-30T13:22:29.000Z</time>
      </trkpt>
      <trkpt lat="49.51522" lon="-1.59985">
        <ele>110</ele>
        <time>2026-03-30T13:22:30.000Z</time>
      </trkpt>
      <trkpt lat="49.51522" lon="-1.59987">
        <ele>109.8</ele>
        <time>2026-03-30T13:22:31.000Z</time>
      </trkpt>
      <trkpt lat="49.51521" lon="-1.59989">
        <ele>110.2</ele>
        <time>2026-03-30T13:22:32.000Z</time>
      </trkpt>
      <trkpt lat="49.51521" lon="-1.59991">
        <ele>109.9</ele>
        <time>2026-03-30T13:22:33.000Z</time>
      </trkpt>
      <trkpt lat="49.5152" lon="-1.59993">
        <ele>110</ele>
        <time>2026-03-30T13:22:34.000Z</time>
      </trkpt>
      <trkpt lat="49.51519" lon="-1.59995">
        <ele>110.1</ele>
        <time>2026-03-30T13:22:35.000Z</time>
      </trkpt>
      <trkpt lat="49.51519" lon="-1.59997">
        <ele>109.8</ele>
        <time>2026-03-30T13:22:36.000Z</time>
      </trkpt>
      <trkpt lat="49.51518" lon="-1.59999">
        <ele>110</ele>
        <time>2026-03-30T13:22:37.000Z</time>
      </trkpt>
      <trkpt lat="49.51518" lon="-1.6">
        <ele>110.3</ele>
        <time>2026-03-30T13:22:38.000Z</time>
      </trkpt>
      <trkpt lat="49.51518" lon="-1.60002">
        <ele>108.8</ele>
        <time>2026-03-30T13:22:39.000Z</time>
      </trkpt>
      <trkpt lat="49.51517" lon="-1.60004">
        <ele>108.5</ele>
        <time>2026-03-30T13:22:40.000Z</time>
      </trkpt>
      <trkpt lat="49.51517" lon="-1.60005">
        <ele>108.7</ele>
        <time>2026-03-30T13:22:41.000Z</time>
      </trkpt>
      <trkpt lat="49.51516" lon="-1.60007">
        <ele>109.5</ele>
        <time>2026-03-30T13:22:42.000Z</time>
      </trkpt>
      <trkpt lat="49.51515" lon="-1.6001">
        <ele>109.7</ele>
        <time>2026-03-30T13:22:43.000Z</time>
      </trkpt>
      <trkpt lat="49.51515" lon="-1.60011">
        <ele>109.9</ele>
        <time>2026-03-30T13:22:44.000Z</time>
      </trkpt>
      <trkpt lat="49.51514" lon="-1.60013">
        <ele>110.8</ele>
        <time>2026-03-30T13:22:45.000Z</time>
      </trkpt>
      <trkpt lat="49.51513" lon="-1.60016">
        <ele>110.3</ele>
        <time>2026-03-30T13:22:46.000Z</time>
      </trkpt>
      <trkpt lat="49.51513" lon="-1.60018">
        <ele>110.1</ele>
        <time>2026-03-30T13:22:47.000Z</time>
      </trkpt>
      <trkpt lat="49.51512" lon="-1.6002">
        <ele>109.8</ele>
        <time>2026-03-30T13:22:48.000Z</time>
      </trkpt>
      <trkpt lat="49.51512" lon="-1.60022">
        <ele>110.1</ele>
        <time>2026-03-30T13:22:49.000Z</time>
      </trkpt>
      <trkpt lat="49.51511" lon="-1.60024">
        <ele>110.4</ele>
        <time>2026-03-30T13:22:50.000Z</time>
      </trkpt>
      <trkpt lat="49.51511" lon="-1.60026">
        <ele>110</ele>
        <time>2026-03-30T13:22:51.000Z</time>
      </trkpt>
      <trkpt lat="49.5151" lon="-1.60027">
        <ele>110.1</ele>
        <time>2026-03-30T13:22:52.000Z</time>
      </trkpt>
      <trkpt lat="49.5151" lon="-1.60029">
        <ele>110</ele>
        <time>2026-03-30T13:22:53.000Z</time>
      </trkpt>
      <trkpt lat="49.51509" lon="-1.60032">
        <ele>110.2</ele>
        <time>2026-03-30T13:22:54.000Z</time>
      </trkpt>
      <trkpt lat="49.51508" lon="-1.60034">
        <ele>110.5</ele>
        <time>2026-03-30T13:22:55.000Z</time>
      </trkpt>
      <trkpt lat="49.51507" lon="-1.60036">
        <ele>110.3</ele>
        <time>2026-03-30T13:22:56.000Z</time>
      </trkpt>
      <trkpt lat="49.51507" lon="-1.60038">
        <ele>109.9</ele>
        <time>2026-03-30T13:22:57.000Z</time>
      </trkpt>
      <trkpt lat="49.51506" lon="-1.60039">
        <ele>110.1</ele>
        <time>2026-03-30T13:22:58.000Z</time>
      </trkpt>
      <trkpt lat="49.51505" lon="-1.60041">
        <ele>110.3</ele>
        <time>2026-03-30T13:22:59.000Z</time>
      </trkpt>
      <trkpt lat="49.51505" lon="-1.60043">
        <ele>110.9</ele>
        <time>2026-03-30T13:23:00.000Z</time>
      </trkpt>
      <trkpt lat="49.51504" lon="-1.60045">
        <ele>111.3</ele>
        <time>2026-03-30T13:23:01.000Z</time>
      </trkpt>
      <trkpt lat="49.51503" lon="-1.60047">
        <ele>111.7</ele>
        <time>2026-03-30T13:23:02.000Z</time>
      </trkpt>
      <trkpt lat="49.51503" lon="-1.60049">
        <ele>112.1</ele>
        <time>2026-03-30T13:23:03.000Z</time>
      </trkpt>
      <trkpt lat="49.51502" lon="-1.60051">
        <ele>112.4</ele>
        <time>2026-03-30T13:23:04.000Z</time>
      </trkpt>
      <trkpt lat="49.51501" lon="-1.60053">
        <ele>112.6</ele>
        <time>2026-03-30T13:23:05.000Z</time>
      </trkpt>
      <trkpt lat="49.515" lon="-1.60056">
        <ele>112.3</ele>
        <time>2026-03-30T13:23:06.000Z</time>
      </trkpt>
      <trkpt lat="49.515" lon="-1.60058">
        <ele>112.3</ele>
        <time>2026-03-30T13:23:07.000Z</time>
      </trkpt>
      <trkpt lat="49.51499" lon="-1.6006">
        <ele>112.1</ele>
        <time>2026-03-30T13:23:08.000Z</time>
      </trkpt>
      <trkpt lat="49.51499" lon="-1.60062">
        <ele>111.5</ele>
        <time>2026-03-30T13:23:09.000Z</time>
      </trkpt>
      <trkpt lat="49.51498" lon="-1.60064">
        <ele>111.7</ele>
        <time>2026-03-30T13:23:10.000Z</time>
      </trkpt>
      <trkpt lat="49.51497" lon="-1.60065">
        <ele>111.5</ele>
        <time>2026-03-30T13:23:11.000Z</time>
      </trkpt>
      <trkpt lat="49.51497" lon="-1.60067">
        <ele>111.6</ele>
        <time>2026-03-30T13:23:12.000Z</time>
      </trkpt>
      <trkpt lat="49.51496" lon="-1.60069">
        <ele>111.9</ele>
        <time>2026-03-30T13:23:13.000Z</time>
      </trkpt>
      <trkpt lat="49.51496" lon="-1.60071">
        <ele>111.7</ele>
        <time>2026-03-30T13:23:14.000Z</time>
      </trkpt>
      <trkpt lat="49.51495" lon="-1.60073">
        <ele>111.5</ele>
        <time>2026-03-30T13:23:15.000Z</time>
      </trkpt>
      <trkpt lat="49.51495" lon="-1.60074">
        <ele>111.3</ele>
        <time>2026-03-30T13:23:16.000Z</time>
      </trkpt>
      <trkpt lat="49.51494" lon="-1.60076">
        <ele>110.8</ele>
        <time>2026-03-30T13:23:17.000Z</time>
      </trkpt>
      <trkpt lat="49.51494" lon="-1.60078">
        <ele>111.1</ele>
        <time>2026-03-30T13:23:18.000Z</time>
      </trkpt>
      <trkpt lat="49.51493" lon="-1.6008">
        <ele>111.3</ele>
        <time>2026-03-30T13:23:19.000Z</time>
      </trkpt>
      <trkpt lat="49.51492" lon="-1.60082">
        <ele>111.7</ele>
        <time>2026-03-30T13:23:20.000Z</time>
      </trkpt>
      <trkpt lat="49.51492" lon="-1.60084">
        <ele>112.1</ele>
        <time>2026-03-30T13:23:21.000Z</time>
      </trkpt>
      <trkpt lat="49.51491" lon="-1.60085">
        <ele>112.1</ele>
        <time>2026-03-30T13:23:22.000Z</time>
      </trkpt>
      <trkpt lat="49.5149" lon="-1.60087">
        <ele>112.2</ele>
        <time>2026-03-30T13:23:23.000Z</time>
      </trkpt>
      <trkpt lat="49.51489" lon="-1.60088">
        <ele>112</ele>
        <time>2026-03-30T13:23:24.000Z</time>
      </trkpt>
      <trkpt lat="49.51488" lon="-1.6009">
        <ele>112.1</ele>
        <time>2026-03-30T13:23:25.000Z</time>
      </trkpt>
      <trkpt lat="49.51487" lon="-1.60091">
        <ele>112.1</ele>
        <time>2026-03-30T13:23:26.000Z</time>
      </trkpt>
      <trkpt lat="49.51486" lon="-1.60093">
        <ele>112.3</ele>
        <time>2026-03-30T13:23:27.000Z</time>
      </trkpt>
      <trkpt lat="49.51484" lon="-1.60095">
        <ele>112.9</ele>
        <time>2026-03-30T13:23:28.000Z</time>
      </trkpt>
      <trkpt lat="49.51484" lon="-1.60096">
        <ele>113</ele>
        <time>2026-03-30T13:23:29.000Z</time>
      </trkpt>
      <trkpt lat="49.51483" lon="-1.60098">
        <ele>113.1</ele>
        <time>2026-03-30T13:23:30.000Z</time>
      </trkpt>
      <trkpt lat="49.51482" lon="-1.601">
        <ele>113.1</ele>
        <time>2026-03-30T13:23:31.000Z</time>
      </trkpt>
      <trkpt lat="49.51481" lon="-1.60101">
        <ele>112.9</ele>
        <time>2026-03-30T13:23:32.000Z</time>
      </trkpt>
      <trkpt lat="49.51479" lon="-1.60103">
        <ele>112.4</ele>
        <time>2026-03-30T13:23:33.000Z</time>
      </trkpt>
      <trkpt lat="49.51478" lon="-1.60104">
        <ele>112.5</ele>
        <time>2026-03-30T13:23:34.000Z</time>
      </trkpt>
      <trkpt lat="49.51477" lon="-1.60105">
        <ele>111.9</ele>
        <time>2026-03-30T13:23:35.000Z</time>
      </trkpt>
      <trkpt lat="49.51476" lon="-1.60105">
        <ele>110.9</ele>
        <time>2026-03-30T13:23:36.000Z</time>
      </trkpt>
      <trkpt lat="49.51474" lon="-1.60105">
        <ele>110.3</ele>
        <time>2026-03-30T13:23:37.000Z</time>
      </trkpt>
      <trkpt lat="49.51473" lon="-1.60106">
        <ele>108.9</ele>
        <time>2026-03-30T13:23:38.000Z</time>
      </trkpt>
      <trkpt lat="49.51472" lon="-1.60106">
        <ele>108.3</ele>
        <time>2026-03-30T13:23:39.000Z</time>
      </trkpt>
      <trkpt lat="49.5147" lon="-1.60107">
        <ele>107.2</ele>
        <time>2026-03-30T13:23:40.000Z</time>
      </trkpt>
      <trkpt lat="49.51469" lon="-1.60107">
        <ele>107</ele>
        <time>2026-03-30T13:23:41.000Z</time>
      </trkpt>
      <trkpt lat="49.51468" lon="-1.60109">
        <ele>107.1</ele>
        <time>2026-03-30T13:23:42.000Z</time>
      </trkpt>
      <trkpt lat="49.51467" lon="-1.6011">
        <ele>106.9</ele>
        <time>2026-03-30T13:23:43.000Z</time>
      </trkpt>
      <trkpt lat="49.51466" lon="-1.60112">
        <ele>107.7</ele>
        <time>2026-03-30T13:23:44.000Z</time>
      </trkpt>
      <trkpt lat="49.51465" lon="-1.60113">
        <ele>108.3</ele>
        <time>2026-03-30T13:23:45.000Z</time>
      </trkpt>
      <trkpt lat="49.51464" lon="-1.60114">
        <ele>107.6</ele>
        <time>2026-03-30T13:23:46.000Z</time>
      </trkpt>
      <trkpt lat="49.51463" lon="-1.60115">
        <ele>108.2</ele>
        <time>2026-03-30T13:23:47.000Z</time>
      </trkpt>
      <trkpt lat="49.51461" lon="-1.60116">
        <ele>108.2</ele>
        <time>2026-03-30T13:23:48.000Z</time>
      </trkpt>
      <trkpt lat="49.5146" lon="-1.60117">
        <ele>109.3</ele>
        <time>2026-03-30T13:23:49.000Z</time>
      </trkpt>
      <trkpt lat="49.51459" lon="-1.60118">
        <ele>109.5</ele>
        <time>2026-03-30T13:23:50.000Z</time>
      </trkpt>
      <trkpt lat="49.51458" lon="-1.60119">
        <ele>109.4</ele>
        <time>2026-03-30T13:23:51.000Z</time>
      </trkpt>
      <trkpt lat="49.51456" lon="-1.6012">
        <ele>108</ele>
        <time>2026-03-30T13:23:52.000Z</time>
      </trkpt>
      <trkpt lat="49.51455" lon="-1.6012">
        <ele>107.5</ele>
        <time>2026-03-30T13:23:53.000Z</time>
      </trkpt>
      <trkpt lat="49.51453" lon="-1.6012">
        <ele>107.4</ele>
        <time>2026-03-30T13:23:54.000Z</time>
      </trkpt>
      <trkpt lat="49.51452" lon="-1.60121">
        <ele>107.4</ele>
        <time>2026-03-30T13:23:55.000Z</time>
      </trkpt>
      <trkpt lat="49.51451" lon="-1.60121">
        <ele>106.3</ele>
        <time>2026-03-30T13:23:56.000Z</time>
      </trkpt>
      <trkpt lat="49.51449" lon="-1.60122">
        <ele>106.5</ele>
        <time>2026-03-30T13:23:57.000Z</time>
      </trkpt>
      <trkpt lat="49.51448" lon="-1.60124">
        <ele>106.5</ele>
        <time>2026-03-30T13:23:58.000Z</time>
      </trkpt>
      <trkpt lat="49.51447" lon="-1.60125">
        <ele>106.7</ele>
        <time>2026-03-30T13:23:59.000Z</time>
      </trkpt>
      <trkpt lat="49.51446" lon="-1.60126">
        <ele>107</ele>
        <time>2026-03-30T13:24:00.000Z</time>
      </trkpt>
      <trkpt lat="49.51445" lon="-1.60127">
        <ele>108.1</ele>
        <time>2026-03-30T13:24:01.000Z</time>
      </trkpt>
      <trkpt lat="49.51444" lon="-1.60128">
        <ele>110.4</ele>
        <time>2026-03-30T13:24:02.000Z</time>
      </trkpt>
      <trkpt lat="49.51443" lon="-1.6013">
        <ele>111.6</ele>
        <time>2026-03-30T13:24:03.000Z</time>
      </trkpt>
      <trkpt lat="49.51441" lon="-1.60131">
        <ele>111.6</ele>
        <time>2026-03-30T13:24:04.000Z</time>
      </trkpt>
      <trkpt lat="49.5144" lon="-1.60131">
        <ele>112.1</ele>
        <time>2026-03-30T13:24:05.000Z</time>
      </trkpt>
      <trkpt lat="49.51439" lon="-1.60132">
        <ele>112.4</ele>
        <time>2026-03-30T13:24:06.000Z</time>
      </trkpt>
      <trkpt lat="49.51438" lon="-1.60133">
        <ele>113</ele>
        <time>2026-03-30T13:24:07.000Z</time>
      </trkpt>
      <trkpt lat="49.51437" lon="-1.60134">
        <ele>113.2</ele>
        <time>2026-03-30T13:24:08.000Z</time>
      </trkpt>
      <trkpt lat="49.51435" lon="-1.60134">
        <ele>113.3</ele>
        <time>2026-03-30T13:24:09.000Z</time>
      </trkpt>
      <trkpt lat="49.51434" lon="-1.60135">
        <ele>113.5</ele>
        <time>2026-03-30T13:24:10.000Z</time>
      </trkpt>
      <trkpt lat="49.51433" lon="-1.60136">
        <ele>113.8</ele>
        <time>2026-03-30T13:24:11.000Z</time>
      </trkpt>
      <trkpt lat="49.51431" lon="-1.60136">
        <ele>113.7</ele>
        <time>2026-03-30T13:24:12.000Z</time>
      </trkpt>
      <trkpt lat="49.5143" lon="-1.60138">
        <ele>115</ele>
        <time>2026-03-30T13:24:13.000Z</time>
      </trkpt>
      <trkpt lat="49.51429" lon="-1.60139">
        <ele>115.2</ele>
        <time>2026-03-30T13:24:14.000Z</time>
      </trkpt>
      <trkpt lat="49.51428" lon="-1.6014">
        <ele>115.8</ele>
        <time>2026-03-30T13:24:15.000Z</time>
      </trkpt>
      <trkpt lat="49.51426" lon="-1.60141">
        <ele>116.1</ele>
        <time>2026-03-30T13:24:16.000Z</time>
      </trkpt>
      <trkpt lat="49.51425" lon="-1.60142">
        <ele>116.1</ele>
        <time>2026-03-30T13:24:17.000Z</time>
      </trkpt>
      <trkpt lat="49.51424" lon="-1.60142">
        <ele>115.7</ele>
        <time>2026-03-30T13:24:18.000Z</time>
      </trkpt>
      <trkpt lat="49.51423" lon="-1.60143">
        <ele>115.8</ele>
        <time>2026-03-30T13:24:19.000Z</time>
      </trkpt>
      <trkpt lat="49.51421" lon="-1.60144">
        <ele>115.8</ele>
        <time>2026-03-30T13:24:20.000Z</time>
      </trkpt>
      <trkpt lat="49.5142" lon="-1.60145">
        <ele>116</ele>
        <time>2026-03-30T13:24:21.000Z</time>
      </trkpt>
      <trkpt lat="49.51419" lon="-1.60146">
        <ele>115.3</ele>
        <time>2026-03-30T13:24:22.000Z</time>
      </trkpt>
      <trkpt lat="49.51418" lon="-1.60147">
        <ele>115.7</ele>
        <time>2026-03-30T13:24:23.000Z</time>
      </trkpt>
      <trkpt lat="49.51416" lon="-1.60148">
        <ele>115.2</ele>
        <time>2026-03-30T13:24:24.000Z</time>
      </trkpt>
      <trkpt lat="49.51415" lon="-1.60149">
        <ele>115.7</ele>
        <time>2026-03-30T13:24:25.000Z</time>
      </trkpt>
      <trkpt lat="49.51414" lon="-1.60149">
        <ele>116</ele>
        <time>2026-03-30T13:24:26.000Z</time>
      </trkpt>
      <trkpt lat="49.51413" lon="-1.6015">
        <ele>116.4</ele>
        <time>2026-03-30T13:24:27.000Z</time>
      </trkpt>
      <trkpt lat="49.51411" lon="-1.60151">
        <ele>116.5</ele>
        <time>2026-03-30T13:24:28.000Z</time>
      </trkpt>
      <trkpt lat="49.5141" lon="-1.60152">
        <ele>116.5</ele>
        <time>2026-03-30T13:24:29.000Z</time>
      </trkpt>
      <trkpt lat="49.51409" lon="-1.60153">
        <ele>117.1</ele>
        <time>2026-03-30T13:24:30.000Z</time>
      </trkpt>
      <trkpt lat="49.51408" lon="-1.60154">
        <ele>118.7</ele>
        <time>2026-03-30T13:24:31.000Z</time>
      </trkpt>
      <trkpt lat="49.51407" lon="-1.60156">
        <ele>119</ele>
        <time>2026-03-30T13:24:32.000Z</time>
      </trkpt>
      <trkpt lat="49.51406" lon="-1.60156">
        <ele>119.3</ele>
        <time>2026-03-30T13:24:33.000Z</time>
      </trkpt>
      <trkpt lat="49.51404" lon="-1.60158">
        <ele>119.7</ele>
        <time>2026-03-30T13:24:34.000Z</time>
      </trkpt>
      <trkpt lat="49.51403" lon="-1.60159">
        <ele>120.5</ele>
        <time>2026-03-30T13:24:35.000Z</time>
      </trkpt>
      <trkpt lat="49.51402" lon="-1.6016">
        <ele>120.7</ele>
        <time>2026-03-30T13:24:36.000Z</time>
      </trkpt>
      <trkpt lat="49.51401" lon="-1.60161">
        <ele>120.2</ele>
        <time>2026-03-30T13:24:37.000Z</time>
      </trkpt>
      <trkpt lat="49.51399" lon="-1.60161">
        <ele>119.7</ele>
        <time>2026-03-30T13:24:38.000Z</time>
      </trkpt>
      <trkpt lat="49.51398" lon="-1.60162">
        <ele>119.4</ele>
        <time>2026-03-30T13:24:39.000Z</time>
      </trkpt>
      <trkpt lat="49.51397" lon="-1.60163">
        <ele>119.1</ele>
        <time>2026-03-30T13:24:40.000Z</time>
      </trkpt>
      <trkpt lat="49.51395" lon="-1.60164">
        <ele>119.2</ele>
        <time>2026-03-30T13:24:41.000Z</time>
      </trkpt>
      <trkpt lat="49.51394" lon="-1.60165">
        <ele>119.1</ele>
        <time>2026-03-30T13:24:42.000Z</time>
      </trkpt>
      <trkpt lat="49.51393" lon="-1.60166">
        <ele>119.1</ele>
        <time>2026-03-30T13:24:43.000Z</time>
      </trkpt>
      <trkpt lat="49.51392" lon="-1.60166">
        <ele>119.2</ele>
        <time>2026-03-30T13:24:44.000Z</time>
      </trkpt>
      <trkpt lat="49.51391" lon="-1.60167">
        <ele>118.9</ele>
        <time>2026-03-30T13:24:45.000Z</time>
      </trkpt>
      <trkpt lat="49.5139" lon="-1.60168">
        <ele>118.9</ele>
        <time>2026-03-30T13:24:46.000Z</time>
      </trkpt>
      <trkpt lat="49.51388" lon="-1.60169">
        <ele>118.8</ele>
        <time>2026-03-30T13:24:47.000Z</time>
      </trkpt>
      <trkpt lat="49.51387" lon="-1.60169">
        <ele>118.6</ele>
        <time>2026-03-30T13:24:48.000Z</time>
      </trkpt>
      <trkpt lat="49.51386" lon="-1.6017">
        <ele>119</ele>
        <time>2026-03-30T13:24:49.000Z</time>
      </trkpt>
      <trkpt lat="49.51385" lon="-1.60171">
        <ele>118.7</ele>
        <time>2026-03-30T13:24:50.000Z</time>
      </trkpt>
      <trkpt lat="49.51384" lon="-1.60172">
        <ele>118.5</ele>
        <time>2026-03-30T13:24:51.000Z</time>
      </trkpt>
      <trkpt lat="49.51383" lon="-1.60172">
        <ele>119</ele>
        <time>2026-03-30T13:24:52.000Z</time>
      </trkpt>
      <trkpt lat="49.51381" lon="-1.60173">
        <ele>119.4</ele>
        <time>2026-03-30T13:24:53.000Z</time>
      </trkpt>
      <trkpt lat="49.5138" lon="-1.60174">
        <ele>119.6</ele>
        <time>2026-03-30T13:24:54.000Z</time>
      </trkpt>
      <trkpt lat="49.51379" lon="-1.60175">
        <ele>120.3</ele>
        <time>2026-03-30T13:24:55.000Z</time>
      </trkpt>
      <trkpt lat="49.51377" lon="-1.60176">
        <ele>119.9</ele>
        <time>2026-03-30T13:24:56.000Z</time>
      </trkpt>
      <trkpt lat="49.51376" lon="-1.60177">
        <ele>119.8</ele>
        <time>2026-03-30T13:24:57.000Z</time>
      </trkpt>
      <trkpt lat="49.51375" lon="-1.60178">
        <ele>119.8</ele>
        <time>2026-03-30T13:24:58.000Z</time>
      </trkpt>
      <trkpt lat="49.51373" lon="-1.60178">
        <ele>119.1</ele>
        <time>2026-03-30T13:24:59.000Z</time>
      </trkpt>
      <trkpt lat="49.51372" lon="-1.60179">
        <ele>119.8</ele>
        <time>2026-03-30T13:25:00.000Z</time>
      </trkpt>
      <trkpt lat="49.51371" lon="-1.6018">
        <ele>120.1</ele>
        <time>2026-03-30T13:25:01.000Z</time>
      </trkpt>
      <trkpt lat="49.5137" lon="-1.60181">
        <ele>120.4</ele>
        <time>2026-03-30T13:25:02.000Z</time>
      </trkpt>
      <trkpt lat="49.51368" lon="-1.60182">
        <ele>120.8</ele>
        <time>2026-03-30T13:25:03.000Z</time>
      </trkpt>
      <trkpt lat="49.51367" lon="-1.60183">
        <ele>120.8</ele>
        <time>2026-03-30T13:25:04.000Z</time>
      </trkpt>
      <trkpt lat="49.51366" lon="-1.60184">
        <ele>120.6</ele>
        <time>2026-03-30T13:25:05.000Z</time>
      </trkpt>
      <trkpt lat="49.51364" lon="-1.60185">
        <ele>119.9</ele>
        <time>2026-03-30T13:25:06.000Z</time>
      </trkpt>
      <trkpt lat="49.51363" lon="-1.60185">
        <ele>119.9</ele>
        <time>2026-03-30T13:25:07.000Z</time>
      </trkpt>
      <trkpt lat="49.51362" lon="-1.60186">
        <ele>120.6</ele>
        <time>2026-03-30T13:25:08.000Z</time>
      </trkpt>
      <trkpt lat="49.5136" lon="-1.60186">
        <ele>120.1</ele>
        <time>2026-03-30T13:25:09.000Z</time>
      </trkpt>
      <trkpt lat="49.51359" lon="-1.60187">
        <ele>119.8</ele>
        <time>2026-03-30T13:25:10.000Z</time>
      </trkpt>
      <trkpt lat="49.51357" lon="-1.60188">
        <ele>119.7</ele>
        <time>2026-03-30T13:25:11.000Z</time>
      </trkpt>
      <trkpt lat="49.51356" lon="-1.60188">
        <ele>119.2</ele>
        <time>2026-03-30T13:25:12.000Z</time>
      </trkpt>
      <trkpt lat="49.51355" lon="-1.60189">
        <ele>119.4</ele>
        <time>2026-03-30T13:25:13.000Z</time>
      </trkpt>
      <trkpt lat="49.51353" lon="-1.6019">
        <ele>120.1</ele>
        <time>2026-03-30T13:25:14.000Z</time>
      </trkpt>
      <trkpt lat="49.51352" lon="-1.60191">
        <ele>120.4</ele>
        <time>2026-03-30T13:25:15.000Z</time>
      </trkpt>
      <trkpt lat="49.51351" lon="-1.60191">
        <ele>118.3</ele>
        <time>2026-03-30T13:25:16.000Z</time>
      </trkpt>
      <trkpt lat="49.5135" lon="-1.60191">
        <ele>117.9</ele>
        <time>2026-03-30T13:25:17.000Z</time>
      </trkpt>
      <trkpt lat="49.51348" lon="-1.60191">
        <ele>118</ele>
        <time>2026-03-30T13:25:18.000Z</time>
      </trkpt>
      <trkpt lat="49.51347" lon="-1.60191">
        <ele>117.6</ele>
        <time>2026-03-30T13:25:19.000Z</time>
      </trkpt>
      <trkpt lat="49.51346" lon="-1.60192">
        <ele>117.8</ele>
        <time>2026-03-30T13:25:20.000Z</time>
      </trkpt>
      <trkpt lat="49.51344" lon="-1.60192">
        <ele>118.1</ele>
        <time>2026-03-30T13:25:21.000Z</time>
      </trkpt>
      <trkpt lat="49.51343" lon="-1.60193">
        <ele>118.7</ele>
        <time>2026-03-30T13:25:22.000Z</time>
      </trkpt>
      <trkpt lat="49.51342" lon="-1.60193">
        <ele>118.9</ele>
        <time>2026-03-30T13:25:23.000Z</time>
      </trkpt>
      <trkpt lat="49.5134" lon="-1.60194">
        <ele>119.5</ele>
        <time>2026-03-30T13:25:24.000Z</time>
      </trkpt>
      <trkpt lat="49.51339" lon="-1.60194">
        <ele>120</ele>
        <time>2026-03-30T13:25:25.000Z</time>
      </trkpt>
      <trkpt lat="49.51338" lon="-1.60195">
        <ele>121.1</ele>
        <time>2026-03-30T13:25:26.000Z</time>
      </trkpt>
      <trkpt lat="49.51336" lon="-1.60195">
        <ele>121.8</ele>
        <time>2026-03-30T13:25:27.000Z</time>
      </trkpt>
      <trkpt lat="49.51335" lon="-1.60195">
        <ele>122.1</ele>
        <time>2026-03-30T13:25:28.000Z</time>
      </trkpt>
      <trkpt lat="49.51333" lon="-1.60196">
        <ele>122.5</ele>
        <time>2026-03-30T13:25:29.000Z</time>
      </trkpt>
      <trkpt lat="49.51332" lon="-1.60196">
        <ele>122.7</ele>
        <time>2026-03-30T13:25:30.000Z</time>
      </trkpt>
      <trkpt lat="49.51331" lon="-1.60196">
        <ele>122.8</ele>
        <time>2026-03-30T13:25:31.000Z</time>
      </trkpt>
      <trkpt lat="49.51329" lon="-1.60197">
        <ele>122.5</ele>
        <time>2026-03-30T13:25:32.000Z</time>
      </trkpt>
      <trkpt lat="49.51328" lon="-1.60197">
        <ele>122.4</ele>
        <time>2026-03-30T13:25:33.000Z</time>
      </trkpt>
      <trkpt lat="49.51327" lon="-1.60198">
        <ele>120.9</ele>
        <time>2026-03-30T13:25:34.000Z</time>
      </trkpt>
      <trkpt lat="49.51326" lon="-1.60198">
        <ele>120.1</ele>
        <time>2026-03-30T13:25:35.000Z</time>
      </trkpt>
      <trkpt lat="49.51324" lon="-1.60198">
        <ele>119.4</ele>
        <time>2026-03-30T13:25:36.000Z</time>
      </trkpt>
      <trkpt lat="49.51323" lon="-1.60199">
        <ele>119.1</ele>
        <time>2026-03-30T13:25:37.000Z</time>
      </trkpt>
      <trkpt lat="49.51322" lon="-1.60199">
        <ele>119.7</ele>
        <time>2026-03-30T13:25:38.000Z</time>
      </trkpt>
      <trkpt lat="49.51321" lon="-1.60199">
        <ele>120</ele>
        <time>2026-03-30T13:25:39.000Z</time>
      </trkpt>
      <trkpt lat="49.51319" lon="-1.60199">
        <ele>120.5</ele>
        <time>2026-03-30T13:25:40.000Z</time>
      </trkpt>
      <trkpt lat="49.51318" lon="-1.602">
        <ele>120.9</ele>
        <time>2026-03-30T13:25:41.000Z</time>
      </trkpt>
      <trkpt lat="49.51317" lon="-1.602">
        <ele>121.4</ele>
        <time>2026-03-30T13:25:42.000Z</time>
      </trkpt>
      <trkpt lat="49.51316" lon="-1.602">
        <ele>122.1</ele>
        <time>2026-03-30T13:25:43.000Z</time>
      </trkpt>
      <trkpt lat="49.51314" lon="-1.60201">
        <ele>122.5</ele>
        <time>2026-03-30T13:25:44.000Z</time>
      </trkpt>
      <trkpt lat="49.51313" lon="-1.60202">
        <ele>122.3</ele>
        <time>2026-03-30T13:25:45.000Z</time>
      </trkpt>
      <trkpt lat="49.51312" lon="-1.60203">
        <ele>122.4</ele>
        <time>2026-03-30T13:25:46.000Z</time>
      </trkpt>
      <trkpt lat="49.51311" lon="-1.60204">
        <ele>122.3</ele>
        <time>2026-03-30T13:25:47.000Z</time>
      </trkpt>
      <trkpt lat="49.5131" lon="-1.60205">
        <ele>121.8</ele>
        <time>2026-03-30T13:25:48.000Z</time>
      </trkpt>
      <trkpt lat="49.51309" lon="-1.60207">
        <ele>122.1</ele>
        <time>2026-03-30T13:25:49.000Z</time>
      </trkpt>
      <trkpt lat="49.51307" lon="-1.60208">
        <ele>122.1</ele>
        <time>2026-03-30T13:25:50.000Z</time>
      </trkpt>
      <trkpt lat="49.51306" lon="-1.60209">
        <ele>122.1</ele>
        <time>2026-03-30T13:25:51.000Z</time>
      </trkpt>
      <trkpt lat="49.51305" lon="-1.6021">
        <ele>120.9</ele>
        <time>2026-03-30T13:25:52.000Z</time>
      </trkpt>
      <trkpt lat="49.51304" lon="-1.60211">
        <ele>120.5</ele>
        <time>2026-03-30T13:25:53.000Z</time>
      </trkpt>
      <trkpt lat="49.51303" lon="-1.60213">
        <ele>120.7</ele>
        <time>2026-03-30T13:25:54.000Z</time>
      </trkpt>
      <trkpt lat="49.51302" lon="-1.60214">
        <ele>121.6</ele>
        <time>2026-03-30T13:25:55.000Z</time>
      </trkpt>
      <trkpt lat="49.51301" lon="-1.60216">
        <ele>121.8</ele>
        <time>2026-03-30T13:25:56.000Z</time>
      </trkpt>
      <trkpt lat="49.513" lon="-1.60218">
        <ele>121.7</ele>
        <time>2026-03-30T13:25:57.000Z</time>
      </trkpt>
      <trkpt lat="49.51299" lon="-1.60219">
        <ele>121.9</ele>
        <time>2026-03-30T13:25:58.000Z</time>
      </trkpt>
      <trkpt lat="49.51297" lon="-1.6022">
        <ele>122.1</ele>
        <time>2026-03-30T13:25:59.000Z</time>
      </trkpt>
      <trkpt lat="49.51296" lon="-1.60222">
        <ele>121.8</ele>
        <time>2026-03-30T13:26:00.000Z</time>
      </trkpt>
      <trkpt lat="49.51295" lon="-1.60224">
        <ele>122</ele>
        <time>2026-03-30T13:26:01.000Z</time>
      </trkpt>
      <trkpt lat="49.51294" lon="-1.60225">
        <ele>121.7</ele>
        <time>2026-03-30T13:26:02.000Z</time>
      </trkpt>
      <trkpt lat="49.51293" lon="-1.60227">
        <ele>122</ele>
        <time>2026-03-30T13:26:03.000Z</time>
      </trkpt>
      <trkpt lat="49.51292" lon="-1.60228">
        <ele>121.9</ele>
        <time>2026-03-30T13:26:04.000Z</time>
      </trkpt>
      <trkpt lat="49.51291" lon="-1.6023">
        <ele>122.1</ele>
        <time>2026-03-30T13:26:05.000Z</time>
      </trkpt>
      <trkpt lat="49.5129" lon="-1.60232">
        <ele>121.8</ele>
        <time>2026-03-30T13:26:06.000Z</time>
      </trkpt>
      <trkpt lat="49.51289" lon="-1.60233">
        <ele>122</ele>
        <time>2026-03-30T13:26:07.000Z</time>
      </trkpt>
      <trkpt lat="49.51288" lon="-1.60235">
        <ele>122.2</ele>
        <time>2026-03-30T13:26:08.000Z</time>
      </trkpt>
      <trkpt lat="49.51287" lon="-1.60236">
        <ele>122.3</ele>
        <time>2026-03-30T13:26:09.000Z</time>
      </trkpt>
      <trkpt lat="49.51286" lon="-1.60237">
        <ele>122</ele>
        <time>2026-03-30T13:26:10.000Z</time>
      </trkpt>
      <trkpt lat="49.51284" lon="-1.60238">
        <ele>121.9</ele>
        <time>2026-03-30T13:26:11.000Z</time>
      </trkpt>
      <trkpt lat="49.51283" lon="-1.6024">
        <ele>121.6</ele>
        <time>2026-03-30T13:26:12.000Z</time>
      </trkpt>
      <trkpt lat="49.51283" lon="-1.60241">
        <ele>121</ele>
        <time>2026-03-30T13:26:13.000Z</time>
      </trkpt>
      <trkpt lat="49.51282" lon="-1.60242">
        <ele>121</ele>
        <time>2026-03-30T13:26:14.000Z</time>
      </trkpt>
      <trkpt lat="49.5128" lon="-1.60243">
        <ele>121.1</ele>
        <time>2026-03-30T13:26:15.000Z</time>
      </trkpt>
      <trkpt lat="49.51279" lon="-1.60244">
        <ele>121.3</ele>
        <time>2026-03-30T13:26:16.000Z</time>
      </trkpt>
      <trkpt lat="49.51278" lon="-1.60246">
        <ele>121.2</ele>
        <time>2026-03-30T13:26:17.000Z</time>
      </trkpt>
      <trkpt lat="49.51277" lon="-1.60247">
        <ele>122.1</ele>
        <time>2026-03-30T13:26:18.000Z</time>
      </trkpt>
      <trkpt lat="49.51276" lon="-1.60248">
        <ele>122.1</ele>
        <time>2026-03-30T13:26:19.000Z</time>
      </trkpt>
      <trkpt lat="49.51275" lon="-1.6025">
        <ele>121.9</ele>
        <time>2026-03-30T13:26:20.000Z</time>
      </trkpt>
      <trkpt lat="49.51274" lon="-1.60252">
        <ele>122</ele>
        <time>2026-03-30T13:26:21.000Z</time>
      </trkpt>
      <trkpt lat="49.51273" lon="-1.60253">
        <ele>121.5</ele>
        <time>2026-03-30T13:26:22.000Z</time>
      </trkpt>
      <trkpt lat="49.51272" lon="-1.60253">
        <ele>120.3</ele>
        <time>2026-03-30T13:26:23.000Z</time>
      </trkpt>
      <trkpt lat="49.51271" lon="-1.60254">
        <ele>120</ele>
        <time>2026-03-30T13:26:24.000Z</time>
      </trkpt>
      <trkpt lat="49.5127" lon="-1.60254">
        <ele>119.3</ele>
        <time>2026-03-30T13:26:25.000Z</time>
      </trkpt>
      <trkpt lat="49.51268" lon="-1.60255">
        <ele>119.1</ele>
        <time>2026-03-30T13:26:26.000Z</time>
      </trkpt>
      <trkpt lat="49.51267" lon="-1.60256">
        <ele>119.2</ele>
        <time>2026-03-30T13:26:27.000Z</time>
      </trkpt>
      <trkpt lat="49.51266" lon="-1.60258">
        <ele>119.2</ele>
        <time>2026-03-30T13:26:28.000Z</time>
      </trkpt>
      <trkpt lat="49.51265" lon="-1.60259">
        <ele>119.5</ele>
        <time>2026-03-30T13:26:29.000Z</time>
      </trkpt>
      <trkpt lat="49.51264" lon="-1.60261">
        <ele>119.2</ele>
        <time>2026-03-30T13:26:30.000Z</time>
      </trkpt>
      <trkpt lat="49.51263" lon="-1.60262">
        <ele>118.9</ele>
        <time>2026-03-30T13:26:31.000Z</time>
      </trkpt>
      <trkpt lat="49.51262" lon="-1.60264">
        <ele>118.4</ele>
        <time>2026-03-30T13:26:32.000Z</time>
      </trkpt>
      <trkpt lat="49.51261" lon="-1.60265">
        <ele>118.9</ele>
        <time>2026-03-30T13:26:33.000Z</time>
      </trkpt>
      <trkpt lat="49.5126" lon="-1.60266">
        <ele>118.6</ele>
        <time>2026-03-30T13:26:34.000Z</time>
      </trkpt>
      <trkpt lat="49.51259" lon="-1.60267">
        <ele>119.1</ele>
        <time>2026-03-30T13:26:35.000Z</time>
      </trkpt>
      <trkpt lat="49.51258" lon="-1.60268">
        <ele>118.9</ele>
        <time>2026-03-30T13:26:36.000Z</time>
      </trkpt>
      <trkpt lat="49.51257" lon="-1.60269">
        <ele>119.3</ele>
        <time>2026-03-30T13:26:37.000Z</time>
      </trkpt>
      <trkpt lat="49.51255" lon="-1.6027">
        <ele>119.5</ele>
        <time>2026-03-30T13:26:38.000Z</time>
      </trkpt>
      <trkpt lat="49.51254" lon="-1.60271">
        <ele>119</ele>
        <time>2026-03-30T13:26:39.000Z</time>
      </trkpt>
      <trkpt lat="49.51253" lon="-1.60272">
        <ele>119</ele>
        <time>2026-03-30T13:26:40.000Z</time>
      </trkpt>
      <trkpt lat="49.51252" lon="-1.60272">
        <ele>119.4</ele>
        <time>2026-03-30T13:26:41.000Z</time>
      </trkpt>
      <trkpt lat="49.51251" lon="-1.60273">
        <ele>119.3</ele>
        <time>2026-03-30T13:26:42.000Z</time>
      </trkpt>
      <trkpt lat="49.5125" lon="-1.60275">
        <ele>120</ele>
        <time>2026-03-30T13:26:43.000Z</time>
      </trkpt>
      <trkpt lat="49.51249" lon="-1.60277">
        <ele>119.7</ele>
        <time>2026-03-30T13:26:44.000Z</time>
      </trkpt>
      <trkpt lat="49.51249" lon="-1.6028">
        <ele>118.8</ele>
        <time>2026-03-30T13:26:45.000Z</time>
      </trkpt>
      <trkpt lat="49.51248" lon="-1.60282">
        <ele>119.1</ele>
        <time>2026-03-30T13:26:46.000Z</time>
      </trkpt>
      <trkpt lat="49.51248" lon="-1.60284">
        <ele>119.3</ele>
        <time>2026-03-30T13:26:47.000Z</time>
      </trkpt>
      <trkpt lat="49.51248" lon="-1.60287">
        <ele>119.2</ele>
        <time>2026-03-30T13:26:48.000Z</time>
      </trkpt>
      <trkpt lat="49.51248" lon="-1.60289">
        <ele>119.4</ele>
        <time>2026-03-30T13:26:49.000Z</time>
      </trkpt>
      <trkpt lat="49.51249" lon="-1.60291">
        <ele>119.6</ele>
        <time>2026-03-30T13:26:50.000Z</time>
      </trkpt>
      <trkpt lat="49.51249" lon="-1.60293">
        <ele>120.1</ele>
        <time>2026-03-30T13:26:51.000Z</time>
      </trkpt>
      <trkpt lat="49.5125" lon="-1.60295">
        <ele>120.4</ele>
        <time>2026-03-30T13:26:52.000Z</time>
      </trkpt>
      <trkpt lat="49.5125" lon="-1.60298">
        <ele>120.4</ele>
        <time>2026-03-30T13:26:53.000Z</time>
      </trkpt>
      <trkpt lat="49.51251" lon="-1.603">
        <ele>119.3</ele>
        <time>2026-03-30T13:26:54.000Z</time>
      </trkpt>
      <trkpt lat="49.51251" lon="-1.60302">
        <ele>118.6</ele>
        <time>2026-03-30T13:26:55.000Z</time>
      </trkpt>
      <trkpt lat="49.51251" lon="-1.60304">
        <ele>118.7</ele>
        <time>2026-03-30T13:26:56.000Z</time>
      </trkpt>
      <trkpt lat="49.51251" lon="-1.60307">
        <ele>119</ele>
        <time>2026-03-30T13:26:57.000Z</time>
      </trkpt>
      <trkpt lat="49.51251" lon="-1.60308">
        <ele>119.8</ele>
        <time>2026-03-30T13:26:58.000Z</time>
      </trkpt>
      <trkpt lat="49.51251" lon="-1.60311">
        <ele>119.7</ele>
        <time>2026-03-30T13:26:59.000Z</time>
      </trkpt>
      <trkpt lat="49.5125" lon="-1.60312">
        <ele>119.5</ele>
        <time>2026-03-30T13:27:00.000Z</time>
      </trkpt>
      <trkpt lat="49.51249" lon="-1.60314">
        <ele>119.8</ele>
        <time>2026-03-30T13:27:01.000Z</time>
      </trkpt>
      <trkpt lat="49.51248" lon="-1.60316">
        <ele>119.8</ele>
        <time>2026-03-30T13:27:02.000Z</time>
      </trkpt>
      <trkpt lat="49.51247" lon="-1.60317">
        <ele>120.1</ele>
        <time>2026-03-30T13:27:03.000Z</time>
      </trkpt>
      <trkpt lat="49.51246" lon="-1.60318">
        <ele>120</ele>
        <time>2026-03-30T13:27:04.000Z</time>
      </trkpt>
      <trkpt lat="49.51245" lon="-1.60319">
        <ele>120.2</ele>
        <time>2026-03-30T13:27:05.000Z</time>
      </trkpt>
      <trkpt lat="49.51243" lon="-1.6032">
        <ele>119.8</ele>
        <time>2026-03-30T13:27:06.000Z</time>
      </trkpt>
      <trkpt lat="49.51243" lon="-1.60322">
        <ele>119.8</ele>
        <time>2026-03-30T13:27:07.000Z</time>
      </trkpt>
      <trkpt lat="49.51241" lon="-1.60323">
        <ele>119.7</ele>
        <time>2026-03-30T13:27:08.000Z</time>
      </trkpt>
      <trkpt lat="49.5124" lon="-1.60323">
        <ele>119.2</ele>
        <time>2026-03-30T13:27:09.000Z</time>
      </trkpt>
      <trkpt lat="49.51238" lon="-1.60324">
        <ele>119.7</ele>
        <time>2026-03-30T13:27:10.000Z</time>
      </trkpt>
      <trkpt lat="49.51237" lon="-1.60325">
        <ele>120.1</ele>
        <time>2026-03-30T13:27:11.000Z</time>
      </trkpt>
      <trkpt lat="49.51236" lon="-1.60326">
        <ele>120.5</ele>
        <time>2026-03-30T13:27:12.000Z</time>
      </trkpt>
      <trkpt lat="49.51234" lon="-1.60327">
        <ele>120.1</ele>
        <time>2026-03-30T13:27:13.000Z</time>
      </trkpt>
      <trkpt lat="49.51233" lon="-1.60328">
        <ele>120.1</ele>
        <time>2026-03-30T13:27:14.000Z</time>
      </trkpt>
      <trkpt lat="49.51231" lon="-1.60328">
        <ele>119.9</ele>
        <time>2026-03-30T13:27:15.000Z</time>
      </trkpt>
      <trkpt lat="49.51229" lon="-1.60329">
        <ele>119.9</ele>
        <time>2026-03-30T13:27:16.000Z</time>
      </trkpt>
      <trkpt lat="49.51228" lon="-1.6033">
        <ele>119.3</ele>
        <time>2026-03-30T13:27:17.000Z</time>
      </trkpt>
      <trkpt lat="49.51226" lon="-1.6033">
        <ele>119.2</ele>
        <time>2026-03-30T13:27:18.000Z</time>
      </trkpt>
      <trkpt lat="49.51225" lon="-1.60331">
        <ele>119.8</ele>
        <time>2026-03-30T13:27:19.000Z</time>
      </trkpt>
      <trkpt lat="49.51223" lon="-1.60331">
        <ele>120.3</ele>
        <time>2026-03-30T13:27:20.000Z</time>
      </trkpt>
      <trkpt lat="49.51222" lon="-1.60332">
        <ele>119.9</ele>
        <time>2026-03-30T13:27:21.000Z</time>
      </trkpt>
      <trkpt lat="49.51221" lon="-1.60333">
        <ele>120.8</ele>
        <time>2026-03-30T13:27:22.000Z</time>
      </trkpt>
      <trkpt lat="49.51219" lon="-1.60334">
        <ele>120</ele>
        <time>2026-03-30T13:27:23.000Z</time>
      </trkpt>
      <trkpt lat="49.51218" lon="-1.60334">
        <ele>120.2</ele>
        <time>2026-03-30T13:27:24.000Z</time>
      </trkpt>
      <trkpt lat="49.51216" lon="-1.60335">
        <ele>120.7</ele>
        <time>2026-03-30T13:27:25.000Z</time>
      </trkpt>
      <trkpt lat="49.51215" lon="-1.60336">
        <ele>121.1</ele>
        <time>2026-03-30T13:27:26.000Z</time>
      </trkpt>
      <trkpt lat="49.51214" lon="-1.60336">
        <ele>122.5</ele>
        <time>2026-03-30T13:27:27.000Z</time>
      </trkpt>
      <trkpt lat="49.51213" lon="-1.60337">
        <ele>123.3</ele>
        <time>2026-03-30T13:27:28.000Z</time>
      </trkpt>
      <trkpt lat="49.51211" lon="-1.60338">
        <ele>123.6</ele>
        <time>2026-03-30T13:27:29.000Z</time>
      </trkpt>
      <trkpt lat="49.5121" lon="-1.60338">
        <ele>124.2</ele>
        <time>2026-03-30T13:27:30.000Z</time>
      </trkpt>
      <trkpt lat="49.51209" lon="-1.60339">
        <ele>123.7</ele>
        <time>2026-03-30T13:27:31.000Z</time>
      </trkpt>
      <trkpt lat="49.51207" lon="-1.6034">
        <ele>124.1</ele>
        <time>2026-03-30T13:27:32.000Z</time>
      </trkpt>
      <trkpt lat="49.51206" lon="-1.60341">
        <ele>124.6</ele>
        <time>2026-03-30T13:27:33.000Z</time>
      </trkpt>
      <trkpt lat="49.51205" lon="-1.60341">
        <ele>124.4</ele>
        <time>2026-03-30T13:27:34.000Z</time>
      </trkpt>
      <trkpt lat="49.51203" lon="-1.60342">
        <ele>124.4</ele>
        <time>2026-03-30T13:27:35.000Z</time>
      </trkpt>
      <trkpt lat="49.51202" lon="-1.60342">
        <ele>124.4</ele>
        <time>2026-03-30T13:27:36.000Z</time>
      </trkpt>
      <trkpt lat="49.512" lon="-1.60342">
        <ele>124.4</ele>
        <time>2026-03-30T13:27:37.000Z</time>
      </trkpt>
      <trkpt lat="49.51199" lon="-1.60343">
        <ele>124</ele>
        <time>2026-03-30T13:27:38.000Z</time>
      </trkpt>
      <trkpt lat="49.51198" lon="-1.60343">
        <ele>124</ele>
        <time>2026-03-30T13:27:39.000Z</time>
      </trkpt>
      <trkpt lat="49.51196" lon="-1.60344">
        <ele>123.7</ele>
        <time>2026-03-30T13:27:40.000Z</time>
      </trkpt>
      <trkpt lat="49.51195" lon="-1.60344">
        <ele>123.6</ele>
        <time>2026-03-30T13:27:41.000Z</time>
      </trkpt>
      <trkpt lat="49.51194" lon="-1.60345">
        <ele>124.2</ele>
        <time>2026-03-30T13:27:42.000Z</time>
      </trkpt>
      <trkpt lat="49.51192" lon="-1.60345">
        <ele>124.6</ele>
        <time>2026-03-30T13:27:43.000Z</time>
      </trkpt>
      <trkpt lat="49.51191" lon="-1.60345">
        <ele>124.8</ele>
        <time>2026-03-30T13:27:44.000Z</time>
      </trkpt>
      <trkpt lat="49.51189" lon="-1.60346">
        <ele>126.4</ele>
        <time>2026-03-30T13:27:45.000Z</time>
      </trkpt>
      <trkpt lat="49.51188" lon="-1.60347">
        <ele>127.2</ele>
        <time>2026-03-30T13:27:46.000Z</time>
      </trkpt>
      <trkpt lat="49.51186" lon="-1.60347">
        <ele>126.8</ele>
        <time>2026-03-30T13:27:47.000Z</time>
      </trkpt>
      <trkpt lat="49.51185" lon="-1.60348">
        <ele>126.6</ele>
        <time>2026-03-30T13:27:48.000Z</time>
      </trkpt>
      <trkpt lat="49.51183" lon="-1.60349">
        <ele>126.2</ele>
        <time>2026-03-30T13:27:49.000Z</time>
      </trkpt>
      <trkpt lat="49.51182" lon="-1.60349">
        <ele>125.7</ele>
        <time>2026-03-30T13:27:50.000Z</time>
      </trkpt>
      <trkpt lat="49.5118" lon="-1.6035">
        <ele>126.3</ele>
        <time>2026-03-30T13:27:51.000Z</time>
      </trkpt>
      <trkpt lat="49.51179" lon="-1.6035">
        <ele>126.5</ele>
        <time>2026-03-30T13:27:52.000Z</time>
      </trkpt>
      <trkpt lat="49.51177" lon="-1.6035">
        <ele>126.5</ele>
        <time>2026-03-30T13:27:53.000Z</time>
      </trkpt>
      <trkpt lat="49.51176" lon="-1.6035">
        <ele>126.2</ele>
        <time>2026-03-30T13:27:54.000Z</time>
      </trkpt>
      <trkpt lat="49.51175" lon="-1.6035">
        <ele>125.9</ele>
        <time>2026-03-30T13:27:55.000Z</time>
      </trkpt>
      <trkpt lat="49.51173" lon="-1.60351">
        <ele>125.8</ele>
        <time>2026-03-30T13:27:56.000Z</time>
      </trkpt>
      <trkpt lat="49.51172" lon="-1.60352">
        <ele>125.7</ele>
        <time>2026-03-30T13:27:57.000Z</time>
      </trkpt>
      <trkpt lat="49.5117" lon="-1.60352">
        <ele>125.8</ele>
        <time>2026-03-30T13:27:58.000Z</time>
      </trkpt>
      <trkpt lat="49.51169" lon="-1.60353">
        <ele>126.3</ele>
        <time>2026-03-30T13:27:59.000Z</time>
      </trkpt>
      <trkpt lat="49.51168" lon="-1.60353">
        <ele>126</ele>
        <time>2026-03-30T13:28:00.000Z</time>
      </trkpt>
      <trkpt lat="49.51167" lon="-1.60353">
        <ele>125.9</ele>
        <time>2026-03-30T13:28:01.000Z</time>
      </trkpt>
      <trkpt lat="49.51165" lon="-1.60354">
        <ele>126.1</ele>
        <time>2026-03-30T13:28:02.000Z</time>
      </trkpt>
      <trkpt lat="49.51164" lon="-1.60355">
        <ele>126</ele>
        <time>2026-03-30T13:28:03.000Z</time>
      </trkpt>
      <trkpt lat="49.51163" lon="-1.60355">
        <ele>126.2</ele>
        <time>2026-03-30T13:28:04.000Z</time>
      </trkpt>
      <trkpt lat="49.51161" lon="-1.60356">
        <ele>126.3</ele>
        <time>2026-03-30T13:28:05.000Z</time>
      </trkpt>
      <trkpt lat="49.5116" lon="-1.60356">
        <ele>126</ele>
        <time>2026-03-30T13:28:06.000Z</time>
      </trkpt>
      <trkpt lat="49.51159" lon="-1.60356">
        <ele>126.2</ele>
        <time>2026-03-30T13:28:07.000Z</time>
      </trkpt>
      <trkpt lat="49.51157" lon="-1.60357">
        <ele>125.8</ele>
        <time>2026-03-30T13:28:08.000Z</time>
      </trkpt>
      <trkpt lat="49.51156" lon="-1.60357">
        <ele>125.9</ele>
        <time>2026-03-30T13:28:09.000Z</time>
      </trkpt>
      <trkpt lat="49.51155" lon="-1.60357">
        <ele>125.8</ele>
        <time>2026-03-30T13:28:10.000Z</time>
      </trkpt>
      <trkpt lat="49.51153" lon="-1.60358">
        <ele>126.1</ele>
        <time>2026-03-30T13:28:11.000Z</time>
      </trkpt>
      <trkpt lat="49.51152" lon="-1.60358">
        <ele>126.3</ele>
        <time>2026-03-30T13:28:12.000Z</time>
      </trkpt>
      <trkpt lat="49.51151" lon="-1.60359">
        <ele>126.7</ele>
        <time>2026-03-30T13:28:13.000Z</time>
      </trkpt>
      <trkpt lat="49.51149" lon="-1.6036">
        <ele>127</ele>
        <time>2026-03-30T13:28:14.000Z</time>
      </trkpt>
      <trkpt lat="49.51148" lon="-1.60361">
        <ele>127.2</ele>
        <time>2026-03-30T13:28:15.000Z</time>
      </trkpt>
      <trkpt lat="49.51147" lon="-1.60362">
        <ele>127.4</ele>
        <time>2026-03-30T13:28:16.000Z</time>
      </trkpt>
      <trkpt lat="49.51145" lon="-1.60363">
        <ele>127.4</ele>
        <time>2026-03-30T13:28:17.000Z</time>
      </trkpt>
      <trkpt lat="49.51144" lon="-1.60364">
        <ele>126.8</ele>
        <time>2026-03-30T13:28:18.000Z</time>
      </trkpt>
      <trkpt lat="49.51143" lon="-1.60365">
        <ele>126.7</ele>
        <time>2026-03-30T13:28:19.000Z</time>
      </trkpt>
      <trkpt lat="49.51142" lon="-1.60367">
        <ele>126.4</ele>
        <time>2026-03-30T13:28:20.000Z</time>
      </trkpt>
      <trkpt lat="49.51141" lon="-1.60369">
        <ele>126.5</ele>
        <time>2026-03-30T13:28:21.000Z</time>
      </trkpt>
      <trkpt lat="49.5114" lon="-1.6037">
        <ele>125.5</ele>
        <time>2026-03-30T13:28:22.000Z</time>
      </trkpt>
      <trkpt lat="49.5114" lon="-1.60372">
        <ele>125.2</ele>
        <time>2026-03-30T13:28:23.000Z</time>
      </trkpt>
      <trkpt lat="49.5114" lon="-1.60373">
        <ele>124.6</ele>
        <time>2026-03-30T13:28:24.000Z</time>
      </trkpt>
      <trkpt lat="49.5114" lon="-1.60375">
        <ele>125</ele>
        <time>2026-03-30T13:28:25.000Z</time>
      </trkpt>
      <trkpt lat="49.5114" lon="-1.60377">
        <ele>124.6</ele>
        <time>2026-03-30T13:28:26.000Z</time>
      </trkpt>
      <trkpt lat="49.51139" lon="-1.60379">
        <ele>124.8</ele>
        <time>2026-03-30T13:28:27.000Z</time>
      </trkpt>
      <trkpt lat="49.51139" lon="-1.60381">
        <ele>125.2</ele>
        <time>2026-03-30T13:28:28.000Z</time>
      </trkpt>
      <trkpt lat="49.5114" lon="-1.60382">
        <ele>125.5</ele>
        <time>2026-03-30T13:28:29.000Z</time>
      </trkpt>
      <trkpt lat="49.5114" lon="-1.60385">
        <ele>125.7</ele>
        <time>2026-03-30T13:28:30.000Z</time>
      </trkpt>
      <trkpt lat="49.5114" lon="-1.60387">
        <ele>126.4</ele>
        <time>2026-03-30T13:28:31.000Z</time>
      </trkpt>
      <trkpt lat="49.5114" lon="-1.60389">
        <ele>126.7</ele>
        <time>2026-03-30T13:28:32.000Z</time>
      </trkpt>
      <trkpt lat="49.5114" lon="-1.6039">
        <ele>126.3</ele>
        <time>2026-03-30T13:28:33.000Z</time>
      </trkpt>
      <trkpt lat="49.51141" lon="-1.60392">
        <ele>126.1</ele>
        <time>2026-03-30T13:28:34.000Z</time>
      </trkpt>
      <trkpt lat="49.5114" lon="-1.60395">
        <ele>125.9</ele>
        <time>2026-03-30T13:28:35.000Z</time>
      </trkpt>
      <trkpt lat="49.51139" lon="-1.60397">
        <ele>125.9</ele>
        <time>2026-03-30T13:28:36.000Z</time>
      </trkpt>
      <trkpt lat="49.51139" lon="-1.60399">
        <ele>125.6</ele>
        <time>2026-03-30T13:28:37.000Z</time>
      </trkpt>
      <trkpt lat="49.51138" lon="-1.604">
        <ele>125.4</ele>
        <time>2026-03-30T13:28:38.000Z</time>
      </trkpt>
      <trkpt lat="49.51137" lon="-1.60402">
        <ele>125.8</ele>
        <time>2026-03-30T13:28:39.000Z</time>
      </trkpt>
      <trkpt lat="49.51136" lon="-1.60404">
        <ele>125.5</ele>
        <time>2026-03-30T13:28:40.000Z</time>
      </trkpt>
      <trkpt lat="49.51135" lon="-1.60405">
        <ele>125.7</ele>
        <time>2026-03-30T13:28:41.000Z</time>
      </trkpt>
      <trkpt lat="49.51133" lon="-1.60406">
        <ele>125.6</ele>
        <time>2026-03-30T13:28:42.000Z</time>
      </trkpt>
      <trkpt lat="49.51132" lon="-1.60407">
        <ele>125.8</ele>
        <time>2026-03-30T13:28:43.000Z</time>
      </trkpt>
      <trkpt lat="49.51131" lon="-1.60408">
        <ele>126.3</ele>
        <time>2026-03-30T13:28:44.000Z</time>
      </trkpt>
      <trkpt lat="49.51129" lon="-1.60409">
        <ele>126.4</ele>
        <time>2026-03-30T13:28:45.000Z</time>
      </trkpt>
      <trkpt lat="49.51128" lon="-1.6041">
        <ele>126.9</ele>
        <time>2026-03-30T13:28:46.000Z</time>
      </trkpt>
      <trkpt lat="49.51127" lon="-1.6041">
        <ele>127.2</ele>
        <time>2026-03-30T13:28:47.000Z</time>
      </trkpt>
      <trkpt lat="49.51125" lon="-1.60411">
        <ele>126.8</ele>
        <time>2026-03-30T13:28:48.000Z</time>
      </trkpt>
      <trkpt lat="49.51124" lon="-1.60411">
        <ele>126.7</ele>
        <time>2026-03-30T13:28:49.000Z</time>
      </trkpt>
      <trkpt lat="49.51123" lon="-1.60411">
        <ele>126.1</ele>
        <time>2026-03-30T13:28:50.000Z</time>
      </trkpt>
      <trkpt lat="49.51121" lon="-1.60412">
        <ele>126</ele>
        <time>2026-03-30T13:28:51.000Z</time>
      </trkpt>
      <trkpt lat="49.5112" lon="-1.60412">
        <ele>125.9</ele>
        <time>2026-03-30T13:28:52.000Z</time>
      </trkpt>
      <trkpt lat="49.51119" lon="-1.60412">
        <ele>126</ele>
        <time>2026-03-30T13:28:53.000Z</time>
      </trkpt>
      <trkpt lat="49.51117" lon="-1.60412">
        <ele>125.9</ele>
        <time>2026-03-30T13:28:54.000Z</time>
      </trkpt>
      <trkpt lat="49.51116" lon="-1.60412">
        <ele>126.2</ele>
        <time>2026-03-30T13:28:55.000Z</time>
      </trkpt>
      <trkpt lat="49.51115" lon="-1.60413">
        <ele>125.7</ele>
        <time>2026-03-30T13:28:56.000Z</time>
      </trkpt>
      <trkpt lat="49.51114" lon="-1.60413">
        <ele>126</ele>
        <time>2026-03-30T13:28:57.000Z</time>
      </trkpt>
      <trkpt lat="49.51112" lon="-1.60414">
        <ele>126.2</ele>
        <time>2026-03-30T13:28:58.000Z</time>
      </trkpt>
      <trkpt lat="49.51111" lon="-1.60414">
        <ele>126.7</ele>
        <time>2026-03-30T13:28:59.000Z</time>
      </trkpt>
      <trkpt lat="49.5111" lon="-1.60414">
        <ele>126.6</ele>
        <time>2026-03-30T13:29:00.000Z</time>
      </trkpt>
      <trkpt lat="49.51109" lon="-1.60415">
        <ele>126.2</ele>
        <time>2026-03-30T13:29:01.000Z</time>
      </trkpt>
      <trkpt lat="49.51108" lon="-1.60415">
        <ele>126.1</ele>
        <time>2026-03-30T13:29:02.000Z</time>
      </trkpt>
      <trkpt lat="49.51106" lon="-1.60415">
        <ele>125.9</ele>
        <time>2026-03-30T13:29:03.000Z</time>
      </trkpt>
      <trkpt lat="49.51105" lon="-1.60416">
        <ele>125.3</ele>
        <time>2026-03-30T13:29:04.000Z</time>
      </trkpt>
      <trkpt lat="49.51104" lon="-1.60417">
        <ele>124.8</ele>
        <time>2026-03-30T13:29:05.000Z</time>
      </trkpt>
      <trkpt lat="49.51102" lon="-1.60417">
        <ele>124</ele>
        <time>2026-03-30T13:29:06.000Z</time>
      </trkpt>
      <trkpt lat="49.51101" lon="-1.60418">
        <ele>123.8</ele>
        <time>2026-03-30T13:29:07.000Z</time>
      </trkpt>
      <trkpt lat="49.511" lon="-1.60418">
        <ele>124</ele>
        <time>2026-03-30T13:29:08.000Z</time>
      </trkpt>
      <trkpt lat="49.51098" lon="-1.60419">
        <ele>124.4</ele>
        <time>2026-03-30T13:29:09.000Z</time>
      </trkpt>
      <trkpt lat="49.51097" lon="-1.6042">
        <ele>126</ele>
        <time>2026-03-30T13:29:10.000Z</time>
      </trkpt>
      <trkpt lat="49.51095" lon="-1.60421">
        <ele>126</ele>
        <time>2026-03-30T13:29:11.000Z</time>
      </trkpt>
      <trkpt lat="49.51094" lon="-1.60422">
        <ele>127.2</ele>
        <time>2026-03-30T13:29:12.000Z</time>
      </trkpt>
      <trkpt lat="49.51092" lon="-1.60423">
        <ele>127.5</ele>
        <time>2026-03-30T13:29:13.000Z</time>
      </trkpt>
      <trkpt lat="49.51091" lon="-1.60423">
        <ele>127.6</ele>
        <time>2026-03-30T13:29:14.000Z</time>
      </trkpt>
      <trkpt lat="49.51089" lon="-1.60424">
        <ele>127.6</ele>
        <time>2026-03-30T13:29:15.000Z</time>
      </trkpt>
      <trkpt lat="49.51088" lon="-1.60425">
        <ele>127.7</ele>
        <time>2026-03-30T13:29:16.000Z</time>
      </trkpt>
      <trkpt lat="49.51087" lon="-1.60426">
        <ele>127.6</ele>
        <time>2026-03-30T13:29:17.000Z</time>
      </trkpt>
      <trkpt lat="49.51085" lon="-1.60426">
        <ele>127</ele>
        <time>2026-03-30T13:29:18.000Z</time>
      </trkpt>
      <trkpt lat="49.51084" lon="-1.60427">
        <ele>127.3</ele>
        <time>2026-03-30T13:29:19.000Z</time>
      </trkpt>
      <trkpt lat="49.51082" lon="-1.60427">
        <ele>127.4</ele>
        <time>2026-03-30T13:29:20.000Z</time>
      </trkpt>
      <trkpt lat="49.51081" lon="-1.60427">
        <ele>127.5</ele>
        <time>2026-03-30T13:29:21.000Z</time>
      </trkpt>
      <trkpt lat="49.5108" lon="-1.60428">
        <ele>128</ele>
        <time>2026-03-30T13:29:22.000Z</time>
      </trkpt>
      <trkpt lat="49.51078" lon="-1.60428">
        <ele>127.7</ele>
        <time>2026-03-30T13:29:23.000Z</time>
      </trkpt>
      <trkpt lat="49.51077" lon="-1.60429">
        <ele>127.9</ele>
        <time>2026-03-30T13:29:24.000Z</time>
      </trkpt>
      <trkpt lat="49.51075" lon="-1.60429">
        <ele>128.1</ele>
        <time>2026-03-30T13:29:25.000Z</time>
      </trkpt>
      <trkpt lat="49.51074" lon="-1.6043">
        <ele>128.1</ele>
        <time>2026-03-30T13:29:26.000Z</time>
      </trkpt>
      <trkpt lat="49.51073" lon="-1.6043">
        <ele>128.4</ele>
        <time>2026-03-30T13:29:27.000Z</time>
      </trkpt>
      <trkpt lat="49.51072" lon="-1.6043">
        <ele>128.5</ele>
        <time>2026-03-30T13:29:28.000Z</time>
      </trkpt>
      <trkpt lat="49.51071" lon="-1.60431">
        <ele>129</ele>
        <time>2026-03-30T13:29:29.000Z</time>
      </trkpt>
      <trkpt lat="49.5107" lon="-1.60432">
        <ele>129.4</ele>
        <time>2026-03-30T13:29:30.000Z</time>
      </trkpt>
      <trkpt lat="49.51068" lon="-1.60432">
        <ele>129.5</ele>
        <time>2026-03-30T13:29:31.000Z</time>
      </trkpt>
      <trkpt lat="49.51067" lon="-1.60432">
        <ele>130.1</ele>
        <time>2026-03-30T13:29:32.000Z</time>
      </trkpt>
      <trkpt lat="49.51065" lon="-1.60432">
        <ele>130.5</ele>
        <time>2026-03-30T13:29:33.000Z</time>
      </trkpt>
      <trkpt lat="49.51064" lon="-1.60431">
        <ele>130.4</ele>
        <time>2026-03-30T13:29:34.000Z</time>
      </trkpt>
      <trkpt lat="49.51063" lon="-1.60431">
        <ele>130.1</ele>
        <time>2026-03-30T13:29:35.000Z</time>
      </trkpt>
      <trkpt lat="49.51061" lon="-1.6043">
        <ele>128.9</ele>
        <time>2026-03-30T13:29:36.000Z</time>
      </trkpt>
      <trkpt lat="49.51061" lon="-1.60428">
        <ele>128.1</ele>
        <time>2026-03-30T13:29:37.000Z</time>
      </trkpt>
      <trkpt lat="49.5106" lon="-1.60426">
        <ele>127.8</ele>
        <time>2026-03-30T13:29:38.000Z</time>
      </trkpt>
      <trkpt lat="49.51059" lon="-1.60424">
        <ele>128.1</ele>
        <time>2026-03-30T13:29:39.000Z</time>
      </trkpt>
      <trkpt lat="49.51058" lon="-1.60422">
        <ele>128.2</ele>
        <time>2026-03-30T13:29:40.000Z</time>
      </trkpt>
      <trkpt lat="49.51057" lon="-1.6042">
        <ele>128.4</ele>
        <time>2026-03-30T13:29:41.000Z</time>
      </trkpt>
      <trkpt lat="49.51057" lon="-1.60417">
        <ele>128</ele>
        <time>2026-03-30T13:29:42.000Z</time>
      </trkpt>
      <trkpt lat="49.51056" lon="-1.60415">
        <ele>128</ele>
        <time>2026-03-30T13:29:43.000Z</time>
      </trkpt>
      <trkpt lat="49.51056" lon="-1.60413">
        <ele>128.2</ele>
        <time>2026-03-30T13:29:44.000Z</time>
      </trkpt>
      <trkpt lat="49.51055" lon="-1.60411">
        <ele>128.6</ele>
        <time>2026-03-30T13:29:45.000Z</time>
      </trkpt>
      <trkpt lat="49.51055" lon="-1.60408">
        <ele>128.4</ele>
        <time>2026-03-30T13:29:46.000Z</time>
      </trkpt>
      <trkpt lat="49.51054" lon="-1.60407">
        <ele>129</ele>
        <time>2026-03-30T13:29:47.000Z</time>
      </trkpt>
      <trkpt lat="49.51054" lon="-1.60404">
        <ele>129.5</ele>
        <time>2026-03-30T13:29:48.000Z</time>
      </trkpt>
      <trkpt lat="49.51053" lon="-1.60402">
        <ele>130.1</ele>
        <time>2026-03-30T13:29:49.000Z</time>
      </trkpt>
      <trkpt lat="49.51053" lon="-1.604">
        <ele>130</ele>
        <time>2026-03-30T13:29:50.000Z</time>
      </trkpt>
      <trkpt lat="49.51052" lon="-1.60398">
        <ele>130</ele>
        <time>2026-03-30T13:29:51.000Z</time>
      </trkpt>
      <trkpt lat="49.51051" lon="-1.60395">
        <ele>130</ele>
        <time>2026-03-30T13:29:52.000Z</time>
      </trkpt>
      <trkpt lat="49.51051" lon="-1.60393">
        <ele>130</ele>
        <time>2026-03-30T13:29:53.000Z</time>
      </trkpt>
      <trkpt lat="49.5105" lon="-1.60391">
        <ele>130</ele>
        <time>2026-03-30T13:29:54.000Z</time>
      </trkpt>
      <trkpt lat="49.5105" lon="-1.60388">
        <ele>130</ele>
        <time>2026-03-30T13:29:55.000Z</time>
      </trkpt>
      <trkpt lat="49.51049" lon="-1.60386">
        <ele>130</ele>
        <time>2026-03-30T13:29:56.000Z</time>
      </trkpt>
      <trkpt lat="49.51049" lon="-1.60384">
        <ele>129.7</ele>
        <time>2026-03-30T13:29:57.000Z</time>
      </trkpt>
      <trkpt lat="49.51048" lon="-1.60381">
        <ele>129.7</ele>
        <time>2026-03-30T13:29:58.000Z</time>
      </trkpt>
      <trkpt lat="49.51048" lon="-1.60379">
        <ele>129.7</ele>
        <time>2026-03-30T13:29:59.000Z</time>
      </trkpt>
      <trkpt lat="49.51048" lon="-1.60377">
        <ele>129.5</ele>
        <time>2026-03-30T13:30:00.000Z</time>
      </trkpt>
      <trkpt lat="49.51047" lon="-1.60375">
        <ele>129.2</ele>
        <time>2026-03-30T13:30:01.000Z</time>
      </trkpt>
      <trkpt lat="49.51047" lon="-1.60373">
        <ele>129.4</ele>
        <time>2026-03-30T13:30:02.000Z</time>
      </trkpt>
      <trkpt lat="49.51047" lon="-1.60371">
        <ele>129.6</ele>
        <time>2026-03-30T13:30:03.000Z</time>
      </trkpt>
      <trkpt lat="49.51047" lon="-1.60368">
        <ele>129.4</ele>
        <time>2026-03-30T13:30:04.000Z</time>
      </trkpt>
      <trkpt lat="49.51047" lon="-1.60366">
        <ele>129.6</ele>
        <time>2026-03-30T13:30:05.000Z</time>
      </trkpt>
      <trkpt lat="49.51047" lon="-1.60364">
        <ele>129.1</ele>
        <time>2026-03-30T13:30:06.000Z</time>
      </trkpt>
      <trkpt lat="49.51047" lon="-1.60361">
        <ele>128.8</ele>
        <time>2026-03-30T13:30:07.000Z</time>
      </trkpt>
      <trkpt lat="49.51047" lon="-1.60359">
        <ele>128.6</ele>
        <time>2026-03-30T13:30:08.000Z</time>
      </trkpt>
      <trkpt lat="49.51047" lon="-1.60357">
        <ele>128.3</ele>
        <time>2026-03-30T13:30:09.000Z</time>
      </trkpt>
      <trkpt lat="49.51047" lon="-1.60354">
        <ele>127.9</ele>
        <time>2026-03-30T13:30:10.000Z</time>
      </trkpt>
      <trkpt lat="49.51047" lon="-1.60352">
        <ele>128.4</ele>
        <time>2026-03-30T13:30:11.000Z</time>
      </trkpt>
      <trkpt lat="49.51047" lon="-1.6035">
        <ele>128.7</ele>
        <time>2026-03-30T13:30:12.000Z</time>
      </trkpt>
      <trkpt lat="49.51047" lon="-1.60348">
        <ele>128.7</ele>
        <time>2026-03-30T13:30:13.000Z</time>
      </trkpt>
      <trkpt lat="49.51047" lon="-1.60346">
        <ele>128.5</ele>
        <time>2026-03-30T13:30:14.000Z</time>
      </trkpt>
      <trkpt lat="49.51046" lon="-1.60344">
        <ele>128.9</ele>
        <time>2026-03-30T13:30:15.000Z</time>
      </trkpt>
      <trkpt lat="49.51046" lon="-1.60342">
        <ele>128.4</ele>
        <time>2026-03-30T13:30:16.000Z</time>
      </trkpt>
      <trkpt lat="49.51047" lon="-1.60339">
        <ele>127.9</ele>
        <time>2026-03-30T13:30:17.000Z</time>
      </trkpt>
      <trkpt lat="49.51047" lon="-1.60337">
        <ele>127.9</ele>
        <time>2026-03-30T13:30:18.000Z</time>
      </trkpt>
      <trkpt lat="49.51047" lon="-1.60335">
        <ele>127.4</ele>
        <time>2026-03-30T13:30:19.000Z</time>
      </trkpt>
      <trkpt lat="49.51047" lon="-1.60333">
        <ele>127.3</ele>
        <time>2026-03-30T13:30:20.000Z</time>
      </trkpt>
      <trkpt lat="49.51047" lon="-1.60331">
        <ele>127.4</ele>
        <time>2026-03-30T13:30:21.000Z</time>
      </trkpt>
      <trkpt lat="49.51047" lon="-1.60329">
        <ele>126.9</ele>
        <time>2026-03-30T13:30:22.000Z</time>
      </trkpt>
      <trkpt lat="49.51047" lon="-1.60326">
        <ele>126.8</ele>
        <time>2026-03-30T13:30:23.000Z</time>
      </trkpt>
      <trkpt lat="49.51046" lon="-1.60324">
        <ele>126.5</ele>
        <time>2026-03-30T13:30:24.000Z</time>
      </trkpt>
      <trkpt lat="49.51046" lon="-1.60322">
        <ele>126.5</ele>
        <time>2026-03-30T13:30:25.000Z</time>
      </trkpt>
      <trkpt lat="49.51046" lon="-1.6032">
        <ele>126.6</ele>
        <time>2026-03-30T13:30:26.000Z</time>
      </trkpt>
      <trkpt lat="49.51045" lon="-1.60318">
        <ele>127.1</ele>
        <time>2026-03-30T13:30:27.000Z</time>
      </trkpt>
      <trkpt lat="49.51045" lon="-1.60317">
        <ele>126.6</ele>
        <time>2026-03-30T13:30:28.000Z</time>
      </trkpt>
      <trkpt lat="49.51044" lon="-1.60315">
        <ele>125.8</ele>
        <time>2026-03-30T13:30:29.000Z</time>
      </trkpt>
      <trkpt lat="49.51044" lon="-1.60313">
        <ele>125.1</ele>
        <time>2026-03-30T13:30:30.000Z</time>
      </trkpt>
      <trkpt lat="49.51044" lon="-1.60311">
        <ele>125.3</ele>
        <time>2026-03-30T13:30:31.000Z</time>
      </trkpt>
      <trkpt lat="49.51043" lon="-1.60308">
        <ele>125.4</ele>
        <time>2026-03-30T13:30:32.000Z</time>
      </trkpt>
      <trkpt lat="49.51043" lon="-1.60306">
        <ele>125.7</ele>
        <time>2026-03-30T13:30:33.000Z</time>
      </trkpt>
      <trkpt lat="49.51044" lon="-1.60303">
        <ele>125.6</ele>
        <time>2026-03-30T13:30:34.000Z</time>
      </trkpt>
      <trkpt lat="49.51044" lon="-1.60301">
        <ele>126.2</ele>
        <time>2026-03-30T13:30:35.000Z</time>
      </trkpt>
      <trkpt lat="49.51044" lon="-1.60298">
        <ele>126.6</ele>
        <time>2026-03-30T13:30:36.000Z</time>
      </trkpt>
      <trkpt lat="49.51044" lon="-1.60296">
        <ele>126.5</ele>
        <time>2026-03-30T13:30:37.000Z</time>
      </trkpt>
      <trkpt lat="49.51044" lon="-1.60294">
        <ele>127.1</ele>
        <time>2026-03-30T13:30:38.000Z</time>
      </trkpt>
      <trkpt lat="49.51044" lon="-1.60291">
        <ele>127.3</ele>
        <time>2026-03-30T13:30:39.000Z</time>
      </trkpt>
      <trkpt lat="49.51043" lon="-1.60289">
        <ele>127.6</ele>
        <time>2026-03-30T13:30:40.000Z</time>
      </trkpt>
      <trkpt lat="49.51043" lon="-1.60287">
        <ele>128</ele>
        <time>2026-03-30T13:30:41.000Z</time>
      </trkpt>
      <trkpt lat="49.51044" lon="-1.60284">
        <ele>127.8</ele>
        <time>2026-03-30T13:30:42.000Z</time>
      </trkpt>
      <trkpt lat="49.51044" lon="-1.60282">
        <ele>127.8</ele>
        <time>2026-03-30T13:30:43.000Z</time>
      </trkpt>
      <trkpt lat="49.51043" lon="-1.6028">
        <ele>127.6</ele>
        <time>2026-03-30T13:30:44.000Z</time>
      </trkpt>
      <trkpt lat="49.51044" lon="-1.60278">
        <ele>127.8</ele>
        <time>2026-03-30T13:30:45.000Z</time>
      </trkpt>
      <trkpt lat="49.51043" lon="-1.60275">
        <ele>127.4</ele>
        <time>2026-03-30T13:30:46.000Z</time>
      </trkpt>
      <trkpt lat="49.51043" lon="-1.60273">
        <ele>126.8</ele>
        <time>2026-03-30T13:30:47.000Z</time>
      </trkpt>
      <trkpt lat="49.51043" lon="-1.6027">
        <ele>126.2</ele>
        <time>2026-03-30T13:30:48.000Z</time>
      </trkpt>
      <trkpt lat="49.51043" lon="-1.60268">
        <ele>125.3</ele>
        <time>2026-03-30T13:30:49.000Z</time>
      </trkpt>
      <trkpt lat="49.51043" lon="-1.60266">
        <ele>125.1</ele>
        <time>2026-03-30T13:30:50.000Z</time>
      </trkpt>
      <trkpt lat="49.51042" lon="-1.60264">
        <ele>124.1</ele>
        <time>2026-03-30T13:30:51.000Z</time>
      </trkpt>
      <trkpt lat="49.51042" lon="-1.60262">
        <ele>123</ele>
        <time>2026-03-30T13:30:52.000Z</time>
      </trkpt>
      <trkpt lat="49.51042" lon="-1.6026">
        <ele>122.6</ele>
        <time>2026-03-30T13:30:53.000Z</time>
      </trkpt>
      <trkpt lat="49.51043" lon="-1.60258">
        <ele>123</ele>
        <time>2026-03-30T13:30:54.000Z</time>
      </trkpt>
      <trkpt lat="49.51043" lon="-1.60256">
        <ele>122.8</ele>
        <time>2026-03-30T13:30:55.000Z</time>
      </trkpt>
      <trkpt lat="49.51042" lon="-1.60254">
        <ele>122.8</ele>
        <time>2026-03-30T13:30:56.000Z</time>
      </trkpt>
      <trkpt lat="49.51042" lon="-1.60252">
        <ele>122.7</ele>
        <time>2026-03-30T13:30:57.000Z</time>
      </trkpt>
      <trkpt lat="49.51042" lon="-1.60249">
        <ele>122.8</ele>
        <time>2026-03-30T13:30:58.000Z</time>
      </trkpt>
      <trkpt lat="49.51042" lon="-1.60247">
        <ele>123.3</ele>
        <time>2026-03-30T13:30:59.000Z</time>
      </trkpt>
      <trkpt lat="49.51042" lon="-1.60245">
        <ele>123.8</ele>
        <time>2026-03-30T13:31:00.000Z</time>
      </trkpt>
      <trkpt lat="49.51041" lon="-1.60243">
        <ele>124.8</ele>
        <time>2026-03-30T13:31:01.000Z</time>
      </trkpt>
      <trkpt lat="49.51041" lon="-1.60241">
        <ele>125.2</ele>
        <time>2026-03-30T13:31:02.000Z</time>
      </trkpt>
      <trkpt lat="49.51041" lon="-1.60238">
        <ele>125.5</ele>
        <time>2026-03-30T13:31:03.000Z</time>
      </trkpt>
      <trkpt lat="49.5104" lon="-1.60236">
        <ele>125.7</ele>
        <time>2026-03-30T13:31:04.000Z</time>
      </trkpt>
      <trkpt lat="49.5104" lon="-1.60234">
        <ele>126.1</ele>
        <time>2026-03-30T13:31:05.000Z</time>
      </trkpt>
      <trkpt lat="49.51039" lon="-1.60232">
        <ele>126.3</ele>
        <time>2026-03-30T13:31:06.000Z</time>
      </trkpt>
      <trkpt lat="49.51038" lon="-1.6023">
        <ele>126.3</ele>
        <time>2026-03-30T13:31:07.000Z</time>
      </trkpt>
      <trkpt lat="49.51038" lon="-1.60228">
        <ele>126.1</ele>
        <time>2026-03-30T13:31:08.000Z</time>
      </trkpt>
      <trkpt lat="49.51038" lon="-1.60226">
        <ele>126.7</ele>
        <time>2026-03-30T13:31:09.000Z</time>
      </trkpt>
      <trkpt lat="49.51037" lon="-1.60224">
        <ele>126.9</ele>
        <time>2026-03-30T13:31:10.000Z</time>
      </trkpt>
      <trkpt lat="49.51037" lon="-1.60222">
        <ele>127.2</ele>
        <time>2026-03-30T13:31:11.000Z</time>
      </trkpt>
      <trkpt lat="49.51036" lon="-1.60219">
        <ele>126.8</ele>
        <time>2026-03-30T13:31:12.000Z</time>
      </trkpt>
      <trkpt lat="49.51036" lon="-1.60217">
        <ele>126.9</ele>
        <time>2026-03-30T13:31:13.000Z</time>
      </trkpt>
      <trkpt lat="49.51035" lon="-1.60215">
        <ele>126.8</ele>
        <time>2026-03-30T13:31:14.000Z</time>
      </trkpt>
      <trkpt lat="49.51035" lon="-1.60213">
        <ele>126</ele>
        <time>2026-03-30T13:31:15.000Z</time>
      </trkpt>
      <trkpt lat="49.51034" lon="-1.60211">
        <ele>126</ele>
        <time>2026-03-30T13:31:16.000Z</time>
      </trkpt>
      <trkpt lat="49.51033" lon="-1.60209">
        <ele>126</ele>
        <time>2026-03-30T13:31:17.000Z</time>
      </trkpt>
      <trkpt lat="49.51033" lon="-1.60207">
        <ele>125</ele>
        <time>2026-03-30T13:31:18.000Z</time>
      </trkpt>
      <trkpt lat="49.51033" lon="-1.60205">
        <ele>125.3</ele>
        <time>2026-03-30T13:31:19.000Z</time>
      </trkpt>
      <trkpt lat="49.51032" lon="-1.60203">
        <ele>125.8</ele>
        <time>2026-03-30T13:31:20.000Z</time>
      </trkpt>
      <trkpt lat="49.51032" lon="-1.602">
        <ele>125.9</ele>
        <time>2026-03-30T13:31:21.000Z</time>
      </trkpt>
      <trkpt lat="49.51032" lon="-1.60198">
        <ele>126.3</ele>
        <time>2026-03-30T13:31:22.000Z</time>
      </trkpt>
      <trkpt lat="49.51032" lon="-1.60196">
        <ele>126.2</ele>
        <time>2026-03-30T13:31:23.000Z</time>
      </trkpt>
      <trkpt lat="49.51031" lon="-1.60194">
        <ele>125.6</ele>
        <time>2026-03-30T13:31:24.000Z</time>
      </trkpt>
      <trkpt lat="49.51031" lon="-1.60192">
        <ele>125.3</ele>
        <time>2026-03-30T13:31:25.000Z</time>
      </trkpt>
      <trkpt lat="49.5103" lon="-1.6019">
        <ele>125.3</ele>
        <time>2026-03-30T13:31:26.000Z</time>
      </trkpt>
      <trkpt lat="49.51029" lon="-1.60189">
        <ele>125.2</ele>
        <time>2026-03-30T13:31:27.000Z</time>
      </trkpt>
      <trkpt lat="49.51028" lon="-1.60187">
        <ele>125.2</ele>
        <time>2026-03-30T13:31:28.000Z</time>
      </trkpt>
      <trkpt lat="49.51028" lon="-1.60184">
        <ele>125.8</ele>
        <time>2026-03-30T13:31:29.000Z</time>
      </trkpt>
      <trkpt lat="49.51027" lon="-1.60182">
        <ele>125.3</ele>
        <time>2026-03-30T13:31:30.000Z</time>
      </trkpt>
      <trkpt lat="49.51027" lon="-1.6018">
        <ele>125.6</ele>
        <time>2026-03-30T13:31:31.000Z</time>
      </trkpt>
      <trkpt lat="49.51027" lon="-1.60178">
        <ele>125.8</ele>
        <time>2026-03-30T13:31:32.000Z</time>
      </trkpt>
      <trkpt lat="49.51026" lon="-1.60176">
        <ele>125.4</ele>
        <time>2026-03-30T13:31:33.000Z</time>
      </trkpt>
      <trkpt lat="49.51025" lon="-1.60174">
        <ele>125.2</ele>
        <time>2026-03-30T13:31:34.000Z</time>
      </trkpt>
      <trkpt lat="49.51025" lon="-1.60172">
        <ele>125.5</ele>
        <time>2026-03-30T13:31:35.000Z</time>
      </trkpt>
      <trkpt lat="49.51024" lon="-1.6017">
        <ele>125.9</ele>
        <time>2026-03-30T13:31:36.000Z</time>
      </trkpt>
      <trkpt lat="49.51023" lon="-1.60168">
        <ele>125.7</ele>
        <time>2026-03-30T13:31:37.000Z</time>
      </trkpt>
      <trkpt lat="49.51022" lon="-1.60166">
        <ele>125.9</ele>
        <time>2026-03-30T13:31:38.000Z</time>
      </trkpt>
      <trkpt lat="49.51022" lon="-1.60164">
        <ele>126.6</ele>
        <time>2026-03-30T13:31:39.000Z</time>
      </trkpt>
      <trkpt lat="49.51021" lon="-1.60163">
        <ele>127.3</ele>
        <time>2026-03-30T13:31:40.000Z</time>
      </trkpt>
      <trkpt lat="49.51021" lon="-1.6016">
        <ele>126.5</ele>
        <time>2026-03-30T13:31:41.000Z</time>
      </trkpt>
      <trkpt lat="49.5102" lon="-1.60159">
        <ele>126.9</ele>
        <time>2026-03-30T13:31:42.000Z</time>
      </trkpt>
      <trkpt lat="49.5102" lon="-1.60157">
        <ele>127.7</ele>
        <time>2026-03-30T13:31:43.000Z</time>
      </trkpt>
      <trkpt lat="49.5102" lon="-1.60155">
        <ele>128.4</ele>
        <time>2026-03-30T13:31:44.000Z</time>
      </trkpt>
      <trkpt lat="49.51019" lon="-1.60152">
        <ele>128.9</ele>
        <time>2026-03-30T13:31:45.000Z</time>
      </trkpt>
      <trkpt lat="49.51018" lon="-1.6015">
        <ele>128.2</ele>
        <time>2026-03-30T13:31:46.000Z</time>
      </trkpt>
      <trkpt lat="49.51017" lon="-1.60148">
        <ele>129.2</ele>
        <time>2026-03-30T13:31:47.000Z</time>
      </trkpt>
      <trkpt lat="49.51016" lon="-1.60147">
        <ele>130.1</ele>
        <time>2026-03-30T13:31:48.000Z</time>
      </trkpt>
      <trkpt lat="49.51015" lon="-1.60145">
        <ele>130.1</ele>
        <time>2026-03-30T13:31:49.000Z</time>
      </trkpt>
      <trkpt lat="49.51014" lon="-1.60144">
        <ele>129.8</ele>
        <time>2026-03-30T13:31:50.000Z</time>
      </trkpt>
      <trkpt lat="49.51013" lon="-1.60142">
        <ele>129.3</ele>
        <time>2026-03-30T13:31:51.000Z</time>
      </trkpt>
      <trkpt lat="49.51012" lon="-1.6014">
        <ele>128.5</ele>
        <time>2026-03-30T13:31:52.000Z</time>
      </trkpt>
      <trkpt lat="49.51011" lon="-1.60138">
        <ele>128.7</ele>
        <time>2026-03-30T13:31:53.000Z</time>
      </trkpt>
      <trkpt lat="49.51011" lon="-1.60136">
        <ele>127.8</ele>
        <time>2026-03-30T13:31:54.000Z</time>
      </trkpt>
      <trkpt lat="49.5101" lon="-1.60134">
        <ele>127.5</ele>
        <time>2026-03-30T13:31:55.000Z</time>
      </trkpt>
      <trkpt lat="49.51009" lon="-1.60133">
        <ele>127.4</ele>
        <time>2026-03-30T13:31:56.000Z</time>
      </trkpt>
      <trkpt lat="49.51008" lon="-1.60131">
        <ele>127.1</ele>
        <time>2026-03-30T13:31:57.000Z</time>
      </trkpt>
      <trkpt lat="49.51007" lon="-1.60129">
        <ele>126.7</ele>
        <time>2026-03-30T13:31:58.000Z</time>
      </trkpt>
      <trkpt lat="49.51007" lon="-1.60127">
        <ele>125</ele>
        <time>2026-03-30T13:31:59.000Z</time>
      </trkpt>
      <trkpt lat="49.51006" lon="-1.60125">
        <ele>125.1</ele>
        <time>2026-03-30T13:32:00.000Z</time>
      </trkpt>
      <trkpt lat="49.51005" lon="-1.60123">
        <ele>124.3</ele>
        <time>2026-03-30T13:32:01.000Z</time>
      </trkpt>
      <trkpt lat="49.51004" lon="-1.60122">
        <ele>124.2</ele>
        <time>2026-03-30T13:32:02.000Z</time>
      </trkpt>
      <trkpt lat="49.51003" lon="-1.6012">
        <ele>124.8</ele>
        <time>2026-03-30T13:32:03.000Z</time>
      </trkpt>
      <trkpt lat="49.51002" lon="-1.60119">
        <ele>126</ele>
        <time>2026-03-30T13:32:04.000Z</time>
      </trkpt>
      <trkpt lat="49.51001" lon="-1.60117">
        <ele>124.8</ele>
        <time>2026-03-30T13:32:05.000Z</time>
      </trkpt>
      <trkpt lat="49.51" lon="-1.60115">
        <ele>124.9</ele>
        <time>2026-03-30T13:32:06.000Z</time>
      </trkpt>
      <trkpt lat="49.50999" lon="-1.60114">
        <ele>125.4</ele>
        <time>2026-03-30T13:32:07.000Z</time>
      </trkpt>
      <trkpt lat="49.50998" lon="-1.60112">
        <ele>125.4</ele>
        <time>2026-03-30T13:32:08.000Z</time>
      </trkpt>
      <trkpt lat="49.50998" lon="-1.60111">
        <ele>125.2</ele>
        <time>2026-03-30T13:32:09.000Z</time>
      </trkpt>
      <trkpt lat="49.50996" lon="-1.60109">
        <ele>125</ele>
        <time>2026-03-30T13:32:10.000Z</time>
      </trkpt>
      <trkpt lat="49.50995" lon="-1.60108">
        <ele>124.8</ele>
        <time>2026-03-30T13:32:11.000Z</time>
      </trkpt>
      <trkpt lat="49.50995" lon="-1.60107">
        <ele>124.5</ele>
        <time>2026-03-30T13:32:12.000Z</time>
      </trkpt>
      <trkpt lat="49.50994" lon="-1.60105">
        <ele>125</ele>
        <time>2026-03-30T13:32:13.000Z</time>
      </trkpt>
      <trkpt lat="49.50994" lon="-1.60104">
        <ele>124.9</ele>
        <time>2026-03-30T13:32:14.000Z</time>
      </trkpt>
      <trkpt lat="49.50993" lon="-1.60103">
        <ele>125</ele>
        <time>2026-03-30T13:32:15.000Z</time>
      </trkpt>
      <trkpt lat="49.50991" lon="-1.60101">
        <ele>124.5</ele>
        <time>2026-03-30T13:32:16.000Z</time>
      </trkpt>
      <trkpt lat="49.5099" lon="-1.60099">
        <ele>124.3</ele>
        <time>2026-03-30T13:32:17.000Z</time>
      </trkpt>
      <trkpt lat="49.50988" lon="-1.60097">
        <ele>124.6</ele>
        <time>2026-03-30T13:32:18.000Z</time>
      </trkpt>
      <trkpt lat="49.50987" lon="-1.60095">
        <ele>124.4</ele>
        <time>2026-03-30T13:32:19.000Z</time>
      </trkpt>
      <trkpt lat="49.50987" lon="-1.60093">
        <ele>124.9</ele>
        <time>2026-03-30T13:32:20.000Z</time>
      </trkpt>
      <trkpt lat="49.50986" lon="-1.60091">
        <ele>125.2</ele>
        <time>2026-03-30T13:32:21.000Z</time>
      </trkpt>
      <trkpt lat="49.50985" lon="-1.60089">
        <ele>124.5</ele>
        <time>2026-03-30T13:32:22.000Z</time>
      </trkpt>
      <trkpt lat="49.50984" lon="-1.60087">
        <ele>124.7</ele>
        <time>2026-03-30T13:32:23.000Z</time>
      </trkpt>
      <trkpt lat="49.50983" lon="-1.60086">
        <ele>124.8</ele>
        <time>2026-03-30T13:32:24.000Z</time>
      </trkpt>
      <trkpt lat="49.50982" lon="-1.60084">
        <ele>125.6</ele>
        <time>2026-03-30T13:32:25.000Z</time>
      </trkpt>
      <trkpt lat="49.50982" lon="-1.60082">
        <ele>125.8</ele>
        <time>2026-03-30T13:32:26.000Z</time>
      </trkpt>
      <trkpt lat="49.50981" lon="-1.6008">
        <ele>126.2</ele>
        <time>2026-03-30T13:32:27.000Z</time>
      </trkpt>
      <trkpt lat="49.5098" lon="-1.60079">
        <ele>126.7</ele>
        <time>2026-03-30T13:32:28.000Z</time>
      </trkpt>
      <trkpt lat="49.50979" lon="-1.60077">
        <ele>126.3</ele>
        <time>2026-03-30T13:32:29.000Z</time>
      </trkpt>
      <trkpt lat="49.50978" lon="-1.60076">
        <ele>125.6</ele>
        <time>2026-03-30T13:32:30.000Z</time>
      </trkpt>
      <trkpt lat="49.50977" lon="-1.60075">
        <ele>125.4</ele>
        <time>2026-03-30T13:32:31.000Z</time>
      </trkpt>
      <trkpt lat="49.50976" lon="-1.60073">
        <ele>125.4</ele>
        <time>2026-03-30T13:32:32.000Z</time>
      </trkpt>
      <trkpt lat="49.50975" lon="-1.60072">
        <ele>125.3</ele>
        <time>2026-03-30T13:32:33.000Z</time>
      </trkpt>
      <trkpt lat="49.50975" lon="-1.60071">
        <ele>125.7</ele>
        <time>2026-03-30T13:32:34.000Z</time>
      </trkpt>
      <trkpt lat="49.50975" lon="-1.6007">
        <ele>125.9</ele>
        <time>2026-03-30T13:32:35.000Z</time>
      </trkpt>
      <trkpt lat="49.50974" lon="-1.60068">
        <ele>125.1</ele>
        <time>2026-03-30T13:32:36.000Z</time>
      </trkpt>
      <trkpt lat="49.50974" lon="-1.60065">
        <ele>125.3</ele>
        <time>2026-03-30T13:32:37.000Z</time>
      </trkpt>
      <trkpt lat="49.50974" lon="-1.60064">
        <ele>125</ele>
        <time>2026-03-30T13:32:38.000Z</time>
      </trkpt>
      <trkpt lat="49.50973" lon="-1.60063">
        <ele>125.1</ele>
        <time>2026-03-30T13:32:39.000Z</time>
      </trkpt>
      <trkpt lat="49.50971" lon="-1.60062">
        <ele>124.8</ele>
        <time>2026-03-30T13:32:40.000Z</time>
      </trkpt>
      <trkpt lat="49.5097" lon="-1.6006">
        <ele>125</ele>
        <time>2026-03-30T13:32:41.000Z</time>
      </trkpt>
      <trkpt lat="49.50969" lon="-1.60059">
        <ele>124.2</ele>
        <time>2026-03-30T13:32:42.000Z</time>
      </trkpt>
      <trkpt lat="49.50968" lon="-1.60058">
        <ele>124.2</ele>
        <time>2026-03-30T13:32:43.000Z</time>
      </trkpt>
      <trkpt lat="49.50967" lon="-1.60057">
        <ele>124</ele>
        <time>2026-03-30T13:32:44.000Z</time>
      </trkpt>
      <trkpt lat="49.50967" lon="-1.60055">
        <ele>124.2</ele>
        <time>2026-03-30T13:32:45.000Z</time>
      </trkpt>
      <trkpt lat="49.50966" lon="-1.60054">
        <ele>124.1</ele>
        <time>2026-03-30T13:32:46.000Z</time>
      </trkpt>
      <trkpt lat="49.50965" lon="-1.60052">
        <ele>124.2</ele>
        <time>2026-03-30T13:32:47.000Z</time>
      </trkpt>
      <trkpt lat="49.50964" lon="-1.6005">
        <ele>124</ele>
        <time>2026-03-30T13:32:48.000Z</time>
      </trkpt>
      <trkpt lat="49.50963" lon="-1.60049">
        <ele>123.3</ele>
        <time>2026-03-30T13:32:49.000Z</time>
      </trkpt>
      <trkpt lat="49.50963" lon="-1.60046">
        <ele>123.2</ele>
        <time>2026-03-30T13:32:50.000Z</time>
      </trkpt>
      <trkpt lat="49.50959" lon="-1.60044">
        <ele>125.6</ele>
        <time>2026-03-30T13:32:51.000Z</time>
      </trkpt>
      <trkpt lat="49.50957" lon="-1.60044">
        <ele>124.5</ele>
        <time>2026-03-30T13:32:52.000Z</time>
      </trkpt>
      <trkpt lat="49.50956" lon="-1.60042">
        <ele>124</ele>
        <time>2026-03-30T13:32:53.000Z</time>
      </trkpt>
      <trkpt lat="49.50955" lon="-1.60041">
        <ele>125</ele>
        <time>2026-03-30T13:32:54.000Z</time>
      </trkpt>
      <trkpt lat="49.50954" lon="-1.6004">
        <ele>124.2</ele>
        <time>2026-03-30T13:32:55.000Z</time>
      </trkpt>
      <trkpt lat="49.50954" lon="-1.60038">
        <ele>124.5</ele>
        <time>2026-03-30T13:32:56.000Z</time>
      </trkpt>
      <trkpt lat="49.50952" lon="-1.60036">
        <ele>123.9</ele>
        <time>2026-03-30T13:32:57.000Z</time>
      </trkpt>
      <trkpt lat="49.50951" lon="-1.60035">
        <ele>123.9</ele>
        <time>2026-03-30T13:32:58.000Z</time>
      </trkpt>
      <trkpt lat="49.5095" lon="-1.60033">
        <ele>124</ele>
        <time>2026-03-30T13:32:59.000Z</time>
      </trkpt>
      <trkpt lat="49.50949" lon="-1.60032">
        <ele>124</ele>
        <time>2026-03-30T13:33:00.000Z</time>
      </trkpt>
      <trkpt lat="49.50948" lon="-1.6003">
        <ele>125.4</ele>
        <time>2026-03-30T13:33:01.000Z</time>
      </trkpt>
      <trkpt lat="49.50947" lon="-1.60028">
        <ele>125.7</ele>
        <time>2026-03-30T13:33:02.000Z</time>
      </trkpt>
      <trkpt lat="49.50947" lon="-1.60026">
        <ele>125.7</ele>
        <time>2026-03-30T13:33:03.000Z</time>
      </trkpt>
      <trkpt lat="49.50946" lon="-1.60024">
        <ele>125.3</ele>
        <time>2026-03-30T13:33:04.000Z</time>
      </trkpt>
      <trkpt lat="49.50946" lon="-1.60022">
        <ele>124.5</ele>
        <time>2026-03-30T13:33:05.000Z</time>
      </trkpt>
      <trkpt lat="49.50945" lon="-1.60021">
        <ele>124.2</ele>
        <time>2026-03-30T13:33:06.000Z</time>
      </trkpt>
      <trkpt lat="49.50945" lon="-1.6002">
        <ele>124.8</ele>
        <time>2026-03-30T13:33:07.000Z</time>
      </trkpt>
      <trkpt lat="49.50944" lon="-1.60019">
        <ele>124.9</ele>
        <time>2026-03-30T13:33:08.000Z</time>
      </trkpt>
      <trkpt lat="49.50943" lon="-1.60018">
        <ele>124.6</ele>
        <time>2026-03-30T13:33:09.000Z</time>
      </trkpt>
      <trkpt lat="49.50942" lon="-1.60017">
        <ele>124.7</ele>
        <time>2026-03-30T13:33:10.000Z</time>
      </trkpt>
      <trkpt lat="49.50941" lon="-1.60016">
        <ele>124.7</ele>
        <time>2026-03-30T13:33:11.000Z</time>
      </trkpt>
      <trkpt lat="49.5094" lon="-1.60015">
        <ele>125</ele>
        <time>2026-03-30T13:33:12.000Z</time>
      </trkpt>
      <trkpt lat="49.50939" lon="-1.60014">
        <ele>125.3</ele>
        <time>2026-03-30T13:33:13.000Z</time>
      </trkpt>
      <trkpt lat="49.50938" lon="-1.60013">
        <ele>125.4</ele>
        <time>2026-03-30T13:33:14.000Z</time>
      </trkpt>
      <trkpt lat="49.50936" lon="-1.60012">
        <ele>124.7</ele>
        <time>2026-03-30T13:33:15.000Z</time>
      </trkpt>
      <trkpt lat="49.50936" lon="-1.60011">
        <ele>124.5</ele>
        <time>2026-03-30T13:33:16.000Z</time>
      </trkpt>
      <trkpt lat="49.50935" lon="-1.60009">
        <ele>123.7</ele>
        <time>2026-03-30T13:33:17.000Z</time>
      </trkpt>
      <trkpt lat="49.50934" lon="-1.60007">
        <ele>123.6</ele>
        <time>2026-03-30T13:33:18.000Z</time>
      </trkpt>
      <trkpt lat="49.50933" lon="-1.60005">
        <ele>124</ele>
        <time>2026-03-30T13:33:19.000Z</time>
      </trkpt>
      <trkpt lat="49.50932" lon="-1.60003">
        <ele>123.7</ele>
        <time>2026-03-30T13:33:20.000Z</time>
      </trkpt>
      <trkpt lat="49.50931" lon="-1.60002">
        <ele>125</ele>
        <time>2026-03-30T13:33:21.000Z</time>
      </trkpt>
      <trkpt lat="49.5093" lon="-1.6">
        <ele>124.6</ele>
        <time>2026-03-30T13:33:22.000Z</time>
      </trkpt>
      <trkpt lat="49.50929" lon="-1.59998">
        <ele>124.2</ele>
        <time>2026-03-30T13:33:23.000Z</time>
      </trkpt>
      <trkpt lat="49.50928" lon="-1.59996">
        <ele>124</ele>
        <time>2026-03-30T13:33:24.000Z</time>
      </trkpt>
      <trkpt lat="49.50927" lon="-1.59994">
        <ele>123.7</ele>
        <time>2026-03-30T13:33:25.000Z</time>
      </trkpt>
      <trkpt lat="49.50927" lon="-1.59992">
        <ele>123.2</ele>
        <time>2026-03-30T13:33:26.000Z</time>
      </trkpt>
      <trkpt lat="49.50926" lon="-1.5999">
        <ele>122.9</ele>
        <time>2026-03-30T13:33:27.000Z</time>
      </trkpt>
      <trkpt lat="49.50925" lon="-1.59988">
        <ele>123.4</ele>
        <time>2026-03-30T13:33:28.000Z</time>
      </trkpt>
      <trkpt lat="49.50924" lon="-1.59986">
        <ele>122.9</ele>
        <time>2026-03-30T13:33:29.000Z</time>
      </trkpt>
      <trkpt lat="49.50923" lon="-1.59984">
        <ele>123.5</ele>
        <time>2026-03-30T13:33:30.000Z</time>
      </trkpt>
      <trkpt lat="49.50922" lon="-1.59983">
        <ele>122.9</ele>
        <time>2026-03-30T13:33:31.000Z</time>
      </trkpt>
      <trkpt lat="49.50921" lon="-1.59981">
        <ele>123.6</ele>
        <time>2026-03-30T13:33:32.000Z</time>
      </trkpt>
      <trkpt lat="49.5092" lon="-1.5998">
        <ele>123</ele>
        <time>2026-03-30T13:33:33.000Z</time>
      </trkpt>
      <trkpt lat="49.5092" lon="-1.59979">
        <ele>123.6</ele>
        <time>2026-03-30T13:33:34.000Z</time>
      </trkpt>
      <trkpt lat="49.50919" lon="-1.59977">
        <ele>123.5</ele>
        <time>2026-03-30T13:33:35.000Z</time>
      </trkpt>
      <trkpt lat="49.50917" lon="-1.59976">
        <ele>123.5</ele>
        <time>2026-03-30T13:33:36.000Z</time>
      </trkpt>
      <trkpt lat="49.50916" lon="-1.59974">
        <ele>123.4</ele>
        <time>2026-03-30T13:33:37.000Z</time>
      </trkpt>
      <trkpt lat="49.50915" lon="-1.59972">
        <ele>122.5</ele>
        <time>2026-03-30T13:33:38.000Z</time>
      </trkpt>
      <trkpt lat="49.50914" lon="-1.59971">
        <ele>123.6</ele>
        <time>2026-03-30T13:33:39.000Z</time>
      </trkpt>
      <trkpt lat="49.50913" lon="-1.59969">
        <ele>123.7</ele>
        <time>2026-03-30T13:33:40.000Z</time>
      </trkpt>
      <trkpt lat="49.50912" lon="-1.59968">
        <ele>123.6</ele>
        <time>2026-03-30T13:33:41.000Z</time>
      </trkpt>
      <trkpt lat="49.50911" lon="-1.59966">
        <ele>123.4</ele>
        <time>2026-03-30T13:33:42.000Z</time>
      </trkpt>
      <trkpt lat="49.50911" lon="-1.59964">
        <ele>122.7</ele>
        <time>2026-03-30T13:33:43.000Z</time>
      </trkpt>
      <trkpt lat="49.5091" lon="-1.59963">
        <ele>122.3</ele>
        <time>2026-03-30T13:33:44.000Z</time>
      </trkpt>
      <trkpt lat="49.50909" lon="-1.59961">
        <ele>122.2</ele>
        <time>2026-03-30T13:33:45.000Z</time>
      </trkpt>
      <trkpt lat="49.50909" lon="-1.59959">
        <ele>121.2</ele>
        <time>2026-03-30T13:33:46.000Z</time>
      </trkpt>
      <trkpt lat="49.50908" lon="-1.59957">
        <ele>121.3</ele>
        <time>2026-03-30T13:33:47.000Z</time>
      </trkpt>
      <trkpt lat="49.50908" lon="-1.59955">
        <ele>120.2</ele>
        <time>2026-03-30T13:33:48.000Z</time>
      </trkpt>
      <trkpt lat="49.50907" lon="-1.59953">
        <ele>119.7</ele>
        <time>2026-03-30T13:33:49.000Z</time>
      </trkpt>
      <trkpt lat="49.50906" lon="-1.59951">
        <ele>119.6</ele>
        <time>2026-03-30T13:33:50.000Z</time>
      </trkpt>
      <trkpt lat="49.50905" lon="-1.59949">
        <ele>119.7</ele>
        <time>2026-03-30T13:33:51.000Z</time>
      </trkpt>
      <trkpt lat="49.50905" lon="-1.59947">
        <ele>118.8</ele>
        <time>2026-03-30T13:33:52.000Z</time>
      </trkpt>
      <trkpt lat="49.50904" lon="-1.59945">
        <ele>118</ele>
        <time>2026-03-30T13:33:53.000Z</time>
      </trkpt>
      <trkpt lat="49.50902" lon="-1.59943">
        <ele>117.5</ele>
        <time>2026-03-30T13:33:54.000Z</time>
      </trkpt>
      <trkpt lat="49.50901" lon="-1.59941">
        <ele>119.7</ele>
        <time>2026-03-30T13:33:55.000Z</time>
      </trkpt>
      <trkpt lat="49.509" lon="-1.59939">
        <ele>121</ele>
        <time>2026-03-30T13:33:56.000Z</time>
      </trkpt>
      <trkpt lat="49.50899" lon="-1.59937">
        <ele>120.9</ele>
        <time>2026-03-30T13:33:57.000Z</time>
      </trkpt>
      <trkpt lat="49.50898" lon="-1.59936">
        <ele>119.5</ele>
        <time>2026-03-30T13:33:58.000Z</time>
      </trkpt>
      <trkpt lat="49.50897" lon="-1.59934">
        <ele>118.6</ele>
        <time>2026-03-30T13:33:59.000Z</time>
      </trkpt>
      <trkpt lat="49.50896" lon="-1.59932">
        <ele>119.7</ele>
        <time>2026-03-30T13:34:00.000Z</time>
      </trkpt>
      <trkpt lat="49.50895" lon="-1.5993">
        <ele>119.7</ele>
        <time>2026-03-30T13:34:01.000Z</time>
      </trkpt>
      <trkpt lat="49.50894" lon="-1.59929">
        <ele>120.8</ele>
        <time>2026-03-30T13:34:02.000Z</time>
      </trkpt>
      <trkpt lat="49.50893" lon="-1.59927">
        <ele>120.9</ele>
        <time>2026-03-30T13:34:03.000Z</time>
      </trkpt>
      <trkpt lat="49.50892" lon="-1.59925">
        <ele>120.5</ele>
        <time>2026-03-30T13:34:04.000Z</time>
      </trkpt>
      <trkpt lat="49.50891" lon="-1.59923">
        <ele>119.7</ele>
        <time>2026-03-30T13:34:05.000Z</time>
      </trkpt>
      <trkpt lat="49.5089" lon="-1.59922">
        <ele>119.5</ele>
        <time>2026-03-30T13:34:06.000Z</time>
      </trkpt>
      <trkpt lat="49.5089" lon="-1.5992">
        <ele>119.1</ele>
        <time>2026-03-30T13:34:07.000Z</time>
      </trkpt>
      <trkpt lat="49.50889" lon="-1.59919">
        <ele>118.7</ele>
        <time>2026-03-30T13:34:08.000Z</time>
      </trkpt>
      <trkpt lat="49.50888" lon="-1.59917">
        <ele>118.4</ele>
        <time>2026-03-30T13:34:09.000Z</time>
      </trkpt>
      <trkpt lat="49.50887" lon="-1.59915">
        <ele>118.9</ele>
        <time>2026-03-30T13:34:10.000Z</time>
      </trkpt>
      <trkpt lat="49.50886" lon="-1.59914">
        <ele>119.1</ele>
        <time>2026-03-30T13:34:11.000Z</time>
      </trkpt>
      <trkpt lat="49.50885" lon="-1.59912">
        <ele>119.5</ele>
        <time>2026-03-30T13:34:12.000Z</time>
      </trkpt>
      <trkpt lat="49.50884" lon="-1.59911">
        <ele>119.1</ele>
        <time>2026-03-30T13:34:13.000Z</time>
      </trkpt>
      <trkpt lat="49.50882" lon="-1.59909">
        <ele>120</ele>
        <time>2026-03-30T13:34:14.000Z</time>
      </trkpt>
      <trkpt lat="49.50881" lon="-1.59908">
        <ele>120.2</ele>
        <time>2026-03-30T13:34:15.000Z</time>
      </trkpt>
      <trkpt lat="49.5088" lon="-1.59907">
        <ele>120.3</ele>
        <time>2026-03-30T13:34:16.000Z</time>
      </trkpt>
      <trkpt lat="49.50879" lon="-1.59906">
        <ele>121.9</ele>
        <time>2026-03-30T13:34:17.000Z</time>
      </trkpt>
      <trkpt lat="49.50878" lon="-1.59904">
        <ele>120.9</ele>
        <time>2026-03-30T13:34:18.000Z</time>
      </trkpt>
      <trkpt lat="49.50876" lon="-1.59904">
        <ele>122.2</ele>
        <time>2026-03-30T13:34:19.000Z</time>
      </trkpt>
      <trkpt lat="49.50876" lon="-1.59902">
        <ele>122</ele>
        <time>2026-03-30T13:34:20.000Z</time>
      </trkpt>
      <trkpt lat="49.50875" lon="-1.599">
        <ele>122.6</ele>
        <time>2026-03-30T13:34:21.000Z</time>
      </trkpt>
      <trkpt lat="49.50874" lon="-1.59898">
        <ele>124</ele>
        <time>2026-03-30T13:34:22.000Z</time>
      </trkpt>
      <trkpt lat="49.50873" lon="-1.59897">
        <ele>123.9</ele>
        <time>2026-03-30T13:34:23.000Z</time>
      </trkpt>
      <trkpt lat="49.50872" lon="-1.59895">
        <ele>123.9</ele>
        <time>2026-03-30T13:34:24.000Z</time>
      </trkpt>
      <trkpt lat="49.50871" lon="-1.59893">
        <ele>123.8</ele>
        <time>2026-03-30T13:34:25.000Z</time>
      </trkpt>
      <trkpt lat="49.5087" lon="-1.59891">
        <ele>123.4</ele>
        <time>2026-03-30T13:34:26.000Z</time>
      </trkpt>
      <trkpt lat="49.5087" lon="-1.59889">
        <ele>121.9</ele>
        <time>2026-03-30T13:34:27.000Z</time>
      </trkpt>
      <trkpt lat="49.50869" lon="-1.59887">
        <ele>120.7</ele>
        <time>2026-03-30T13:34:28.000Z</time>
      </trkpt>
      <trkpt lat="49.50868" lon="-1.59885">
        <ele>119.6</ele>
        <time>2026-03-30T13:34:29.000Z</time>
      </trkpt>
      <trkpt lat="49.50867" lon="-1.59884">
        <ele>119.1</ele>
        <time>2026-03-30T13:34:30.000Z</time>
      </trkpt>
      <trkpt lat="49.50866" lon="-1.59882">
        <ele>118.8</ele>
        <time>2026-03-30T13:34:31.000Z</time>
      </trkpt>
      <trkpt lat="49.50865" lon="-1.59881">
        <ele>118.8</ele>
        <time>2026-03-30T13:34:32.000Z</time>
      </trkpt>
      <trkpt lat="49.50864" lon="-1.59879">
        <ele>118.3</ele>
        <time>2026-03-30T13:34:33.000Z</time>
      </trkpt>
      <trkpt lat="49.50863" lon="-1.59877">
        <ele>118.1</ele>
        <time>2026-03-30T13:34:34.000Z</time>
      </trkpt>
      <trkpt lat="49.50862" lon="-1.59876">
        <ele>117.8</ele>
        <time>2026-03-30T13:34:35.000Z</time>
      </trkpt>
      <trkpt lat="49.50862" lon="-1.59874">
        <ele>116.8</ele>
        <time>2026-03-30T13:34:36.000Z</time>
      </trkpt>
      <trkpt lat="49.50861" lon="-1.59873">
        <ele>118.3</ele>
        <time>2026-03-30T13:34:37.000Z</time>
      </trkpt>
      <trkpt lat="49.5086" lon="-1.59871">
        <ele>118.2</ele>
        <time>2026-03-30T13:34:38.000Z</time>
      </trkpt>
      <trkpt lat="49.50859" lon="-1.59869">
        <ele>118.6</ele>
        <time>2026-03-30T13:34:39.000Z</time>
      </trkpt>
      <trkpt lat="49.50858" lon="-1.59868">
        <ele>119.1</ele>
        <time>2026-03-30T13:34:40.000Z</time>
      </trkpt>
      <trkpt lat="49.50857" lon="-1.59866">
        <ele>118.7</ele>
        <time>2026-03-30T13:34:41.000Z</time>
      </trkpt>
      <trkpt lat="49.50857" lon="-1.59864">
        <ele>118.6</ele>
        <time>2026-03-30T13:34:42.000Z</time>
      </trkpt>
      <trkpt lat="49.50856" lon="-1.59863">
        <ele>118.2</ele>
        <time>2026-03-30T13:34:43.000Z</time>
      </trkpt>
      <trkpt lat="49.50854" lon="-1.59862">
        <ele>117.9</ele>
        <time>2026-03-30T13:34:44.000Z</time>
      </trkpt>
      <trkpt lat="49.50853" lon="-1.5986">
        <ele>117.8</ele>
        <time>2026-03-30T13:34:45.000Z</time>
      </trkpt>
      <trkpt lat="49.50852" lon="-1.59859">
        <ele>117.1</ele>
        <time>2026-03-30T13:34:46.000Z</time>
      </trkpt>
      <trkpt lat="49.50851" lon="-1.59857">
        <ele>116.7</ele>
        <time>2026-03-30T13:34:47.000Z</time>
      </trkpt>
      <trkpt lat="49.5085" lon="-1.59856">
        <ele>116.6</ele>
        <time>2026-03-30T13:34:48.000Z</time>
      </trkpt>
      <trkpt lat="49.50849" lon="-1.59854">
        <ele>116.5</ele>
        <time>2026-03-30T13:34:49.000Z</time>
      </trkpt>
      <trkpt lat="49.50848" lon="-1.59852">
        <ele>116.1</ele>
        <time>2026-03-30T13:34:50.000Z</time>
      </trkpt>
      <trkpt lat="49.50848" lon="-1.59851">
        <ele>115.9</ele>
        <time>2026-03-30T13:34:51.000Z</time>
      </trkpt>
      <trkpt lat="49.50847" lon="-1.59849">
        <ele>117.9</ele>
        <time>2026-03-30T13:34:52.000Z</time>
      </trkpt>
      <trkpt lat="49.50846" lon="-1.59848">
        <ele>117.9</ele>
        <time>2026-03-30T13:34:53.000Z</time>
      </trkpt>
      <trkpt lat="49.50844" lon="-1.59847">
        <ele>119.8</ele>
        <time>2026-03-30T13:34:54.000Z</time>
      </trkpt>
      <trkpt lat="49.50843" lon="-1.59845">
        <ele>120.5</ele>
        <time>2026-03-30T13:34:55.000Z</time>
      </trkpt>
      <trkpt lat="49.50843" lon="-1.59843">
        <ele>120.6</ele>
        <time>2026-03-30T13:34:56.000Z</time>
      </trkpt>
      <trkpt lat="49.50842" lon="-1.59842">
        <ele>120</ele>
        <time>2026-03-30T13:34:57.000Z</time>
      </trkpt>
      <trkpt lat="49.50841" lon="-1.5984">
        <ele>120</ele>
        <time>2026-03-30T13:34:58.000Z</time>
      </trkpt>
      <trkpt lat="49.5084" lon="-1.59838">
        <ele>119</ele>
        <time>2026-03-30T13:34:59.000Z</time>
      </trkpt>
      <trkpt lat="49.5084" lon="-1.59836">
        <ele>118.5</ele>
        <time>2026-03-30T13:35:00.000Z</time>
      </trkpt>
      <trkpt lat="49.50838" lon="-1.59834">
        <ele>119.6</ele>
        <time>2026-03-30T13:35:01.000Z</time>
      </trkpt>
      <trkpt lat="49.50837" lon="-1.59833">
        <ele>120.5</ele>
        <time>2026-03-30T13:35:02.000Z</time>
      </trkpt>
      <trkpt lat="49.50836" lon="-1.59831">
        <ele>120.5</ele>
        <time>2026-03-30T13:35:03.000Z</time>
      </trkpt>
      <trkpt lat="49.50835" lon="-1.59829">
        <ele>119.5</ele>
        <time>2026-03-30T13:35:04.000Z</time>
      </trkpt>
      <trkpt lat="49.50834" lon="-1.59827">
        <ele>119.2</ele>
        <time>2026-03-30T13:35:05.000Z</time>
      </trkpt>
      <trkpt lat="49.50833" lon="-1.59825">
        <ele>118.3</ele>
        <time>2026-03-30T13:35:06.000Z</time>
      </trkpt>
      <trkpt lat="49.50833" lon="-1.59823">
        <ele>118.2</ele>
        <time>2026-03-30T13:35:07.000Z</time>
      </trkpt>
      <trkpt lat="49.50832" lon="-1.59821">
        <ele>117.9</ele>
        <time>2026-03-30T13:35:08.000Z</time>
      </trkpt>
      <trkpt lat="49.50831" lon="-1.5982">
        <ele>117.9</ele>
        <time>2026-03-30T13:35:09.000Z</time>
      </trkpt>
      <trkpt lat="49.5083" lon="-1.59818">
        <ele>117.7</ele>
        <time>2026-03-30T13:35:10.000Z</time>
      </trkpt>
      <trkpt lat="49.50829" lon="-1.59817">
        <ele>117.3</ele>
        <time>2026-03-30T13:35:11.000Z</time>
      </trkpt>
      <trkpt lat="49.50828" lon="-1.59815">
        <ele>115.8</ele>
        <time>2026-03-30T13:35:12.000Z</time>
      </trkpt>
      <trkpt lat="49.50827" lon="-1.59813">
        <ele>115.5</ele>
        <time>2026-03-30T13:35:13.000Z</time>
      </trkpt>
      <trkpt lat="49.50826" lon="-1.59812">
        <ele>114.1</ele>
        <time>2026-03-30T13:35:14.000Z</time>
      </trkpt>
      <trkpt lat="49.50825" lon="-1.5981">
        <ele>115.3</ele>
        <time>2026-03-30T13:35:15.000Z</time>
      </trkpt>
      <trkpt lat="49.50824" lon="-1.59809">
        <ele>115.8</ele>
        <time>2026-03-30T13:35:16.000Z</time>
      </trkpt>
      <trkpt lat="49.50824" lon="-1.59807">
        <ele>114.9</ele>
        <time>2026-03-30T13:35:17.000Z</time>
      </trkpt>
      <trkpt lat="49.50823" lon="-1.59806">
        <ele>114.5</ele>
        <time>2026-03-30T13:35:18.000Z</time>
      </trkpt>
      <trkpt lat="49.50822" lon="-1.59805">
        <ele>114.7</ele>
        <time>2026-03-30T13:35:19.000Z</time>
      </trkpt>
      <trkpt lat="49.50821" lon="-1.59805">
        <ele>115</ele>
        <time>2026-03-30T13:35:20.000Z</time>
      </trkpt>
      <trkpt lat="49.5082" lon="-1.59804">
        <ele>114.1</ele>
        <time>2026-03-30T13:35:21.000Z</time>
      </trkpt>
      <trkpt lat="49.50819" lon="-1.59803">
        <ele>114.6</ele>
        <time>2026-03-30T13:35:22.000Z</time>
      </trkpt>
      <trkpt lat="49.50819" lon="-1.59802">
        <ele>114.4</ele>
        <time>2026-03-30T13:35:23.000Z</time>
      </trkpt>
      <trkpt lat="49.50818" lon="-1.598">
        <ele>114.4</ele>
        <time>2026-03-30T13:35:24.000Z</time>
      </trkpt>
      <trkpt lat="49.50817" lon="-1.59799">
        <ele>113.6</ele>
        <time>2026-03-30T13:35:25.000Z</time>
      </trkpt>
      <trkpt lat="49.50816" lon="-1.59797">
        <ele>114.9</ele>
        <time>2026-03-30T13:35:26.000Z</time>
      </trkpt>
      <trkpt lat="49.50815" lon="-1.59795">
        <ele>116.6</ele>
        <time>2026-03-30T13:35:27.000Z</time>
      </trkpt>
      <trkpt lat="49.50814" lon="-1.59794">
        <ele>116.7</ele>
        <time>2026-03-30T13:35:28.000Z</time>
      </trkpt>
      <trkpt lat="49.50814" lon="-1.59792">
        <ele>117</ele>
        <time>2026-03-30T13:35:29.000Z</time>
      </trkpt>
      <trkpt lat="49.50813" lon="-1.5979">
        <ele>116.3</ele>
        <time>2026-03-30T13:35:30.000Z</time>
      </trkpt>
      <trkpt lat="49.50813" lon="-1.59789">
        <ele>116.1</ele>
        <time>2026-03-30T13:35:31.000Z</time>
      </trkpt>
      <trkpt lat="49.50812" lon="-1.59787">
        <ele>115.5</ele>
        <time>2026-03-30T13:35:32.000Z</time>
      </trkpt>
      <trkpt lat="49.50811" lon="-1.59786">
        <ele>115.5</ele>
        <time>2026-03-30T13:35:33.000Z</time>
      </trkpt>
      <trkpt lat="49.50811" lon="-1.59784">
        <ele>115.3</ele>
        <time>2026-03-30T13:35:34.000Z</time>
      </trkpt>
      <trkpt lat="49.50809" lon="-1.59782">
        <ele>115.2</ele>
        <time>2026-03-30T13:35:35.000Z</time>
      </trkpt>
      <trkpt lat="49.50808" lon="-1.5978">
        <ele>115.9</ele>
        <time>2026-03-30T13:35:36.000Z</time>
      </trkpt>
      <trkpt lat="49.50807" lon="-1.59779">
        <ele>115.8</ele>
        <time>2026-03-30T13:35:37.000Z</time>
      </trkpt>
      <trkpt lat="49.50805" lon="-1.59777">
        <ele>115.7</ele>
        <time>2026-03-30T13:35:38.000Z</time>
      </trkpt>
      <trkpt lat="49.50805" lon="-1.59775">
        <ele>116.6</ele>
        <time>2026-03-30T13:35:39.000Z</time>
      </trkpt>
      <trkpt lat="49.50804" lon="-1.59774">
        <ele>116.8</ele>
        <time>2026-03-30T13:35:40.000Z</time>
      </trkpt>
      <trkpt lat="49.50803" lon="-1.59772">
        <ele>116.3</ele>
        <time>2026-03-30T13:35:41.000Z</time>
      </trkpt>
      <trkpt lat="49.50801" lon="-1.5977">
        <ele>116.8</ele>
        <time>2026-03-30T13:35:42.000Z</time>
      </trkpt>
      <trkpt lat="49.508" lon="-1.59768">
        <ele>117.4</ele>
        <time>2026-03-30T13:35:43.000Z</time>
      </trkpt>
      <trkpt lat="49.50799" lon="-1.59766">
        <ele>116.7</ele>
        <time>2026-03-30T13:35:44.000Z</time>
      </trkpt>
      <trkpt lat="49.50798" lon="-1.59764">
        <ele>116.5</ele>
        <time>2026-03-30T13:35:45.000Z</time>
      </trkpt>
      <trkpt lat="49.50797" lon="-1.59762">
        <ele>116</ele>
        <time>2026-03-30T13:35:46.000Z</time>
      </trkpt>
      <trkpt lat="49.50796" lon="-1.5976">
        <ele>116</ele>
        <time>2026-03-30T13:35:47.000Z</time>
      </trkpt>
      <trkpt lat="49.50795" lon="-1.59758">
        <ele>115.8</ele>
        <time>2026-03-30T13:35:48.000Z</time>
      </trkpt>
      <trkpt lat="49.50794" lon="-1.59757">
        <ele>115.4</ele>
        <time>2026-03-30T13:35:49.000Z</time>
      </trkpt>
      <trkpt lat="49.50793" lon="-1.59755">
        <ele>115.7</ele>
        <time>2026-03-30T13:35:50.000Z</time>
      </trkpt>
      <trkpt lat="49.50792" lon="-1.59754">
        <ele>115.5</ele>
        <time>2026-03-30T13:35:51.000Z</time>
      </trkpt>
      <trkpt lat="49.50791" lon="-1.59753">
        <ele>116.1</ele>
        <time>2026-03-30T13:35:52.000Z</time>
      </trkpt>
      <trkpt lat="49.5079" lon="-1.59751">
        <ele>115.9</ele>
        <time>2026-03-30T13:35:53.000Z</time>
      </trkpt>
      <trkpt lat="49.50788" lon="-1.5975">
        <ele>117.3</ele>
        <time>2026-03-30T13:35:54.000Z</time>
      </trkpt>
      <trkpt lat="49.50787" lon="-1.59748">
        <ele>117.8</ele>
        <time>2026-03-30T13:35:55.000Z</time>
      </trkpt>
      <trkpt lat="49.50786" lon="-1.59746">
        <ele>118.2</ele>
        <time>2026-03-30T13:35:56.000Z</time>
      </trkpt>
      <trkpt lat="49.50785" lon="-1.59745">
        <ele>119.2</ele>
        <time>2026-03-30T13:35:57.000Z</time>
      </trkpt>
      <trkpt lat="49.50784" lon="-1.59743">
        <ele>119.3</ele>
        <time>2026-03-30T13:35:58.000Z</time>
      </trkpt>
      <trkpt lat="49.50783" lon="-1.59741">
        <ele>118.7</ele>
        <time>2026-03-30T13:35:59.000Z</time>
      </trkpt>
      <trkpt lat="49.50782" lon="-1.59739">
        <ele>119</ele>
        <time>2026-03-30T13:36:00.000Z</time>
      </trkpt>
      <trkpt lat="49.50781" lon="-1.59737">
        <ele>118.4</ele>
        <time>2026-03-30T13:36:01.000Z</time>
      </trkpt>
      <trkpt lat="49.5078" lon="-1.59736">
        <ele>117.6</ele>
        <time>2026-03-30T13:36:02.000Z</time>
      </trkpt>
      <trkpt lat="49.50779" lon="-1.59734">
        <ele>117.6</ele>
        <time>2026-03-30T13:36:03.000Z</time>
      </trkpt>
      <trkpt lat="49.50778" lon="-1.59732">
        <ele>119.9</ele>
        <time>2026-03-30T13:36:04.000Z</time>
      </trkpt>
      <trkpt lat="49.50777" lon="-1.5973">
        <ele>120.2</ele>
        <time>2026-03-30T13:36:05.000Z</time>
      </trkpt>
      <trkpt lat="49.50776" lon="-1.59728">
        <ele>120</ele>
        <time>2026-03-30T13:36:06.000Z</time>
      </trkpt>
      <trkpt lat="49.50775" lon="-1.59726">
        <ele>119.6</ele>
        <time>2026-03-30T13:36:07.000Z</time>
      </trkpt>
      <trkpt lat="49.50774" lon="-1.59724">
        <ele>119.3</ele>
        <time>2026-03-30T13:36:08.000Z</time>
      </trkpt>
      <trkpt lat="49.50773" lon="-1.59722">
        <ele>119.2</ele>
        <time>2026-03-30T13:36:09.000Z</time>
      </trkpt>
      <trkpt lat="49.50772" lon="-1.59721">
        <ele>118.9</ele>
        <time>2026-03-30T13:36:10.000Z</time>
      </trkpt>
      <trkpt lat="49.50771" lon="-1.59718">
        <ele>118.4</ele>
        <time>2026-03-30T13:36:11.000Z</time>
      </trkpt>
      <trkpt lat="49.50769" lon="-1.59716">
        <ele>117.7</ele>
        <time>2026-03-30T13:36:12.000Z</time>
      </trkpt>
      <trkpt lat="49.50768" lon="-1.59714">
        <ele>117.1</ele>
        <time>2026-03-30T13:36:13.000Z</time>
      </trkpt>
      <trkpt lat="49.50767" lon="-1.59713">
        <ele>116.2</ele>
        <time>2026-03-30T13:36:14.000Z</time>
      </trkpt>
      <trkpt lat="49.50766" lon="-1.59711">
        <ele>115.9</ele>
        <time>2026-03-30T13:36:15.000Z</time>
      </trkpt>
      <trkpt lat="49.50765" lon="-1.5971">
        <ele>116.2</ele>
        <time>2026-03-30T13:36:16.000Z</time>
      </trkpt>
      <trkpt lat="49.50764" lon="-1.59708">
        <ele>116.2</ele>
        <time>2026-03-30T13:36:17.000Z</time>
      </trkpt>
      <trkpt lat="49.50763" lon="-1.59706">
        <ele>116.3</ele>
        <time>2026-03-30T13:36:18.000Z</time>
      </trkpt>
      <trkpt lat="49.50762" lon="-1.59705">
        <ele>115.9</ele>
        <time>2026-03-30T13:36:19.000Z</time>
      </trkpt>
      <trkpt lat="49.50761" lon="-1.59703">
        <ele>115.9</ele>
        <time>2026-03-30T13:36:20.000Z</time>
      </trkpt>
      <trkpt lat="49.50759" lon="-1.59702">
        <ele>117.9</ele>
        <time>2026-03-30T13:36:21.000Z</time>
      </trkpt>
      <trkpt lat="49.50758" lon="-1.597">
        <ele>118</ele>
        <time>2026-03-30T13:36:22.000Z</time>
      </trkpt>
      <trkpt lat="49.50757" lon="-1.59699">
        <ele>118</ele>
        <time>2026-03-30T13:36:23.000Z</time>
      </trkpt>
      <trkpt lat="49.50756" lon="-1.59697">
        <ele>117.7</ele>
        <time>2026-03-30T13:36:24.000Z</time>
      </trkpt>
      <trkpt lat="49.50755" lon="-1.59695">
        <ele>117.5</ele>
        <time>2026-03-30T13:36:25.000Z</time>
      </trkpt>
      <trkpt lat="49.50754" lon="-1.59693">
        <ele>117.5</ele>
        <time>2026-03-30T13:36:26.000Z</time>
      </trkpt>
      <trkpt lat="49.50753" lon="-1.59691">
        <ele>117.7</ele>
        <time>2026-03-30T13:36:27.000Z</time>
      </trkpt>
      <trkpt lat="49.50752" lon="-1.59689">
        <ele>117.6</ele>
        <time>2026-03-30T13:36:28.000Z</time>
      </trkpt>
      <trkpt lat="49.5075" lon="-1.59687">
        <ele>118.6</ele>
        <time>2026-03-30T13:36:29.000Z</time>
      </trkpt>
      <trkpt lat="49.50749" lon="-1.59686">
        <ele>119.5</ele>
        <time>2026-03-30T13:36:30.000Z</time>
      </trkpt>
      <trkpt lat="49.50748" lon="-1.59684">
        <ele>119.7</ele>
        <time>2026-03-30T13:36:31.000Z</time>
      </trkpt>
      <trkpt lat="49.50747" lon="-1.59682">
        <ele>120.2</ele>
        <time>2026-03-30T13:36:32.000Z</time>
      </trkpt>
      <trkpt lat="49.50745" lon="-1.5968">
        <ele>120.4</ele>
        <time>2026-03-30T13:36:33.000Z</time>
      </trkpt>
      <trkpt lat="49.50744" lon="-1.59678">
        <ele>119.8</ele>
        <time>2026-03-30T13:36:34.000Z</time>
      </trkpt>
      <trkpt lat="49.50743" lon="-1.59676">
        <ele>120.1</ele>
        <time>2026-03-30T13:36:35.000Z</time>
      </trkpt>
      <trkpt lat="49.50741" lon="-1.59675">
        <ele>120.7</ele>
        <time>2026-03-30T13:36:36.000Z</time>
      </trkpt>
      <trkpt lat="49.5074" lon="-1.59674">
        <ele>120.4</ele>
        <time>2026-03-30T13:36:37.000Z</time>
      </trkpt>
      <trkpt lat="49.50739" lon="-1.59672">
        <ele>120.3</ele>
        <time>2026-03-30T13:36:38.000Z</time>
      </trkpt>
      <trkpt lat="49.50738" lon="-1.5967">
        <ele>121.2</ele>
        <time>2026-03-30T13:36:39.000Z</time>
      </trkpt>
      <trkpt lat="49.50737" lon="-1.59669">
        <ele>121.4</ele>
        <time>2026-03-30T13:36:40.000Z</time>
      </trkpt>
      <trkpt lat="49.50735" lon="-1.59667">
        <ele>122.3</ele>
        <time>2026-03-30T13:36:41.000Z</time>
      </trkpt>
      <trkpt lat="49.50734" lon="-1.59666">
        <ele>122.7</ele>
        <time>2026-03-30T13:36:42.000Z</time>
      </trkpt>
      <trkpt lat="49.50733" lon="-1.59664">
        <ele>122.4</ele>
        <time>2026-03-30T13:36:43.000Z</time>
      </trkpt>
      <trkpt lat="49.50731" lon="-1.59663">
        <ele>123.2</ele>
        <time>2026-03-30T13:36:44.000Z</time>
      </trkpt>
      <trkpt lat="49.5073" lon="-1.59662">
        <ele>122.7</ele>
        <time>2026-03-30T13:36:45.000Z</time>
      </trkpt>
      <trkpt lat="49.50729" lon="-1.5966">
        <ele>122.6</ele>
        <time>2026-03-30T13:36:46.000Z</time>
      </trkpt>
      <trkpt lat="49.50728" lon="-1.59658">
        <ele>121.6</ele>
        <time>2026-03-30T13:36:47.000Z</time>
      </trkpt>
      <trkpt lat="49.50727" lon="-1.59657">
        <ele>121.2</ele>
        <time>2026-03-30T13:36:48.000Z</time>
      </trkpt>
      <trkpt lat="49.50725" lon="-1.59655">
        <ele>122.2</ele>
        <time>2026-03-30T13:36:49.000Z</time>
      </trkpt>
      <trkpt lat="49.50724" lon="-1.59653">
        <ele>122</ele>
        <time>2026-03-30T13:36:50.000Z</time>
      </trkpt>
      <trkpt lat="49.50723" lon="-1.59652">
        <ele>122</ele>
        <time>2026-03-30T13:36:51.000Z</time>
      </trkpt>
      <trkpt lat="49.50722" lon="-1.59651">
        <ele>122.7</ele>
        <time>2026-03-30T13:36:52.000Z</time>
      </trkpt>
      <trkpt lat="49.50721" lon="-1.59649">
        <ele>122.7</ele>
        <time>2026-03-30T13:36:53.000Z</time>
      </trkpt>
      <trkpt lat="49.50719" lon="-1.59648">
        <ele>123.2</ele>
        <time>2026-03-30T13:36:54.000Z</time>
      </trkpt>
      <trkpt lat="49.50718" lon="-1.59647">
        <ele>123.1</ele>
        <time>2026-03-30T13:36:55.000Z</time>
      </trkpt>
      <trkpt lat="49.50717" lon="-1.59645">
        <ele>122.9</ele>
        <time>2026-03-30T13:36:56.000Z</time>
      </trkpt>
      <trkpt lat="49.50716" lon="-1.59644">
        <ele>122.7</ele>
        <time>2026-03-30T13:36:57.000Z</time>
      </trkpt>
      <trkpt lat="49.50715" lon="-1.59642">
        <ele>123.1</ele>
        <time>2026-03-30T13:36:58.000Z</time>
      </trkpt>
      <trkpt lat="49.50714" lon="-1.59641">
        <ele>123.6</ele>
        <time>2026-03-30T13:36:59.000Z</time>
      </trkpt>
      <trkpt lat="49.50713" lon="-1.59639">
        <ele>123.3</ele>
        <time>2026-03-30T13:37:00.000Z</time>
      </trkpt>
      <trkpt lat="49.50712" lon="-1.59638">
        <ele>123.7</ele>
        <time>2026-03-30T13:37:01.000Z</time>
      </trkpt>
      <trkpt lat="49.5071" lon="-1.59636">
        <ele>123.5</ele>
        <time>2026-03-30T13:37:02.000Z</time>
      </trkpt>
      <trkpt lat="49.50709" lon="-1.59635">
        <ele>123.7</ele>
        <time>2026-03-30T13:37:03.000Z</time>
      </trkpt>
      <trkpt lat="49.50708" lon="-1.59634">
        <ele>123.6</ele>
        <time>2026-03-30T13:37:04.000Z</time>
      </trkpt>
      <trkpt lat="49.50706" lon="-1.59632">
        <ele>123.7</ele>
        <time>2026-03-30T13:37:05.000Z</time>
      </trkpt>
      <trkpt lat="49.50705" lon="-1.59631">
        <ele>123.8</ele>
        <time>2026-03-30T13:37:06.000Z</time>
      </trkpt>
      <trkpt lat="49.50704" lon="-1.59629">
        <ele>123.6</ele>
        <time>2026-03-30T13:37:07.000Z</time>
      </trkpt>
      <trkpt lat="49.50703" lon="-1.59628">
        <ele>123.8</ele>
        <time>2026-03-30T13:37:08.000Z</time>
      </trkpt>
      <trkpt lat="49.50702" lon="-1.59626">
        <ele>123.7</ele>
        <time>2026-03-30T13:37:09.000Z</time>
      </trkpt>
      <trkpt lat="49.50701" lon="-1.59625">
        <ele>123.6</ele>
        <time>2026-03-30T13:37:10.000Z</time>
      </trkpt>
      <trkpt lat="49.507" lon="-1.59624">
        <ele>123.6</ele>
        <time>2026-03-30T13:37:11.000Z</time>
      </trkpt>
      <trkpt lat="49.50699" lon="-1.59622">
        <ele>123.1</ele>
        <time>2026-03-30T13:37:12.000Z</time>
      </trkpt>
      <trkpt lat="49.50697" lon="-1.59621">
        <ele>122.6</ele>
        <time>2026-03-30T13:37:13.000Z</time>
      </trkpt>
      <trkpt lat="49.50696" lon="-1.5962">
        <ele>122.1</ele>
        <time>2026-03-30T13:37:14.000Z</time>
      </trkpt>
      <trkpt lat="49.50695" lon="-1.59619">
        <ele>121.8</ele>
        <time>2026-03-30T13:37:15.000Z</time>
      </trkpt>
      <trkpt lat="49.50694" lon="-1.59617">
        <ele>121.1</ele>
        <time>2026-03-30T13:37:16.000Z</time>
      </trkpt>
      <trkpt lat="49.50693" lon="-1.59616">
        <ele>121.1</ele>
        <time>2026-03-30T13:37:17.000Z</time>
      </trkpt>
      <trkpt lat="49.50692" lon="-1.59614">
        <ele>120.1</ele>
        <time>2026-03-30T13:37:18.000Z</time>
      </trkpt>
      <trkpt lat="49.50691" lon="-1.59612">
        <ele>119.7</ele>
        <time>2026-03-30T13:37:19.000Z</time>
      </trkpt>
      <trkpt lat="49.5069" lon="-1.59612">
        <ele>120.7</ele>
        <time>2026-03-30T13:37:20.000Z</time>
      </trkpt>
      <trkpt lat="49.50689" lon="-1.59611">
        <ele>121.4</ele>
        <time>2026-03-30T13:37:21.000Z</time>
      </trkpt>
      <trkpt lat="49.50687" lon="-1.5961">
        <ele>123.1</ele>
        <time>2026-03-30T13:37:22.000Z</time>
      </trkpt>
      <trkpt lat="49.50686" lon="-1.59609">
        <ele>123.8</ele>
        <time>2026-03-30T13:37:23.000Z</time>
      </trkpt>
      <trkpt lat="49.50685" lon="-1.59607">
        <ele>122.8</ele>
        <time>2026-03-30T13:37:24.000Z</time>
      </trkpt>
      <trkpt lat="49.50684" lon="-1.59606">
        <ele>122.4</ele>
        <time>2026-03-30T13:37:25.000Z</time>
      </trkpt>
      <trkpt lat="49.50683" lon="-1.59604">
        <ele>121.2</ele>
        <time>2026-03-30T13:37:26.000Z</time>
      </trkpt>
      <trkpt lat="49.50683" lon="-1.59602">
        <ele>120.8</ele>
        <time>2026-03-30T13:37:27.000Z</time>
      </trkpt>
      <trkpt lat="49.50682" lon="-1.59601">
        <ele>121.3</ele>
        <time>2026-03-30T13:37:28.000Z</time>
      </trkpt>
      <trkpt lat="49.5068" lon="-1.59599">
        <ele>121.3</ele>
        <time>2026-03-30T13:37:29.000Z</time>
      </trkpt>
      <trkpt lat="49.50679" lon="-1.59598">
        <ele>122</ele>
        <time>2026-03-30T13:37:30.000Z</time>
      </trkpt>
      <trkpt lat="49.50678" lon="-1.59596">
        <ele>121.3</ele>
        <time>2026-03-30T13:37:31.000Z</time>
      </trkpt>
      <trkpt lat="49.50678" lon="-1.59594">
        <ele>120.5</ele>
        <time>2026-03-30T13:37:32.000Z</time>
      </trkpt>
      <trkpt lat="49.50677" lon="-1.59592">
        <ele>119.3</ele>
        <time>2026-03-30T13:37:33.000Z</time>
      </trkpt>
      <trkpt lat="49.50676" lon="-1.5959">
        <ele>118.7</ele>
        <time>2026-03-30T13:37:34.000Z</time>
      </trkpt>
      <trkpt lat="49.50675" lon="-1.59588">
        <ele>118.9</ele>
        <time>2026-03-30T13:37:35.000Z</time>
      </trkpt>
      <trkpt lat="49.50674" lon="-1.59587">
        <ele>119.2</ele>
        <time>2026-03-30T13:37:36.000Z</time>
      </trkpt>
      <trkpt lat="49.50673" lon="-1.59586">
        <ele>119</ele>
        <time>2026-03-30T13:37:37.000Z</time>
      </trkpt>
      <trkpt lat="49.50672" lon="-1.59585">
        <ele>118.5</ele>
        <time>2026-03-30T13:37:38.000Z</time>
      </trkpt>
      <trkpt lat="49.50671" lon="-1.59583">
        <ele>117.6</ele>
        <time>2026-03-30T13:37:39.000Z</time>
      </trkpt>
      <trkpt lat="49.50671" lon="-1.5958">
        <ele>117.1</ele>
        <time>2026-03-30T13:37:40.000Z</time>
      </trkpt>
      <trkpt lat="49.5067" lon="-1.59578">
        <ele>116</ele>
        <time>2026-03-30T13:37:41.000Z</time>
      </trkpt>
      <trkpt lat="49.5067" lon="-1.59575">
        <ele>115.8</ele>
        <time>2026-03-30T13:37:42.000Z</time>
      </trkpt>
      <trkpt lat="49.50668" lon="-1.59574">
        <ele>116.3</ele>
        <time>2026-03-30T13:37:43.000Z</time>
      </trkpt>
      <trkpt lat="49.50666" lon="-1.59573">
        <ele>116.5</ele>
        <time>2026-03-30T13:37:44.000Z</time>
      </trkpt>
      <trkpt lat="49.50665" lon="-1.59572">
        <ele>115.8</ele>
        <time>2026-03-30T13:37:45.000Z</time>
      </trkpt>
      <trkpt lat="49.50664" lon="-1.59571">
        <ele>115.9</ele>
        <time>2026-03-30T13:37:46.000Z</time>
      </trkpt>
      <trkpt lat="49.50663" lon="-1.59569">
        <ele>115.3</ele>
        <time>2026-03-30T13:37:47.000Z</time>
      </trkpt>
      <trkpt lat="49.50663" lon="-1.59567">
        <ele>115</ele>
        <time>2026-03-30T13:37:48.000Z</time>
      </trkpt>
      <trkpt lat="49.50662" lon="-1.59565">
        <ele>113.7</ele>
        <time>2026-03-30T13:37:49.000Z</time>
      </trkpt>
      <trkpt lat="49.50662" lon="-1.59563">
        <ele>113.9</ele>
        <time>2026-03-30T13:37:50.000Z</time>
      </trkpt>
      <trkpt lat="49.50661" lon="-1.59561">
        <ele>114.1</ele>
        <time>2026-03-30T13:37:51.000Z</time>
      </trkpt>
      <trkpt lat="49.5066" lon="-1.5956">
        <ele>113.6</ele>
        <time>2026-03-30T13:37:52.000Z</time>
      </trkpt>
      <trkpt lat="49.50659" lon="-1.59558">
        <ele>113.1</ele>
        <time>2026-03-30T13:37:53.000Z</time>
      </trkpt>
      <trkpt lat="49.50658" lon="-1.59557">
        <ele>113.4</ele>
        <time>2026-03-30T13:37:54.000Z</time>
      </trkpt>
      <trkpt lat="49.50658" lon="-1.59555">
        <ele>113.7</ele>
        <time>2026-03-30T13:37:55.000Z</time>
      </trkpt>
      <trkpt lat="49.50657" lon="-1.59554">
        <ele>113.1</ele>
        <time>2026-03-30T13:37:56.000Z</time>
      </trkpt>
      <trkpt lat="49.50656" lon="-1.59552">
        <ele>112.9</ele>
        <time>2026-03-30T13:37:57.000Z</time>
      </trkpt>
      <trkpt lat="49.50654" lon="-1.59551">
        <ele>112.8</ele>
        <time>2026-03-30T13:37:58.000Z</time>
      </trkpt>
      <trkpt lat="49.50653" lon="-1.5955">
        <ele>112.8</ele>
        <time>2026-03-30T13:37:59.000Z</time>
      </trkpt>
      <trkpt lat="49.50652" lon="-1.59549">
        <ele>112.6</ele>
        <time>2026-03-30T13:38:00.000Z</time>
      </trkpt>
      <trkpt lat="49.50652" lon="-1.59547">
        <ele>112.3</ele>
        <time>2026-03-30T13:38:01.000Z</time>
      </trkpt>
      <trkpt lat="49.50651" lon="-1.59545">
        <ele>111.9</ele>
        <time>2026-03-30T13:38:02.000Z</time>
      </trkpt>
      <trkpt lat="49.50651" lon="-1.59544">
        <ele>112</ele>
        <time>2026-03-30T13:38:03.000Z</time>
      </trkpt>
      <trkpt lat="49.5065" lon="-1.59543">
        <ele>111.9</ele>
        <time>2026-03-30T13:38:04.000Z</time>
      </trkpt>
      <trkpt lat="49.50649" lon="-1.59541">
        <ele>112</ele>
        <time>2026-03-30T13:38:05.000Z</time>
      </trkpt>
      <trkpt lat="49.50647" lon="-1.5954">
        <ele>112.1</ele>
        <time>2026-03-30T13:38:06.000Z</time>
      </trkpt>
      <trkpt lat="49.50646" lon="-1.59539">
        <ele>112.2</ele>
        <time>2026-03-30T13:38:07.000Z</time>
      </trkpt>
      <trkpt lat="49.50645" lon="-1.59537">
        <ele>111.8</ele>
        <time>2026-03-30T13:38:08.000Z</time>
      </trkpt>
      <trkpt lat="49.50644" lon="-1.59536">
        <ele>112</ele>
        <time>2026-03-30T13:38:09.000Z</time>
      </trkpt>
      <trkpt lat="49.50643" lon="-1.59535">
        <ele>111.3</ele>
        <time>2026-03-30T13:38:10.000Z</time>
      </trkpt>
      <trkpt lat="49.50642" lon="-1.59534">
        <ele>110.7</ele>
        <time>2026-03-30T13:38:11.000Z</time>
      </trkpt>
      <trkpt lat="49.50642" lon="-1.59532">
        <ele>110.8</ele>
        <time>2026-03-30T13:38:12.000Z</time>
      </trkpt>
      <trkpt lat="49.5064" lon="-1.59531">
        <ele>111.8</ele>
        <time>2026-03-30T13:38:13.000Z</time>
      </trkpt>
      <trkpt lat="49.50639" lon="-1.59529">
        <ele>113.4</ele>
        <time>2026-03-30T13:38:14.000Z</time>
      </trkpt>
      <trkpt lat="49.50638" lon="-1.59528">
        <ele>112.7</ele>
        <time>2026-03-30T13:38:15.000Z</time>
      </trkpt>
      <trkpt lat="49.50637" lon="-1.59526">
        <ele>112</ele>
        <time>2026-03-30T13:38:16.000Z</time>
      </trkpt>
      <trkpt lat="49.50636" lon="-1.59525">
        <ele>111.8</ele>
        <time>2026-03-30T13:38:17.000Z</time>
      </trkpt>
      <trkpt lat="49.50635" lon="-1.59523">
        <ele>112.3</ele>
        <time>2026-03-30T13:38:18.000Z</time>
      </trkpt>
      <trkpt lat="49.50633" lon="-1.59522">
        <ele>112</ele>
        <time>2026-03-30T13:38:19.000Z</time>
      </trkpt>
      <trkpt lat="49.50632" lon="-1.5952">
        <ele>112.8</ele>
        <time>2026-03-30T13:38:20.000Z</time>
      </trkpt>
      <trkpt lat="49.50631" lon="-1.59518">
        <ele>113.6</ele>
        <time>2026-03-30T13:38:21.000Z</time>
      </trkpt>
      <trkpt lat="49.5063" lon="-1.59516">
        <ele>114.6</ele>
        <time>2026-03-30T13:38:22.000Z</time>
      </trkpt>
      <trkpt lat="49.50628" lon="-1.59515">
        <ele>114.9</ele>
        <time>2026-03-30T13:38:23.000Z</time>
      </trkpt>
      <trkpt lat="49.50627" lon="-1.59514">
        <ele>115</ele>
        <time>2026-03-30T13:38:24.000Z</time>
      </trkpt>
      <trkpt lat="49.50626" lon="-1.59513">
        <ele>115.5</ele>
        <time>2026-03-30T13:38:25.000Z</time>
      </trkpt>
      <trkpt lat="49.50625" lon="-1.59512">
        <ele>115.4</ele>
        <time>2026-03-30T13:38:26.000Z</time>
      </trkpt>
      <trkpt lat="49.50624" lon="-1.5951">
        <ele>115.8</ele>
        <time>2026-03-30T13:38:27.000Z</time>
      </trkpt>
      <trkpt lat="49.50623" lon="-1.59509">
        <ele>115.8</ele>
        <time>2026-03-30T13:38:28.000Z</time>
      </trkpt>
      <trkpt lat="49.50622" lon="-1.59507">
        <ele>116.7</ele>
        <time>2026-03-30T13:38:29.000Z</time>
      </trkpt>
      <trkpt lat="49.50621" lon="-1.59506">
        <ele>116.8</ele>
        <time>2026-03-30T13:38:30.000Z</time>
      </trkpt>
      <trkpt lat="49.50619" lon="-1.59505">
        <ele>116.5</ele>
        <time>2026-03-30T13:38:31.000Z</time>
      </trkpt>
      <trkpt lat="49.50618" lon="-1.59503">
        <ele>116.5</ele>
        <time>2026-03-30T13:38:32.000Z</time>
      </trkpt>
      <trkpt lat="49.50617" lon="-1.59502">
        <ele>116.5</ele>
        <time>2026-03-30T13:38:33.000Z</time>
      </trkpt>
      <trkpt lat="49.50616" lon="-1.595">
        <ele>116.8</ele>
        <time>2026-03-30T13:38:34.000Z</time>
      </trkpt>
      <trkpt lat="49.50615" lon="-1.59499">
        <ele>116.5</ele>
        <time>2026-03-30T13:38:35.000Z</time>
      </trkpt>
      <trkpt lat="49.50614" lon="-1.59498">
        <ele>116.6</ele>
        <time>2026-03-30T13:38:36.000Z</time>
      </trkpt>
      <trkpt lat="49.50613" lon="-1.59497">
        <ele>116</ele>
        <time>2026-03-30T13:38:37.000Z</time>
      </trkpt>
      <trkpt lat="49.50612" lon="-1.59496">
        <ele>115.9</ele>
        <time>2026-03-30T13:38:38.000Z</time>
      </trkpt>
      <trkpt lat="49.50611" lon="-1.59494">
        <ele>116.3</ele>
        <time>2026-03-30T13:38:39.000Z</time>
      </trkpt>
      <trkpt lat="49.5061" lon="-1.59493">
        <ele>115.9</ele>
        <time>2026-03-30T13:38:40.000Z</time>
      </trkpt>
      <trkpt lat="49.50609" lon="-1.59492">
        <ele>115.9</ele>
        <time>2026-03-30T13:38:41.000Z</time>
      </trkpt>
      <trkpt lat="49.50608" lon="-1.59491">
        <ele>116.2</ele>
        <time>2026-03-30T13:38:42.000Z</time>
      </trkpt>
      <trkpt lat="49.50607" lon="-1.59489">
        <ele>116.5</ele>
        <time>2026-03-30T13:38:43.000Z</time>
      </trkpt>
      <trkpt lat="49.50605" lon="-1.59488">
        <ele>116.9</ele>
        <time>2026-03-30T13:38:44.000Z</time>
      </trkpt>
      <trkpt lat="49.50604" lon="-1.59487">
        <ele>115.8</ele>
        <time>2026-03-30T13:38:45.000Z</time>
      </trkpt>
      <trkpt lat="49.50603" lon="-1.59486">
        <ele>115</ele>
        <time>2026-03-30T13:38:46.000Z</time>
      </trkpt>
      <trkpt lat="49.50602" lon="-1.59485">
        <ele>115.4</ele>
        <time>2026-03-30T13:38:47.000Z</time>
      </trkpt>
      <trkpt lat="49.50601" lon="-1.59484">
        <ele>115.9</ele>
        <time>2026-03-30T13:38:48.000Z</time>
      </trkpt>
      <trkpt lat="49.506" lon="-1.59483">
        <ele>116.3</ele>
        <time>2026-03-30T13:38:49.000Z</time>
      </trkpt>
      <trkpt lat="49.50599" lon="-1.59481">
        <ele>117.3</ele>
        <time>2026-03-30T13:38:50.000Z</time>
      </trkpt>
      <trkpt lat="49.50598" lon="-1.5948">
        <ele>117.7</ele>
        <time>2026-03-30T13:38:51.000Z</time>
      </trkpt>
      <trkpt lat="49.50596" lon="-1.59479">
        <ele>118.8</ele>
        <time>2026-03-30T13:38:52.000Z</time>
      </trkpt>
      <trkpt lat="49.50595" lon="-1.59477">
        <ele>119.2</ele>
        <time>2026-03-30T13:38:53.000Z</time>
      </trkpt>
      <trkpt lat="49.50594" lon="-1.59476">
        <ele>119.3</ele>
        <time>2026-03-30T13:38:54.000Z</time>
      </trkpt>
      <trkpt lat="49.50593" lon="-1.59475">
        <ele>119.3</ele>
        <time>2026-03-30T13:38:55.000Z</time>
      </trkpt>
      <trkpt lat="49.50591" lon="-1.59474">
        <ele>119.3</ele>
        <time>2026-03-30T13:38:56.000Z</time>
      </trkpt>
      <trkpt lat="49.5059" lon="-1.59473">
        <ele>119.5</ele>
        <time>2026-03-30T13:38:57.000Z</time>
      </trkpt>
      <trkpt lat="49.50589" lon="-1.59472">
        <ele>119.6</ele>
        <time>2026-03-30T13:38:58.000Z</time>
      </trkpt>
      <trkpt lat="49.50588" lon="-1.5947">
        <ele>120</ele>
        <time>2026-03-30T13:38:59.000Z</time>
      </trkpt>
      <trkpt lat="49.50587" lon="-1.59469">
        <ele>119.7</ele>
        <time>2026-03-30T13:39:00.000Z</time>
      </trkpt>
      <trkpt lat="49.50586" lon="-1.59469">
        <ele>118.1</ele>
        <time>2026-03-30T13:39:01.000Z</time>
      </trkpt>
      <trkpt lat="49.50585" lon="-1.59469">
        <ele>118</ele>
        <time>2026-03-30T13:39:02.000Z</time>
      </trkpt>
      <trkpt lat="49.50584" lon="-1.59468">
        <ele>117.7</ele>
        <time>2026-03-30T13:39:03.000Z</time>
      </trkpt>
      <trkpt lat="49.50583" lon="-1.59465">
        <ele>118</ele>
        <time>2026-03-30T13:39:04.000Z</time>
      </trkpt>
      <trkpt lat="49.50582" lon="-1.59463">
        <ele>117.6</ele>
        <time>2026-03-30T13:39:05.000Z</time>
      </trkpt>
      <trkpt lat="49.50581" lon="-1.5946">
        <ele>116.8</ele>
        <time>2026-03-30T13:39:06.000Z</time>
      </trkpt>
      <trkpt lat="49.5058" lon="-1.59459">
        <ele>117.1</ele>
        <time>2026-03-30T13:39:07.000Z</time>
      </trkpt>
      <trkpt lat="49.50579" lon="-1.59457">
        <ele>116.5</ele>
        <time>2026-03-30T13:39:08.000Z</time>
      </trkpt>
      <trkpt lat="49.50578" lon="-1.59455">
        <ele>116</ele>
        <time>2026-03-30T13:39:09.000Z</time>
      </trkpt>
      <trkpt lat="49.50576" lon="-1.59453">
        <ele>116</ele>
        <time>2026-03-30T13:39:10.000Z</time>
      </trkpt>
      <trkpt lat="49.50574" lon="-1.59452">
        <ele>115.7</ele>
        <time>2026-03-30T13:39:11.000Z</time>
      </trkpt>
      <trkpt lat="49.50573" lon="-1.5945">
        <ele>115.1</ele>
        <time>2026-03-30T13:39:12.000Z</time>
      </trkpt>
      <trkpt lat="49.50571" lon="-1.59448">
        <ele>115.6</ele>
        <time>2026-03-30T13:39:13.000Z</time>
      </trkpt>
      <trkpt lat="49.5057" lon="-1.59446">
        <ele>115.6</ele>
        <time>2026-03-30T13:39:14.000Z</time>
      </trkpt>
      <trkpt lat="49.50568" lon="-1.59445">
        <ele>116.6</ele>
        <time>2026-03-30T13:39:15.000Z</time>
      </trkpt>
      <trkpt lat="49.50567" lon="-1.59444">
        <ele>119</ele>
        <time>2026-03-30T13:39:16.000Z</time>
      </trkpt>
      <trkpt lat="49.50566" lon="-1.59442">
        <ele>116.7</ele>
        <time>2026-03-30T13:39:17.000Z</time>
      </trkpt>
      <trkpt lat="49.50565" lon="-1.59441">
        <ele>117.5</ele>
        <time>2026-03-30T13:39:18.000Z</time>
      </trkpt>
      <trkpt lat="49.50565" lon="-1.5944">
        <ele>117.4</ele>
        <time>2026-03-30T13:39:19.000Z</time>
      </trkpt>
      <trkpt lat="49.50564" lon="-1.59438">
        <ele>117.6</ele>
        <time>2026-03-30T13:39:20.000Z</time>
      </trkpt>
      <trkpt lat="49.50563" lon="-1.59437">
        <ele>117.7</ele>
        <time>2026-03-30T13:39:21.000Z</time>
      </trkpt>
      <trkpt lat="49.50562" lon="-1.59436">
        <ele>118.1</ele>
        <time>2026-03-30T13:39:22.000Z</time>
      </trkpt>
      <trkpt lat="49.50561" lon="-1.59435">
        <ele>118.8</ele>
        <time>2026-03-30T13:39:23.000Z</time>
      </trkpt>
      <trkpt lat="49.5056" lon="-1.59434">
        <ele>120.2</ele>
        <time>2026-03-30T13:39:24.000Z</time>
      </trkpt>
      <trkpt lat="49.50559" lon="-1.59433">
        <ele>120.6</ele>
        <time>2026-03-30T13:39:25.000Z</time>
      </trkpt>
      <trkpt lat="49.50558" lon="-1.59432">
        <ele>119.3</ele>
        <time>2026-03-30T13:39:26.000Z</time>
      </trkpt>
      <trkpt lat="49.50557" lon="-1.5943">
        <ele>119.5</ele>
        <time>2026-03-30T13:39:27.000Z</time>
      </trkpt>
      <trkpt lat="49.50556" lon="-1.59429">
        <ele>120.6</ele>
        <time>2026-03-30T13:39:28.000Z</time>
      </trkpt>
      <trkpt lat="49.50555" lon="-1.59428">
        <ele>121.3</ele>
        <time>2026-03-30T13:39:29.000Z</time>
      </trkpt>
      <trkpt lat="49.50553" lon="-1.59427">
        <ele>121.9</ele>
        <time>2026-03-30T13:39:30.000Z</time>
      </trkpt>
      <trkpt lat="49.50552" lon="-1.59426">
        <ele>121.9</ele>
        <time>2026-03-30T13:39:31.000Z</time>
      </trkpt>
      <trkpt lat="49.50551" lon="-1.59425">
        <ele>121.5</ele>
        <time>2026-03-30T13:39:32.000Z</time>
      </trkpt>
      <trkpt lat="49.5055" lon="-1.59423">
        <ele>121.1</ele>
        <time>2026-03-30T13:39:33.000Z</time>
      </trkpt>
      <trkpt lat="49.50549" lon="-1.59422">
        <ele>120.1</ele>
        <time>2026-03-30T13:39:34.000Z</time>
      </trkpt>
      <trkpt lat="49.50548" lon="-1.59421">
        <ele>120.7</ele>
        <time>2026-03-30T13:39:35.000Z</time>
      </trkpt>
      <trkpt lat="49.50547" lon="-1.5942">
        <ele>121.1</ele>
        <time>2026-03-30T13:39:36.000Z</time>
      </trkpt>
      <trkpt lat="49.50546" lon="-1.59418">
        <ele>121.1</ele>
        <time>2026-03-30T13:39:37.000Z</time>
      </trkpt>
      <trkpt lat="49.50545" lon="-1.59417">
        <ele>120.9</ele>
        <time>2026-03-30T13:39:38.000Z</time>
      </trkpt>
      <trkpt lat="49.50544" lon="-1.59416">
        <ele>121</ele>
        <time>2026-03-30T13:39:39.000Z</time>
      </trkpt>
      <trkpt lat="49.50543" lon="-1.59414">
        <ele>120.4</ele>
        <time>2026-03-30T13:39:40.000Z</time>
      </trkpt>
      <trkpt lat="49.50542" lon="-1.59413">
        <ele>119.8</ele>
        <time>2026-03-30T13:39:41.000Z</time>
      </trkpt>
      <trkpt lat="49.50541" lon="-1.59411">
        <ele>120</ele>
        <time>2026-03-30T13:39:42.000Z</time>
      </trkpt>
      <trkpt lat="49.50539" lon="-1.5941">
        <ele>119.6</ele>
        <time>2026-03-30T13:39:43.000Z</time>
      </trkpt>
      <trkpt lat="49.50538" lon="-1.59408">
        <ele>119.5</ele>
        <time>2026-03-30T13:39:44.000Z</time>
      </trkpt>
      <trkpt lat="49.50537" lon="-1.59407">
        <ele>119.4</ele>
        <time>2026-03-30T13:39:45.000Z</time>
      </trkpt>
      <trkpt lat="49.50536" lon="-1.59405">
        <ele>119.2</ele>
        <time>2026-03-30T13:39:46.000Z</time>
      </trkpt>
      <trkpt lat="49.50535" lon="-1.59404">
        <ele>119.5</ele>
        <time>2026-03-30T13:39:47.000Z</time>
      </trkpt>
      <trkpt lat="49.50534" lon="-1.59402">
        <ele>120.1</ele>
        <time>2026-03-30T13:39:48.000Z</time>
      </trkpt>
      <trkpt lat="49.50533" lon="-1.59401">
        <ele>120.3</ele>
        <time>2026-03-30T13:39:49.000Z</time>
      </trkpt>
      <trkpt lat="49.50531" lon="-1.59399">
        <ele>120.7</ele>
        <time>2026-03-30T13:39:50.000Z</time>
      </trkpt>
      <trkpt lat="49.5053" lon="-1.59398">
        <ele>121.1</ele>
        <time>2026-03-30T13:39:51.000Z</time>
      </trkpt>
      <trkpt lat="49.50529" lon="-1.59397">
        <ele>121</ele>
        <time>2026-03-30T13:39:52.000Z</time>
      </trkpt>
      <trkpt lat="49.50528" lon="-1.59396">
        <ele>121.2</ele>
        <time>2026-03-30T13:39:53.000Z</time>
      </trkpt>
      <trkpt lat="49.50526" lon="-1.59394">
        <ele>122.1</ele>
        <time>2026-03-30T13:39:54.000Z</time>
      </trkpt>
      <trkpt lat="49.50525" lon="-1.59393">
        <ele>122.7</ele>
        <time>2026-03-30T13:39:55.000Z</time>
      </trkpt>
      <trkpt lat="49.50524" lon="-1.59391">
        <ele>122</ele>
        <time>2026-03-30T13:39:56.000Z</time>
      </trkpt>
      <trkpt lat="49.50523" lon="-1.5939">
        <ele>121.5</ele>
        <time>2026-03-30T13:39:57.000Z</time>
      </trkpt>
      <trkpt lat="49.50522" lon="-1.59389">
        <ele>121.6</ele>
        <time>2026-03-30T13:39:58.000Z</time>
      </trkpt>
      <trkpt lat="49.5052" lon="-1.59387">
        <ele>121.2</ele>
        <time>2026-03-30T13:39:59.000Z</time>
      </trkpt>
      <trkpt lat="49.50519" lon="-1.59386">
        <ele>121.2</ele>
        <time>2026-03-30T13:40:00.000Z</time>
      </trkpt>
      <trkpt lat="49.50518" lon="-1.59384">
        <ele>121.6</ele>
        <time>2026-03-30T13:40:01.000Z</time>
      </trkpt>
      <trkpt lat="49.50517" lon="-1.59383">
        <ele>121.7</ele>
        <time>2026-03-30T13:40:02.000Z</time>
      </trkpt>
      <trkpt lat="49.50516" lon="-1.59382">
        <ele>121.5</ele>
        <time>2026-03-30T13:40:03.000Z</time>
      </trkpt>
      <trkpt lat="49.50515" lon="-1.5938">
        <ele>121.5</ele>
        <time>2026-03-30T13:40:04.000Z</time>
      </trkpt>
      <trkpt lat="49.50514" lon="-1.59379">
        <ele>121.5</ele>
        <time>2026-03-30T13:40:05.000Z</time>
      </trkpt>
      <trkpt lat="49.50512" lon="-1.59378">
        <ele>121.4</ele>
        <time>2026-03-30T13:40:06.000Z</time>
      </trkpt>
      <trkpt lat="49.50511" lon="-1.59377">
        <ele>121.5</ele>
        <time>2026-03-30T13:40:07.000Z</time>
      </trkpt>
      <trkpt lat="49.5051" lon="-1.59376">
        <ele>121.8</ele>
        <time>2026-03-30T13:40:08.000Z</time>
      </trkpt>
      <trkpt lat="49.50508" lon="-1.59375">
        <ele>121.9</ele>
        <time>2026-03-30T13:40:09.000Z</time>
      </trkpt>
      <trkpt lat="49.50507" lon="-1.59374">
        <ele>122.1</ele>
        <time>2026-03-30T13:40:10.000Z</time>
      </trkpt>
      <trkpt lat="49.50506" lon="-1.59373">
        <ele>122.3</ele>
        <time>2026-03-30T13:40:11.000Z</time>
      </trkpt>
      <trkpt lat="49.50505" lon="-1.59372">
        <ele>122.5</ele>
        <time>2026-03-30T13:40:12.000Z</time>
      </trkpt>
      <trkpt lat="49.50503" lon="-1.59371">
        <ele>122.8</ele>
        <time>2026-03-30T13:40:13.000Z</time>
      </trkpt>
      <trkpt lat="49.50502" lon="-1.5937">
        <ele>123.2</ele>
        <time>2026-03-30T13:40:14.000Z</time>
      </trkpt>
      <trkpt lat="49.50501" lon="-1.59369">
        <ele>123.4</ele>
        <time>2026-03-30T13:40:15.000Z</time>
      </trkpt>
      <trkpt lat="49.505" lon="-1.59368">
        <ele>123.2</ele>
        <time>2026-03-30T13:40:16.000Z</time>
      </trkpt>
      <trkpt lat="49.50499" lon="-1.59367">
        <ele>123.3</ele>
        <time>2026-03-30T13:40:17.000Z</time>
      </trkpt>
      <trkpt lat="49.50498" lon="-1.59365">
        <ele>123.2</ele>
        <time>2026-03-30T13:40:18.000Z</time>
      </trkpt>
      <trkpt lat="49.50497" lon="-1.59364">
        <ele>122.8</ele>
        <time>2026-03-30T13:40:19.000Z</time>
      </trkpt>
      <trkpt lat="49.50496" lon="-1.59363">
        <ele>122.7</ele>
        <time>2026-03-30T13:40:20.000Z</time>
      </trkpt>
      <trkpt lat="49.50494" lon="-1.59362">
        <ele>122.5</ele>
        <time>2026-03-30T13:40:21.000Z</time>
      </trkpt>
      <trkpt lat="49.50493" lon="-1.59361">
        <ele>123</ele>
        <time>2026-03-30T13:40:22.000Z</time>
      </trkpt>
      <trkpt lat="49.50492" lon="-1.5936">
        <ele>123.2</ele>
        <time>2026-03-30T13:40:23.000Z</time>
      </trkpt>
      <trkpt lat="49.5049" lon="-1.59359">
        <ele>123.5</ele>
        <time>2026-03-30T13:40:24.000Z</time>
      </trkpt>
      <trkpt lat="49.50489" lon="-1.59358">
        <ele>123.4</ele>
        <time>2026-03-30T13:40:25.000Z</time>
      </trkpt>
      <trkpt lat="49.50487" lon="-1.59359">
        <ele>123.6</ele>
        <time>2026-03-30T13:40:26.000Z</time>
      </trkpt>
      <trkpt lat="49.50486" lon="-1.59359">
        <ele>123.7</ele>
        <time>2026-03-30T13:40:27.000Z</time>
      </trkpt>
      <trkpt lat="49.50487" lon="-1.59358">
        <ele>121.6</ele>
        <time>2026-03-30T13:40:28.000Z</time>
      </trkpt>
      <trkpt lat="49.50487" lon="-1.59358">
        <ele>121</ele>
        <time>2026-03-30T13:40:29.000Z</time>
      </trkpt>
      <trkpt lat="49.50488" lon="-1.59357">
        <ele>120.9</ele>
        <time>2026-03-30T13:40:30.000Z</time>
      </trkpt>
      <trkpt lat="49.50489" lon="-1.59357">
        <ele>120.8</ele>
        <time>2026-03-30T13:40:31.000Z</time>
      </trkpt>
      <trkpt lat="49.50489" lon="-1.59357">
        <ele>120.8</ele>
        <time>2026-03-30T13:40:32.000Z</time>
      </trkpt>
      <trkpt lat="49.50489" lon="-1.59357">
        <ele>120.6</ele>
        <time>2026-03-30T13:40:33.000Z</time>
      </trkpt>
      <trkpt lat="49.50489" lon="-1.59357">
        <ele>120.6</ele>
        <time>2026-03-30T13:40:34.000Z</time>
      </trkpt>
      <trkpt lat="49.50489" lon="-1.59357">
        <ele>120.3</ele>
        <time>2026-03-30T13:40:35.000Z</time>
      </trkpt>
      <trkpt lat="49.50488" lon="-1.59355">
        <ele>119.7</ele>
        <time>2026-03-30T13:40:36.000Z</time>
      </trkpt>
      <trkpt lat="49.50488" lon="-1.59353">
        <ele>118.9</ele>
        <time>2026-03-30T13:40:37.000Z</time>
      </trkpt>
      <trkpt lat="49.50488" lon="-1.59351">
        <ele>118.3</ele>
        <time>2026-03-30T13:40:38.000Z</time>
      </trkpt>
      <trkpt lat="49.50488" lon="-1.59349">
        <ele>118.3</ele>
        <time>2026-03-30T13:40:39.000Z</time>
      </trkpt>
      <trkpt lat="49.50488" lon="-1.59346">
        <ele>117.9</ele>
        <time>2026-03-30T13:40:40.000Z</time>
      </trkpt>
      <trkpt lat="49.50488" lon="-1.59343">
        <ele>118</ele>
        <time>2026-03-30T13:40:41.000Z</time>
      </trkpt>
      <trkpt lat="49.50488" lon="-1.59341">
        <ele>118.3</ele>
        <time>2026-03-30T13:40:42.000Z</time>
      </trkpt>
      <trkpt lat="49.50487" lon="-1.5934">
        <ele>118</ele>
        <time>2026-03-30T13:40:43.000Z</time>
      </trkpt>
      <trkpt lat="49.50486" lon="-1.59338">
        <ele>118</ele>
        <time>2026-03-30T13:40:44.000Z</time>
      </trkpt>
      <trkpt lat="49.50486" lon="-1.59336">
        <ele>118</ele>
        <time>2026-03-30T13:40:45.000Z</time>
      </trkpt>
      <trkpt lat="49.50484" lon="-1.59335">
        <ele>118.4</ele>
        <time>2026-03-30T13:40:46.000Z</time>
      </trkpt>
      <trkpt lat="49.50483" lon="-1.59333">
        <ele>118.4</ele>
        <time>2026-03-30T13:40:47.000Z</time>
      </trkpt>
      <trkpt lat="49.50482" lon="-1.59331">
        <ele>118.1</ele>
        <time>2026-03-30T13:40:48.000Z</time>
      </trkpt>
      <trkpt lat="49.50481" lon="-1.5933">
        <ele>117.7</ele>
        <time>2026-03-30T13:40:49.000Z</time>
      </trkpt>
      <trkpt lat="49.5048" lon="-1.59328">
        <ele>118.4</ele>
        <time>2026-03-30T13:40:50.000Z</time>
      </trkpt>
      <trkpt lat="49.50479" lon="-1.59326">
        <ele>118.7</ele>
        <time>2026-03-30T13:40:51.000Z</time>
      </trkpt>
      <trkpt lat="49.50478" lon="-1.59324">
        <ele>118.7</ele>
        <time>2026-03-30T13:40:52.000Z</time>
      </trkpt>
      <trkpt lat="49.50477" lon="-1.59323">
        <ele>118.1</ele>
        <time>2026-03-30T13:40:53.000Z</time>
      </trkpt>
      <trkpt lat="49.50476" lon="-1.59321">
        <ele>118.5</ele>
        <time>2026-03-30T13:40:54.000Z</time>
      </trkpt>
      <trkpt lat="49.50475" lon="-1.5932">
        <ele>118.6</ele>
        <time>2026-03-30T13:40:55.000Z</time>
      </trkpt>
      <trkpt lat="49.50473" lon="-1.59318">
        <ele>118.6</ele>
        <time>2026-03-30T13:40:56.000Z</time>
      </trkpt>
      <trkpt lat="49.50472" lon="-1.59316">
        <ele>118.8</ele>
        <time>2026-03-30T13:40:57.000Z</time>
      </trkpt>
      <trkpt lat="49.50471" lon="-1.59314">
        <ele>119</ele>
        <time>2026-03-30T13:40:58.000Z</time>
      </trkpt>
      <trkpt lat="49.5047" lon="-1.59313">
        <ele>118.7</ele>
        <time>2026-03-30T13:40:59.000Z</time>
      </trkpt>
      <trkpt lat="49.50469" lon="-1.59311">
        <ele>119.1</ele>
        <time>2026-03-30T13:41:00.000Z</time>
      </trkpt>
      <trkpt lat="49.50468" lon="-1.59309">
        <ele>119</ele>
        <time>2026-03-30T13:41:01.000Z</time>
      </trkpt>
      <trkpt lat="49.50467" lon="-1.59307">
        <ele>118.5</ele>
        <time>2026-03-30T13:41:02.000Z</time>
      </trkpt>
      <trkpt lat="49.50466" lon="-1.59306">
        <ele>118.3</ele>
        <time>2026-03-30T13:41:03.000Z</time>
      </trkpt>
      <trkpt lat="49.50465" lon="-1.59304">
        <ele>118.2</ele>
        <time>2026-03-30T13:41:04.000Z</time>
      </trkpt>
      <trkpt lat="49.50464" lon="-1.59303">
        <ele>118.1</ele>
        <time>2026-03-30T13:41:05.000Z</time>
      </trkpt>
      <trkpt lat="49.50463" lon="-1.59301">
        <ele>118.3</ele>
        <time>2026-03-30T13:41:06.000Z</time>
      </trkpt>
      <trkpt lat="49.50462" lon="-1.593">
        <ele>118.2</ele>
        <time>2026-03-30T13:41:07.000Z</time>
      </trkpt>
      <trkpt lat="49.50461" lon="-1.59298">
        <ele>117.6</ele>
        <time>2026-03-30T13:41:08.000Z</time>
      </trkpt>
      <trkpt lat="49.5046" lon="-1.59297">
        <ele>117.7</ele>
        <time>2026-03-30T13:41:09.000Z</time>
      </trkpt>
      <trkpt lat="49.50459" lon="-1.59295">
        <ele>118</ele>
        <time>2026-03-30T13:41:10.000Z</time>
      </trkpt>
      <trkpt lat="49.50458" lon="-1.59293">
        <ele>117.8</ele>
        <time>2026-03-30T13:41:11.000Z</time>
      </trkpt>
      <trkpt lat="49.50457" lon="-1.59292">
        <ele>117.8</ele>
        <time>2026-03-30T13:41:12.000Z</time>
      </trkpt>
      <trkpt lat="49.50456" lon="-1.5929">
        <ele>117.6</ele>
        <time>2026-03-30T13:41:13.000Z</time>
      </trkpt>
      <trkpt lat="49.50455" lon="-1.59289">
        <ele>117</ele>
        <time>2026-03-30T13:41:14.000Z</time>
      </trkpt>
      <trkpt lat="49.50454" lon="-1.59287">
        <ele>116.7</ele>
        <time>2026-03-30T13:41:15.000Z</time>
      </trkpt>
      <trkpt lat="49.50454" lon="-1.59285">
        <ele>116.4</ele>
        <time>2026-03-30T13:41:16.000Z</time>
      </trkpt>
      <trkpt lat="49.50453" lon="-1.59283">
        <ele>116.6</ele>
        <time>2026-03-30T13:41:17.000Z</time>
      </trkpt>
      <trkpt lat="49.50452" lon="-1.59282">
        <ele>116.6</ele>
        <time>2026-03-30T13:41:18.000Z</time>
      </trkpt>
      <trkpt lat="49.50452" lon="-1.5928">
        <ele>116.7</ele>
        <time>2026-03-30T13:41:19.000Z</time>
      </trkpt>
      <trkpt lat="49.50451" lon="-1.59279">
        <ele>116.6</ele>
        <time>2026-03-30T13:41:20.000Z</time>
      </trkpt>
      <trkpt lat="49.5045" lon="-1.59277">
        <ele>116.5</ele>
        <time>2026-03-30T13:41:21.000Z</time>
      </trkpt>
      <trkpt lat="49.50449" lon="-1.59276">
        <ele>116.3</ele>
        <time>2026-03-30T13:41:22.000Z</time>
      </trkpt>
      <trkpt lat="49.50448" lon="-1.59275">
        <ele>116.2</ele>
        <time>2026-03-30T13:41:23.000Z</time>
      </trkpt>
      <trkpt lat="49.50447" lon="-1.59273">
        <ele>115.6</ele>
        <time>2026-03-30T13:41:24.000Z</time>
      </trkpt>
      <trkpt lat="49.50447" lon="-1.59271">
        <ele>115</ele>
        <time>2026-03-30T13:41:25.000Z</time>
      </trkpt>
      <trkpt lat="49.50446" lon="-1.59269">
        <ele>114.9</ele>
        <time>2026-03-30T13:41:26.000Z</time>
      </trkpt>
      <trkpt lat="49.50445" lon="-1.59268">
        <ele>114.7</ele>
        <time>2026-03-30T13:41:27.000Z</time>
      </trkpt>
      <trkpt lat="49.50445" lon="-1.59265">
        <ele>114.8</ele>
        <time>2026-03-30T13:41:28.000Z</time>
      </trkpt>
      <trkpt lat="49.50444" lon="-1.59264">
        <ele>115.4</ele>
        <time>2026-03-30T13:41:29.000Z</time>
      </trkpt>
      <trkpt lat="49.50443" lon="-1.59262">
        <ele>115.5</ele>
        <time>2026-03-30T13:41:30.000Z</time>
      </trkpt>
      <trkpt lat="49.50442" lon="-1.5926">
        <ele>116</ele>
        <time>2026-03-30T13:41:31.000Z</time>
      </trkpt>
      <trkpt lat="49.50441" lon="-1.59258">
        <ele>116.7</ele>
        <time>2026-03-30T13:41:32.000Z</time>
      </trkpt>
      <trkpt lat="49.5044" lon="-1.59256">
        <ele>116.8</ele>
        <time>2026-03-30T13:41:33.000Z</time>
      </trkpt>
      <trkpt lat="49.50439" lon="-1.59254">
        <ele>116.7</ele>
        <time>2026-03-30T13:41:34.000Z</time>
      </trkpt>
      <trkpt lat="49.50438" lon="-1.59252">
        <ele>116.8</ele>
        <time>2026-03-30T13:41:35.000Z</time>
      </trkpt>
      <trkpt lat="49.50437" lon="-1.59251">
        <ele>116.7</ele>
        <time>2026-03-30T13:41:36.000Z</time>
      </trkpt>
      <trkpt lat="49.50437" lon="-1.59249">
        <ele>116.5</ele>
        <time>2026-03-30T13:41:37.000Z</time>
      </trkpt>
      <trkpt lat="49.50436" lon="-1.59248">
        <ele>116.6</ele>
        <time>2026-03-30T13:41:38.000Z</time>
      </trkpt>
      <trkpt lat="49.50435" lon="-1.59246">
        <ele>116.3</ele>
        <time>2026-03-30T13:41:39.000Z</time>
      </trkpt>
      <trkpt lat="49.50434" lon="-1.59244">
        <ele>115.3</ele>
        <time>2026-03-30T13:41:40.000Z</time>
      </trkpt>
      <trkpt lat="49.50433" lon="-1.59242">
        <ele>115.2</ele>
        <time>2026-03-30T13:41:41.000Z</time>
      </trkpt>
      <trkpt lat="49.50432" lon="-1.59241">
        <ele>115.2</ele>
        <time>2026-03-30T13:41:42.000Z</time>
      </trkpt>
      <trkpt lat="49.50431" lon="-1.59239">
        <ele>115.4</ele>
        <time>2026-03-30T13:41:43.000Z</time>
      </trkpt>
      <trkpt lat="49.5043" lon="-1.59238">
        <ele>115.6</ele>
        <time>2026-03-30T13:41:44.000Z</time>
      </trkpt>
      <trkpt lat="49.50429" lon="-1.59237">
        <ele>115.4</ele>
        <time>2026-03-30T13:41:45.000Z</time>
      </trkpt>
      <trkpt lat="49.50428" lon="-1.59235">
        <ele>115.5</ele>
        <time>2026-03-30T13:41:46.000Z</time>
      </trkpt>
      <trkpt lat="49.50427" lon="-1.59233">
        <ele>115.2</ele>
        <time>2026-03-30T13:41:47.000Z</time>
      </trkpt>
      <trkpt lat="49.50426" lon="-1.59232">
        <ele>115.4</ele>
        <time>2026-03-30T13:41:48.000Z</time>
      </trkpt>
      <trkpt lat="49.50425" lon="-1.5923">
        <ele>115.6</ele>
        <time>2026-03-30T13:41:49.000Z</time>
      </trkpt>
      <trkpt lat="49.50425" lon="-1.59228">
        <ele>115.2</ele>
        <time>2026-03-30T13:41:50.000Z</time>
      </trkpt>
      <trkpt lat="49.50424" lon="-1.59226">
        <ele>113.9</ele>
        <time>2026-03-30T13:41:51.000Z</time>
      </trkpt>
      <trkpt lat="49.50424" lon="-1.59224">
        <ele>113</ele>
        <time>2026-03-30T13:41:52.000Z</time>
      </trkpt>
      <trkpt lat="49.50423" lon="-1.59221">
        <ele>112.5</ele>
        <time>2026-03-30T13:41:53.000Z</time>
      </trkpt>
      <trkpt lat="49.50423" lon="-1.59219">
        <ele>113.3</ele>
        <time>2026-03-30T13:41:54.000Z</time>
      </trkpt>
      <trkpt lat="49.50422" lon="-1.59217">
        <ele>112.5</ele>
        <time>2026-03-30T13:41:55.000Z</time>
      </trkpt>
      <trkpt lat="49.50422" lon="-1.59215">
        <ele>111.7</ele>
        <time>2026-03-30T13:41:56.000Z</time>
      </trkpt>
      <trkpt lat="49.50421" lon="-1.59214">
        <ele>111.3</ele>
        <time>2026-03-30T13:41:57.000Z</time>
      </trkpt>
      <trkpt lat="49.5042" lon="-1.59212">
        <ele>110.9</ele>
        <time>2026-03-30T13:41:58.000Z</time>
      </trkpt>
      <trkpt lat="49.50419" lon="-1.5921">
        <ele>110.7</ele>
        <time>2026-03-30T13:41:59.000Z</time>
      </trkpt>
      <trkpt lat="49.50419" lon="-1.59208">
        <ele>110.2</ele>
        <time>2026-03-30T13:42:00.000Z</time>
      </trkpt>
      <trkpt lat="49.50418" lon="-1.59206">
        <ele>109.7</ele>
        <time>2026-03-30T13:42:01.000Z</time>
      </trkpt>
      <trkpt lat="49.50417" lon="-1.59204">
        <ele>109.3</ele>
        <time>2026-03-30T13:42:02.000Z</time>
      </trkpt>
      <trkpt lat="49.50416" lon="-1.59202">
        <ele>108.9</ele>
        <time>2026-03-30T13:42:03.000Z</time>
      </trkpt>
      <trkpt lat="49.50416" lon="-1.592">
        <ele>108.8</ele>
        <time>2026-03-30T13:42:04.000Z</time>
      </trkpt>
      <trkpt lat="49.50415" lon="-1.59198">
        <ele>109.1</ele>
        <time>2026-03-30T13:42:05.000Z</time>
      </trkpt>
      <trkpt lat="49.50414" lon="-1.59196">
        <ele>108.8</ele>
        <time>2026-03-30T13:42:06.000Z</time>
      </trkpt>
      <trkpt lat="49.50414" lon="-1.59194">
        <ele>108.4</ele>
        <time>2026-03-30T13:42:07.000Z</time>
      </trkpt>
      <trkpt lat="49.50413" lon="-1.59192">
        <ele>108.2</ele>
        <time>2026-03-30T13:42:08.000Z</time>
      </trkpt>
      <trkpt lat="49.50412" lon="-1.59191">
        <ele>108.2</ele>
        <time>2026-03-30T13:42:09.000Z</time>
      </trkpt>
      <trkpt lat="49.5041" lon="-1.5919">
        <ele>107.7</ele>
        <time>2026-03-30T13:42:10.000Z</time>
      </trkpt>
      <trkpt lat="49.5041" lon="-1.59188">
        <ele>107.5</ele>
        <time>2026-03-30T13:42:11.000Z</time>
      </trkpt>
      <trkpt lat="49.50409" lon="-1.59186">
        <ele>107.4</ele>
        <time>2026-03-30T13:42:12.000Z</time>
      </trkpt>
      <trkpt lat="49.50409" lon="-1.59184">
        <ele>107.3</ele>
        <time>2026-03-30T13:42:13.000Z</time>
      </trkpt>
      <trkpt lat="49.50408" lon="-1.59182">
        <ele>107.6</ele>
        <time>2026-03-30T13:42:14.000Z</time>
      </trkpt>
      <trkpt lat="49.50408" lon="-1.5918">
        <ele>107.3</ele>
        <time>2026-03-30T13:42:15.000Z</time>
      </trkpt>
      <trkpt lat="49.50407" lon="-1.59178">
        <ele>106.2</ele>
        <time>2026-03-30T13:42:16.000Z</time>
      </trkpt>
      <trkpt lat="49.50406" lon="-1.59176">
        <ele>106.1</ele>
        <time>2026-03-30T13:42:17.000Z</time>
      </trkpt>
      <trkpt lat="49.50405" lon="-1.59175">
        <ele>105.5</ele>
        <time>2026-03-30T13:42:18.000Z</time>
      </trkpt>
      <trkpt lat="49.50404" lon="-1.59173">
        <ele>105.3</ele>
        <time>2026-03-30T13:42:19.000Z</time>
      </trkpt>
      <trkpt lat="49.50402" lon="-1.59172">
        <ele>104.9</ele>
        <time>2026-03-30T13:42:20.000Z</time>
      </trkpt>
      <trkpt lat="49.504" lon="-1.59171">
        <ele>104.5</ele>
        <time>2026-03-30T13:42:21.000Z</time>
      </trkpt>
      <trkpt lat="49.50401" lon="-1.5917">
        <ele>106.6</ele>
        <time>2026-03-30T13:42:22.000Z</time>
      </trkpt>
      <trkpt lat="49.504" lon="-1.59169">
        <ele>106.5</ele>
        <time>2026-03-30T13:42:23.000Z</time>
      </trkpt>
      <trkpt lat="49.504" lon="-1.59167">
        <ele>106.3</ele>
        <time>2026-03-30T13:42:24.000Z</time>
      </trkpt>
      <trkpt lat="49.504" lon="-1.59166">
        <ele>106.8</ele>
        <time>2026-03-30T13:42:25.000Z</time>
      </trkpt>
      <trkpt lat="49.50399" lon="-1.59165">
        <ele>106.1</ele>
        <time>2026-03-30T13:42:26.000Z</time>
      </trkpt>
      <trkpt lat="49.50399" lon="-1.59163">
        <ele>106</ele>
        <time>2026-03-30T13:42:27.000Z</time>
      </trkpt>
      <trkpt lat="49.50399" lon="-1.59162">
        <ele>105.4</ele>
        <time>2026-03-30T13:42:28.000Z</time>
      </trkpt>
      <trkpt lat="49.50399" lon="-1.5916">
        <ele>105.1</ele>
        <time>2026-03-30T13:42:29.000Z</time>
      </trkpt>
      <trkpt lat="49.50398" lon="-1.59158">
        <ele>105.5</ele>
        <time>2026-03-30T13:42:30.000Z</time>
      </trkpt>
      <trkpt lat="49.50398" lon="-1.59156">
        <ele>104.9</ele>
        <time>2026-03-30T13:42:31.000Z</time>
      </trkpt>
      <trkpt lat="49.50397" lon="-1.59155">
        <ele>105.3</ele>
        <time>2026-03-30T13:42:32.000Z</time>
      </trkpt>
      <trkpt lat="49.50396" lon="-1.59153">
        <ele>104.8</ele>
        <time>2026-03-30T13:42:33.000Z</time>
      </trkpt>
      <trkpt lat="49.50395" lon="-1.59151">
        <ele>105.2</ele>
        <time>2026-03-30T13:42:34.000Z</time>
      </trkpt>
      <trkpt lat="49.50395" lon="-1.59149">
        <ele>104.7</ele>
        <time>2026-03-30T13:42:35.000Z</time>
      </trkpt>
      <trkpt lat="49.50394" lon="-1.59147">
        <ele>105.2</ele>
        <time>2026-03-30T13:42:36.000Z</time>
      </trkpt>
      <trkpt lat="49.50392" lon="-1.59146">
        <ele>105.5</ele>
        <time>2026-03-30T13:42:37.000Z</time>
      </trkpt>
      <trkpt lat="49.50392" lon="-1.59144">
        <ele>105.5</ele>
        <time>2026-03-30T13:42:38.000Z</time>
      </trkpt>
      <trkpt lat="49.50391" lon="-1.59141">
        <ele>106.5</ele>
        <time>2026-03-30T13:42:39.000Z</time>
      </trkpt>
      <trkpt lat="49.5039" lon="-1.59139">
        <ele>106.7</ele>
        <time>2026-03-30T13:42:40.000Z</time>
      </trkpt>
      <trkpt lat="49.50389" lon="-1.59137">
        <ele>107.2</ele>
        <time>2026-03-30T13:42:41.000Z</time>
      </trkpt>
      <trkpt lat="49.50388" lon="-1.59135">
        <ele>107.3</ele>
        <time>2026-03-30T13:42:42.000Z</time>
      </trkpt>
      <trkpt lat="49.50387" lon="-1.59133">
        <ele>107.5</ele>
        <time>2026-03-30T13:42:43.000Z</time>
      </trkpt>
      <trkpt lat="49.50385" lon="-1.59131">
        <ele>108.1</ele>
        <time>2026-03-30T13:42:44.000Z</time>
      </trkpt>
      <trkpt lat="49.50384" lon="-1.5913">
        <ele>108.6</ele>
        <time>2026-03-30T13:42:45.000Z</time>
      </trkpt>
      <trkpt lat="49.50383" lon="-1.59128">
        <ele>107.9</ele>
        <time>2026-03-30T13:42:46.000Z</time>
      </trkpt>
      <trkpt lat="49.50382" lon="-1.59126">
        <ele>107.9</ele>
        <time>2026-03-30T13:42:47.000Z</time>
      </trkpt>
      <trkpt lat="49.50381" lon="-1.59124">
        <ele>107.4</ele>
        <time>2026-03-30T13:42:48.000Z</time>
      </trkpt>
      <trkpt lat="49.5038" lon="-1.59121">
        <ele>106.6</ele>
        <time>2026-03-30T13:42:49.000Z</time>
      </trkpt>
      <trkpt lat="49.5038" lon="-1.5912">
        <ele>106.5</ele>
        <time>2026-03-30T13:42:50.000Z</time>
      </trkpt>
      <trkpt lat="49.50379" lon="-1.59118">
        <ele>106.2</ele>
        <time>2026-03-30T13:42:51.000Z</time>
      </trkpt>
      <trkpt lat="49.50378" lon="-1.59116">
        <ele>106.4</ele>
        <time>2026-03-30T13:42:52.000Z</time>
      </trkpt>
      <trkpt lat="49.50377" lon="-1.59115">
        <ele>106.1</ele>
        <time>2026-03-30T13:42:53.000Z</time>
      </trkpt>
      <trkpt lat="49.50376" lon="-1.59113">
        <ele>106.6</ele>
        <time>2026-03-30T13:42:54.000Z</time>
      </trkpt>
      <trkpt lat="49.50376" lon="-1.59112">
        <ele>106.5</ele>
        <time>2026-03-30T13:42:55.000Z</time>
      </trkpt>
      <trkpt lat="49.50375" lon="-1.5911">
        <ele>106.9</ele>
        <time>2026-03-30T13:42:56.000Z</time>
      </trkpt>
      <trkpt lat="49.50374" lon="-1.59108">
        <ele>106.4</ele>
        <time>2026-03-30T13:42:57.000Z</time>
      </trkpt>
      <trkpt lat="49.50373" lon="-1.59106">
        <ele>106</ele>
        <time>2026-03-30T13:42:58.000Z</time>
      </trkpt>
      <trkpt lat="49.50372" lon="-1.59105">
        <ele>105.5</ele>
        <time>2026-03-30T13:42:59.000Z</time>
      </trkpt>
      <trkpt lat="49.50371" lon="-1.59103">
        <ele>105.5</ele>
        <time>2026-03-30T13:43:00.000Z</time>
      </trkpt>
      <trkpt lat="49.50371" lon="-1.59102">
        <ele>104.9</ele>
        <time>2026-03-30T13:43:01.000Z</time>
      </trkpt>
      <trkpt lat="49.5037" lon="-1.591">
        <ele>104.5</ele>
        <time>2026-03-30T13:43:02.000Z</time>
      </trkpt>
      <trkpt lat="49.50369" lon="-1.59098">
        <ele>104.4</ele>
        <time>2026-03-30T13:43:03.000Z</time>
      </trkpt>
      <trkpt lat="49.50369" lon="-1.59096">
        <ele>104.8</ele>
        <time>2026-03-30T13:43:04.000Z</time>
      </trkpt>
      <trkpt lat="49.50368" lon="-1.59094">
        <ele>104.6</ele>
        <time>2026-03-30T13:43:05.000Z</time>
      </trkpt>
      <trkpt lat="49.50366" lon="-1.59092">
        <ele>104.6</ele>
        <time>2026-03-30T13:43:06.000Z</time>
      </trkpt>
      <trkpt lat="49.50365" lon="-1.5909">
        <ele>104.1</ele>
        <time>2026-03-30T13:43:07.000Z</time>
      </trkpt>
      <trkpt lat="49.50364" lon="-1.59088">
        <ele>104.4</ele>
        <time>2026-03-30T13:43:08.000Z</time>
      </trkpt>
      <trkpt lat="49.50363" lon="-1.59087">
        <ele>103.5</ele>
        <time>2026-03-30T13:43:09.000Z</time>
      </trkpt>
      <trkpt lat="49.50362" lon="-1.59085">
        <ele>103.4</ele>
        <time>2026-03-30T13:43:10.000Z</time>
      </trkpt>
      <trkpt lat="49.50361" lon="-1.59083">
        <ele>102.5</ele>
        <time>2026-03-30T13:43:11.000Z</time>
      </trkpt>
      <trkpt lat="49.5036" lon="-1.59082">
        <ele>103.5</ele>
        <time>2026-03-30T13:43:12.000Z</time>
      </trkpt>
      <trkpt lat="49.50358" lon="-1.59081">
        <ele>103.5</ele>
        <time>2026-03-30T13:43:13.000Z</time>
      </trkpt>
      <trkpt lat="49.50357" lon="-1.59079">
        <ele>104.2</ele>
        <time>2026-03-30T13:43:14.000Z</time>
      </trkpt>
      <trkpt lat="49.50355" lon="-1.59077">
        <ele>105.1</ele>
        <time>2026-03-30T13:43:15.000Z</time>
      </trkpt>
      <trkpt lat="49.50354" lon="-1.59076">
        <ele>105.6</ele>
        <time>2026-03-30T13:43:16.000Z</time>
      </trkpt>
      <trkpt lat="49.50353" lon="-1.59075">
        <ele>106.1</ele>
        <time>2026-03-30T13:43:17.000Z</time>
      </trkpt>
      <trkpt lat="49.50352" lon="-1.59073">
        <ele>106.8</ele>
        <time>2026-03-30T13:43:18.000Z</time>
      </trkpt>
      <trkpt lat="49.5035" lon="-1.59072">
        <ele>107</ele>
        <time>2026-03-30T13:43:19.000Z</time>
      </trkpt>
      <trkpt lat="49.50349" lon="-1.59071">
        <ele>107.7</ele>
        <time>2026-03-30T13:43:20.000Z</time>
      </trkpt>
      <trkpt lat="49.50347" lon="-1.5907">
        <ele>108.3</ele>
        <time>2026-03-30T13:43:21.000Z</time>
      </trkpt>
      <trkpt lat="49.50346" lon="-1.59068">
        <ele>108.7</ele>
        <time>2026-03-30T13:43:22.000Z</time>
      </trkpt>
      <trkpt lat="49.50345" lon="-1.59067">
        <ele>108.9</ele>
        <time>2026-03-30T13:43:23.000Z</time>
      </trkpt>
      <trkpt lat="49.50344" lon="-1.59066">
        <ele>109.3</ele>
        <time>2026-03-30T13:43:24.000Z</time>
      </trkpt>
      <trkpt lat="49.50343" lon="-1.59065">
        <ele>109.2</ele>
        <time>2026-03-30T13:43:25.000Z</time>
      </trkpt>
      <trkpt lat="49.50342" lon="-1.59065">
        <ele>109.8</ele>
        <time>2026-03-30T13:43:26.000Z</time>
      </trkpt>
      <trkpt lat="49.50341" lon="-1.59064">
        <ele>110.3</ele>
        <time>2026-03-30T13:43:27.000Z</time>
      </trkpt>
      <trkpt lat="49.50339" lon="-1.59063">
        <ele>110.8</ele>
        <time>2026-03-30T13:43:28.000Z</time>
      </trkpt>
      <trkpt lat="49.50339" lon="-1.59061">
        <ele>111</ele>
        <time>2026-03-30T13:43:29.000Z</time>
      </trkpt>
      <trkpt lat="49.50337" lon="-1.5906">
        <ele>110.8</ele>
        <time>2026-03-30T13:43:30.000Z</time>
      </trkpt>
      <trkpt lat="49.50336" lon="-1.59058">
        <ele>111.4</ele>
        <time>2026-03-30T13:43:31.000Z</time>
      </trkpt>
      <trkpt lat="49.50335" lon="-1.59057">
        <ele>111.1</ele>
        <time>2026-03-30T13:43:32.000Z</time>
      </trkpt>
      <trkpt lat="49.50334" lon="-1.59056">
        <ele>110.9</ele>
        <time>2026-03-30T13:43:33.000Z</time>
      </trkpt>
      <trkpt lat="49.50333" lon="-1.59054">
        <ele>111.1</ele>
        <time>2026-03-30T13:43:34.000Z</time>
      </trkpt>
      <trkpt lat="49.50332" lon="-1.59053">
        <ele>110.7</ele>
        <time>2026-03-30T13:43:35.000Z</time>
      </trkpt>
      <trkpt lat="49.50331" lon="-1.59051">
        <ele>110.2</ele>
        <time>2026-03-30T13:43:36.000Z</time>
      </trkpt>
      <trkpt lat="49.5033" lon="-1.5905">
        <ele>111</ele>
        <time>2026-03-30T13:43:37.000Z</time>
      </trkpt>
      <trkpt lat="49.50329" lon="-1.59049">
        <ele>111.2</ele>
        <time>2026-03-30T13:43:38.000Z</time>
      </trkpt>
      <trkpt lat="49.50328" lon="-1.59048">
        <ele>112.2</ele>
        <time>2026-03-30T13:43:39.000Z</time>
      </trkpt>
      <trkpt lat="49.50326" lon="-1.59047">
        <ele>113</ele>
        <time>2026-03-30T13:43:40.000Z</time>
      </trkpt>
      <trkpt lat="49.50325" lon="-1.59046">
        <ele>112.9</ele>
        <time>2026-03-30T13:43:41.000Z</time>
      </trkpt>
      <trkpt lat="49.50324" lon="-1.59045">
        <ele>113.2</ele>
        <time>2026-03-30T13:43:42.000Z</time>
      </trkpt>
      <trkpt lat="49.50322" lon="-1.59044">
        <ele>113.7</ele>
        <time>2026-03-30T13:43:43.000Z</time>
      </trkpt>
      <trkpt lat="49.50321" lon="-1.59043">
        <ele>113.8</ele>
        <time>2026-03-30T13:43:44.000Z</time>
      </trkpt>
      <trkpt lat="49.5032" lon="-1.59042">
        <ele>113.4</ele>
        <time>2026-03-30T13:43:45.000Z</time>
      </trkpt>
      <trkpt lat="49.50318" lon="-1.59041">
        <ele>114.3</ele>
        <time>2026-03-30T13:43:46.000Z</time>
      </trkpt>
      <trkpt lat="49.50317" lon="-1.59039">
        <ele>115</ele>
        <time>2026-03-30T13:43:47.000Z</time>
      </trkpt>
      <trkpt lat="49.50316" lon="-1.59038">
        <ele>114.2</ele>
        <time>2026-03-30T13:43:48.000Z</time>
      </trkpt>
      <trkpt lat="49.50315" lon="-1.59037">
        <ele>114.6</ele>
        <time>2026-03-30T13:43:49.000Z</time>
      </trkpt>
      <trkpt lat="49.50313" lon="-1.59036">
        <ele>115</ele>
        <time>2026-03-30T13:43:50.000Z</time>
      </trkpt>
      <trkpt lat="49.50312" lon="-1.59035">
        <ele>115.6</ele>
        <time>2026-03-30T13:43:51.000Z</time>
      </trkpt>
      <trkpt lat="49.50311" lon="-1.59033">
        <ele>116</ele>
        <time>2026-03-30T13:43:52.000Z</time>
      </trkpt>
      <trkpt lat="49.5031" lon="-1.59031">
        <ele>116.2</ele>
        <time>2026-03-30T13:43:53.000Z</time>
      </trkpt>
      <trkpt lat="49.50309" lon="-1.5903">
        <ele>116.4</ele>
        <time>2026-03-30T13:43:54.000Z</time>
      </trkpt>
      <trkpt lat="49.50307" lon="-1.59029">
        <ele>116.5</ele>
        <time>2026-03-30T13:43:55.000Z</time>
      </trkpt>
      <trkpt lat="49.50307" lon="-1.59027">
        <ele>115.3</ele>
        <time>2026-03-30T13:43:56.000Z</time>
      </trkpt>
      <trkpt lat="49.50306" lon="-1.59026">
        <ele>115.4</ele>
        <time>2026-03-30T13:43:57.000Z</time>
      </trkpt>
      <trkpt lat="49.50305" lon="-1.59024">
        <ele>115.7</ele>
        <time>2026-03-30T13:43:58.000Z</time>
      </trkpt>
      <trkpt lat="49.50304" lon="-1.59023">
        <ele>115.7</ele>
        <time>2026-03-30T13:43:59.000Z</time>
      </trkpt>
      <trkpt lat="49.50303" lon="-1.59022">
        <ele>116.1</ele>
        <time>2026-03-30T13:44:00.000Z</time>
      </trkpt>
      <trkpt lat="49.50302" lon="-1.5902">
        <ele>116.4</ele>
        <time>2026-03-30T13:44:01.000Z</time>
      </trkpt>
      <trkpt lat="49.50301" lon="-1.59019">
        <ele>116.6</ele>
        <time>2026-03-30T13:44:02.000Z</time>
      </trkpt>
      <trkpt lat="49.503" lon="-1.59017">
        <ele>116.4</ele>
        <time>2026-03-30T13:44:03.000Z</time>
      </trkpt>
      <trkpt lat="49.50299" lon="-1.59015">
        <ele>116.8</ele>
        <time>2026-03-30T13:44:04.000Z</time>
      </trkpt>
      <trkpt lat="49.50298" lon="-1.59013">
        <ele>117.3</ele>
        <time>2026-03-30T13:44:05.000Z</time>
      </trkpt>
      <trkpt lat="49.50297" lon="-1.59012">
        <ele>117.5</ele>
        <time>2026-03-30T13:44:06.000Z</time>
      </trkpt>
      <trkpt lat="49.50296" lon="-1.5901">
        <ele>118.2</ele>
        <time>2026-03-30T13:44:07.000Z</time>
      </trkpt>
      <trkpt lat="49.50295" lon="-1.59007">
        <ele>116.6</ele>
        <time>2026-03-30T13:44:08.000Z</time>
      </trkpt>
      <trkpt lat="49.50295" lon="-1.59005">
        <ele>115.1</ele>
        <time>2026-03-30T13:44:09.000Z</time>
      </trkpt>
      <trkpt lat="49.50294" lon="-1.59003">
        <ele>114.9</ele>
        <time>2026-03-30T13:44:10.000Z</time>
      </trkpt>
      <trkpt lat="49.50293" lon="-1.59001">
        <ele>114.8</ele>
        <time>2026-03-30T13:44:11.000Z</time>
      </trkpt>
      <trkpt lat="49.50292" lon="-1.58999">
        <ele>115.3</ele>
        <time>2026-03-30T13:44:12.000Z</time>
      </trkpt>
      <trkpt lat="49.50291" lon="-1.58998">
        <ele>114.9</ele>
        <time>2026-03-30T13:44:13.000Z</time>
      </trkpt>
      <trkpt lat="49.5029" lon="-1.58996">
        <ele>115.3</ele>
        <time>2026-03-30T13:44:14.000Z</time>
      </trkpt>
      <trkpt lat="49.50289" lon="-1.58994">
        <ele>115.9</ele>
        <time>2026-03-30T13:44:15.000Z</time>
      </trkpt>
      <trkpt lat="49.50288" lon="-1.58993">
        <ele>116.1</ele>
        <time>2026-03-30T13:44:16.000Z</time>
      </trkpt>
      <trkpt lat="49.50286" lon="-1.58991">
        <ele>116.9</ele>
        <time>2026-03-30T13:44:17.000Z</time>
      </trkpt>
      <trkpt lat="49.50285" lon="-1.58989">
        <ele>117.4</ele>
        <time>2026-03-30T13:44:18.000Z</time>
      </trkpt>
      <trkpt lat="49.50284" lon="-1.58988">
        <ele>117.5</ele>
        <time>2026-03-30T13:44:19.000Z</time>
      </trkpt>
      <trkpt lat="49.50283" lon="-1.58986">
        <ele>118.1</ele>
        <time>2026-03-30T13:44:20.000Z</time>
      </trkpt>
      <trkpt lat="49.50282" lon="-1.58984">
        <ele>117.9</ele>
        <time>2026-03-30T13:44:21.000Z</time>
      </trkpt>
      <trkpt lat="49.50281" lon="-1.58982">
        <ele>117.9</ele>
        <time>2026-03-30T13:44:22.000Z</time>
      </trkpt>
      <trkpt lat="49.50281" lon="-1.5898">
        <ele>118.1</ele>
        <time>2026-03-30T13:44:23.000Z</time>
      </trkpt>
      <trkpt lat="49.5028" lon="-1.58979">
        <ele>118.1</ele>
        <time>2026-03-30T13:44:24.000Z</time>
      </trkpt>
      <trkpt lat="49.50279" lon="-1.58977">
        <ele>118.5</ele>
        <time>2026-03-30T13:44:25.000Z</time>
      </trkpt>
      <trkpt lat="49.50278" lon="-1.58976">
        <ele>118.4</ele>
        <time>2026-03-30T13:44:26.000Z</time>
      </trkpt>
      <trkpt lat="49.50277" lon="-1.58974">
        <ele>118</ele>
        <time>2026-03-30T13:44:27.000Z</time>
      </trkpt>
      <trkpt lat="49.50276" lon="-1.58973">
        <ele>117.7</ele>
        <time>2026-03-30T13:44:28.000Z</time>
      </trkpt>
      <trkpt lat="49.50275" lon="-1.58972">
        <ele>117.9</ele>
        <time>2026-03-30T13:44:29.000Z</time>
      </trkpt>
      <trkpt lat="49.50275" lon="-1.5897">
        <ele>117.3</ele>
        <time>2026-03-30T13:44:30.000Z</time>
      </trkpt>
      <trkpt lat="49.50273" lon="-1.58969">
        <ele>118.9</ele>
        <time>2026-03-30T13:44:31.000Z</time>
      </trkpt>
      <trkpt lat="49.50272" lon="-1.58968">
        <ele>120.1</ele>
        <time>2026-03-30T13:44:32.000Z</time>
      </trkpt>
      <trkpt lat="49.50271" lon="-1.58967">
        <ele>119.5</ele>
        <time>2026-03-30T13:44:33.000Z</time>
      </trkpt>
      <trkpt lat="49.5027" lon="-1.58966">
        <ele>119.5</ele>
        <time>2026-03-30T13:44:34.000Z</time>
      </trkpt>
      <trkpt lat="49.5027" lon="-1.58963">
        <ele>117.4</ele>
        <time>2026-03-30T13:44:35.000Z</time>
      </trkpt>
      <trkpt lat="49.50269" lon="-1.58961">
        <ele>116.1</ele>
        <time>2026-03-30T13:44:36.000Z</time>
      </trkpt>
      <trkpt lat="49.50269" lon="-1.58958">
        <ele>115.4</ele>
        <time>2026-03-30T13:44:37.000Z</time>
      </trkpt>
      <trkpt lat="49.50268" lon="-1.58955">
        <ele>113.9</ele>
        <time>2026-03-30T13:44:38.000Z</time>
      </trkpt>
      <trkpt lat="49.50268" lon="-1.58953">
        <ele>113.8</ele>
        <time>2026-03-30T13:44:39.000Z</time>
      </trkpt>
      <trkpt lat="49.50269" lon="-1.5895">
        <ele>113.5</ele>
        <time>2026-03-30T13:44:40.000Z</time>
      </trkpt>
      <trkpt lat="49.50269" lon="-1.58948">
        <ele>112.7</ele>
        <time>2026-03-30T13:44:41.000Z</time>
      </trkpt>
      <trkpt lat="49.5027" lon="-1.58946">
        <ele>112</ele>
        <time>2026-03-30T13:44:42.000Z</time>
      </trkpt>
      <trkpt lat="49.50269" lon="-1.58944">
        <ele>112.6</ele>
        <time>2026-03-30T13:44:43.000Z</time>
      </trkpt>
      <trkpt lat="49.50269" lon="-1.58943">
        <ele>112.5</ele>
        <time>2026-03-30T13:44:44.000Z</time>
      </trkpt>
      <trkpt lat="49.50269" lon="-1.58941">
        <ele>112.9</ele>
        <time>2026-03-30T13:44:45.000Z</time>
      </trkpt>
      <trkpt lat="49.50268" lon="-1.5894">
        <ele>113</ele>
        <time>2026-03-30T13:44:46.000Z</time>
      </trkpt>
      <trkpt lat="49.50268" lon="-1.58938">
        <ele>114</ele>
        <time>2026-03-30T13:44:47.000Z</time>
      </trkpt>
      <trkpt lat="49.50268" lon="-1.58936">
        <ele>114.5</ele>
        <time>2026-03-30T13:44:48.000Z</time>
      </trkpt>
      <trkpt lat="49.50269" lon="-1.58933">
        <ele>114.5</ele>
        <time>2026-03-30T13:44:49.000Z</time>
      </trkpt>
      <trkpt lat="49.50269" lon="-1.58931">
        <ele>114.8</ele>
        <time>2026-03-30T13:44:50.000Z</time>
      </trkpt>
      <trkpt lat="49.5027" lon="-1.58928">
        <ele>115.7</ele>
        <time>2026-03-30T13:44:51.000Z</time>
      </trkpt>
      <trkpt lat="49.5027" lon="-1.58925">
        <ele>115.5</ele>
        <time>2026-03-30T13:44:52.000Z</time>
      </trkpt>
      <trkpt lat="49.5027" lon="-1.58922">
        <ele>115</ele>
        <time>2026-03-30T13:44:53.000Z</time>
      </trkpt>
      <trkpt lat="49.5027" lon="-1.58919">
        <ele>115.7</ele>
        <time>2026-03-30T13:44:54.000Z</time>
      </trkpt>
      <trkpt lat="49.50271" lon="-1.58917">
        <ele>115.6</ele>
        <time>2026-03-30T13:44:55.000Z</time>
      </trkpt>
      <trkpt lat="49.50271" lon="-1.58915">
        <ele>115.2</ele>
        <time>2026-03-30T13:44:56.000Z</time>
      </trkpt>
      <trkpt lat="49.50271" lon="-1.58913">
        <ele>115.2</ele>
        <time>2026-03-30T13:44:57.000Z</time>
      </trkpt>
      <trkpt lat="49.50271" lon="-1.58911">
        <ele>115</ele>
        <time>2026-03-30T13:44:58.000Z</time>
      </trkpt>
      <trkpt lat="49.50271" lon="-1.58909">
        <ele>115.8</ele>
        <time>2026-03-30T13:44:59.000Z</time>
      </trkpt>
      <trkpt lat="49.5027" lon="-1.58907">
        <ele>116.2</ele>
        <time>2026-03-30T13:45:00.000Z</time>
      </trkpt>
      <trkpt lat="49.5027" lon="-1.58906">
        <ele>116.4</ele>
        <time>2026-03-30T13:45:01.000Z</time>
      </trkpt>
      <trkpt lat="49.50269" lon="-1.58904">
        <ele>116.6</ele>
        <time>2026-03-30T13:45:02.000Z</time>
      </trkpt>
      <trkpt lat="49.50269" lon="-1.58902">
        <ele>117.9</ele>
        <time>2026-03-30T13:45:03.000Z</time>
      </trkpt>
      <trkpt lat="49.50269" lon="-1.589">
        <ele>117.9</ele>
        <time>2026-03-30T13:45:04.000Z</time>
      </trkpt>
      <trkpt lat="49.50268" lon="-1.58898">
        <ele>117.5</ele>
        <time>2026-03-30T13:45:05.000Z</time>
      </trkpt>
      <trkpt lat="49.50268" lon="-1.58895">
        <ele>118</ele>
        <time>2026-03-30T13:45:06.000Z</time>
      </trkpt>
      <trkpt lat="49.50268" lon="-1.58893">
        <ele>118.9</ele>
        <time>2026-03-30T13:45:07.000Z</time>
      </trkpt>
      <trkpt lat="49.50267" lon="-1.58892">
        <ele>119.1</ele>
        <time>2026-03-30T13:45:08.000Z</time>
      </trkpt>
      <trkpt lat="49.50266" lon="-1.5889">
        <ele>119</ele>
        <time>2026-03-30T13:45:09.000Z</time>
      </trkpt>
      <trkpt lat="49.50266" lon="-1.58888">
        <ele>119.3</ele>
        <time>2026-03-30T13:45:10.000Z</time>
      </trkpt>
      <trkpt lat="49.50265" lon="-1.58886">
        <ele>121.2</ele>
        <time>2026-03-30T13:45:11.000Z</time>
      </trkpt>
      <trkpt lat="49.50264" lon="-1.58884">
        <ele>122.8</ele>
        <time>2026-03-30T13:45:12.000Z</time>
      </trkpt>
      <trkpt lat="49.50264" lon="-1.58882">
        <ele>123</ele>
        <time>2026-03-30T13:45:13.000Z</time>
      </trkpt>
      <trkpt lat="49.50264" lon="-1.5888">
        <ele>121.7</ele>
        <time>2026-03-30T13:45:14.000Z</time>
      </trkpt>
      <trkpt lat="49.50264" lon="-1.58878">
        <ele>121.4</ele>
        <time>2026-03-30T13:45:15.000Z</time>
      </trkpt>
      <trkpt lat="49.50264" lon="-1.58876">
        <ele>119.8</ele>
        <time>2026-03-30T13:45:16.000Z</time>
      </trkpt>
      <trkpt lat="49.50264" lon="-1.58874">
        <ele>119.1</ele>
        <time>2026-03-30T13:45:17.000Z</time>
      </trkpt>
      <trkpt lat="49.50263" lon="-1.58872">
        <ele>119.4</ele>
        <time>2026-03-30T13:45:18.000Z</time>
      </trkpt>
      <trkpt lat="49.50262" lon="-1.5887">
        <ele>120.4</ele>
        <time>2026-03-30T13:45:19.000Z</time>
      </trkpt>
      <trkpt lat="49.50262" lon="-1.58869">
        <ele>119.4</ele>
        <time>2026-03-30T13:45:20.000Z</time>
      </trkpt>
      <trkpt lat="49.50261" lon="-1.58867">
        <ele>118.8</ele>
        <time>2026-03-30T13:45:21.000Z</time>
      </trkpt>
      <trkpt lat="49.50261" lon="-1.58865">
        <ele>118.6</ele>
        <time>2026-03-30T13:45:22.000Z</time>
      </trkpt>
      <trkpt lat="49.50261" lon="-1.58863">
        <ele>118.9</ele>
        <time>2026-03-30T13:45:23.000Z</time>
      </trkpt>
      <trkpt lat="49.50261" lon="-1.58861">
        <ele>119.6</ele>
        <time>2026-03-30T13:45:24.000Z</time>
      </trkpt>
      <trkpt lat="49.5026" lon="-1.58859">
        <ele>119.6</ele>
        <time>2026-03-30T13:45:25.000Z</time>
      </trkpt>
      <trkpt lat="49.5026" lon="-1.58857">
        <ele>119.2</ele>
        <time>2026-03-30T13:45:26.000Z</time>
      </trkpt>
      <trkpt lat="49.5026" lon="-1.58855">
        <ele>119.4</ele>
        <time>2026-03-30T13:45:27.000Z</time>
      </trkpt>
      <trkpt lat="49.5026" lon="-1.58853">
        <ele>119.4</ele>
        <time>2026-03-30T13:45:28.000Z</time>
      </trkpt>
      <trkpt lat="49.5026" lon="-1.58851">
        <ele>118.7</ele>
        <time>2026-03-30T13:45:29.000Z</time>
      </trkpt>
      <trkpt lat="49.50259" lon="-1.58849">
        <ele>118.9</ele>
        <time>2026-03-30T13:45:30.000Z</time>
      </trkpt>
      <trkpt lat="49.50259" lon="-1.58847">
        <ele>119.1</ele>
        <time>2026-03-30T13:45:31.000Z</time>
      </trkpt>
      <trkpt lat="49.50259" lon="-1.58845">
        <ele>118.9</ele>
        <time>2026-03-30T13:45:32.000Z</time>
      </trkpt>
      <trkpt lat="49.50259" lon="-1.58843">
        <ele>118.7</ele>
        <time>2026-03-30T13:45:33.000Z</time>
      </trkpt>
      <trkpt lat="49.50257" lon="-1.58842">
        <ele>119.3</ele>
        <time>2026-03-30T13:45:34.000Z</time>
      </trkpt>
      <trkpt lat="49.50256" lon="-1.5884">
        <ele>119.3</ele>
        <time>2026-03-30T13:45:35.000Z</time>
      </trkpt>
      <trkpt lat="49.50256" lon="-1.58838">
        <ele>118.9</ele>
        <time>2026-03-30T13:45:36.000Z</time>
      </trkpt>
      <trkpt lat="49.50255" lon="-1.58837">
        <ele>119.1</ele>
        <time>2026-03-30T13:45:37.000Z</time>
      </trkpt>
      <trkpt lat="49.50254" lon="-1.58835">
        <ele>119.7</ele>
        <time>2026-03-30T13:45:38.000Z</time>
      </trkpt>
      <trkpt lat="49.50253" lon="-1.58834">
        <ele>119.6</ele>
        <time>2026-03-30T13:45:39.000Z</time>
      </trkpt>
      <trkpt lat="49.50252" lon="-1.58833">
        <ele>119.8</ele>
        <time>2026-03-30T13:45:40.000Z</time>
      </trkpt>
      <trkpt lat="49.50251" lon="-1.58832">
        <ele>120</ele>
        <time>2026-03-30T13:45:41.000Z</time>
      </trkpt>
      <trkpt lat="49.5025" lon="-1.58832">
        <ele>120.8</ele>
        <time>2026-03-30T13:45:42.000Z</time>
      </trkpt>
      <trkpt lat="49.50249" lon="-1.58831">
        <ele>120.2</ele>
        <time>2026-03-30T13:45:43.000Z</time>
      </trkpt>
      <trkpt lat="49.50248" lon="-1.5883">
        <ele>119.6</ele>
        <time>2026-03-30T13:45:44.000Z</time>
      </trkpt>
      <trkpt lat="49.50247" lon="-1.5883">
        <ele>120.1</ele>
        <time>2026-03-30T13:45:45.000Z</time>
      </trkpt>
      <trkpt lat="49.50246" lon="-1.58829">
        <ele>119.6</ele>
        <time>2026-03-30T13:45:46.000Z</time>
      </trkpt>
      <trkpt lat="49.50244" lon="-1.58828">
        <ele>119.6</ele>
        <time>2026-03-30T13:45:47.000Z</time>
      </trkpt>
      <trkpt lat="49.50243" lon="-1.58827">
        <ele>119.8</ele>
        <time>2026-03-30T13:45:48.000Z</time>
      </trkpt>
      <trkpt lat="49.50242" lon="-1.58826">
        <ele>119.9</ele>
        <time>2026-03-30T13:45:49.000Z</time>
      </trkpt>
      <trkpt lat="49.50241" lon="-1.58825">
        <ele>119.6</ele>
        <time>2026-03-30T13:45:50.000Z</time>
      </trkpt>
      <trkpt lat="49.5024" lon="-1.58823">
        <ele>120</ele>
        <time>2026-03-30T13:45:51.000Z</time>
      </trkpt>
      <trkpt lat="49.50239" lon="-1.58822">
        <ele>120</ele>
        <time>2026-03-30T13:45:52.000Z</time>
      </trkpt>
      <trkpt lat="49.50237" lon="-1.58821">
        <ele>119.9</ele>
        <time>2026-03-30T13:45:53.000Z</time>
      </trkpt>
      <trkpt lat="49.50236" lon="-1.5882">
        <ele>120.1</ele>
        <time>2026-03-30T13:45:54.000Z</time>
      </trkpt>
      <trkpt lat="49.50235" lon="-1.58819">
        <ele>119.7</ele>
        <time>2026-03-30T13:45:55.000Z</time>
      </trkpt>
      <trkpt lat="49.50234" lon="-1.58818">
        <ele>119.5</ele>
        <time>2026-03-30T13:45:56.000Z</time>
      </trkpt>
      <trkpt lat="49.50233" lon="-1.58817">
        <ele>118.9</ele>
        <time>2026-03-30T13:45:57.000Z</time>
      </trkpt>
      <trkpt lat="49.50232" lon="-1.58816">
        <ele>119.8</ele>
        <time>2026-03-30T13:45:58.000Z</time>
      </trkpt>
      <trkpt lat="49.50231" lon="-1.58816">
        <ele>120.1</ele>
        <time>2026-03-30T13:45:59.000Z</time>
      </trkpt>
      <trkpt lat="49.5023" lon="-1.58815">
        <ele>120.6</ele>
        <time>2026-03-30T13:46:00.000Z</time>
      </trkpt>
      <trkpt lat="49.50229" lon="-1.58814">
        <ele>120.7</ele>
        <time>2026-03-30T13:46:01.000Z</time>
      </trkpt>
      <trkpt lat="49.50228" lon="-1.58813">
        <ele>120.6</ele>
        <time>2026-03-30T13:46:02.000Z</time>
      </trkpt>
      <trkpt lat="49.50226" lon="-1.58811">
        <ele>119.8</ele>
        <time>2026-03-30T13:46:03.000Z</time>
      </trkpt>
      <trkpt lat="49.50225" lon="-1.58811">
        <ele>119.6</ele>
        <time>2026-03-30T13:46:04.000Z</time>
      </trkpt>
      <trkpt lat="49.50224" lon="-1.5881">
        <ele>119.9</ele>
        <time>2026-03-30T13:46:05.000Z</time>
      </trkpt>
      <trkpt lat="49.50222" lon="-1.58809">
        <ele>120.5</ele>
        <time>2026-03-30T13:46:06.000Z</time>
      </trkpt>
      <trkpt lat="49.50221" lon="-1.58808">
        <ele>120.5</ele>
        <time>2026-03-30T13:46:07.000Z</time>
      </trkpt>
      <trkpt lat="49.5022" lon="-1.58807">
        <ele>120.3</ele>
        <time>2026-03-30T13:46:08.000Z</time>
      </trkpt>
      <trkpt lat="49.50219" lon="-1.58806">
        <ele>120.1</ele>
        <time>2026-03-30T13:46:09.000Z</time>
      </trkpt>
      <trkpt lat="49.50218" lon="-1.58804">
        <ele>119.2</ele>
        <time>2026-03-30T13:46:10.000Z</time>
      </trkpt>
      <trkpt lat="49.50217" lon="-1.58803">
        <ele>119.8</ele>
        <time>2026-03-30T13:46:11.000Z</time>
      </trkpt>
      <trkpt lat="49.50216" lon="-1.58802">
        <ele>119.8</ele>
        <time>2026-03-30T13:46:12.000Z</time>
      </trkpt>
      <trkpt lat="49.50214" lon="-1.58801">
        <ele>120.4</ele>
        <time>2026-03-30T13:46:13.000Z</time>
      </trkpt>
      <trkpt lat="49.50213" lon="-1.588">
        <ele>120.4</ele>
        <time>2026-03-30T13:46:14.000Z</time>
      </trkpt>
      <trkpt lat="49.50212" lon="-1.58799">
        <ele>120.5</ele>
        <time>2026-03-30T13:46:15.000Z</time>
      </trkpt>
      <trkpt lat="49.50211" lon="-1.58798">
        <ele>120.6</ele>
        <time>2026-03-30T13:46:16.000Z</time>
      </trkpt>
      <trkpt lat="49.50209" lon="-1.58797">
        <ele>121.1</ele>
        <time>2026-03-30T13:46:17.000Z</time>
      </trkpt>
      <trkpt lat="49.50208" lon="-1.58796">
        <ele>120.9</ele>
        <time>2026-03-30T13:46:18.000Z</time>
      </trkpt>
      <trkpt lat="49.50207" lon="-1.58795">
        <ele>120.1</ele>
        <time>2026-03-30T13:46:19.000Z</time>
      </trkpt>
      <trkpt lat="49.50206" lon="-1.58794">
        <ele>120.1</ele>
        <time>2026-03-30T13:46:20.000Z</time>
      </trkpt>
      <trkpt lat="49.50205" lon="-1.58792">
        <ele>119.7</ele>
        <time>2026-03-30T13:46:21.000Z</time>
      </trkpt>
      <trkpt lat="49.50204" lon="-1.58791">
        <ele>120</ele>
        <time>2026-03-30T13:46:22.000Z</time>
      </trkpt>
      <trkpt lat="49.50203" lon="-1.5879">
        <ele>119.9</ele>
        <time>2026-03-30T13:46:23.000Z</time>
      </trkpt>
      <trkpt lat="49.50202" lon="-1.58789">
        <ele>119.4</ele>
        <time>2026-03-30T13:46:24.000Z</time>
      </trkpt>
      <trkpt lat="49.50201" lon="-1.58788">
        <ele>119.7</ele>
        <time>2026-03-30T13:46:25.000Z</time>
      </trkpt>
      <trkpt lat="49.50199" lon="-1.58787">
        <ele>119.9</ele>
        <time>2026-03-30T13:46:26.000Z</time>
      </trkpt>
      <trkpt lat="49.50198" lon="-1.58786">
        <ele>119.6</ele>
        <time>2026-03-30T13:46:27.000Z</time>
      </trkpt>
      <trkpt lat="49.50197" lon="-1.58785">
        <ele>120.8</ele>
        <time>2026-03-30T13:46:28.000Z</time>
      </trkpt>
      <trkpt lat="49.50196" lon="-1.58784">
        <ele>122.2</ele>
        <time>2026-03-30T13:46:29.000Z</time>
      </trkpt>
      <trkpt lat="49.50194" lon="-1.58784">
        <ele>122.3</ele>
        <time>2026-03-30T13:46:30.000Z</time>
      </trkpt>
      <trkpt lat="49.50193" lon="-1.58783">
        <ele>122.2</ele>
        <time>2026-03-30T13:46:31.000Z</time>
      </trkpt>
      <trkpt lat="49.50192" lon="-1.58782">
        <ele>121.9</ele>
        <time>2026-03-30T13:46:32.000Z</time>
      </trkpt>
      <trkpt lat="49.50191" lon="-1.58782">
        <ele>121.7</ele>
        <time>2026-03-30T13:46:33.000Z</time>
      </trkpt>
      <trkpt lat="49.50189" lon="-1.58781">
        <ele>121.8</ele>
        <time>2026-03-30T13:46:34.000Z</time>
      </trkpt>
      <trkpt lat="49.50188" lon="-1.58779">
        <ele>121.3</ele>
        <time>2026-03-30T13:46:35.000Z</time>
      </trkpt>
      <trkpt lat="49.50187" lon="-1.58778">
        <ele>121.4</ele>
        <time>2026-03-30T13:46:36.000Z</time>
      </trkpt>
      <trkpt lat="49.50186" lon="-1.58777">
        <ele>121.8</ele>
        <time>2026-03-30T13:46:37.000Z</time>
      </trkpt>
      <trkpt lat="49.50184" lon="-1.58776">
        <ele>121.8</ele>
        <time>2026-03-30T13:46:38.000Z</time>
      </trkpt>
      <trkpt lat="49.50183" lon="-1.58775">
        <ele>122.2</ele>
        <time>2026-03-30T13:46:39.000Z</time>
      </trkpt>
      <trkpt lat="49.50181" lon="-1.58774">
        <ele>122.2</ele>
        <time>2026-03-30T13:46:40.000Z</time>
      </trkpt>
      <trkpt lat="49.5018" lon="-1.58774">
        <ele>122.5</ele>
        <time>2026-03-30T13:46:41.000Z</time>
      </trkpt>
      <trkpt lat="49.50178" lon="-1.58773">
        <ele>123.4</ele>
        <time>2026-03-30T13:46:42.000Z</time>
      </trkpt>
      <trkpt lat="49.50177" lon="-1.58773">
        <ele>123.9</ele>
        <time>2026-03-30T13:46:43.000Z</time>
      </trkpt>
      <trkpt lat="49.50176" lon="-1.58772">
        <ele>123.9</ele>
        <time>2026-03-30T13:46:44.000Z</time>
      </trkpt>
      <trkpt lat="49.50174" lon="-1.58771">
        <ele>123.6</ele>
        <time>2026-03-30T13:46:45.000Z</time>
      </trkpt>
      <trkpt lat="49.50173" lon="-1.5877">
        <ele>123.1</ele>
        <time>2026-03-30T13:46:46.000Z</time>
      </trkpt>
      <trkpt lat="49.50172" lon="-1.58769">
        <ele>122.7</ele>
        <time>2026-03-30T13:46:47.000Z</time>
      </trkpt>
      <trkpt lat="49.5017" lon="-1.58768">
        <ele>122.7</ele>
        <time>2026-03-30T13:46:48.000Z</time>
      </trkpt>
      <trkpt lat="49.50169" lon="-1.58767">
        <ele>123.1</ele>
        <time>2026-03-30T13:46:49.000Z</time>
      </trkpt>
      <trkpt lat="49.50168" lon="-1.58766">
        <ele>123.5</ele>
        <time>2026-03-30T13:46:50.000Z</time>
      </trkpt>
      <trkpt lat="49.50167" lon="-1.58765">
        <ele>123.3</ele>
        <time>2026-03-30T13:46:51.000Z</time>
      </trkpt>
      <trkpt lat="49.50166" lon="-1.58764">
        <ele>122.5</ele>
        <time>2026-03-30T13:46:52.000Z</time>
      </trkpt>
      <trkpt lat="49.50165" lon="-1.58763">
        <ele>122.7</ele>
        <time>2026-03-30T13:46:53.000Z</time>
      </trkpt>
      <trkpt lat="49.50164" lon="-1.58762">
        <ele>122.4</ele>
        <time>2026-03-30T13:46:54.000Z</time>
      </trkpt>
      <trkpt lat="49.50162" lon="-1.58761">
        <ele>121.6</ele>
        <time>2026-03-30T13:46:55.000Z</time>
      </trkpt>
      <trkpt lat="49.50161" lon="-1.5876">
        <ele>121.9</ele>
        <time>2026-03-30T13:46:56.000Z</time>
      </trkpt>
      <trkpt lat="49.50161" lon="-1.58758">
        <ele>121.1</ele>
        <time>2026-03-30T13:46:57.000Z</time>
      </trkpt>
      <trkpt lat="49.5016" lon="-1.58757">
        <ele>121.2</ele>
        <time>2026-03-30T13:46:58.000Z</time>
      </trkpt>
      <trkpt lat="49.50158" lon="-1.58756">
        <ele>121</ele>
        <time>2026-03-30T13:46:59.000Z</time>
      </trkpt>
      <trkpt lat="49.50157" lon="-1.58755">
        <ele>120.4</ele>
        <time>2026-03-30T13:47:00.000Z</time>
      </trkpt>
      <trkpt lat="49.50156" lon="-1.58754">
        <ele>120</ele>
        <time>2026-03-30T13:47:01.000Z</time>
      </trkpt>
      <trkpt lat="49.50155" lon="-1.58752">
        <ele>119.4</ele>
        <time>2026-03-30T13:47:02.000Z</time>
      </trkpt>
      <trkpt lat="49.50153" lon="-1.58751">
        <ele>118.9</ele>
        <time>2026-03-30T13:47:03.000Z</time>
      </trkpt>
      <trkpt lat="49.50152" lon="-1.5875">
        <ele>118.6</ele>
        <time>2026-03-30T13:47:04.000Z</time>
      </trkpt>
      <trkpt lat="49.50151" lon="-1.58749">
        <ele>118.5</ele>
        <time>2026-03-30T13:47:05.000Z</time>
      </trkpt>
      <trkpt lat="49.5015" lon="-1.58749">
        <ele>118.5</ele>
        <time>2026-03-30T13:47:06.000Z</time>
      </trkpt>
      <trkpt lat="49.50149" lon="-1.58749">
        <ele>117.8</ele>
        <time>2026-03-30T13:47:07.000Z</time>
      </trkpt>
      <trkpt lat="49.50147" lon="-1.58749">
        <ele>116.5</ele>
        <time>2026-03-30T13:47:08.000Z</time>
      </trkpt>
      <trkpt lat="49.50146" lon="-1.58748">
        <ele>116.5</ele>
        <time>2026-03-30T13:47:09.000Z</time>
      </trkpt>
      <trkpt lat="49.50145" lon="-1.58748">
        <ele>116.7</ele>
        <time>2026-03-30T13:47:10.000Z</time>
      </trkpt>
      <trkpt lat="49.50144" lon="-1.58748">
        <ele>116.2</ele>
        <time>2026-03-30T13:47:11.000Z</time>
      </trkpt>
      <trkpt lat="49.50142" lon="-1.58747">
        <ele>116.1</ele>
        <time>2026-03-30T13:47:12.000Z</time>
      </trkpt>
      <trkpt lat="49.50141" lon="-1.58747">
        <ele>115.7</ele>
        <time>2026-03-30T13:47:13.000Z</time>
      </trkpt>
      <trkpt lat="49.5014" lon="-1.58747">
        <ele>114.9</ele>
        <time>2026-03-30T13:47:14.000Z</time>
      </trkpt>
      <trkpt lat="49.50139" lon="-1.58746">
        <ele>114.4</ele>
        <time>2026-03-30T13:47:15.000Z</time>
      </trkpt>
      <trkpt lat="49.50138" lon="-1.58745">
        <ele>114.1</ele>
        <time>2026-03-30T13:47:16.000Z</time>
      </trkpt>
      <trkpt lat="49.50136" lon="-1.58745">
        <ele>115</ele>
        <time>2026-03-30T13:47:17.000Z</time>
      </trkpt>
      <trkpt lat="49.50135" lon="-1.58745">
        <ele>114.9</ele>
        <time>2026-03-30T13:47:18.000Z</time>
      </trkpt>
      <trkpt lat="49.50133" lon="-1.58745">
        <ele>115</ele>
        <time>2026-03-30T13:47:19.000Z</time>
      </trkpt>
      <trkpt lat="49.50132" lon="-1.58745">
        <ele>115.4</ele>
        <time>2026-03-30T13:47:20.000Z</time>
      </trkpt>
      <trkpt lat="49.50131" lon="-1.58745">
        <ele>115.7</ele>
        <time>2026-03-30T13:47:21.000Z</time>
      </trkpt>
      <trkpt lat="49.5013" lon="-1.58745">
        <ele>116.1</ele>
        <time>2026-03-30T13:47:22.000Z</time>
      </trkpt>
      <trkpt lat="49.50128" lon="-1.58745">
        <ele>117.2</ele>
        <time>2026-03-30T13:47:23.000Z</time>
      </trkpt>
      <trkpt lat="49.50127" lon="-1.58746">
        <ele>117.6</ele>
        <time>2026-03-30T13:47:24.000Z</time>
      </trkpt>
      <trkpt lat="49.50126" lon="-1.58746">
        <ele>117.5</ele>
        <time>2026-03-30T13:47:25.000Z</time>
      </trkpt>
      <trkpt lat="49.50125" lon="-1.58747">
        <ele>117.6</ele>
        <time>2026-03-30T13:47:26.000Z</time>
      </trkpt>
      <trkpt lat="49.50124" lon="-1.58747">
        <ele>117.6</ele>
        <time>2026-03-30T13:47:27.000Z</time>
      </trkpt>
      <trkpt lat="49.50122" lon="-1.58746">
        <ele>117.7</ele>
        <time>2026-03-30T13:47:28.000Z</time>
      </trkpt>
      <trkpt lat="49.50121" lon="-1.58746">
        <ele>117.5</ele>
        <time>2026-03-30T13:47:29.000Z</time>
      </trkpt>
      <trkpt lat="49.5012" lon="-1.58746">
        <ele>118.7</ele>
        <time>2026-03-30T13:47:30.000Z</time>
      </trkpt>
      <trkpt lat="49.50118" lon="-1.58746">
        <ele>119.4</ele>
        <time>2026-03-30T13:47:31.000Z</time>
      </trkpt>
      <trkpt lat="49.50117" lon="-1.58746">
        <ele>119.8</ele>
        <time>2026-03-30T13:47:32.000Z</time>
      </trkpt>
      <trkpt lat="49.50115" lon="-1.58746">
        <ele>120.4</ele>
        <time>2026-03-30T13:47:33.000Z</time>
      </trkpt>
      <trkpt lat="49.50113" lon="-1.58747">
        <ele>120.7</ele>
        <time>2026-03-30T13:47:34.000Z</time>
      </trkpt>
      <trkpt lat="49.50111" lon="-1.58747">
        <ele>121</ele>
        <time>2026-03-30T13:47:35.000Z</time>
      </trkpt>
      <trkpt lat="49.5011" lon="-1.58747">
        <ele>120</ele>
        <time>2026-03-30T13:47:36.000Z</time>
      </trkpt>
      <trkpt lat="49.50109" lon="-1.58747">
        <ele>120.8</ele>
        <time>2026-03-30T13:47:37.000Z</time>
      </trkpt>
      <trkpt lat="49.50107" lon="-1.58747">
        <ele>120.5</ele>
        <time>2026-03-30T13:47:38.000Z</time>
      </trkpt>
      <trkpt lat="49.50106" lon="-1.58747">
        <ele>121.1</ele>
        <time>2026-03-30T13:47:39.000Z</time>
      </trkpt>
      <trkpt lat="49.50105" lon="-1.58747">
        <ele>121</ele>
        <time>2026-03-30T13:47:40.000Z</time>
      </trkpt>
      <trkpt lat="49.50104" lon="-1.58746">
        <ele>120.9</ele>
        <time>2026-03-30T13:47:41.000Z</time>
      </trkpt>
      <trkpt lat="49.50103" lon="-1.58746">
        <ele>121.3</ele>
        <time>2026-03-30T13:47:42.000Z</time>
      </trkpt>
      <trkpt lat="49.50102" lon="-1.58746">
        <ele>121.6</ele>
        <time>2026-03-30T13:47:43.000Z</time>
      </trkpt>
      <trkpt lat="49.501" lon="-1.58745">
        <ele>122.3</ele>
        <time>2026-03-30T13:47:44.000Z</time>
      </trkpt>
      <trkpt lat="49.50099" lon="-1.58745">
        <ele>122.4</ele>
        <time>2026-03-30T13:47:45.000Z</time>
      </trkpt>
      <trkpt lat="49.50098" lon="-1.58745">
        <ele>123.5</ele>
        <time>2026-03-30T13:47:46.000Z</time>
      </trkpt>
      <trkpt lat="49.50096" lon="-1.58744">
        <ele>123.5</ele>
        <time>2026-03-30T13:47:47.000Z</time>
      </trkpt>
      <trkpt lat="49.50095" lon="-1.58744">
        <ele>123</ele>
        <time>2026-03-30T13:47:48.000Z</time>
      </trkpt>
      <trkpt lat="49.50094" lon="-1.58744">
        <ele>123.4</ele>
        <time>2026-03-30T13:47:49.000Z</time>
      </trkpt>
      <trkpt lat="49.50092" lon="-1.58744">
        <ele>123.9</ele>
        <time>2026-03-30T13:47:50.000Z</time>
      </trkpt>
      <trkpt lat="49.50091" lon="-1.58744">
        <ele>124.4</ele>
        <time>2026-03-30T13:47:51.000Z</time>
      </trkpt>
      <trkpt lat="49.5009" lon="-1.58743">
        <ele>123.8</ele>
        <time>2026-03-30T13:47:52.000Z</time>
      </trkpt>
      <trkpt lat="49.50088" lon="-1.58743">
        <ele>123.1</ele>
        <time>2026-03-30T13:47:53.000Z</time>
      </trkpt>
      <trkpt lat="49.50087" lon="-1.58743">
        <ele>122.5</ele>
        <time>2026-03-30T13:47:54.000Z</time>
      </trkpt>
      <trkpt lat="49.50086" lon="-1.58742">
        <ele>122</ele>
        <time>2026-03-30T13:47:55.000Z</time>
      </trkpt>
      <trkpt lat="49.50084" lon="-1.58742">
        <ele>121.7</ele>
        <time>2026-03-30T13:47:56.000Z</time>
      </trkpt>
      <trkpt lat="49.50083" lon="-1.58741">
        <ele>121.8</ele>
        <time>2026-03-30T13:47:57.000Z</time>
      </trkpt>
      <trkpt lat="49.50081" lon="-1.58741">
        <ele>122.1</ele>
        <time>2026-03-30T13:47:58.000Z</time>
      </trkpt>
      <trkpt lat="49.5008" lon="-1.58741">
        <ele>122.3</ele>
        <time>2026-03-30T13:47:59.000Z</time>
      </trkpt>
      <trkpt lat="49.50079" lon="-1.58741">
        <ele>122.8</ele>
        <time>2026-03-30T13:48:00.000Z</time>
      </trkpt>
      <trkpt lat="49.50077" lon="-1.58741">
        <ele>122.7</ele>
        <time>2026-03-30T13:48:01.000Z</time>
      </trkpt>
      <trkpt lat="49.50076" lon="-1.58741">
        <ele>122.7</ele>
        <time>2026-03-30T13:48:02.000Z</time>
      </trkpt>
      <trkpt lat="49.50075" lon="-1.58741">
        <ele>123</ele>
        <time>2026-03-30T13:48:03.000Z</time>
      </trkpt>
      <trkpt lat="49.50073" lon="-1.58742">
        <ele>123.7</ele>
        <time>2026-03-30T13:48:04.000Z</time>
      </trkpt>
      <trkpt lat="49.50072" lon="-1.58742">
        <ele>123.6</ele>
        <time>2026-03-30T13:48:05.000Z</time>
      </trkpt>
      <trkpt lat="49.5007" lon="-1.58742">
        <ele>122.3</ele>
        <time>2026-03-30T13:48:06.000Z</time>
      </trkpt>
      <trkpt lat="49.50069" lon="-1.58741">
        <ele>122.4</ele>
        <time>2026-03-30T13:48:07.000Z</time>
      </trkpt>
      <trkpt lat="49.50069" lon="-1.5874">
        <ele>122.3</ele>
        <time>2026-03-30T13:48:08.000Z</time>
      </trkpt>
      <trkpt lat="49.50068" lon="-1.5874">
        <ele>120.6</ele>
        <time>2026-03-30T13:48:09.000Z</time>
      </trkpt>
      <trkpt lat="49.50067" lon="-1.5874">
        <ele>120.6</ele>
        <time>2026-03-30T13:48:10.000Z</time>
      </trkpt>
      <trkpt lat="49.50066" lon="-1.5874">
        <ele>120.2</ele>
        <time>2026-03-30T13:48:11.000Z</time>
      </trkpt>
      <trkpt lat="49.50065" lon="-1.58739">
        <ele>120</ele>
        <time>2026-03-30T13:48:12.000Z</time>
      </trkpt>
      <trkpt lat="49.50064" lon="-1.58738">
        <ele>119.8</ele>
        <time>2026-03-30T13:48:13.000Z</time>
      </trkpt>
      <trkpt lat="49.50063" lon="-1.58737">
        <ele>119.8</ele>
        <time>2026-03-30T13:48:14.000Z</time>
      </trkpt>
      <trkpt lat="49.50061" lon="-1.58737">
        <ele>119.1</ele>
        <time>2026-03-30T13:48:15.000Z</time>
      </trkpt>
      <trkpt lat="49.5006" lon="-1.58738">
        <ele>119</ele>
        <time>2026-03-30T13:48:16.000Z</time>
      </trkpt>
      <trkpt lat="49.50059" lon="-1.58739">
        <ele>119.7</ele>
        <time>2026-03-30T13:48:17.000Z</time>
      </trkpt>
      <trkpt lat="49.50058" lon="-1.58739">
        <ele>119</ele>
        <time>2026-03-30T13:48:18.000Z</time>
      </trkpt>
      <trkpt lat="49.50058" lon="-1.5874">
        <ele>118.6</ele>
        <time>2026-03-30T13:48:19.000Z</time>
      </trkpt>
      <trkpt lat="49.50057" lon="-1.58741">
        <ele>118.9</ele>
        <time>2026-03-30T13:48:20.000Z</time>
      </trkpt>
      <trkpt lat="49.50056" lon="-1.58743">
        <ele>120</ele>
        <time>2026-03-30T13:48:21.000Z</time>
      </trkpt>
      <trkpt lat="49.50055" lon="-1.58745">
        <ele>120.3</ele>
        <time>2026-03-30T13:48:22.000Z</time>
      </trkpt>
      <trkpt lat="49.50054" lon="-1.58746">
        <ele>120</ele>
        <time>2026-03-30T13:48:23.000Z</time>
      </trkpt>
      <trkpt lat="49.50053" lon="-1.58747">
        <ele>119.9</ele>
        <time>2026-03-30T13:48:24.000Z</time>
      </trkpt>
      <trkpt lat="49.50053" lon="-1.58747">
        <ele>119.9</ele>
        <time>2026-03-30T13:48:25.000Z</time>
      </trkpt>
      <trkpt lat="49.50052" lon="-1.58747">
        <ele>120.9</ele>
        <time>2026-03-30T13:48:26.000Z</time>
      </trkpt>
      <trkpt lat="49.50051" lon="-1.58748">
        <ele>121.7</ele>
        <time>2026-03-30T13:48:27.000Z</time>
      </trkpt>
      <trkpt lat="49.5005" lon="-1.58748">
        <ele>121.3</ele>
        <time>2026-03-30T13:48:28.000Z</time>
      </trkpt>
      <trkpt lat="49.50049" lon="-1.58747">
        <ele>121.3</ele>
        <time>2026-03-30T13:48:29.000Z</time>
      </trkpt>
      <trkpt lat="49.50048" lon="-1.58746">
        <ele>121.1</ele>
        <time>2026-03-30T13:48:30.000Z</time>
      </trkpt>
      <trkpt lat="49.50047" lon="-1.58745">
        <ele>121.4</ele>
        <time>2026-03-30T13:48:31.000Z</time>
      </trkpt>
      <trkpt lat="49.50047" lon="-1.58743">
        <ele>121.5</ele>
        <time>2026-03-30T13:48:32.000Z</time>
      </trkpt>
      <trkpt lat="49.50046" lon="-1.58742">
        <ele>121.7</ele>
        <time>2026-03-30T13:48:33.000Z</time>
      </trkpt>
      <trkpt lat="49.50046" lon="-1.5874">
        <ele>121.8</ele>
        <time>2026-03-30T13:48:34.000Z</time>
      </trkpt>
      <trkpt lat="49.50045" lon="-1.58738">
        <ele>121.4</ele>
        <time>2026-03-30T13:48:35.000Z</time>
      </trkpt>
      <trkpt lat="49.50045" lon="-1.58736">
        <ele>121.1</ele>
        <time>2026-03-30T13:48:36.000Z</time>
      </trkpt>
      <trkpt lat="49.50045" lon="-1.58734">
        <ele>120.7</ele>
        <time>2026-03-30T13:48:37.000Z</time>
      </trkpt>
      <trkpt lat="49.50044" lon="-1.58733">
        <ele>120</ele>
        <time>2026-03-30T13:48:38.000Z</time>
      </trkpt>
      <trkpt lat="49.50044" lon="-1.58731">
        <ele>120.1</ele>
        <time>2026-03-30T13:48:39.000Z</time>
      </trkpt>
      <trkpt lat="49.50043" lon="-1.5873">
        <ele>120.8</ele>
        <time>2026-03-30T13:48:40.000Z</time>
      </trkpt>
      <trkpt lat="49.50043" lon="-1.58729">
        <ele>120.7</ele>
        <time>2026-03-30T13:48:41.000Z</time>
      </trkpt>
      <trkpt lat="49.50043" lon="-1.58727">
        <ele>121</ele>
        <time>2026-03-30T13:48:42.000Z</time>
      </trkpt>
      <trkpt lat="49.50043" lon="-1.58725">
        <ele>121.1</ele>
        <time>2026-03-30T13:48:43.000Z</time>
      </trkpt>
      <trkpt lat="49.50042" lon="-1.58723">
        <ele>121</ele>
        <time>2026-03-30T13:48:44.000Z</time>
      </trkpt>
      <trkpt lat="49.50042" lon="-1.58721">
        <ele>121.2</ele>
        <time>2026-03-30T13:48:45.000Z</time>
      </trkpt>
      <trkpt lat="49.50042" lon="-1.58719">
        <ele>120.4</ele>
        <time>2026-03-30T13:48:46.000Z</time>
      </trkpt>
      <trkpt lat="49.50041" lon="-1.58718">
        <ele>120.9</ele>
        <time>2026-03-30T13:48:47.000Z</time>
      </trkpt>
      <trkpt lat="49.50041" lon="-1.58716">
        <ele>120.4</ele>
        <time>2026-03-30T13:48:48.000Z</time>
      </trkpt>
      <trkpt lat="49.5004" lon="-1.58715">
        <ele>120.6</ele>
        <time>2026-03-30T13:48:49.000Z</time>
      </trkpt>
      <trkpt lat="49.5004" lon="-1.58714">
        <ele>121</ele>
        <time>2026-03-30T13:48:50.000Z</time>
      </trkpt>
      <trkpt lat="49.50039" lon="-1.58712">
        <ele>121.2</ele>
        <time>2026-03-30T13:48:51.000Z</time>
      </trkpt>
      <trkpt lat="49.50039" lon="-1.58711">
        <ele>120.7</ele>
        <time>2026-03-30T13:48:52.000Z</time>
      </trkpt>
      <trkpt lat="49.50038" lon="-1.58709">
        <ele>120.4</ele>
        <time>2026-03-30T13:48:53.000Z</time>
      </trkpt>
      <trkpt lat="49.50038" lon="-1.58708">
        <ele>120.6</ele>
        <time>2026-03-30T13:48:54.000Z</time>
      </trkpt>
      <trkpt lat="49.50038" lon="-1.58706">
        <ele>120.5</ele>
        <time>2026-03-30T13:48:55.000Z</time>
      </trkpt>
      <trkpt lat="49.50038" lon="-1.58704">
        <ele>121.8</ele>
        <time>2026-03-30T13:48:56.000Z</time>
      </trkpt>
      <trkpt lat="49.50037" lon="-1.58703">
        <ele>121.7</ele>
        <time>2026-03-30T13:48:57.000Z</time>
      </trkpt>
      <trkpt lat="49.50037" lon="-1.58701">
        <ele>121.5</ele>
        <time>2026-03-30T13:48:58.000Z</time>
      </trkpt>
      <trkpt lat="49.50036" lon="-1.58699">
        <ele>121.2</ele>
        <time>2026-03-30T13:48:59.000Z</time>
      </trkpt>
      <trkpt lat="49.50036" lon="-1.58697">
        <ele>121.3</ele>
        <time>2026-03-30T13:49:00.000Z</time>
      </trkpt>
      <trkpt lat="49.50035" lon="-1.58696">
        <ele>120.2</ele>
        <time>2026-03-30T13:49:01.000Z</time>
      </trkpt>
      <trkpt lat="49.50034" lon="-1.58694">
        <ele>119.5</ele>
        <time>2026-03-30T13:49:02.000Z</time>
      </trkpt>
      <trkpt lat="49.50034" lon="-1.58693">
        <ele>119.3</ele>
        <time>2026-03-30T13:49:03.000Z</time>
      </trkpt>
      <trkpt lat="49.50033" lon="-1.58691">
        <ele>119.4</ele>
        <time>2026-03-30T13:49:04.000Z</time>
      </trkpt>
      <trkpt lat="49.50033" lon="-1.5869">
        <ele>118.6</ele>
        <time>2026-03-30T13:49:05.000Z</time>
      </trkpt>
      <trkpt lat="49.50032" lon="-1.58688">
        <ele>117.9</ele>
        <time>2026-03-30T13:49:06.000Z</time>
      </trkpt>
      <trkpt lat="49.50032" lon="-1.58686">
        <ele>118.1</ele>
        <time>2026-03-30T13:49:07.000Z</time>
      </trkpt>
      <trkpt lat="49.50032" lon="-1.58684">
        <ele>116.9</ele>
        <time>2026-03-30T13:49:08.000Z</time>
      </trkpt>
      <trkpt lat="49.50031" lon="-1.58682">
        <ele>116.8</ele>
        <time>2026-03-30T13:49:09.000Z</time>
      </trkpt>
      <trkpt lat="49.50031" lon="-1.58681">
        <ele>116.5</ele>
        <time>2026-03-30T13:49:10.000Z</time>
      </trkpt>
      <trkpt lat="49.50031" lon="-1.58679">
        <ele>116.2</ele>
        <time>2026-03-30T13:49:11.000Z</time>
      </trkpt>
      <trkpt lat="49.50031" lon="-1.58678">
        <ele>116.9</ele>
        <time>2026-03-30T13:49:12.000Z</time>
      </trkpt>
      <trkpt lat="49.5003" lon="-1.58676">
        <ele>116.6</ele>
        <time>2026-03-30T13:49:13.000Z</time>
      </trkpt>
      <trkpt lat="49.5003" lon="-1.58674">
        <ele>116.5</ele>
        <time>2026-03-30T13:49:14.000Z</time>
      </trkpt>
      <trkpt lat="49.5003" lon="-1.58672">
        <ele>116.1</ele>
        <time>2026-03-30T13:49:15.000Z</time>
      </trkpt>
      <trkpt lat="49.50029" lon="-1.58671">
        <ele>116.6</ele>
        <time>2026-03-30T13:49:16.000Z</time>
      </trkpt>
      <trkpt lat="49.50029" lon="-1.58669">
        <ele>117.4</ele>
        <time>2026-03-30T13:49:17.000Z</time>
      </trkpt>
      <trkpt lat="49.50028" lon="-1.58667">
        <ele>117.6</ele>
        <time>2026-03-30T13:49:18.000Z</time>
      </trkpt>
      <trkpt lat="49.50027" lon="-1.58666">
        <ele>118.1</ele>
        <time>2026-03-30T13:49:19.000Z</time>
      </trkpt>
      <trkpt lat="49.50027" lon="-1.58664">
        <ele>118.8</ele>
        <time>2026-03-30T13:49:20.000Z</time>
      </trkpt>
      <trkpt lat="49.50027" lon="-1.58662">
        <ele>119</ele>
        <time>2026-03-30T13:49:21.000Z</time>
      </trkpt>
      <trkpt lat="49.50026" lon="-1.58659">
        <ele>120.4</ele>
        <time>2026-03-30T13:49:22.000Z</time>
      </trkpt>
      <trkpt lat="49.50026" lon="-1.58657">
        <ele>121.5</ele>
        <time>2026-03-30T13:49:23.000Z</time>
      </trkpt>
      <trkpt lat="49.50025" lon="-1.58655">
        <ele>121.3</ele>
        <time>2026-03-30T13:49:24.000Z</time>
      </trkpt>
      <trkpt lat="49.50024" lon="-1.58653">
        <ele>120.7</ele>
        <time>2026-03-30T13:49:25.000Z</time>
      </trkpt>
      <trkpt lat="49.50024" lon="-1.58651">
        <ele>120.8</ele>
        <time>2026-03-30T13:49:26.000Z</time>
      </trkpt>
      <trkpt lat="49.50024" lon="-1.58649">
        <ele>121.4</ele>
        <time>2026-03-30T13:49:27.000Z</time>
      </trkpt>
      <trkpt lat="49.50024" lon="-1.58648">
        <ele>121.7</ele>
        <time>2026-03-30T13:49:28.000Z</time>
      </trkpt>
      <trkpt lat="49.50023" lon="-1.58646">
        <ele>121.3</ele>
        <time>2026-03-30T13:49:29.000Z</time>
      </trkpt>
      <trkpt lat="49.50023" lon="-1.58645">
        <ele>120.5</ele>
        <time>2026-03-30T13:49:30.000Z</time>
      </trkpt>
      <trkpt lat="49.50023" lon="-1.58643">
        <ele>120.3</ele>
        <time>2026-03-30T13:49:31.000Z</time>
      </trkpt>
      <trkpt lat="49.50022" lon="-1.58641">
        <ele>119.5</ele>
        <time>2026-03-30T13:49:32.000Z</time>
      </trkpt>
      <trkpt lat="49.50021" lon="-1.5864">
        <ele>119.4</ele>
        <time>2026-03-30T13:49:33.000Z</time>
      </trkpt>
      <trkpt lat="49.5002" lon="-1.58638">
        <ele>121.1</ele>
        <time>2026-03-30T13:49:34.000Z</time>
      </trkpt>
      <trkpt lat="49.5002" lon="-1.58637">
        <ele>121.5</ele>
        <time>2026-03-30T13:49:35.000Z</time>
      </trkpt>
      <trkpt lat="49.50021" lon="-1.58635">
        <ele>121.4</ele>
        <time>2026-03-30T13:49:36.000Z</time>
      </trkpt>
      <trkpt lat="49.50022" lon="-1.58634">
        <ele>121.3</ele>
        <time>2026-03-30T13:49:37.000Z</time>
      </trkpt>
      <trkpt lat="49.50022" lon="-1.58632">
        <ele>120</ele>
        <time>2026-03-30T13:49:38.000Z</time>
      </trkpt>
      <trkpt lat="49.50022" lon="-1.5863">
        <ele>119.4</ele>
        <time>2026-03-30T13:49:39.000Z</time>
      </trkpt>
      <trkpt lat="49.50021" lon="-1.58629">
        <ele>119.5</ele>
        <time>2026-03-30T13:49:40.000Z</time>
      </trkpt>
      <trkpt lat="49.50021" lon="-1.58627">
        <ele>120.7</ele>
        <time>2026-03-30T13:49:41.000Z</time>
      </trkpt>
      <trkpt lat="49.5002" lon="-1.58625">
        <ele>120.7</ele>
        <time>2026-03-30T13:49:42.000Z</time>
      </trkpt>
      <trkpt lat="49.5002" lon="-1.58624">
        <ele>120.9</ele>
        <time>2026-03-30T13:49:43.000Z</time>
      </trkpt>
      <trkpt lat="49.50019" lon="-1.58622">
        <ele>120.8</ele>
        <time>2026-03-30T13:49:44.000Z</time>
      </trkpt>
      <trkpt lat="49.50019" lon="-1.5862">
        <ele>121.1</ele>
        <time>2026-03-30T13:49:45.000Z</time>
      </trkpt>
      <trkpt lat="49.50018" lon="-1.58618">
        <ele>121.1</ele>
        <time>2026-03-30T13:49:46.000Z</time>
      </trkpt>
      <trkpt lat="49.50018" lon="-1.58616">
        <ele>121.1</ele>
        <time>2026-03-30T13:49:47.000Z</time>
      </trkpt>
      <trkpt lat="49.50017" lon="-1.58615">
        <ele>121</ele>
        <time>2026-03-30T13:49:48.000Z</time>
      </trkpt>
      <trkpt lat="49.50016" lon="-1.58614">
        <ele>121.4</ele>
        <time>2026-03-30T13:49:49.000Z</time>
      </trkpt>
      <trkpt lat="49.50016" lon="-1.58612">
        <ele>120.9</ele>
        <time>2026-03-30T13:49:50.000Z</time>
      </trkpt>
      <trkpt lat="49.50016" lon="-1.5861">
        <ele>120.4</ele>
        <time>2026-03-30T13:49:51.000Z</time>
      </trkpt>
      <trkpt lat="49.50015" lon="-1.58609">
        <ele>120</ele>
        <time>2026-03-30T13:49:52.000Z</time>
      </trkpt>
      <trkpt lat="49.50014" lon="-1.58608">
        <ele>119.5</ele>
        <time>2026-03-30T13:49:53.000Z</time>
      </trkpt>
      <trkpt lat="49.50014" lon="-1.58606">
        <ele>119.1</ele>
        <time>2026-03-30T13:49:54.000Z</time>
      </trkpt>
      <trkpt lat="49.50014" lon="-1.58605">
        <ele>120.1</ele>
        <time>2026-03-30T13:49:55.000Z</time>
      </trkpt>
      <trkpt lat="49.50013" lon="-1.58603">
        <ele>120.5</ele>
        <time>2026-03-30T13:49:56.000Z</time>
      </trkpt>
      <trkpt lat="49.50013" lon="-1.58602">
        <ele>121.3</ele>
        <time>2026-03-30T13:49:57.000Z</time>
      </trkpt>
      <trkpt lat="49.50012" lon="-1.586">
        <ele>123.4</ele>
        <time>2026-03-30T13:49:58.000Z</time>
      </trkpt>
      <trkpt lat="49.50011" lon="-1.58598">
        <ele>123.5</ele>
        <time>2026-03-30T13:49:59.000Z</time>
      </trkpt>
      <trkpt lat="49.5001" lon="-1.58597">
        <ele>125.5</ele>
        <time>2026-03-30T13:50:00.000Z</time>
      </trkpt>
      <trkpt lat="49.50009" lon="-1.58595">
        <ele>126.6</ele>
        <time>2026-03-30T13:50:01.000Z</time>
      </trkpt>
      <trkpt lat="49.50008" lon="-1.58593">
        <ele>126.7</ele>
        <time>2026-03-30T13:50:02.000Z</time>
      </trkpt>
      <trkpt lat="49.50007" lon="-1.58592">
        <ele>127</ele>
        <time>2026-03-30T13:50:03.000Z</time>
      </trkpt>
      <trkpt lat="49.50006" lon="-1.58591">
        <ele>128.3</ele>
        <time>2026-03-30T13:50:04.000Z</time>
      </trkpt>
      <trkpt lat="49.50005" lon="-1.5859">
        <ele>128.7</ele>
        <time>2026-03-30T13:50:05.000Z</time>
      </trkpt>
      <trkpt lat="49.50004" lon="-1.58588">
        <ele>129.5</ele>
        <time>2026-03-30T13:50:06.000Z</time>
      </trkpt>
      <trkpt lat="49.50003" lon="-1.58587">
        <ele>130.3</ele>
        <time>2026-03-30T13:50:07.000Z</time>
      </trkpt>
      <trkpt lat="49.50002" lon="-1.58585">
        <ele>129.9</ele>
        <time>2026-03-30T13:50:08.000Z</time>
      </trkpt>
      <trkpt lat="49.50001" lon="-1.58584">
        <ele>130.3</ele>
        <time>2026-03-30T13:50:09.000Z</time>
      </trkpt>
      <trkpt lat="49.5" lon="-1.58582">
        <ele>130.2</ele>
        <time>2026-03-30T13:50:10.000Z</time>
      </trkpt>
      <trkpt lat="49.49999" lon="-1.58582">
        <ele>131.3</ele>
        <time>2026-03-30T13:50:11.000Z</time>
      </trkpt>
      <trkpt lat="49.49998" lon="-1.5858">
        <ele>132.3</ele>
        <time>2026-03-30T13:50:12.000Z</time>
      </trkpt>
      <trkpt lat="49.49996" lon="-1.58579">
        <ele>131.4</ele>
        <time>2026-03-30T13:50:13.000Z</time>
      </trkpt>
      <trkpt lat="49.49996" lon="-1.58577">
        <ele>132.7</ele>
        <time>2026-03-30T13:50:14.000Z</time>
      </trkpt>
      <trkpt lat="49.49995" lon="-1.58575">
        <ele>131.9</ele>
        <time>2026-03-30T13:50:15.000Z</time>
      </trkpt>
      <trkpt lat="49.49994" lon="-1.58574">
        <ele>130.3</ele>
        <time>2026-03-30T13:50:16.000Z</time>
      </trkpt>
      <trkpt lat="49.49994" lon="-1.58571">
        <ele>130.6</ele>
        <time>2026-03-30T13:50:17.000Z</time>
      </trkpt>
      <trkpt lat="49.49994" lon="-1.58568">
        <ele>130</ele>
        <time>2026-03-30T13:50:18.000Z</time>
      </trkpt>
      <trkpt lat="49.49993" lon="-1.58566">
        <ele>129.8</ele>
        <time>2026-03-30T13:50:19.000Z</time>
      </trkpt>
      <trkpt lat="49.49992" lon="-1.58565">
        <ele>129.7</ele>
        <time>2026-03-30T13:50:20.000Z</time>
      </trkpt>
      <trkpt lat="49.49992" lon="-1.58564">
        <ele>130.5</ele>
        <time>2026-03-30T13:50:21.000Z</time>
      </trkpt>
      <trkpt lat="49.49991" lon="-1.58562">
        <ele>130.1</ele>
        <time>2026-03-30T13:50:22.000Z</time>
      </trkpt>
      <trkpt lat="49.4999" lon="-1.58561">
        <ele>130.3</ele>
        <time>2026-03-30T13:50:23.000Z</time>
      </trkpt>
      <trkpt lat="49.4999" lon="-1.58561">
        <ele>130.5</ele>
        <time>2026-03-30T13:50:24.000Z</time>
      </trkpt>
      <trkpt lat="49.49989" lon="-1.58561">
        <ele>130.7</ele>
        <time>2026-03-30T13:50:25.000Z</time>
      </trkpt>
      <trkpt lat="49.49988" lon="-1.58562">
        <ele>131</ele>
        <time>2026-03-30T13:50:26.000Z</time>
      </trkpt>
      <trkpt lat="49.49986" lon="-1.58561">
        <ele>131.1</ele>
        <time>2026-03-30T13:50:27.000Z</time>
      </trkpt>
      <trkpt lat="49.49984" lon="-1.58562">
        <ele>131.1</ele>
        <time>2026-03-30T13:50:28.000Z</time>
      </trkpt>
      <trkpt lat="49.49983" lon="-1.58562">
        <ele>131.7</ele>
        <time>2026-03-30T13:50:29.000Z</time>
      </trkpt>
      <trkpt lat="49.49981" lon="-1.58562">
        <ele>131.8</ele>
        <time>2026-03-30T13:50:30.000Z</time>
      </trkpt>
      <trkpt lat="49.4998" lon="-1.58562">
        <ele>131.3</ele>
        <time>2026-03-30T13:50:31.000Z</time>
      </trkpt>
      <trkpt lat="49.49978" lon="-1.58562">
        <ele>130.8</ele>
        <time>2026-03-30T13:50:32.000Z</time>
      </trkpt>
      <trkpt lat="49.49976" lon="-1.58563">
        <ele>131.1</ele>
        <time>2026-03-30T13:50:33.000Z</time>
      </trkpt>
      <trkpt lat="49.49975" lon="-1.58564">
        <ele>131</ele>
        <time>2026-03-30T13:50:34.000Z</time>
      </trkpt>
      <trkpt lat="49.49974" lon="-1.58565">
        <ele>130.5</ele>
        <time>2026-03-30T13:50:35.000Z</time>
      </trkpt>
      <trkpt lat="49.49973" lon="-1.58565">
        <ele>129.7</ele>
        <time>2026-03-30T13:50:36.000Z</time>
      </trkpt>
      <trkpt lat="49.49972" lon="-1.58566">
        <ele>129.9</ele>
        <time>2026-03-30T13:50:37.000Z</time>
      </trkpt>
      <trkpt lat="49.4997" lon="-1.58567">
        <ele>131.3</ele>
        <time>2026-03-30T13:50:38.000Z</time>
      </trkpt>
      <trkpt lat="49.49968" lon="-1.58568">
        <ele>131.3</ele>
        <time>2026-03-30T13:50:39.000Z</time>
      </trkpt>
      <trkpt lat="49.49966" lon="-1.58569">
        <ele>130.5</ele>
        <time>2026-03-30T13:50:40.000Z</time>
      </trkpt>
      <trkpt lat="49.49964" lon="-1.5857">
        <ele>130.6</ele>
        <time>2026-03-30T13:50:41.000Z</time>
      </trkpt>
      <trkpt lat="49.49962" lon="-1.5857">
        <ele>130.2</ele>
        <time>2026-03-30T13:50:42.000Z</time>
      </trkpt>
      <trkpt lat="49.49961" lon="-1.5857">
        <ele>130.9</ele>
        <time>2026-03-30T13:50:43.000Z</time>
      </trkpt>
      <trkpt lat="49.4996" lon="-1.58571">
        <ele>131.7</ele>
        <time>2026-03-30T13:50:44.000Z</time>
      </trkpt>
      <trkpt lat="49.49959" lon="-1.58571">
        <ele>132.4</ele>
        <time>2026-03-30T13:50:45.000Z</time>
      </trkpt>
      <trkpt lat="49.49958" lon="-1.58572">
        <ele>132.9</ele>
        <time>2026-03-30T13:50:46.000Z</time>
      </trkpt>
      <trkpt lat="49.49956" lon="-1.58572">
        <ele>133.1</ele>
        <time>2026-03-30T13:50:47.000Z</time>
      </trkpt>
      <trkpt lat="49.49955" lon="-1.58573">
        <ele>133</ele>
        <time>2026-03-30T13:50:48.000Z</time>
      </trkpt>
      <trkpt lat="49.49954" lon="-1.58573">
        <ele>133</ele>
        <time>2026-03-30T13:50:49.000Z</time>
      </trkpt>
      <trkpt lat="49.49953" lon="-1.58574">
        <ele>133.9</ele>
        <time>2026-03-30T13:50:50.000Z</time>
      </trkpt>
      <trkpt lat="49.49951" lon="-1.58575">
        <ele>134.7</ele>
        <time>2026-03-30T13:50:51.000Z</time>
      </trkpt>
      <trkpt lat="49.4995" lon="-1.58575">
        <ele>134.8</ele>
        <time>2026-03-30T13:50:52.000Z</time>
      </trkpt>
      <trkpt lat="49.49948" lon="-1.58576">
        <ele>134.4</ele>
        <time>2026-03-30T13:50:53.000Z</time>
      </trkpt>
      <trkpt lat="49.49946" lon="-1.58576">
        <ele>134.1</ele>
        <time>2026-03-30T13:50:54.000Z</time>
      </trkpt>
      <trkpt lat="49.49945" lon="-1.58576">
        <ele>134.4</ele>
        <time>2026-03-30T13:50:55.000Z</time>
      </trkpt>
      <trkpt lat="49.49944" lon="-1.58576">
        <ele>135.1</ele>
        <time>2026-03-30T13:50:56.000Z</time>
      </trkpt>
      <trkpt lat="49.49943" lon="-1.58577">
        <ele>136.3</ele>
        <time>2026-03-30T13:50:57.000Z</time>
      </trkpt>
      <trkpt lat="49.49941" lon="-1.58578">
        <ele>136.5</ele>
        <time>2026-03-30T13:50:58.000Z</time>
      </trkpt>
      <trkpt lat="49.49939" lon="-1.5858">
        <ele>136.5</ele>
        <time>2026-03-30T13:50:59.000Z</time>
      </trkpt>
      <trkpt lat="49.49938" lon="-1.5858">
        <ele>136.8</ele>
        <time>2026-03-30T13:51:00.000Z</time>
      </trkpt>
      <trkpt lat="49.49937" lon="-1.58581">
        <ele>136.8</ele>
        <time>2026-03-30T13:51:01.000Z</time>
      </trkpt>
      <trkpt lat="49.49935" lon="-1.58582">
        <ele>138.1</ele>
        <time>2026-03-30T13:51:02.000Z</time>
      </trkpt>
      <trkpt lat="49.49934" lon="-1.58582">
        <ele>138.4</ele>
        <time>2026-03-30T13:51:03.000Z</time>
      </trkpt>
      <trkpt lat="49.49932" lon="-1.58583">
        <ele>138.1</ele>
        <time>2026-03-30T13:51:04.000Z</time>
      </trkpt>
      <trkpt lat="49.49931" lon="-1.58583">
        <ele>137.4</ele>
        <time>2026-03-30T13:51:05.000Z</time>
      </trkpt>
      <trkpt lat="49.49929" lon="-1.58583">
        <ele>136.6</ele>
        <time>2026-03-30T13:51:06.000Z</time>
      </trkpt>
      <trkpt lat="49.49928" lon="-1.58583">
        <ele>136</ele>
        <time>2026-03-30T13:51:07.000Z</time>
      </trkpt>
      <trkpt lat="49.49927" lon="-1.58584">
        <ele>135.8</ele>
        <time>2026-03-30T13:51:08.000Z</time>
      </trkpt>
      <trkpt lat="49.49925" lon="-1.58585">
        <ele>135.8</ele>
        <time>2026-03-30T13:51:09.000Z</time>
      </trkpt>
      <trkpt lat="49.49924" lon="-1.58586">
        <ele>135.2</ele>
        <time>2026-03-30T13:51:10.000Z</time>
      </trkpt>
      <trkpt lat="49.49923" lon="-1.58587">
        <ele>135</ele>
        <time>2026-03-30T13:51:11.000Z</time>
      </trkpt>
      <trkpt lat="49.49921" lon="-1.58587">
        <ele>134.9</ele>
        <time>2026-03-30T13:51:12.000Z</time>
      </trkpt>
      <trkpt lat="49.4992" lon="-1.58588">
        <ele>135.1</ele>
        <time>2026-03-30T13:51:13.000Z</time>
      </trkpt>
      <trkpt lat="49.49919" lon="-1.58589">
        <ele>135.1</ele>
        <time>2026-03-30T13:51:14.000Z</time>
      </trkpt>
      <trkpt lat="49.49918" lon="-1.58589">
        <ele>134.4</ele>
        <time>2026-03-30T13:51:15.000Z</time>
      </trkpt>
      <trkpt lat="49.49917" lon="-1.5859">
        <ele>134.8</ele>
        <time>2026-03-30T13:51:16.000Z</time>
      </trkpt>
      <trkpt lat="49.49915" lon="-1.58591">
        <ele>134.7</ele>
        <time>2026-03-30T13:51:17.000Z</time>
      </trkpt>
      <trkpt lat="49.49914" lon="-1.58592">
        <ele>134.6</ele>
        <time>2026-03-30T13:51:18.000Z</time>
      </trkpt>
      <trkpt lat="49.49912" lon="-1.58593">
        <ele>134.2</ele>
        <time>2026-03-30T13:51:19.000Z</time>
      </trkpt>
      <trkpt lat="49.49911" lon="-1.58594">
        <ele>134.2</ele>
        <time>2026-03-30T13:51:20.000Z</time>
      </trkpt>
      <trkpt lat="49.4991" lon="-1.58595">
        <ele>133.3</ele>
        <time>2026-03-30T13:51:21.000Z</time>
      </trkpt>
      <trkpt lat="49.49909" lon="-1.58596">
        <ele>133</ele>
        <time>2026-03-30T13:51:22.000Z</time>
      </trkpt>
      <trkpt lat="49.49908" lon="-1.58596">
        <ele>132.4</ele>
        <time>2026-03-30T13:51:23.000Z</time>
      </trkpt>
      <trkpt lat="49.49906" lon="-1.58597">
        <ele>132.3</ele>
        <time>2026-03-30T13:51:24.000Z</time>
      </trkpt>
      <trkpt lat="49.49905" lon="-1.58597">
        <ele>132.5</ele>
        <time>2026-03-30T13:51:25.000Z</time>
      </trkpt>
      <trkpt lat="49.49904" lon="-1.58597">
        <ele>131.9</ele>
        <time>2026-03-30T13:51:26.000Z</time>
      </trkpt>
      <trkpt lat="49.49903" lon="-1.58598">
        <ele>131.9</ele>
        <time>2026-03-30T13:51:27.000Z</time>
      </trkpt>
      <trkpt lat="49.49901" lon="-1.58598">
        <ele>131.9</ele>
        <time>2026-03-30T13:51:28.000Z</time>
      </trkpt>
      <trkpt lat="49.499" lon="-1.58599">
        <ele>131.3</ele>
        <time>2026-03-30T13:51:29.000Z</time>
      </trkpt>
      <trkpt lat="49.49899" lon="-1.586">
        <ele>131.5</ele>
        <time>2026-03-30T13:51:30.000Z</time>
      </trkpt>
      <trkpt lat="49.49898" lon="-1.58601">
        <ele>131.8</ele>
        <time>2026-03-30T13:51:31.000Z</time>
      </trkpt>
      <trkpt lat="49.49896" lon="-1.58602">
        <ele>131.3</ele>
        <time>2026-03-30T13:51:32.000Z</time>
      </trkpt>
      <trkpt lat="49.49895" lon="-1.58602">
        <ele>130.9</ele>
        <time>2026-03-30T13:51:33.000Z</time>
      </trkpt>
      <trkpt lat="49.49894" lon="-1.58603">
        <ele>130.1</ele>
        <time>2026-03-30T13:51:34.000Z</time>
      </trkpt>
      <trkpt lat="49.49892" lon="-1.58603">
        <ele>129.6</ele>
        <time>2026-03-30T13:51:35.000Z</time>
      </trkpt>
      <trkpt lat="49.49891" lon="-1.58604">
        <ele>129.8</ele>
        <time>2026-03-30T13:51:36.000Z</time>
      </trkpt>
      <trkpt lat="49.4989" lon="-1.58605">
        <ele>130</ele>
        <time>2026-03-30T13:51:37.000Z</time>
      </trkpt>
      <trkpt lat="49.49889" lon="-1.58606">
        <ele>130.1</ele>
        <time>2026-03-30T13:51:38.000Z</time>
      </trkpt>
      <trkpt lat="49.49887" lon="-1.58607">
        <ele>130.1</ele>
        <time>2026-03-30T13:51:39.000Z</time>
      </trkpt>
      <trkpt lat="49.49886" lon="-1.58608">
        <ele>130.5</ele>
        <time>2026-03-30T13:51:40.000Z</time>
      </trkpt>
      <trkpt lat="49.49885" lon="-1.58608">
        <ele>130.5</ele>
        <time>2026-03-30T13:51:41.000Z</time>
      </trkpt>
      <trkpt lat="49.49884" lon="-1.58609">
        <ele>130.5</ele>
        <time>2026-03-30T13:51:42.000Z</time>
      </trkpt>
      <trkpt lat="49.49883" lon="-1.58608">
        <ele>130.4</ele>
        <time>2026-03-30T13:51:43.000Z</time>
      </trkpt>
      <trkpt lat="49.49881" lon="-1.58608">
        <ele>130.4</ele>
        <time>2026-03-30T13:51:44.000Z</time>
      </trkpt>
      <trkpt lat="49.4988" lon="-1.58609">
        <ele>130.1</ele>
        <time>2026-03-30T13:51:45.000Z</time>
      </trkpt>
      <trkpt lat="49.49879" lon="-1.5861">
        <ele>129.5</ele>
        <time>2026-03-30T13:51:46.000Z</time>
      </trkpt>
      <trkpt lat="49.49878" lon="-1.58611">
        <ele>128.9</ele>
        <time>2026-03-30T13:51:47.000Z</time>
      </trkpt>
      <trkpt lat="49.49877" lon="-1.58612">
        <ele>128.2</ele>
        <time>2026-03-30T13:51:48.000Z</time>
      </trkpt>
      <trkpt lat="49.49875" lon="-1.58612">
        <ele>128.1</ele>
        <time>2026-03-30T13:51:49.000Z</time>
      </trkpt>
      <trkpt lat="49.49874" lon="-1.58612">
        <ele>128.4</ele>
        <time>2026-03-30T13:51:50.000Z</time>
      </trkpt>
      <trkpt lat="49.49873" lon="-1.58613">
        <ele>127.2</ele>
        <time>2026-03-30T13:51:51.000Z</time>
      </trkpt>
      <trkpt lat="49.49872" lon="-1.58613">
        <ele>127.1</ele>
        <time>2026-03-30T13:51:52.000Z</time>
      </trkpt>
      <trkpt lat="49.4987" lon="-1.58614">
        <ele>126.8</ele>
        <time>2026-03-30T13:51:53.000Z</time>
      </trkpt>
      <trkpt lat="49.49869" lon="-1.58614">
        <ele>127</ele>
        <time>2026-03-30T13:51:54.000Z</time>
      </trkpt>
      <trkpt lat="49.49868" lon="-1.58614">
        <ele>127</ele>
        <time>2026-03-30T13:51:55.000Z</time>
      </trkpt>
      <trkpt lat="49.49867" lon="-1.58615">
        <ele>126.4</ele>
        <time>2026-03-30T13:51:56.000Z</time>
      </trkpt>
      <trkpt lat="49.49866" lon="-1.58616">
        <ele>126.4</ele>
        <time>2026-03-30T13:51:57.000Z</time>
      </trkpt>
      <trkpt lat="49.49865" lon="-1.58615">
        <ele>124.9</ele>
        <time>2026-03-30T13:51:58.000Z</time>
      </trkpt>
      <trkpt lat="49.49864" lon="-1.58616">
        <ele>124</ele>
        <time>2026-03-30T13:51:59.000Z</time>
      </trkpt>
      <trkpt lat="49.49863" lon="-1.58617">
        <ele>124.1</ele>
        <time>2026-03-30T13:52:00.000Z</time>
      </trkpt>
      <trkpt lat="49.49862" lon="-1.58617">
        <ele>123.2</ele>
        <time>2026-03-30T13:52:01.000Z</time>
      </trkpt>
      <trkpt lat="49.4986" lon="-1.58619">
        <ele>124.1</ele>
        <time>2026-03-30T13:52:02.000Z</time>
      </trkpt>
      <trkpt lat="49.49859" lon="-1.5862">
        <ele>124</ele>
        <time>2026-03-30T13:52:03.000Z</time>
      </trkpt>
      <trkpt lat="49.49858" lon="-1.58621">
        <ele>123.6</ele>
        <time>2026-03-30T13:52:04.000Z</time>
      </trkpt>
      <trkpt lat="49.49857" lon="-1.58621">
        <ele>123.4</ele>
        <time>2026-03-30T13:52:05.000Z</time>
      </trkpt>
      <trkpt lat="49.49855" lon="-1.58621">
        <ele>123.7</ele>
        <time>2026-03-30T13:52:06.000Z</time>
      </trkpt>
      <trkpt lat="49.49854" lon="-1.58622">
        <ele>124</ele>
        <time>2026-03-30T13:52:07.000Z</time>
      </trkpt>
      <trkpt lat="49.49853" lon="-1.58623">
        <ele>122.9</ele>
        <time>2026-03-30T13:52:08.000Z</time>
      </trkpt>
      <trkpt lat="49.49852" lon="-1.58623">
        <ele>122.6</ele>
        <time>2026-03-30T13:52:09.000Z</time>
      </trkpt>
      <trkpt lat="49.49851" lon="-1.58623">
        <ele>122.4</ele>
        <time>2026-03-30T13:52:10.000Z</time>
      </trkpt>
      <trkpt lat="49.4985" lon="-1.58624">
        <ele>122</ele>
        <time>2026-03-30T13:52:11.000Z</time>
      </trkpt>
      <trkpt lat="49.49848" lon="-1.58626">
        <ele>122.5</ele>
        <time>2026-03-30T13:52:12.000Z</time>
      </trkpt>
      <trkpt lat="49.49847" lon="-1.58628">
        <ele>122.6</ele>
        <time>2026-03-30T13:52:13.000Z</time>
      </trkpt>
      <trkpt lat="49.49845" lon="-1.58628">
        <ele>122.3</ele>
        <time>2026-03-30T13:52:14.000Z</time>
      </trkpt>
      <trkpt lat="49.49844" lon="-1.58629">
        <ele>121.5</ele>
        <time>2026-03-30T13:52:15.000Z</time>
      </trkpt>
      <trkpt lat="49.49843" lon="-1.58629">
        <ele>121.2</ele>
        <time>2026-03-30T13:52:16.000Z</time>
      </trkpt>
      <trkpt lat="49.49842" lon="-1.5863">
        <ele>120.4</ele>
        <time>2026-03-30T13:52:17.000Z</time>
      </trkpt>
      <trkpt lat="49.49841" lon="-1.58631">
        <ele>120.4</ele>
        <time>2026-03-30T13:52:18.000Z</time>
      </trkpt>
      <trkpt lat="49.4984" lon="-1.58632">
        <ele>120</ele>
        <time>2026-03-30T13:52:19.000Z</time>
      </trkpt>
      <trkpt lat="49.49838" lon="-1.58633">
        <ele>119.7</ele>
        <time>2026-03-30T13:52:20.000Z</time>
      </trkpt>
      <trkpt lat="49.49837" lon="-1.58634">
        <ele>119.1</ele>
        <time>2026-03-30T13:52:21.000Z</time>
      </trkpt>
      <trkpt lat="49.49836" lon="-1.58635">
        <ele>118.8</ele>
        <time>2026-03-30T13:52:22.000Z</time>
      </trkpt>
      <trkpt lat="49.49834" lon="-1.58635">
        <ele>118.4</ele>
        <time>2026-03-30T13:52:23.000Z</time>
      </trkpt>
      <trkpt lat="49.49833" lon="-1.58636">
        <ele>118.9</ele>
        <time>2026-03-30T13:52:24.000Z</time>
      </trkpt>
      <trkpt lat="49.49831" lon="-1.58636">
        <ele>119.5</ele>
        <time>2026-03-30T13:52:25.000Z</time>
      </trkpt>
      <trkpt lat="49.4983" lon="-1.58637">
        <ele>119.5</ele>
        <time>2026-03-30T13:52:26.000Z</time>
      </trkpt>
      <trkpt lat="49.49828" lon="-1.58638">
        <ele>120.3</ele>
        <time>2026-03-30T13:52:27.000Z</time>
      </trkpt>
      <trkpt lat="49.49827" lon="-1.58639">
        <ele>121.3</ele>
        <time>2026-03-30T13:52:28.000Z</time>
      </trkpt>
      <trkpt lat="49.49825" lon="-1.58639">
        <ele>122</ele>
        <time>2026-03-30T13:52:29.000Z</time>
      </trkpt>
      <trkpt lat="49.49823" lon="-1.5864">
        <ele>122.5</ele>
        <time>2026-03-30T13:52:30.000Z</time>
      </trkpt>
      <trkpt lat="49.49822" lon="-1.5864">
        <ele>122.9</ele>
        <time>2026-03-30T13:52:31.000Z</time>
      </trkpt>
      <trkpt lat="49.49821" lon="-1.58639">
        <ele>122.8</ele>
        <time>2026-03-30T13:52:32.000Z</time>
      </trkpt>
      <trkpt lat="49.49819" lon="-1.58639">
        <ele>123.2</ele>
        <time>2026-03-30T13:52:33.000Z</time>
      </trkpt>
      <trkpt lat="49.49817" lon="-1.58639">
        <ele>124</ele>
        <time>2026-03-30T13:52:34.000Z</time>
      </trkpt>
      <trkpt lat="49.49816" lon="-1.58639">
        <ele>124.5</ele>
        <time>2026-03-30T13:52:35.000Z</time>
      </trkpt>
      <trkpt lat="49.49814" lon="-1.5864">
        <ele>124.3</ele>
        <time>2026-03-30T13:52:36.000Z</time>
      </trkpt>
      <trkpt lat="49.49813" lon="-1.5864">
        <ele>124.5</ele>
        <time>2026-03-30T13:52:37.000Z</time>
      </trkpt>
      <trkpt lat="49.49811" lon="-1.5864">
        <ele>124.9</ele>
        <time>2026-03-30T13:52:38.000Z</time>
      </trkpt>
      <trkpt lat="49.4981" lon="-1.58639">
        <ele>125.1</ele>
        <time>2026-03-30T13:52:39.000Z</time>
      </trkpt>
      <trkpt lat="49.49809" lon="-1.58639">
        <ele>125.2</ele>
        <time>2026-03-30T13:52:40.000Z</time>
      </trkpt>
      <trkpt lat="49.49807" lon="-1.58638">
        <ele>125</ele>
        <time>2026-03-30T13:52:41.000Z</time>
      </trkpt>
      <trkpt lat="49.49806" lon="-1.58638">
        <ele>125.1</ele>
        <time>2026-03-30T13:52:42.000Z</time>
      </trkpt>
      <trkpt lat="49.49805" lon="-1.58637">
        <ele>124.9</ele>
        <time>2026-03-30T13:52:43.000Z</time>
      </trkpt>
      <trkpt lat="49.49803" lon="-1.58636">
        <ele>124.2</ele>
        <time>2026-03-30T13:52:44.000Z</time>
      </trkpt>
      <trkpt lat="49.49802" lon="-1.58635">
        <ele>123.7</ele>
        <time>2026-03-30T13:52:45.000Z</time>
      </trkpt>
      <trkpt lat="49.49801" lon="-1.58635">
        <ele>123.2</ele>
        <time>2026-03-30T13:52:46.000Z</time>
      </trkpt>
      <trkpt lat="49.49799" lon="-1.58634">
        <ele>123</ele>
        <time>2026-03-30T13:52:47.000Z</time>
      </trkpt>
      <trkpt lat="49.49798" lon="-1.58633">
        <ele>122.7</ele>
        <time>2026-03-30T13:52:48.000Z</time>
      </trkpt>
      <trkpt lat="49.49797" lon="-1.58632">
        <ele>122.2</ele>
        <time>2026-03-30T13:52:49.000Z</time>
      </trkpt>
      <trkpt lat="49.49796" lon="-1.58631">
        <ele>122.1</ele>
        <time>2026-03-30T13:52:50.000Z</time>
      </trkpt>
      <trkpt lat="49.49794" lon="-1.5863">
        <ele>121.6</ele>
        <time>2026-03-30T13:52:51.000Z</time>
      </trkpt>
      <trkpt lat="49.49793" lon="-1.58629">
        <ele>121.9</ele>
        <time>2026-03-30T13:52:52.000Z</time>
      </trkpt>
      <trkpt lat="49.49791" lon="-1.58629">
        <ele>121.7</ele>
        <time>2026-03-30T13:52:53.000Z</time>
      </trkpt>
      <trkpt lat="49.4979" lon="-1.58628">
        <ele>121.7</ele>
        <time>2026-03-30T13:52:54.000Z</time>
      </trkpt>
      <trkpt lat="49.49788" lon="-1.58628">
        <ele>121.4</ele>
        <time>2026-03-30T13:52:55.000Z</time>
      </trkpt>
      <trkpt lat="49.49787" lon="-1.58627">
        <ele>121.7</ele>
        <time>2026-03-30T13:52:56.000Z</time>
      </trkpt>
      <trkpt lat="49.49786" lon="-1.58627">
        <ele>121.7</ele>
        <time>2026-03-30T13:52:57.000Z</time>
      </trkpt>
      <trkpt lat="49.49785" lon="-1.58627">
        <ele>120.8</ele>
        <time>2026-03-30T13:52:58.000Z</time>
      </trkpt>
      <trkpt lat="49.49783" lon="-1.58628">
        <ele>121</ele>
        <time>2026-03-30T13:52:59.000Z</time>
      </trkpt>
      <trkpt lat="49.49782" lon="-1.58628">
        <ele>120.6</ele>
        <time>2026-03-30T13:53:00.000Z</time>
      </trkpt>
      <trkpt lat="49.4978" lon="-1.58629">
        <ele>120.9</ele>
        <time>2026-03-30T13:53:01.000Z</time>
      </trkpt>
      <trkpt lat="49.49779" lon="-1.58629">
        <ele>120.8</ele>
        <time>2026-03-30T13:53:02.000Z</time>
      </trkpt>
      <trkpt lat="49.49777" lon="-1.5863">
        <ele>120.8</ele>
        <time>2026-03-30T13:53:03.000Z</time>
      </trkpt>
      <trkpt lat="49.49776" lon="-1.58631">
        <ele>121</ele>
        <time>2026-03-30T13:53:04.000Z</time>
      </trkpt>
      <trkpt lat="49.49774" lon="-1.58632">
        <ele>121.3</ele>
        <time>2026-03-30T13:53:05.000Z</time>
      </trkpt>
      <trkpt lat="49.49773" lon="-1.58633">
        <ele>121.2</ele>
        <time>2026-03-30T13:53:06.000Z</time>
      </trkpt>
      <trkpt lat="49.49771" lon="-1.58635">
        <ele>121</ele>
        <time>2026-03-30T13:53:07.000Z</time>
      </trkpt>
      <trkpt lat="49.4977" lon="-1.58636">
        <ele>121.2</ele>
        <time>2026-03-30T13:53:08.000Z</time>
      </trkpt>
      <trkpt lat="49.49769" lon="-1.58638">
        <ele>121.6</ele>
        <time>2026-03-30T13:53:09.000Z</time>
      </trkpt>
      <trkpt lat="49.49768" lon="-1.58639">
        <ele>121.7</ele>
        <time>2026-03-30T13:53:10.000Z</time>
      </trkpt>
      <trkpt lat="49.49768" lon="-1.58641">
        <ele>122.3</ele>
        <time>2026-03-30T13:53:11.000Z</time>
      </trkpt>
      <trkpt lat="49.49767" lon="-1.58642">
        <ele>122.1</ele>
        <time>2026-03-30T13:53:12.000Z</time>
      </trkpt>
      <trkpt lat="49.49766" lon="-1.58643">
        <ele>122.1</ele>
        <time>2026-03-30T13:53:13.000Z</time>
      </trkpt>
      <trkpt lat="49.49765" lon="-1.58645">
        <ele>122.4</ele>
        <time>2026-03-30T13:53:14.000Z</time>
      </trkpt>
      <trkpt lat="49.49764" lon="-1.58646">
        <ele>122</ele>
        <time>2026-03-30T13:53:15.000Z</time>
      </trkpt>
      <trkpt lat="49.49763" lon="-1.58648">
        <ele>122.1</ele>
        <time>2026-03-30T13:53:16.000Z</time>
      </trkpt>
      <trkpt lat="49.49762" lon="-1.5865">
        <ele>122.3</ele>
        <time>2026-03-30T13:53:17.000Z</time>
      </trkpt>
      <trkpt lat="49.49761" lon="-1.58651">
        <ele>121.8</ele>
        <time>2026-03-30T13:53:18.000Z</time>
      </trkpt>
      <trkpt lat="49.4976" lon="-1.58653">
        <ele>122.4</ele>
        <time>2026-03-30T13:53:19.000Z</time>
      </trkpt>
      <trkpt lat="49.49759" lon="-1.58655">
        <ele>122.4</ele>
        <time>2026-03-30T13:53:20.000Z</time>
      </trkpt>
      <trkpt lat="49.49759" lon="-1.58656">
        <ele>122.6</ele>
        <time>2026-03-30T13:53:21.000Z</time>
      </trkpt>
      <trkpt lat="49.49758" lon="-1.58659">
        <ele>123.2</ele>
        <time>2026-03-30T13:53:22.000Z</time>
      </trkpt>
      <trkpt lat="49.49758" lon="-1.58661">
        <ele>123.2</ele>
        <time>2026-03-30T13:53:23.000Z</time>
      </trkpt>
      <trkpt lat="49.49757" lon="-1.58663">
        <ele>124</ele>
        <time>2026-03-30T13:53:24.000Z</time>
      </trkpt>
      <trkpt lat="49.49756" lon="-1.58665">
        <ele>124.4</ele>
        <time>2026-03-30T13:53:25.000Z</time>
      </trkpt>
      <trkpt lat="49.49756" lon="-1.58667">
        <ele>124.9</ele>
        <time>2026-03-30T13:53:26.000Z</time>
      </trkpt>
      <trkpt lat="49.49755" lon="-1.58669">
        <ele>124.7</ele>
        <time>2026-03-30T13:53:27.000Z</time>
      </trkpt>
      <trkpt lat="49.49755" lon="-1.58671">
        <ele>124.6</ele>
        <time>2026-03-30T13:53:28.000Z</time>
      </trkpt>
      <trkpt lat="49.49754" lon="-1.58673">
        <ele>124.4</ele>
        <time>2026-03-30T13:53:29.000Z</time>
      </trkpt>
      <trkpt lat="49.49754" lon="-1.58675">
        <ele>124.3</ele>
        <time>2026-03-30T13:53:30.000Z</time>
      </trkpt>
      <trkpt lat="49.49753" lon="-1.58677">
        <ele>122.6</ele>
        <time>2026-03-30T13:53:31.000Z</time>
      </trkpt>
      <trkpt lat="49.49753" lon="-1.58679">
        <ele>122.6</ele>
        <time>2026-03-30T13:53:32.000Z</time>
      </trkpt>
      <trkpt lat="49.49752" lon="-1.58681">
        <ele>121.9</ele>
        <time>2026-03-30T13:53:33.000Z</time>
      </trkpt>
      <trkpt lat="49.49752" lon="-1.58683">
        <ele>121.8</ele>
        <time>2026-03-30T13:53:34.000Z</time>
      </trkpt>
      <trkpt lat="49.49751" lon="-1.58685">
        <ele>122.3</ele>
        <time>2026-03-30T13:53:35.000Z</time>
      </trkpt>
      <trkpt lat="49.4975" lon="-1.58687">
        <ele>122.9</ele>
        <time>2026-03-30T13:53:36.000Z</time>
      </trkpt>
      <trkpt lat="49.49749" lon="-1.58689">
        <ele>123.3</ele>
        <time>2026-03-30T13:53:37.000Z</time>
      </trkpt>
      <trkpt lat="49.49749" lon="-1.58692">
        <ele>123.1</ele>
        <time>2026-03-30T13:53:38.000Z</time>
      </trkpt>
      <trkpt lat="49.49748" lon="-1.58694">
        <ele>123.1</ele>
        <time>2026-03-30T13:53:39.000Z</time>
      </trkpt>
      <trkpt lat="49.49748" lon="-1.58696">
        <ele>123</ele>
        <time>2026-03-30T13:53:40.000Z</time>
      </trkpt>
      <trkpt lat="49.49747" lon="-1.58698">
        <ele>123</ele>
        <time>2026-03-30T13:53:41.000Z</time>
      </trkpt>
      <trkpt lat="49.49747" lon="-1.587">
        <ele>123</ele>
        <time>2026-03-30T13:53:42.000Z</time>
      </trkpt>
      <trkpt lat="49.49746" lon="-1.58702">
        <ele>122.2</ele>
        <time>2026-03-30T13:53:43.000Z</time>
      </trkpt>
      <trkpt lat="49.49745" lon="-1.58704">
        <ele>122.5</ele>
        <time>2026-03-30T13:53:44.000Z</time>
      </trkpt>
      <trkpt lat="49.49744" lon="-1.58706">
        <ele>122.3</ele>
        <time>2026-03-30T13:53:45.000Z</time>
      </trkpt>
      <trkpt lat="49.49744" lon="-1.58708">
        <ele>122.9</ele>
        <time>2026-03-30T13:53:46.000Z</time>
      </trkpt>
      <trkpt lat="49.49743" lon="-1.5871">
        <ele>123.2</ele>
        <time>2026-03-30T13:53:47.000Z</time>
      </trkpt>
      <trkpt lat="49.49743" lon="-1.58711">
        <ele>123.2</ele>
        <time>2026-03-30T13:53:48.000Z</time>
      </trkpt>
      <trkpt lat="49.49743" lon="-1.58713">
        <ele>123.3</ele>
        <time>2026-03-30T13:53:49.000Z</time>
      </trkpt>
      <trkpt lat="49.49742" lon="-1.58715">
        <ele>123.3</ele>
        <time>2026-03-30T13:53:50.000Z</time>
      </trkpt>
      <trkpt lat="49.49742" lon="-1.58717">
        <ele>123.9</ele>
        <time>2026-03-30T13:53:51.000Z</time>
      </trkpt>
      <trkpt lat="49.49741" lon="-1.58719">
        <ele>123.9</ele>
        <time>2026-03-30T13:53:52.000Z</time>
      </trkpt>
      <trkpt lat="49.49741" lon="-1.58721">
        <ele>124.3</ele>
        <time>2026-03-30T13:53:53.000Z</time>
      </trkpt>
      <trkpt lat="49.4974" lon="-1.58723">
        <ele>124.2</ele>
        <time>2026-03-30T13:53:54.000Z</time>
      </trkpt>
      <trkpt lat="49.4974" lon="-1.58725">
        <ele>124.2</ele>
        <time>2026-03-30T13:53:55.000Z</time>
      </trkpt>
      <trkpt lat="49.4974" lon="-1.58727">
        <ele>124.5</ele>
        <time>2026-03-30T13:53:56.000Z</time>
      </trkpt>
      <trkpt lat="49.49739" lon="-1.58729">
        <ele>124.7</ele>
        <time>2026-03-30T13:53:57.000Z</time>
      </trkpt>
      <trkpt lat="49.49739" lon="-1.58731">
        <ele>123.9</ele>
        <time>2026-03-30T13:53:58.000Z</time>
      </trkpt>
      <trkpt lat="49.49739" lon="-1.58734">
        <ele>124</ele>
        <time>2026-03-30T13:53:59.000Z</time>
      </trkpt>
      <trkpt lat="49.49738" lon="-1.58735">
        <ele>124.2</ele>
        <time>2026-03-30T13:54:00.000Z</time>
      </trkpt>
      <trkpt lat="49.49737" lon="-1.58737">
        <ele>124.2</ele>
        <time>2026-03-30T13:54:01.000Z</time>
      </trkpt>
      <trkpt lat="49.49736" lon="-1.58739">
        <ele>124</ele>
        <time>2026-03-30T13:54:02.000Z</time>
      </trkpt>
      <trkpt lat="49.49736" lon="-1.58741">
        <ele>123.9</ele>
        <time>2026-03-30T13:54:03.000Z</time>
      </trkpt>
      <trkpt lat="49.49735" lon="-1.58743">
        <ele>123.6</ele>
        <time>2026-03-30T13:54:04.000Z</time>
      </trkpt>
      <trkpt lat="49.49735" lon="-1.58745">
        <ele>123.5</ele>
        <time>2026-03-30T13:54:05.000Z</time>
      </trkpt>
      <trkpt lat="49.49734" lon="-1.58747">
        <ele>123.4</ele>
        <time>2026-03-30T13:54:06.000Z</time>
      </trkpt>
      <trkpt lat="49.49734" lon="-1.58749">
        <ele>123.4</ele>
        <time>2026-03-30T13:54:07.000Z</time>
      </trkpt>
      <trkpt lat="49.49733" lon="-1.58751">
        <ele>123.2</ele>
        <time>2026-03-30T13:54:08.000Z</time>
      </trkpt>
      <trkpt lat="49.49733" lon="-1.58753">
        <ele>123.5</ele>
        <time>2026-03-30T13:54:09.000Z</time>
      </trkpt>
      <trkpt lat="49.49732" lon="-1.58755">
        <ele>123.5</ele>
        <time>2026-03-30T13:54:10.000Z</time>
      </trkpt>
      <trkpt lat="49.49731" lon="-1.58756">
        <ele>123.6</ele>
        <time>2026-03-30T13:54:11.000Z</time>
      </trkpt>
      <trkpt lat="49.4973" lon="-1.58758">
        <ele>123.6</ele>
        <time>2026-03-30T13:54:12.000Z</time>
      </trkpt>
      <trkpt lat="49.49729" lon="-1.58759">
        <ele>123.9</ele>
        <time>2026-03-30T13:54:13.000Z</time>
      </trkpt>
      <trkpt lat="49.49728" lon="-1.58761">
        <ele>124.3</ele>
        <time>2026-03-30T13:54:14.000Z</time>
      </trkpt>
      <trkpt lat="49.49727" lon="-1.58763">
        <ele>124.7</ele>
        <time>2026-03-30T13:54:15.000Z</time>
      </trkpt>
      <trkpt lat="49.49726" lon="-1.58764">
        <ele>125.1</ele>
        <time>2026-03-30T13:54:16.000Z</time>
      </trkpt>
      <trkpt lat="49.49725" lon="-1.58766">
        <ele>125.2</ele>
        <time>2026-03-30T13:54:17.000Z</time>
      </trkpt>
      <trkpt lat="49.49725" lon="-1.58767">
        <ele>124.8</ele>
        <time>2026-03-30T13:54:18.000Z</time>
      </trkpt>
      <trkpt lat="49.49723" lon="-1.58769">
        <ele>124.2</ele>
        <time>2026-03-30T13:54:19.000Z</time>
      </trkpt>
      <trkpt lat="49.49722" lon="-1.5877">
        <ele>123.9</ele>
        <time>2026-03-30T13:54:20.000Z</time>
      </trkpt>
      <trkpt lat="49.49721" lon="-1.58771">
        <ele>123.7</ele>
        <time>2026-03-30T13:54:21.000Z</time>
      </trkpt>
      <trkpt lat="49.49719" lon="-1.58772">
        <ele>123.5</ele>
        <time>2026-03-30T13:54:22.000Z</time>
      </trkpt>
      <trkpt lat="49.49718" lon="-1.58774">
        <ele>123.5</ele>
        <time>2026-03-30T13:54:23.000Z</time>
      </trkpt>
      <trkpt lat="49.49717" lon="-1.58775">
        <ele>123.4</ele>
        <time>2026-03-30T13:54:24.000Z</time>
      </trkpt>
      <trkpt lat="49.49716" lon="-1.58776">
        <ele>123.2</ele>
        <time>2026-03-30T13:54:25.000Z</time>
      </trkpt>
      <trkpt lat="49.49715" lon="-1.58778">
        <ele>123.2</ele>
        <time>2026-03-30T13:54:26.000Z</time>
      </trkpt>
      <trkpt lat="49.49713" lon="-1.58779">
        <ele>123.1</ele>
        <time>2026-03-30T13:54:27.000Z</time>
      </trkpt>
      <trkpt lat="49.49712" lon="-1.5878">
        <ele>122.9</ele>
        <time>2026-03-30T13:54:28.000Z</time>
      </trkpt>
      <trkpt lat="49.49711" lon="-1.58782">
        <ele>123</ele>
        <time>2026-03-30T13:54:29.000Z</time>
      </trkpt>
      <trkpt lat="49.4971" lon="-1.58783">
        <ele>123</ele>
        <time>2026-03-30T13:54:30.000Z</time>
      </trkpt>
      <trkpt lat="49.49708" lon="-1.58785">
        <ele>123.4</ele>
        <time>2026-03-30T13:54:31.000Z</time>
      </trkpt>
      <trkpt lat="49.49707" lon="-1.58786">
        <ele>123.4</ele>
        <time>2026-03-30T13:54:32.000Z</time>
      </trkpt>
      <trkpt lat="49.49706" lon="-1.58787">
        <ele>123.4</ele>
        <time>2026-03-30T13:54:33.000Z</time>
      </trkpt>
      <trkpt lat="49.49705" lon="-1.58788">
        <ele>123.3</ele>
        <time>2026-03-30T13:54:34.000Z</time>
      </trkpt>
      <trkpt lat="49.49704" lon="-1.5879">
        <ele>123.4</ele>
        <time>2026-03-30T13:54:35.000Z</time>
      </trkpt>
      <trkpt lat="49.49703" lon="-1.58791">
        <ele>123.6</ele>
        <time>2026-03-30T13:54:36.000Z</time>
      </trkpt>
      <trkpt lat="49.49702" lon="-1.58792">
        <ele>123.8</ele>
        <time>2026-03-30T13:54:37.000Z</time>
      </trkpt>
      <trkpt lat="49.497" lon="-1.58793">
        <ele>124.2</ele>
        <time>2026-03-30T13:54:38.000Z</time>
      </trkpt>
      <trkpt lat="49.497" lon="-1.58795">
        <ele>124.5</ele>
        <time>2026-03-30T13:54:39.000Z</time>
      </trkpt>
      <trkpt lat="49.49699" lon="-1.58797">
        <ele>124.7</ele>
        <time>2026-03-30T13:54:40.000Z</time>
      </trkpt>
      <trkpt lat="49.49698" lon="-1.58798">
        <ele>124.9</ele>
        <time>2026-03-30T13:54:41.000Z</time>
      </trkpt>
      <trkpt lat="49.49697" lon="-1.588">
        <ele>125.5</ele>
        <time>2026-03-30T13:54:42.000Z</time>
      </trkpt>
      <trkpt lat="49.49696" lon="-1.58801">
        <ele>125.5</ele>
        <time>2026-03-30T13:54:43.000Z</time>
      </trkpt>
      <trkpt lat="49.49694" lon="-1.58801">
        <ele>125</ele>
        <time>2026-03-30T13:54:44.000Z</time>
      </trkpt>
      <trkpt lat="49.49693" lon="-1.58803">
        <ele>125.2</ele>
        <time>2026-03-30T13:54:45.000Z</time>
      </trkpt>
      <trkpt lat="49.49692" lon="-1.58804">
        <ele>125.4</ele>
        <time>2026-03-30T13:54:46.000Z</time>
      </trkpt>
      <trkpt lat="49.49691" lon="-1.58805">
        <ele>125.1</ele>
        <time>2026-03-30T13:54:47.000Z</time>
      </trkpt>
      <trkpt lat="49.4969" lon="-1.58807">
        <ele>125.6</ele>
        <time>2026-03-30T13:54:48.000Z</time>
      </trkpt>
      <trkpt lat="49.49689" lon="-1.58808">
        <ele>124.9</ele>
        <time>2026-03-30T13:54:49.000Z</time>
      </trkpt>
      <trkpt lat="49.49687" lon="-1.58809">
        <ele>124.4</ele>
        <time>2026-03-30T13:54:50.000Z</time>
      </trkpt>
      <trkpt lat="49.49686" lon="-1.58811">
        <ele>124.9</ele>
        <time>2026-03-30T13:54:51.000Z</time>
      </trkpt>
      <trkpt lat="49.49685" lon="-1.58812">
        <ele>125.4</ele>
        <time>2026-03-30T13:54:52.000Z</time>
      </trkpt>
      <trkpt lat="49.49684" lon="-1.58814">
        <ele>125.6</ele>
        <time>2026-03-30T13:54:53.000Z</time>
      </trkpt>
      <trkpt lat="49.49683" lon="-1.58815">
        <ele>125.5</ele>
        <time>2026-03-30T13:54:54.000Z</time>
      </trkpt>
      <trkpt lat="49.49681" lon="-1.58816">
        <ele>126.4</ele>
        <time>2026-03-30T13:54:55.000Z</time>
      </trkpt>
      <trkpt lat="49.4968" lon="-1.58817">
        <ele>127.1</ele>
        <time>2026-03-30T13:54:56.000Z</time>
      </trkpt>
      <trkpt lat="49.49678" lon="-1.58818">
        <ele>127.7</ele>
        <time>2026-03-30T13:54:57.000Z</time>
      </trkpt>
      <trkpt lat="49.49677" lon="-1.58819">
        <ele>127.6</ele>
        <time>2026-03-30T13:54:58.000Z</time>
      </trkpt>
      <trkpt lat="49.49676" lon="-1.5882">
        <ele>127.1</ele>
        <time>2026-03-30T13:54:59.000Z</time>
      </trkpt>
      <trkpt lat="49.49675" lon="-1.58821">
        <ele>127.1</ele>
        <time>2026-03-30T13:55:00.000Z</time>
      </trkpt>
      <trkpt lat="49.49673" lon="-1.58822">
        <ele>127.5</ele>
        <time>2026-03-30T13:55:01.000Z</time>
      </trkpt>
      <trkpt lat="49.49672" lon="-1.58823">
        <ele>127.3</ele>
        <time>2026-03-30T13:55:02.000Z</time>
      </trkpt>
      <trkpt lat="49.49671" lon="-1.58824">
        <ele>126.9</ele>
        <time>2026-03-30T13:55:03.000Z</time>
      </trkpt>
      <trkpt lat="49.4967" lon="-1.58825">
        <ele>126.9</ele>
        <time>2026-03-30T13:55:04.000Z</time>
      </trkpt>
      <trkpt lat="49.49669" lon="-1.58826">
        <ele>126.3</ele>
        <time>2026-03-30T13:55:05.000Z</time>
      </trkpt>
      <trkpt lat="49.49668" lon="-1.58827">
        <ele>126.1</ele>
        <time>2026-03-30T13:55:06.000Z</time>
      </trkpt>
      <trkpt lat="49.49666" lon="-1.58828">
        <ele>126.1</ele>
        <time>2026-03-30T13:55:07.000Z</time>
      </trkpt>
      <trkpt lat="49.49665" lon="-1.58829">
        <ele>126.2</ele>
        <time>2026-03-30T13:55:08.000Z</time>
      </trkpt>
      <trkpt lat="49.49664" lon="-1.58829">
        <ele>126</ele>
        <time>2026-03-30T13:55:09.000Z</time>
      </trkpt>
      <trkpt lat="49.49663" lon="-1.5883">
        <ele>125.8</ele>
        <time>2026-03-30T13:55:10.000Z</time>
      </trkpt>
      <trkpt lat="49.49661" lon="-1.58831">
        <ele>126.1</ele>
        <time>2026-03-30T13:55:11.000Z</time>
      </trkpt>
      <trkpt lat="49.4966" lon="-1.58832">
        <ele>126.3</ele>
        <time>2026-03-30T13:55:12.000Z</time>
      </trkpt>
      <trkpt lat="49.49659" lon="-1.58832">
        <ele>126.2</ele>
        <time>2026-03-30T13:55:13.000Z</time>
      </trkpt>
      <trkpt lat="49.49658" lon="-1.58833">
        <ele>126.2</ele>
        <time>2026-03-30T13:55:14.000Z</time>
      </trkpt>
      <trkpt lat="49.49656" lon="-1.58833">
        <ele>126.4</ele>
        <time>2026-03-30T13:55:15.000Z</time>
      </trkpt>
      <trkpt lat="49.49655" lon="-1.58834">
        <ele>126.3</ele>
        <time>2026-03-30T13:55:16.000Z</time>
      </trkpt>
      <trkpt lat="49.49654" lon="-1.58834">
        <ele>126.5</ele>
        <time>2026-03-30T13:55:17.000Z</time>
      </trkpt>
      <trkpt lat="49.49653" lon="-1.58835">
        <ele>126.5</ele>
        <time>2026-03-30T13:55:18.000Z</time>
      </trkpt>
      <trkpt lat="49.49652" lon="-1.58836">
        <ele>126.7</ele>
        <time>2026-03-30T13:55:19.000Z</time>
      </trkpt>
      <trkpt lat="49.4965" lon="-1.58837">
        <ele>126.6</ele>
        <time>2026-03-30T13:55:20.000Z</time>
      </trkpt>
      <trkpt lat="49.49649" lon="-1.58837">
        <ele>126.2</ele>
        <time>2026-03-30T13:55:21.000Z</time>
      </trkpt>
      <trkpt lat="49.49648" lon="-1.58838">
        <ele>125.6</ele>
        <time>2026-03-30T13:55:22.000Z</time>
      </trkpt>
      <trkpt lat="49.49647" lon="-1.58838">
        <ele>125.9</ele>
        <time>2026-03-30T13:55:23.000Z</time>
      </trkpt>
      <trkpt lat="49.49645" lon="-1.58839">
        <ele>125.9</ele>
        <time>2026-03-30T13:55:24.000Z</time>
      </trkpt>
      <trkpt lat="49.49644" lon="-1.58839">
        <ele>125.7</ele>
        <time>2026-03-30T13:55:25.000Z</time>
      </trkpt>
      <trkpt lat="49.49643" lon="-1.58839">
        <ele>125.2</ele>
        <time>2026-03-30T13:55:26.000Z</time>
      </trkpt>
      <trkpt lat="49.49641" lon="-1.58839">
        <ele>124.6</ele>
        <time>2026-03-30T13:55:27.000Z</time>
      </trkpt>
      <trkpt lat="49.4964" lon="-1.5884">
        <ele>124.5</ele>
        <time>2026-03-30T13:55:28.000Z</time>
      </trkpt>
      <trkpt lat="49.49638" lon="-1.5884">
        <ele>123.4</ele>
        <time>2026-03-30T13:55:29.000Z</time>
      </trkpt>
      <trkpt lat="49.49637" lon="-1.5884">
        <ele>123.1</ele>
        <time>2026-03-30T13:55:30.000Z</time>
      </trkpt>
      <trkpt lat="49.49636" lon="-1.58838">
        <ele>123.5</ele>
        <time>2026-03-30T13:55:31.000Z</time>
      </trkpt>
      <trkpt lat="49.49635" lon="-1.58837">
        <ele>123.3</ele>
        <time>2026-03-30T13:55:32.000Z</time>
      </trkpt>
      <trkpt lat="49.49633" lon="-1.58836">
        <ele>123.6</ele>
        <time>2026-03-30T13:55:33.000Z</time>
      </trkpt>
      <trkpt lat="49.49632" lon="-1.58834">
        <ele>124.3</ele>
        <time>2026-03-30T13:55:34.000Z</time>
      </trkpt>
      <trkpt lat="49.49631" lon="-1.58831">
        <ele>124.7</ele>
        <time>2026-03-30T13:55:35.000Z</time>
      </trkpt>
      <trkpt lat="49.4963" lon="-1.58829">
        <ele>124.8</ele>
        <time>2026-03-30T13:55:36.000Z</time>
      </trkpt>
      <trkpt lat="49.4963" lon="-1.58827">
        <ele>123.9</ele>
        <time>2026-03-30T13:55:37.000Z</time>
      </trkpt>
      <trkpt lat="49.4963" lon="-1.58824">
        <ele>123.1</ele>
        <time>2026-03-30T13:55:38.000Z</time>
      </trkpt>
      <trkpt lat="49.49629" lon="-1.58822">
        <ele>122.8</ele>
        <time>2026-03-30T13:55:39.000Z</time>
      </trkpt>
      <trkpt lat="49.49629" lon="-1.5882">
        <ele>123</ele>
        <time>2026-03-30T13:55:40.000Z</time>
      </trkpt>
      <trkpt lat="49.49628" lon="-1.58818">
        <ele>122.9</ele>
        <time>2026-03-30T13:55:41.000Z</time>
      </trkpt>
      <trkpt lat="49.49627" lon="-1.58816">
        <ele>123.1</ele>
        <time>2026-03-30T13:55:42.000Z</time>
      </trkpt>
      <trkpt lat="49.49627" lon="-1.58813">
        <ele>123.3</ele>
        <time>2026-03-30T13:55:43.000Z</time>
      </trkpt>
      <trkpt lat="49.49626" lon="-1.58811">
        <ele>123.3</ele>
        <time>2026-03-30T13:55:44.000Z</time>
      </trkpt>
      <trkpt lat="49.49626" lon="-1.5881">
        <ele>123.6</ele>
        <time>2026-03-30T13:55:45.000Z</time>
      </trkpt>
      <trkpt lat="49.49625" lon="-1.58808">
        <ele>123.6</ele>
        <time>2026-03-30T13:55:46.000Z</time>
      </trkpt>
      <trkpt lat="49.49625" lon="-1.58805">
        <ele>123.6</ele>
        <time>2026-03-30T13:55:47.000Z</time>
      </trkpt>
      <trkpt lat="49.49624" lon="-1.58804">
        <ele>123.4</ele>
        <time>2026-03-30T13:55:48.000Z</time>
      </trkpt>
      <trkpt lat="49.49623" lon="-1.58802">
        <ele>123.4</ele>
        <time>2026-03-30T13:55:49.000Z</time>
      </trkpt>
      <trkpt lat="49.49623" lon="-1.588">
        <ele>123.4</ele>
        <time>2026-03-30T13:55:50.000Z</time>
      </trkpt>
      <trkpt lat="49.49622" lon="-1.58798">
        <ele>123.6</ele>
        <time>2026-03-30T13:55:51.000Z</time>
      </trkpt>
      <trkpt lat="49.49622" lon="-1.58795">
        <ele>123.4</ele>
        <time>2026-03-30T13:55:52.000Z</time>
      </trkpt>
      <trkpt lat="49.49622" lon="-1.58793">
        <ele>123</ele>
        <time>2026-03-30T13:55:53.000Z</time>
      </trkpt>
      <trkpt lat="49.49621" lon="-1.58792">
        <ele>123.6</ele>
        <time>2026-03-30T13:55:54.000Z</time>
      </trkpt>
      <trkpt lat="49.4962" lon="-1.5879">
        <ele>123.2</ele>
        <time>2026-03-30T13:55:55.000Z</time>
      </trkpt>
      <trkpt lat="49.4962" lon="-1.58788">
        <ele>122.7</ele>
        <time>2026-03-30T13:55:56.000Z</time>
      </trkpt>
      <trkpt lat="49.49619" lon="-1.58785">
        <ele>122.4</ele>
        <time>2026-03-30T13:55:57.000Z</time>
      </trkpt>
      <trkpt lat="49.49619" lon="-1.58783">
        <ele>122.1</ele>
        <time>2026-03-30T13:55:58.000Z</time>
      </trkpt>
      <trkpt lat="49.49618" lon="-1.58782">
        <ele>121.9</ele>
        <time>2026-03-30T13:55:59.000Z</time>
      </trkpt>
      <trkpt lat="49.49618" lon="-1.5878">
        <ele>121.6</ele>
        <time>2026-03-30T13:56:00.000Z</time>
      </trkpt>
      <trkpt lat="49.49617" lon="-1.58778">
        <ele>121</ele>
        <time>2026-03-30T13:56:01.000Z</time>
      </trkpt>
      <trkpt lat="49.49617" lon="-1.58775">
        <ele>120.5</ele>
        <time>2026-03-30T13:56:02.000Z</time>
      </trkpt>
      <trkpt lat="49.49616" lon="-1.58773">
        <ele>120.1</ele>
        <time>2026-03-30T13:56:03.000Z</time>
      </trkpt>
      <trkpt lat="49.49615" lon="-1.58771">
        <ele>120.1</ele>
        <time>2026-03-30T13:56:04.000Z</time>
      </trkpt>
      <trkpt lat="49.49615" lon="-1.58769">
        <ele>119.6</ele>
        <time>2026-03-30T13:56:05.000Z</time>
      </trkpt>
      <trkpt lat="49.49614" lon="-1.58767">
        <ele>119.1</ele>
        <time>2026-03-30T13:56:06.000Z</time>
      </trkpt>
      <trkpt lat="49.49613" lon="-1.58765">
        <ele>119.3</ele>
        <time>2026-03-30T13:56:07.000Z</time>
      </trkpt>
      <trkpt lat="49.49612" lon="-1.58764">
        <ele>119.3</ele>
        <time>2026-03-30T13:56:08.000Z</time>
      </trkpt>
      <trkpt lat="49.49612" lon="-1.58762">
        <ele>119.1</ele>
        <time>2026-03-30T13:56:09.000Z</time>
      </trkpt>
      <trkpt lat="49.49611" lon="-1.5876">
        <ele>118.9</ele>
        <time>2026-03-30T13:56:10.000Z</time>
      </trkpt>
      <trkpt lat="49.49611" lon="-1.58757">
        <ele>119</ele>
        <time>2026-03-30T13:56:11.000Z</time>
      </trkpt>
      <trkpt lat="49.4961" lon="-1.58755">
        <ele>118.8</ele>
        <time>2026-03-30T13:56:12.000Z</time>
      </trkpt>
      <trkpt lat="49.49609" lon="-1.58753">
        <ele>118.6</ele>
        <time>2026-03-30T13:56:13.000Z</time>
      </trkpt>
      <trkpt lat="49.49609" lon="-1.58751">
        <ele>118.1</ele>
        <time>2026-03-30T13:56:14.000Z</time>
      </trkpt>
      <trkpt lat="49.49609" lon="-1.58749">
        <ele>117.9</ele>
        <time>2026-03-30T13:56:15.000Z</time>
      </trkpt>
      <trkpt lat="49.49608" lon="-1.58746">
        <ele>117.9</ele>
        <time>2026-03-30T13:56:16.000Z</time>
      </trkpt>
      <trkpt lat="49.49608" lon="-1.58744">
        <ele>118.3</ele>
        <time>2026-03-30T13:56:17.000Z</time>
      </trkpt>
      <trkpt lat="49.49607" lon="-1.58742">
        <ele>118.3</ele>
        <time>2026-03-30T13:56:18.000Z</time>
      </trkpt>
      <trkpt lat="49.49605" lon="-1.58741">
        <ele>118.3</ele>
        <time>2026-03-30T13:56:19.000Z</time>
      </trkpt>
      <trkpt lat="49.49605" lon="-1.58739">
        <ele>118.2</ele>
        <time>2026-03-30T13:56:20.000Z</time>
      </trkpt>
      <trkpt lat="49.49604" lon="-1.58737">
        <ele>118.1</ele>
        <time>2026-03-30T13:56:21.000Z</time>
      </trkpt>
      <trkpt lat="49.49602" lon="-1.58736">
        <ele>118.1</ele>
        <time>2026-03-30T13:56:22.000Z</time>
      </trkpt>
      <trkpt lat="49.49601" lon="-1.58735">
        <ele>118.1</ele>
        <time>2026-03-30T13:56:23.000Z</time>
      </trkpt>
      <trkpt lat="49.496" lon="-1.58734">
        <ele>118.9</ele>
        <time>2026-03-30T13:56:24.000Z</time>
      </trkpt>
      <trkpt lat="49.49599" lon="-1.58733">
        <ele>120</ele>
        <time>2026-03-30T13:56:25.000Z</time>
      </trkpt>
      <trkpt lat="49.49598" lon="-1.58731">
        <ele>120.7</ele>
        <time>2026-03-30T13:56:26.000Z</time>
      </trkpt>
      <trkpt lat="49.49598" lon="-1.58729">
        <ele>121.2</ele>
        <time>2026-03-30T13:56:27.000Z</time>
      </trkpt>
      <trkpt lat="49.49598" lon="-1.5873">
        <ele>120.3</ele>
        <time>2026-03-30T13:56:28.000Z</time>
      </trkpt>
      <trkpt lat="49.49598" lon="-1.5873">
        <ele>120.5</ele>
        <time>2026-03-30T13:56:29.000Z</time>
      </trkpt>
      <trkpt lat="49.49598" lon="-1.5873">
        <ele>120.4</ele>
        <time>2026-03-30T13:56:30.000Z</time>
      </trkpt>
      <trkpt lat="49.49598" lon="-1.58731">
        <ele>120.4</ele>
        <time>2026-03-30T13:56:31.000Z</time>
      </trkpt>
      <trkpt lat="49.49598" lon="-1.58731">
        <ele>120.5</ele>
        <time>2026-03-30T13:56:32.000Z</time>
      </trkpt>
      <trkpt lat="49.49599" lon="-1.5873">
        <ele>120.5</ele>
        <time>2026-03-30T13:56:33.000Z</time>
      </trkpt>
      <trkpt lat="49.49599" lon="-1.5873">
        <ele>120.5</ele>
        <time>2026-03-30T13:56:34.000Z</time>
      </trkpt>
      <trkpt lat="49.49598" lon="-1.58729">
        <ele>120.2</ele>
        <time>2026-03-30T13:56:35.000Z</time>
      </trkpt>
      <trkpt lat="49.49598" lon="-1.58728">
        <ele>120.3</ele>
        <time>2026-03-30T13:56:36.000Z</time>
      </trkpt>
      <trkpt lat="49.49597" lon="-1.58726">
        <ele>120</ele>
        <time>2026-03-30T13:56:37.000Z</time>
      </trkpt>
      <trkpt lat="49.49596" lon="-1.58724">
        <ele>119.7</ele>
        <time>2026-03-30T13:56:38.000Z</time>
      </trkpt>
      <trkpt lat="49.49595" lon="-1.58722">
        <ele>119.4</ele>
        <time>2026-03-30T13:56:39.000Z</time>
      </trkpt>
      <trkpt lat="49.49594" lon="-1.58721">
        <ele>119.2</ele>
        <time>2026-03-30T13:56:40.000Z</time>
      </trkpt>
      <trkpt lat="49.49593" lon="-1.58719">
        <ele>119.1</ele>
        <time>2026-03-30T13:56:41.000Z</time>
      </trkpt>
      <trkpt lat="49.49592" lon="-1.58717">
        <ele>119.1</ele>
        <time>2026-03-30T13:56:42.000Z</time>
      </trkpt>
      <trkpt lat="49.49592" lon="-1.58715">
        <ele>118.9</ele>
        <time>2026-03-30T13:56:43.000Z</time>
      </trkpt>
      <trkpt lat="49.4959" lon="-1.58714">
        <ele>118.3</ele>
        <time>2026-03-30T13:56:44.000Z</time>
      </trkpt>
      <trkpt lat="49.4959" lon="-1.58712">
        <ele>118.1</ele>
        <time>2026-03-30T13:56:45.000Z</time>
      </trkpt>
      <trkpt lat="49.49589" lon="-1.58711">
        <ele>118</ele>
        <time>2026-03-30T13:56:46.000Z</time>
      </trkpt>
      <trkpt lat="49.49588" lon="-1.58709">
        <ele>117.7</ele>
        <time>2026-03-30T13:56:47.000Z</time>
      </trkpt>
      <trkpt lat="49.49587" lon="-1.58707">
        <ele>117.6</ele>
        <time>2026-03-30T13:56:48.000Z</time>
      </trkpt>
      <trkpt lat="49.49587" lon="-1.58706">
        <ele>117.5</ele>
        <time>2026-03-30T13:56:49.000Z</time>
      </trkpt>
      <trkpt lat="49.49586" lon="-1.58704">
        <ele>117.5</ele>
        <time>2026-03-30T13:56:50.000Z</time>
      </trkpt>
      <trkpt lat="49.49585" lon="-1.58702">
        <ele>117.2</ele>
        <time>2026-03-30T13:56:51.000Z</time>
      </trkpt>
      <trkpt lat="49.49585" lon="-1.587">
        <ele>117.4</ele>
        <time>2026-03-30T13:56:52.000Z</time>
      </trkpt>
      <trkpt lat="49.49584" lon="-1.58699">
        <ele>116.7</ele>
        <time>2026-03-30T13:56:53.000Z</time>
      </trkpt>
      <trkpt lat="49.49583" lon="-1.58697">
        <ele>116.6</ele>
        <time>2026-03-30T13:56:54.000Z</time>
      </trkpt>
      <trkpt lat="49.49582" lon="-1.58696">
        <ele>117</ele>
        <time>2026-03-30T13:56:55.000Z</time>
      </trkpt>
      <trkpt lat="49.49581" lon="-1.58695">
        <ele>116.5</ele>
        <time>2026-03-30T13:56:56.000Z</time>
      </trkpt>
      <trkpt lat="49.4958" lon="-1.58694">
        <ele>117.1</ele>
        <time>2026-03-30T13:56:57.000Z</time>
      </trkpt>
      <trkpt lat="49.49579" lon="-1.58692">
        <ele>117.7</ele>
        <time>2026-03-30T13:56:58.000Z</time>
      </trkpt>
      <trkpt lat="49.49578" lon="-1.58691">
        <ele>117.7</ele>
        <time>2026-03-30T13:56:59.000Z</time>
      </trkpt>
      <trkpt lat="49.49576" lon="-1.5869">
        <ele>117.4</ele>
        <time>2026-03-30T13:57:00.000Z</time>
      </trkpt>
      <trkpt lat="49.49576" lon="-1.58689">
        <ele>118.2</ele>
        <time>2026-03-30T13:57:01.000Z</time>
      </trkpt>
      <trkpt lat="49.49575" lon="-1.58688">
        <ele>119</ele>
        <time>2026-03-30T13:57:02.000Z</time>
      </trkpt>
      <trkpt lat="49.49574" lon="-1.58687">
        <ele>119.5</ele>
        <time>2026-03-30T13:57:03.000Z</time>
      </trkpt>
      <trkpt lat="49.49573" lon="-1.58685">
        <ele>119.1</ele>
        <time>2026-03-30T13:57:04.000Z</time>
      </trkpt>
      <trkpt lat="49.49572" lon="-1.58684">
        <ele>118.9</ele>
        <time>2026-03-30T13:57:05.000Z</time>
      </trkpt>
      <trkpt lat="49.49571" lon="-1.58682">
        <ele>118.2</ele>
        <time>2026-03-30T13:57:06.000Z</time>
      </trkpt>
      <trkpt lat="49.4957" lon="-1.5868">
        <ele>117.6</ele>
        <time>2026-03-30T13:57:07.000Z</time>
      </trkpt>
      <trkpt lat="49.4957" lon="-1.58679">
        <ele>117.7</ele>
        <time>2026-03-30T13:57:08.000Z</time>
      </trkpt>
      <trkpt lat="49.49569" lon="-1.58677">
        <ele>116.9</ele>
        <time>2026-03-30T13:57:09.000Z</time>
      </trkpt>
      <trkpt lat="49.49569" lon="-1.58676">
        <ele>116.9</ele>
        <time>2026-03-30T13:57:10.000Z</time>
      </trkpt>
      <trkpt lat="49.49568" lon="-1.58674">
        <ele>116.2</ele>
        <time>2026-03-30T13:57:11.000Z</time>
      </trkpt>
      <trkpt lat="49.49568" lon="-1.58672">
        <ele>115.6</ele>
        <time>2026-03-30T13:57:12.000Z</time>
      </trkpt>
      <trkpt lat="49.49567" lon="-1.5867">
        <ele>114.6</ele>
        <time>2026-03-30T13:57:13.000Z</time>
      </trkpt>
      <trkpt lat="49.49566" lon="-1.58668">
        <ele>115.8</ele>
        <time>2026-03-30T13:57:14.000Z</time>
      </trkpt>
      <trkpt lat="49.49566" lon="-1.58667">
        <ele>115.5</ele>
        <time>2026-03-30T13:57:15.000Z</time>
      </trkpt>
      <trkpt lat="49.49565" lon="-1.58665">
        <ele>114.6</ele>
        <time>2026-03-30T13:57:16.000Z</time>
      </trkpt>
      <trkpt lat="49.49564" lon="-1.58663">
        <ele>114.5</ele>
        <time>2026-03-30T13:57:17.000Z</time>
      </trkpt>
      <trkpt lat="49.49564" lon="-1.58661">
        <ele>114.7</ele>
        <time>2026-03-30T13:57:18.000Z</time>
      </trkpt>
      <trkpt lat="49.49563" lon="-1.58659">
        <ele>114.1</ele>
        <time>2026-03-30T13:57:19.000Z</time>
      </trkpt>
      <trkpt lat="49.49563" lon="-1.58657">
        <ele>114.5</ele>
        <time>2026-03-30T13:57:20.000Z</time>
      </trkpt>
      <trkpt lat="49.49562" lon="-1.58655">
        <ele>114.1</ele>
        <time>2026-03-30T13:57:21.000Z</time>
      </trkpt>
      <trkpt lat="49.49561" lon="-1.58653">
        <ele>113.8</ele>
        <time>2026-03-30T13:57:22.000Z</time>
      </trkpt>
      <trkpt lat="49.49561" lon="-1.58651">
        <ele>113.2</ele>
        <time>2026-03-30T13:57:23.000Z</time>
      </trkpt>
      <trkpt lat="49.4956" lon="-1.58649">
        <ele>113.2</ele>
        <time>2026-03-30T13:57:24.000Z</time>
      </trkpt>
      <trkpt lat="49.4956" lon="-1.58647">
        <ele>113.3</ele>
        <time>2026-03-30T13:57:25.000Z</time>
      </trkpt>
      <trkpt lat="49.49559" lon="-1.58644">
        <ele>113</ele>
        <time>2026-03-30T13:57:26.000Z</time>
      </trkpt>
      <trkpt lat="49.49558" lon="-1.58643">
        <ele>112.8</ele>
        <time>2026-03-30T13:57:27.000Z</time>
      </trkpt>
      <trkpt lat="49.49558" lon="-1.58641">
        <ele>113</ele>
        <time>2026-03-30T13:57:28.000Z</time>
      </trkpt>
      <trkpt lat="49.49558" lon="-1.58639">
        <ele>112.6</ele>
        <time>2026-03-30T13:57:29.000Z</time>
      </trkpt>
      <trkpt lat="49.49557" lon="-1.58637">
        <ele>112.5</ele>
        <time>2026-03-30T13:57:30.000Z</time>
      </trkpt>
      <trkpt lat="49.49557" lon="-1.58634">
        <ele>111.8</ele>
        <time>2026-03-30T13:57:31.000Z</time>
      </trkpt>
      <trkpt lat="49.49556" lon="-1.58632">
        <ele>111</ele>
        <time>2026-03-30T13:57:32.000Z</time>
      </trkpt>
      <trkpt lat="49.49556" lon="-1.5863">
        <ele>110.4</ele>
        <time>2026-03-30T13:57:33.000Z</time>
      </trkpt>
      <trkpt lat="49.49555" lon="-1.58628">
        <ele>110.7</ele>
        <time>2026-03-30T13:57:34.000Z</time>
      </trkpt>
      <trkpt lat="49.49555" lon="-1.58626">
        <ele>111</ele>
        <time>2026-03-30T13:57:35.000Z</time>
      </trkpt>
      <trkpt lat="49.49554" lon="-1.58624">
        <ele>111</ele>
        <time>2026-03-30T13:57:36.000Z</time>
      </trkpt>
      <trkpt lat="49.49554" lon="-1.58622">
        <ele>110.9</ele>
        <time>2026-03-30T13:57:37.000Z</time>
      </trkpt>
      <trkpt lat="49.49553" lon="-1.58619">
        <ele>110.5</ele>
        <time>2026-03-30T13:57:38.000Z</time>
      </trkpt>
      <trkpt lat="49.49553" lon="-1.58617">
        <ele>110.5</ele>
        <time>2026-03-30T13:57:39.000Z</time>
      </trkpt>
      <trkpt lat="49.49552" lon="-1.58615">
        <ele>110.2</ele>
        <time>2026-03-30T13:57:40.000Z</time>
      </trkpt>
      <trkpt lat="49.49551" lon="-1.58614">
        <ele>110.1</ele>
        <time>2026-03-30T13:57:41.000Z</time>
      </trkpt>
      <trkpt lat="49.4955" lon="-1.58612">
        <ele>110.4</ele>
        <time>2026-03-30T13:57:42.000Z</time>
      </trkpt>
      <trkpt lat="49.49548" lon="-1.58611">
        <ele>110.7</ele>
        <time>2026-03-30T13:57:43.000Z</time>
      </trkpt>
      <trkpt lat="49.49547" lon="-1.5861">
        <ele>110.7</ele>
        <time>2026-03-30T13:57:44.000Z</time>
      </trkpt>
      <trkpt lat="49.49545" lon="-1.5861">
        <ele>110.4</ele>
        <time>2026-03-30T13:57:45.000Z</time>
      </trkpt>
      <trkpt lat="49.49543" lon="-1.58611">
        <ele>109.8</ele>
        <time>2026-03-30T13:57:46.000Z</time>
      </trkpt>
      <trkpt lat="49.49542" lon="-1.58611">
        <ele>110.2</ele>
        <time>2026-03-30T13:57:47.000Z</time>
      </trkpt>
      <trkpt lat="49.49541" lon="-1.58612">
        <ele>110.8</ele>
        <time>2026-03-30T13:57:48.000Z</time>
      </trkpt>
      <trkpt lat="49.4954" lon="-1.58612">
        <ele>110.7</ele>
        <time>2026-03-30T13:57:49.000Z</time>
      </trkpt>
      <trkpt lat="49.49539" lon="-1.58613">
        <ele>110.4</ele>
        <time>2026-03-30T13:57:50.000Z</time>
      </trkpt>
      <trkpt lat="49.49538" lon="-1.58615">
        <ele>110.5</ele>
        <time>2026-03-30T13:57:51.000Z</time>
      </trkpt>
      <trkpt lat="49.49537" lon="-1.58616">
        <ele>110.6</ele>
        <time>2026-03-30T13:57:52.000Z</time>
      </trkpt>
      <trkpt lat="49.49536" lon="-1.58617">
        <ele>110.6</ele>
        <time>2026-03-30T13:57:53.000Z</time>
      </trkpt>
      <trkpt lat="49.49535" lon="-1.58618">
        <ele>110.9</ele>
        <time>2026-03-30T13:57:54.000Z</time>
      </trkpt>
      <trkpt lat="49.49533" lon="-1.58618">
        <ele>111.4</ele>
        <time>2026-03-30T13:57:55.000Z</time>
      </trkpt>
      <trkpt lat="49.49532" lon="-1.58619">
        <ele>111.7</ele>
        <time>2026-03-30T13:57:56.000Z</time>
      </trkpt>
      <trkpt lat="49.49531" lon="-1.58621">
        <ele>112.2</ele>
        <time>2026-03-30T13:57:57.000Z</time>
      </trkpt>
      <trkpt lat="49.49529" lon="-1.58623">
        <ele>112.9</ele>
        <time>2026-03-30T13:57:58.000Z</time>
      </trkpt>
      <trkpt lat="49.49528" lon="-1.58625">
        <ele>113</ele>
        <time>2026-03-30T13:57:59.000Z</time>
      </trkpt>
      <trkpt lat="49.49528" lon="-1.58626">
        <ele>112.7</ele>
        <time>2026-03-30T13:58:00.000Z</time>
      </trkpt>
      <trkpt lat="49.49527" lon="-1.58627">
        <ele>113</ele>
        <time>2026-03-30T13:58:01.000Z</time>
      </trkpt>
      <trkpt lat="49.49525" lon="-1.58628">
        <ele>113.1</ele>
        <time>2026-03-30T13:58:02.000Z</time>
      </trkpt>
      <trkpt lat="49.49524" lon="-1.58628">
        <ele>113.1</ele>
        <time>2026-03-30T13:58:03.000Z</time>
      </trkpt>
      <trkpt lat="49.49523" lon="-1.58629">
        <ele>112.6</ele>
        <time>2026-03-30T13:58:04.000Z</time>
      </trkpt>
      <trkpt lat="49.49522" lon="-1.5863">
        <ele>112.3</ele>
        <time>2026-03-30T13:58:05.000Z</time>
      </trkpt>
      <trkpt lat="49.49521" lon="-1.58631">
        <ele>111.9</ele>
        <time>2026-03-30T13:58:06.000Z</time>
      </trkpt>
      <trkpt lat="49.49519" lon="-1.58631">
        <ele>111.2</ele>
        <time>2026-03-30T13:58:07.000Z</time>
      </trkpt>
      <trkpt lat="49.49518" lon="-1.58632">
        <ele>110.9</ele>
        <time>2026-03-30T13:58:08.000Z</time>
      </trkpt>
      <trkpt lat="49.49517" lon="-1.58633">
        <ele>110.7</ele>
        <time>2026-03-30T13:58:09.000Z</time>
      </trkpt>
      <trkpt lat="49.49516" lon="-1.58634">
        <ele>110.4</ele>
        <time>2026-03-30T13:58:10.000Z</time>
      </trkpt>
      <trkpt lat="49.49515" lon="-1.58635">
        <ele>110.3</ele>
        <time>2026-03-30T13:58:11.000Z</time>
      </trkpt>
      <trkpt lat="49.49513" lon="-1.58636">
        <ele>110.1</ele>
        <time>2026-03-30T13:58:12.000Z</time>
      </trkpt>
      <trkpt lat="49.49512" lon="-1.58637">
        <ele>110</ele>
        <time>2026-03-30T13:58:13.000Z</time>
      </trkpt>
      <trkpt lat="49.49511" lon="-1.58638">
        <ele>109.9</ele>
        <time>2026-03-30T13:58:14.000Z</time>
      </trkpt>
      <trkpt lat="49.4951" lon="-1.58639">
        <ele>110</ele>
        <time>2026-03-30T13:58:15.000Z</time>
      </trkpt>
      <trkpt lat="49.49508" lon="-1.5864">
        <ele>110.1</ele>
        <time>2026-03-30T13:58:16.000Z</time>
      </trkpt>
      <trkpt lat="49.49507" lon="-1.58642">
        <ele>110.3</ele>
        <time>2026-03-30T13:58:17.000Z</time>
      </trkpt>
      <trkpt lat="49.49506" lon="-1.58643">
        <ele>110.2</ele>
        <time>2026-03-30T13:58:18.000Z</time>
      </trkpt>
      <trkpt lat="49.49505" lon="-1.58644">
        <ele>110.5</ele>
        <time>2026-03-30T13:58:19.000Z</time>
      </trkpt>
      <trkpt lat="49.49503" lon="-1.58645">
        <ele>110.6</ele>
        <time>2026-03-30T13:58:20.000Z</time>
      </trkpt>
      <trkpt lat="49.49502" lon="-1.58646">
        <ele>110.1</ele>
        <time>2026-03-30T13:58:21.000Z</time>
      </trkpt>
      <trkpt lat="49.49501" lon="-1.58648">
        <ele>110.2</ele>
        <time>2026-03-30T13:58:22.000Z</time>
      </trkpt>
      <trkpt lat="49.495" lon="-1.58649">
        <ele>110.2</ele>
        <time>2026-03-30T13:58:23.000Z</time>
      </trkpt>
      <trkpt lat="49.49499" lon="-1.5865">
        <ele>109.9</ele>
        <time>2026-03-30T13:58:24.000Z</time>
      </trkpt>
      <trkpt lat="49.49498" lon="-1.58652">
        <ele>110.9</ele>
        <time>2026-03-30T13:58:25.000Z</time>
      </trkpt>
      <trkpt lat="49.49496" lon="-1.58653">
        <ele>110.4</ele>
        <time>2026-03-30T13:58:26.000Z</time>
      </trkpt>
      <trkpt lat="49.49495" lon="-1.58655">
        <ele>111</ele>
        <time>2026-03-30T13:58:27.000Z</time>
      </trkpt>
      <trkpt lat="49.49494" lon="-1.58656">
        <ele>110.8</ele>
        <time>2026-03-30T13:58:28.000Z</time>
      </trkpt>
      <trkpt lat="49.49492" lon="-1.58658">
        <ele>111</ele>
        <time>2026-03-30T13:58:29.000Z</time>
      </trkpt>
      <trkpt lat="49.49491" lon="-1.5866">
        <ele>111.2</ele>
        <time>2026-03-30T13:58:30.000Z</time>
      </trkpt>
      <trkpt lat="49.4949" lon="-1.58662">
        <ele>110.5</ele>
        <time>2026-03-30T13:58:31.000Z</time>
      </trkpt>
      <trkpt lat="49.49489" lon="-1.58663">
        <ele>110.5</ele>
        <time>2026-03-30T13:58:32.000Z</time>
      </trkpt>
      <trkpt lat="49.49488" lon="-1.58664">
        <ele>109.9</ele>
        <time>2026-03-30T13:58:33.000Z</time>
      </trkpt>
      <trkpt lat="49.49486" lon="-1.58665">
        <ele>110.1</ele>
        <time>2026-03-30T13:58:34.000Z</time>
      </trkpt>
      <trkpt lat="49.49485" lon="-1.58666">
        <ele>110.3</ele>
        <time>2026-03-30T13:58:35.000Z</time>
      </trkpt>
      <trkpt lat="49.49484" lon="-1.58667">
        <ele>109.7</ele>
        <time>2026-03-30T13:58:36.000Z</time>
      </trkpt>
      <trkpt lat="49.49483" lon="-1.58668">
        <ele>109.9</ele>
        <time>2026-03-30T13:58:37.000Z</time>
      </trkpt>
      <trkpt lat="49.49482" lon="-1.58669">
        <ele>110.2</ele>
        <time>2026-03-30T13:58:38.000Z</time>
      </trkpt>
      <trkpt lat="49.49481" lon="-1.58671">
        <ele>110.1</ele>
        <time>2026-03-30T13:58:39.000Z</time>
      </trkpt>
      <trkpt lat="49.49479" lon="-1.58673">
        <ele>110.1</ele>
        <time>2026-03-30T13:58:40.000Z</time>
      </trkpt>
      <trkpt lat="49.49478" lon="-1.58674">
        <ele>109.9</ele>
        <time>2026-03-30T13:58:41.000Z</time>
      </trkpt>
      <trkpt lat="49.49477" lon="-1.58675">
        <ele>110.1</ele>
        <time>2026-03-30T13:58:42.000Z</time>
      </trkpt>
      <trkpt lat="49.49476" lon="-1.58677">
        <ele>110.2</ele>
        <time>2026-03-30T13:58:43.000Z</time>
      </trkpt>
      <trkpt lat="49.49475" lon="-1.58679">
        <ele>110.1</ele>
        <time>2026-03-30T13:58:44.000Z</time>
      </trkpt>
      <trkpt lat="49.49474" lon="-1.58681">
        <ele>109.8</ele>
        <time>2026-03-30T13:58:45.000Z</time>
      </trkpt>
      <trkpt lat="49.49473" lon="-1.58682">
        <ele>110.1</ele>
        <time>2026-03-30T13:58:46.000Z</time>
      </trkpt>
      <trkpt lat="49.49473" lon="-1.58684">
        <ele>110.4</ele>
        <time>2026-03-30T13:58:47.000Z</time>
      </trkpt>
      <trkpt lat="49.49472" lon="-1.58686">
        <ele>110.5</ele>
        <time>2026-03-30T13:58:48.000Z</time>
      </trkpt>
      <trkpt lat="49.49471" lon="-1.58688">
        <ele>110.4</ele>
        <time>2026-03-30T13:58:49.000Z</time>
      </trkpt>
      <trkpt lat="49.4947" lon="-1.58689">
        <ele>110.4</ele>
        <time>2026-03-30T13:58:50.000Z</time>
      </trkpt>
      <trkpt lat="49.49468" lon="-1.58691">
        <ele>110.5</ele>
        <time>2026-03-30T13:58:51.000Z</time>
      </trkpt>
      <trkpt lat="49.49467" lon="-1.58693">
        <ele>110.1</ele>
        <time>2026-03-30T13:58:52.000Z</time>
      </trkpt>
      <trkpt lat="49.49466" lon="-1.58694">
        <ele>109.8</ele>
        <time>2026-03-30T13:58:53.000Z</time>
      </trkpt>
      <trkpt lat="49.49465" lon="-1.58695">
        <ele>109.7</ele>
        <time>2026-03-30T13:58:54.000Z</time>
      </trkpt>
      <trkpt lat="49.49464" lon="-1.58697">
        <ele>110.1</ele>
        <time>2026-03-30T13:58:55.000Z</time>
      </trkpt>
      <trkpt lat="49.49463" lon="-1.58699">
        <ele>109.8</ele>
        <time>2026-03-30T13:58:56.000Z</time>
      </trkpt>
      <trkpt lat="49.49461" lon="-1.587">
        <ele>109.1</ele>
        <time>2026-03-30T13:58:57.000Z</time>
      </trkpt>
      <trkpt lat="49.4946" lon="-1.58701">
        <ele>109.1</ele>
        <time>2026-03-30T13:58:58.000Z</time>
      </trkpt>
      <trkpt lat="49.49459" lon="-1.58703">
        <ele>109</ele>
        <time>2026-03-30T13:58:59.000Z</time>
      </trkpt>
      <trkpt lat="49.49458" lon="-1.58704">
        <ele>108.5</ele>
        <time>2026-03-30T13:59:00.000Z</time>
      </trkpt>
      <trkpt lat="49.49457" lon="-1.58706">
        <ele>108.3</ele>
        <time>2026-03-30T13:59:01.000Z</time>
      </trkpt>
      <trkpt lat="49.49456" lon="-1.58707">
        <ele>108.2</ele>
        <time>2026-03-30T13:59:02.000Z</time>
      </trkpt>
      <trkpt lat="49.49455" lon="-1.58708">
        <ele>109</ele>
        <time>2026-03-30T13:59:03.000Z</time>
      </trkpt>
      <trkpt lat="49.49454" lon="-1.5871">
        <ele>109.6</ele>
        <time>2026-03-30T13:59:04.000Z</time>
      </trkpt>
      <trkpt lat="49.49453" lon="-1.58711">
        <ele>109.8</ele>
        <time>2026-03-30T13:59:05.000Z</time>
      </trkpt>
      <trkpt lat="49.49452" lon="-1.58713">
        <ele>110.9</ele>
        <time>2026-03-30T13:59:06.000Z</time>
      </trkpt>
      <trkpt lat="49.49451" lon="-1.58714">
        <ele>111.1</ele>
        <time>2026-03-30T13:59:07.000Z</time>
      </trkpt>
      <trkpt lat="49.4945" lon="-1.58715">
        <ele>110.8</ele>
        <time>2026-03-30T13:59:08.000Z</time>
      </trkpt>
      <trkpt lat="49.49448" lon="-1.58716">
        <ele>111.3</ele>
        <time>2026-03-30T13:59:09.000Z</time>
      </trkpt>
      <trkpt lat="49.49447" lon="-1.58716">
        <ele>110.5</ele>
        <time>2026-03-30T13:59:10.000Z</time>
      </trkpt>
      <trkpt lat="49.49446" lon="-1.58717">
        <ele>111.1</ele>
        <time>2026-03-30T13:59:11.000Z</time>
      </trkpt>
      <trkpt lat="49.49444" lon="-1.58719">
        <ele>109.8</ele>
        <time>2026-03-30T13:59:12.000Z</time>
      </trkpt>
      <trkpt lat="49.49443" lon="-1.58721">
        <ele>109.5</ele>
        <time>2026-03-30T13:59:13.000Z</time>
      </trkpt>
      <trkpt lat="49.49443" lon="-1.58722">
        <ele>109.4</ele>
        <time>2026-03-30T13:59:14.000Z</time>
      </trkpt>
      <trkpt lat="49.49442" lon="-1.58724">
        <ele>108.9</ele>
        <time>2026-03-30T13:59:15.000Z</time>
      </trkpt>
      <trkpt lat="49.49441" lon="-1.58725">
        <ele>108.8</ele>
        <time>2026-03-30T13:59:16.000Z</time>
      </trkpt>
      <trkpt lat="49.4944" lon="-1.58727">
        <ele>108.6</ele>
        <time>2026-03-30T13:59:17.000Z</time>
      </trkpt>
      <trkpt lat="49.49438" lon="-1.58728">
        <ele>108.5</ele>
        <time>2026-03-30T13:59:18.000Z</time>
      </trkpt>
      <trkpt lat="49.49437" lon="-1.58729">
        <ele>108.6</ele>
        <time>2026-03-30T13:59:19.000Z</time>
      </trkpt>
      <trkpt lat="49.49436" lon="-1.5873">
        <ele>109.5</ele>
        <time>2026-03-30T13:59:20.000Z</time>
      </trkpt>
      <trkpt lat="49.49435" lon="-1.58731">
        <ele>110.3</ele>
        <time>2026-03-30T13:59:21.000Z</time>
      </trkpt>
      <trkpt lat="49.49434" lon="-1.58732">
        <ele>111.2</ele>
        <time>2026-03-30T13:59:22.000Z</time>
      </trkpt>
      <trkpt lat="49.49433" lon="-1.58734">
        <ele>110.7</ele>
        <time>2026-03-30T13:59:23.000Z</time>
      </trkpt>
      <trkpt lat="49.49432" lon="-1.58735">
        <ele>110.5</ele>
        <time>2026-03-30T13:59:24.000Z</time>
      </trkpt>
      <trkpt lat="49.49431" lon="-1.58736">
        <ele>108.8</ele>
        <time>2026-03-30T13:59:25.000Z</time>
      </trkpt>
      <trkpt lat="49.4943" lon="-1.58737">
        <ele>108.6</ele>
        <time>2026-03-30T13:59:26.000Z</time>
      </trkpt>
      <trkpt lat="49.49428" lon="-1.58738">
        <ele>107.9</ele>
        <time>2026-03-30T13:59:27.000Z</time>
      </trkpt>
      <trkpt lat="49.49427" lon="-1.5874">
        <ele>108.3</ele>
        <time>2026-03-30T13:59:28.000Z</time>
      </trkpt>
      <trkpt lat="49.49426" lon="-1.58741">
        <ele>108.9</ele>
        <time>2026-03-30T13:59:29.000Z</time>
      </trkpt>
      <trkpt lat="49.49425" lon="-1.58742">
        <ele>108.7</ele>
        <time>2026-03-30T13:59:30.000Z</time>
      </trkpt>
      <trkpt lat="49.49424" lon="-1.58744">
        <ele>108.7</ele>
        <time>2026-03-30T13:59:31.000Z</time>
      </trkpt>
      <trkpt lat="49.49423" lon="-1.58745">
        <ele>109.2</ele>
        <time>2026-03-30T13:59:32.000Z</time>
      </trkpt>
      <trkpt lat="49.49422" lon="-1.58747">
        <ele>110</ele>
        <time>2026-03-30T13:59:33.000Z</time>
      </trkpt>
      <trkpt lat="49.4942" lon="-1.58749">
        <ele>109.6</ele>
        <time>2026-03-30T13:59:34.000Z</time>
      </trkpt>
      <trkpt lat="49.49419" lon="-1.58751">
        <ele>109.7</ele>
        <time>2026-03-30T13:59:35.000Z</time>
      </trkpt>
      <trkpt lat="49.49418" lon="-1.58753">
        <ele>111.2</ele>
        <time>2026-03-30T13:59:36.000Z</time>
      </trkpt>
      <trkpt lat="49.49417" lon="-1.58755">
        <ele>109.7</ele>
        <time>2026-03-30T13:59:37.000Z</time>
      </trkpt>
      <trkpt lat="49.49416" lon="-1.58756">
        <ele>110</ele>
        <time>2026-03-30T13:59:38.000Z</time>
      </trkpt>
      <trkpt lat="49.49415" lon="-1.58757">
        <ele>110.3</ele>
        <time>2026-03-30T13:59:39.000Z</time>
      </trkpt>
      <trkpt lat="49.49414" lon="-1.58759">
        <ele>109.9</ele>
        <time>2026-03-30T13:59:40.000Z</time>
      </trkpt>
      <trkpt lat="49.49413" lon="-1.5876">
        <ele>110.5</ele>
        <time>2026-03-30T13:59:41.000Z</time>
      </trkpt>
      <trkpt lat="49.49412" lon="-1.58761">
        <ele>110.9</ele>
        <time>2026-03-30T13:59:42.000Z</time>
      </trkpt>
      <trkpt lat="49.49411" lon="-1.58763">
        <ele>111.4</ele>
        <time>2026-03-30T13:59:43.000Z</time>
      </trkpt>
      <trkpt lat="49.4941" lon="-1.58764">
        <ele>111.3</ele>
        <time>2026-03-30T13:59:44.000Z</time>
      </trkpt>
      <trkpt lat="49.49409" lon="-1.58766">
        <ele>110.5</ele>
        <time>2026-03-30T13:59:45.000Z</time>
      </trkpt>
      <trkpt lat="49.49408" lon="-1.58768">
        <ele>110.4</ele>
        <time>2026-03-30T13:59:46.000Z</time>
      </trkpt>
      <trkpt lat="49.49407" lon="-1.5877">
        <ele>110.7</ele>
        <time>2026-03-30T13:59:47.000Z</time>
      </trkpt>
      <trkpt lat="49.49406" lon="-1.58772">
        <ele>111.5</ele>
        <time>2026-03-30T13:59:48.000Z</time>
      </trkpt>
      <trkpt lat="49.49406" lon="-1.58773">
        <ele>111.9</ele>
        <time>2026-03-30T13:59:49.000Z</time>
      </trkpt>
      <trkpt lat="49.49405" lon="-1.58775">
        <ele>112.2</ele>
        <time>2026-03-30T13:59:50.000Z</time>
      </trkpt>
      <trkpt lat="49.49404" lon="-1.58777">
        <ele>112</ele>
        <time>2026-03-30T13:59:51.000Z</time>
      </trkpt>
      <trkpt lat="49.49403" lon="-1.58778">
        <ele>112</ele>
        <time>2026-03-30T13:59:52.000Z</time>
      </trkpt>
      <trkpt lat="49.49402" lon="-1.5878">
        <ele>111.2</ele>
        <time>2026-03-30T13:59:53.000Z</time>
      </trkpt>
      <trkpt lat="49.49401" lon="-1.58782">
        <ele>110.9</ele>
        <time>2026-03-30T13:59:54.000Z</time>
      </trkpt>
      <trkpt lat="49.494" lon="-1.58784">
        <ele>111.2</ele>
        <time>2026-03-30T13:59:55.000Z</time>
      </trkpt>
      <trkpt lat="49.49399" lon="-1.58785">
        <ele>111</ele>
        <time>2026-03-30T13:59:56.000Z</time>
      </trkpt>
      <trkpt lat="49.49398" lon="-1.58787">
        <ele>111.1</ele>
        <time>2026-03-30T13:59:57.000Z</time>
      </trkpt>
      <trkpt lat="49.49398" lon="-1.58789">
        <ele>111.1</ele>
        <time>2026-03-30T13:59:58.000Z</time>
      </trkpt>
      <trkpt lat="49.49397" lon="-1.58791">
        <ele>111.3</ele>
        <time>2026-03-30T13:59:59.000Z</time>
      </trkpt>
      <trkpt lat="49.49396" lon="-1.58793">
        <ele>111.1</ele>
        <time>2026-03-30T14:00:00.000Z</time>
      </trkpt>
      <trkpt lat="49.49395" lon="-1.58795">
        <ele>110.8</ele>
        <time>2026-03-30T14:00:01.000Z</time>
      </trkpt>
      <trkpt lat="49.49394" lon="-1.58796">
        <ele>110.6</ele>
        <time>2026-03-30T14:00:02.000Z</time>
      </trkpt>
      <trkpt lat="49.49393" lon="-1.58798">
        <ele>110.2</ele>
        <time>2026-03-30T14:00:03.000Z</time>
      </trkpt>
      <trkpt lat="49.49393" lon="-1.588">
        <ele>111.1</ele>
        <time>2026-03-30T14:00:04.000Z</time>
      </trkpt>
      <trkpt lat="49.49392" lon="-1.58802">
        <ele>112.1</ele>
        <time>2026-03-30T14:00:05.000Z</time>
      </trkpt>
      <trkpt lat="49.49392" lon="-1.58804">
        <ele>112.3</ele>
        <time>2026-03-30T14:00:06.000Z</time>
      </trkpt>
      <trkpt lat="49.49391" lon="-1.58805">
        <ele>112.7</ele>
        <time>2026-03-30T14:00:07.000Z</time>
      </trkpt>
      <trkpt lat="49.4939" lon="-1.58807">
        <ele>113</ele>
        <time>2026-03-30T14:00:08.000Z</time>
      </trkpt>
      <trkpt lat="49.49389" lon="-1.58809">
        <ele>112.6</ele>
        <time>2026-03-30T14:00:09.000Z</time>
      </trkpt>
      <trkpt lat="49.49389" lon="-1.58812">
        <ele>112.7</ele>
        <time>2026-03-30T14:00:10.000Z</time>
      </trkpt>
      <trkpt lat="49.49388" lon="-1.58814">
        <ele>113.1</ele>
        <time>2026-03-30T14:00:11.000Z</time>
      </trkpt>
      <trkpt lat="49.49388" lon="-1.58816">
        <ele>113.3</ele>
        <time>2026-03-30T14:00:12.000Z</time>
      </trkpt>
      <trkpt lat="49.49387" lon="-1.58819">
        <ele>113.9</ele>
        <time>2026-03-30T14:00:13.000Z</time>
      </trkpt>
      <trkpt lat="49.49386" lon="-1.5882">
        <ele>114</ele>
        <time>2026-03-30T14:00:14.000Z</time>
      </trkpt>
      <trkpt lat="49.49386" lon="-1.58822">
        <ele>113.8</ele>
        <time>2026-03-30T14:00:15.000Z</time>
      </trkpt>
      <trkpt lat="49.49386" lon="-1.58825">
        <ele>113</ele>
        <time>2026-03-30T14:00:16.000Z</time>
      </trkpt>
      <trkpt lat="49.49386" lon="-1.58826">
        <ele>113.3</ele>
        <time>2026-03-30T14:00:17.000Z</time>
      </trkpt>
      <trkpt lat="49.49386" lon="-1.58828">
        <ele>113.5</ele>
        <time>2026-03-30T14:00:18.000Z</time>
      </trkpt>
      <trkpt lat="49.49385" lon="-1.5883">
        <ele>113.2</ele>
        <time>2026-03-30T14:00:19.000Z</time>
      </trkpt>
      <trkpt lat="49.49385" lon="-1.58831">
        <ele>112.4</ele>
        <time>2026-03-30T14:00:20.000Z</time>
      </trkpt>
      <trkpt lat="49.49384" lon="-1.58833">
        <ele>112.2</ele>
        <time>2026-03-30T14:00:21.000Z</time>
      </trkpt>
      <trkpt lat="49.49384" lon="-1.58835">
        <ele>113</ele>
        <time>2026-03-30T14:00:22.000Z</time>
      </trkpt>
      <trkpt lat="49.49383" lon="-1.58837">
        <ele>112.1</ele>
        <time>2026-03-30T14:00:23.000Z</time>
      </trkpt>
      <trkpt lat="49.49382" lon="-1.58839">
        <ele>112.8</ele>
        <time>2026-03-30T14:00:24.000Z</time>
      </trkpt>
      <trkpt lat="49.49382" lon="-1.58841">
        <ele>113.4</ele>
        <time>2026-03-30T14:00:25.000Z</time>
      </trkpt>
      <trkpt lat="49.49382" lon="-1.58843">
        <ele>113.3</ele>
        <time>2026-03-30T14:00:26.000Z</time>
      </trkpt>
      <trkpt lat="49.49381" lon="-1.58845">
        <ele>112.7</ele>
        <time>2026-03-30T14:00:27.000Z</time>
      </trkpt>
      <trkpt lat="49.49381" lon="-1.58847">
        <ele>112.7</ele>
        <time>2026-03-30T14:00:28.000Z</time>
      </trkpt>
      <trkpt lat="49.4938" lon="-1.58849">
        <ele>112.9</ele>
        <time>2026-03-30T14:00:29.000Z</time>
      </trkpt>
      <trkpt lat="49.4938" lon="-1.58851">
        <ele>113.4</ele>
        <time>2026-03-30T14:00:30.000Z</time>
      </trkpt>
      <trkpt lat="49.49379" lon="-1.58852">
        <ele>113.1</ele>
        <time>2026-03-30T14:00:31.000Z</time>
      </trkpt>
      <trkpt lat="49.49378" lon="-1.58854">
        <ele>113.9</ele>
        <time>2026-03-30T14:00:32.000Z</time>
      </trkpt>
      <trkpt lat="49.49378" lon="-1.58856">
        <ele>114.2</ele>
        <time>2026-03-30T14:00:33.000Z</time>
      </trkpt>
      <trkpt lat="49.49378" lon="-1.58858">
        <ele>114.8</ele>
        <time>2026-03-30T14:00:34.000Z</time>
      </trkpt>
      <trkpt lat="49.49378" lon="-1.58861">
        <ele>114.6</ele>
        <time>2026-03-30T14:00:35.000Z</time>
      </trkpt>
      <trkpt lat="49.49378" lon="-1.58863">
        <ele>114.1</ele>
        <time>2026-03-30T14:00:36.000Z</time>
      </trkpt>
      <trkpt lat="49.49379" lon="-1.58865">
        <ele>115.4</ele>
        <time>2026-03-30T14:00:37.000Z</time>
      </trkpt>
      <trkpt lat="49.4938" lon="-1.58867">
        <ele>114.6</ele>
        <time>2026-03-30T14:00:38.000Z</time>
      </trkpt>
      <trkpt lat="49.4938" lon="-1.58869">
        <ele>114.1</ele>
        <time>2026-03-30T14:00:39.000Z</time>
      </trkpt>
      <trkpt lat="49.4938" lon="-1.58871">
        <ele>112.9</ele>
        <time>2026-03-30T14:00:40.000Z</time>
      </trkpt>
      <trkpt lat="49.49381" lon="-1.58873">
        <ele>113.8</ele>
        <time>2026-03-30T14:00:41.000Z</time>
      </trkpt>
      <trkpt lat="49.49382" lon="-1.58875">
        <ele>113.1</ele>
        <time>2026-03-30T14:00:42.000Z</time>
      </trkpt>
      <trkpt lat="49.49383" lon="-1.58876">
        <ele>112.6</ele>
        <time>2026-03-30T14:00:43.000Z</time>
      </trkpt>
      <trkpt lat="49.49384" lon="-1.58878">
        <ele>112.4</ele>
        <time>2026-03-30T14:00:44.000Z</time>
      </trkpt>
      <trkpt lat="49.49385" lon="-1.58879">
        <ele>112.6</ele>
        <time>2026-03-30T14:00:45.000Z</time>
      </trkpt>
      <trkpt lat="49.49386" lon="-1.5888">
        <ele>112.3</ele>
        <time>2026-03-30T14:00:46.000Z</time>
      </trkpt>
      <trkpt lat="49.49387" lon="-1.58882">
        <ele>113</ele>
        <time>2026-03-30T14:00:47.000Z</time>
      </trkpt>
      <trkpt lat="49.49388" lon="-1.58884">
        <ele>113.1</ele>
        <time>2026-03-30T14:00:48.000Z</time>
      </trkpt>
      <trkpt lat="49.49388" lon="-1.58886">
        <ele>113</ele>
        <time>2026-03-30T14:00:49.000Z</time>
      </trkpt>
      <trkpt lat="49.49389" lon="-1.58888">
        <ele>113.1</ele>
        <time>2026-03-30T14:00:50.000Z</time>
      </trkpt>
      <trkpt lat="49.49389" lon="-1.5889">
        <ele>112.8</ele>
        <time>2026-03-30T14:00:51.000Z</time>
      </trkpt>
      <trkpt lat="49.4939" lon="-1.58892">
        <ele>112.9</ele>
        <time>2026-03-30T14:00:52.000Z</time>
      </trkpt>
      <trkpt lat="49.49391" lon="-1.58893">
        <ele>112.7</ele>
        <time>2026-03-30T14:00:53.000Z</time>
      </trkpt>
      <trkpt lat="49.49391" lon="-1.58894">
        <ele>112.9</ele>
        <time>2026-03-30T14:00:54.000Z</time>
      </trkpt>
      <trkpt lat="49.49392" lon="-1.58896">
        <ele>112.4</ele>
        <time>2026-03-30T14:00:55.000Z</time>
      </trkpt>
      <trkpt lat="49.49393" lon="-1.58897">
        <ele>112.4</ele>
        <time>2026-03-30T14:00:56.000Z</time>
      </trkpt>
      <trkpt lat="49.49394" lon="-1.58899">
        <ele>112.5</ele>
        <time>2026-03-30T14:00:57.000Z</time>
      </trkpt>
      <trkpt lat="49.49394" lon="-1.589">
        <ele>112.5</ele>
        <time>2026-03-30T14:00:58.000Z</time>
      </trkpt>
      <trkpt lat="49.49394" lon="-1.58902">
        <ele>113.4</ele>
        <time>2026-03-30T14:00:59.000Z</time>
      </trkpt>
      <trkpt lat="49.49395" lon="-1.58905">
        <ele>114.8</ele>
        <time>2026-03-30T14:01:00.000Z</time>
      </trkpt>
      <trkpt lat="49.49395" lon="-1.58907">
        <ele>115.7</ele>
        <time>2026-03-30T14:01:01.000Z</time>
      </trkpt>
      <trkpt lat="49.49395" lon="-1.58909">
        <ele>115.8</ele>
        <time>2026-03-30T14:01:02.000Z</time>
      </trkpt>
      <trkpt lat="49.49394" lon="-1.5891">
        <ele>116.1</ele>
        <time>2026-03-30T14:01:03.000Z</time>
      </trkpt>
      <trkpt lat="49.49393" lon="-1.58912">
        <ele>116.4</ele>
        <time>2026-03-30T14:01:04.000Z</time>
      </trkpt>
      <trkpt lat="49.49393" lon="-1.58913">
        <ele>116</ele>
        <time>2026-03-30T14:01:05.000Z</time>
      </trkpt>
      <trkpt lat="49.49392" lon="-1.58914">
        <ele>116.7</ele>
        <time>2026-03-30T14:01:06.000Z</time>
      </trkpt>
      <trkpt lat="49.49391" lon="-1.58914">
        <ele>116.7</ele>
        <time>2026-03-30T14:01:07.000Z</time>
      </trkpt>
      <trkpt lat="49.49389" lon="-1.58915">
        <ele>117.2</ele>
        <time>2026-03-30T14:01:08.000Z</time>
      </trkpt>
      <trkpt lat="49.49388" lon="-1.58916">
        <ele>117.6</ele>
        <time>2026-03-30T14:01:09.000Z</time>
      </trkpt>
      <trkpt lat="49.49387" lon="-1.58916">
        <ele>118.2</ele>
        <time>2026-03-30T14:01:10.000Z</time>
      </trkpt>
      <trkpt lat="49.49386" lon="-1.58916">
        <ele>119</ele>
        <time>2026-03-30T14:01:11.000Z</time>
      </trkpt>
      <trkpt lat="49.49384" lon="-1.58916">
        <ele>119.5</ele>
        <time>2026-03-30T14:01:12.000Z</time>
      </trkpt>
      <trkpt lat="49.49383" lon="-1.58916">
        <ele>118.5</ele>
        <time>2026-03-30T14:01:13.000Z</time>
      </trkpt>
      <trkpt lat="49.49382" lon="-1.58916">
        <ele>117.8</ele>
        <time>2026-03-30T14:01:14.000Z</time>
      </trkpt>
      <trkpt lat="49.49381" lon="-1.58917">
        <ele>117.6</ele>
        <time>2026-03-30T14:01:15.000Z</time>
      </trkpt>
      <trkpt lat="49.4938" lon="-1.58918">
        <ele>118.2</ele>
        <time>2026-03-30T14:01:16.000Z</time>
      </trkpt>
      <trkpt lat="49.49379" lon="-1.58919">
        <ele>118.7</ele>
        <time>2026-03-30T14:01:17.000Z</time>
      </trkpt>
      <trkpt lat="49.49378" lon="-1.5892">
        <ele>118</ele>
        <time>2026-03-30T14:01:18.000Z</time>
      </trkpt>
      <trkpt lat="49.49377" lon="-1.58921">
        <ele>117.9</ele>
        <time>2026-03-30T14:01:19.000Z</time>
      </trkpt>
      <trkpt lat="49.49376" lon="-1.58921">
        <ele>116.9</ele>
        <time>2026-03-30T14:01:20.000Z</time>
      </trkpt>
      <trkpt lat="49.49375" lon="-1.58921">
        <ele>117.8</ele>
        <time>2026-03-30T14:01:21.000Z</time>
      </trkpt>
      <trkpt lat="49.49374" lon="-1.58922">
        <ele>117.5</ele>
        <time>2026-03-30T14:01:22.000Z</time>
      </trkpt>
      <trkpt lat="49.49373" lon="-1.58923">
        <ele>118.4</ele>
        <time>2026-03-30T14:01:23.000Z</time>
      </trkpt>
      <trkpt lat="49.49372" lon="-1.58925">
        <ele>119</ele>
        <time>2026-03-30T14:01:24.000Z</time>
      </trkpt>
      <trkpt lat="49.49371" lon="-1.58926">
        <ele>120.1</ele>
        <time>2026-03-30T14:01:25.000Z</time>
      </trkpt>
      <trkpt lat="49.4937" lon="-1.58927">
        <ele>120.3</ele>
        <time>2026-03-30T14:01:26.000Z</time>
      </trkpt>
      <trkpt lat="49.49369" lon="-1.58929">
        <ele>122.3</ele>
        <time>2026-03-30T14:01:27.000Z</time>
      </trkpt>
      <trkpt lat="49.49367" lon="-1.58929">
        <ele>120.8</ele>
        <time>2026-03-30T14:01:28.000Z</time>
      </trkpt>
      <trkpt lat="49.49366" lon="-1.5893">
        <ele>120</ele>
        <time>2026-03-30T14:01:29.000Z</time>
      </trkpt>
      <trkpt lat="49.49365" lon="-1.5893">
        <ele>118.8</ele>
        <time>2026-03-30T14:01:30.000Z</time>
      </trkpt>
      <trkpt lat="49.49364" lon="-1.58931">
        <ele>117.6</ele>
        <time>2026-03-30T14:01:31.000Z</time>
      </trkpt>
      <trkpt lat="49.49362" lon="-1.58931">
        <ele>117.7</ele>
        <time>2026-03-30T14:01:32.000Z</time>
      </trkpt>
      <trkpt lat="49.49361" lon="-1.58932">
        <ele>117.6</ele>
        <time>2026-03-30T14:01:33.000Z</time>
      </trkpt>
      <trkpt lat="49.49359" lon="-1.58932">
        <ele>116.6</ele>
        <time>2026-03-30T14:01:34.000Z</time>
      </trkpt>
      <trkpt lat="49.49357" lon="-1.58933">
        <ele>115.8</ele>
        <time>2026-03-30T14:01:35.000Z</time>
      </trkpt>
      <trkpt lat="49.49355" lon="-1.58934">
        <ele>115.6</ele>
        <time>2026-03-30T14:01:36.000Z</time>
      </trkpt>
      <trkpt lat="49.49354" lon="-1.58934">
        <ele>115.9</ele>
        <time>2026-03-30T14:01:37.000Z</time>
      </trkpt>
      <trkpt lat="49.49352" lon="-1.58934">
        <ele>115.9</ele>
        <time>2026-03-30T14:01:38.000Z</time>
      </trkpt>
      <trkpt lat="49.49351" lon="-1.58935">
        <ele>114.8</ele>
        <time>2026-03-30T14:01:39.000Z</time>
      </trkpt>
      <trkpt lat="49.4935" lon="-1.58936">
        <ele>113.6</ele>
        <time>2026-03-30T14:01:40.000Z</time>
      </trkpt>
      <trkpt lat="49.49348" lon="-1.58936">
        <ele>113</ele>
        <time>2026-03-30T14:01:41.000Z</time>
      </trkpt>
      <trkpt lat="49.49347" lon="-1.58937">
        <ele>112.2</ele>
        <time>2026-03-30T14:01:42.000Z</time>
      </trkpt>
      <trkpt lat="49.49346" lon="-1.58937">
        <ele>112</ele>
        <time>2026-03-30T14:01:43.000Z</time>
      </trkpt>
      <trkpt lat="49.49344" lon="-1.58937">
        <ele>111.4</ele>
        <time>2026-03-30T14:01:44.000Z</time>
      </trkpt>
      <trkpt lat="49.49343" lon="-1.58938">
        <ele>111.9</ele>
        <time>2026-03-30T14:01:45.000Z</time>
      </trkpt>
      <trkpt lat="49.49342" lon="-1.58938">
        <ele>111.9</ele>
        <time>2026-03-30T14:01:46.000Z</time>
      </trkpt>
      <trkpt lat="49.4934" lon="-1.58939">
        <ele>111.7</ele>
        <time>2026-03-30T14:01:47.000Z</time>
      </trkpt>
      <trkpt lat="49.49339" lon="-1.5894">
        <ele>111.9</ele>
        <time>2026-03-30T14:01:48.000Z</time>
      </trkpt>
      <trkpt lat="49.49337" lon="-1.58941">
        <ele>112.3</ele>
        <time>2026-03-30T14:01:49.000Z</time>
      </trkpt>
      <trkpt lat="49.49335" lon="-1.58942">
        <ele>113</ele>
        <time>2026-03-30T14:01:50.000Z</time>
      </trkpt>
      <trkpt lat="49.49334" lon="-1.58943">
        <ele>113.6</ele>
        <time>2026-03-30T14:01:51.000Z</time>
      </trkpt>
      <trkpt lat="49.49332" lon="-1.58944">
        <ele>114.1</ele>
        <time>2026-03-30T14:01:52.000Z</time>
      </trkpt>
      <trkpt lat="49.49331" lon="-1.58945">
        <ele>113.6</ele>
        <time>2026-03-30T14:01:53.000Z</time>
      </trkpt>
      <trkpt lat="49.49329" lon="-1.58946">
        <ele>114.5</ele>
        <time>2026-03-30T14:01:54.000Z</time>
      </trkpt>
      <trkpt lat="49.49328" lon="-1.58946">
        <ele>114.5</ele>
        <time>2026-03-30T14:01:55.000Z</time>
      </trkpt>
      <trkpt lat="49.49326" lon="-1.58946">
        <ele>114.4</ele>
        <time>2026-03-30T14:01:56.000Z</time>
      </trkpt>
      <trkpt lat="49.49325" lon="-1.58947">
        <ele>113.8</ele>
        <time>2026-03-30T14:01:57.000Z</time>
      </trkpt>
      <trkpt lat="49.49324" lon="-1.58947">
        <ele>114.3</ele>
        <time>2026-03-30T14:01:58.000Z</time>
      </trkpt>
      <trkpt lat="49.49322" lon="-1.58948">
        <ele>114.1</ele>
        <time>2026-03-30T14:01:59.000Z</time>
      </trkpt>
      <trkpt lat="49.49321" lon="-1.58949">
        <ele>114.7</ele>
        <time>2026-03-30T14:02:00.000Z</time>
      </trkpt>
      <trkpt lat="49.4932" lon="-1.58949">
        <ele>115.3</ele>
        <time>2026-03-30T14:02:01.000Z</time>
      </trkpt>
      <trkpt lat="49.49319" lon="-1.5895">
        <ele>115.7</ele>
        <time>2026-03-30T14:02:02.000Z</time>
      </trkpt>
      <trkpt lat="49.49318" lon="-1.58951">
        <ele>115.2</ele>
        <time>2026-03-30T14:02:03.000Z</time>
      </trkpt>
      <trkpt lat="49.49317" lon="-1.58952">
        <ele>114.9</ele>
        <time>2026-03-30T14:02:04.000Z</time>
      </trkpt>
      <trkpt lat="49.49316" lon="-1.58952">
        <ele>114.4</ele>
        <time>2026-03-30T14:02:05.000Z</time>
      </trkpt>
      <trkpt lat="49.49314" lon="-1.58953">
        <ele>113.9</ele>
        <time>2026-03-30T14:02:06.000Z</time>
      </trkpt>
      <trkpt lat="49.49312" lon="-1.58953">
        <ele>113.3</ele>
        <time>2026-03-30T14:02:07.000Z</time>
      </trkpt>
      <trkpt lat="49.49311" lon="-1.58953">
        <ele>113.1</ele>
        <time>2026-03-30T14:02:08.000Z</time>
      </trkpt>
      <trkpt lat="49.4931" lon="-1.58954">
        <ele>112.7</ele>
        <time>2026-03-30T14:02:09.000Z</time>
      </trkpt>
      <trkpt lat="49.49308" lon="-1.58955">
        <ele>113.1</ele>
        <time>2026-03-30T14:02:10.000Z</time>
      </trkpt>
      <trkpt lat="49.49307" lon="-1.58955">
        <ele>112</ele>
        <time>2026-03-30T14:02:11.000Z</time>
      </trkpt>
      <trkpt lat="49.49306" lon="-1.58956">
        <ele>111.6</ele>
        <time>2026-03-30T14:02:12.000Z</time>
      </trkpt>
      <trkpt lat="49.49305" lon="-1.58956">
        <ele>111.6</ele>
        <time>2026-03-30T14:02:13.000Z</time>
      </trkpt>
      <trkpt lat="49.49303" lon="-1.58956">
        <ele>111.4</ele>
        <time>2026-03-30T14:02:14.000Z</time>
      </trkpt>
      <trkpt lat="49.49302" lon="-1.58956">
        <ele>111.2</ele>
        <time>2026-03-30T14:02:15.000Z</time>
      </trkpt>
      <trkpt lat="49.493" lon="-1.58957">
        <ele>110.8</ele>
        <time>2026-03-30T14:02:16.000Z</time>
      </trkpt>
      <trkpt lat="49.49299" lon="-1.58957">
        <ele>111</ele>
        <time>2026-03-30T14:02:17.000Z</time>
      </trkpt>
      <trkpt lat="49.49298" lon="-1.58958">
        <ele>111.2</ele>
        <time>2026-03-30T14:02:18.000Z</time>
      </trkpt>
      <trkpt lat="49.49296" lon="-1.58959">
        <ele>111.9</ele>
        <time>2026-03-30T14:02:19.000Z</time>
      </trkpt>
      <trkpt lat="49.49295" lon="-1.58959">
        <ele>112.4</ele>
        <time>2026-03-30T14:02:20.000Z</time>
      </trkpt>
      <trkpt lat="49.49293" lon="-1.5896">
        <ele>112.6</ele>
        <time>2026-03-30T14:02:21.000Z</time>
      </trkpt>
      <trkpt lat="49.49292" lon="-1.58961">
        <ele>112.6</ele>
        <time>2026-03-30T14:02:22.000Z</time>
      </trkpt>
      <trkpt lat="49.4929" lon="-1.58961">
        <ele>112.6</ele>
        <time>2026-03-30T14:02:23.000Z</time>
      </trkpt>
      <trkpt lat="49.49288" lon="-1.58962">
        <ele>112.2</ele>
        <time>2026-03-30T14:02:24.000Z</time>
      </trkpt>
      <trkpt lat="49.49287" lon="-1.58962">
        <ele>112.1</ele>
        <time>2026-03-30T14:02:25.000Z</time>
      </trkpt>
      <trkpt lat="49.49285" lon="-1.58962">
        <ele>111.4</ele>
        <time>2026-03-30T14:02:26.000Z</time>
      </trkpt>
      <trkpt lat="49.49284" lon="-1.58963">
        <ele>111</ele>
        <time>2026-03-30T14:02:27.000Z</time>
      </trkpt>
      <trkpt lat="49.49282" lon="-1.58963">
        <ele>110.9</ele>
        <time>2026-03-30T14:02:28.000Z</time>
      </trkpt>
      <trkpt lat="49.4928" lon="-1.58964">
        <ele>110.9</ele>
        <time>2026-03-30T14:02:29.000Z</time>
      </trkpt>
      <trkpt lat="49.49278" lon="-1.58965">
        <ele>110.8</ele>
        <time>2026-03-30T14:02:30.000Z</time>
      </trkpt>
      <trkpt lat="49.49277" lon="-1.58966">
        <ele>112.3</ele>
        <time>2026-03-30T14:02:31.000Z</time>
      </trkpt>
      <trkpt lat="49.49276" lon="-1.58967">
        <ele>112.3</ele>
        <time>2026-03-30T14:02:32.000Z</time>
      </trkpt>
      <trkpt lat="49.49274" lon="-1.58967">
        <ele>112.1</ele>
        <time>2026-03-30T14:02:33.000Z</time>
      </trkpt>
      <trkpt lat="49.49273" lon="-1.58968">
        <ele>112.4</ele>
        <time>2026-03-30T14:02:34.000Z</time>
      </trkpt>
      <trkpt lat="49.49272" lon="-1.58969">
        <ele>112.6</ele>
        <time>2026-03-30T14:02:35.000Z</time>
      </trkpt>
      <trkpt lat="49.49271" lon="-1.5897">
        <ele>112.2</ele>
        <time>2026-03-30T14:02:36.000Z</time>
      </trkpt>
      <trkpt lat="49.4927" lon="-1.58971">
        <ele>111.9</ele>
        <time>2026-03-30T14:02:37.000Z</time>
      </trkpt>
      <trkpt lat="49.49268" lon="-1.58971">
        <ele>111.5</ele>
        <time>2026-03-30T14:02:38.000Z</time>
      </trkpt>
      <trkpt lat="49.49267" lon="-1.58971">
        <ele>110.9</ele>
        <time>2026-03-30T14:02:39.000Z</time>
      </trkpt>
      <trkpt lat="49.49266" lon="-1.5897">
        <ele>110.9</ele>
        <time>2026-03-30T14:02:40.000Z</time>
      </trkpt>
      <trkpt lat="49.49264" lon="-1.5897">
        <ele>111.4</ele>
        <time>2026-03-30T14:02:41.000Z</time>
      </trkpt>
      <trkpt lat="49.49263" lon="-1.58971">
        <ele>111.3</ele>
        <time>2026-03-30T14:02:42.000Z</time>
      </trkpt>
      <trkpt lat="49.49262" lon="-1.58972">
        <ele>110.9</ele>
        <time>2026-03-30T14:02:43.000Z</time>
      </trkpt>
      <trkpt lat="49.49261" lon="-1.58972">
        <ele>110.7</ele>
        <time>2026-03-30T14:02:44.000Z</time>
      </trkpt>
      <trkpt lat="49.4926" lon="-1.58973">
        <ele>110.9</ele>
        <time>2026-03-30T14:02:45.000Z</time>
      </trkpt>
      <trkpt lat="49.49258" lon="-1.58973">
        <ele>111.8</ele>
        <time>2026-03-30T14:02:46.000Z</time>
      </trkpt>
      <trkpt lat="49.49257" lon="-1.58974">
        <ele>112.2</ele>
        <time>2026-03-30T14:02:47.000Z</time>
      </trkpt>
      <trkpt lat="49.49256" lon="-1.58975">
        <ele>112.5</ele>
        <time>2026-03-30T14:02:48.000Z</time>
      </trkpt>
      <trkpt lat="49.49254" lon="-1.58976">
        <ele>112.8</ele>
        <time>2026-03-30T14:02:49.000Z</time>
      </trkpt>
      <trkpt lat="49.49253" lon="-1.58977">
        <ele>112.8</ele>
        <time>2026-03-30T14:02:50.000Z</time>
      </trkpt>
      <trkpt lat="49.49252" lon="-1.58978">
        <ele>112.1</ele>
        <time>2026-03-30T14:02:51.000Z</time>
      </trkpt>
      <trkpt lat="49.4925" lon="-1.58978">
        <ele>111.8</ele>
        <time>2026-03-30T14:02:52.000Z</time>
      </trkpt>
      <trkpt lat="49.49249" lon="-1.58978">
        <ele>111.1</ele>
        <time>2026-03-30T14:02:53.000Z</time>
      </trkpt>
      <trkpt lat="49.49247" lon="-1.58979">
        <ele>110.4</ele>
        <time>2026-03-30T14:02:54.000Z</time>
      </trkpt>
      <trkpt lat="49.49246" lon="-1.58979">
        <ele>109.5</ele>
        <time>2026-03-30T14:02:55.000Z</time>
      </trkpt>
      <trkpt lat="49.49244" lon="-1.58979">
        <ele>108.6</ele>
        <time>2026-03-30T14:02:56.000Z</time>
      </trkpt>
      <trkpt lat="49.49243" lon="-1.5898">
        <ele>107.7</ele>
        <time>2026-03-30T14:02:57.000Z</time>
      </trkpt>
      <trkpt lat="49.49241" lon="-1.5898">
        <ele>107.4</ele>
        <time>2026-03-30T14:02:58.000Z</time>
      </trkpt>
      <trkpt lat="49.4924" lon="-1.58981">
        <ele>107.4</ele>
        <time>2026-03-30T14:02:59.000Z</time>
      </trkpt>
      <trkpt lat="49.49238" lon="-1.58982">
        <ele>108.7</ele>
        <time>2026-03-30T14:03:00.000Z</time>
      </trkpt>
      <trkpt lat="49.49237" lon="-1.58983">
        <ele>110.5</ele>
        <time>2026-03-30T14:03:01.000Z</time>
      </trkpt>
      <trkpt lat="49.49236" lon="-1.58984">
        <ele>111.4</ele>
        <time>2026-03-30T14:03:02.000Z</time>
      </trkpt>
      <trkpt lat="49.49234" lon="-1.58985">
        <ele>111.5</ele>
        <time>2026-03-30T14:03:03.000Z</time>
      </trkpt>
      <trkpt lat="49.49233" lon="-1.58986">
        <ele>111.1</ele>
        <time>2026-03-30T14:03:04.000Z</time>
      </trkpt>
      <trkpt lat="49.49232" lon="-1.58987">
        <ele>111.2</ele>
        <time>2026-03-30T14:03:05.000Z</time>
      </trkpt>
      <trkpt lat="49.4923" lon="-1.58988">
        <ele>111.2</ele>
        <time>2026-03-30T14:03:06.000Z</time>
      </trkpt>
      <trkpt lat="49.49229" lon="-1.58989">
        <ele>111.6</ele>
        <time>2026-03-30T14:03:07.000Z</time>
      </trkpt>
      <trkpt lat="49.49228" lon="-1.58989">
        <ele>110.7</ele>
        <time>2026-03-30T14:03:08.000Z</time>
      </trkpt>
      <trkpt lat="49.49226" lon="-1.5899">
        <ele>113.3</ele>
        <time>2026-03-30T14:03:09.000Z</time>
      </trkpt>
      <trkpt lat="49.49224" lon="-1.58991">
        <ele>113.7</ele>
        <time>2026-03-30T14:03:10.000Z</time>
      </trkpt>
      <trkpt lat="49.49223" lon="-1.58992">
        <ele>113.6</ele>
        <time>2026-03-30T14:03:11.000Z</time>
      </trkpt>
      <trkpt lat="49.49222" lon="-1.58992">
        <ele>113.5</ele>
        <time>2026-03-30T14:03:12.000Z</time>
      </trkpt>
      <trkpt lat="49.4922" lon="-1.58993">
        <ele>113.4</ele>
        <time>2026-03-30T14:03:13.000Z</time>
      </trkpt>
      <trkpt lat="49.49219" lon="-1.58993">
        <ele>113.8</ele>
        <time>2026-03-30T14:03:14.000Z</time>
      </trkpt>
      <trkpt lat="49.49218" lon="-1.58993">
        <ele>114.1</ele>
        <time>2026-03-30T14:03:15.000Z</time>
      </trkpt>
      <trkpt lat="49.49216" lon="-1.58993">
        <ele>113.9</ele>
        <time>2026-03-30T14:03:16.000Z</time>
      </trkpt>
      <trkpt lat="49.49215" lon="-1.58993">
        <ele>114.6</ele>
        <time>2026-03-30T14:03:17.000Z</time>
      </trkpt>
      <trkpt lat="49.49214" lon="-1.58994">
        <ele>115.5</ele>
        <time>2026-03-30T14:03:18.000Z</time>
      </trkpt>
      <trkpt lat="49.49212" lon="-1.58994">
        <ele>115</ele>
        <time>2026-03-30T14:03:19.000Z</time>
      </trkpt>
      <trkpt lat="49.49211" lon="-1.58995">
        <ele>115.4</ele>
        <time>2026-03-30T14:03:20.000Z</time>
      </trkpt>
      <trkpt lat="49.49209" lon="-1.58996">
        <ele>115.6</ele>
        <time>2026-03-30T14:03:21.000Z</time>
      </trkpt>
      <trkpt lat="49.49208" lon="-1.58996">
        <ele>116.6</ele>
        <time>2026-03-30T14:03:22.000Z</time>
      </trkpt>
      <trkpt lat="49.49207" lon="-1.58996">
        <ele>117.1</ele>
        <time>2026-03-30T14:03:23.000Z</time>
      </trkpt>
      <trkpt lat="49.49205" lon="-1.58996">
        <ele>117.3</ele>
        <time>2026-03-30T14:03:24.000Z</time>
      </trkpt>
      <trkpt lat="49.49204" lon="-1.58996">
        <ele>117.6</ele>
        <time>2026-03-30T14:03:25.000Z</time>
      </trkpt>
      <trkpt lat="49.49202" lon="-1.58997">
        <ele>118.1</ele>
        <time>2026-03-30T14:03:26.000Z</time>
      </trkpt>
      <trkpt lat="49.49201" lon="-1.58997">
        <ele>117.7</ele>
        <time>2026-03-30T14:03:27.000Z</time>
      </trkpt>
      <trkpt lat="49.49199" lon="-1.58997">
        <ele>116.5</ele>
        <time>2026-03-30T14:03:28.000Z</time>
      </trkpt>
      <trkpt lat="49.49198" lon="-1.58997">
        <ele>115.3</ele>
        <time>2026-03-30T14:03:29.000Z</time>
      </trkpt>
      <trkpt lat="49.49196" lon="-1.58996">
        <ele>115.5</ele>
        <time>2026-03-30T14:03:30.000Z</time>
      </trkpt>
      <trkpt lat="49.49195" lon="-1.58997">
        <ele>114.9</ele>
        <time>2026-03-30T14:03:31.000Z</time>
      </trkpt>
      <trkpt lat="49.49193" lon="-1.58997">
        <ele>116</ele>
        <time>2026-03-30T14:03:32.000Z</time>
      </trkpt>
      <trkpt lat="49.49192" lon="-1.58997">
        <ele>117.3</ele>
        <time>2026-03-30T14:03:33.000Z</time>
      </trkpt>
      <trkpt lat="49.49191" lon="-1.58998">
        <ele>116.2</ele>
        <time>2026-03-30T14:03:34.000Z</time>
      </trkpt>
      <trkpt lat="49.49189" lon="-1.58997">
        <ele>117</ele>
        <time>2026-03-30T14:03:35.000Z</time>
      </trkpt>
      <trkpt lat="49.49188" lon="-1.58998">
        <ele>116.4</ele>
        <time>2026-03-30T14:03:36.000Z</time>
      </trkpt>
      <trkpt lat="49.49187" lon="-1.58998">
        <ele>114.8</ele>
        <time>2026-03-30T14:03:37.000Z</time>
      </trkpt>
      <trkpt lat="49.49185" lon="-1.58999">
        <ele>113.8</ele>
        <time>2026-03-30T14:03:38.000Z</time>
      </trkpt>
      <trkpt lat="49.49184" lon="-1.58999">
        <ele>113.3</ele>
        <time>2026-03-30T14:03:39.000Z</time>
      </trkpt>
      <trkpt lat="49.49183" lon="-1.58999">
        <ele>113.1</ele>
        <time>2026-03-30T14:03:40.000Z</time>
      </trkpt>
      <trkpt lat="49.49182" lon="-1.58999">
        <ele>112.7</ele>
        <time>2026-03-30T14:03:41.000Z</time>
      </trkpt>
      <trkpt lat="49.4918" lon="-1.58999">
        <ele>112.4</ele>
        <time>2026-03-30T14:03:42.000Z</time>
      </trkpt>
      <trkpt lat="49.4918" lon="-1.59002">
        <ele>111.7</ele>
        <time>2026-03-30T14:03:43.000Z</time>
      </trkpt>
      <trkpt lat="49.4918" lon="-1.59003">
        <ele>109.6</ele>
        <time>2026-03-30T14:03:44.000Z</time>
      </trkpt>
      <trkpt lat="49.49179" lon="-1.59004">
        <ele>108.7</ele>
        <time>2026-03-30T14:03:45.000Z</time>
      </trkpt>
      <trkpt lat="49.49179" lon="-1.59006">
        <ele>108.9</ele>
        <time>2026-03-30T14:03:46.000Z</time>
      </trkpt>
      <trkpt lat="49.49179" lon="-1.59007">
        <ele>107.2</ele>
        <time>2026-03-30T14:03:47.000Z</time>
      </trkpt>
      <trkpt lat="49.49179" lon="-1.59009">
        <ele>107.2</ele>
        <time>2026-03-30T14:03:48.000Z</time>
      </trkpt>
      <trkpt lat="49.49178" lon="-1.5901">
        <ele>107.9</ele>
        <time>2026-03-30T14:03:49.000Z</time>
      </trkpt>
      <trkpt lat="49.49177" lon="-1.5901">
        <ele>108.2</ele>
        <time>2026-03-30T14:03:50.000Z</time>
      </trkpt>
      <trkpt lat="49.49177" lon="-1.5901">
        <ele>108.7</ele>
        <time>2026-03-30T14:03:51.000Z</time>
      </trkpt>
      <trkpt lat="49.49177" lon="-1.59011">
        <ele>109.3</ele>
        <time>2026-03-30T14:03:52.000Z</time>
      </trkpt>
      <trkpt lat="49.49176" lon="-1.59011">
        <ele>108.9</ele>
        <time>2026-03-30T14:03:53.000Z</time>
      </trkpt>
      <trkpt lat="49.49176" lon="-1.59012">
        <ele>108.1</ele>
        <time>2026-03-30T14:03:54.000Z</time>
      </trkpt>
      <trkpt lat="49.49176" lon="-1.59013">
        <ele>107.8</ele>
        <time>2026-03-30T14:03:55.000Z</time>
      </trkpt>
      <trkpt lat="49.49175" lon="-1.59014">
        <ele>107.4</ele>
        <time>2026-03-30T14:03:56.000Z</time>
      </trkpt>
      <trkpt lat="49.49175" lon="-1.59015">
        <ele>108.8</ele>
        <time>2026-03-30T14:03:57.000Z</time>
      </trkpt>
      <trkpt lat="49.49176" lon="-1.59016">
        <ele>108.8</ele>
        <time>2026-03-30T14:03:58.000Z</time>
      </trkpt>
      <trkpt lat="49.49177" lon="-1.59017">
        <ele>108.8</ele>
        <time>2026-03-30T14:03:59.000Z</time>
      </trkpt>
      <trkpt lat="49.49177" lon="-1.59018">
        <ele>109.6</ele>
        <time>2026-03-30T14:04:00.000Z</time>
      </trkpt>
      <trkpt lat="49.49178" lon="-1.59019">
        <ele>109.4</ele>
        <time>2026-03-30T14:04:01.000Z</time>
      </trkpt>
      <trkpt lat="49.49179" lon="-1.5902">
        <ele>109.3</ele>
        <time>2026-03-30T14:04:02.000Z</time>
      </trkpt>
      <trkpt lat="49.4918" lon="-1.5902">
        <ele>110.2</ele>
        <time>2026-03-30T14:04:03.000Z</time>
      </trkpt>
      <trkpt lat="49.49182" lon="-1.59021">
        <ele>110.4</ele>
        <time>2026-03-30T14:04:04.000Z</time>
      </trkpt>
      <trkpt lat="49.49183" lon="-1.5902">
        <ele>111.6</ele>
        <time>2026-03-30T14:04:05.000Z</time>
      </trkpt>
      <trkpt lat="49.49184" lon="-1.59021">
        <ele>112</ele>
        <time>2026-03-30T14:04:06.000Z</time>
      </trkpt>
      <trkpt lat="49.49185" lon="-1.59021">
        <ele>113.1</ele>
        <time>2026-03-30T14:04:07.000Z</time>
      </trkpt>
      <trkpt lat="49.49185" lon="-1.59022">
        <ele>112.9</ele>
        <time>2026-03-30T14:04:08.000Z</time>
      </trkpt>
      <trkpt lat="49.49186" lon="-1.59023">
        <ele>112.8</ele>
        <time>2026-03-30T14:04:09.000Z</time>
      </trkpt>
      <trkpt lat="49.49186" lon="-1.59025">
        <ele>112.3</ele>
        <time>2026-03-30T14:04:10.000Z</time>
      </trkpt>
      <trkpt lat="49.49187" lon="-1.59026">
        <ele>112.4</ele>
        <time>2026-03-30T14:04:11.000Z</time>
      </trkpt>
      <trkpt lat="49.49187" lon="-1.59027">
        <ele>111.9</ele>
        <time>2026-03-30T14:04:12.000Z</time>
      </trkpt>
      <trkpt lat="49.49187" lon="-1.59028">
        <ele>111.6</ele>
        <time>2026-03-30T14:04:13.000Z</time>
      </trkpt>
      <trkpt lat="49.49187" lon="-1.5903">
        <ele>111.5</ele>
        <time>2026-03-30T14:04:14.000Z</time>
      </trkpt>
      <trkpt lat="49.49187" lon="-1.59032">
        <ele>111.8</ele>
        <time>2026-03-30T14:04:15.000Z</time>
      </trkpt>
      <trkpt lat="49.49188" lon="-1.59034">
        <ele>112.8</ele>
        <time>2026-03-30T14:04:16.000Z</time>
      </trkpt>
      <trkpt lat="49.49188" lon="-1.59035">
        <ele>112.6</ele>
        <time>2026-03-30T14:04:17.000Z</time>
      </trkpt>
      <trkpt lat="49.49187" lon="-1.59039">
        <ele>114.1</ele>
        <time>2026-03-30T14:04:33.000Z</time>
      </trkpt>
      <trkpt lat="49.49188" lon="-1.5904">
        <ele>114.1</ele>
        <time>2026-03-30T14:04:34.000Z</time>
      </trkpt>
      <trkpt lat="49.49189" lon="-1.59041">
        <ele>114.3</ele>
        <time>2026-03-30T14:04:35.000Z</time>
      </trkpt>
      <trkpt lat="49.49189" lon="-1.59043">
        <ele>114.5</ele>
        <time>2026-03-30T14:04:36.000Z</time>
      </trkpt>
      <trkpt lat="49.49188" lon="-1.59044">
        <ele>115.3</ele>
        <time>2026-03-30T14:04:37.000Z</time>
      </trkpt>
      <trkpt lat="49.49187" lon="-1.59045">
        <ele>115.8</ele>
        <time>2026-03-30T14:04:38.000Z</time>
      </trkpt>
      <trkpt lat="49.49186" lon="-1.59045">
        <ele>115.1</ele>
        <time>2026-03-30T14:04:39.000Z</time>
      </trkpt>
      <trkpt lat="49.49186" lon="-1.59045">
        <ele>114.6</ele>
        <time>2026-03-30T14:04:40.000Z</time>
      </trkpt>
      <trkpt lat="49.49186" lon="-1.59045">
        <ele>114.5</ele>
        <time>2026-03-30T14:04:41.000Z</time>
      </trkpt>
      <trkpt lat="49.49187" lon="-1.59045">
        <ele>114.4</ele>
        <time>2026-03-30T14:04:42.000Z</time>
      </trkpt>
      <trkpt lat="49.49186" lon="-1.59045">
        <ele>114.2</ele>
        <time>2026-03-30T14:04:43.000Z</time>
      </trkpt>
      <trkpt lat="49.49185" lon="-1.59045">
        <ele>114.2</ele>
        <time>2026-03-30T14:04:44.000Z</time>
      </trkpt>
      <trkpt lat="49.49184" lon="-1.59045">
        <ele>114.1</ele>
        <time>2026-03-30T14:04:45.000Z</time>
      </trkpt>
      <trkpt lat="49.49182" lon="-1.59046">
        <ele>113.9</ele>
        <time>2026-03-30T14:04:46.000Z</time>
      </trkpt>
      <trkpt lat="49.49181" lon="-1.59047">
        <ele>114</ele>
        <time>2026-03-30T14:04:47.000Z</time>
      </trkpt>
      <trkpt lat="49.49181" lon="-1.59047">
        <ele>113.9</ele>
        <time>2026-03-30T14:04:48.000Z</time>
      </trkpt>
      <trkpt lat="49.4918" lon="-1.59048">
        <ele>115.2</ele>
        <time>2026-03-30T14:04:49.000Z</time>
      </trkpt>
      <trkpt lat="49.4918" lon="-1.59049">
        <ele>116.8</ele>
        <time>2026-03-30T14:04:50.000Z</time>
      </trkpt>
      <trkpt lat="49.49179" lon="-1.59051">
        <ele>118.5</ele>
        <time>2026-03-30T14:04:51.000Z</time>
      </trkpt>
      <trkpt lat="49.49178" lon="-1.59053">
        <ele>118.6</ele>
        <time>2026-03-30T14:04:52.000Z</time>
      </trkpt>
      <trkpt lat="49.49178" lon="-1.59055">
        <ele>119.1</ele>
        <time>2026-03-30T14:04:53.000Z</time>
      </trkpt>
      <trkpt lat="49.49178" lon="-1.59057">
        <ele>120.4</ele>
        <time>2026-03-30T14:04:54.000Z</time>
      </trkpt>
      <trkpt lat="49.49177" lon="-1.59058">
        <ele>120.3</ele>
        <time>2026-03-30T14:04:55.000Z</time>
      </trkpt>
      <trkpt lat="49.49177" lon="-1.59059">
        <ele>121.6</ele>
        <time>2026-03-30T14:04:56.000Z</time>
      </trkpt>
      <trkpt lat="49.49177" lon="-1.5906">
        <ele>121.5</ele>
        <time>2026-03-30T14:04:57.000Z</time>
      </trkpt>
      <trkpt lat="49.49177" lon="-1.5906">
        <ele>121.8</ele>
        <time>2026-03-30T14:04:58.000Z</time>
      </trkpt>
      <trkpt lat="49.49176" lon="-1.59061">
        <ele>122.3</ele>
        <time>2026-03-30T14:04:59.000Z</time>
      </trkpt>
      <trkpt lat="49.49175" lon="-1.59061">
        <ele>122</ele>
        <time>2026-03-30T14:05:00.000Z</time>
      </trkpt>
      <trkpt lat="49.49175" lon="-1.59062">
        <ele>122.4</ele>
        <time>2026-03-30T14:05:01.000Z</time>
      </trkpt>
      <trkpt lat="49.49175" lon="-1.59063">
        <ele>122.8</ele>
        <time>2026-03-30T14:05:02.000Z</time>
      </trkpt>
      <trkpt lat="49.49175" lon="-1.59064">
        <ele>123.4</ele>
        <time>2026-03-30T14:05:03.000Z</time>
      </trkpt>
      <trkpt lat="49.49175" lon="-1.59066">
        <ele>124.9</ele>
        <time>2026-03-30T14:05:04.000Z</time>
      </trkpt>
      <trkpt lat="49.49174" lon="-1.59066">
        <ele>125.5</ele>
        <time>2026-03-30T14:05:05.000Z</time>
      </trkpt>
      <trkpt lat="49.49174" lon="-1.59066">
        <ele>126.1</ele>
        <time>2026-03-30T14:05:06.000Z</time>
      </trkpt>
      <trkpt lat="49.49173" lon="-1.59065">
        <ele>126</ele>
        <time>2026-03-30T14:05:07.000Z</time>
      </trkpt>
      <trkpt lat="49.49172" lon="-1.59064">
        <ele>126.3</ele>
        <time>2026-03-30T14:05:08.000Z</time>
      </trkpt>
      <trkpt lat="49.49172" lon="-1.59064">
        <ele>126.6</ele>
        <time>2026-03-30T14:05:09.000Z</time>
      </trkpt>
      <trkpt lat="49.49172" lon="-1.59065">
        <ele>127.2</ele>
        <time>2026-03-30T14:05:10.000Z</time>
      </trkpt>
      <trkpt lat="49.49171" lon="-1.59066">
        <ele>127.8</ele>
        <time>2026-03-30T14:05:11.000Z</time>
      </trkpt>
      <trkpt lat="49.49171" lon="-1.59067">
        <ele>128</ele>
        <time>2026-03-30T14:05:12.000Z</time>
      </trkpt>
      <trkpt lat="49.4917" lon="-1.59068">
        <ele>127.8</ele>
        <time>2026-03-30T14:05:13.000Z</time>
      </trkpt>
      <trkpt lat="49.4917" lon="-1.59069">
        <ele>128.3</ele>
        <time>2026-03-30T14:05:14.000Z</time>
      </trkpt>
      <trkpt lat="49.49169" lon="-1.5907">
        <ele>127.2</ele>
        <time>2026-03-30T14:05:15.000Z</time>
      </trkpt>
      <trkpt lat="49.49169" lon="-1.5907">
        <ele>127.3</ele>
        <time>2026-03-30T14:05:16.000Z</time>
      </trkpt>
      <trkpt lat="49.49168" lon="-1.5907">
        <ele>127.3</ele>
        <time>2026-03-30T14:05:17.000Z</time>
      </trkpt>
      <trkpt lat="49.49167" lon="-1.59068">
        <ele>127.7</ele>
        <time>2026-03-30T14:05:18.000Z</time>
      </trkpt>
      <trkpt lat="49.49166" lon="-1.59067">
        <ele>127.6</ele>
        <time>2026-03-30T14:05:19.000Z</time>
      </trkpt>
      <trkpt lat="49.49166" lon="-1.59066">
        <ele>127.5</ele>
        <time>2026-03-30T14:05:20.000Z</time>
      </trkpt>
      <trkpt lat="49.49166" lon="-1.59067">
        <ele>127.2</ele>
        <time>2026-03-30T14:05:21.000Z</time>
      </trkpt>
      <trkpt lat="49.49165" lon="-1.59067">
        <ele>126.3</ele>
        <time>2026-03-30T14:05:22.000Z</time>
      </trkpt>
      <trkpt lat="49.49165" lon="-1.59067">
        <ele>128.9</ele>
        <time>2026-03-30T14:05:23.000Z</time>
      </trkpt>
      <trkpt lat="49.49164" lon="-1.59068">
        <ele>129.3</ele>
        <time>2026-03-30T14:05:24.000Z</time>
      </trkpt>
      <trkpt lat="49.49164" lon="-1.59068">
        <ele>129.6</ele>
        <time>2026-03-30T14:05:25.000Z</time>
      </trkpt>
      <trkpt lat="49.49163" lon="-1.59068">
        <ele>131.3</ele>
        <time>2026-03-30T14:05:26.000Z</time>
      </trkpt>
      <trkpt lat="49.49162" lon="-1.59068">
        <ele>131.8</ele>
        <time>2026-03-30T14:05:27.000Z</time>
      </trkpt>
      <trkpt lat="49.49161" lon="-1.59067">
        <ele>131.9</ele>
        <time>2026-03-30T14:05:28.000Z</time>
      </trkpt>
      <trkpt lat="49.4916" lon="-1.59067">
        <ele>131.4</ele>
        <time>2026-03-30T14:05:29.000Z</time>
      </trkpt>
      <trkpt lat="49.4916" lon="-1.59066">
        <ele>131.2</ele>
        <time>2026-03-30T14:05:30.000Z</time>
      </trkpt>
      <trkpt lat="49.4916" lon="-1.59065">
        <ele>131.8</ele>
        <time>2026-03-30T14:05:31.000Z</time>
      </trkpt>
      <trkpt lat="49.49159" lon="-1.59065">
        <ele>131.9</ele>
        <time>2026-03-30T14:05:32.000Z</time>
      </trkpt>
      <trkpt lat="49.49159" lon="-1.59064">
        <ele>131.6</ele>
        <time>2026-03-30T14:05:33.000Z</time>
      </trkpt>
      <trkpt lat="49.49158" lon="-1.59063">
        <ele>131.9</ele>
        <time>2026-03-30T14:05:34.000Z</time>
      </trkpt>
      <trkpt lat="49.49158" lon="-1.59062">
        <ele>131.8</ele>
        <time>2026-03-30T14:05:35.000Z</time>
      </trkpt>
      <trkpt lat="49.49157" lon="-1.59061">
        <ele>131.4</ele>
        <time>2026-03-30T14:05:36.000Z</time>
      </trkpt>
      <trkpt lat="49.49157" lon="-1.59061">
        <ele>131.2</ele>
        <time>2026-03-30T14:05:37.000Z</time>
      </trkpt>
      <trkpt lat="49.49157" lon="-1.5906">
        <ele>130.9</ele>
        <time>2026-03-30T14:05:38.000Z</time>
      </trkpt>
      <trkpt lat="49.49158" lon="-1.5906">
        <ele>130.7</ele>
        <time>2026-03-30T14:05:39.000Z</time>
      </trkpt>
      <trkpt lat="49.49158" lon="-1.5906">
        <ele>130.5</ele>
        <time>2026-03-30T14:05:40.000Z</time>
      </trkpt>
      <trkpt lat="49.49157" lon="-1.5906">
        <ele>129.5</ele>
        <time>2026-03-30T14:05:41.000Z</time>
      </trkpt>
      <trkpt lat="49.49157" lon="-1.5906">
        <ele>129.3</ele>
        <time>2026-03-30T14:05:42.000Z</time>
      </trkpt>
      <trkpt lat="49.49157" lon="-1.59061">
        <ele>127.8</ele>
        <time>2026-03-30T14:05:43.000Z</time>
      </trkpt>
      <trkpt lat="49.49157" lon="-1.59062">
        <ele>127.2</ele>
        <time>2026-03-30T14:05:44.000Z</time>
      </trkpt>
      <trkpt lat="49.49157" lon="-1.59062">
        <ele>127.1</ele>
        <time>2026-03-30T14:05:45.000Z</time>
      </trkpt>
      <trkpt lat="49.49157" lon="-1.59063">
        <ele>127.6</ele>
        <time>2026-03-30T14:05:46.000Z</time>
      </trkpt>
      <trkpt lat="49.49157" lon="-1.59064">
        <ele>128.7</ele>
        <time>2026-03-30T14:05:47.000Z</time>
      </trkpt>
      <trkpt lat="49.49157" lon="-1.59064">
        <ele>128.1</ele>
        <time>2026-03-30T14:05:48.000Z</time>
      </trkpt>
      <trkpt lat="49.49157" lon="-1.59064">
        <ele>128</ele>
        <time>2026-03-30T14:05:49.000Z</time>
      </trkpt>
      <trkpt lat="49.49156" lon="-1.59065">
        <ele>127.9</ele>
        <time>2026-03-30T14:05:50.000Z</time>
      </trkpt>
      <trkpt lat="49.49156" lon="-1.59065">
        <ele>126.9</ele>
        <time>2026-03-30T14:05:51.000Z</time>
      </trkpt>
      <trkpt lat="49.49157" lon="-1.59066">
        <ele>127.1</ele>
        <time>2026-03-30T14:05:52.000Z</time>
      </trkpt>
      <trkpt lat="49.4916" lon="-1.59061">
        <ele>126.9</ele>
        <time>2026-03-30T14:10:58.000Z</time>
      </trkpt>
      <trkpt lat="49.4916" lon="-1.5906">
        <ele>126.9</ele>
        <time>2026-03-30T14:10:59.000Z</time>
      </trkpt>
      <trkpt lat="49.4916" lon="-1.59061">
        <ele>126.9</ele>
        <time>2026-03-30T14:11:00.000Z</time>
      </trkpt>
      <trkpt lat="49.49164" lon="-1.59056">
        <ele>125.6</ele>
        <time>2026-03-30T14:11:19.000Z</time>
      </trkpt>
      <trkpt lat="49.49165" lon="-1.59056">
        <ele>124.3</ele>
        <time>2026-03-30T14:11:20.000Z</time>
      </trkpt>
      <trkpt lat="49.49166" lon="-1.59056">
        <ele>124.1</ele>
        <time>2026-03-30T14:11:21.000Z</time>
      </trkpt>
      <trkpt lat="49.49166" lon="-1.59056">
        <ele>124.4</ele>
        <time>2026-03-30T14:11:22.000Z</time>
      </trkpt>
      <trkpt lat="49.49166" lon="-1.59056">
        <ele>124.3</ele>
        <time>2026-03-30T14:11:23.000Z</time>
      </trkpt>
      <trkpt lat="49.49166" lon="-1.59056">
        <ele>124.3</ele>
        <time>2026-03-30T14:11:24.000Z</time>
      </trkpt>
      <trkpt lat="49.49167" lon="-1.59057">
        <ele>125</ele>
        <time>2026-03-30T14:11:25.000Z</time>
      </trkpt>
      <trkpt lat="49.49168" lon="-1.59057">
        <ele>125.1</ele>
        <time>2026-03-30T14:11:26.000Z</time>
      </trkpt>
      <trkpt lat="49.49168" lon="-1.59059">
        <ele>124.9</ele>
        <time>2026-03-30T14:11:27.000Z</time>
      </trkpt>
      <trkpt lat="49.49168" lon="-1.59061">
        <ele>124.9</ele>
        <time>2026-03-30T14:11:28.000Z</time>
      </trkpt>
      <trkpt lat="49.49168" lon="-1.59062">
        <ele>124.7</ele>
        <time>2026-03-30T14:11:29.000Z</time>
      </trkpt>
      <trkpt lat="49.49169" lon="-1.59063">
        <ele>124.5</ele>
        <time>2026-03-30T14:11:30.000Z</time>
      </trkpt>
      <trkpt lat="49.49169" lon="-1.59063">
        <ele>124</ele>
        <time>2026-03-30T14:11:31.000Z</time>
      </trkpt>
      <trkpt lat="49.49167" lon="-1.59062">
        <ele>124.1</ele>
        <time>2026-03-30T14:11:32.000Z</time>
      </trkpt>
      <trkpt lat="49.49166" lon="-1.59061">
        <ele>123.9</ele>
        <time>2026-03-30T14:11:33.000Z</time>
      </trkpt>
      <trkpt lat="49.49166" lon="-1.5906">
        <ele>123.6</ele>
        <time>2026-03-30T14:11:34.000Z</time>
      </trkpt>
      <trkpt lat="49.49166" lon="-1.59059">
        <ele>123</ele>
        <time>2026-03-30T14:11:35.000Z</time>
      </trkpt>
      <trkpt lat="49.49167" lon="-1.59058">
        <ele>123</ele>
        <time>2026-03-30T14:11:36.000Z</time>
      </trkpt>
      <trkpt lat="49.49167" lon="-1.59058">
        <ele>120.7</ele>
        <time>2026-03-30T14:11:37.000Z</time>
      </trkpt>
      <trkpt lat="49.49167" lon="-1.59057">
        <ele>120.2</ele>
        <time>2026-03-30T14:11:38.000Z</time>
      </trkpt>
      <trkpt lat="49.49168" lon="-1.59058">
        <ele>119.8</ele>
        <time>2026-03-30T14:11:39.000Z</time>
      </trkpt>
      <trkpt lat="49.49169" lon="-1.59059">
        <ele>119.4</ele>
        <time>2026-03-30T14:11:40.000Z</time>
      </trkpt>
      <trkpt lat="49.4917" lon="-1.5906">
        <ele>118.8</ele>
        <time>2026-03-30T14:11:41.000Z</time>
      </trkpt>
      <trkpt lat="49.49171" lon="-1.59061">
        <ele>118.5</ele>
        <time>2026-03-30T14:11:42.000Z</time>
      </trkpt>
      <trkpt lat="49.49171" lon="-1.59063">
        <ele>118.2</ele>
        <time>2026-03-30T14:11:43.000Z</time>
      </trkpt>
      <trkpt lat="49.49173" lon="-1.59062">
        <ele>118.1</ele>
        <time>2026-03-30T14:11:44.000Z</time>
      </trkpt>
      <trkpt lat="49.49174" lon="-1.59061">
        <ele>118.5</ele>
        <time>2026-03-30T14:11:45.000Z</time>
      </trkpt>
      <trkpt lat="49.49174" lon="-1.59059">
        <ele>118.2</ele>
        <time>2026-03-30T14:11:46.000Z</time>
      </trkpt>
      <trkpt lat="49.49175" lon="-1.59058">
        <ele>117.6</ele>
        <time>2026-03-30T14:11:47.000Z</time>
      </trkpt>
      <trkpt lat="49.49175" lon="-1.59058">
        <ele>117.6</ele>
        <time>2026-03-30T14:11:48.000Z</time>
      </trkpt>
      <trkpt lat="49.49176" lon="-1.59057">
        <ele>117.2</ele>
        <time>2026-03-30T14:11:49.000Z</time>
      </trkpt>
      <trkpt lat="49.49176" lon="-1.59057">
        <ele>117.5</ele>
        <time>2026-03-30T14:11:50.000Z</time>
      </trkpt>
      <trkpt lat="49.49177" lon="-1.59058">
        <ele>117.2</ele>
        <time>2026-03-30T14:11:51.000Z</time>
      </trkpt>
      <trkpt lat="49.49178" lon="-1.59059">
        <ele>116.5</ele>
        <time>2026-03-30T14:11:52.000Z</time>
      </trkpt>
      <trkpt lat="49.49178" lon="-1.5906">
        <ele>116.3</ele>
        <time>2026-03-30T14:11:53.000Z</time>
      </trkpt>
      <trkpt lat="49.49179" lon="-1.59061">
        <ele>115.3</ele>
        <time>2026-03-30T14:11:54.000Z</time>
      </trkpt>
      <trkpt lat="49.4918" lon="-1.59061">
        <ele>113.8</ele>
        <time>2026-03-30T14:11:55.000Z</time>
      </trkpt>
      <trkpt lat="49.49181" lon="-1.59061">
        <ele>116.2</ele>
        <time>2026-03-30T14:11:56.000Z</time>
      </trkpt>
      <trkpt lat="49.49182" lon="-1.59062">
        <ele>117.7</ele>
        <time>2026-03-30T14:11:57.000Z</time>
      </trkpt>
      <trkpt lat="49.49181" lon="-1.59061">
        <ele>116.7</ele>
        <time>2026-03-30T14:11:58.000Z</time>
      </trkpt>
      <trkpt lat="49.4918" lon="-1.59061">
        <ele>116.7</ele>
        <time>2026-03-30T14:11:59.000Z</time>
      </trkpt>
      <trkpt lat="49.49181" lon="-1.59062">
        <ele>117.2</ele>
        <time>2026-03-30T14:12:00.000Z</time>
      </trkpt>
      <trkpt lat="49.49182" lon="-1.59062">
        <ele>116.8</ele>
        <time>2026-03-30T14:12:01.000Z</time>
      </trkpt>
      <trkpt lat="49.49182" lon="-1.5906">
        <ele>117.9</ele>
        <time>2026-03-30T14:12:02.000Z</time>
      </trkpt>
      <trkpt lat="49.49181" lon="-1.59058">
        <ele>117.2</ele>
        <time>2026-03-30T14:12:03.000Z</time>
      </trkpt>
      <trkpt lat="49.4918" lon="-1.59057">
        <ele>116.4</ele>
        <time>2026-03-30T14:12:04.000Z</time>
      </trkpt>
      <trkpt lat="49.49179" lon="-1.59056">
        <ele>115.6</ele>
        <time>2026-03-30T14:12:05.000Z</time>
      </trkpt>
      <trkpt lat="49.49178" lon="-1.59054">
        <ele>115.8</ele>
        <time>2026-03-30T14:12:06.000Z</time>
      </trkpt>
      <trkpt lat="49.49179" lon="-1.59052">
        <ele>115.8</ele>
        <time>2026-03-30T14:12:07.000Z</time>
      </trkpt>
      <trkpt lat="49.49179" lon="-1.59051">
        <ele>116.5</ele>
        <time>2026-03-30T14:12:08.000Z</time>
      </trkpt>
      <trkpt lat="49.49179" lon="-1.59049">
        <ele>116.2</ele>
        <time>2026-03-30T14:12:09.000Z</time>
      </trkpt>
      <trkpt lat="49.4918" lon="-1.59048">
        <ele>116.6</ele>
        <time>2026-03-30T14:12:10.000Z</time>
      </trkpt>
      <trkpt lat="49.49181" lon="-1.59048">
        <ele>117.4</ele>
        <time>2026-03-30T14:12:11.000Z</time>
      </trkpt>
      <trkpt lat="49.49183" lon="-1.59048">
        <ele>117.6</ele>
        <time>2026-03-30T14:12:12.000Z</time>
      </trkpt>
      <trkpt lat="49.49184" lon="-1.59049">
        <ele>117.5</ele>
        <time>2026-03-30T14:12:13.000Z</time>
      </trkpt>
      <trkpt lat="49.49185" lon="-1.59051">
        <ele>118</ele>
        <time>2026-03-30T14:12:14.000Z</time>
      </trkpt>
      <trkpt lat="49.49186" lon="-1.59054">
        <ele>116.7</ele>
        <time>2026-03-30T14:12:15.000Z</time>
      </trkpt>
      <trkpt lat="49.49186" lon="-1.59056">
        <ele>116.2</ele>
        <time>2026-03-30T14:12:16.000Z</time>
      </trkpt>
      <trkpt lat="49.49186" lon="-1.59058">
        <ele>116.1</ele>
        <time>2026-03-30T14:12:17.000Z</time>
      </trkpt>
      <trkpt lat="49.49186" lon="-1.59059">
        <ele>116.3</ele>
        <time>2026-03-30T14:12:18.000Z</time>
      </trkpt>
      <trkpt lat="49.49185" lon="-1.59061">
        <ele>115.5</ele>
        <time>2026-03-30T14:12:19.000Z</time>
      </trkpt>
      <trkpt lat="49.49185" lon="-1.59063">
        <ele>115.6</ele>
        <time>2026-03-30T14:12:20.000Z</time>
      </trkpt>
      <trkpt lat="49.49186" lon="-1.59065">
        <ele>115.4</ele>
        <time>2026-03-30T14:12:21.000Z</time>
      </trkpt>
      <trkpt lat="49.49185" lon="-1.59066">
        <ele>114.9</ele>
        <time>2026-03-30T14:12:22.000Z</time>
      </trkpt>
      <trkpt lat="49.49186" lon="-1.59068">
        <ele>115.3</ele>
        <time>2026-03-30T14:12:23.000Z</time>
      </trkpt>
      <trkpt lat="49.49186" lon="-1.5907">
        <ele>117.3</ele>
        <time>2026-03-30T14:12:24.000Z</time>
      </trkpt>
      <trkpt lat="49.49186" lon="-1.59072">
        <ele>117.4</ele>
        <time>2026-03-30T14:12:25.000Z</time>
      </trkpt>
      <trkpt lat="49.49187" lon="-1.59075">
        <ele>116.6</ele>
        <time>2026-03-30T14:12:26.000Z</time>
      </trkpt>
      <trkpt lat="49.49187" lon="-1.59077">
        <ele>116</ele>
        <time>2026-03-30T14:12:27.000Z</time>
      </trkpt>
      <trkpt lat="49.49187" lon="-1.59079">
        <ele>116</ele>
        <time>2026-03-30T14:12:28.000Z</time>
      </trkpt>
      <trkpt lat="49.49187" lon="-1.5908">
        <ele>116.9</ele>
        <time>2026-03-30T14:12:29.000Z</time>
      </trkpt>
      <trkpt lat="49.49188" lon="-1.59082">
        <ele>117.9</ele>
        <time>2026-03-30T14:12:30.000Z</time>
      </trkpt>
      <trkpt lat="49.49188" lon="-1.59084">
        <ele>119.5</ele>
        <time>2026-03-30T14:12:31.000Z</time>
      </trkpt>
      <trkpt lat="49.49189" lon="-1.59086">
        <ele>121.9</ele>
        <time>2026-03-30T14:12:32.000Z</time>
      </trkpt>
      <trkpt lat="49.49191" lon="-1.59087">
        <ele>121.5</ele>
        <time>2026-03-30T14:12:33.000Z</time>
      </trkpt>
      <trkpt lat="49.49192" lon="-1.59088">
        <ele>121.4</ele>
        <time>2026-03-30T14:12:34.000Z</time>
      </trkpt>
      <trkpt lat="49.49192" lon="-1.5909">
        <ele>121.5</ele>
        <time>2026-03-30T14:12:35.000Z</time>
      </trkpt>
      <trkpt lat="49.49192" lon="-1.59092">
        <ele>122.4</ele>
        <time>2026-03-30T14:12:36.000Z</time>
      </trkpt>
      <trkpt lat="49.49191" lon="-1.59093">
        <ele>122.8</ele>
        <time>2026-03-30T14:12:37.000Z</time>
      </trkpt>
      <trkpt lat="49.49191" lon="-1.59095">
        <ele>122.8</ele>
        <time>2026-03-30T14:12:38.000Z</time>
      </trkpt>
      <trkpt lat="49.49193" lon="-1.59096">
        <ele>122.6</ele>
        <time>2026-03-30T14:12:39.000Z</time>
      </trkpt>
      <trkpt lat="49.49195" lon="-1.59096">
        <ele>122.3</ele>
        <time>2026-03-30T14:12:40.000Z</time>
      </trkpt>
      <trkpt lat="49.49196" lon="-1.59096">
        <ele>120.9</ele>
        <time>2026-03-30T14:12:41.000Z</time>
      </trkpt>
      <trkpt lat="49.49197" lon="-1.59097">
        <ele>120.4</ele>
        <time>2026-03-30T14:12:42.000Z</time>
      </trkpt>
      <trkpt lat="49.49197" lon="-1.59099">
        <ele>119.3</ele>
        <time>2026-03-30T14:12:43.000Z</time>
      </trkpt>
      <trkpt lat="49.49197" lon="-1.59099">
        <ele>119.2</ele>
        <time>2026-03-30T14:12:44.000Z</time>
      </trkpt>
      <trkpt lat="49.49198" lon="-1.59099">
        <ele>119.2</ele>
        <time>2026-03-30T14:12:45.000Z</time>
      </trkpt>
      <trkpt lat="49.492" lon="-1.591">
        <ele>119.1</ele>
        <time>2026-03-30T14:12:46.000Z</time>
      </trkpt>
      <trkpt lat="49.492" lon="-1.59101">
        <ele>118.8</ele>
        <time>2026-03-30T14:12:47.000Z</time>
      </trkpt>
      <trkpt lat="49.492" lon="-1.59103">
        <ele>118.7</ele>
        <time>2026-03-30T14:12:48.000Z</time>
      </trkpt>
      <trkpt lat="49.492" lon="-1.59104">
        <ele>119</ele>
        <time>2026-03-30T14:12:49.000Z</time>
      </trkpt>
      <trkpt lat="49.492" lon="-1.59105">
        <ele>119</ele>
        <time>2026-03-30T14:12:50.000Z</time>
      </trkpt>
      <trkpt lat="49.492" lon="-1.59106">
        <ele>119</ele>
        <time>2026-03-30T14:12:51.000Z</time>
      </trkpt>
      <trkpt lat="49.49201" lon="-1.59108">
        <ele>119.4</ele>
        <time>2026-03-30T14:12:52.000Z</time>
      </trkpt>
      <trkpt lat="49.49201" lon="-1.5911">
        <ele>120.1</ele>
        <time>2026-03-30T14:12:53.000Z</time>
      </trkpt>
      <trkpt lat="49.49202" lon="-1.59111">
        <ele>119.3</ele>
        <time>2026-03-30T14:12:54.000Z</time>
      </trkpt>
      <trkpt lat="49.49202" lon="-1.59113">
        <ele>119.3</ele>
        <time>2026-03-30T14:12:55.000Z</time>
      </trkpt>
      <trkpt lat="49.49203" lon="-1.59115">
        <ele>119.3</ele>
        <time>2026-03-30T14:12:56.000Z</time>
      </trkpt>
      <trkpt lat="49.49203" lon="-1.59117">
        <ele>119.2</ele>
        <time>2026-03-30T14:12:57.000Z</time>
      </trkpt>
      <trkpt lat="49.49204" lon="-1.59119">
        <ele>120</ele>
        <time>2026-03-30T14:12:58.000Z</time>
      </trkpt>
      <trkpt lat="49.49204" lon="-1.59121">
        <ele>121.4</ele>
        <time>2026-03-30T14:12:59.000Z</time>
      </trkpt>
      <trkpt lat="49.49205" lon="-1.59123">
        <ele>121.7</ele>
        <time>2026-03-30T14:13:00.000Z</time>
      </trkpt>
      <trkpt lat="49.49205" lon="-1.59124">
        <ele>121.4</ele>
        <time>2026-03-30T14:13:01.000Z</time>
      </trkpt>
      <trkpt lat="49.49206" lon="-1.59126">
        <ele>120.3</ele>
        <time>2026-03-30T14:13:02.000Z</time>
      </trkpt>
      <trkpt lat="49.49206" lon="-1.59127">
        <ele>119</ele>
        <time>2026-03-30T14:13:03.000Z</time>
      </trkpt>
      <trkpt lat="49.49207" lon="-1.59129">
        <ele>117.7</ele>
        <time>2026-03-30T14:13:04.000Z</time>
      </trkpt>
      <trkpt lat="49.49207" lon="-1.5913">
        <ele>116.8</ele>
        <time>2026-03-30T14:13:05.000Z</time>
      </trkpt>
      <trkpt lat="49.49208" lon="-1.59131">
        <ele>114.2</ele>
        <time>2026-03-30T14:13:06.000Z</time>
      </trkpt>
      <trkpt lat="49.49209" lon="-1.59132">
        <ele>113.8</ele>
        <time>2026-03-30T14:13:07.000Z</time>
      </trkpt>
      <trkpt lat="49.49209" lon="-1.59134">
        <ele>113.6</ele>
        <time>2026-03-30T14:13:08.000Z</time>
      </trkpt>
      <trkpt lat="49.4921" lon="-1.59135">
        <ele>114.1</ele>
        <time>2026-03-30T14:13:09.000Z</time>
      </trkpt>
      <trkpt lat="49.49211" lon="-1.59137">
        <ele>114</ele>
        <time>2026-03-30T14:13:10.000Z</time>
      </trkpt>
      <trkpt lat="49.49211" lon="-1.59139">
        <ele>114.4</ele>
        <time>2026-03-30T14:13:11.000Z</time>
      </trkpt>
      <trkpt lat="49.49212" lon="-1.5914">
        <ele>114.6</ele>
        <time>2026-03-30T14:13:12.000Z</time>
      </trkpt>
      <trkpt lat="49.49213" lon="-1.59142">
        <ele>114.4</ele>
        <time>2026-03-30T14:13:13.000Z</time>
      </trkpt>
      <trkpt lat="49.49214" lon="-1.59143">
        <ele>114.9</ele>
        <time>2026-03-30T14:13:14.000Z</time>
      </trkpt>
      <trkpt lat="49.49215" lon="-1.59145">
        <ele>115.2</ele>
        <time>2026-03-30T14:13:15.000Z</time>
      </trkpt>
      <trkpt lat="49.49215" lon="-1.59146">
        <ele>115.4</ele>
        <time>2026-03-30T14:13:16.000Z</time>
      </trkpt>
      <trkpt lat="49.49217" lon="-1.59148">
        <ele>116.5</ele>
        <time>2026-03-30T14:13:17.000Z</time>
      </trkpt>
      <trkpt lat="49.49218" lon="-1.59149">
        <ele>115.8</ele>
        <time>2026-03-30T14:13:18.000Z</time>
      </trkpt>
      <trkpt lat="49.49219" lon="-1.5915">
        <ele>115.9</ele>
        <time>2026-03-30T14:13:19.000Z</time>
      </trkpt>
      <trkpt lat="49.4922" lon="-1.5915">
        <ele>115.8</ele>
        <time>2026-03-30T14:13:20.000Z</time>
      </trkpt>
      <trkpt lat="49.49221" lon="-1.59151">
        <ele>115.6</ele>
        <time>2026-03-30T14:13:21.000Z</time>
      </trkpt>
      <trkpt lat="49.49222" lon="-1.59151">
        <ele>114.5</ele>
        <time>2026-03-30T14:13:22.000Z</time>
      </trkpt>
      <trkpt lat="49.49223" lon="-1.59152">
        <ele>114.8</ele>
        <time>2026-03-30T14:13:23.000Z</time>
      </trkpt>
      <trkpt lat="49.49225" lon="-1.59152">
        <ele>113.9</ele>
        <time>2026-03-30T14:13:24.000Z</time>
      </trkpt>
      <trkpt lat="49.49226" lon="-1.59152">
        <ele>113.1</ele>
        <time>2026-03-30T14:13:25.000Z</time>
      </trkpt>
      <trkpt lat="49.49228" lon="-1.59152">
        <ele>113.4</ele>
        <time>2026-03-30T14:13:26.000Z</time>
      </trkpt>
      <trkpt lat="49.49229" lon="-1.59153">
        <ele>112.9</ele>
        <time>2026-03-30T14:13:27.000Z</time>
      </trkpt>
      <trkpt lat="49.4923" lon="-1.59153">
        <ele>112.4</ele>
        <time>2026-03-30T14:13:28.000Z</time>
      </trkpt>
      <trkpt lat="49.49231" lon="-1.59152">
        <ele>111.2</ele>
        <time>2026-03-30T14:13:29.000Z</time>
      </trkpt>
      <trkpt lat="49.49233" lon="-1.59152">
        <ele>110.8</ele>
        <time>2026-03-30T14:13:30.000Z</time>
      </trkpt>
      <trkpt lat="49.49234" lon="-1.59151">
        <ele>110.8</ele>
        <time>2026-03-30T14:13:31.000Z</time>
      </trkpt>
      <trkpt lat="49.49235" lon="-1.59151">
        <ele>110.8</ele>
        <time>2026-03-30T14:13:32.000Z</time>
      </trkpt>
      <trkpt lat="49.49237" lon="-1.59151">
        <ele>110.4</ele>
        <time>2026-03-30T14:13:33.000Z</time>
      </trkpt>
      <trkpt lat="49.49238" lon="-1.5915">
        <ele>109.5</ele>
        <time>2026-03-30T14:13:34.000Z</time>
      </trkpt>
      <trkpt lat="49.49239" lon="-1.59149">
        <ele>109.6</ele>
        <time>2026-03-30T14:13:35.000Z</time>
      </trkpt>
      <trkpt lat="49.49241" lon="-1.59149">
        <ele>109.9</ele>
        <time>2026-03-30T14:13:36.000Z</time>
      </trkpt>
      <trkpt lat="49.49242" lon="-1.5915">
        <ele>109.5</ele>
        <time>2026-03-30T14:13:37.000Z</time>
      </trkpt>
      <trkpt lat="49.49244" lon="-1.59151">
        <ele>109</ele>
        <time>2026-03-30T14:13:38.000Z</time>
      </trkpt>
      <trkpt lat="49.49245" lon="-1.59151">
        <ele>108.1</ele>
        <time>2026-03-30T14:13:39.000Z</time>
      </trkpt>
      <trkpt lat="49.49247" lon="-1.59151">
        <ele>108.2</ele>
        <time>2026-03-30T14:13:40.000Z</time>
      </trkpt>
      <trkpt lat="49.49248" lon="-1.59151">
        <ele>108.8</ele>
        <time>2026-03-30T14:13:41.000Z</time>
      </trkpt>
      <trkpt lat="49.49249" lon="-1.59151">
        <ele>108.7</ele>
        <time>2026-03-30T14:13:42.000Z</time>
      </trkpt>
      <trkpt lat="49.4925" lon="-1.59151">
        <ele>108.9</ele>
        <time>2026-03-30T14:13:43.000Z</time>
      </trkpt>
      <trkpt lat="49.49252" lon="-1.5915">
        <ele>109</ele>
        <time>2026-03-30T14:13:44.000Z</time>
      </trkpt>
      <trkpt lat="49.49253" lon="-1.59151">
        <ele>109</ele>
        <time>2026-03-30T14:13:45.000Z</time>
      </trkpt>
      <trkpt lat="49.49254" lon="-1.59151">
        <ele>109.3</ele>
        <time>2026-03-30T14:13:46.000Z</time>
      </trkpt>
      <trkpt lat="49.49255" lon="-1.5915">
        <ele>109.4</ele>
        <time>2026-03-30T14:13:47.000Z</time>
      </trkpt>
      <trkpt lat="49.49256" lon="-1.59151">
        <ele>109.6</ele>
        <time>2026-03-30T14:13:48.000Z</time>
      </trkpt>
      <trkpt lat="49.49257" lon="-1.59151">
        <ele>109.6</ele>
        <time>2026-03-30T14:13:49.000Z</time>
      </trkpt>
      <trkpt lat="49.49259" lon="-1.5915">
        <ele>109.7</ele>
        <time>2026-03-30T14:13:50.000Z</time>
      </trkpt>
      <trkpt lat="49.4926" lon="-1.5915">
        <ele>109.9</ele>
        <time>2026-03-30T14:13:51.000Z</time>
      </trkpt>
      <trkpt lat="49.49262" lon="-1.5915">
        <ele>110.3</ele>
        <time>2026-03-30T14:13:52.000Z</time>
      </trkpt>
      <trkpt lat="49.49263" lon="-1.59149">
        <ele>110.4</ele>
        <time>2026-03-30T14:13:53.000Z</time>
      </trkpt>
      <trkpt lat="49.49264" lon="-1.59149">
        <ele>110.7</ele>
        <time>2026-03-30T14:13:54.000Z</time>
      </trkpt>
      <trkpt lat="49.49265" lon="-1.59149">
        <ele>110.7</ele>
        <time>2026-03-30T14:13:55.000Z</time>
      </trkpt>
      <trkpt lat="49.49266" lon="-1.59148">
        <ele>110.9</ele>
        <time>2026-03-30T14:13:56.000Z</time>
      </trkpt>
      <trkpt lat="49.49267" lon="-1.59147">
        <ele>112.5</ele>
        <time>2026-03-30T14:13:57.000Z</time>
      </trkpt>
      <trkpt lat="49.49268" lon="-1.59146">
        <ele>112.7</ele>
        <time>2026-03-30T14:13:58.000Z</time>
      </trkpt>
      <trkpt lat="49.49269" lon="-1.59145">
        <ele>113</ele>
        <time>2026-03-30T14:13:59.000Z</time>
      </trkpt>
      <trkpt lat="49.49271" lon="-1.59145">
        <ele>113</ele>
        <time>2026-03-30T14:14:00.000Z</time>
      </trkpt>
      <trkpt lat="49.49272" lon="-1.59146">
        <ele>112.8</ele>
        <time>2026-03-30T14:14:01.000Z</time>
      </trkpt>
      <trkpt lat="49.49274" lon="-1.59147">
        <ele>112.3</ele>
        <time>2026-03-30T14:14:02.000Z</time>
      </trkpt>
      <trkpt lat="49.49275" lon="-1.59148">
        <ele>111.7</ele>
        <time>2026-03-30T14:14:03.000Z</time>
      </trkpt>
      <trkpt lat="49.49276" lon="-1.59148">
        <ele>111.7</ele>
        <time>2026-03-30T14:14:04.000Z</time>
      </trkpt>
      <trkpt lat="49.49278" lon="-1.59148">
        <ele>110.9</ele>
        <time>2026-03-30T14:14:05.000Z</time>
      </trkpt>
      <trkpt lat="49.49279" lon="-1.59149">
        <ele>110.8</ele>
        <time>2026-03-30T14:14:06.000Z</time>
      </trkpt>
      <trkpt lat="49.4928" lon="-1.59149">
        <ele>110.4</ele>
        <time>2026-03-30T14:14:07.000Z</time>
      </trkpt>
      <trkpt lat="49.49281" lon="-1.59149">
        <ele>110</ele>
        <time>2026-03-30T14:14:08.000Z</time>
      </trkpt>
      <trkpt lat="49.49282" lon="-1.59148">
        <ele>110.3</ele>
        <time>2026-03-30T14:14:09.000Z</time>
      </trkpt>
      <trkpt lat="49.49283" lon="-1.59148">
        <ele>110.3</ele>
        <time>2026-03-30T14:14:10.000Z</time>
      </trkpt>
      <trkpt lat="49.49285" lon="-1.59148">
        <ele>110.5</ele>
        <time>2026-03-30T14:14:11.000Z</time>
      </trkpt>
      <trkpt lat="49.49286" lon="-1.59148">
        <ele>109.8</ele>
        <time>2026-03-30T14:14:12.000Z</time>
      </trkpt>
      <trkpt lat="49.49287" lon="-1.59148">
        <ele>110</ele>
        <time>2026-03-30T14:14:13.000Z</time>
      </trkpt>
      <trkpt lat="49.49288" lon="-1.59148">
        <ele>109.9</ele>
        <time>2026-03-30T14:14:14.000Z</time>
      </trkpt>
      <trkpt lat="49.49289" lon="-1.59148">
        <ele>109.3</ele>
        <time>2026-03-30T14:14:15.000Z</time>
      </trkpt>
      <trkpt lat="49.4929" lon="-1.59149">
        <ele>108.8</ele>
        <time>2026-03-30T14:14:16.000Z</time>
      </trkpt>
      <trkpt lat="49.49292" lon="-1.59148">
        <ele>109.2</ele>
        <time>2026-03-30T14:14:17.000Z</time>
      </trkpt>
      <trkpt lat="49.49293" lon="-1.59148">
        <ele>110.2</ele>
        <time>2026-03-30T14:14:18.000Z</time>
      </trkpt>
      <trkpt lat="49.49294" lon="-1.59147">
        <ele>110.7</ele>
        <time>2026-03-30T14:14:19.000Z</time>
      </trkpt>
      <trkpt lat="49.49295" lon="-1.59147">
        <ele>110.7</ele>
        <time>2026-03-30T14:14:20.000Z</time>
      </trkpt>
      <trkpt lat="49.49296" lon="-1.59147">
        <ele>110.9</ele>
        <time>2026-03-30T14:14:21.000Z</time>
      </trkpt>
      <trkpt lat="49.49298" lon="-1.59147">
        <ele>111.2</ele>
        <time>2026-03-30T14:14:22.000Z</time>
      </trkpt>
      <trkpt lat="49.49299" lon="-1.59146">
        <ele>112.2</ele>
        <time>2026-03-30T14:14:23.000Z</time>
      </trkpt>
      <trkpt lat="49.493" lon="-1.59146">
        <ele>112.9</ele>
        <time>2026-03-30T14:14:24.000Z</time>
      </trkpt>
      <trkpt lat="49.49302" lon="-1.59147">
        <ele>113.5</ele>
        <time>2026-03-30T14:14:25.000Z</time>
      </trkpt>
      <trkpt lat="49.49303" lon="-1.59148">
        <ele>113.6</ele>
        <time>2026-03-30T14:14:26.000Z</time>
      </trkpt>
      <trkpt lat="49.49304" lon="-1.59148">
        <ele>114.7</ele>
        <time>2026-03-30T14:14:27.000Z</time>
      </trkpt>
      <trkpt lat="49.49305" lon="-1.59149">
        <ele>114.8</ele>
        <time>2026-03-30T14:14:28.000Z</time>
      </trkpt>
      <trkpt lat="49.49306" lon="-1.5915">
        <ele>115</ele>
        <time>2026-03-30T14:14:29.000Z</time>
      </trkpt>
      <trkpt lat="49.49306" lon="-1.59151">
        <ele>115.8</ele>
        <time>2026-03-30T14:14:30.000Z</time>
      </trkpt>
      <trkpt lat="49.49307" lon="-1.59152">
        <ele>115.9</ele>
        <time>2026-03-30T14:14:31.000Z</time>
      </trkpt>
      <trkpt lat="49.49309" lon="-1.59152">
        <ele>117.1</ele>
        <time>2026-03-30T14:14:32.000Z</time>
      </trkpt>
      <trkpt lat="49.4931" lon="-1.59152">
        <ele>117.2</ele>
        <time>2026-03-30T14:14:33.000Z</time>
      </trkpt>
      <trkpt lat="49.49311" lon="-1.59152">
        <ele>117.4</ele>
        <time>2026-03-30T14:14:34.000Z</time>
      </trkpt>
      <trkpt lat="49.49311" lon="-1.59153">
        <ele>117.3</ele>
        <time>2026-03-30T14:14:35.000Z</time>
      </trkpt>
      <trkpt lat="49.49312" lon="-1.59154">
        <ele>117.7</ele>
        <time>2026-03-30T14:14:36.000Z</time>
      </trkpt>
      <trkpt lat="49.49312" lon="-1.59156">
        <ele>117.2</ele>
        <time>2026-03-30T14:14:37.000Z</time>
      </trkpt>
      <trkpt lat="49.49313" lon="-1.59157">
        <ele>117</ele>
        <time>2026-03-30T14:14:38.000Z</time>
      </trkpt>
      <trkpt lat="49.49314" lon="-1.59158">
        <ele>117.5</ele>
        <time>2026-03-30T14:14:39.000Z</time>
      </trkpt>
      <trkpt lat="49.49316" lon="-1.5916">
        <ele>117.4</ele>
        <time>2026-03-30T14:14:40.000Z</time>
      </trkpt>
      <trkpt lat="49.49317" lon="-1.59162">
        <ele>117.7</ele>
        <time>2026-03-30T14:14:41.000Z</time>
      </trkpt>
      <trkpt lat="49.49318" lon="-1.59163">
        <ele>118.7</ele>
        <time>2026-03-30T14:14:42.000Z</time>
      </trkpt>
      <trkpt lat="49.49319" lon="-1.59164">
        <ele>118.7</ele>
        <time>2026-03-30T14:14:43.000Z</time>
      </trkpt>
      <trkpt lat="49.4932" lon="-1.59165">
        <ele>118.4</ele>
        <time>2026-03-30T14:14:44.000Z</time>
      </trkpt>
      <trkpt lat="49.49321" lon="-1.59167">
        <ele>117.7</ele>
        <time>2026-03-30T14:14:45.000Z</time>
      </trkpt>
      <trkpt lat="49.49322" lon="-1.59167">
        <ele>117.6</ele>
        <time>2026-03-30T14:14:46.000Z</time>
      </trkpt>
      <trkpt lat="49.49323" lon="-1.59167">
        <ele>117.5</ele>
        <time>2026-03-30T14:14:47.000Z</time>
      </trkpt>
      <trkpt lat="49.49325" lon="-1.59167">
        <ele>117.6</ele>
        <time>2026-03-30T14:14:48.000Z</time>
      </trkpt>
      <trkpt lat="49.49326" lon="-1.59167">
        <ele>117.2</ele>
        <time>2026-03-30T14:14:49.000Z</time>
      </trkpt>
      <trkpt lat="49.49327" lon="-1.59167">
        <ele>117.3</ele>
        <time>2026-03-30T14:14:50.000Z</time>
      </trkpt>
      <trkpt lat="49.49328" lon="-1.59166">
        <ele>117.6</ele>
        <time>2026-03-30T14:14:51.000Z</time>
      </trkpt>
      <trkpt lat="49.49329" lon="-1.59166">
        <ele>117.7</ele>
        <time>2026-03-30T14:14:52.000Z</time>
      </trkpt>
      <trkpt lat="49.49329" lon="-1.59166">
        <ele>119.4</ele>
        <time>2026-03-30T14:14:53.000Z</time>
      </trkpt>
      <trkpt lat="49.4933" lon="-1.59166">
        <ele>119.4</ele>
        <time>2026-03-30T14:14:54.000Z</time>
      </trkpt>
      <trkpt lat="49.49331" lon="-1.59168">
        <ele>119.5</ele>
        <time>2026-03-30T14:14:55.000Z</time>
      </trkpt>
      <trkpt lat="49.49331" lon="-1.59168">
        <ele>119.4</ele>
        <time>2026-03-30T14:14:56.000Z</time>
      </trkpt>
      <trkpt lat="49.49333" lon="-1.59169">
        <ele>118.7</ele>
        <time>2026-03-30T14:14:57.000Z</time>
      </trkpt>
      <trkpt lat="49.49334" lon="-1.5917">
        <ele>118.7</ele>
        <time>2026-03-30T14:14:58.000Z</time>
      </trkpt>
      <trkpt lat="49.49335" lon="-1.5917">
        <ele>119.8</ele>
        <time>2026-03-30T14:14:59.000Z</time>
      </trkpt>
      <trkpt lat="49.49336" lon="-1.59171">
        <ele>120.2</ele>
        <time>2026-03-30T14:15:00.000Z</time>
      </trkpt>
      <trkpt lat="49.49337" lon="-1.59172">
        <ele>120.8</ele>
        <time>2026-03-30T14:15:01.000Z</time>
      </trkpt>
      <trkpt lat="49.49339" lon="-1.59173">
        <ele>120.1</ele>
        <time>2026-03-30T14:15:02.000Z</time>
      </trkpt>
      <trkpt lat="49.4934" lon="-1.59175">
        <ele>119.5</ele>
        <time>2026-03-30T14:15:03.000Z</time>
      </trkpt>
      <trkpt lat="49.49341" lon="-1.59175">
        <ele>121</ele>
        <time>2026-03-30T14:15:04.000Z</time>
      </trkpt>
      <trkpt lat="49.49342" lon="-1.59176">
        <ele>121.9</ele>
        <time>2026-03-30T14:15:05.000Z</time>
      </trkpt>
      <trkpt lat="49.49343" lon="-1.59176">
        <ele>122.1</ele>
        <time>2026-03-30T14:15:06.000Z</time>
      </trkpt>
      <trkpt lat="49.49343" lon="-1.59177">
        <ele>121.2</ele>
        <time>2026-03-30T14:15:07.000Z</time>
      </trkpt>
      <trkpt lat="49.49344" lon="-1.59178">
        <ele>121.2</ele>
        <time>2026-03-30T14:15:08.000Z</time>
      </trkpt>
      <trkpt lat="49.49345" lon="-1.59179">
        <ele>122.5</ele>
        <time>2026-03-30T14:15:09.000Z</time>
      </trkpt>
      <trkpt lat="49.49345" lon="-1.5918">
        <ele>123.5</ele>
        <time>2026-03-30T14:15:10.000Z</time>
      </trkpt>
      <trkpt lat="49.49346" lon="-1.59181">
        <ele>123.1</ele>
        <time>2026-03-30T14:15:11.000Z</time>
      </trkpt>
      <trkpt lat="49.49347" lon="-1.59181">
        <ele>122.1</ele>
        <time>2026-03-30T14:15:12.000Z</time>
      </trkpt>
      <trkpt lat="49.49349" lon="-1.59181">
        <ele>122.4</ele>
        <time>2026-03-30T14:15:13.000Z</time>
      </trkpt>
      <trkpt lat="49.4935" lon="-1.5918">
        <ele>122</ele>
        <time>2026-03-30T14:15:14.000Z</time>
      </trkpt>
      <trkpt lat="49.49351" lon="-1.5918">
        <ele>122.2</ele>
        <time>2026-03-30T14:15:15.000Z</time>
      </trkpt>
      <trkpt lat="49.49352" lon="-1.59181">
        <ele>123.7</ele>
        <time>2026-03-30T14:15:16.000Z</time>
      </trkpt>
      <trkpt lat="49.49353" lon="-1.59181">
        <ele>123.5</ele>
        <time>2026-03-30T14:15:17.000Z</time>
      </trkpt>
      <trkpt lat="49.49353" lon="-1.59182">
        <ele>124.7</ele>
        <time>2026-03-30T14:15:18.000Z</time>
      </trkpt>
      <trkpt lat="49.49354" lon="-1.59183">
        <ele>124.5</ele>
        <time>2026-03-30T14:15:19.000Z</time>
      </trkpt>
      <trkpt lat="49.49355" lon="-1.59183">
        <ele>125.1</ele>
        <time>2026-03-30T14:15:20.000Z</time>
      </trkpt>
      <trkpt lat="49.49356" lon="-1.59184">
        <ele>125.5</ele>
        <time>2026-03-30T14:15:21.000Z</time>
      </trkpt>
      <trkpt lat="49.49356" lon="-1.59185">
        <ele>125.3</ele>
        <time>2026-03-30T14:15:22.000Z</time>
      </trkpt>
      <trkpt lat="49.49357" lon="-1.59185">
        <ele>125.5</ele>
        <time>2026-03-30T14:15:23.000Z</time>
      </trkpt>
      <trkpt lat="49.49358" lon="-1.59185">
        <ele>125.2</ele>
        <time>2026-03-30T14:15:24.000Z</time>
      </trkpt>
      <trkpt lat="49.49359" lon="-1.59185">
        <ele>125.5</ele>
        <time>2026-03-30T14:15:25.000Z</time>
      </trkpt>
      <trkpt lat="49.4936" lon="-1.59186">
        <ele>127.2</ele>
        <time>2026-03-30T14:15:26.000Z</time>
      </trkpt>
      <trkpt lat="49.49361" lon="-1.59186">
        <ele>128.1</ele>
        <time>2026-03-30T14:15:27.000Z</time>
      </trkpt>
      <trkpt lat="49.49362" lon="-1.59186">
        <ele>129.1</ele>
        <time>2026-03-30T14:15:28.000Z</time>
      </trkpt>
      <trkpt lat="49.49363" lon="-1.59187">
        <ele>129.3</ele>
        <time>2026-03-30T14:15:29.000Z</time>
      </trkpt>
      <trkpt lat="49.49364" lon="-1.59187">
        <ele>129.7</ele>
        <time>2026-03-30T14:15:30.000Z</time>
      </trkpt>
      <trkpt lat="49.49364" lon="-1.59188">
        <ele>129.8</ele>
        <time>2026-03-30T14:15:31.000Z</time>
      </trkpt>
      <trkpt lat="49.49365" lon="-1.59189">
        <ele>130</ele>
        <time>2026-03-30T14:15:32.000Z</time>
      </trkpt>
      <trkpt lat="49.49365" lon="-1.5919">
        <ele>130.9</ele>
        <time>2026-03-30T14:15:33.000Z</time>
      </trkpt>
      <trkpt lat="49.49366" lon="-1.59191">
        <ele>131.9</ele>
        <time>2026-03-30T14:15:34.000Z</time>
      </trkpt>
      <trkpt lat="49.49366" lon="-1.59191">
        <ele>132</ele>
        <time>2026-03-30T14:15:35.000Z</time>
      </trkpt>
      <trkpt lat="49.49367" lon="-1.59192">
        <ele>131.1</ele>
        <time>2026-03-30T14:15:36.000Z</time>
      </trkpt>
      <trkpt lat="49.49367" lon="-1.59192">
        <ele>130.5</ele>
        <time>2026-03-30T14:15:37.000Z</time>
      </trkpt>
      <trkpt lat="49.49368" lon="-1.59193">
        <ele>130.3</ele>
        <time>2026-03-30T14:15:38.000Z</time>
      </trkpt>
      <trkpt lat="49.49373" lon="-1.59195">
        <ele>133.6</ele>
        <time>2026-03-30T14:15:53.000Z</time>
      </trkpt>
      <trkpt lat="49.49373" lon="-1.59196">
        <ele>135.1</ele>
        <time>2026-03-30T14:15:54.000Z</time>
      </trkpt>
      <trkpt lat="49.49374" lon="-1.59197">
        <ele>134.9</ele>
        <time>2026-03-30T14:15:55.000Z</time>
      </trkpt>
      <trkpt lat="49.49373" lon="-1.59197">
        <ele>134.6</ele>
        <time>2026-03-30T14:15:56.000Z</time>
      </trkpt>
      <trkpt lat="49.49377" lon="-1.59201">
        <ele>135.2</ele>
        <time>2026-03-30T14:16:10.000Z</time>
      </trkpt>
      <trkpt lat="49.49378" lon="-1.59201">
        <ele>134.8</ele>
        <time>2026-03-30T14:16:11.000Z</time>
      </trkpt>
      <trkpt lat="49.49378" lon="-1.59201">
        <ele>134.9</ele>
        <time>2026-03-30T14:16:12.000Z</time>
      </trkpt>
      <trkpt lat="49.49379" lon="-1.592">
        <ele>135.4</ele>
        <time>2026-03-30T14:16:13.000Z</time>
      </trkpt>
      <trkpt lat="49.4938" lon="-1.59199">
        <ele>135.7</ele>
        <time>2026-03-30T14:16:14.000Z</time>
      </trkpt>
      <trkpt lat="49.4938" lon="-1.59198">
        <ele>136.2</ele>
        <time>2026-03-30T14:16:15.000Z</time>
      </trkpt>
      <trkpt lat="49.49381" lon="-1.59197">
        <ele>136</ele>
        <time>2026-03-30T14:16:16.000Z</time>
      </trkpt>
      <trkpt lat="49.49381" lon="-1.59195">
        <ele>135.2</ele>
        <time>2026-03-30T14:16:17.000Z</time>
      </trkpt>
      <trkpt lat="49.49382" lon="-1.59194">
        <ele>135.1</ele>
        <time>2026-03-30T14:16:18.000Z</time>
      </trkpt>
      <trkpt lat="49.49383" lon="-1.59194">
        <ele>135.6</ele>
        <time>2026-03-30T14:16:19.000Z</time>
      </trkpt>
      <trkpt lat="49.49384" lon="-1.59194">
        <ele>134.5</ele>
        <time>2026-03-30T14:16:20.000Z</time>
      </trkpt>
      <trkpt lat="49.49384" lon="-1.59194">
        <ele>133.8</ele>
        <time>2026-03-30T14:16:21.000Z</time>
      </trkpt>
      <trkpt lat="49.49385" lon="-1.59195">
        <ele>134.2</ele>
        <time>2026-03-30T14:16:22.000Z</time>
      </trkpt>
      <trkpt lat="49.49385" lon="-1.59196">
        <ele>133.1</ele>
        <time>2026-03-30T14:16:23.000Z</time>
      </trkpt>
      <trkpt lat="49.49385" lon="-1.59196">
        <ele>132.1</ele>
        <time>2026-03-30T14:16:24.000Z</time>
      </trkpt>
      <trkpt lat="49.49385" lon="-1.59197">
        <ele>131.5</ele>
        <time>2026-03-30T14:16:25.000Z</time>
      </trkpt>
      <trkpt lat="49.49385" lon="-1.59197">
        <ele>131</ele>
        <time>2026-03-30T14:16:26.000Z</time>
      </trkpt>
      <trkpt lat="49.49385" lon="-1.59198">
        <ele>130.7</ele>
        <time>2026-03-30T14:16:27.000Z</time>
      </trkpt>
      <trkpt lat="49.49385" lon="-1.59199">
        <ele>131.1</ele>
        <time>2026-03-30T14:16:28.000Z</time>
      </trkpt>
      <trkpt lat="49.49386" lon="-1.59199">
        <ele>131.6</ele>
        <time>2026-03-30T14:16:29.000Z</time>
      </trkpt>
      <trkpt lat="49.49386" lon="-1.59199">
        <ele>132.1</ele>
        <time>2026-03-30T14:16:30.000Z</time>
      </trkpt>
      <trkpt lat="49.49387" lon="-1.59199">
        <ele>133.4</ele>
        <time>2026-03-30T14:16:31.000Z</time>
      </trkpt>
      <trkpt lat="49.49386" lon="-1.59199">
        <ele>133.6</ele>
        <time>2026-03-30T14:16:32.000Z</time>
      </trkpt>
      <trkpt lat="49.49387" lon="-1.592">
        <ele>133.7</ele>
        <time>2026-03-30T14:16:33.000Z</time>
      </trkpt>
      <trkpt lat="49.49387" lon="-1.592">
        <ele>133.5</ele>
        <time>2026-03-30T14:16:34.000Z</time>
      </trkpt>
      <trkpt lat="49.49387" lon="-1.59199">
        <ele>132.8</ele>
        <time>2026-03-30T14:16:35.000Z</time>
      </trkpt>
      <trkpt lat="49.49388" lon="-1.59199">
        <ele>133.8</ele>
        <time>2026-03-30T14:16:36.000Z</time>
      </trkpt>
      <trkpt lat="49.49388" lon="-1.592">
        <ele>134.9</ele>
        <time>2026-03-30T14:16:37.000Z</time>
      </trkpt>
      <trkpt lat="49.49389" lon="-1.592">
        <ele>134.7</ele>
        <time>2026-03-30T14:16:38.000Z</time>
      </trkpt>
      <trkpt lat="49.49389" lon="-1.592">
        <ele>135.1</ele>
        <time>2026-03-30T14:16:39.000Z</time>
      </trkpt>
      <trkpt lat="49.49389" lon="-1.59199">
        <ele>134.8</ele>
        <time>2026-03-30T14:16:40.000Z</time>
      </trkpt>
      <trkpt lat="49.49389" lon="-1.59199">
        <ele>134.9</ele>
        <time>2026-03-30T14:16:41.000Z</time>
      </trkpt>
      <trkpt lat="49.49389" lon="-1.59199">
        <ele>135</ele>
        <time>2026-03-30T14:16:42.000Z</time>
      </trkpt>
      <trkpt lat="49.4939" lon="-1.59198">
        <ele>134.9</ele>
        <time>2026-03-30T14:16:43.000Z</time>
      </trkpt>
      <trkpt lat="49.4939" lon="-1.59197">
        <ele>133.6</ele>
        <time>2026-03-30T14:16:44.000Z</time>
      </trkpt>
      <trkpt lat="49.4939" lon="-1.59197">
        <ele>133.7</ele>
        <time>2026-03-30T14:16:45.000Z</time>
      </trkpt>
      <trkpt lat="49.49391" lon="-1.59198">
        <ele>133.6</ele>
        <time>2026-03-30T14:16:46.000Z</time>
      </trkpt>
      <trkpt lat="49.49391" lon="-1.59198">
        <ele>133.7</ele>
        <time>2026-03-30T14:16:47.000Z</time>
      </trkpt>
      <trkpt lat="49.49391" lon="-1.59198">
        <ele>134.8</ele>
        <time>2026-03-30T14:16:48.000Z</time>
      </trkpt>
      <trkpt lat="49.49392" lon="-1.59199">
        <ele>134.5</ele>
        <time>2026-03-30T14:16:49.000Z</time>
      </trkpt>
      <trkpt lat="49.49393" lon="-1.59199">
        <ele>134.5</ele>
        <time>2026-03-30T14:16:50.000Z</time>
      </trkpt>
      <trkpt lat="49.49393" lon="-1.592">
        <ele>135.2</ele>
        <time>2026-03-30T14:16:51.000Z</time>
      </trkpt>
      <trkpt lat="49.49394" lon="-1.59201">
        <ele>134.6</ele>
        <time>2026-03-30T14:16:52.000Z</time>
      </trkpt>
      <trkpt lat="49.49393" lon="-1.59202">
        <ele>134.7</ele>
        <time>2026-03-30T14:16:53.000Z</time>
      </trkpt>
      <trkpt lat="49.49393" lon="-1.59203">
        <ele>135</ele>
        <time>2026-03-30T14:16:54.000Z</time>
      </trkpt>
      <trkpt lat="49.49394" lon="-1.59204">
        <ele>135.5</ele>
        <time>2026-03-30T14:16:55.000Z</time>
      </trkpt>
      <trkpt lat="49.49395" lon="-1.59204">
        <ele>135</ele>
        <time>2026-03-30T14:16:56.000Z</time>
      </trkpt>
      <trkpt lat="49.49396" lon="-1.59203">
        <ele>132.6</ele>
        <time>2026-03-30T14:16:57.000Z</time>
      </trkpt>
      <trkpt lat="49.49398" lon="-1.59203">
        <ele>132.4</ele>
        <time>2026-03-30T14:16:58.000Z</time>
      </trkpt>
      <trkpt lat="49.49399" lon="-1.59203">
        <ele>132.3</ele>
        <time>2026-03-30T14:16:59.000Z</time>
      </trkpt>
      <trkpt lat="49.494" lon="-1.59203">
        <ele>131.5</ele>
        <time>2026-03-30T14:17:00.000Z</time>
      </trkpt>
      <trkpt lat="49.49401" lon="-1.59202">
        <ele>132</ele>
        <time>2026-03-30T14:17:01.000Z</time>
      </trkpt>
      <trkpt lat="49.49402" lon="-1.59202">
        <ele>132.3</ele>
        <time>2026-03-30T14:17:02.000Z</time>
      </trkpt>
      <trkpt lat="49.49403" lon="-1.59203">
        <ele>132.2</ele>
        <time>2026-03-30T14:17:03.000Z</time>
      </trkpt>
      <trkpt lat="49.49404" lon="-1.59204">
        <ele>133.3</ele>
        <time>2026-03-30T14:17:04.000Z</time>
      </trkpt>
      <trkpt lat="49.49405" lon="-1.59203">
        <ele>132.5</ele>
        <time>2026-03-30T14:17:05.000Z</time>
      </trkpt>
      <trkpt lat="49.49405" lon="-1.59203">
        <ele>132.9</ele>
        <time>2026-03-30T14:17:06.000Z</time>
      </trkpt>
      <trkpt lat="49.49406" lon="-1.59202">
        <ele>134.2</ele>
        <time>2026-03-30T14:17:07.000Z</time>
      </trkpt>
      <trkpt lat="49.49406" lon="-1.59202">
        <ele>134.9</ele>
        <time>2026-03-30T14:17:08.000Z</time>
      </trkpt>
      <trkpt lat="49.49407" lon="-1.59201">
        <ele>135.5</ele>
        <time>2026-03-30T14:17:09.000Z</time>
      </trkpt>
      <trkpt lat="49.49408" lon="-1.592">
        <ele>135</ele>
        <time>2026-03-30T14:17:10.000Z</time>
      </trkpt>
      <trkpt lat="49.49409" lon="-1.592">
        <ele>134.9</ele>
        <time>2026-03-30T14:17:11.000Z</time>
      </trkpt>
      <trkpt lat="49.4941" lon="-1.592">
        <ele>134.9</ele>
        <time>2026-03-30T14:17:12.000Z</time>
      </trkpt>
      <trkpt lat="49.49411" lon="-1.592">
        <ele>134.4</ele>
        <time>2026-03-30T14:17:13.000Z</time>
      </trkpt>
      <trkpt lat="49.49412" lon="-1.592">
        <ele>134.1</ele>
        <time>2026-03-30T14:17:14.000Z</time>
      </trkpt>
      <trkpt lat="49.49412" lon="-1.59199">
        <ele>135.1</ele>
        <time>2026-03-30T14:17:15.000Z</time>
      </trkpt>
      <trkpt lat="49.49413" lon="-1.59199">
        <ele>134.1</ele>
        <time>2026-03-30T14:17:16.000Z</time>
      </trkpt>
      <trkpt lat="49.49414" lon="-1.592">
        <ele>133.8</ele>
        <time>2026-03-30T14:17:17.000Z</time>
      </trkpt>
      <trkpt lat="49.49414" lon="-1.592">
        <ele>132.8</ele>
        <time>2026-03-30T14:17:18.000Z</time>
      </trkpt>
      <trkpt lat="49.49415" lon="-1.592">
        <ele>132.2</ele>
        <time>2026-03-30T14:17:19.000Z</time>
      </trkpt>
      <trkpt lat="49.49417" lon="-1.592">
        <ele>131.5</ele>
        <time>2026-03-30T14:17:20.000Z</time>
      </trkpt>
      <trkpt lat="49.49418" lon="-1.59201">
        <ele>132.1</ele>
        <time>2026-03-30T14:17:21.000Z</time>
      </trkpt>
      <trkpt lat="49.4942" lon="-1.59201">
        <ele>132.9</ele>
        <time>2026-03-30T14:17:22.000Z</time>
      </trkpt>
      <trkpt lat="49.49421" lon="-1.59202">
        <ele>131.6</ele>
        <time>2026-03-30T14:17:23.000Z</time>
      </trkpt>
      <trkpt lat="49.49423" lon="-1.59202">
        <ele>130.9</ele>
        <time>2026-03-30T14:17:24.000Z</time>
      </trkpt>
      <trkpt lat="49.49424" lon="-1.59201">
        <ele>131</ele>
        <time>2026-03-30T14:17:25.000Z</time>
      </trkpt>
      <trkpt lat="49.49425" lon="-1.592">
        <ele>130.7</ele>
        <time>2026-03-30T14:17:26.000Z</time>
      </trkpt>
      <trkpt lat="49.49426" lon="-1.59198">
        <ele>130.6</ele>
        <time>2026-03-30T14:17:27.000Z</time>
      </trkpt>
      <trkpt lat="49.49427" lon="-1.59197">
        <ele>131.1</ele>
        <time>2026-03-30T14:17:28.000Z</time>
      </trkpt>
      <trkpt lat="49.49427" lon="-1.59196">
        <ele>131.7</ele>
        <time>2026-03-30T14:17:29.000Z</time>
      </trkpt>
      <trkpt lat="49.49427" lon="-1.59194">
        <ele>128.7</ele>
        <time>2026-03-30T14:17:30.000Z</time>
      </trkpt>
      <trkpt lat="49.49428" lon="-1.59192">
        <ele>128.3</ele>
        <time>2026-03-30T14:17:31.000Z</time>
      </trkpt>
      <trkpt lat="49.49429" lon="-1.5919">
        <ele>128</ele>
        <time>2026-03-30T14:17:32.000Z</time>
      </trkpt>
      <trkpt lat="49.49429" lon="-1.59189">
        <ele>127.1</ele>
        <time>2026-03-30T14:17:33.000Z</time>
      </trkpt>
      <trkpt lat="49.4943" lon="-1.59187">
        <ele>129.2</ele>
        <time>2026-03-30T14:17:34.000Z</time>
      </trkpt>
      <trkpt lat="49.4943" lon="-1.59186">
        <ele>129.5</ele>
        <time>2026-03-30T14:17:35.000Z</time>
      </trkpt>
      <trkpt lat="49.49431" lon="-1.59184">
        <ele>129.8</ele>
        <time>2026-03-30T14:17:36.000Z</time>
      </trkpt>
      <trkpt lat="49.49431" lon="-1.59183">
        <ele>129.7</ele>
        <time>2026-03-30T14:17:37.000Z</time>
      </trkpt>
      <trkpt lat="49.49431" lon="-1.59182">
        <ele>129.5</ele>
        <time>2026-03-30T14:17:38.000Z</time>
      </trkpt>
      <trkpt lat="49.49431" lon="-1.5918">
        <ele>128.7</ele>
        <time>2026-03-30T14:17:39.000Z</time>
      </trkpt>
      <trkpt lat="49.49431" lon="-1.59179">
        <ele>129.6</ele>
        <time>2026-03-30T14:17:40.000Z</time>
      </trkpt>
      <trkpt lat="49.49431" lon="-1.59177">
        <ele>129.5</ele>
        <time>2026-03-30T14:17:41.000Z</time>
      </trkpt>
      <trkpt lat="49.49431" lon="-1.59176">
        <ele>129.8</ele>
        <time>2026-03-30T14:17:42.000Z</time>
      </trkpt>
      <trkpt lat="49.49432" lon="-1.59175">
        <ele>129.4</ele>
        <time>2026-03-30T14:17:43.000Z</time>
      </trkpt>
      <trkpt lat="49.49433" lon="-1.59173">
        <ele>129.8</ele>
        <time>2026-03-30T14:17:44.000Z</time>
      </trkpt>
      <trkpt lat="49.49434" lon="-1.59172">
        <ele>129</ele>
        <time>2026-03-30T14:17:45.000Z</time>
      </trkpt>
      <trkpt lat="49.49434" lon="-1.59171">
        <ele>128.6</ele>
        <time>2026-03-30T14:17:46.000Z</time>
      </trkpt>
      <trkpt lat="49.49434" lon="-1.59169">
        <ele>129.1</ele>
        <time>2026-03-30T14:17:47.000Z</time>
      </trkpt>
      <trkpt lat="49.49434" lon="-1.59167">
        <ele>130.1</ele>
        <time>2026-03-30T14:17:48.000Z</time>
      </trkpt>
      <trkpt lat="49.49434" lon="-1.59165">
        <ele>130.5</ele>
        <time>2026-03-30T14:17:49.000Z</time>
      </trkpt>
      <trkpt lat="49.49434" lon="-1.59164">
        <ele>132.1</ele>
        <time>2026-03-30T14:17:50.000Z</time>
      </trkpt>
      <trkpt lat="49.49434" lon="-1.59162">
        <ele>132.5</ele>
        <time>2026-03-30T14:17:51.000Z</time>
      </trkpt>
      <trkpt lat="49.49434" lon="-1.59161">
        <ele>134.9</ele>
        <time>2026-03-30T14:17:52.000Z</time>
      </trkpt>
      <trkpt lat="49.49434" lon="-1.59159">
        <ele>134.9</ele>
        <time>2026-03-30T14:17:53.000Z</time>
      </trkpt>
      <trkpt lat="49.49433" lon="-1.59158">
        <ele>134.1</ele>
        <time>2026-03-30T14:17:54.000Z</time>
      </trkpt>
      <trkpt lat="49.49433" lon="-1.59156">
        <ele>134.9</ele>
        <time>2026-03-30T14:17:55.000Z</time>
      </trkpt>
      <trkpt lat="49.49433" lon="-1.59154">
        <ele>135.4</ele>
        <time>2026-03-30T14:17:56.000Z</time>
      </trkpt>
      <trkpt lat="49.49434" lon="-1.59153">
        <ele>134.9</ele>
        <time>2026-03-30T14:17:57.000Z</time>
      </trkpt>
      <trkpt lat="49.49434" lon="-1.59151">
        <ele>134.5</ele>
        <time>2026-03-30T14:17:58.000Z</time>
      </trkpt>
      <trkpt lat="49.49435" lon="-1.59149">
        <ele>134.1</ele>
        <time>2026-03-30T14:17:59.000Z</time>
      </trkpt>
      <trkpt lat="49.49435" lon="-1.59147">
        <ele>133.7</ele>
        <time>2026-03-30T14:18:00.000Z</time>
      </trkpt>
      <trkpt lat="49.49435" lon="-1.59145">
        <ele>135</ele>
        <time>2026-03-30T14:18:01.000Z</time>
      </trkpt>
      <trkpt lat="49.49434" lon="-1.59144">
        <ele>135</ele>
        <time>2026-03-30T14:18:02.000Z</time>
      </trkpt>
      <trkpt lat="49.49434" lon="-1.59142">
        <ele>135.5</ele>
        <time>2026-03-30T14:18:03.000Z</time>
      </trkpt>
      <trkpt lat="49.49434" lon="-1.59141">
        <ele>135.5</ele>
        <time>2026-03-30T14:18:04.000Z</time>
      </trkpt>
      <trkpt lat="49.49434" lon="-1.59139">
        <ele>135.9</ele>
        <time>2026-03-30T14:18:05.000Z</time>
      </trkpt>
      <trkpt lat="49.49435" lon="-1.59137">
        <ele>134.8</ele>
        <time>2026-03-30T14:18:06.000Z</time>
      </trkpt>
      <trkpt lat="49.49436" lon="-1.59136">
        <ele>133.8</ele>
        <time>2026-03-30T14:18:07.000Z</time>
      </trkpt>
      <trkpt lat="49.49436" lon="-1.59134">
        <ele>133.3</ele>
        <time>2026-03-30T14:18:08.000Z</time>
      </trkpt>
      <trkpt lat="49.49436" lon="-1.59133">
        <ele>132.9</ele>
        <time>2026-03-30T14:18:09.000Z</time>
      </trkpt>
      <trkpt lat="49.49437" lon="-1.59132">
        <ele>132.5</ele>
        <time>2026-03-30T14:18:10.000Z</time>
      </trkpt>
      <trkpt lat="49.49436" lon="-1.59131">
        <ele>129.7</ele>
        <time>2026-03-30T14:18:11.000Z</time>
      </trkpt>
      <trkpt lat="49.49435" lon="-1.59129">
        <ele>130.6</ele>
        <time>2026-03-30T14:18:12.000Z</time>
      </trkpt>
      <trkpt lat="49.49435" lon="-1.59127">
        <ele>130.8</ele>
        <time>2026-03-30T14:18:13.000Z</time>
      </trkpt>
      <trkpt lat="49.49434" lon="-1.59125">
        <ele>130.2</ele>
        <time>2026-03-30T14:18:14.000Z</time>
      </trkpt>
      <trkpt lat="49.49433" lon="-1.59123">
        <ele>129.9</ele>
        <time>2026-03-30T14:18:15.000Z</time>
      </trkpt>
      <trkpt lat="49.49433" lon="-1.59121">
        <ele>129.3</ele>
        <time>2026-03-30T14:18:16.000Z</time>
      </trkpt>
      <trkpt lat="49.49433" lon="-1.5912">
        <ele>128.7</ele>
        <time>2026-03-30T14:18:17.000Z</time>
      </trkpt>
      <trkpt lat="49.49434" lon="-1.59118">
        <ele>128.8</ele>
        <time>2026-03-30T14:18:18.000Z</time>
      </trkpt>
      <trkpt lat="49.49434" lon="-1.59115">
        <ele>128.7</ele>
        <time>2026-03-30T14:18:19.000Z</time>
      </trkpt>
      <trkpt lat="49.49434" lon="-1.59112">
        <ele>128.8</ele>
        <time>2026-03-30T14:18:20.000Z</time>
      </trkpt>
      <trkpt lat="49.49434" lon="-1.5911">
        <ele>128.3</ele>
        <time>2026-03-30T14:18:21.000Z</time>
      </trkpt>
      <trkpt lat="49.49434" lon="-1.59107">
        <ele>128</ele>
        <time>2026-03-30T14:18:22.000Z</time>
      </trkpt>
      <trkpt lat="49.49435" lon="-1.59106">
        <ele>127.8</ele>
        <time>2026-03-30T14:18:23.000Z</time>
      </trkpt>
      <trkpt lat="49.49436" lon="-1.59104">
        <ele>127.1</ele>
        <time>2026-03-30T14:18:24.000Z</time>
      </trkpt>
      <trkpt lat="49.49438" lon="-1.59103">
        <ele>126.4</ele>
        <time>2026-03-30T14:18:25.000Z</time>
      </trkpt>
      <trkpt lat="49.49439" lon="-1.59102">
        <ele>125.8</ele>
        <time>2026-03-30T14:18:26.000Z</time>
      </trkpt>
      <trkpt lat="49.49441" lon="-1.59102">
        <ele>125.6</ele>
        <time>2026-03-30T14:18:27.000Z</time>
      </trkpt>
      <trkpt lat="49.49442" lon="-1.59101">
        <ele>125.8</ele>
        <time>2026-03-30T14:18:28.000Z</time>
      </trkpt>
      <trkpt lat="49.49444" lon="-1.591">
        <ele>125.6</ele>
        <time>2026-03-30T14:18:29.000Z</time>
      </trkpt>
      <trkpt lat="49.49446" lon="-1.59098">
        <ele>125</ele>
        <time>2026-03-30T14:18:30.000Z</time>
      </trkpt>
      <trkpt lat="49.49447" lon="-1.59098">
        <ele>123.5</ele>
        <time>2026-03-30T14:18:31.000Z</time>
      </trkpt>
      <trkpt lat="49.49449" lon="-1.59098">
        <ele>122.9</ele>
        <time>2026-03-30T14:18:32.000Z</time>
      </trkpt>
      <trkpt lat="49.4945" lon="-1.591">
        <ele>119.7</ele>
        <time>2026-03-30T14:18:33.000Z</time>
      </trkpt>
      <trkpt lat="49.49451" lon="-1.59103">
        <ele>117.3</ele>
        <time>2026-03-30T14:18:34.000Z</time>
      </trkpt>
      <trkpt lat="49.49452" lon="-1.59102">
        <ele>118</ele>
        <time>2026-03-30T14:18:35.000Z</time>
      </trkpt>
      <trkpt lat="49.49454" lon="-1.59101">
        <ele>117.4</ele>
        <time>2026-03-30T14:18:36.000Z</time>
      </trkpt>
      <trkpt lat="49.49455" lon="-1.59101">
        <ele>116.8</ele>
        <time>2026-03-30T14:18:37.000Z</time>
      </trkpt>
      <trkpt lat="49.49456" lon="-1.591">
        <ele>117</ele>
        <time>2026-03-30T14:18:38.000Z</time>
      </trkpt>
      <trkpt lat="49.49457" lon="-1.59098">
        <ele>117.7</ele>
        <time>2026-03-30T14:18:39.000Z</time>
      </trkpt>
      <trkpt lat="49.49459" lon="-1.59097">
        <ele>118.9</ele>
        <time>2026-03-30T14:18:40.000Z</time>
      </trkpt>
      <trkpt lat="49.4946" lon="-1.59095">
        <ele>119.6</ele>
        <time>2026-03-30T14:18:41.000Z</time>
      </trkpt>
      <trkpt lat="49.49461" lon="-1.59094">
        <ele>119.4</ele>
        <time>2026-03-30T14:18:42.000Z</time>
      </trkpt>
      <trkpt lat="49.49463" lon="-1.59093">
        <ele>120.3</ele>
        <time>2026-03-30T14:18:43.000Z</time>
      </trkpt>
      <trkpt lat="49.49464" lon="-1.59091">
        <ele>120.8</ele>
        <time>2026-03-30T14:18:44.000Z</time>
      </trkpt>
      <trkpt lat="49.49465" lon="-1.59091">
        <ele>121.2</ele>
        <time>2026-03-30T14:18:45.000Z</time>
      </trkpt>
      <trkpt lat="49.49466" lon="-1.5909">
        <ele>121.4</ele>
        <time>2026-03-30T14:18:46.000Z</time>
      </trkpt>
      <trkpt lat="49.49467" lon="-1.59089">
        <ele>121.8</ele>
        <time>2026-03-30T14:18:47.000Z</time>
      </trkpt>
      <trkpt lat="49.49468" lon="-1.59087">
        <ele>121.7</ele>
        <time>2026-03-30T14:18:48.000Z</time>
      </trkpt>
      <trkpt lat="49.4947" lon="-1.59086">
        <ele>121.8</ele>
        <time>2026-03-30T14:18:49.000Z</time>
      </trkpt>
      <trkpt lat="49.4947" lon="-1.59084">
        <ele>122.1</ele>
        <time>2026-03-30T14:18:50.000Z</time>
      </trkpt>
      <trkpt lat="49.49471" lon="-1.59083">
        <ele>122.1</ele>
        <time>2026-03-30T14:18:51.000Z</time>
      </trkpt>
      <trkpt lat="49.49473" lon="-1.59081">
        <ele>122.8</ele>
        <time>2026-03-30T14:18:52.000Z</time>
      </trkpt>
      <trkpt lat="49.49474" lon="-1.59079">
        <ele>122.5</ele>
        <time>2026-03-30T14:18:53.000Z</time>
      </trkpt>
      <trkpt lat="49.49474" lon="-1.59078">
        <ele>122.8</ele>
        <time>2026-03-30T14:18:54.000Z</time>
      </trkpt>
      <trkpt lat="49.49475" lon="-1.59076">
        <ele>123.2</ele>
        <time>2026-03-30T14:18:55.000Z</time>
      </trkpt>
      <trkpt lat="49.49476" lon="-1.59075">
        <ele>123.3</ele>
        <time>2026-03-30T14:18:56.000Z</time>
      </trkpt>
      <trkpt lat="49.49477" lon="-1.59073">
        <ele>125</ele>
        <time>2026-03-30T14:18:57.000Z</time>
      </trkpt>
      <trkpt lat="49.49478" lon="-1.59072">
        <ele>125.7</ele>
        <time>2026-03-30T14:18:58.000Z</time>
      </trkpt>
      <trkpt lat="49.4948" lon="-1.59071">
        <ele>125.8</ele>
        <time>2026-03-30T14:18:59.000Z</time>
      </trkpt>
      <trkpt lat="49.49481" lon="-1.5907">
        <ele>124.5</ele>
        <time>2026-03-30T14:19:00.000Z</time>
      </trkpt>
      <trkpt lat="49.49482" lon="-1.59069">
        <ele>124.9</ele>
        <time>2026-03-30T14:19:01.000Z</time>
      </trkpt>
      <trkpt lat="49.49484" lon="-1.59068">
        <ele>124.8</ele>
        <time>2026-03-30T14:19:02.000Z</time>
      </trkpt>
      <trkpt lat="49.49485" lon="-1.59067">
        <ele>124.6</ele>
        <time>2026-03-30T14:19:03.000Z</time>
      </trkpt>
      <trkpt lat="49.49486" lon="-1.59067">
        <ele>123.6</ele>
        <time>2026-03-30T14:19:04.000Z</time>
      </trkpt>
      <trkpt lat="49.49488" lon="-1.59066">
        <ele>123.3</ele>
        <time>2026-03-30T14:19:05.000Z</time>
      </trkpt>
      <trkpt lat="49.49489" lon="-1.59065">
        <ele>122.2</ele>
        <time>2026-03-30T14:19:06.000Z</time>
      </trkpt>
      <trkpt lat="49.4949" lon="-1.59064">
        <ele>122.6</ele>
        <time>2026-03-30T14:19:07.000Z</time>
      </trkpt>
      <trkpt lat="49.49492" lon="-1.59063">
        <ele>122.1</ele>
        <time>2026-03-30T14:19:08.000Z</time>
      </trkpt>
      <trkpt lat="49.49493" lon="-1.59062">
        <ele>122.4</ele>
        <time>2026-03-30T14:19:09.000Z</time>
      </trkpt>
      <trkpt lat="49.49494" lon="-1.59061">
        <ele>122.6</ele>
        <time>2026-03-30T14:19:10.000Z</time>
      </trkpt>
      <trkpt lat="49.49495" lon="-1.5906">
        <ele>122.7</ele>
        <time>2026-03-30T14:19:11.000Z</time>
      </trkpt>
      <trkpt lat="49.49497" lon="-1.59059">
        <ele>122.5</ele>
        <time>2026-03-30T14:19:12.000Z</time>
      </trkpt>
      <trkpt lat="49.49498" lon="-1.59058">
        <ele>122.3</ele>
        <time>2026-03-30T14:19:13.000Z</time>
      </trkpt>
      <trkpt lat="49.49499" lon="-1.59057">
        <ele>122.6</ele>
        <time>2026-03-30T14:19:14.000Z</time>
      </trkpt>
      <trkpt lat="49.495" lon="-1.59056">
        <ele>122.6</ele>
        <time>2026-03-30T14:19:15.000Z</time>
      </trkpt>
      <trkpt lat="49.49501" lon="-1.59055">
        <ele>122.8</ele>
        <time>2026-03-30T14:19:16.000Z</time>
      </trkpt>
      <trkpt lat="49.49503" lon="-1.59055">
        <ele>122.2</ele>
        <time>2026-03-30T14:19:17.000Z</time>
      </trkpt>
      <trkpt lat="49.49505" lon="-1.59055">
        <ele>121.9</ele>
        <time>2026-03-30T14:19:18.000Z</time>
      </trkpt>
      <trkpt lat="49.49506" lon="-1.59054">
        <ele>122.4</ele>
        <time>2026-03-30T14:19:19.000Z</time>
      </trkpt>
      <trkpt lat="49.49508" lon="-1.59053">
        <ele>121.4</ele>
        <time>2026-03-30T14:19:20.000Z</time>
      </trkpt>
      <trkpt lat="49.49509" lon="-1.59053">
        <ele>121.1</ele>
        <time>2026-03-30T14:19:21.000Z</time>
      </trkpt>
      <trkpt lat="49.4951" lon="-1.59051">
        <ele>121</ele>
        <time>2026-03-30T14:19:22.000Z</time>
      </trkpt>
      <trkpt lat="49.49512" lon="-1.59051">
        <ele>120.8</ele>
        <time>2026-03-30T14:19:23.000Z</time>
      </trkpt>
      <trkpt lat="49.49512" lon="-1.5905">
        <ele>120.3</ele>
        <time>2026-03-30T14:19:24.000Z</time>
      </trkpt>
      <trkpt lat="49.49513" lon="-1.59049">
        <ele>120.4</ele>
        <time>2026-03-30T14:19:25.000Z</time>
      </trkpt>
      <trkpt lat="49.49514" lon="-1.59048">
        <ele>120.3</ele>
        <time>2026-03-30T14:19:26.000Z</time>
      </trkpt>
      <trkpt lat="49.49515" lon="-1.59046">
        <ele>120.5</ele>
        <time>2026-03-30T14:19:27.000Z</time>
      </trkpt>
      <trkpt lat="49.49516" lon="-1.59044">
        <ele>120.9</ele>
        <time>2026-03-30T14:19:28.000Z</time>
      </trkpt>
      <trkpt lat="49.49517" lon="-1.59042">
        <ele>121.4</ele>
        <time>2026-03-30T14:19:29.000Z</time>
      </trkpt>
      <trkpt lat="49.49518" lon="-1.59041">
        <ele>121.2</ele>
        <time>2026-03-30T14:19:30.000Z</time>
      </trkpt>
      <trkpt lat="49.49519" lon="-1.59039">
        <ele>121</ele>
        <time>2026-03-30T14:19:31.000Z</time>
      </trkpt>
      <trkpt lat="49.49521" lon="-1.59038">
        <ele>120.4</ele>
        <time>2026-03-30T14:19:32.000Z</time>
      </trkpt>
      <trkpt lat="49.49522" lon="-1.59037">
        <ele>121.1</ele>
        <time>2026-03-30T14:19:33.000Z</time>
      </trkpt>
      <trkpt lat="49.49523" lon="-1.59036">
        <ele>121.2</ele>
        <time>2026-03-30T14:19:34.000Z</time>
      </trkpt>
      <trkpt lat="49.49523" lon="-1.59034">
        <ele>122.1</ele>
        <time>2026-03-30T14:19:35.000Z</time>
      </trkpt>
      <trkpt lat="49.49525" lon="-1.59032">
        <ele>121.8</ele>
        <time>2026-03-30T14:19:36.000Z</time>
      </trkpt>
      <trkpt lat="49.49526" lon="-1.59031">
        <ele>121.8</ele>
        <time>2026-03-30T14:19:37.000Z</time>
      </trkpt>
      <trkpt lat="49.49526" lon="-1.59029">
        <ele>121.9</ele>
        <time>2026-03-30T14:19:38.000Z</time>
      </trkpt>
      <trkpt lat="49.49528" lon="-1.59028">
        <ele>122</ele>
        <time>2026-03-30T14:19:39.000Z</time>
      </trkpt>
      <trkpt lat="49.49528" lon="-1.59026">
        <ele>121.8</ele>
        <time>2026-03-30T14:19:40.000Z</time>
      </trkpt>
      <trkpt lat="49.49529" lon="-1.59025">
        <ele>122</ele>
        <time>2026-03-30T14:19:41.000Z</time>
      </trkpt>
      <trkpt lat="49.4953" lon="-1.59023">
        <ele>122.1</ele>
        <time>2026-03-30T14:19:42.000Z</time>
      </trkpt>
      <trkpt lat="49.49531" lon="-1.59022">
        <ele>122</ele>
        <time>2026-03-30T14:19:43.000Z</time>
      </trkpt>
      <trkpt lat="49.49532" lon="-1.59022">
        <ele>121.1</ele>
        <time>2026-03-30T14:19:44.000Z</time>
      </trkpt>
      <trkpt lat="49.49533" lon="-1.59021">
        <ele>120.9</ele>
        <time>2026-03-30T14:19:45.000Z</time>
      </trkpt>
      <trkpt lat="49.49534" lon="-1.5902">
        <ele>121.3</ele>
        <time>2026-03-30T14:19:46.000Z</time>
      </trkpt>
      <trkpt lat="49.49535" lon="-1.59018">
        <ele>121.7</ele>
        <time>2026-03-30T14:19:47.000Z</time>
      </trkpt>
      <trkpt lat="49.49536" lon="-1.59015">
        <ele>122.3</ele>
        <time>2026-03-30T14:19:48.000Z</time>
      </trkpt>
      <trkpt lat="49.49537" lon="-1.59014">
        <ele>121.9</ele>
        <time>2026-03-30T14:19:49.000Z</time>
      </trkpt>
      <trkpt lat="49.49538" lon="-1.59012">
        <ele>121.3</ele>
        <time>2026-03-30T14:19:50.000Z</time>
      </trkpt>
      <trkpt lat="49.49539" lon="-1.59011">
        <ele>120.4</ele>
        <time>2026-03-30T14:19:51.000Z</time>
      </trkpt>
      <trkpt lat="49.49539" lon="-1.5901">
        <ele>120.5</ele>
        <time>2026-03-30T14:19:52.000Z</time>
      </trkpt>
      <trkpt lat="49.4954" lon="-1.59009">
        <ele>121.2</ele>
        <time>2026-03-30T14:19:53.000Z</time>
      </trkpt>
      <trkpt lat="49.49541" lon="-1.59007">
        <ele>122.1</ele>
        <time>2026-03-30T14:19:54.000Z</time>
      </trkpt>
      <trkpt lat="49.49542" lon="-1.59005">
        <ele>122.6</ele>
        <time>2026-03-30T14:19:55.000Z</time>
      </trkpt>
      <trkpt lat="49.49543" lon="-1.59003">
        <ele>122.9</ele>
        <time>2026-03-30T14:19:56.000Z</time>
      </trkpt>
      <trkpt lat="49.49544" lon="-1.59">
        <ele>123.5</ele>
        <time>2026-03-30T14:19:57.000Z</time>
      </trkpt>
      <trkpt lat="49.49544" lon="-1.58998">
        <ele>123.8</ele>
        <time>2026-03-30T14:19:58.000Z</time>
      </trkpt>
      <trkpt lat="49.49545" lon="-1.58996">
        <ele>124.3</ele>
        <time>2026-03-30T14:19:59.000Z</time>
      </trkpt>
      <trkpt lat="49.49546" lon="-1.58994">
        <ele>125.2</ele>
        <time>2026-03-30T14:20:00.000Z</time>
      </trkpt>
      <trkpt lat="49.49547" lon="-1.58993">
        <ele>125.5</ele>
        <time>2026-03-30T14:20:01.000Z</time>
      </trkpt>
      <trkpt lat="49.49548" lon="-1.58991">
        <ele>125.2</ele>
        <time>2026-03-30T14:20:02.000Z</time>
      </trkpt>
      <trkpt lat="49.49548" lon="-1.5899">
        <ele>125.7</ele>
        <time>2026-03-30T14:20:03.000Z</time>
      </trkpt>
      <trkpt lat="49.49549" lon="-1.58987">
        <ele>126.5</ele>
        <time>2026-03-30T14:20:04.000Z</time>
      </trkpt>
      <trkpt lat="49.4955" lon="-1.58985">
        <ele>126.5</ele>
        <time>2026-03-30T14:20:05.000Z</time>
      </trkpt>
      <trkpt lat="49.49551" lon="-1.58983">
        <ele>126.6</ele>
        <time>2026-03-30T14:20:06.000Z</time>
      </trkpt>
      <trkpt lat="49.49552" lon="-1.58982">
        <ele>126.7</ele>
        <time>2026-03-30T14:20:07.000Z</time>
      </trkpt>
      <trkpt lat="49.49552" lon="-1.5898">
        <ele>127</ele>
        <time>2026-03-30T14:20:08.000Z</time>
      </trkpt>
      <trkpt lat="49.49553" lon="-1.58978">
        <ele>127.4</ele>
        <time>2026-03-30T14:20:09.000Z</time>
      </trkpt>
      <trkpt lat="49.49554" lon="-1.58977">
        <ele>127.4</ele>
        <time>2026-03-30T14:20:10.000Z</time>
      </trkpt>
      <trkpt lat="49.49555" lon="-1.58975">
        <ele>127.4</ele>
        <time>2026-03-30T14:20:11.000Z</time>
      </trkpt>
      <trkpt lat="49.49556" lon="-1.58974">
        <ele>127.4</ele>
        <time>2026-03-30T14:20:12.000Z</time>
      </trkpt>
      <trkpt lat="49.49558" lon="-1.58972">
        <ele>127.1</ele>
        <time>2026-03-30T14:20:13.000Z</time>
      </trkpt>
      <trkpt lat="49.49559" lon="-1.58971">
        <ele>126.7</ele>
        <time>2026-03-30T14:20:14.000Z</time>
      </trkpt>
      <trkpt lat="49.4956" lon="-1.5897">
        <ele>126.6</ele>
        <time>2026-03-30T14:20:15.000Z</time>
      </trkpt>
      <trkpt lat="49.49561" lon="-1.58969">
        <ele>126.7</ele>
        <time>2026-03-30T14:20:16.000Z</time>
      </trkpt>
      <trkpt lat="49.49562" lon="-1.58967">
        <ele>127.2</ele>
        <time>2026-03-30T14:20:17.000Z</time>
      </trkpt>
      <trkpt lat="49.49563" lon="-1.58966">
        <ele>127.6</ele>
        <time>2026-03-30T14:20:18.000Z</time>
      </trkpt>
      <trkpt lat="49.49564" lon="-1.58964">
        <ele>127.7</ele>
        <time>2026-03-30T14:20:19.000Z</time>
      </trkpt>
      <trkpt lat="49.49565" lon="-1.58962">
        <ele>127.9</ele>
        <time>2026-03-30T14:20:20.000Z</time>
      </trkpt>
      <trkpt lat="49.49566" lon="-1.5896">
        <ele>128.6</ele>
        <time>2026-03-30T14:20:21.000Z</time>
      </trkpt>
      <trkpt lat="49.49567" lon="-1.58959">
        <ele>129.3</ele>
        <time>2026-03-30T14:20:22.000Z</time>
      </trkpt>
      <trkpt lat="49.49568" lon="-1.58957">
        <ele>129</ele>
        <time>2026-03-30T14:20:23.000Z</time>
      </trkpt>
      <trkpt lat="49.49568" lon="-1.58956">
        <ele>128.7</ele>
        <time>2026-03-30T14:20:24.000Z</time>
      </trkpt>
      <trkpt lat="49.49569" lon="-1.58954">
        <ele>128.4</ele>
        <time>2026-03-30T14:20:25.000Z</time>
      </trkpt>
      <trkpt lat="49.4957" lon="-1.58952">
        <ele>127.9</ele>
        <time>2026-03-30T14:20:26.000Z</time>
      </trkpt>
      <trkpt lat="49.49571" lon="-1.58951">
        <ele>127.3</ele>
        <time>2026-03-30T14:20:27.000Z</time>
      </trkpt>
      <trkpt lat="49.49572" lon="-1.58949">
        <ele>127.4</ele>
        <time>2026-03-30T14:20:28.000Z</time>
      </trkpt>
      <trkpt lat="49.49573" lon="-1.58948">
        <ele>127</ele>
        <time>2026-03-30T14:20:29.000Z</time>
      </trkpt>
      <trkpt lat="49.49573" lon="-1.58946">
        <ele>127.1</ele>
        <time>2026-03-30T14:20:30.000Z</time>
      </trkpt>
      <trkpt lat="49.49574" lon="-1.58944">
        <ele>127.2</ele>
        <time>2026-03-30T14:20:31.000Z</time>
      </trkpt>
      <trkpt lat="49.49575" lon="-1.58943">
        <ele>127.3</ele>
        <time>2026-03-30T14:20:32.000Z</time>
      </trkpt>
      <trkpt lat="49.49576" lon="-1.58941">
        <ele>127.1</ele>
        <time>2026-03-30T14:20:33.000Z</time>
      </trkpt>
      <trkpt lat="49.49577" lon="-1.58939">
        <ele>127.7</ele>
        <time>2026-03-30T14:20:34.000Z</time>
      </trkpt>
      <trkpt lat="49.49578" lon="-1.58937">
        <ele>128.1</ele>
        <time>2026-03-30T14:20:35.000Z</time>
      </trkpt>
      <trkpt lat="49.49579" lon="-1.58935">
        <ele>128.1</ele>
        <time>2026-03-30T14:20:36.000Z</time>
      </trkpt>
      <trkpt lat="49.49579" lon="-1.58934">
        <ele>128.1</ele>
        <time>2026-03-30T14:20:37.000Z</time>
      </trkpt>
      <trkpt lat="49.4958" lon="-1.58932">
        <ele>128.1</ele>
        <time>2026-03-30T14:20:38.000Z</time>
      </trkpt>
      <trkpt lat="49.49581" lon="-1.5893">
        <ele>128</ele>
        <time>2026-03-30T14:20:39.000Z</time>
      </trkpt>
      <trkpt lat="49.49582" lon="-1.58928">
        <ele>127.8</ele>
        <time>2026-03-30T14:20:40.000Z</time>
      </trkpt>
      <trkpt lat="49.49583" lon="-1.58927">
        <ele>127.5</ele>
        <time>2026-03-30T14:20:41.000Z</time>
      </trkpt>
      <trkpt lat="49.49584" lon="-1.58926">
        <ele>126.9</ele>
        <time>2026-03-30T14:20:42.000Z</time>
      </trkpt>
      <trkpt lat="49.49586" lon="-1.58925">
        <ele>126.7</ele>
        <time>2026-03-30T14:20:43.000Z</time>
      </trkpt>
      <trkpt lat="49.49587" lon="-1.58924">
        <ele>126.4</ele>
        <time>2026-03-30T14:20:44.000Z</time>
      </trkpt>
      <trkpt lat="49.49589" lon="-1.58924">
        <ele>125.5</ele>
        <time>2026-03-30T14:20:45.000Z</time>
      </trkpt>
      <trkpt lat="49.4959" lon="-1.58923">
        <ele>125</ele>
        <time>2026-03-30T14:20:46.000Z</time>
      </trkpt>
      <trkpt lat="49.49591" lon="-1.58923">
        <ele>124.6</ele>
        <time>2026-03-30T14:20:47.000Z</time>
      </trkpt>
      <trkpt lat="49.49593" lon="-1.58921">
        <ele>124.4</ele>
        <time>2026-03-30T14:20:48.000Z</time>
      </trkpt>
      <trkpt lat="49.49594" lon="-1.5892">
        <ele>124.2</ele>
        <time>2026-03-30T14:20:49.000Z</time>
      </trkpt>
      <trkpt lat="49.49595" lon="-1.58919">
        <ele>124</ele>
        <time>2026-03-30T14:20:50.000Z</time>
      </trkpt>
      <trkpt lat="49.49596" lon="-1.58919">
        <ele>124.3</ele>
        <time>2026-03-30T14:20:51.000Z</time>
      </trkpt>
      <trkpt lat="49.49598" lon="-1.58919">
        <ele>124.5</ele>
        <time>2026-03-30T14:20:52.000Z</time>
      </trkpt>
      <trkpt lat="49.49599" lon="-1.58919">
        <ele>124.7</ele>
        <time>2026-03-30T14:20:53.000Z</time>
      </trkpt>
      <trkpt lat="49.49601" lon="-1.58919">
        <ele>124.7</ele>
        <time>2026-03-30T14:20:54.000Z</time>
      </trkpt>
      <trkpt lat="49.49602" lon="-1.58919">
        <ele>124.8</ele>
        <time>2026-03-30T14:20:55.000Z</time>
      </trkpt>
      <trkpt lat="49.49604" lon="-1.58919">
        <ele>124.5</ele>
        <time>2026-03-30T14:20:56.000Z</time>
      </trkpt>
      <trkpt lat="49.49605" lon="-1.58919">
        <ele>124.6</ele>
        <time>2026-03-30T14:20:57.000Z</time>
      </trkpt>
      <trkpt lat="49.49607" lon="-1.58919">
        <ele>124.6</ele>
        <time>2026-03-30T14:20:58.000Z</time>
      </trkpt>
      <trkpt lat="49.49608" lon="-1.58919">
        <ele>124.5</ele>
        <time>2026-03-30T14:20:59.000Z</time>
      </trkpt>
      <trkpt lat="49.49609" lon="-1.58919">
        <ele>124.3</ele>
        <time>2026-03-30T14:21:00.000Z</time>
      </trkpt>
      <trkpt lat="49.49611" lon="-1.58919">
        <ele>124.6</ele>
        <time>2026-03-30T14:21:01.000Z</time>
      </trkpt>
      <trkpt lat="49.49612" lon="-1.58918">
        <ele>124.2</ele>
        <time>2026-03-30T14:21:02.000Z</time>
      </trkpt>
      <trkpt lat="49.49613" lon="-1.58918">
        <ele>123.9</ele>
        <time>2026-03-30T14:21:03.000Z</time>
      </trkpt>
      <trkpt lat="49.49615" lon="-1.58917">
        <ele>122.6</ele>
        <time>2026-03-30T14:21:04.000Z</time>
      </trkpt>
      <trkpt lat="49.49616" lon="-1.58917">
        <ele>122.4</ele>
        <time>2026-03-30T14:21:05.000Z</time>
      </trkpt>
      <trkpt lat="49.49617" lon="-1.58917">
        <ele>122.1</ele>
        <time>2026-03-30T14:21:06.000Z</time>
      </trkpt>
      <trkpt lat="49.49618" lon="-1.58916">
        <ele>122.2</ele>
        <time>2026-03-30T14:21:07.000Z</time>
      </trkpt>
      <trkpt lat="49.4962" lon="-1.58916">
        <ele>121.8</ele>
        <time>2026-03-30T14:21:08.000Z</time>
      </trkpt>
      <trkpt lat="49.4962" lon="-1.58915">
        <ele>121.3</ele>
        <time>2026-03-30T14:21:09.000Z</time>
      </trkpt>
      <trkpt lat="49.49621" lon="-1.58913">
        <ele>121.1</ele>
        <time>2026-03-30T14:21:10.000Z</time>
      </trkpt>
      <trkpt lat="49.49622" lon="-1.58912">
        <ele>121</ele>
        <time>2026-03-30T14:21:11.000Z</time>
      </trkpt>
      <trkpt lat="49.49623" lon="-1.5891">
        <ele>120.9</ele>
        <time>2026-03-30T14:21:12.000Z</time>
      </trkpt>
      <trkpt lat="49.49625" lon="-1.58908">
        <ele>120.6</ele>
        <time>2026-03-30T14:21:13.000Z</time>
      </trkpt>
      <trkpt lat="49.49626" lon="-1.58906">
        <ele>120.8</ele>
        <time>2026-03-30T14:21:14.000Z</time>
      </trkpt>
      <trkpt lat="49.49627" lon="-1.58904">
        <ele>121.2</ele>
        <time>2026-03-30T14:21:15.000Z</time>
      </trkpt>
      <trkpt lat="49.49628" lon="-1.58903">
        <ele>121.4</ele>
        <time>2026-03-30T14:21:16.000Z</time>
      </trkpt>
      <trkpt lat="49.49629" lon="-1.58902">
        <ele>121.5</ele>
        <time>2026-03-30T14:21:17.000Z</time>
      </trkpt>
      <trkpt lat="49.4963" lon="-1.58901">
        <ele>121.2</ele>
        <time>2026-03-30T14:21:18.000Z</time>
      </trkpt>
      <trkpt lat="49.49631" lon="-1.589">
        <ele>121.2</ele>
        <time>2026-03-30T14:21:19.000Z</time>
      </trkpt>
      <trkpt lat="49.49632" lon="-1.58899">
        <ele>120.9</ele>
        <time>2026-03-30T14:21:20.000Z</time>
      </trkpt>
      <trkpt lat="49.49634" lon="-1.58899">
        <ele>120.6</ele>
        <time>2026-03-30T14:21:21.000Z</time>
      </trkpt>
      <trkpt lat="49.49635" lon="-1.58899">
        <ele>120.9</ele>
        <time>2026-03-30T14:21:22.000Z</time>
      </trkpt>
      <trkpt lat="49.49637" lon="-1.58899">
        <ele>120.8</ele>
        <time>2026-03-30T14:21:23.000Z</time>
      </trkpt>
      <trkpt lat="49.49638" lon="-1.58899">
        <ele>120.5</ele>
        <time>2026-03-30T14:21:24.000Z</time>
      </trkpt>
      <trkpt lat="49.4964" lon="-1.589">
        <ele>120.4</ele>
        <time>2026-03-30T14:21:25.000Z</time>
      </trkpt>
      <trkpt lat="49.49641" lon="-1.58902">
        <ele>120.6</ele>
        <time>2026-03-30T14:21:26.000Z</time>
      </trkpt>
      <trkpt lat="49.49642" lon="-1.58904">
        <ele>120.1</ele>
        <time>2026-03-30T14:21:27.000Z</time>
      </trkpt>
      <trkpt lat="49.49642" lon="-1.58906">
        <ele>119.6</ele>
        <time>2026-03-30T14:21:28.000Z</time>
      </trkpt>
      <trkpt lat="49.49643" lon="-1.58908">
        <ele>119.1</ele>
        <time>2026-03-30T14:21:29.000Z</time>
      </trkpt>
      <trkpt lat="49.49643" lon="-1.5891">
        <ele>119.3</ele>
        <time>2026-03-30T14:21:30.000Z</time>
      </trkpt>
      <trkpt lat="49.49643" lon="-1.58912">
        <ele>120</ele>
        <time>2026-03-30T14:21:31.000Z</time>
      </trkpt>
      <trkpt lat="49.49644" lon="-1.58914">
        <ele>120.3</ele>
        <time>2026-03-30T14:21:32.000Z</time>
      </trkpt>
      <trkpt lat="49.49644" lon="-1.58916">
        <ele>120.8</ele>
        <time>2026-03-30T14:21:33.000Z</time>
      </trkpt>
      <trkpt lat="49.49644" lon="-1.58918">
        <ele>121.6</ele>
        <time>2026-03-30T14:21:34.000Z</time>
      </trkpt>
      <trkpt lat="49.49645" lon="-1.5892">
        <ele>121.6</ele>
        <time>2026-03-30T14:21:35.000Z</time>
      </trkpt>
      <trkpt lat="49.49645" lon="-1.58922">
        <ele>122</ele>
        <time>2026-03-30T14:21:36.000Z</time>
      </trkpt>
      <trkpt lat="49.49645" lon="-1.58924">
        <ele>122.3</ele>
        <time>2026-03-30T14:21:37.000Z</time>
      </trkpt>
      <trkpt lat="49.49646" lon="-1.58926">
        <ele>122.5</ele>
        <time>2026-03-30T14:21:38.000Z</time>
      </trkpt>
      <trkpt lat="49.49646" lon="-1.58928">
        <ele>121.9</ele>
        <time>2026-03-30T14:21:39.000Z</time>
      </trkpt>
      <trkpt lat="49.49647" lon="-1.5893">
        <ele>121.1</ele>
        <time>2026-03-30T14:21:40.000Z</time>
      </trkpt>
      <trkpt lat="49.49648" lon="-1.58932">
        <ele>120.5</ele>
        <time>2026-03-30T14:21:41.000Z</time>
      </trkpt>
      <trkpt lat="49.49648" lon="-1.58934">
        <ele>121</ele>
        <time>2026-03-30T14:21:42.000Z</time>
      </trkpt>
      <trkpt lat="49.49648" lon="-1.58937">
        <ele>121</ele>
        <time>2026-03-30T14:21:43.000Z</time>
      </trkpt>
      <trkpt lat="49.49649" lon="-1.58938">
        <ele>120.5</ele>
        <time>2026-03-30T14:21:44.000Z</time>
      </trkpt>
      <trkpt lat="49.4965" lon="-1.58939">
        <ele>120.4</ele>
        <time>2026-03-30T14:21:45.000Z</time>
      </trkpt>
      <trkpt lat="49.49651" lon="-1.5894">
        <ele>120.2</ele>
        <time>2026-03-30T14:21:46.000Z</time>
      </trkpt>
      <trkpt lat="49.49651" lon="-1.58942">
        <ele>120.1</ele>
        <time>2026-03-30T14:21:47.000Z</time>
      </trkpt>
      <trkpt lat="49.49652" lon="-1.58943">
        <ele>119.8</ele>
        <time>2026-03-30T14:21:48.000Z</time>
      </trkpt>
      <trkpt lat="49.49653" lon="-1.58945">
        <ele>119.1</ele>
        <time>2026-03-30T14:21:49.000Z</time>
      </trkpt>
      <trkpt lat="49.49654" lon="-1.58946">
        <ele>118.9</ele>
        <time>2026-03-30T14:21:50.000Z</time>
      </trkpt>
      <trkpt lat="49.49655" lon="-1.58948">
        <ele>119</ele>
        <time>2026-03-30T14:21:51.000Z</time>
      </trkpt>
      <trkpt lat="49.49656" lon="-1.58949">
        <ele>119.5</ele>
        <time>2026-03-30T14:21:52.000Z</time>
      </trkpt>
      <trkpt lat="49.49657" lon="-1.58951">
        <ele>120.3</ele>
        <time>2026-03-30T14:21:53.000Z</time>
      </trkpt>
      <trkpt lat="49.49659" lon="-1.58952">
        <ele>120.9</ele>
        <time>2026-03-30T14:21:54.000Z</time>
      </trkpt>
      <trkpt lat="49.4966" lon="-1.58954">
        <ele>121.3</ele>
        <time>2026-03-30T14:21:55.000Z</time>
      </trkpt>
      <trkpt lat="49.49661" lon="-1.58956">
        <ele>121.4</ele>
        <time>2026-03-30T14:21:56.000Z</time>
      </trkpt>
      <trkpt lat="49.49661" lon="-1.58958">
        <ele>122</ele>
        <time>2026-03-30T14:21:57.000Z</time>
      </trkpt>
      <trkpt lat="49.49662" lon="-1.5896">
        <ele>122.2</ele>
        <time>2026-03-30T14:21:58.000Z</time>
      </trkpt>
      <trkpt lat="49.49664" lon="-1.58962">
        <ele>121.1</ele>
        <time>2026-03-30T14:21:59.000Z</time>
      </trkpt>
      <trkpt lat="49.49665" lon="-1.58964">
        <ele>120.2</ele>
        <time>2026-03-30T14:22:00.000Z</time>
      </trkpt>
      <trkpt lat="49.49666" lon="-1.58965">
        <ele>120.1</ele>
        <time>2026-03-30T14:22:01.000Z</time>
      </trkpt>
      <trkpt lat="49.49667" lon="-1.58967">
        <ele>118.9</ele>
        <time>2026-03-30T14:22:02.000Z</time>
      </trkpt>
      <trkpt lat="49.49668" lon="-1.58968">
        <ele>118.4</ele>
        <time>2026-03-30T14:22:03.000Z</time>
      </trkpt>
      <trkpt lat="49.49669" lon="-1.5897">
        <ele>119</ele>
        <time>2026-03-30T14:22:04.000Z</time>
      </trkpt>
      <trkpt lat="49.4967" lon="-1.58972">
        <ele>119.6</ele>
        <time>2026-03-30T14:22:05.000Z</time>
      </trkpt>
      <trkpt lat="49.49672" lon="-1.58973">
        <ele>120.6</ele>
        <time>2026-03-30T14:22:06.000Z</time>
      </trkpt>
      <trkpt lat="49.49673" lon="-1.58975">
        <ele>120.9</ele>
        <time>2026-03-30T14:22:07.000Z</time>
      </trkpt>
      <trkpt lat="49.49673" lon="-1.58976">
        <ele>120.7</ele>
        <time>2026-03-30T14:22:08.000Z</time>
      </trkpt>
      <trkpt lat="49.49675" lon="-1.58978">
        <ele>120.4</ele>
        <time>2026-03-30T14:22:09.000Z</time>
      </trkpt>
      <trkpt lat="49.49676" lon="-1.58979">
        <ele>121.3</ele>
        <time>2026-03-30T14:22:10.000Z</time>
      </trkpt>
      <trkpt lat="49.49677" lon="-1.5898">
        <ele>122</ele>
        <time>2026-03-30T14:22:11.000Z</time>
      </trkpt>
      <trkpt lat="49.49678" lon="-1.58981">
        <ele>121.6</ele>
        <time>2026-03-30T14:22:12.000Z</time>
      </trkpt>
      <trkpt lat="49.49679" lon="-1.58982">
        <ele>122</ele>
        <time>2026-03-30T14:22:13.000Z</time>
      </trkpt>
      <trkpt lat="49.49681" lon="-1.58984">
        <ele>121.5</ele>
        <time>2026-03-30T14:22:14.000Z</time>
      </trkpt>
      <trkpt lat="49.49682" lon="-1.58985">
        <ele>121.8</ele>
        <time>2026-03-30T14:22:15.000Z</time>
      </trkpt>
      <trkpt lat="49.49683" lon="-1.58986">
        <ele>122.8</ele>
        <time>2026-03-30T14:22:16.000Z</time>
      </trkpt>
      <trkpt lat="49.49684" lon="-1.58987">
        <ele>122.3</ele>
        <time>2026-03-30T14:22:17.000Z</time>
      </trkpt>
      <trkpt lat="49.49685" lon="-1.58989">
        <ele>123</ele>
        <time>2026-03-30T14:22:18.000Z</time>
      </trkpt>
      <trkpt lat="49.49686" lon="-1.5899">
        <ele>123.7</ele>
        <time>2026-03-30T14:22:19.000Z</time>
      </trkpt>
      <trkpt lat="49.49687" lon="-1.58991">
        <ele>123.4</ele>
        <time>2026-03-30T14:22:20.000Z</time>
      </trkpt>
      <trkpt lat="49.49688" lon="-1.58993">
        <ele>123.7</ele>
        <time>2026-03-30T14:22:21.000Z</time>
      </trkpt>
      <trkpt lat="49.49689" lon="-1.58994">
        <ele>124</ele>
        <time>2026-03-30T14:22:22.000Z</time>
      </trkpt>
      <trkpt lat="49.49691" lon="-1.58994">
        <ele>124</ele>
        <time>2026-03-30T14:22:23.000Z</time>
      </trkpt>
      <trkpt lat="49.49692" lon="-1.58995">
        <ele>123.2</ele>
        <time>2026-03-30T14:22:24.000Z</time>
      </trkpt>
      <trkpt lat="49.49693" lon="-1.58995">
        <ele>122.7</ele>
        <time>2026-03-30T14:22:25.000Z</time>
      </trkpt>
      <trkpt lat="49.49694" lon="-1.58996">
        <ele>122.5</ele>
        <time>2026-03-30T14:22:26.000Z</time>
      </trkpt>
      <trkpt lat="49.49695" lon="-1.58997">
        <ele>122.2</ele>
        <time>2026-03-30T14:22:27.000Z</time>
      </trkpt>
      <trkpt lat="49.49697" lon="-1.58998">
        <ele>122.4</ele>
        <time>2026-03-30T14:22:28.000Z</time>
      </trkpt>
      <trkpt lat="49.49698" lon="-1.58999">
        <ele>121.6</ele>
        <time>2026-03-30T14:22:29.000Z</time>
      </trkpt>
      <trkpt lat="49.49699" lon="-1.59">
        <ele>121.7</ele>
        <time>2026-03-30T14:22:30.000Z</time>
      </trkpt>
      <trkpt lat="49.497" lon="-1.59001">
        <ele>121.8</ele>
        <time>2026-03-30T14:22:31.000Z</time>
      </trkpt>
      <trkpt lat="49.49702" lon="-1.59002">
        <ele>121.4</ele>
        <time>2026-03-30T14:22:32.000Z</time>
      </trkpt>
      <trkpt lat="49.49703" lon="-1.59003">
        <ele>121.2</ele>
        <time>2026-03-30T14:22:33.000Z</time>
      </trkpt>
      <trkpt lat="49.49705" lon="-1.59004">
        <ele>120.4</ele>
        <time>2026-03-30T14:22:34.000Z</time>
      </trkpt>
      <trkpt lat="49.49706" lon="-1.59006">
        <ele>119.8</ele>
        <time>2026-03-30T14:22:35.000Z</time>
      </trkpt>
      <trkpt lat="49.49707" lon="-1.59007">
        <ele>119.1</ele>
        <time>2026-03-30T14:22:36.000Z</time>
      </trkpt>
      <trkpt lat="49.49709" lon="-1.59008">
        <ele>118.2</ele>
        <time>2026-03-30T14:22:37.000Z</time>
      </trkpt>
      <trkpt lat="49.4971" lon="-1.5901">
        <ele>117.8</ele>
        <time>2026-03-30T14:22:38.000Z</time>
      </trkpt>
      <trkpt lat="49.49711" lon="-1.59011">
        <ele>117.6</ele>
        <time>2026-03-30T14:22:39.000Z</time>
      </trkpt>
      <trkpt lat="49.49712" lon="-1.59012">
        <ele>116.6</ele>
        <time>2026-03-30T14:22:40.000Z</time>
      </trkpt>
      <trkpt lat="49.49713" lon="-1.59013">
        <ele>116.8</ele>
        <time>2026-03-30T14:22:41.000Z</time>
      </trkpt>
      <trkpt lat="49.49714" lon="-1.59014">
        <ele>116.7</ele>
        <time>2026-03-30T14:22:42.000Z</time>
      </trkpt>
      <trkpt lat="49.49715" lon="-1.59016">
        <ele>116.5</ele>
        <time>2026-03-30T14:22:43.000Z</time>
      </trkpt>
      <trkpt lat="49.49716" lon="-1.59017">
        <ele>116.1</ele>
        <time>2026-03-30T14:22:44.000Z</time>
      </trkpt>
      <trkpt lat="49.49717" lon="-1.59019">
        <ele>116.6</ele>
        <time>2026-03-30T14:22:45.000Z</time>
      </trkpt>
      <trkpt lat="49.49718" lon="-1.5902">
        <ele>117</ele>
        <time>2026-03-30T14:22:46.000Z</time>
      </trkpt>
      <trkpt lat="49.49719" lon="-1.59021">
        <ele>117.2</ele>
        <time>2026-03-30T14:22:47.000Z</time>
      </trkpt>
      <trkpt lat="49.4972" lon="-1.59022">
        <ele>117.4</ele>
        <time>2026-03-30T14:22:48.000Z</time>
      </trkpt>
      <trkpt lat="49.49721" lon="-1.59024">
        <ele>117.1</ele>
        <time>2026-03-30T14:22:49.000Z</time>
      </trkpt>
      <trkpt lat="49.49723" lon="-1.59025">
        <ele>116.9</ele>
        <time>2026-03-30T14:22:50.000Z</time>
      </trkpt>
      <trkpt lat="49.49724" lon="-1.59026">
        <ele>116.5</ele>
        <time>2026-03-30T14:22:51.000Z</time>
      </trkpt>
      <trkpt lat="49.49726" lon="-1.59028">
        <ele>116.1</ele>
        <time>2026-03-30T14:22:52.000Z</time>
      </trkpt>
      <trkpt lat="49.49727" lon="-1.59029">
        <ele>116.3</ele>
        <time>2026-03-30T14:22:53.000Z</time>
      </trkpt>
      <trkpt lat="49.49728" lon="-1.5903">
        <ele>115.8</ele>
        <time>2026-03-30T14:22:54.000Z</time>
      </trkpt>
      <trkpt lat="49.49729" lon="-1.59032">
        <ele>115.1</ele>
        <time>2026-03-30T14:22:55.000Z</time>
      </trkpt>
      <trkpt lat="49.49731" lon="-1.59033">
        <ele>115.3</ele>
        <time>2026-03-30T14:22:56.000Z</time>
      </trkpt>
      <trkpt lat="49.49732" lon="-1.59034">
        <ele>114.9</ele>
        <time>2026-03-30T14:22:57.000Z</time>
      </trkpt>
      <trkpt lat="49.49733" lon="-1.59036">
        <ele>114.4</ele>
        <time>2026-03-30T14:22:58.000Z</time>
      </trkpt>
      <trkpt lat="49.49734" lon="-1.59037">
        <ele>114.4</ele>
        <time>2026-03-30T14:22:59.000Z</time>
      </trkpt>
      <trkpt lat="49.49735" lon="-1.59038">
        <ele>114.7</ele>
        <time>2026-03-30T14:23:00.000Z</time>
      </trkpt>
      <trkpt lat="49.49736" lon="-1.5904">
        <ele>115</ele>
        <time>2026-03-30T14:23:01.000Z</time>
      </trkpt>
      <trkpt lat="49.49737" lon="-1.59041">
        <ele>114.7</ele>
        <time>2026-03-30T14:23:02.000Z</time>
      </trkpt>
      <trkpt lat="49.49738" lon="-1.59043">
        <ele>113.9</ele>
        <time>2026-03-30T14:23:03.000Z</time>
      </trkpt>
      <trkpt lat="49.49739" lon="-1.59044">
        <ele>114.3</ele>
        <time>2026-03-30T14:23:04.000Z</time>
      </trkpt>
      <trkpt lat="49.4974" lon="-1.59045">
        <ele>113.8</ele>
        <time>2026-03-30T14:23:05.000Z</time>
      </trkpt>
      <trkpt lat="49.49741" lon="-1.59047">
        <ele>113.5</ele>
        <time>2026-03-30T14:23:06.000Z</time>
      </trkpt>
      <trkpt lat="49.49742" lon="-1.59048">
        <ele>113.6</ele>
        <time>2026-03-30T14:23:07.000Z</time>
      </trkpt>
      <trkpt lat="49.49743" lon="-1.5905">
        <ele>114.3</ele>
        <time>2026-03-30T14:23:08.000Z</time>
      </trkpt>
      <trkpt lat="49.49744" lon="-1.59051">
        <ele>114.7</ele>
        <time>2026-03-30T14:23:09.000Z</time>
      </trkpt>
      <trkpt lat="49.49745" lon="-1.59052">
        <ele>114.4</ele>
        <time>2026-03-30T14:23:10.000Z</time>
      </trkpt>
      <trkpt lat="49.49746" lon="-1.59053">
        <ele>114.1</ele>
        <time>2026-03-30T14:23:11.000Z</time>
      </trkpt>
      <trkpt lat="49.49747" lon="-1.59055">
        <ele>113.9</ele>
        <time>2026-03-30T14:23:12.000Z</time>
      </trkpt>
      <trkpt lat="49.49748" lon="-1.59056">
        <ele>114</ele>
        <time>2026-03-30T14:23:13.000Z</time>
      </trkpt>
      <trkpt lat="49.49749" lon="-1.59057">
        <ele>113.6</ele>
        <time>2026-03-30T14:23:14.000Z</time>
      </trkpt>
      <trkpt lat="49.4975" lon="-1.59058">
        <ele>114.8</ele>
        <time>2026-03-30T14:23:15.000Z</time>
      </trkpt>
      <trkpt lat="49.49752" lon="-1.59059">
        <ele>114.9</ele>
        <time>2026-03-30T14:23:16.000Z</time>
      </trkpt>
      <trkpt lat="49.49753" lon="-1.59061">
        <ele>115.3</ele>
        <time>2026-03-30T14:23:17.000Z</time>
      </trkpt>
      <trkpt lat="49.49754" lon="-1.59062">
        <ele>115.7</ele>
        <time>2026-03-30T14:23:18.000Z</time>
      </trkpt>
      <trkpt lat="49.49755" lon="-1.59064">
        <ele>115.7</ele>
        <time>2026-03-30T14:23:19.000Z</time>
      </trkpt>
      <trkpt lat="49.49756" lon="-1.59066">
        <ele>116.3</ele>
        <time>2026-03-30T14:23:20.000Z</time>
      </trkpt>
      <trkpt lat="49.49757" lon="-1.59067">
        <ele>115.4</ele>
        <time>2026-03-30T14:23:21.000Z</time>
      </trkpt>
      <trkpt lat="49.49758" lon="-1.59069">
        <ele>115</ele>
        <time>2026-03-30T14:23:22.000Z</time>
      </trkpt>
      <trkpt lat="49.49759" lon="-1.59071">
        <ele>114.9</ele>
        <time>2026-03-30T14:23:23.000Z</time>
      </trkpt>
      <trkpt lat="49.4976" lon="-1.59072">
        <ele>114.6</ele>
        <time>2026-03-30T14:23:24.000Z</time>
      </trkpt>
      <trkpt lat="49.49761" lon="-1.59074">
        <ele>114.6</ele>
        <time>2026-03-30T14:23:25.000Z</time>
      </trkpt>
      <trkpt lat="49.49763" lon="-1.59075">
        <ele>114.7</ele>
        <time>2026-03-30T14:23:26.000Z</time>
      </trkpt>
      <trkpt lat="49.49764" lon="-1.59077">
        <ele>114.7</ele>
        <time>2026-03-30T14:23:27.000Z</time>
      </trkpt>
      <trkpt lat="49.49765" lon="-1.59078">
        <ele>114.7</ele>
        <time>2026-03-30T14:23:28.000Z</time>
      </trkpt>
      <trkpt lat="49.49766" lon="-1.5908">
        <ele>114.7</ele>
        <time>2026-03-30T14:23:29.000Z</time>
      </trkpt>
      <trkpt lat="49.49768" lon="-1.59081">
        <ele>115.4</ele>
        <time>2026-03-30T14:23:30.000Z</time>
      </trkpt>
      <trkpt lat="49.49769" lon="-1.59083">
        <ele>114.7</ele>
        <time>2026-03-30T14:23:31.000Z</time>
      </trkpt>
      <trkpt lat="49.4977" lon="-1.59084">
        <ele>114.4</ele>
        <time>2026-03-30T14:23:32.000Z</time>
      </trkpt>
      <trkpt lat="49.49772" lon="-1.59085">
        <ele>114.4</ele>
        <time>2026-03-30T14:23:33.000Z</time>
      </trkpt>
      <trkpt lat="49.49773" lon="-1.59087">
        <ele>114</ele>
        <time>2026-03-30T14:23:34.000Z</time>
      </trkpt>
      <trkpt lat="49.49774" lon="-1.59087">
        <ele>114</ele>
        <time>2026-03-30T14:23:35.000Z</time>
      </trkpt>
      <trkpt lat="49.49776" lon="-1.59089">
        <ele>113.9</ele>
        <time>2026-03-30T14:23:36.000Z</time>
      </trkpt>
      <trkpt lat="49.49777" lon="-1.5909">
        <ele>113.4</ele>
        <time>2026-03-30T14:23:37.000Z</time>
      </trkpt>
      <trkpt lat="49.49778" lon="-1.59092">
        <ele>112.5</ele>
        <time>2026-03-30T14:23:38.000Z</time>
      </trkpt>
      <trkpt lat="49.49779" lon="-1.59093">
        <ele>112.6</ele>
        <time>2026-03-30T14:23:39.000Z</time>
      </trkpt>
      <trkpt lat="49.4978" lon="-1.59095">
        <ele>112.1</ele>
        <time>2026-03-30T14:23:40.000Z</time>
      </trkpt>
      <trkpt lat="49.49781" lon="-1.59096">
        <ele>111.4</ele>
        <time>2026-03-30T14:23:41.000Z</time>
      </trkpt>
      <trkpt lat="49.49783" lon="-1.59098">
        <ele>111.2</ele>
        <time>2026-03-30T14:23:42.000Z</time>
      </trkpt>
      <trkpt lat="49.49784" lon="-1.59099">
        <ele>111</ele>
        <time>2026-03-30T14:23:43.000Z</time>
      </trkpt>
      <trkpt lat="49.49785" lon="-1.591">
        <ele>110.5</ele>
        <time>2026-03-30T14:23:44.000Z</time>
      </trkpt>
      <trkpt lat="49.49786" lon="-1.59101">
        <ele>110.4</ele>
        <time>2026-03-30T14:23:45.000Z</time>
      </trkpt>
      <trkpt lat="49.49787" lon="-1.59102">
        <ele>109.7</ele>
        <time>2026-03-30T14:23:46.000Z</time>
      </trkpt>
      <trkpt lat="49.49789" lon="-1.59103">
        <ele>109</ele>
        <time>2026-03-30T14:23:47.000Z</time>
      </trkpt>
      <trkpt lat="49.4979" lon="-1.59105">
        <ele>109</ele>
        <time>2026-03-30T14:23:48.000Z</time>
      </trkpt>
      <trkpt lat="49.49791" lon="-1.59106">
        <ele>109.1</ele>
        <time>2026-03-30T14:23:49.000Z</time>
      </trkpt>
      <trkpt lat="49.49792" lon="-1.59107">
        <ele>109.9</ele>
        <time>2026-03-30T14:23:50.000Z</time>
      </trkpt>
      <trkpt lat="49.49793" lon="-1.59109">
        <ele>108.9</ele>
        <time>2026-03-30T14:23:51.000Z</time>
      </trkpt>
      <trkpt lat="49.49795" lon="-1.5911">
        <ele>109.1</ele>
        <time>2026-03-30T14:23:52.000Z</time>
      </trkpt>
      <trkpt lat="49.49796" lon="-1.59111">
        <ele>110.1</ele>
        <time>2026-03-30T14:23:53.000Z</time>
      </trkpt>
      <trkpt lat="49.49797" lon="-1.59112">
        <ele>109.3</ele>
        <time>2026-03-30T14:23:54.000Z</time>
      </trkpt>
      <trkpt lat="49.49799" lon="-1.59113">
        <ele>109.4</ele>
        <time>2026-03-30T14:23:55.000Z</time>
      </trkpt>
      <trkpt lat="49.498" lon="-1.59115">
        <ele>109.3</ele>
        <time>2026-03-30T14:23:56.000Z</time>
      </trkpt>
      <trkpt lat="49.49801" lon="-1.59116">
        <ele>108.8</ele>
        <time>2026-03-30T14:23:57.000Z</time>
      </trkpt>
      <trkpt lat="49.49802" lon="-1.59117">
        <ele>109</ele>
        <time>2026-03-30T14:23:58.000Z</time>
      </trkpt>
      <trkpt lat="49.49803" lon="-1.59119">
        <ele>109.1</ele>
        <time>2026-03-30T14:23:59.000Z</time>
      </trkpt>
      <trkpt lat="49.49804" lon="-1.5912">
        <ele>108.4</ele>
        <time>2026-03-30T14:24:00.000Z</time>
      </trkpt>
      <trkpt lat="49.49805" lon="-1.59122">
        <ele>108.5</ele>
        <time>2026-03-30T14:24:01.000Z</time>
      </trkpt>
      <trkpt lat="49.49806" lon="-1.59123">
        <ele>108.7</ele>
        <time>2026-03-30T14:24:02.000Z</time>
      </trkpt>
      <trkpt lat="49.49807" lon="-1.59124">
        <ele>108.2</ele>
        <time>2026-03-30T14:24:03.000Z</time>
      </trkpt>
      <trkpt lat="49.49808" lon="-1.59125">
        <ele>108</ele>
        <time>2026-03-30T14:24:04.000Z</time>
      </trkpt>
      <trkpt lat="49.4981" lon="-1.59127">
        <ele>107.8</ele>
        <time>2026-03-30T14:24:05.000Z</time>
      </trkpt>
      <trkpt lat="49.49811" lon="-1.59128">
        <ele>107.4</ele>
        <time>2026-03-30T14:24:06.000Z</time>
      </trkpt>
      <trkpt lat="49.49812" lon="-1.5913">
        <ele>106.4</ele>
        <time>2026-03-30T14:24:07.000Z</time>
      </trkpt>
      <trkpt lat="49.49813" lon="-1.59131">
        <ele>106.4</ele>
        <time>2026-03-30T14:24:08.000Z</time>
      </trkpt>
      <trkpt lat="49.49814" lon="-1.59132">
        <ele>106.7</ele>
        <time>2026-03-30T14:24:09.000Z</time>
      </trkpt>
      <trkpt lat="49.49815" lon="-1.59134">
        <ele>106.7</ele>
        <time>2026-03-30T14:24:10.000Z</time>
      </trkpt>
      <trkpt lat="49.49816" lon="-1.59135">
        <ele>107</ele>
        <time>2026-03-30T14:24:11.000Z</time>
      </trkpt>
      <trkpt lat="49.49817" lon="-1.59136">
        <ele>106.7</ele>
        <time>2026-03-30T14:24:12.000Z</time>
      </trkpt>
      <trkpt lat="49.49819" lon="-1.59138">
        <ele>107.5</ele>
        <time>2026-03-30T14:24:13.000Z</time>
      </trkpt>
      <trkpt lat="49.4982" lon="-1.59139">
        <ele>107.8</ele>
        <time>2026-03-30T14:24:14.000Z</time>
      </trkpt>
      <trkpt lat="49.49821" lon="-1.59141">
        <ele>107.9</ele>
        <time>2026-03-30T14:24:15.000Z</time>
      </trkpt>
      <trkpt lat="49.49822" lon="-1.59142">
        <ele>107.8</ele>
        <time>2026-03-30T14:24:16.000Z</time>
      </trkpt>
      <trkpt lat="49.49823" lon="-1.59144">
        <ele>107.2</ele>
        <time>2026-03-30T14:24:17.000Z</time>
      </trkpt>
      <trkpt lat="49.49823" lon="-1.59145">
        <ele>107.7</ele>
        <time>2026-03-30T14:24:18.000Z</time>
      </trkpt>
      <trkpt lat="49.49824" lon="-1.59147">
        <ele>108</ele>
        <time>2026-03-30T14:24:19.000Z</time>
      </trkpt>
      <trkpt lat="49.49825" lon="-1.59148">
        <ele>109.1</ele>
        <time>2026-03-30T14:24:20.000Z</time>
      </trkpt>
      <trkpt lat="49.49826" lon="-1.59149">
        <ele>109.3</ele>
        <time>2026-03-30T14:24:21.000Z</time>
      </trkpt>
      <trkpt lat="49.49828" lon="-1.5915">
        <ele>110.4</ele>
        <time>2026-03-30T14:24:22.000Z</time>
      </trkpt>
      <trkpt lat="49.49829" lon="-1.59152">
        <ele>110.3</ele>
        <time>2026-03-30T14:24:23.000Z</time>
      </trkpt>
      <trkpt lat="49.4983" lon="-1.59153">
        <ele>110.2</ele>
        <time>2026-03-30T14:24:24.000Z</time>
      </trkpt>
      <trkpt lat="49.49831" lon="-1.59155">
        <ele>109.6</ele>
        <time>2026-03-30T14:24:25.000Z</time>
      </trkpt>
      <trkpt lat="49.49832" lon="-1.59156">
        <ele>110.8</ele>
        <time>2026-03-30T14:24:26.000Z</time>
      </trkpt>
      <trkpt lat="49.49833" lon="-1.59158">
        <ele>110.6</ele>
        <time>2026-03-30T14:24:27.000Z</time>
      </trkpt>
      <trkpt lat="49.49834" lon="-1.59159">
        <ele>110.3</ele>
        <time>2026-03-30T14:24:28.000Z</time>
      </trkpt>
      <trkpt lat="49.49836" lon="-1.5916">
        <ele>110.3</ele>
        <time>2026-03-30T14:24:29.000Z</time>
      </trkpt>
      <trkpt lat="49.49837" lon="-1.59161">
        <ele>110.9</ele>
        <time>2026-03-30T14:24:30.000Z</time>
      </trkpt>
      <trkpt lat="49.49839" lon="-1.59162">
        <ele>109.9</ele>
        <time>2026-03-30T14:24:31.000Z</time>
      </trkpt>
      <trkpt lat="49.4984" lon="-1.59163">
        <ele>108</ele>
        <time>2026-03-30T14:24:32.000Z</time>
      </trkpt>
      <trkpt lat="49.49841" lon="-1.59164">
        <ele>107.6</ele>
        <time>2026-03-30T14:24:33.000Z</time>
      </trkpt>
      <trkpt lat="49.49842" lon="-1.59166">
        <ele>106.8</ele>
        <time>2026-03-30T14:24:34.000Z</time>
      </trkpt>
      <trkpt lat="49.49843" lon="-1.59167">
        <ele>107.1</ele>
        <time>2026-03-30T14:24:35.000Z</time>
      </trkpt>
      <trkpt lat="49.49844" lon="-1.59169">
        <ele>107.1</ele>
        <time>2026-03-30T14:24:36.000Z</time>
      </trkpt>
      <trkpt lat="49.49845" lon="-1.5917">
        <ele>105.9</ele>
        <time>2026-03-30T14:24:37.000Z</time>
      </trkpt>
      <trkpt lat="49.49846" lon="-1.59171">
        <ele>105.5</ele>
        <time>2026-03-30T14:24:38.000Z</time>
      </trkpt>
      <trkpt lat="49.49847" lon="-1.59173">
        <ele>105.9</ele>
        <time>2026-03-30T14:24:39.000Z</time>
      </trkpt>
      <trkpt lat="49.49847" lon="-1.59175">
        <ele>105.9</ele>
        <time>2026-03-30T14:24:40.000Z</time>
      </trkpt>
      <trkpt lat="49.49848" lon="-1.59177">
        <ele>106.2</ele>
        <time>2026-03-30T14:24:41.000Z</time>
      </trkpt>
      <trkpt lat="49.49849" lon="-1.59178">
        <ele>106.2</ele>
        <time>2026-03-30T14:24:42.000Z</time>
      </trkpt>
      <trkpt lat="49.49849" lon="-1.5918">
        <ele>105.9</ele>
        <time>2026-03-30T14:24:43.000Z</time>
      </trkpt>
      <trkpt lat="49.4985" lon="-1.59182">
        <ele>106.3</ele>
        <time>2026-03-30T14:24:44.000Z</time>
      </trkpt>
      <trkpt lat="49.49851" lon="-1.59183">
        <ele>106.3</ele>
        <time>2026-03-30T14:24:45.000Z</time>
      </trkpt>
      <trkpt lat="49.49852" lon="-1.59184">
        <ele>106.5</ele>
        <time>2026-03-30T14:24:46.000Z</time>
      </trkpt>
      <trkpt lat="49.49854" lon="-1.59185">
        <ele>106.4</ele>
        <time>2026-03-30T14:24:47.000Z</time>
      </trkpt>
      <trkpt lat="49.49855" lon="-1.59186">
        <ele>106.6</ele>
        <time>2026-03-30T14:24:48.000Z</time>
      </trkpt>
      <trkpt lat="49.49856" lon="-1.59187">
        <ele>107.1</ele>
        <time>2026-03-30T14:24:49.000Z</time>
      </trkpt>
      <trkpt lat="49.49857" lon="-1.59189">
        <ele>107</ele>
        <time>2026-03-30T14:24:50.000Z</time>
      </trkpt>
      <trkpt lat="49.49858" lon="-1.5919">
        <ele>107</ele>
        <time>2026-03-30T14:24:51.000Z</time>
      </trkpt>
      <trkpt lat="49.4986" lon="-1.59192">
        <ele>107.1</ele>
        <time>2026-03-30T14:24:52.000Z</time>
      </trkpt>
      <trkpt lat="49.49861" lon="-1.59193">
        <ele>107.1</ele>
        <time>2026-03-30T14:24:53.000Z</time>
      </trkpt>
      <trkpt lat="49.49862" lon="-1.59194">
        <ele>106.8</ele>
        <time>2026-03-30T14:24:54.000Z</time>
      </trkpt>
      <trkpt lat="49.49863" lon="-1.59195">
        <ele>106.9</ele>
        <time>2026-03-30T14:24:55.000Z</time>
      </trkpt>
      <trkpt lat="49.49864" lon="-1.59196">
        <ele>106.5</ele>
        <time>2026-03-30T14:24:56.000Z</time>
      </trkpt>
      <trkpt lat="49.49865" lon="-1.59198">
        <ele>106</ele>
        <time>2026-03-30T14:24:57.000Z</time>
      </trkpt>
      <trkpt lat="49.49866" lon="-1.59199">
        <ele>105.4</ele>
        <time>2026-03-30T14:24:58.000Z</time>
      </trkpt>
      <trkpt lat="49.49867" lon="-1.59199">
        <ele>104.7</ele>
        <time>2026-03-30T14:24:59.000Z</time>
      </trkpt>
      <trkpt lat="49.49868" lon="-1.592">
        <ele>104.8</ele>
        <time>2026-03-30T14:25:00.000Z</time>
      </trkpt>
      <trkpt lat="49.49868" lon="-1.59201">
        <ele>104.8</ele>
        <time>2026-03-30T14:25:01.000Z</time>
      </trkpt>
      <trkpt lat="49.49869" lon="-1.59203">
        <ele>104.9</ele>
        <time>2026-03-30T14:25:02.000Z</time>
      </trkpt>
      <trkpt lat="49.49871" lon="-1.59205">
        <ele>104.6</ele>
        <time>2026-03-30T14:25:03.000Z</time>
      </trkpt>
      <trkpt lat="49.49873" lon="-1.59207">
        <ele>104.7</ele>
        <time>2026-03-30T14:25:04.000Z</time>
      </trkpt>
      <trkpt lat="49.49874" lon="-1.59208">
        <ele>104.2</ele>
        <time>2026-03-30T14:25:05.000Z</time>
      </trkpt>
      <trkpt lat="49.49875" lon="-1.59209">
        <ele>104</ele>
        <time>2026-03-30T14:25:06.000Z</time>
      </trkpt>
      <trkpt lat="49.49877" lon="-1.59211">
        <ele>104.2</ele>
        <time>2026-03-30T14:25:07.000Z</time>
      </trkpt>
      <trkpt lat="49.49878" lon="-1.59212">
        <ele>104.1</ele>
        <time>2026-03-30T14:25:08.000Z</time>
      </trkpt>
      <trkpt lat="49.4988" lon="-1.59213">
        <ele>103.6</ele>
        <time>2026-03-30T14:25:09.000Z</time>
      </trkpt>
      <trkpt lat="49.49881" lon="-1.59214">
        <ele>103.5</ele>
        <time>2026-03-30T14:25:10.000Z</time>
      </trkpt>
      <trkpt lat="49.49882" lon="-1.59215">
        <ele>103.5</ele>
        <time>2026-03-30T14:25:11.000Z</time>
      </trkpt>
      <trkpt lat="49.49884" lon="-1.59215">
        <ele>103.4</ele>
        <time>2026-03-30T14:25:12.000Z</time>
      </trkpt>
      <trkpt lat="49.49885" lon="-1.59216">
        <ele>103.8</ele>
        <time>2026-03-30T14:25:13.000Z</time>
      </trkpt>
      <trkpt lat="49.49886" lon="-1.59217">
        <ele>104.1</ele>
        <time>2026-03-30T14:25:14.000Z</time>
      </trkpt>
      <trkpt lat="49.49887" lon="-1.59218">
        <ele>104.5</ele>
        <time>2026-03-30T14:25:15.000Z</time>
      </trkpt>
      <trkpt lat="49.49888" lon="-1.59219">
        <ele>104.3</ele>
        <time>2026-03-30T14:25:16.000Z</time>
      </trkpt>
      <trkpt lat="49.49889" lon="-1.5922">
        <ele>104</ele>
        <time>2026-03-30T14:25:17.000Z</time>
      </trkpt>
      <trkpt lat="49.4989" lon="-1.59222">
        <ele>103.3</ele>
        <time>2026-03-30T14:25:18.000Z</time>
      </trkpt>
      <trkpt lat="49.4989" lon="-1.59223">
        <ele>102.7</ele>
        <time>2026-03-30T14:25:19.000Z</time>
      </trkpt>
      <trkpt lat="49.49891" lon="-1.59225">
        <ele>102.3</ele>
        <time>2026-03-30T14:25:20.000Z</time>
      </trkpt>
      <trkpt lat="49.49892" lon="-1.59227">
        <ele>102.1</ele>
        <time>2026-03-30T14:25:21.000Z</time>
      </trkpt>
      <trkpt lat="49.49893" lon="-1.59228">
        <ele>101.8</ele>
        <time>2026-03-30T14:25:22.000Z</time>
      </trkpt>
      <trkpt lat="49.49894" lon="-1.5923">
        <ele>101.4</ele>
        <time>2026-03-30T14:25:23.000Z</time>
      </trkpt>
      <trkpt lat="49.49895" lon="-1.59231">
        <ele>101.5</ele>
        <time>2026-03-30T14:25:24.000Z</time>
      </trkpt>
      <trkpt lat="49.49896" lon="-1.59233">
        <ele>102.2</ele>
        <time>2026-03-30T14:25:25.000Z</time>
      </trkpt>
      <trkpt lat="49.49897" lon="-1.59234">
        <ele>102.6</ele>
        <time>2026-03-30T14:25:26.000Z</time>
      </trkpt>
      <trkpt lat="49.49898" lon="-1.59236">
        <ele>102.2</ele>
        <time>2026-03-30T14:25:27.000Z</time>
      </trkpt>
      <trkpt lat="49.49899" lon="-1.59238">
        <ele>101.6</ele>
        <time>2026-03-30T14:25:28.000Z</time>
      </trkpt>
      <trkpt lat="49.49899" lon="-1.5924">
        <ele>101.3</ele>
        <time>2026-03-30T14:25:29.000Z</time>
      </trkpt>
      <trkpt lat="49.499" lon="-1.59242">
        <ele>101.4</ele>
        <time>2026-03-30T14:25:30.000Z</time>
      </trkpt>
      <trkpt lat="49.49901" lon="-1.59244">
        <ele>101.6</ele>
        <time>2026-03-30T14:25:31.000Z</time>
      </trkpt>
      <trkpt lat="49.49902" lon="-1.59246">
        <ele>101</ele>
        <time>2026-03-30T14:25:32.000Z</time>
      </trkpt>
      <trkpt lat="49.49902" lon="-1.59248">
        <ele>100.1</ele>
        <time>2026-03-30T14:25:33.000Z</time>
      </trkpt>
      <trkpt lat="49.49903" lon="-1.5925">
        <ele>100.7</ele>
        <time>2026-03-30T14:25:34.000Z</time>
      </trkpt>
      <trkpt lat="49.49904" lon="-1.59252">
        <ele>100.7</ele>
        <time>2026-03-30T14:25:35.000Z</time>
      </trkpt>
      <trkpt lat="49.49905" lon="-1.59254">
        <ele>100.6</ele>
        <time>2026-03-30T14:25:36.000Z</time>
      </trkpt>
      <trkpt lat="49.49905" lon="-1.59256">
        <ele>100.6</ele>
        <time>2026-03-30T14:25:37.000Z</time>
      </trkpt>
      <trkpt lat="49.49906" lon="-1.59257">
        <ele>100.7</ele>
        <time>2026-03-30T14:25:38.000Z</time>
      </trkpt>
      <trkpt lat="49.49907" lon="-1.59259">
        <ele>100.3</ele>
        <time>2026-03-30T14:25:39.000Z</time>
      </trkpt>
      <trkpt lat="49.49908" lon="-1.5926">
        <ele>99.2</ele>
        <time>2026-03-30T14:25:40.000Z</time>
      </trkpt>
      <trkpt lat="49.49909" lon="-1.59262">
        <ele>99</ele>
        <time>2026-03-30T14:25:41.000Z</time>
      </trkpt>
      <trkpt lat="49.49909" lon="-1.59264">
        <ele>98.5</ele>
        <time>2026-03-30T14:25:42.000Z</time>
      </trkpt>
      <trkpt lat="49.4991" lon="-1.59265">
        <ele>98.2</ele>
        <time>2026-03-30T14:25:43.000Z</time>
      </trkpt>
      <trkpt lat="49.49911" lon="-1.59267">
        <ele>98</ele>
        <time>2026-03-30T14:25:44.000Z</time>
      </trkpt>
      <trkpt lat="49.49911" lon="-1.59269">
        <ele>98</ele>
        <time>2026-03-30T14:25:45.000Z</time>
      </trkpt>
      <trkpt lat="49.49912" lon="-1.59271">
        <ele>98</ele>
        <time>2026-03-30T14:25:46.000Z</time>
      </trkpt>
      <trkpt lat="49.49912" lon="-1.59273">
        <ele>98.2</ele>
        <time>2026-03-30T14:25:47.000Z</time>
      </trkpt>
      <trkpt lat="49.49913" lon="-1.59274">
        <ele>98.4</ele>
        <time>2026-03-30T14:25:48.000Z</time>
      </trkpt>
      <trkpt lat="49.49914" lon="-1.59276">
        <ele>98.5</ele>
        <time>2026-03-30T14:25:49.000Z</time>
      </trkpt>
      <trkpt lat="49.49915" lon="-1.59278">
        <ele>98.6</ele>
        <time>2026-03-30T14:25:50.000Z</time>
      </trkpt>
      <trkpt lat="49.49915" lon="-1.5928">
        <ele>98.9</ele>
        <time>2026-03-30T14:25:51.000Z</time>
      </trkpt>
      <trkpt lat="49.49916" lon="-1.59282">
        <ele>99.1</ele>
        <time>2026-03-30T14:25:52.000Z</time>
      </trkpt>
      <trkpt lat="49.49917" lon="-1.59283">
        <ele>99.4</ele>
        <time>2026-03-30T14:25:53.000Z</time>
      </trkpt>
      <trkpt lat="49.49918" lon="-1.59285">
        <ele>99.8</ele>
        <time>2026-03-30T14:25:54.000Z</time>
      </trkpt>
      <trkpt lat="49.49919" lon="-1.59287">
        <ele>100.6</ele>
        <time>2026-03-30T14:25:55.000Z</time>
      </trkpt>
      <trkpt lat="49.4992" lon="-1.59289">
        <ele>100</ele>
        <time>2026-03-30T14:25:56.000Z</time>
      </trkpt>
      <trkpt lat="49.49921" lon="-1.5929">
        <ele>99.7</ele>
        <time>2026-03-30T14:25:57.000Z</time>
      </trkpt>
      <trkpt lat="49.49922" lon="-1.59292">
        <ele>99.3</ele>
        <time>2026-03-30T14:25:58.000Z</time>
      </trkpt>
      <trkpt lat="49.49923" lon="-1.59294">
        <ele>99.3</ele>
        <time>2026-03-30T14:25:59.000Z</time>
      </trkpt>
      <trkpt lat="49.49924" lon="-1.59296">
        <ele>98.8</ele>
        <time>2026-03-30T14:26:00.000Z</time>
      </trkpt>
      <trkpt lat="49.49925" lon="-1.59298">
        <ele>99.4</ele>
        <time>2026-03-30T14:26:01.000Z</time>
      </trkpt>
      <trkpt lat="49.49926" lon="-1.593">
        <ele>99.2</ele>
        <time>2026-03-30T14:26:02.000Z</time>
      </trkpt>
      <trkpt lat="49.49926" lon="-1.59302">
        <ele>98.5</ele>
        <time>2026-03-30T14:26:03.000Z</time>
      </trkpt>
      <trkpt lat="49.49927" lon="-1.59304">
        <ele>98.5</ele>
        <time>2026-03-30T14:26:04.000Z</time>
      </trkpt>
      <trkpt lat="49.49928" lon="-1.59306">
        <ele>98</ele>
        <time>2026-03-30T14:26:05.000Z</time>
      </trkpt>
      <trkpt lat="49.49929" lon="-1.59308">
        <ele>98.1</ele>
        <time>2026-03-30T14:26:06.000Z</time>
      </trkpt>
      <trkpt lat="49.49929" lon="-1.5931">
        <ele>97.6</ele>
        <time>2026-03-30T14:26:07.000Z</time>
      </trkpt>
      <trkpt lat="49.4993" lon="-1.59312">
        <ele>97.5</ele>
        <time>2026-03-30T14:26:08.000Z</time>
      </trkpt>
      <trkpt lat="49.49931" lon="-1.59313">
        <ele>97</ele>
        <time>2026-03-30T14:26:09.000Z</time>
      </trkpt>
      <trkpt lat="49.49932" lon="-1.59315">
        <ele>97.1</ele>
        <time>2026-03-30T14:26:10.000Z</time>
      </trkpt>
      <trkpt lat="49.49932" lon="-1.59317">
        <ele>96.6</ele>
        <time>2026-03-30T14:26:11.000Z</time>
      </trkpt>
      <trkpt lat="49.49933" lon="-1.59319">
        <ele>96.5</ele>
        <time>2026-03-30T14:26:12.000Z</time>
      </trkpt>
      <trkpt lat="49.49934" lon="-1.59321">
        <ele>96.2</ele>
        <time>2026-03-30T14:26:13.000Z</time>
      </trkpt>
      <trkpt lat="49.49934" lon="-1.59323">
        <ele>96</ele>
        <time>2026-03-30T14:26:14.000Z</time>
      </trkpt>
      <trkpt lat="49.49935" lon="-1.59324">
        <ele>96.2</ele>
        <time>2026-03-30T14:26:15.000Z</time>
      </trkpt>
      <trkpt lat="49.49936" lon="-1.59326">
        <ele>96.1</ele>
        <time>2026-03-30T14:26:16.000Z</time>
      </trkpt>
      <trkpt lat="49.49937" lon="-1.59328">
        <ele>96.9</ele>
        <time>2026-03-30T14:26:17.000Z</time>
      </trkpt>
      <trkpt lat="49.49938" lon="-1.59329">
        <ele>96.6</ele>
        <time>2026-03-30T14:26:18.000Z</time>
      </trkpt>
      <trkpt lat="49.49939" lon="-1.59331">
        <ele>96.6</ele>
        <time>2026-03-30T14:26:19.000Z</time>
      </trkpt>
      <trkpt lat="49.4994" lon="-1.59333">
        <ele>96.9</ele>
        <time>2026-03-30T14:26:20.000Z</time>
      </trkpt>
      <trkpt lat="49.49941" lon="-1.59334">
        <ele>97.7</ele>
        <time>2026-03-30T14:26:21.000Z</time>
      </trkpt>
      <trkpt lat="49.49942" lon="-1.59336">
        <ele>98.2</ele>
        <time>2026-03-30T14:26:22.000Z</time>
      </trkpt>
      <trkpt lat="49.49943" lon="-1.59337">
        <ele>98.6</ele>
        <time>2026-03-30T14:26:23.000Z</time>
      </trkpt>
      <trkpt lat="49.49944" lon="-1.59339">
        <ele>99.1</ele>
        <time>2026-03-30T14:26:24.000Z</time>
      </trkpt>
      <trkpt lat="49.49944" lon="-1.59341">
        <ele>99.1</ele>
        <time>2026-03-30T14:26:25.000Z</time>
      </trkpt>
      <trkpt lat="49.49945" lon="-1.59343">
        <ele>99.1</ele>
        <time>2026-03-30T14:26:26.000Z</time>
      </trkpt>
      <trkpt lat="49.49946" lon="-1.59345">
        <ele>99.2</ele>
        <time>2026-03-30T14:26:27.000Z</time>
      </trkpt>
      <trkpt lat="49.49946" lon="-1.59347">
        <ele>98.7</ele>
        <time>2026-03-30T14:26:28.000Z</time>
      </trkpt>
      <trkpt lat="49.49947" lon="-1.59349">
        <ele>98.5</ele>
        <time>2026-03-30T14:26:29.000Z</time>
      </trkpt>
      <trkpt lat="49.49947" lon="-1.59351">
        <ele>98.3</ele>
        <time>2026-03-30T14:26:30.000Z</time>
      </trkpt>
      <trkpt lat="49.49948" lon="-1.59353">
        <ele>98.3</ele>
        <time>2026-03-30T14:26:31.000Z</time>
      </trkpt>
      <trkpt lat="49.49948" lon="-1.59355">
        <ele>97.5</ele>
        <time>2026-03-30T14:26:32.000Z</time>
      </trkpt>
      <trkpt lat="49.49949" lon="-1.59357">
        <ele>98.1</ele>
        <time>2026-03-30T14:26:33.000Z</time>
      </trkpt>
      <trkpt lat="49.4995" lon="-1.5936">
        <ele>98.2</ele>
        <time>2026-03-30T14:26:34.000Z</time>
      </trkpt>
      <trkpt lat="49.49951" lon="-1.59362">
        <ele>97.6</ele>
        <time>2026-03-30T14:26:35.000Z</time>
      </trkpt>
      <trkpt lat="49.49952" lon="-1.59363">
        <ele>97</ele>
        <time>2026-03-30T14:26:36.000Z</time>
      </trkpt>
      <trkpt lat="49.49953" lon="-1.59365">
        <ele>96.5</ele>
        <time>2026-03-30T14:26:37.000Z</time>
      </trkpt>
      <trkpt lat="49.49953" lon="-1.59367">
        <ele>96.4</ele>
        <time>2026-03-30T14:26:38.000Z</time>
      </trkpt>
      <trkpt lat="49.49954" lon="-1.59369">
        <ele>96.3</ele>
        <time>2026-03-30T14:26:39.000Z</time>
      </trkpt>
      <trkpt lat="49.49955" lon="-1.59371">
        <ele>96.7</ele>
        <time>2026-03-30T14:26:40.000Z</time>
      </trkpt>
      <trkpt lat="49.49955" lon="-1.59373">
        <ele>96.7</ele>
        <time>2026-03-30T14:26:41.000Z</time>
      </trkpt>
      <trkpt lat="49.49956" lon="-1.59375">
        <ele>96.9</ele>
        <time>2026-03-30T14:26:42.000Z</time>
      </trkpt>
      <trkpt lat="49.49957" lon="-1.59377">
        <ele>96.4</ele>
        <time>2026-03-30T14:26:43.000Z</time>
      </trkpt>
      <trkpt lat="49.49957" lon="-1.59379">
        <ele>96.4</ele>
        <time>2026-03-30T14:26:44.000Z</time>
      </trkpt>
      <trkpt lat="49.49957" lon="-1.59381">
        <ele>96.8</ele>
        <time>2026-03-30T14:26:45.000Z</time>
      </trkpt>
      <trkpt lat="49.49958" lon="-1.59383">
        <ele>97.3</ele>
        <time>2026-03-30T14:26:46.000Z</time>
      </trkpt>
      <trkpt lat="49.49959" lon="-1.59385">
        <ele>97.3</ele>
        <time>2026-03-30T14:26:47.000Z</time>
      </trkpt>
      <trkpt lat="49.4996" lon="-1.59387">
        <ele>97.4</ele>
        <time>2026-03-30T14:26:48.000Z</time>
      </trkpt>
      <trkpt lat="49.4996" lon="-1.59389">
        <ele>97.6</ele>
        <time>2026-03-30T14:26:49.000Z</time>
      </trkpt>
      <trkpt lat="49.4996" lon="-1.59391">
        <ele>97.2</ele>
        <time>2026-03-30T14:26:50.000Z</time>
      </trkpt>
      <trkpt lat="49.4996" lon="-1.59393">
        <ele>96.8</ele>
        <time>2026-03-30T14:26:51.000Z</time>
      </trkpt>
      <trkpt lat="49.49961" lon="-1.59395">
        <ele>96.9</ele>
        <time>2026-03-30T14:26:52.000Z</time>
      </trkpt>
      <trkpt lat="49.49961" lon="-1.59397">
        <ele>96.5</ele>
        <time>2026-03-30T14:26:53.000Z</time>
      </trkpt>
      <trkpt lat="49.49961" lon="-1.59399">
        <ele>96.1</ele>
        <time>2026-03-30T14:26:54.000Z</time>
      </trkpt>
      <trkpt lat="49.49961" lon="-1.59402">
        <ele>96</ele>
        <time>2026-03-30T14:26:55.000Z</time>
      </trkpt>
      <trkpt lat="49.49962" lon="-1.59404">
        <ele>96.3</ele>
        <time>2026-03-30T14:26:56.000Z</time>
      </trkpt>
      <trkpt lat="49.49962" lon="-1.59407">
        <ele>96.4</ele>
        <time>2026-03-30T14:26:57.000Z</time>
      </trkpt>
      <trkpt lat="49.49962" lon="-1.59409">
        <ele>96</ele>
        <time>2026-03-30T14:26:58.000Z</time>
      </trkpt>
      <trkpt lat="49.49962" lon="-1.59411">
        <ele>95.3</ele>
        <time>2026-03-30T14:26:59.000Z</time>
      </trkpt>
      <trkpt lat="49.49963" lon="-1.59414">
        <ele>95.5</ele>
        <time>2026-03-30T14:27:00.000Z</time>
      </trkpt>
      <trkpt lat="49.49963" lon="-1.59416">
        <ele>95.3</ele>
        <time>2026-03-30T14:27:01.000Z</time>
      </trkpt>
      <trkpt lat="49.49963" lon="-1.59418">
        <ele>94.9</ele>
        <time>2026-03-30T14:27:02.000Z</time>
      </trkpt>
      <trkpt lat="49.49963" lon="-1.5942">
        <ele>94.7</ele>
        <time>2026-03-30T14:27:03.000Z</time>
      </trkpt>
      <trkpt lat="49.49963" lon="-1.59422">
        <ele>94.5</ele>
        <time>2026-03-30T14:27:04.000Z</time>
      </trkpt>
      <trkpt lat="49.49964" lon="-1.59424">
        <ele>94.6</ele>
        <time>2026-03-30T14:27:05.000Z</time>
      </trkpt>
      <trkpt lat="49.49964" lon="-1.59427">
        <ele>94.5</ele>
        <time>2026-03-30T14:27:06.000Z</time>
      </trkpt>
      <trkpt lat="49.49965" lon="-1.59429">
        <ele>94.5</ele>
        <time>2026-03-30T14:27:07.000Z</time>
      </trkpt>
      <trkpt lat="49.49965" lon="-1.59431">
        <ele>93.9</ele>
        <time>2026-03-30T14:27:08.000Z</time>
      </trkpt>
      <trkpt lat="49.49965" lon="-1.59433">
        <ele>94.1</ele>
        <time>2026-03-30T14:27:09.000Z</time>
      </trkpt>
      <trkpt lat="49.49965" lon="-1.59435">
        <ele>94</ele>
        <time>2026-03-30T14:27:10.000Z</time>
      </trkpt>
      <trkpt lat="49.49966" lon="-1.59438">
        <ele>94.3</ele>
        <time>2026-03-30T14:27:11.000Z</time>
      </trkpt>
      <trkpt lat="49.49967" lon="-1.59439">
        <ele>95.1</ele>
        <time>2026-03-30T14:27:12.000Z</time>
      </trkpt>
      <trkpt lat="49.49968" lon="-1.59441">
        <ele>95.7</ele>
        <time>2026-03-30T14:27:13.000Z</time>
      </trkpt>
      <trkpt lat="49.49969" lon="-1.59443">
        <ele>96.2</ele>
        <time>2026-03-30T14:27:14.000Z</time>
      </trkpt>
      <trkpt lat="49.4997" lon="-1.59445">
        <ele>97.1</ele>
        <time>2026-03-30T14:27:15.000Z</time>
      </trkpt>
      <trkpt lat="49.4997" lon="-1.59447">
        <ele>97.3</ele>
        <time>2026-03-30T14:27:16.000Z</time>
      </trkpt>
      <trkpt lat="49.49971" lon="-1.59449">
        <ele>98</ele>
        <time>2026-03-30T14:27:17.000Z</time>
      </trkpt>
      <trkpt lat="49.49971" lon="-1.59451">
        <ele>98.4</ele>
        <time>2026-03-30T14:27:18.000Z</time>
      </trkpt>
      <trkpt lat="49.49972" lon="-1.59453">
        <ele>98.3</ele>
        <time>2026-03-30T14:27:19.000Z</time>
      </trkpt>
      <trkpt lat="49.49972" lon="-1.59455">
        <ele>98.5</ele>
        <time>2026-03-30T14:27:20.000Z</time>
      </trkpt>
      <trkpt lat="49.49972" lon="-1.59458">
        <ele>98.4</ele>
        <time>2026-03-30T14:27:21.000Z</time>
      </trkpt>
      <trkpt lat="49.49973" lon="-1.5946">
        <ele>96.9</ele>
        <time>2026-03-30T14:27:22.000Z</time>
      </trkpt>
      <trkpt lat="49.49973" lon="-1.59462">
        <ele>95.5</ele>
        <time>2026-03-30T14:27:23.000Z</time>
      </trkpt>
      <trkpt lat="49.49973" lon="-1.59463">
        <ele>94.2</ele>
        <time>2026-03-30T14:27:24.000Z</time>
      </trkpt>
      <trkpt lat="49.49974" lon="-1.59465">
        <ele>94.3</ele>
        <time>2026-03-30T14:27:25.000Z</time>
      </trkpt>
      <trkpt lat="49.49976" lon="-1.59465">
        <ele>96.1</ele>
        <time>2026-03-30T14:27:26.000Z</time>
      </trkpt>
      <trkpt lat="49.49975" lon="-1.59464">
        <ele>95</ele>
        <time>2026-03-30T14:27:27.000Z</time>
      </trkpt>
      <trkpt lat="49.49976" lon="-1.59465">
        <ele>95.4</ele>
        <time>2026-03-30T14:27:28.000Z</time>
      </trkpt>
      <trkpt lat="49.49977" lon="-1.59465">
        <ele>94.7</ele>
        <time>2026-03-30T14:27:29.000Z</time>
      </trkpt>
      <trkpt lat="49.49978" lon="-1.59465">
        <ele>95.5</ele>
        <time>2026-03-30T14:27:30.000Z</time>
      </trkpt>
      <trkpt lat="49.49977" lon="-1.59465">
        <ele>95</ele>
        <time>2026-03-30T14:27:31.000Z</time>
      </trkpt>
      <trkpt lat="49.49977" lon="-1.59472">
        <ele>92.2</ele>
        <time>2026-03-30T14:27:45.000Z</time>
      </trkpt>
      <trkpt lat="49.49977" lon="-1.59474">
        <ele>91.1</ele>
        <time>2026-03-30T14:27:46.000Z</time>
      </trkpt>
      <trkpt lat="49.49977" lon="-1.59476">
        <ele>91.5</ele>
        <time>2026-03-30T14:27:47.000Z</time>
      </trkpt>
      <trkpt lat="49.49977" lon="-1.59478">
        <ele>92.7</ele>
        <time>2026-03-30T14:27:48.000Z</time>
      </trkpt>
      <trkpt lat="49.49977" lon="-1.59479">
        <ele>93.1</ele>
        <time>2026-03-30T14:27:49.000Z</time>
      </trkpt>
      <trkpt lat="49.49978" lon="-1.5948">
        <ele>93.1</ele>
        <time>2026-03-30T14:27:50.000Z</time>
      </trkpt>
      <trkpt lat="49.49978" lon="-1.59481">
        <ele>93.3</ele>
        <time>2026-03-30T14:27:51.000Z</time>
      </trkpt>
      <trkpt lat="49.49979" lon="-1.59483">
        <ele>92.8</ele>
        <time>2026-03-30T14:27:52.000Z</time>
      </trkpt>
      <trkpt lat="49.49979" lon="-1.59484">
        <ele>93.2</ele>
        <time>2026-03-30T14:27:53.000Z</time>
      </trkpt>
      <trkpt lat="49.4998" lon="-1.59485">
        <ele>92.6</ele>
        <time>2026-03-30T14:27:54.000Z</time>
      </trkpt>
      <trkpt lat="49.4998" lon="-1.59487">
        <ele>92.5</ele>
        <time>2026-03-30T14:27:55.000Z</time>
      </trkpt>
      <trkpt lat="49.49981" lon="-1.59489">
        <ele>93.3</ele>
        <time>2026-03-30T14:27:56.000Z</time>
      </trkpt>
      <trkpt lat="49.49981" lon="-1.59491">
        <ele>93</ele>
        <time>2026-03-30T14:27:57.000Z</time>
      </trkpt>
      <trkpt lat="49.49982" lon="-1.59493">
        <ele>93</ele>
        <time>2026-03-30T14:27:58.000Z</time>
      </trkpt>
      <trkpt lat="49.49982" lon="-1.59495">
        <ele>92.8</ele>
        <time>2026-03-30T14:27:59.000Z</time>
      </trkpt>
      <trkpt lat="49.49982" lon="-1.59497">
        <ele>92.7</ele>
        <time>2026-03-30T14:28:00.000Z</time>
      </trkpt>
      <trkpt lat="49.49983" lon="-1.59498">
        <ele>92.3</ele>
        <time>2026-03-30T14:28:01.000Z</time>
      </trkpt>
      <trkpt lat="49.49984" lon="-1.59499">
        <ele>93.2</ele>
        <time>2026-03-30T14:28:02.000Z</time>
      </trkpt>
      <trkpt lat="49.49985" lon="-1.59501">
        <ele>92.3</ele>
        <time>2026-03-30T14:28:03.000Z</time>
      </trkpt>
      <trkpt lat="49.49986" lon="-1.59502">
        <ele>92.4</ele>
        <time>2026-03-30T14:28:04.000Z</time>
      </trkpt>
      <trkpt lat="49.49987" lon="-1.59505">
        <ele>92.5</ele>
        <time>2026-03-30T14:28:05.000Z</time>
      </trkpt>
      <trkpt lat="49.49988" lon="-1.59507">
        <ele>93.6</ele>
        <time>2026-03-30T14:28:06.000Z</time>
      </trkpt>
      <trkpt lat="49.49988" lon="-1.59509">
        <ele>93.9</ele>
        <time>2026-03-30T14:28:07.000Z</time>
      </trkpt>
      <trkpt lat="49.49989" lon="-1.59511">
        <ele>93.4</ele>
        <time>2026-03-30T14:28:08.000Z</time>
      </trkpt>
      <trkpt lat="49.4999" lon="-1.59513">
        <ele>94.6</ele>
        <time>2026-03-30T14:28:09.000Z</time>
      </trkpt>
      <trkpt lat="49.4999" lon="-1.59514">
        <ele>94.5</ele>
        <time>2026-03-30T14:28:10.000Z</time>
      </trkpt>
      <trkpt lat="49.49991" lon="-1.59516">
        <ele>94.3</ele>
        <time>2026-03-30T14:28:11.000Z</time>
      </trkpt>
      <trkpt lat="49.49991" lon="-1.59518">
        <ele>94</ele>
        <time>2026-03-30T14:28:12.000Z</time>
      </trkpt>
      <trkpt lat="49.49992" lon="-1.59519">
        <ele>95.9</ele>
        <time>2026-03-30T14:28:13.000Z</time>
      </trkpt>
      <trkpt lat="49.49992" lon="-1.59522">
        <ele>94.4</ele>
        <time>2026-03-30T14:28:14.000Z</time>
      </trkpt>
      <trkpt lat="49.49992" lon="-1.59524">
        <ele>94.7</ele>
        <time>2026-03-30T14:28:15.000Z</time>
      </trkpt>
      <trkpt lat="49.49993" lon="-1.59526">
        <ele>95.1</ele>
        <time>2026-03-30T14:28:16.000Z</time>
      </trkpt>
      <trkpt lat="49.49993" lon="-1.59528">
        <ele>94.8</ele>
        <time>2026-03-30T14:28:17.000Z</time>
      </trkpt>
      <trkpt lat="49.49994" lon="-1.59529">
        <ele>94.8</ele>
        <time>2026-03-30T14:28:18.000Z</time>
      </trkpt>
      <trkpt lat="49.49995" lon="-1.59531">
        <ele>94.9</ele>
        <time>2026-03-30T14:28:19.000Z</time>
      </trkpt>
      <trkpt lat="49.49995" lon="-1.59532">
        <ele>94.4</ele>
        <time>2026-03-30T14:28:20.000Z</time>
      </trkpt>
      <trkpt lat="49.49996" lon="-1.59533">
        <ele>94.7</ele>
        <time>2026-03-30T14:28:21.000Z</time>
      </trkpt>
      <trkpt lat="49.49997" lon="-1.59535">
        <ele>94.4</ele>
        <time>2026-03-30T14:28:22.000Z</time>
      </trkpt>
      <trkpt lat="49.49998" lon="-1.59536">
        <ele>95</ele>
        <time>2026-03-30T14:28:23.000Z</time>
      </trkpt>
      <trkpt lat="49.49999" lon="-1.59537">
        <ele>96.5</ele>
        <time>2026-03-30T14:28:24.000Z</time>
      </trkpt>
      <trkpt lat="49.5" lon="-1.59538">
        <ele>97.9</ele>
        <time>2026-03-30T14:28:25.000Z</time>
      </trkpt>
      <trkpt lat="49.50001" lon="-1.5954">
        <ele>98.8</ele>
        <time>2026-03-30T14:28:26.000Z</time>
      </trkpt>
      <trkpt lat="49.50002" lon="-1.59541">
        <ele>98.9</ele>
        <time>2026-03-30T14:28:27.000Z</time>
      </trkpt>
      <trkpt lat="49.50002" lon="-1.59543">
        <ele>98.9</ele>
        <time>2026-03-30T14:28:28.000Z</time>
      </trkpt>
      <trkpt lat="49.50003" lon="-1.59544">
        <ele>98.1</ele>
        <time>2026-03-30T14:28:29.000Z</time>
      </trkpt>
      <trkpt lat="49.50004" lon="-1.59545">
        <ele>98.5</ele>
        <time>2026-03-30T14:28:30.000Z</time>
      </trkpt>
      <trkpt lat="49.50005" lon="-1.59547">
        <ele>98.2</ele>
        <time>2026-03-30T14:28:31.000Z</time>
      </trkpt>
      <trkpt lat="49.50006" lon="-1.59548">
        <ele>98.1</ele>
        <time>2026-03-30T14:28:32.000Z</time>
      </trkpt>
      <trkpt lat="49.50007" lon="-1.5955">
        <ele>98.2</ele>
        <time>2026-03-30T14:28:33.000Z</time>
      </trkpt>
      <trkpt lat="49.50007" lon="-1.59552">
        <ele>97.4</ele>
        <time>2026-03-30T14:28:34.000Z</time>
      </trkpt>
      <trkpt lat="49.50008" lon="-1.59553">
        <ele>97.5</ele>
        <time>2026-03-30T14:28:35.000Z</time>
      </trkpt>
      <trkpt lat="49.50009" lon="-1.59555">
        <ele>97.4</ele>
        <time>2026-03-30T14:28:36.000Z</time>
      </trkpt>
      <trkpt lat="49.5001" lon="-1.59556">
        <ele>98</ele>
        <time>2026-03-30T14:28:37.000Z</time>
      </trkpt>
      <trkpt lat="49.50011" lon="-1.59558">
        <ele>99.2</ele>
        <time>2026-03-30T14:28:38.000Z</time>
      </trkpt>
      <trkpt lat="49.50012" lon="-1.5956">
        <ele>99.2</ele>
        <time>2026-03-30T14:28:39.000Z</time>
      </trkpt>
      <trkpt lat="49.50012" lon="-1.59561">
        <ele>99</ele>
        <time>2026-03-30T14:28:40.000Z</time>
      </trkpt>
      <trkpt lat="49.50013" lon="-1.59564">
        <ele>98.8</ele>
        <time>2026-03-30T14:28:41.000Z</time>
      </trkpt>
      <trkpt lat="49.50013" lon="-1.59565">
        <ele>99</ele>
        <time>2026-03-30T14:28:42.000Z</time>
      </trkpt>
      <trkpt lat="49.50014" lon="-1.59567">
        <ele>99.3</ele>
        <time>2026-03-30T14:28:43.000Z</time>
      </trkpt>
      <trkpt lat="49.50015" lon="-1.59568">
        <ele>98.7</ele>
        <time>2026-03-30T14:28:44.000Z</time>
      </trkpt>
      <trkpt lat="49.50015" lon="-1.5957">
        <ele>98.7</ele>
        <time>2026-03-30T14:28:45.000Z</time>
      </trkpt>
      <trkpt lat="49.50016" lon="-1.59572">
        <ele>99.5</ele>
        <time>2026-03-30T14:28:46.000Z</time>
      </trkpt>
      <trkpt lat="49.50017" lon="-1.59573">
        <ele>98.3</ele>
        <time>2026-03-30T14:28:47.000Z</time>
      </trkpt>
      <trkpt lat="49.50018" lon="-1.59575">
        <ele>97.8</ele>
        <time>2026-03-30T14:28:48.000Z</time>
      </trkpt>
      <trkpt lat="49.50019" lon="-1.59576">
        <ele>98.1</ele>
        <time>2026-03-30T14:28:49.000Z</time>
      </trkpt>
      <trkpt lat="49.50019" lon="-1.59578">
        <ele>98.1</ele>
        <time>2026-03-30T14:28:50.000Z</time>
      </trkpt>
      <trkpt lat="49.5002" lon="-1.5958">
        <ele>98.4</ele>
        <time>2026-03-30T14:28:51.000Z</time>
      </trkpt>
      <trkpt lat="49.5002" lon="-1.59582">
        <ele>98</ele>
        <time>2026-03-30T14:28:52.000Z</time>
      </trkpt>
      <trkpt lat="49.50021" lon="-1.59584">
        <ele>98.1</ele>
        <time>2026-03-30T14:28:53.000Z</time>
      </trkpt>
      <trkpt lat="49.50022" lon="-1.59586">
        <ele>97.9</ele>
        <time>2026-03-30T14:28:54.000Z</time>
      </trkpt>
      <trkpt lat="49.50023" lon="-1.59588">
        <ele>98.5</ele>
        <time>2026-03-30T14:28:55.000Z</time>
      </trkpt>
      <trkpt lat="49.50024" lon="-1.5959">
        <ele>96.9</ele>
        <time>2026-03-30T14:28:56.000Z</time>
      </trkpt>
      <trkpt lat="49.50025" lon="-1.59591">
        <ele>98</ele>
        <time>2026-03-30T14:28:57.000Z</time>
      </trkpt>
      <trkpt lat="49.50026" lon="-1.59593">
        <ele>99.1</ele>
        <time>2026-03-30T14:28:58.000Z</time>
      </trkpt>
      <trkpt lat="49.50027" lon="-1.59595">
        <ele>99.1</ele>
        <time>2026-03-30T14:28:59.000Z</time>
      </trkpt>
      <trkpt lat="49.50028" lon="-1.59597">
        <ele>99.8</ele>
        <time>2026-03-30T14:29:00.000Z</time>
      </trkpt>
      <trkpt lat="49.50028" lon="-1.59599">
        <ele>98.8</ele>
        <time>2026-03-30T14:29:01.000Z</time>
      </trkpt>
      <trkpt lat="49.50029" lon="-1.59601">
        <ele>98.6</ele>
        <time>2026-03-30T14:29:02.000Z</time>
      </trkpt>
      <trkpt lat="49.5003" lon="-1.59603">
        <ele>98.5</ele>
        <time>2026-03-30T14:29:03.000Z</time>
      </trkpt>
      <trkpt lat="49.50031" lon="-1.59604">
        <ele>98.9</ele>
        <time>2026-03-30T14:29:04.000Z</time>
      </trkpt>
      <trkpt lat="49.50032" lon="-1.59606">
        <ele>98.7</ele>
        <time>2026-03-30T14:29:05.000Z</time>
      </trkpt>
      <trkpt lat="49.50033" lon="-1.59608">
        <ele>99.2</ele>
        <time>2026-03-30T14:29:06.000Z</time>
      </trkpt>
      <trkpt lat="49.50033" lon="-1.59609">
        <ele>98.7</ele>
        <time>2026-03-30T14:29:07.000Z</time>
      </trkpt>
      <trkpt lat="49.50034" lon="-1.59611">
        <ele>99.5</ele>
        <time>2026-03-30T14:29:08.000Z</time>
      </trkpt>
      <trkpt lat="49.50034" lon="-1.59613">
        <ele>99.2</ele>
        <time>2026-03-30T14:29:09.000Z</time>
      </trkpt>
      <trkpt lat="49.50035" lon="-1.59615">
        <ele>99.1</ele>
        <time>2026-03-30T14:29:10.000Z</time>
      </trkpt>
      <trkpt lat="49.50035" lon="-1.59617">
        <ele>98.8</ele>
        <time>2026-03-30T14:29:11.000Z</time>
      </trkpt>
      <trkpt lat="49.50036" lon="-1.59619">
        <ele>99.4</ele>
        <time>2026-03-30T14:29:12.000Z</time>
      </trkpt>
      <trkpt lat="49.50038" lon="-1.5962">
        <ele>99.5</ele>
        <time>2026-03-30T14:29:13.000Z</time>
      </trkpt>
      <trkpt lat="49.50038" lon="-1.59622">
        <ele>99</ele>
        <time>2026-03-30T14:29:14.000Z</time>
      </trkpt>
      <trkpt lat="49.5004" lon="-1.59624">
        <ele>99.6</ele>
        <time>2026-03-30T14:29:15.000Z</time>
      </trkpt>
      <trkpt lat="49.5004" lon="-1.59626">
        <ele>100.4</ele>
        <time>2026-03-30T14:29:16.000Z</time>
      </trkpt>
      <trkpt lat="49.50041" lon="-1.59628">
        <ele>100</ele>
        <time>2026-03-30T14:29:17.000Z</time>
      </trkpt>
      <trkpt lat="49.50042" lon="-1.5963">
        <ele>100.1</ele>
        <time>2026-03-30T14:29:18.000Z</time>
      </trkpt>
      <trkpt lat="49.50043" lon="-1.59632">
        <ele>99.7</ele>
        <time>2026-03-30T14:29:19.000Z</time>
      </trkpt>
      <trkpt lat="49.50043" lon="-1.59634">
        <ele>99.4</ele>
        <time>2026-03-30T14:29:20.000Z</time>
      </trkpt>
      <trkpt lat="49.50044" lon="-1.59636">
        <ele>99.1</ele>
        <time>2026-03-30T14:29:21.000Z</time>
      </trkpt>
      <trkpt lat="49.50044" lon="-1.59638">
        <ele>97.5</ele>
        <time>2026-03-30T14:29:22.000Z</time>
      </trkpt>
      <trkpt lat="49.50045" lon="-1.59639">
        <ele>97.1</ele>
        <time>2026-03-30T14:29:23.000Z</time>
      </trkpt>
      <trkpt lat="49.50046" lon="-1.59641">
        <ele>97.3</ele>
        <time>2026-03-30T14:29:24.000Z</time>
      </trkpt>
      <trkpt lat="49.50046" lon="-1.59643">
        <ele>96.9</ele>
        <time>2026-03-30T14:29:25.000Z</time>
      </trkpt>
      <trkpt lat="49.50047" lon="-1.59645">
        <ele>96</ele>
        <time>2026-03-30T14:29:26.000Z</time>
      </trkpt>
      <trkpt lat="49.50047" lon="-1.59647">
        <ele>96.1</ele>
        <time>2026-03-30T14:29:27.000Z</time>
      </trkpt>
      <trkpt lat="49.50048" lon="-1.59649">
        <ele>95.8</ele>
        <time>2026-03-30T14:29:28.000Z</time>
      </trkpt>
      <trkpt lat="49.50048" lon="-1.59651">
        <ele>95.7</ele>
        <time>2026-03-30T14:29:29.000Z</time>
      </trkpt>
      <trkpt lat="49.50048" lon="-1.59653">
        <ele>96.6</ele>
        <time>2026-03-30T14:29:30.000Z</time>
      </trkpt>
      <trkpt lat="49.50049" lon="-1.59656">
        <ele>97.4</ele>
        <time>2026-03-30T14:29:31.000Z</time>
      </trkpt>
      <trkpt lat="49.50049" lon="-1.59657">
        <ele>96.8</ele>
        <time>2026-03-30T14:29:32.000Z</time>
      </trkpt>
      <trkpt lat="49.50049" lon="-1.59659">
        <ele>96</ele>
        <time>2026-03-30T14:29:33.000Z</time>
      </trkpt>
      <trkpt lat="49.50049" lon="-1.59661">
        <ele>95.1</ele>
        <time>2026-03-30T14:29:34.000Z</time>
      </trkpt>
      <trkpt lat="49.50049" lon="-1.59663">
        <ele>94.7</ele>
        <time>2026-03-30T14:29:35.000Z</time>
      </trkpt>
      <trkpt lat="49.50049" lon="-1.59666">
        <ele>94.2</ele>
        <time>2026-03-30T14:29:36.000Z</time>
      </trkpt>
      <trkpt lat="49.50048" lon="-1.59667">
        <ele>92.5</ele>
        <time>2026-03-30T14:29:37.000Z</time>
      </trkpt>
      <trkpt lat="49.50047" lon="-1.59669">
        <ele>93.2</ele>
        <time>2026-03-30T14:29:38.000Z</time>
      </trkpt>
      <trkpt lat="49.50046" lon="-1.59671">
        <ele>93</ele>
        <time>2026-03-30T14:29:39.000Z</time>
      </trkpt>
      <trkpt lat="49.50046" lon="-1.59673">
        <ele>93.2</ele>
        <time>2026-03-30T14:29:40.000Z</time>
      </trkpt>
      <trkpt lat="49.50046" lon="-1.59675">
        <ele>92.8</ele>
        <time>2026-03-30T14:29:41.000Z</time>
      </trkpt>
      <trkpt lat="49.50046" lon="-1.59677">
        <ele>93.9</ele>
        <time>2026-03-30T14:29:42.000Z</time>
      </trkpt>
      <trkpt lat="49.50046" lon="-1.5968">
        <ele>93.6</ele>
        <time>2026-03-30T14:29:43.000Z</time>
      </trkpt>
      <trkpt lat="49.50045" lon="-1.59682">
        <ele>92.9</ele>
        <time>2026-03-30T14:29:44.000Z</time>
      </trkpt>
      <trkpt lat="49.50044" lon="-1.59683">
        <ele>92.7</ele>
        <time>2026-03-30T14:29:45.000Z</time>
      </trkpt>
      <trkpt lat="49.50044" lon="-1.59685">
        <ele>91.9</ele>
        <time>2026-03-30T14:29:46.000Z</time>
      </trkpt>
      <trkpt lat="49.50043" lon="-1.59686">
        <ele>92.8</ele>
        <time>2026-03-30T14:29:47.000Z</time>
      </trkpt>
      <trkpt lat="49.50042" lon="-1.59687">
        <ele>93.6</ele>
        <time>2026-03-30T14:29:48.000Z</time>
      </trkpt>
      <trkpt lat="49.50041" lon="-1.59689">
        <ele>93.9</ele>
        <time>2026-03-30T14:29:49.000Z</time>
      </trkpt>
      <trkpt lat="49.50041" lon="-1.5969">
        <ele>92.5</ele>
        <time>2026-03-30T14:29:50.000Z</time>
      </trkpt>
      <trkpt lat="49.5004" lon="-1.59691">
        <ele>92.4</ele>
        <time>2026-03-30T14:29:51.000Z</time>
      </trkpt>
      <trkpt lat="49.50039" lon="-1.59693">
        <ele>92.9</ele>
        <time>2026-03-30T14:29:52.000Z</time>
      </trkpt>
      <trkpt lat="49.50038" lon="-1.59694">
        <ele>94</ele>
        <time>2026-03-30T14:29:53.000Z</time>
      </trkpt>
      <trkpt lat="49.50037" lon="-1.59695">
        <ele>93.6</ele>
        <time>2026-03-30T14:29:54.000Z</time>
      </trkpt>
      <trkpt lat="49.50035" lon="-1.59696">
        <ele>94.1</ele>
        <time>2026-03-30T14:29:55.000Z</time>
      </trkpt>
      <trkpt lat="49.50034" lon="-1.59697">
        <ele>94.6</ele>
        <time>2026-03-30T14:29:56.000Z</time>
      </trkpt>
      <trkpt lat="49.50033" lon="-1.59699">
        <ele>94.5</ele>
        <time>2026-03-30T14:29:57.000Z</time>
      </trkpt>
      <trkpt lat="49.50032" lon="-1.597">
        <ele>94.2</ele>
        <time>2026-03-30T14:29:58.000Z</time>
      </trkpt>
      <trkpt lat="49.50031" lon="-1.59701">
        <ele>94.8</ele>
        <time>2026-03-30T14:29:59.000Z</time>
      </trkpt>
      <trkpt lat="49.5003" lon="-1.59703">
        <ele>94.6</ele>
        <time>2026-03-30T14:30:00.000Z</time>
      </trkpt>
      <trkpt lat="49.5003" lon="-1.59703">
        <ele>96.6</ele>
        <time>2026-03-30T14:30:01.000Z</time>
      </trkpt>
      <trkpt lat="49.50033" lon="-1.59702">
        <ele>101</ele>
        <time>2026-03-30T14:30:02.000Z</time>
      </trkpt>
      <trkpt lat="49.50034" lon="-1.59702">
        <ele>100.9</ele>
        <time>2026-03-30T14:30:03.000Z</time>
      </trkpt>
      <trkpt lat="49.50034" lon="-1.59703">
        <ele>101.8</ele>
        <time>2026-03-30T14:30:04.000Z</time>
      </trkpt>
      <trkpt lat="49.50033" lon="-1.59705">
        <ele>100.8</ele>
        <time>2026-03-30T14:30:05.000Z</time>
      </trkpt>
      <trkpt lat="49.50031" lon="-1.59705">
        <ele>101.1</ele>
        <time>2026-03-30T14:30:06.000Z</time>
      </trkpt>
      <trkpt lat="49.5003" lon="-1.59706">
        <ele>101.9</ele>
        <time>2026-03-30T14:30:07.000Z</time>
      </trkpt>
      <trkpt lat="49.5003" lon="-1.59707">
        <ele>102.1</ele>
        <time>2026-03-30T14:30:08.000Z</time>
      </trkpt>
      <trkpt lat="49.50029" lon="-1.59708">
        <ele>102.5</ele>
        <time>2026-03-30T14:30:09.000Z</time>
      </trkpt>
      <trkpt lat="49.50028" lon="-1.59709">
        <ele>102.8</ele>
        <time>2026-03-30T14:30:10.000Z</time>
      </trkpt>
      <trkpt lat="49.50028" lon="-1.59711">
        <ele>103.7</ele>
        <time>2026-03-30T14:30:11.000Z</time>
      </trkpt>
      <trkpt lat="49.50028" lon="-1.59712">
        <ele>102.8</ele>
        <time>2026-03-30T14:30:12.000Z</time>
      </trkpt>
      <trkpt lat="49.50027" lon="-1.59713">
        <ele>102.8</ele>
        <time>2026-03-30T14:30:13.000Z</time>
      </trkpt>
      <trkpt lat="49.50027" lon="-1.59714">
        <ele>103.5</ele>
        <time>2026-03-30T14:30:14.000Z</time>
      </trkpt>
      <trkpt lat="49.50026" lon="-1.59715">
        <ele>103.5</ele>
        <time>2026-03-30T14:30:15.000Z</time>
      </trkpt>
      <trkpt lat="49.50027" lon="-1.59716">
        <ele>103.4</ele>
        <time>2026-03-30T14:30:16.000Z</time>
      </trkpt>
      <trkpt lat="49.50028" lon="-1.59716">
        <ele>103.1</ele>
        <time>2026-03-30T14:30:17.000Z</time>
      </trkpt>
      <trkpt lat="49.5003" lon="-1.59715">
        <ele>103.1</ele>
        <time>2026-03-30T14:30:18.000Z</time>
      </trkpt>
      <trkpt lat="49.50031" lon="-1.59715">
        <ele>103.2</ele>
        <time>2026-03-30T14:30:19.000Z</time>
      </trkpt>
      <trkpt lat="49.50031" lon="-1.59716">
        <ele>102.9</ele>
        <time>2026-03-30T14:30:20.000Z</time>
      </trkpt>
      <trkpt lat="49.50032" lon="-1.59716">
        <ele>102.5</ele>
        <time>2026-03-30T14:30:21.000Z</time>
      </trkpt>
      <trkpt lat="49.50033" lon="-1.59717">
        <ele>101.5</ele>
        <time>2026-03-30T14:30:22.000Z</time>
      </trkpt>
      <trkpt lat="49.50033" lon="-1.59717">
        <ele>100.4</ele>
        <time>2026-03-30T14:30:23.000Z</time>
      </trkpt>
      <trkpt lat="49.50033" lon="-1.59717">
        <ele>99.7</ele>
        <time>2026-03-30T14:30:24.000Z</time>
      </trkpt>
      <trkpt lat="49.50034" lon="-1.59717">
        <ele>100.5</ele>
        <time>2026-03-30T14:30:25.000Z</time>
      </trkpt>
      <trkpt lat="49.50035" lon="-1.59718">
        <ele>101.4</ele>
        <time>2026-03-30T14:30:26.000Z</time>
      </trkpt>
      <trkpt lat="49.50035" lon="-1.59718">
        <ele>102</ele>
        <time>2026-03-30T14:30:27.000Z</time>
      </trkpt>
      <trkpt lat="49.50036" lon="-1.59719">
        <ele>101.9</ele>
        <time>2026-03-30T14:30:28.000Z</time>
      </trkpt>
      <trkpt lat="49.50037" lon="-1.59719">
        <ele>101.6</ele>
        <time>2026-03-30T14:30:29.000Z</time>
      </trkpt>
      <trkpt lat="49.50037" lon="-1.59717">
        <ele>102.3</ele>
        <time>2026-03-30T14:30:30.000Z</time>
      </trkpt>
      <trkpt lat="49.50038" lon="-1.59716">
        <ele>103.1</ele>
        <time>2026-03-30T14:30:31.000Z</time>
      </trkpt>
      <trkpt lat="49.50039" lon="-1.59716">
        <ele>103.8</ele>
        <time>2026-03-30T14:30:32.000Z</time>
      </trkpt>
      <trkpt lat="49.5004" lon="-1.59717">
        <ele>103.2</ele>
        <time>2026-03-30T14:30:33.000Z</time>
      </trkpt>
      <trkpt lat="49.5004" lon="-1.59718">
        <ele>103.9</ele>
        <time>2026-03-30T14:30:34.000Z</time>
      </trkpt>
      <trkpt lat="49.50041" lon="-1.59717">
        <ele>104.1</ele>
        <time>2026-03-30T14:30:35.000Z</time>
      </trkpt>
      <trkpt lat="49.50041" lon="-1.59717">
        <ele>105</ele>
        <time>2026-03-30T14:30:36.000Z</time>
      </trkpt>
      <trkpt lat="49.50042" lon="-1.59716">
        <ele>105.2</ele>
        <time>2026-03-30T14:30:37.000Z</time>
      </trkpt>
      <trkpt lat="49.50042" lon="-1.59715">
        <ele>104.7</ele>
        <time>2026-03-30T14:30:38.000Z</time>
      </trkpt>
      <trkpt lat="49.50042" lon="-1.59714">
        <ele>105.1</ele>
        <time>2026-03-30T14:30:39.000Z</time>
      </trkpt>
      <trkpt lat="49.50043" lon="-1.59713">
        <ele>104.8</ele>
        <time>2026-03-30T14:30:40.000Z</time>
      </trkpt>
      <trkpt lat="49.50044" lon="-1.59712">
        <ele>104.3</ele>
        <time>2026-03-30T14:30:41.000Z</time>
      </trkpt>
      <trkpt lat="49.50044" lon="-1.59711">
        <ele>103.4</ele>
        <time>2026-03-30T14:30:42.000Z</time>
      </trkpt>
      <trkpt lat="49.50045" lon="-1.59709">
        <ele>103</ele>
        <time>2026-03-30T14:30:43.000Z</time>
      </trkpt>
      <trkpt lat="49.50046" lon="-1.59709">
        <ele>102.8</ele>
        <time>2026-03-30T14:30:44.000Z</time>
      </trkpt>
      <trkpt lat="49.50046" lon="-1.59707">
        <ele>103</ele>
        <time>2026-03-30T14:30:45.000Z</time>
      </trkpt>
      <trkpt lat="49.50047" lon="-1.59705">
        <ele>102.6</ele>
        <time>2026-03-30T14:30:46.000Z</time>
      </trkpt>
      <trkpt lat="49.50048" lon="-1.59704">
        <ele>101.9</ele>
        <time>2026-03-30T14:30:47.000Z</time>
      </trkpt>
      <trkpt lat="49.50049" lon="-1.59703">
        <ele>102.1</ele>
        <time>2026-03-30T14:30:48.000Z</time>
      </trkpt>
      <trkpt lat="49.50049" lon="-1.59701">
        <ele>101.8</ele>
        <time>2026-03-30T14:30:49.000Z</time>
      </trkpt>
      <trkpt lat="49.5005" lon="-1.597">
        <ele>101.3</ele>
        <time>2026-03-30T14:30:50.000Z</time>
      </trkpt>
      <trkpt lat="49.50051" lon="-1.59698">
        <ele>101</ele>
        <time>2026-03-30T14:30:51.000Z</time>
      </trkpt>
      <trkpt lat="49.50052" lon="-1.59697">
        <ele>101.4</ele>
        <time>2026-03-30T14:30:52.000Z</time>
      </trkpt>
      <trkpt lat="49.50053" lon="-1.59695">
        <ele>102.5</ele>
        <time>2026-03-30T14:30:53.000Z</time>
      </trkpt>
      <trkpt lat="49.50054" lon="-1.59693">
        <ele>103.2</ele>
        <time>2026-03-30T14:30:54.000Z</time>
      </trkpt>
      <trkpt lat="49.50054" lon="-1.59691">
        <ele>103.4</ele>
        <time>2026-03-30T14:30:55.000Z</time>
      </trkpt>
      <trkpt lat="49.50055" lon="-1.5969">
        <ele>102.8</ele>
        <time>2026-03-30T14:30:56.000Z</time>
      </trkpt>
      <trkpt lat="49.50056" lon="-1.59688">
        <ele>102.1</ele>
        <time>2026-03-30T14:30:57.000Z</time>
      </trkpt>
      <trkpt lat="49.50057" lon="-1.59688">
        <ele>101.8</ele>
        <time>2026-03-30T14:30:58.000Z</time>
      </trkpt>
      <trkpt lat="49.50058" lon="-1.59686">
        <ele>102.2</ele>
        <time>2026-03-30T14:30:59.000Z</time>
      </trkpt>
      <trkpt lat="49.50059" lon="-1.59684">
        <ele>102.8</ele>
        <time>2026-03-30T14:31:00.000Z</time>
      </trkpt>
      <trkpt lat="49.5006" lon="-1.59683">
        <ele>102.6</ele>
        <time>2026-03-30T14:31:01.000Z</time>
      </trkpt>
      <trkpt lat="49.50062" lon="-1.59682">
        <ele>103.1</ele>
        <time>2026-03-30T14:31:02.000Z</time>
      </trkpt>
      <trkpt lat="49.50063" lon="-1.5968">
        <ele>103.6</ele>
        <time>2026-03-30T14:31:03.000Z</time>
      </trkpt>
      <trkpt lat="49.50065" lon="-1.59679">
        <ele>102.8</ele>
        <time>2026-03-30T14:31:04.000Z</time>
      </trkpt>
      <trkpt lat="49.50066" lon="-1.59678">
        <ele>103.4</ele>
        <time>2026-03-30T14:31:05.000Z</time>
      </trkpt>
      <trkpt lat="49.50068" lon="-1.59677">
        <ele>104.4</ele>
        <time>2026-03-30T14:31:06.000Z</time>
      </trkpt>
      <trkpt lat="49.50069" lon="-1.59675">
        <ele>104.4</ele>
        <time>2026-03-30T14:31:07.000Z</time>
      </trkpt>
      <trkpt lat="49.5007" lon="-1.59674">
        <ele>105.5</ele>
        <time>2026-03-30T14:31:08.000Z</time>
      </trkpt>
      <trkpt lat="49.50071" lon="-1.59672">
        <ele>105.6</ele>
        <time>2026-03-30T14:31:09.000Z</time>
      </trkpt>
      <trkpt lat="49.50071" lon="-1.5967">
        <ele>105.7</ele>
        <time>2026-03-30T14:31:10.000Z</time>
      </trkpt>
      <trkpt lat="49.50072" lon="-1.59668">
        <ele>107.1</ele>
        <time>2026-03-30T14:31:11.000Z</time>
      </trkpt>
      <trkpt lat="49.50073" lon="-1.59666">
        <ele>108.3</ele>
        <time>2026-03-30T14:31:12.000Z</time>
      </trkpt>
      <trkpt lat="49.50074" lon="-1.59665">
        <ele>108.9</ele>
        <time>2026-03-30T14:31:13.000Z</time>
      </trkpt>
      <trkpt lat="49.50075" lon="-1.59663">
        <ele>108.5</ele>
        <time>2026-03-30T14:31:14.000Z</time>
      </trkpt>
      <trkpt lat="49.50076" lon="-1.59662">
        <ele>109.2</ele>
        <time>2026-03-30T14:31:15.000Z</time>
      </trkpt>
      <trkpt lat="49.50077" lon="-1.59661">
        <ele>109.2</ele>
        <time>2026-03-30T14:31:16.000Z</time>
      </trkpt>
      <trkpt lat="49.50077" lon="-1.59659">
        <ele>108.8</ele>
        <time>2026-03-30T14:31:17.000Z</time>
      </trkpt>
      <trkpt lat="49.50079" lon="-1.59657">
        <ele>108.8</ele>
        <time>2026-03-30T14:31:18.000Z</time>
      </trkpt>
      <trkpt lat="49.5008" lon="-1.59656">
        <ele>108</ele>
        <time>2026-03-30T14:31:19.000Z</time>
      </trkpt>
      <trkpt lat="49.50081" lon="-1.59655">
        <ele>107.6</ele>
        <time>2026-03-30T14:31:20.000Z</time>
      </trkpt>
      <trkpt lat="49.50082" lon="-1.59653">
        <ele>107.7</ele>
        <time>2026-03-30T14:31:21.000Z</time>
      </trkpt>
      <trkpt lat="49.50083" lon="-1.59651">
        <ele>107.7</ele>
        <time>2026-03-30T14:31:22.000Z</time>
      </trkpt>
      <trkpt lat="49.50084" lon="-1.5965">
        <ele>107.6</ele>
        <time>2026-03-30T14:31:23.000Z</time>
      </trkpt>
      <trkpt lat="49.50086" lon="-1.59648">
        <ele>107.3</ele>
        <time>2026-03-30T14:31:24.000Z</time>
      </trkpt>
      <trkpt lat="49.50087" lon="-1.59647">
        <ele>106.8</ele>
        <time>2026-03-30T14:31:25.000Z</time>
      </trkpt>
      <trkpt lat="49.50088" lon="-1.59646">
        <ele>106.5</ele>
        <time>2026-03-30T14:31:26.000Z</time>
      </trkpt>
      <trkpt lat="49.50089" lon="-1.59644">
        <ele>105.4</ele>
        <time>2026-03-30T14:31:27.000Z</time>
      </trkpt>
      <trkpt lat="49.5009" lon="-1.59643">
        <ele>105.7</ele>
        <time>2026-03-30T14:31:28.000Z</time>
      </trkpt>
      <trkpt lat="49.50091" lon="-1.59642">
        <ele>105.3</ele>
        <time>2026-03-30T14:31:29.000Z</time>
      </trkpt>
      <trkpt lat="49.50093" lon="-1.5964">
        <ele>104.7</ele>
        <time>2026-03-30T14:31:30.000Z</time>
      </trkpt>
      <trkpt lat="49.50094" lon="-1.59639">
        <ele>104.8</ele>
        <time>2026-03-30T14:31:31.000Z</time>
      </trkpt>
      <trkpt lat="49.50094" lon="-1.59637">
        <ele>105.5</ele>
        <time>2026-03-30T14:31:32.000Z</time>
      </trkpt>
      <trkpt lat="49.50096" lon="-1.59635">
        <ele>105.3</ele>
        <time>2026-03-30T14:31:33.000Z</time>
      </trkpt>
      <trkpt lat="49.50097" lon="-1.59634">
        <ele>105.6</ele>
        <time>2026-03-30T14:31:34.000Z</time>
      </trkpt>
      <trkpt lat="49.50097" lon="-1.59632">
        <ele>105.8</ele>
        <time>2026-03-30T14:31:35.000Z</time>
      </trkpt>
      <trkpt lat="49.50098" lon="-1.5963">
        <ele>105.9</ele>
        <time>2026-03-30T14:31:36.000Z</time>
      </trkpt>
      <trkpt lat="49.50099" lon="-1.59628">
        <ele>106.3</ele>
        <time>2026-03-30T14:31:37.000Z</time>
      </trkpt>
      <trkpt lat="49.50101" lon="-1.59627">
        <ele>107</ele>
        <time>2026-03-30T14:31:38.000Z</time>
      </trkpt>
      <trkpt lat="49.50102" lon="-1.59625">
        <ele>107.2</ele>
        <time>2026-03-30T14:31:39.000Z</time>
      </trkpt>
      <trkpt lat="49.50103" lon="-1.59623">
        <ele>107.4</ele>
        <time>2026-03-30T14:31:40.000Z</time>
      </trkpt>
      <trkpt lat="49.50104" lon="-1.59621">
        <ele>107</ele>
        <time>2026-03-30T14:31:41.000Z</time>
      </trkpt>
      <trkpt lat="49.50105" lon="-1.59619">
        <ele>107.3</ele>
        <time>2026-03-30T14:31:42.000Z</time>
      </trkpt>
      <trkpt lat="49.50105" lon="-1.59618">
        <ele>107.3</ele>
        <time>2026-03-30T14:31:43.000Z</time>
      </trkpt>
      <trkpt lat="49.50106" lon="-1.59617">
        <ele>107.3</ele>
        <time>2026-03-30T14:31:44.000Z</time>
      </trkpt>
      <trkpt lat="49.50107" lon="-1.59615">
        <ele>108.2</ele>
        <time>2026-03-30T14:31:45.000Z</time>
      </trkpt>
      <trkpt lat="49.50108" lon="-1.59614">
        <ele>108.4</ele>
        <time>2026-03-30T14:31:46.000Z</time>
      </trkpt>
      <trkpt lat="49.50109" lon="-1.59612">
        <ele>108.9</ele>
        <time>2026-03-30T14:31:47.000Z</time>
      </trkpt>
      <trkpt lat="49.50109" lon="-1.5961">
        <ele>108.8</ele>
        <time>2026-03-30T14:31:48.000Z</time>
      </trkpt>
      <trkpt lat="49.50111" lon="-1.59609">
        <ele>108.5</ele>
        <time>2026-03-30T14:31:49.000Z</time>
      </trkpt>
      <trkpt lat="49.50112" lon="-1.59607">
        <ele>108.9</ele>
        <time>2026-03-30T14:31:50.000Z</time>
      </trkpt>
      <trkpt lat="49.50113" lon="-1.59606">
        <ele>109.3</ele>
        <time>2026-03-30T14:31:51.000Z</time>
      </trkpt>
      <trkpt lat="49.50114" lon="-1.59605">
        <ele>109.3</ele>
        <time>2026-03-30T14:31:52.000Z</time>
      </trkpt>
      <trkpt lat="49.50115" lon="-1.59603">
        <ele>110.1</ele>
        <time>2026-03-30T14:31:53.000Z</time>
      </trkpt>
      <trkpt lat="49.50116" lon="-1.59601">
        <ele>109.6</ele>
        <time>2026-03-30T14:31:54.000Z</time>
      </trkpt>
      <trkpt lat="49.50116" lon="-1.59599">
        <ele>110.1</ele>
        <time>2026-03-30T14:31:55.000Z</time>
      </trkpt>
      <trkpt lat="49.50118" lon="-1.59598">
        <ele>109.5</ele>
        <time>2026-03-30T14:31:56.000Z</time>
      </trkpt>
      <trkpt lat="49.50119" lon="-1.59596">
        <ele>110.6</ele>
        <time>2026-03-30T14:31:57.000Z</time>
      </trkpt>
      <trkpt lat="49.5012" lon="-1.59595">
        <ele>111.4</ele>
        <time>2026-03-30T14:31:58.000Z</time>
      </trkpt>
      <trkpt lat="49.50121" lon="-1.59594">
        <ele>111</ele>
        <time>2026-03-30T14:31:59.000Z</time>
      </trkpt>
      <trkpt lat="49.50122" lon="-1.59593">
        <ele>110.7</ele>
        <time>2026-03-30T14:32:00.000Z</time>
      </trkpt>
      <trkpt lat="49.50123" lon="-1.59591">
        <ele>110.7</ele>
        <time>2026-03-30T14:32:01.000Z</time>
      </trkpt>
      <trkpt lat="49.50124" lon="-1.5959">
        <ele>110.8</ele>
        <time>2026-03-30T14:32:02.000Z</time>
      </trkpt>
      <trkpt lat="49.50125" lon="-1.59588">
        <ele>109.9</ele>
        <time>2026-03-30T14:32:03.000Z</time>
      </trkpt>
      <trkpt lat="49.50126" lon="-1.59587">
        <ele>109.8</ele>
        <time>2026-03-30T14:32:04.000Z</time>
      </trkpt>
      <trkpt lat="49.50127" lon="-1.59585">
        <ele>110</ele>
        <time>2026-03-30T14:32:05.000Z</time>
      </trkpt>
      <trkpt lat="49.50128" lon="-1.59583">
        <ele>110.3</ele>
        <time>2026-03-30T14:32:06.000Z</time>
      </trkpt>
      <trkpt lat="49.50129" lon="-1.59581">
        <ele>110</ele>
        <time>2026-03-30T14:32:07.000Z</time>
      </trkpt>
      <trkpt lat="49.5013" lon="-1.5958">
        <ele>109.8</ele>
        <time>2026-03-30T14:32:08.000Z</time>
      </trkpt>
      <trkpt lat="49.50131" lon="-1.59578">
        <ele>109.1</ele>
        <time>2026-03-30T14:32:09.000Z</time>
      </trkpt>
      <trkpt lat="49.50132" lon="-1.59577">
        <ele>108.6</ele>
        <time>2026-03-30T14:32:10.000Z</time>
      </trkpt>
      <trkpt lat="49.50134" lon="-1.59575">
        <ele>107.4</ele>
        <time>2026-03-30T14:32:11.000Z</time>
      </trkpt>
      <trkpt lat="49.50135" lon="-1.59574">
        <ele>106.7</ele>
        <time>2026-03-30T14:32:12.000Z</time>
      </trkpt>
      <trkpt lat="49.50136" lon="-1.59573">
        <ele>106.6</ele>
        <time>2026-03-30T14:32:13.000Z</time>
      </trkpt>
      <trkpt lat="49.50137" lon="-1.59571">
        <ele>105.9</ele>
        <time>2026-03-30T14:32:14.000Z</time>
      </trkpt>
      <trkpt lat="49.50138" lon="-1.59569">
        <ele>106.4</ele>
        <time>2026-03-30T14:32:15.000Z</time>
      </trkpt>
      <trkpt lat="49.50139" lon="-1.59567">
        <ele>106.7</ele>
        <time>2026-03-30T14:32:16.000Z</time>
      </trkpt>
      <trkpt lat="49.5014" lon="-1.59565">
        <ele>106.5</ele>
        <time>2026-03-30T14:32:17.000Z</time>
      </trkpt>
      <trkpt lat="49.50141" lon="-1.59565">
        <ele>104.6</ele>
        <time>2026-03-30T14:32:18.000Z</time>
      </trkpt>
      <trkpt lat="49.50142" lon="-1.59566">
        <ele>104.5</ele>
        <time>2026-03-30T14:32:19.000Z</time>
      </trkpt>
      <trkpt lat="49.50144" lon="-1.59566">
        <ele>104.2</ele>
        <time>2026-03-30T14:32:20.000Z</time>
      </trkpt>
      <trkpt lat="49.50145" lon="-1.59565">
        <ele>103.5</ele>
        <time>2026-03-30T14:32:21.000Z</time>
      </trkpt>
      <trkpt lat="49.50146" lon="-1.59563">
        <ele>103.6</ele>
        <time>2026-03-30T14:32:22.000Z</time>
      </trkpt>
      <trkpt lat="49.50146" lon="-1.59561">
        <ele>103</ele>
        <time>2026-03-30T14:32:23.000Z</time>
      </trkpt>
      <trkpt lat="49.50147" lon="-1.5956">
        <ele>103</ele>
        <time>2026-03-30T14:32:24.000Z</time>
      </trkpt>
      <trkpt lat="49.50148" lon="-1.59559">
        <ele>102.9</ele>
        <time>2026-03-30T14:32:25.000Z</time>
      </trkpt>
      <trkpt lat="49.50149" lon="-1.59558">
        <ele>102.8</ele>
        <time>2026-03-30T14:32:26.000Z</time>
      </trkpt>
      <trkpt lat="49.5015" lon="-1.59557">
        <ele>102.4</ele>
        <time>2026-03-30T14:32:27.000Z</time>
      </trkpt>
      <trkpt lat="49.5015" lon="-1.59556">
        <ele>102.3</ele>
        <time>2026-03-30T14:32:28.000Z</time>
      </trkpt>
      <trkpt lat="49.50151" lon="-1.59554">
        <ele>103.1</ele>
        <time>2026-03-30T14:32:29.000Z</time>
      </trkpt>
      <trkpt lat="49.50152" lon="-1.59552">
        <ele>103.7</ele>
        <time>2026-03-30T14:32:30.000Z</time>
      </trkpt>
      <trkpt lat="49.50153" lon="-1.59552">
        <ele>103.5</ele>
        <time>2026-03-30T14:32:31.000Z</time>
      </trkpt>
      <trkpt lat="49.50154" lon="-1.59553">
        <ele>103.8</ele>
        <time>2026-03-30T14:32:32.000Z</time>
      </trkpt>
      <trkpt lat="49.50155" lon="-1.59553">
        <ele>104.3</ele>
        <time>2026-03-30T14:32:33.000Z</time>
      </trkpt>
      <trkpt lat="49.50156" lon="-1.59552">
        <ele>104</ele>
        <time>2026-03-30T14:32:34.000Z</time>
      </trkpt>
      <trkpt lat="49.50157" lon="-1.59551">
        <ele>103.5</ele>
        <time>2026-03-30T14:32:35.000Z</time>
      </trkpt>
      <trkpt lat="49.50158" lon="-1.5955">
        <ele>103.4</ele>
        <time>2026-03-30T14:32:36.000Z</time>
      </trkpt>
      <trkpt lat="49.50159" lon="-1.59549">
        <ele>103.4</ele>
        <time>2026-03-30T14:32:37.000Z</time>
      </trkpt>
      <trkpt lat="49.5016" lon="-1.59548">
        <ele>102.8</ele>
        <time>2026-03-30T14:32:38.000Z</time>
      </trkpt>
      <trkpt lat="49.50161" lon="-1.59546">
        <ele>102.8</ele>
        <time>2026-03-30T14:32:39.000Z</time>
      </trkpt>
      <trkpt lat="49.50162" lon="-1.59545">
        <ele>103</ele>
        <time>2026-03-30T14:32:40.000Z</time>
      </trkpt>
      <trkpt lat="49.50163" lon="-1.59544">
        <ele>102.7</ele>
        <time>2026-03-30T14:32:41.000Z</time>
      </trkpt>
      <trkpt lat="49.50164" lon="-1.59543">
        <ele>102.6</ele>
        <time>2026-03-30T14:32:42.000Z</time>
      </trkpt>
      <trkpt lat="49.50166" lon="-1.59542">
        <ele>102.3</ele>
        <time>2026-03-30T14:32:43.000Z</time>
      </trkpt>
      <trkpt lat="49.50167" lon="-1.59541">
        <ele>102.6</ele>
        <time>2026-03-30T14:32:44.000Z</time>
      </trkpt>
      <trkpt lat="49.50168" lon="-1.5954">
        <ele>103.1</ele>
        <time>2026-03-30T14:32:45.000Z</time>
      </trkpt>
      <trkpt lat="49.50169" lon="-1.59537">
        <ele>103.8</ele>
        <time>2026-03-30T14:32:46.000Z</time>
      </trkpt>
      <trkpt lat="49.5017" lon="-1.59535">
        <ele>104.1</ele>
        <time>2026-03-30T14:32:47.000Z</time>
      </trkpt>
      <trkpt lat="49.50172" lon="-1.59533">
        <ele>104.2</ele>
        <time>2026-03-30T14:32:48.000Z</time>
      </trkpt>
      <trkpt lat="49.50173" lon="-1.59531">
        <ele>104.6</ele>
        <time>2026-03-30T14:32:49.000Z</time>
      </trkpt>
      <trkpt lat="49.50174" lon="-1.59529">
        <ele>104.9</ele>
        <time>2026-03-30T14:32:50.000Z</time>
      </trkpt>
      <trkpt lat="49.50175" lon="-1.59529">
        <ele>104.7</ele>
        <time>2026-03-30T14:32:51.000Z</time>
      </trkpt>
      <trkpt lat="49.50176" lon="-1.59528">
        <ele>104.6</ele>
        <time>2026-03-30T14:32:52.000Z</time>
      </trkpt>
      <trkpt lat="49.50177" lon="-1.59527">
        <ele>104.6</ele>
        <time>2026-03-30T14:32:53.000Z</time>
      </trkpt>
      <trkpt lat="49.50178" lon="-1.59527">
        <ele>104.2</ele>
        <time>2026-03-30T14:32:54.000Z</time>
      </trkpt>
      <trkpt lat="49.50179" lon="-1.59527">
        <ele>104.8</ele>
        <time>2026-03-30T14:32:55.000Z</time>
      </trkpt>
      <trkpt lat="49.50179" lon="-1.59526">
        <ele>105.1</ele>
        <time>2026-03-30T14:32:56.000Z</time>
      </trkpt>
      <trkpt lat="49.5018" lon="-1.59525">
        <ele>105.1</ele>
        <time>2026-03-30T14:32:57.000Z</time>
      </trkpt>
      <trkpt lat="49.50178" lon="-1.59528">
        <ele>102.6</ele>
        <time>2026-03-30T14:32:58.000Z</time>
      </trkpt>
      <trkpt lat="49.50178" lon="-1.59528">
        <ele>102.5</ele>
        <time>2026-03-30T14:32:59.000Z</time>
      </trkpt>
      <trkpt lat="49.50178" lon="-1.59528">
        <ele>102.6</ele>
        <time>2026-03-30T14:33:00.000Z</time>
      </trkpt>
      <trkpt lat="49.50178" lon="-1.59528">
        <ele>102.6</ele>
        <time>2026-03-30T14:33:01.000Z</time>
      </trkpt>
      <trkpt lat="49.50178" lon="-1.59528">
        <ele>102.6</ele>
        <time>2026-03-30T14:33:02.000Z</time>
      </trkpt>
      <trkpt lat="49.50178" lon="-1.59526">
        <ele>102.4</ele>
        <time>2026-03-30T14:33:03.000Z</time>
      </trkpt>
      <trkpt lat="49.50179" lon="-1.59525">
        <ele>102.4</ele>
        <time>2026-03-30T14:33:04.000Z</time>
      </trkpt>
      <trkpt lat="49.50181" lon="-1.59524">
        <ele>102.3</ele>
        <time>2026-03-30T14:33:05.000Z</time>
      </trkpt>
      <trkpt lat="49.50182" lon="-1.59524">
        <ele>102.4</ele>
        <time>2026-03-30T14:33:06.000Z</time>
      </trkpt>
      <trkpt lat="49.50182" lon="-1.59523">
        <ele>102.2</ele>
        <time>2026-03-30T14:33:07.000Z</time>
      </trkpt>
      <trkpt lat="49.50183" lon="-1.59523">
        <ele>101.2</ele>
        <time>2026-03-30T14:33:08.000Z</time>
      </trkpt>
      <trkpt lat="49.50183" lon="-1.59523">
        <ele>101.9</ele>
        <time>2026-03-30T14:33:09.000Z</time>
      </trkpt>
      <trkpt lat="49.50184" lon="-1.59522">
        <ele>102</ele>
        <time>2026-03-30T14:33:10.000Z</time>
      </trkpt>
      <trkpt lat="49.50184" lon="-1.59521">
        <ele>102.3</ele>
        <time>2026-03-30T14:33:11.000Z</time>
      </trkpt>
      <trkpt lat="49.50185" lon="-1.5952">
        <ele>102.9</ele>
        <time>2026-03-30T14:33:12.000Z</time>
      </trkpt>
      <trkpt lat="49.50186" lon="-1.5952">
        <ele>103.2</ele>
        <time>2026-03-30T14:33:13.000Z</time>
      </trkpt>
      <trkpt lat="49.50187" lon="-1.59519">
        <ele>103.8</ele>
        <time>2026-03-30T14:33:14.000Z</time>
      </trkpt>
      <trkpt lat="49.50188" lon="-1.59518">
        <ele>104.2</ele>
        <time>2026-03-30T14:33:15.000Z</time>
      </trkpt>
      <trkpt lat="49.5019" lon="-1.5952">
        <ele>101.9</ele>
        <time>2026-03-30T14:33:16.000Z</time>
      </trkpt>
      <trkpt lat="49.50191" lon="-1.59523">
        <ele>101</ele>
        <time>2026-03-30T14:33:17.000Z</time>
      </trkpt>
      <trkpt lat="49.50192" lon="-1.59525">
        <ele>99.9</ele>
        <time>2026-03-30T14:33:18.000Z</time>
      </trkpt>
      <trkpt lat="49.50193" lon="-1.59527">
        <ele>99.6</ele>
        <time>2026-03-30T14:33:19.000Z</time>
      </trkpt>
      <trkpt lat="49.50194" lon="-1.5953">
        <ele>98.5</ele>
        <time>2026-03-30T14:33:20.000Z</time>
      </trkpt>
      <trkpt lat="49.50194" lon="-1.59531">
        <ele>97.7</ele>
        <time>2026-03-30T14:33:21.000Z</time>
      </trkpt>
      <trkpt lat="49.50195" lon="-1.59533">
        <ele>97.9</ele>
        <time>2026-03-30T14:33:22.000Z</time>
      </trkpt>
      <trkpt lat="49.50196" lon="-1.59535">
        <ele>96.9</ele>
        <time>2026-03-30T14:33:23.000Z</time>
      </trkpt>
      <trkpt lat="49.50197" lon="-1.59537">
        <ele>96.8</ele>
        <time>2026-03-30T14:33:24.000Z</time>
      </trkpt>
      <trkpt lat="49.50198" lon="-1.59539">
        <ele>97.1</ele>
        <time>2026-03-30T14:33:25.000Z</time>
      </trkpt>
      <trkpt lat="49.50199" lon="-1.5954">
        <ele>97.1</ele>
        <time>2026-03-30T14:33:26.000Z</time>
      </trkpt>
      <trkpt lat="49.502" lon="-1.59542">
        <ele>96.4</ele>
        <time>2026-03-30T14:33:27.000Z</time>
      </trkpt>
      <trkpt lat="49.50201" lon="-1.59543">
        <ele>96.2</ele>
        <time>2026-03-30T14:33:28.000Z</time>
      </trkpt>
      <trkpt lat="49.50203" lon="-1.59544">
        <ele>96.2</ele>
        <time>2026-03-30T14:33:29.000Z</time>
      </trkpt>
      <trkpt lat="49.50204" lon="-1.59545">
        <ele>96.7</ele>
        <time>2026-03-30T14:33:30.000Z</time>
      </trkpt>
      <trkpt lat="49.50206" lon="-1.59546">
        <ele>97.3</ele>
        <time>2026-03-30T14:33:31.000Z</time>
      </trkpt>
      <trkpt lat="49.50207" lon="-1.59547">
        <ele>97.5</ele>
        <time>2026-03-30T14:33:32.000Z</time>
      </trkpt>
      <trkpt lat="49.50208" lon="-1.59548">
        <ele>97.3</ele>
        <time>2026-03-30T14:33:33.000Z</time>
      </trkpt>
      <trkpt lat="49.50209" lon="-1.59549">
        <ele>97.3</ele>
        <time>2026-03-30T14:33:34.000Z</time>
      </trkpt>
      <trkpt lat="49.5021" lon="-1.59551">
        <ele>97.1</ele>
        <time>2026-03-30T14:33:35.000Z</time>
      </trkpt>
      <trkpt lat="49.50211" lon="-1.59552">
        <ele>97.3</ele>
        <time>2026-03-30T14:33:36.000Z</time>
      </trkpt>
      <trkpt lat="49.50212" lon="-1.59553">
        <ele>96.5</ele>
        <time>2026-03-30T14:33:37.000Z</time>
      </trkpt>
      <trkpt lat="49.50213" lon="-1.59555">
        <ele>96.6</ele>
        <time>2026-03-30T14:33:38.000Z</time>
      </trkpt>
      <trkpt lat="49.50214" lon="-1.59556">
        <ele>97.2</ele>
        <time>2026-03-30T14:33:39.000Z</time>
      </trkpt>
      <trkpt lat="49.50215" lon="-1.59557">
        <ele>97.4</ele>
        <time>2026-03-30T14:33:40.000Z</time>
      </trkpt>
      <trkpt lat="49.50216" lon="-1.59559">
        <ele>97.5</ele>
        <time>2026-03-30T14:33:41.000Z</time>
      </trkpt>
      <trkpt lat="49.50217" lon="-1.59561">
        <ele>97.4</ele>
        <time>2026-03-30T14:33:42.000Z</time>
      </trkpt>
      <trkpt lat="49.50218" lon="-1.59562">
        <ele>97.9</ele>
        <time>2026-03-30T14:33:43.000Z</time>
      </trkpt>
      <trkpt lat="49.50219" lon="-1.59564">
        <ele>97.8</ele>
        <time>2026-03-30T14:33:44.000Z</time>
      </trkpt>
      <trkpt lat="49.5022" lon="-1.59565">
        <ele>98.2</ele>
        <time>2026-03-30T14:33:45.000Z</time>
      </trkpt>
      <trkpt lat="49.50221" lon="-1.59567">
        <ele>98.1</ele>
        <time>2026-03-30T14:33:46.000Z</time>
      </trkpt>
      <trkpt lat="49.50222" lon="-1.59568">
        <ele>98.7</ele>
        <time>2026-03-30T14:33:47.000Z</time>
      </trkpt>
      <trkpt lat="49.50223" lon="-1.5957">
        <ele>98.9</ele>
        <time>2026-03-30T14:33:48.000Z</time>
      </trkpt>
      <trkpt lat="49.50224" lon="-1.59572">
        <ele>98.8</ele>
        <time>2026-03-30T14:33:49.000Z</time>
      </trkpt>
      <trkpt lat="49.50225" lon="-1.59573">
        <ele>98.5</ele>
        <time>2026-03-30T14:33:50.000Z</time>
      </trkpt>
      <trkpt lat="49.50226" lon="-1.59575">
        <ele>98.3</ele>
        <time>2026-03-30T14:33:51.000Z</time>
      </trkpt>
      <trkpt lat="49.50228" lon="-1.59576">
        <ele>99.4</ele>
        <time>2026-03-30T14:33:52.000Z</time>
      </trkpt>
      <trkpt lat="49.50229" lon="-1.59578">
        <ele>100.3</ele>
        <time>2026-03-30T14:33:53.000Z</time>
      </trkpt>
      <trkpt lat="49.5023" lon="-1.59579">
        <ele>100.4</ele>
        <time>2026-03-30T14:33:54.000Z</time>
      </trkpt>
      <trkpt lat="49.50231" lon="-1.59581">
        <ele>100.6</ele>
        <time>2026-03-30T14:33:55.000Z</time>
      </trkpt>
      <trkpt lat="49.50232" lon="-1.59582">
        <ele>101.4</ele>
        <time>2026-03-30T14:33:56.000Z</time>
      </trkpt>
      <trkpt lat="49.50234" lon="-1.59584">
        <ele>102</ele>
        <time>2026-03-30T14:33:57.000Z</time>
      </trkpt>
      <trkpt lat="49.50235" lon="-1.59586">
        <ele>102.2</ele>
        <time>2026-03-30T14:33:58.000Z</time>
      </trkpt>
      <trkpt lat="49.50236" lon="-1.59588">
        <ele>102</ele>
        <time>2026-03-30T14:33:59.000Z</time>
      </trkpt>
      <trkpt lat="49.50237" lon="-1.59589">
        <ele>102.2</ele>
        <time>2026-03-30T14:34:00.000Z</time>
      </trkpt>
      <trkpt lat="49.50239" lon="-1.5959">
        <ele>102.1</ele>
        <time>2026-03-30T14:34:01.000Z</time>
      </trkpt>
      <trkpt lat="49.5024" lon="-1.59591">
        <ele>102.2</ele>
        <time>2026-03-30T14:34:02.000Z</time>
      </trkpt>
      <trkpt lat="49.50242" lon="-1.59591">
        <ele>102.2</ele>
        <time>2026-03-30T14:34:03.000Z</time>
      </trkpt>
      <trkpt lat="49.50243" lon="-1.59592">
        <ele>101.7</ele>
        <time>2026-03-30T14:34:04.000Z</time>
      </trkpt>
      <trkpt lat="49.50244" lon="-1.59593">
        <ele>102.6</ele>
        <time>2026-03-30T14:34:05.000Z</time>
      </trkpt>
      <trkpt lat="49.50246" lon="-1.59593">
        <ele>102.3</ele>
        <time>2026-03-30T14:34:06.000Z</time>
      </trkpt>
      <trkpt lat="49.50248" lon="-1.59594">
        <ele>102.1</ele>
        <time>2026-03-30T14:34:07.000Z</time>
      </trkpt>
      <trkpt lat="49.50249" lon="-1.59594">
        <ele>102.2</ele>
        <time>2026-03-30T14:34:08.000Z</time>
      </trkpt>
      <trkpt lat="49.50251" lon="-1.59594">
        <ele>102.3</ele>
        <time>2026-03-30T14:34:09.000Z</time>
      </trkpt>
      <trkpt lat="49.50252" lon="-1.59593">
        <ele>102.4</ele>
        <time>2026-03-30T14:34:10.000Z</time>
      </trkpt>
      <trkpt lat="49.50254" lon="-1.59593">
        <ele>100.8</ele>
        <time>2026-03-30T14:34:11.000Z</time>
      </trkpt>
      <trkpt lat="49.50255" lon="-1.59593">
        <ele>101.1</ele>
        <time>2026-03-30T14:34:12.000Z</time>
      </trkpt>
      <trkpt lat="49.50256" lon="-1.59592">
        <ele>101.1</ele>
        <time>2026-03-30T14:34:13.000Z</time>
      </trkpt>
      <trkpt lat="49.50257" lon="-1.59592">
        <ele>101.4</ele>
        <time>2026-03-30T14:34:14.000Z</time>
      </trkpt>
      <trkpt lat="49.50259" lon="-1.59591">
        <ele>101.4</ele>
        <time>2026-03-30T14:34:15.000Z</time>
      </trkpt>
      <trkpt lat="49.5026" lon="-1.59591">
        <ele>101.3</ele>
        <time>2026-03-30T14:34:16.000Z</time>
      </trkpt>
      <trkpt lat="49.50261" lon="-1.5959">
        <ele>101.2</ele>
        <time>2026-03-30T14:34:17.000Z</time>
      </trkpt>
      <trkpt lat="49.50263" lon="-1.59589">
        <ele>101.4</ele>
        <time>2026-03-30T14:34:18.000Z</time>
      </trkpt>
      <trkpt lat="49.50264" lon="-1.59588">
        <ele>101.6</ele>
        <time>2026-03-30T14:34:19.000Z</time>
      </trkpt>
      <trkpt lat="49.50265" lon="-1.59587">
        <ele>101.7</ele>
        <time>2026-03-30T14:34:20.000Z</time>
      </trkpt>
      <trkpt lat="49.50267" lon="-1.59587">
        <ele>101.6</ele>
        <time>2026-03-30T14:34:21.000Z</time>
      </trkpt>
      <trkpt lat="49.50268" lon="-1.59586">
        <ele>101.6</ele>
        <time>2026-03-30T14:34:22.000Z</time>
      </trkpt>
      <trkpt lat="49.50269" lon="-1.59585">
        <ele>101.4</ele>
        <time>2026-03-30T14:34:23.000Z</time>
      </trkpt>
      <trkpt lat="49.5027" lon="-1.59584">
        <ele>100.8</ele>
        <time>2026-03-30T14:34:24.000Z</time>
      </trkpt>
      <trkpt lat="49.50272" lon="-1.59583">
        <ele>101.3</ele>
        <time>2026-03-30T14:34:25.000Z</time>
      </trkpt>
      <trkpt lat="49.50273" lon="-1.59581">
        <ele>101.2</ele>
        <time>2026-03-30T14:34:26.000Z</time>
      </trkpt>
      <trkpt lat="49.50274" lon="-1.59579">
        <ele>101.4</ele>
        <time>2026-03-30T14:34:27.000Z</time>
      </trkpt>
      <trkpt lat="49.50274" lon="-1.59578">
        <ele>102</ele>
        <time>2026-03-30T14:34:28.000Z</time>
      </trkpt>
      <trkpt lat="49.50275" lon="-1.59576">
        <ele>101</ele>
        <time>2026-03-30T14:34:29.000Z</time>
      </trkpt>
      <trkpt lat="49.50276" lon="-1.59575">
        <ele>101.4</ele>
        <time>2026-03-30T14:34:30.000Z</time>
      </trkpt>
      <trkpt lat="49.50277" lon="-1.59574">
        <ele>101.8</ele>
        <time>2026-03-30T14:34:31.000Z</time>
      </trkpt>
      <trkpt lat="49.50278" lon="-1.59574">
        <ele>101.9</ele>
        <time>2026-03-30T14:34:32.000Z</time>
      </trkpt>
      <trkpt lat="49.5028" lon="-1.59574">
        <ele>101.7</ele>
        <time>2026-03-30T14:34:33.000Z</time>
      </trkpt>
      <trkpt lat="49.50282" lon="-1.59573">
        <ele>101.9</ele>
        <time>2026-03-30T14:34:34.000Z</time>
      </trkpt>
      <trkpt lat="49.50283" lon="-1.59573">
        <ele>102.2</ele>
        <time>2026-03-30T14:34:35.000Z</time>
      </trkpt>
      <trkpt lat="49.50284" lon="-1.59573">
        <ele>101.8</ele>
        <time>2026-03-30T14:34:36.000Z</time>
      </trkpt>
      <trkpt lat="49.50285" lon="-1.59573">
        <ele>102.8</ele>
        <time>2026-03-30T14:34:37.000Z</time>
      </trkpt>
      <trkpt lat="49.50286" lon="-1.59572">
        <ele>102.8</ele>
        <time>2026-03-30T14:34:38.000Z</time>
      </trkpt>
      <trkpt lat="49.50288" lon="-1.59572">
        <ele>101.8</ele>
        <time>2026-03-30T14:34:39.000Z</time>
      </trkpt>
      <trkpt lat="49.50289" lon="-1.59572">
        <ele>101.5</ele>
        <time>2026-03-30T14:34:40.000Z</time>
      </trkpt>
      <trkpt lat="49.50291" lon="-1.59572">
        <ele>101.3</ele>
        <time>2026-03-30T14:34:41.000Z</time>
      </trkpt>
      <trkpt lat="49.50292" lon="-1.59573">
        <ele>101.2</ele>
        <time>2026-03-30T14:34:42.000Z</time>
      </trkpt>
      <trkpt lat="49.50293" lon="-1.59574">
        <ele>101.2</ele>
        <time>2026-03-30T14:34:43.000Z</time>
      </trkpt>
      <trkpt lat="49.50294" lon="-1.59576">
        <ele>100.9</ele>
        <time>2026-03-30T14:34:44.000Z</time>
      </trkpt>
      <trkpt lat="49.50295" lon="-1.59578">
        <ele>101.2</ele>
        <time>2026-03-30T14:34:45.000Z</time>
      </trkpt>
      <trkpt lat="49.50296" lon="-1.59579">
        <ele>100.7</ele>
        <time>2026-03-30T14:34:46.000Z</time>
      </trkpt>
      <trkpt lat="49.50297" lon="-1.5958">
        <ele>100.4</ele>
        <time>2026-03-30T14:34:47.000Z</time>
      </trkpt>
      <trkpt lat="49.50298" lon="-1.59582">
        <ele>101.6</ele>
        <time>2026-03-30T14:34:48.000Z</time>
      </trkpt>
      <trkpt lat="49.50299" lon="-1.59583">
        <ele>102.6</ele>
        <time>2026-03-30T14:34:49.000Z</time>
      </trkpt>
      <trkpt lat="49.50299" lon="-1.59584">
        <ele>102.3</ele>
        <time>2026-03-30T14:34:50.000Z</time>
      </trkpt>
      <trkpt lat="49.503" lon="-1.59585">
        <ele>102.9</ele>
        <time>2026-03-30T14:34:51.000Z</time>
      </trkpt>
      <trkpt lat="49.50301" lon="-1.59585">
        <ele>103.3</ele>
        <time>2026-03-30T14:34:52.000Z</time>
      </trkpt>
      <trkpt lat="49.50303" lon="-1.59585">
        <ele>103.3</ele>
        <time>2026-03-30T14:34:53.000Z</time>
      </trkpt>
      <trkpt lat="49.50303" lon="-1.59587">
        <ele>103.7</ele>
        <time>2026-03-30T14:34:54.000Z</time>
      </trkpt>
      <trkpt lat="49.50303" lon="-1.59589">
        <ele>104.5</ele>
        <time>2026-03-30T14:34:55.000Z</time>
      </trkpt>
      <trkpt lat="49.50305" lon="-1.59589">
        <ele>104.4</ele>
        <time>2026-03-30T14:34:56.000Z</time>
      </trkpt>
      <trkpt lat="49.50306" lon="-1.59589">
        <ele>104.7</ele>
        <time>2026-03-30T14:34:57.000Z</time>
      </trkpt>
      <trkpt lat="49.50307" lon="-1.59588">
        <ele>104.5</ele>
        <time>2026-03-30T14:34:58.000Z</time>
      </trkpt>
      <trkpt lat="49.50309" lon="-1.59588">
        <ele>104.4</ele>
        <time>2026-03-30T14:34:59.000Z</time>
      </trkpt>
      <trkpt lat="49.5031" lon="-1.5959">
        <ele>104.6</ele>
        <time>2026-03-30T14:35:00.000Z</time>
      </trkpt>
      <trkpt lat="49.50311" lon="-1.59591">
        <ele>105.1</ele>
        <time>2026-03-30T14:35:01.000Z</time>
      </trkpt>
      <trkpt lat="49.50312" lon="-1.59592">
        <ele>105.1</ele>
        <time>2026-03-30T14:35:02.000Z</time>
      </trkpt>
      <trkpt lat="49.50313" lon="-1.59594">
        <ele>104.7</ele>
        <time>2026-03-30T14:35:03.000Z</time>
      </trkpt>
      <trkpt lat="49.50314" lon="-1.59595">
        <ele>104.8</ele>
        <time>2026-03-30T14:35:04.000Z</time>
      </trkpt>
      <trkpt lat="49.50315" lon="-1.59596">
        <ele>104.9</ele>
        <time>2026-03-30T14:35:05.000Z</time>
      </trkpt>
      <trkpt lat="49.50316" lon="-1.59598">
        <ele>104.6</ele>
        <time>2026-03-30T14:35:06.000Z</time>
      </trkpt>
      <trkpt lat="49.50316" lon="-1.59599">
        <ele>104.2</ele>
        <time>2026-03-30T14:35:07.000Z</time>
      </trkpt>
      <trkpt lat="49.50317" lon="-1.59601">
        <ele>104</ele>
        <time>2026-03-30T14:35:08.000Z</time>
      </trkpt>
      <trkpt lat="49.50317" lon="-1.59603">
        <ele>104.5</ele>
        <time>2026-03-30T14:35:09.000Z</time>
      </trkpt>
      <trkpt lat="49.50318" lon="-1.59604">
        <ele>104.2</ele>
        <time>2026-03-30T14:35:10.000Z</time>
      </trkpt>
      <trkpt lat="49.50318" lon="-1.59605">
        <ele>104.5</ele>
        <time>2026-03-30T14:35:11.000Z</time>
      </trkpt>
      <trkpt lat="49.50318" lon="-1.59606">
        <ele>104.6</ele>
        <time>2026-03-30T14:35:12.000Z</time>
      </trkpt>
      <trkpt lat="49.50318" lon="-1.59605">
        <ele>104.6</ele>
        <time>2026-03-30T14:35:13.000Z</time>
      </trkpt>
      <trkpt lat="49.50317" lon="-1.59605">
        <ele>104.6</ele>
        <time>2026-03-30T14:35:14.000Z</time>
      </trkpt>
      <trkpt lat="49.50317" lon="-1.59605">
        <ele>104.6</ele>
        <time>2026-03-30T14:35:15.000Z</time>
      </trkpt>
      <trkpt lat="49.50317" lon="-1.59605">
        <ele>104.6</ele>
        <time>2026-03-30T14:35:16.000Z</time>
      </trkpt>
      <trkpt lat="49.50317" lon="-1.59605">
        <ele>104.6</ele>
        <time>2026-03-30T14:35:17.000Z</time>
      </trkpt>
      <trkpt lat="49.50318" lon="-1.59605">
        <ele>104.4</ele>
        <time>2026-03-30T14:35:18.000Z</time>
      </trkpt>
      <trkpt lat="49.50317" lon="-1.59606">
        <ele>103.9</ele>
        <time>2026-03-30T14:35:19.000Z</time>
      </trkpt>
      <trkpt lat="49.50316" lon="-1.59606">
        <ele>104.1</ele>
        <time>2026-03-30T14:35:20.000Z</time>
      </trkpt>
      <trkpt lat="49.50315" lon="-1.59605">
        <ele>104.4</ele>
        <time>2026-03-30T14:35:21.000Z</time>
      </trkpt>
      <trkpt lat="49.50315" lon="-1.59603">
        <ele>104.3</ele>
        <time>2026-03-30T14:35:22.000Z</time>
      </trkpt>
      <trkpt lat="49.50314" lon="-1.59602">
        <ele>104.5</ele>
        <time>2026-03-30T14:35:23.000Z</time>
      </trkpt>
      <trkpt lat="49.50314" lon="-1.596">
        <ele>104.8</ele>
        <time>2026-03-30T14:35:24.000Z</time>
      </trkpt>
      <trkpt lat="49.50313" lon="-1.596">
        <ele>103.6</ele>
        <time>2026-03-30T14:35:25.000Z</time>
      </trkpt>
      <trkpt lat="49.50313" lon="-1.596">
        <ele>103.4</ele>
        <time>2026-03-30T14:35:26.000Z</time>
      </trkpt>
      <trkpt lat="49.50313" lon="-1.596">
        <ele>103.3</ele>
        <time>2026-03-30T14:35:27.000Z</time>
      </trkpt>
      <trkpt lat="49.50314" lon="-1.59601">
        <ele>103.5</ele>
        <time>2026-03-30T14:35:28.000Z</time>
      </trkpt>
      <trkpt lat="49.50314" lon="-1.59601">
        <ele>103.7</ele>
        <time>2026-03-30T14:35:29.000Z</time>
      </trkpt>
      <trkpt lat="49.50314" lon="-1.59603">
        <ele>104.1</ele>
        <time>2026-03-30T14:35:30.000Z</time>
      </trkpt>
      <trkpt lat="49.50315" lon="-1.59603">
        <ele>104.3</ele>
        <time>2026-03-30T14:35:31.000Z</time>
      </trkpt>
      <trkpt lat="49.50315" lon="-1.59603">
        <ele>104.3</ele>
        <time>2026-03-30T14:35:32.000Z</time>
      </trkpt>
      <trkpt lat="49.50315" lon="-1.59603">
        <ele>104.4</ele>
        <time>2026-03-30T14:35:33.000Z</time>
      </trkpt>
      <trkpt lat="49.50316" lon="-1.59602">
        <ele>104.5</ele>
        <time>2026-03-30T14:35:34.000Z</time>
      </trkpt>
      <trkpt lat="49.50317" lon="-1.59603">
        <ele>104.8</ele>
        <time>2026-03-30T14:35:35.000Z</time>
      </trkpt>
      <trkpt lat="49.50317" lon="-1.59605">
        <ele>104.4</ele>
        <time>2026-03-30T14:35:36.000Z</time>
      </trkpt>
      <trkpt lat="49.50317" lon="-1.59607">
        <ele>104.5</ele>
        <time>2026-03-30T14:35:37.000Z</time>
      </trkpt>
      <trkpt lat="49.50317" lon="-1.59608">
        <ele>103.8</ele>
        <time>2026-03-30T14:35:38.000Z</time>
      </trkpt>
      <trkpt lat="49.50317" lon="-1.5961">
        <ele>103.7</ele>
        <time>2026-03-30T14:35:39.000Z</time>
      </trkpt>
      <trkpt lat="49.50317" lon="-1.59612">
        <ele>103.8</ele>
        <time>2026-03-30T14:35:40.000Z</time>
      </trkpt>
      <trkpt lat="49.50317" lon="-1.59614">
        <ele>103.2</ele>
        <time>2026-03-30T14:35:41.000Z</time>
      </trkpt>
      <trkpt lat="49.50316" lon="-1.59615">
        <ele>102.6</ele>
        <time>2026-03-30T14:35:42.000Z</time>
      </trkpt>
      <trkpt lat="49.50314" lon="-1.59614">
        <ele>102.2</ele>
        <time>2026-03-30T14:35:43.000Z</time>
      </trkpt>
      <trkpt lat="49.50313" lon="-1.59614">
        <ele>102</ele>
        <time>2026-03-30T14:35:44.000Z</time>
      </trkpt>
      <trkpt lat="49.50313" lon="-1.59615">
        <ele>102.3</ele>
        <time>2026-03-30T14:35:45.000Z</time>
      </trkpt>
      <trkpt lat="49.50313" lon="-1.59616">
        <ele>101.8</ele>
        <time>2026-03-30T14:35:46.000Z</time>
      </trkpt>
      <trkpt lat="49.50313" lon="-1.59616">
        <ele>101.7</ele>
        <time>2026-03-30T14:35:47.000Z</time>
      </trkpt>
      <trkpt lat="49.50312" lon="-1.59616">
        <ele>101.6</ele>
        <time>2026-03-30T14:35:48.000Z</time>
      </trkpt>
      <trkpt lat="49.50314" lon="-1.59613">
        <ele>101.2</ele>
        <time>2026-03-30T14:35:49.000Z</time>
      </trkpt>
      <trkpt lat="49.50315" lon="-1.5961">
        <ele>101.9</ele>
        <time>2026-03-30T14:42:01.000Z</time>
      </trkpt>
      <trkpt lat="49.50317" lon="-1.5961">
        <ele>101.1</ele>
        <time>2026-03-30T14:42:02.000Z</time>
      </trkpt>
      <trkpt lat="49.50317" lon="-1.59612">
        <ele>101.4</ele>
        <time>2026-03-30T14:42:03.000Z</time>
      </trkpt>
      <trkpt lat="49.50317" lon="-1.59613">
        <ele>101.5</ele>
        <time>2026-03-30T14:42:04.000Z</time>
      </trkpt>
      <trkpt lat="49.50318" lon="-1.59616">
        <ele>101.4</ele>
        <time>2026-03-30T14:42:05.000Z</time>
      </trkpt>
      <trkpt lat="49.50319" lon="-1.59617">
        <ele>101.7</ele>
        <time>2026-03-30T14:42:06.000Z</time>
      </trkpt>
      <trkpt lat="49.50319" lon="-1.59618">
        <ele>102.2</ele>
        <time>2026-03-30T14:42:07.000Z</time>
      </trkpt>
      <trkpt lat="49.5032" lon="-1.5962">
        <ele>101</ele>
        <time>2026-03-30T14:42:08.000Z</time>
      </trkpt>
      <trkpt lat="49.50321" lon="-1.59622">
        <ele>100.8</ele>
        <time>2026-03-30T14:42:09.000Z</time>
      </trkpt>
      <trkpt lat="49.50321" lon="-1.59623">
        <ele>100.5</ele>
        <time>2026-03-30T14:42:10.000Z</time>
      </trkpt>
      <trkpt lat="49.50321" lon="-1.59625">
        <ele>100.9</ele>
        <time>2026-03-30T14:42:11.000Z</time>
      </trkpt>
      <trkpt lat="49.50323" lon="-1.59626">
        <ele>101</ele>
        <time>2026-03-30T14:42:12.000Z</time>
      </trkpt>
      <trkpt lat="49.50323" lon="-1.59628">
        <ele>100.6</ele>
        <time>2026-03-30T14:42:13.000Z</time>
      </trkpt>
      <trkpt lat="49.50324" lon="-1.59629">
        <ele>101</ele>
        <time>2026-03-30T14:42:14.000Z</time>
      </trkpt>
      <trkpt lat="49.50325" lon="-1.5963">
        <ele>101</ele>
        <time>2026-03-30T14:42:15.000Z</time>
      </trkpt>
      <trkpt lat="49.50326" lon="-1.5963">
        <ele>101.9</ele>
        <time>2026-03-30T14:42:16.000Z</time>
      </trkpt>
      <trkpt lat="49.50327" lon="-1.5963">
        <ele>101.8</ele>
        <time>2026-03-30T14:42:17.000Z</time>
      </trkpt>
      <trkpt lat="49.50328" lon="-1.5963">
        <ele>101.8</ele>
        <time>2026-03-30T14:42:18.000Z</time>
      </trkpt>
      <trkpt lat="49.50329" lon="-1.59631">
        <ele>102</ele>
        <time>2026-03-30T14:42:19.000Z</time>
      </trkpt>
      <trkpt lat="49.5033" lon="-1.59632">
        <ele>102.2</ele>
        <time>2026-03-30T14:42:20.000Z</time>
      </trkpt>
      <trkpt lat="49.50332" lon="-1.59632">
        <ele>102.6</ele>
        <time>2026-03-30T14:42:21.000Z</time>
      </trkpt>
      <trkpt lat="49.50334" lon="-1.59633">
        <ele>101.8</ele>
        <time>2026-03-30T14:42:22.000Z</time>
      </trkpt>
      <trkpt lat="49.50334" lon="-1.59633">
        <ele>101.3</ele>
        <time>2026-03-30T14:42:23.000Z</time>
      </trkpt>
      <trkpt lat="49.50335" lon="-1.59633">
        <ele>101.6</ele>
        <time>2026-03-30T14:42:24.000Z</time>
      </trkpt>
      <trkpt lat="49.50336" lon="-1.59633">
        <ele>101.5</ele>
        <time>2026-03-30T14:42:25.000Z</time>
      </trkpt>
      <trkpt lat="49.50336" lon="-1.59631">
        <ele>101.5</ele>
        <time>2026-03-30T14:42:26.000Z</time>
      </trkpt>
      <trkpt lat="49.50336" lon="-1.59631">
        <ele>101.3</ele>
        <time>2026-03-30T14:42:27.000Z</time>
      </trkpt>
      <trkpt lat="49.50337" lon="-1.59631">
        <ele>100.8</ele>
        <time>2026-03-30T14:42:28.000Z</time>
      </trkpt>
      <trkpt lat="49.50337" lon="-1.59631">
        <ele>100.8</ele>
        <time>2026-03-30T14:42:29.000Z</time>
      </trkpt>
      <trkpt lat="49.50338" lon="-1.59629">
        <ele>101.6</ele>
        <time>2026-03-30T14:42:57.000Z</time>
      </trkpt>
      <trkpt lat="49.50338" lon="-1.59628">
        <ele>101.5</ele>
        <time>2026-03-30T14:42:58.000Z</time>
      </trkpt>
      <trkpt lat="49.50338" lon="-1.59628">
        <ele>101.6</ele>
        <time>2026-03-30T14:42:59.000Z</time>
      </trkpt>
      <trkpt lat="49.50338" lon="-1.59628">
        <ele>101.6</ele>
        <time>2026-03-30T14:43:00.000Z</time>
      </trkpt>
      <trkpt lat="49.50338" lon="-1.59628">
        <ele>101.6</ele>
        <time>2026-03-30T14:43:01.000Z</time>
      </trkpt>
      <trkpt lat="49.50338" lon="-1.59628">
        <ele>102.3</ele>
        <time>2026-03-30T14:43:02.000Z</time>
      </trkpt>
      <trkpt lat="49.50338" lon="-1.59629">
        <ele>102.1</ele>
        <time>2026-03-30T14:43:03.000Z</time>
      </trkpt>
      <trkpt lat="49.50338" lon="-1.59629">
        <ele>102.1</ele>
        <time>2026-03-30T14:43:04.000Z</time>
      </trkpt>
      <trkpt lat="49.50338" lon="-1.5963">
        <ele>102.8</ele>
        <time>2026-03-30T14:43:05.000Z</time>
      </trkpt>
      <trkpt lat="49.50339" lon="-1.5963">
        <ele>102.7</ele>
        <time>2026-03-30T14:43:06.000Z</time>
      </trkpt>
      <trkpt lat="49.50339" lon="-1.5963">
        <ele>103</ele>
        <time>2026-03-30T14:43:07.000Z</time>
      </trkpt>
      <trkpt lat="49.5034" lon="-1.59629">
        <ele>102.7</ele>
        <time>2026-03-30T14:43:08.000Z</time>
      </trkpt>
      <trkpt lat="49.50341" lon="-1.59629">
        <ele>103</ele>
        <time>2026-03-30T14:43:09.000Z</time>
      </trkpt>
      <trkpt lat="49.50342" lon="-1.59629">
        <ele>102.6</ele>
        <time>2026-03-30T14:43:10.000Z</time>
      </trkpt>
      <trkpt lat="49.50342" lon="-1.59629">
        <ele>102.1</ele>
        <time>2026-03-30T14:43:11.000Z</time>
      </trkpt>
      <trkpt lat="49.50344" lon="-1.59629">
        <ele>102.1</ele>
        <time>2026-03-30T14:43:12.000Z</time>
      </trkpt>
      <trkpt lat="49.50345" lon="-1.59629">
        <ele>101</ele>
        <time>2026-03-30T14:43:13.000Z</time>
      </trkpt>
      <trkpt lat="49.50347" lon="-1.59628">
        <ele>101.5</ele>
        <time>2026-03-30T14:43:14.000Z</time>
      </trkpt>
      <trkpt lat="49.50348" lon="-1.59628">
        <ele>101.6</ele>
        <time>2026-03-30T14:43:15.000Z</time>
      </trkpt>
      <trkpt lat="49.50349" lon="-1.59628">
        <ele>102.1</ele>
        <time>2026-03-30T14:43:16.000Z</time>
      </trkpt>
      <trkpt lat="49.5035" lon="-1.59628">
        <ele>102.2</ele>
        <time>2026-03-30T14:43:17.000Z</time>
      </trkpt>
      <trkpt lat="49.50351" lon="-1.59627">
        <ele>101.8</ele>
        <time>2026-03-30T14:43:18.000Z</time>
      </trkpt>
      <trkpt lat="49.50352" lon="-1.59627">
        <ele>102.1</ele>
        <time>2026-03-30T14:43:19.000Z</time>
      </trkpt>
      <trkpt lat="49.50354" lon="-1.59626">
        <ele>102.7</ele>
        <time>2026-03-30T14:43:20.000Z</time>
      </trkpt>
      <trkpt lat="49.50354" lon="-1.59625">
        <ele>103.5</ele>
        <time>2026-03-30T14:43:21.000Z</time>
      </trkpt>
      <trkpt lat="49.50356" lon="-1.59623">
        <ele>103.8</ele>
        <time>2026-03-30T14:43:22.000Z</time>
      </trkpt>
      <trkpt lat="49.50356" lon="-1.59622">
        <ele>104.2</ele>
        <time>2026-03-30T14:43:23.000Z</time>
      </trkpt>
      <trkpt lat="49.50356" lon="-1.59622">
        <ele>103.2</ele>
        <time>2026-03-30T14:43:24.000Z</time>
      </trkpt>
      <trkpt lat="49.50356" lon="-1.59623">
        <ele>103.4</ele>
        <time>2026-03-30T14:43:25.000Z</time>
      </trkpt>
      <trkpt lat="49.50355" lon="-1.59623">
        <ele>103.3</ele>
        <time>2026-03-30T14:43:26.000Z</time>
      </trkpt>
      <trkpt lat="49.50355" lon="-1.59624">
        <ele>102.8</ele>
        <time>2026-03-30T14:43:27.000Z</time>
      </trkpt>
      <trkpt lat="49.50353" lon="-1.59625">
        <ele>103.1</ele>
        <time>2026-03-30T14:43:28.000Z</time>
      </trkpt>
      <trkpt lat="49.50352" lon="-1.59623">
        <ele>102.4</ele>
        <time>2026-03-30T14:43:29.000Z</time>
      </trkpt>
      <trkpt lat="49.50351" lon="-1.59624">
        <ele>103.5</ele>
        <time>2026-03-30T14:43:30.000Z</time>
      </trkpt>
      <trkpt lat="49.5035" lon="-1.59625">
        <ele>104.6</ele>
        <time>2026-03-30T14:43:31.000Z</time>
      </trkpt>
      <trkpt lat="49.50349" lon="-1.59626">
        <ele>103.9</ele>
        <time>2026-03-30T14:43:32.000Z</time>
      </trkpt>
      <trkpt lat="49.50348" lon="-1.59627">
        <ele>103.9</ele>
        <time>2026-03-30T14:43:33.000Z</time>
      </trkpt>
      <trkpt lat="49.50348" lon="-1.59627">
        <ele>104.1</ele>
        <time>2026-03-30T14:43:34.000Z</time>
      </trkpt>
      <trkpt lat="49.50347" lon="-1.59628">
        <ele>104.5</ele>
        <time>2026-03-30T14:43:35.000Z</time>
      </trkpt>
      <trkpt lat="49.50347" lon="-1.59629">
        <ele>105.2</ele>
        <time>2026-03-30T14:43:36.000Z</time>
      </trkpt>
      <trkpt lat="49.50348" lon="-1.5963">
        <ele>106.1</ele>
        <time>2026-03-30T14:43:37.000Z</time>
      </trkpt>
      <trkpt lat="49.50347" lon="-1.5963">
        <ele>105.7</ele>
        <time>2026-03-30T14:43:38.000Z</time>
      </trkpt>
      <trkpt lat="49.50347" lon="-1.59632">
        <ele>105.4</ele>
        <time>2026-03-30T14:43:39.000Z</time>
      </trkpt>
      <trkpt lat="49.50345" lon="-1.59633">
        <ele>105.7</ele>
        <time>2026-03-30T14:43:40.000Z</time>
      </trkpt>
      <trkpt lat="49.50344" lon="-1.59635">
        <ele>104.7</ele>
        <time>2026-03-30T14:43:41.000Z</time>
      </trkpt>
      <trkpt lat="49.50343" lon="-1.59636">
        <ele>104.8</ele>
        <time>2026-03-30T14:43:42.000Z</time>
      </trkpt>
      <trkpt lat="49.50342" lon="-1.59638">
        <ele>104.9</ele>
        <time>2026-03-30T14:43:43.000Z</time>
      </trkpt>
      <trkpt lat="49.50342" lon="-1.59639">
        <ele>105.2</ele>
        <time>2026-03-30T14:43:44.000Z</time>
      </trkpt>
      <trkpt lat="49.50341" lon="-1.59641">
        <ele>104.6</ele>
        <time>2026-03-30T14:43:45.000Z</time>
      </trkpt>
      <trkpt lat="49.5034" lon="-1.59644">
        <ele>104.6</ele>
        <time>2026-03-30T14:43:46.000Z</time>
      </trkpt>
      <trkpt lat="49.50339" lon="-1.59646">
        <ele>104.3</ele>
        <time>2026-03-30T14:43:47.000Z</time>
      </trkpt>
      <trkpt lat="49.50338" lon="-1.59648">
        <ele>104.4</ele>
        <time>2026-03-30T14:43:48.000Z</time>
      </trkpt>
      <trkpt lat="49.50337" lon="-1.59649">
        <ele>104.6</ele>
        <time>2026-03-30T14:43:49.000Z</time>
      </trkpt>
      <trkpt lat="49.50336" lon="-1.59651">
        <ele>104.2</ele>
        <time>2026-03-30T14:43:50.000Z</time>
      </trkpt>
      <trkpt lat="49.50336" lon="-1.59653">
        <ele>104.9</ele>
        <time>2026-03-30T14:43:51.000Z</time>
      </trkpt>
      <trkpt lat="49.50335" lon="-1.59654">
        <ele>105.1</ele>
        <time>2026-03-30T14:43:52.000Z</time>
      </trkpt>
      <trkpt lat="49.50335" lon="-1.59656">
        <ele>104.8</ele>
        <time>2026-03-30T14:43:53.000Z</time>
      </trkpt>
      <trkpt lat="49.50335" lon="-1.59659">
        <ele>104.3</ele>
        <time>2026-03-30T14:43:54.000Z</time>
      </trkpt>
      <trkpt lat="49.50336" lon="-1.59661">
        <ele>103.8</ele>
        <time>2026-03-30T14:43:55.000Z</time>
      </trkpt>
      <trkpt lat="49.50336" lon="-1.59663">
        <ele>103.8</ele>
        <time>2026-03-30T14:43:56.000Z</time>
      </trkpt>
      <trkpt lat="49.50336" lon="-1.59666">
        <ele>103.6</ele>
        <time>2026-03-30T14:43:57.000Z</time>
      </trkpt>
      <trkpt lat="49.50336" lon="-1.59668">
        <ele>103.6</ele>
        <time>2026-03-30T14:43:58.000Z</time>
      </trkpt>
      <trkpt lat="49.50337" lon="-1.5967">
        <ele>103.2</ele>
        <time>2026-03-30T14:43:59.000Z</time>
      </trkpt>
      <trkpt lat="49.50337" lon="-1.59672">
        <ele>102.5</ele>
        <time>2026-03-30T14:44:00.000Z</time>
      </trkpt>
      <trkpt lat="49.50337" lon="-1.59674">
        <ele>102.5</ele>
        <time>2026-03-30T14:44:01.000Z</time>
      </trkpt>
      <trkpt lat="49.50338" lon="-1.59677">
        <ele>102.1</ele>
        <time>2026-03-30T14:44:02.000Z</time>
      </trkpt>
      <trkpt lat="49.50338" lon="-1.59679">
        <ele>102</ele>
        <time>2026-03-30T14:44:03.000Z</time>
      </trkpt>
      <trkpt lat="49.50338" lon="-1.59681">
        <ele>102.3</ele>
        <time>2026-03-30T14:44:04.000Z</time>
      </trkpt>
      <trkpt lat="49.50339" lon="-1.59683">
        <ele>103</ele>
        <time>2026-03-30T14:44:05.000Z</time>
      </trkpt>
      <trkpt lat="49.50339" lon="-1.59685">
        <ele>102.4</ele>
        <time>2026-03-30T14:44:06.000Z</time>
      </trkpt>
      <trkpt lat="49.5034" lon="-1.59687">
        <ele>102.1</ele>
        <time>2026-03-30T14:44:07.000Z</time>
      </trkpt>
      <trkpt lat="49.50341" lon="-1.59689">
        <ele>102.8</ele>
        <time>2026-03-30T14:44:08.000Z</time>
      </trkpt>
      <trkpt lat="49.50341" lon="-1.59691">
        <ele>103.4</ele>
        <time>2026-03-30T14:44:09.000Z</time>
      </trkpt>
      <trkpt lat="49.50342" lon="-1.59694">
        <ele>103.5</ele>
        <time>2026-03-30T14:44:10.000Z</time>
      </trkpt>
      <trkpt lat="49.50342" lon="-1.59696">
        <ele>104.8</ele>
        <time>2026-03-30T14:44:11.000Z</time>
      </trkpt>
      <trkpt lat="49.50343" lon="-1.59698">
        <ele>105.2</ele>
        <time>2026-03-30T14:44:12.000Z</time>
      </trkpt>
      <trkpt lat="49.50344" lon="-1.597">
        <ele>105.6</ele>
        <time>2026-03-30T14:44:13.000Z</time>
      </trkpt>
      <trkpt lat="49.50344" lon="-1.59701">
        <ele>104.6</ele>
        <time>2026-03-30T14:44:14.000Z</time>
      </trkpt>
      <trkpt lat="49.50345" lon="-1.59703">
        <ele>103.7</ele>
        <time>2026-03-30T14:44:15.000Z</time>
      </trkpt>
      <trkpt lat="49.50346" lon="-1.59705">
        <ele>103.8</ele>
        <time>2026-03-30T14:44:16.000Z</time>
      </trkpt>
      <trkpt lat="49.50346" lon="-1.59707">
        <ele>102.2</ele>
        <time>2026-03-30T14:44:17.000Z</time>
      </trkpt>
      <trkpt lat="49.50347" lon="-1.59709">
        <ele>103.2</ele>
        <time>2026-03-30T14:44:18.000Z</time>
      </trkpt>
      <trkpt lat="49.50347" lon="-1.59711">
        <ele>102.7</ele>
        <time>2026-03-30T14:44:19.000Z</time>
      </trkpt>
      <trkpt lat="49.50348" lon="-1.59713">
        <ele>102.9</ele>
        <time>2026-03-30T14:44:20.000Z</time>
      </trkpt>
      <trkpt lat="49.50348" lon="-1.59715">
        <ele>102.8</ele>
        <time>2026-03-30T14:44:21.000Z</time>
      </trkpt>
      <trkpt lat="49.50349" lon="-1.59717">
        <ele>103</ele>
        <time>2026-03-30T14:44:22.000Z</time>
      </trkpt>
      <trkpt lat="49.5035" lon="-1.59719">
        <ele>102.9</ele>
        <time>2026-03-30T14:44:23.000Z</time>
      </trkpt>
      <trkpt lat="49.50351" lon="-1.59721">
        <ele>102.9</ele>
        <time>2026-03-30T14:44:24.000Z</time>
      </trkpt>
      <trkpt lat="49.50351" lon="-1.59723">
        <ele>103.4</ele>
        <time>2026-03-30T14:44:25.000Z</time>
      </trkpt>
      <trkpt lat="49.50352" lon="-1.59725">
        <ele>103.4</ele>
        <time>2026-03-30T14:44:26.000Z</time>
      </trkpt>
      <trkpt lat="49.50352" lon="-1.59727">
        <ele>103.1</ele>
        <time>2026-03-30T14:44:27.000Z</time>
      </trkpt>
      <trkpt lat="49.50353" lon="-1.59729">
        <ele>103.8</ele>
        <time>2026-03-30T14:44:28.000Z</time>
      </trkpt>
      <trkpt lat="49.50354" lon="-1.59732">
        <ele>104.2</ele>
        <time>2026-03-30T14:44:29.000Z</time>
      </trkpt>
      <trkpt lat="49.50354" lon="-1.59734">
        <ele>104.5</ele>
        <time>2026-03-30T14:44:30.000Z</time>
      </trkpt>
      <trkpt lat="49.50355" lon="-1.59736">
        <ele>104.9</ele>
        <time>2026-03-30T14:44:31.000Z</time>
      </trkpt>
      <trkpt lat="49.50355" lon="-1.59738">
        <ele>105.3</ele>
        <time>2026-03-30T14:44:32.000Z</time>
      </trkpt>
      <trkpt lat="49.50355" lon="-1.5974">
        <ele>106</ele>
        <time>2026-03-30T14:44:33.000Z</time>
      </trkpt>
      <trkpt lat="49.50355" lon="-1.59742">
        <ele>106.4</ele>
        <time>2026-03-30T14:44:34.000Z</time>
      </trkpt>
      <trkpt lat="49.50356" lon="-1.59744">
        <ele>106.8</ele>
        <time>2026-03-30T14:44:35.000Z</time>
      </trkpt>
      <trkpt lat="49.50356" lon="-1.59746">
        <ele>106.9</ele>
        <time>2026-03-30T14:44:36.000Z</time>
      </trkpt>
      <trkpt lat="49.50357" lon="-1.59748">
        <ele>107.7</ele>
        <time>2026-03-30T14:44:37.000Z</time>
      </trkpt>
      <trkpt lat="49.50358" lon="-1.5975">
        <ele>108.3</ele>
        <time>2026-03-30T14:44:38.000Z</time>
      </trkpt>
      <trkpt lat="49.50358" lon="-1.59752">
        <ele>108.3</ele>
        <time>2026-03-30T14:44:39.000Z</time>
      </trkpt>
      <trkpt lat="49.50359" lon="-1.59754">
        <ele>108.8</ele>
        <time>2026-03-30T14:44:40.000Z</time>
      </trkpt>
      <trkpt lat="49.50359" lon="-1.59757">
        <ele>109</ele>
        <time>2026-03-30T14:44:41.000Z</time>
      </trkpt>
      <trkpt lat="49.5036" lon="-1.59759">
        <ele>109.5</ele>
        <time>2026-03-30T14:44:42.000Z</time>
      </trkpt>
      <trkpt lat="49.5036" lon="-1.59761">
        <ele>109.7</ele>
        <time>2026-03-30T14:44:43.000Z</time>
      </trkpt>
      <trkpt lat="49.50361" lon="-1.59763">
        <ele>108.9</ele>
        <time>2026-03-30T14:44:44.000Z</time>
      </trkpt>
      <trkpt lat="49.50361" lon="-1.59765">
        <ele>108.3</ele>
        <time>2026-03-30T14:44:45.000Z</time>
      </trkpt>
      <trkpt lat="49.50361" lon="-1.59767">
        <ele>108.3</ele>
        <time>2026-03-30T14:44:46.000Z</time>
      </trkpt>
      <trkpt lat="49.50362" lon="-1.59769">
        <ele>108.3</ele>
        <time>2026-03-30T14:44:47.000Z</time>
      </trkpt>
      <trkpt lat="49.50363" lon="-1.59771">
        <ele>108.7</ele>
        <time>2026-03-30T14:44:48.000Z</time>
      </trkpt>
      <trkpt lat="49.50363" lon="-1.59773">
        <ele>108.2</ele>
        <time>2026-03-30T14:44:49.000Z</time>
      </trkpt>
      <trkpt lat="49.50364" lon="-1.59775">
        <ele>107.4</ele>
        <time>2026-03-30T14:44:50.000Z</time>
      </trkpt>
      <trkpt lat="49.50364" lon="-1.59776">
        <ele>106.8</ele>
        <time>2026-03-30T14:44:51.000Z</time>
      </trkpt>
      <trkpt lat="49.50365" lon="-1.59779">
        <ele>106.9</ele>
        <time>2026-03-30T14:44:52.000Z</time>
      </trkpt>
      <trkpt lat="49.50366" lon="-1.59781">
        <ele>106.3</ele>
        <time>2026-03-30T14:44:53.000Z</time>
      </trkpt>
      <trkpt lat="49.50367" lon="-1.59783">
        <ele>105.5</ele>
        <time>2026-03-30T14:44:54.000Z</time>
      </trkpt>
      <trkpt lat="49.50367" lon="-1.59785">
        <ele>104.9</ele>
        <time>2026-03-30T14:44:55.000Z</time>
      </trkpt>
      <trkpt lat="49.50367" lon="-1.59787">
        <ele>104.5</ele>
        <time>2026-03-30T14:44:56.000Z</time>
      </trkpt>
      <trkpt lat="49.50368" lon="-1.59789">
        <ele>104.2</ele>
        <time>2026-03-30T14:44:57.000Z</time>
      </trkpt>
      <trkpt lat="49.50368" lon="-1.59791">
        <ele>104.1</ele>
        <time>2026-03-30T14:44:58.000Z</time>
      </trkpt>
      <trkpt lat="49.50369" lon="-1.59793">
        <ele>104.1</ele>
        <time>2026-03-30T14:44:59.000Z</time>
      </trkpt>
      <trkpt lat="49.50369" lon="-1.59795">
        <ele>104.2</ele>
        <time>2026-03-30T14:45:00.000Z</time>
      </trkpt>
      <trkpt lat="49.5037" lon="-1.59797">
        <ele>104.5</ele>
        <time>2026-03-30T14:45:01.000Z</time>
      </trkpt>
      <trkpt lat="49.50371" lon="-1.598">
        <ele>105.6</ele>
        <time>2026-03-30T14:45:02.000Z</time>
      </trkpt>
      <trkpt lat="49.50371" lon="-1.59802">
        <ele>105.9</ele>
        <time>2026-03-30T14:45:03.000Z</time>
      </trkpt>
      <trkpt lat="49.50372" lon="-1.59804">
        <ele>106.4</ele>
        <time>2026-03-30T14:45:04.000Z</time>
      </trkpt>
      <trkpt lat="49.50373" lon="-1.59806">
        <ele>106.5</ele>
        <time>2026-03-30T14:45:05.000Z</time>
      </trkpt>
      <trkpt lat="49.50374" lon="-1.59808">
        <ele>106.6</ele>
        <time>2026-03-30T14:45:06.000Z</time>
      </trkpt>
      <trkpt lat="49.50374" lon="-1.5981">
        <ele>106.4</ele>
        <time>2026-03-30T14:45:07.000Z</time>
      </trkpt>
      <trkpt lat="49.50375" lon="-1.59813">
        <ele>105.3</ele>
        <time>2026-03-30T14:45:08.000Z</time>
      </trkpt>
      <trkpt lat="49.50375" lon="-1.59815">
        <ele>104.8</ele>
        <time>2026-03-30T14:45:09.000Z</time>
      </trkpt>
      <trkpt lat="49.50376" lon="-1.59817">
        <ele>104.4</ele>
        <time>2026-03-30T14:45:10.000Z</time>
      </trkpt>
      <trkpt lat="49.50377" lon="-1.59819">
        <ele>104</ele>
        <time>2026-03-30T14:45:11.000Z</time>
      </trkpt>
      <trkpt lat="49.50377" lon="-1.59821">
        <ele>104.1</ele>
        <time>2026-03-30T14:45:12.000Z</time>
      </trkpt>
      <trkpt lat="49.50379" lon="-1.59823">
        <ele>104</ele>
        <time>2026-03-30T14:45:13.000Z</time>
      </trkpt>
      <trkpt lat="49.50379" lon="-1.59824">
        <ele>103.8</ele>
        <time>2026-03-30T14:45:14.000Z</time>
      </trkpt>
      <trkpt lat="49.5038" lon="-1.59826">
        <ele>103.6</ele>
        <time>2026-03-30T14:45:15.000Z</time>
      </trkpt>
      <trkpt lat="49.50381" lon="-1.59828">
        <ele>103.8</ele>
        <time>2026-03-30T14:45:16.000Z</time>
      </trkpt>
      <trkpt lat="49.50382" lon="-1.5983">
        <ele>104</ele>
        <time>2026-03-30T14:45:17.000Z</time>
      </trkpt>
      <trkpt lat="49.50382" lon="-1.59833">
        <ele>103.9</ele>
        <time>2026-03-30T14:45:18.000Z</time>
      </trkpt>
      <trkpt lat="49.50383" lon="-1.59835">
        <ele>103</ele>
        <time>2026-03-30T14:45:19.000Z</time>
      </trkpt>
      <trkpt lat="49.50383" lon="-1.59837">
        <ele>103.2</ele>
        <time>2026-03-30T14:45:20.000Z</time>
      </trkpt>
      <trkpt lat="49.50384" lon="-1.59839">
        <ele>102.8</ele>
        <time>2026-03-30T14:45:21.000Z</time>
      </trkpt>
      <trkpt lat="49.50385" lon="-1.59842">
        <ele>102.5</ele>
        <time>2026-03-30T14:45:22.000Z</time>
      </trkpt>
      <trkpt lat="49.50386" lon="-1.59844">
        <ele>102.3</ele>
        <time>2026-03-30T14:45:23.000Z</time>
      </trkpt>
      <trkpt lat="49.50386" lon="-1.59846">
        <ele>102</ele>
        <time>2026-03-30T14:45:24.000Z</time>
      </trkpt>
      <trkpt lat="49.50387" lon="-1.59848">
        <ele>102.5</ele>
        <time>2026-03-30T14:45:25.000Z</time>
      </trkpt>
      <trkpt lat="49.50388" lon="-1.59851">
        <ele>103</ele>
        <time>2026-03-30T14:45:26.000Z</time>
      </trkpt>
      <trkpt lat="49.50389" lon="-1.59853">
        <ele>103</ele>
        <time>2026-03-30T14:45:27.000Z</time>
      </trkpt>
      <trkpt lat="49.5039" lon="-1.59855">
        <ele>103.3</ele>
        <time>2026-03-30T14:45:28.000Z</time>
      </trkpt>
      <trkpt lat="49.5039" lon="-1.59857">
        <ele>103.5</ele>
        <time>2026-03-30T14:45:29.000Z</time>
      </trkpt>
      <trkpt lat="49.50391" lon="-1.59859">
        <ele>103.5</ele>
        <time>2026-03-30T14:45:30.000Z</time>
      </trkpt>
      <trkpt lat="49.50391" lon="-1.59861">
        <ele>103.9</ele>
        <time>2026-03-30T14:45:31.000Z</time>
      </trkpt>
      <trkpt lat="49.50392" lon="-1.59863">
        <ele>104.1</ele>
        <time>2026-03-30T14:45:32.000Z</time>
      </trkpt>
      <trkpt lat="49.50393" lon="-1.59865">
        <ele>104.6</ele>
        <time>2026-03-30T14:45:33.000Z</time>
      </trkpt>
      <trkpt lat="49.50392" lon="-1.59864">
        <ele>103.7</ele>
        <time>2026-03-30T14:45:34.000Z</time>
      </trkpt>
      <trkpt lat="49.50391" lon="-1.59867">
        <ele>102.4</ele>
        <time>2026-03-30T14:45:54.000Z</time>
      </trkpt>
      <trkpt lat="49.50392" lon="-1.59869">
        <ele>101.8</ele>
        <time>2026-03-30T14:45:55.000Z</time>
      </trkpt>
      <trkpt lat="49.50393" lon="-1.5987">
        <ele>101.4</ele>
        <time>2026-03-30T14:45:56.000Z</time>
      </trkpt>
      <trkpt lat="49.50394" lon="-1.59872">
        <ele>101.2</ele>
        <time>2026-03-30T14:45:57.000Z</time>
      </trkpt>
      <trkpt lat="49.50394" lon="-1.59874">
        <ele>100.5</ele>
        <time>2026-03-30T14:45:58.000Z</time>
      </trkpt>
      <trkpt lat="49.50394" lon="-1.59877">
        <ele>99.4</ele>
        <time>2026-03-30T14:45:59.000Z</time>
      </trkpt>
      <trkpt lat="49.50395" lon="-1.59879">
        <ele>100.2</ele>
        <time>2026-03-30T14:46:00.000Z</time>
      </trkpt>
      <trkpt lat="49.50395" lon="-1.59881">
        <ele>100.5</ele>
        <time>2026-03-30T14:46:01.000Z</time>
      </trkpt>
      <trkpt lat="49.50396" lon="-1.59882">
        <ele>100.6</ele>
        <time>2026-03-30T14:46:02.000Z</time>
      </trkpt>
      <trkpt lat="49.50397" lon="-1.59884">
        <ele>101.1</ele>
        <time>2026-03-30T14:46:03.000Z</time>
      </trkpt>
      <trkpt lat="49.50398" lon="-1.59886">
        <ele>101.4</ele>
        <time>2026-03-30T14:46:04.000Z</time>
      </trkpt>
      <trkpt lat="49.50399" lon="-1.59888">
        <ele>101</ele>
        <time>2026-03-30T14:46:05.000Z</time>
      </trkpt>
      <trkpt lat="49.504" lon="-1.59891">
        <ele>101.4</ele>
        <time>2026-03-30T14:46:06.000Z</time>
      </trkpt>
      <trkpt lat="49.50401" lon="-1.59892">
        <ele>101.2</ele>
        <time>2026-03-30T14:46:07.000Z</time>
      </trkpt>
      <trkpt lat="49.50402" lon="-1.59894">
        <ele>100.9</ele>
        <time>2026-03-30T14:46:08.000Z</time>
      </trkpt>
      <trkpt lat="49.50403" lon="-1.59896">
        <ele>100.7</ele>
        <time>2026-03-30T14:46:09.000Z</time>
      </trkpt>
      <trkpt lat="49.50404" lon="-1.59897">
        <ele>100.6</ele>
        <time>2026-03-30T14:46:10.000Z</time>
      </trkpt>
      <trkpt lat="49.50404" lon="-1.59899">
        <ele>101.1</ele>
        <time>2026-03-30T14:46:11.000Z</time>
      </trkpt>
      <trkpt lat="49.50405" lon="-1.59901">
        <ele>101.6</ele>
        <time>2026-03-30T14:46:12.000Z</time>
      </trkpt>
      <trkpt lat="49.50406" lon="-1.59902">
        <ele>102.6</ele>
        <time>2026-03-30T14:46:13.000Z</time>
      </trkpt>
      <trkpt lat="49.50407" lon="-1.59904">
        <ele>102.5</ele>
        <time>2026-03-30T14:46:14.000Z</time>
      </trkpt>
      <trkpt lat="49.50407" lon="-1.59906">
        <ele>102.8</ele>
        <time>2026-03-30T14:46:15.000Z</time>
      </trkpt>
      <trkpt lat="49.50408" lon="-1.59908">
        <ele>103.2</ele>
        <time>2026-03-30T14:46:16.000Z</time>
      </trkpt>
      <trkpt lat="49.50409" lon="-1.5991">
        <ele>103.2</ele>
        <time>2026-03-30T14:46:17.000Z</time>
      </trkpt>
      <trkpt lat="49.50409" lon="-1.59912">
        <ele>103.2</ele>
        <time>2026-03-30T14:46:18.000Z</time>
      </trkpt>
      <trkpt lat="49.5041" lon="-1.59914">
        <ele>103</ele>
        <time>2026-03-30T14:46:19.000Z</time>
      </trkpt>
      <trkpt lat="49.5041" lon="-1.59916">
        <ele>102.8</ele>
        <time>2026-03-30T14:46:20.000Z</time>
      </trkpt>
      <trkpt lat="49.50411" lon="-1.59917">
        <ele>102.4</ele>
        <time>2026-03-30T14:46:21.000Z</time>
      </trkpt>
      <trkpt lat="49.50411" lon="-1.59919">
        <ele>102.2</ele>
        <time>2026-03-30T14:46:22.000Z</time>
      </trkpt>
      <trkpt lat="49.50412" lon="-1.59921">
        <ele>102.1</ele>
        <time>2026-03-30T14:46:23.000Z</time>
      </trkpt>
      <trkpt lat="49.50413" lon="-1.59923">
        <ele>101.9</ele>
        <time>2026-03-30T14:46:24.000Z</time>
      </trkpt>
      <trkpt lat="49.50413" lon="-1.59925">
        <ele>102.2</ele>
        <time>2026-03-30T14:46:25.000Z</time>
      </trkpt>
      <trkpt lat="49.50414" lon="-1.59926">
        <ele>101.7</ele>
        <time>2026-03-30T14:46:26.000Z</time>
      </trkpt>
      <trkpt lat="49.50414" lon="-1.59928">
        <ele>101.6</ele>
        <time>2026-03-30T14:46:27.000Z</time>
      </trkpt>
      <trkpt lat="49.50415" lon="-1.5993">
        <ele>101.3</ele>
        <time>2026-03-30T14:46:28.000Z</time>
      </trkpt>
      <trkpt lat="49.50416" lon="-1.59932">
        <ele>100.8</ele>
        <time>2026-03-30T14:46:29.000Z</time>
      </trkpt>
      <trkpt lat="49.50416" lon="-1.59933">
        <ele>99.5</ele>
        <time>2026-03-30T14:46:30.000Z</time>
      </trkpt>
      <trkpt lat="49.50417" lon="-1.59935">
        <ele>98.9</ele>
        <time>2026-03-30T14:46:31.000Z</time>
      </trkpt>
      <trkpt lat="49.50418" lon="-1.59937">
        <ele>98.5</ele>
        <time>2026-03-30T14:46:32.000Z</time>
      </trkpt>
      <trkpt lat="49.50419" lon="-1.59939">
        <ele>98.6</ele>
        <time>2026-03-30T14:46:33.000Z</time>
      </trkpt>
      <trkpt lat="49.50419" lon="-1.5994">
        <ele>98.6</ele>
        <time>2026-03-30T14:46:34.000Z</time>
      </trkpt>
      <trkpt lat="49.5042" lon="-1.59942">
        <ele>98.1</ele>
        <time>2026-03-30T14:46:35.000Z</time>
      </trkpt>
      <trkpt lat="49.50421" lon="-1.59945">
        <ele>97.9</ele>
        <time>2026-03-30T14:46:36.000Z</time>
      </trkpt>
      <trkpt lat="49.50422" lon="-1.59947">
        <ele>98.2</ele>
        <time>2026-03-30T14:46:37.000Z</time>
      </trkpt>
      <trkpt lat="49.50422" lon="-1.59949">
        <ele>98.2</ele>
        <time>2026-03-30T14:46:38.000Z</time>
      </trkpt>
      <trkpt lat="49.50423" lon="-1.59951">
        <ele>98.7</ele>
        <time>2026-03-30T14:46:39.000Z</time>
      </trkpt>
      <trkpt lat="49.50424" lon="-1.59953">
        <ele>98.7</ele>
        <time>2026-03-30T14:46:40.000Z</time>
      </trkpt>
      <trkpt lat="49.50425" lon="-1.59955">
        <ele>98.4</ele>
        <time>2026-03-30T14:46:41.000Z</time>
      </trkpt>
      <trkpt lat="49.50425" lon="-1.59957">
        <ele>98.2</ele>
        <time>2026-03-30T14:46:42.000Z</time>
      </trkpt>
      <trkpt lat="49.50426" lon="-1.59959">
        <ele>98.4</ele>
        <time>2026-03-30T14:46:43.000Z</time>
      </trkpt>
      <trkpt lat="49.50427" lon="-1.59961">
        <ele>99.4</ele>
        <time>2026-03-30T14:46:44.000Z</time>
      </trkpt>
      <trkpt lat="49.50427" lon="-1.59963">
        <ele>99.9</ele>
        <time>2026-03-30T14:46:45.000Z</time>
      </trkpt>
      <trkpt lat="49.50428" lon="-1.59964">
        <ele>100.8</ele>
        <time>2026-03-30T14:46:46.000Z</time>
      </trkpt>
      <trkpt lat="49.50429" lon="-1.59966">
        <ele>101.1</ele>
        <time>2026-03-30T14:46:47.000Z</time>
      </trkpt>
      <trkpt lat="49.5043" lon="-1.59968">
        <ele>101.6</ele>
        <time>2026-03-30T14:46:48.000Z</time>
      </trkpt>
      <trkpt lat="49.50431" lon="-1.5997">
        <ele>101.5</ele>
        <time>2026-03-30T14:46:49.000Z</time>
      </trkpt>
      <trkpt lat="49.50432" lon="-1.59971">
        <ele>101.3</ele>
        <time>2026-03-30T14:46:50.000Z</time>
      </trkpt>
      <trkpt lat="49.50432" lon="-1.59973">
        <ele>99.7</ele>
        <time>2026-03-30T14:46:51.000Z</time>
      </trkpt>
      <trkpt lat="49.50433" lon="-1.59975">
        <ele>99</ele>
        <time>2026-03-30T14:46:52.000Z</time>
      </trkpt>
      <trkpt lat="49.50434" lon="-1.59977">
        <ele>99.3</ele>
        <time>2026-03-30T14:46:53.000Z</time>
      </trkpt>
      <trkpt lat="49.50435" lon="-1.59979">
        <ele>99.9</ele>
        <time>2026-03-30T14:46:54.000Z</time>
      </trkpt>
      <trkpt lat="49.50436" lon="-1.5998">
        <ele>99.9</ele>
        <time>2026-03-30T14:46:55.000Z</time>
      </trkpt>
      <trkpt lat="49.50437" lon="-1.59982">
        <ele>100.2</ele>
        <time>2026-03-30T14:46:56.000Z</time>
      </trkpt>
      <trkpt lat="49.50438" lon="-1.59983">
        <ele>100.8</ele>
        <time>2026-03-30T14:46:57.000Z</time>
      </trkpt>
      <trkpt lat="49.50439" lon="-1.59985">
        <ele>100.8</ele>
        <time>2026-03-30T14:46:58.000Z</time>
      </trkpt>
      <trkpt lat="49.5044" lon="-1.59986">
        <ele>101.1</ele>
        <time>2026-03-30T14:46:59.000Z</time>
      </trkpt>
      <trkpt lat="49.5044" lon="-1.59988">
        <ele>100.4</ele>
        <time>2026-03-30T14:47:00.000Z</time>
      </trkpt>
      <trkpt lat="49.50441" lon="-1.5999">
        <ele>100.9</ele>
        <time>2026-03-30T14:47:01.000Z</time>
      </trkpt>
      <trkpt lat="49.50441" lon="-1.59992">
        <ele>101.2</ele>
        <time>2026-03-30T14:47:02.000Z</time>
      </trkpt>
      <trkpt lat="49.50442" lon="-1.59994">
        <ele>101.7</ele>
        <time>2026-03-30T14:47:03.000Z</time>
      </trkpt>
      <trkpt lat="49.50443" lon="-1.59996">
        <ele>102.3</ele>
        <time>2026-03-30T14:47:04.000Z</time>
      </trkpt>
      <trkpt lat="49.50444" lon="-1.59997">
        <ele>102.3</ele>
        <time>2026-03-30T14:47:05.000Z</time>
      </trkpt>
      <trkpt lat="49.50445" lon="-1.59999">
        <ele>102.5</ele>
        <time>2026-03-30T14:47:06.000Z</time>
      </trkpt>
      <trkpt lat="49.50445" lon="-1.60001">
        <ele>102</ele>
        <time>2026-03-30T14:47:07.000Z</time>
      </trkpt>
      <trkpt lat="49.50446" lon="-1.60003">
        <ele>102.3</ele>
        <time>2026-03-30T14:47:08.000Z</time>
      </trkpt>
      <trkpt lat="49.50447" lon="-1.60005">
        <ele>102.5</ele>
        <time>2026-03-30T14:47:09.000Z</time>
      </trkpt>
      <trkpt lat="49.50448" lon="-1.60007">
        <ele>102</ele>
        <time>2026-03-30T14:47:10.000Z</time>
      </trkpt>
      <trkpt lat="49.50448" lon="-1.60009">
        <ele>102.1</ele>
        <time>2026-03-30T14:47:11.000Z</time>
      </trkpt>
      <trkpt lat="49.50449" lon="-1.6001">
        <ele>101.8</ele>
        <time>2026-03-30T14:47:12.000Z</time>
      </trkpt>
      <trkpt lat="49.5045" lon="-1.60012">
        <ele>101.6</ele>
        <time>2026-03-30T14:47:13.000Z</time>
      </trkpt>
      <trkpt lat="49.50451" lon="-1.60014">
        <ele>101.9</ele>
        <time>2026-03-30T14:47:14.000Z</time>
      </trkpt>
      <trkpt lat="49.50452" lon="-1.60016">
        <ele>102.1</ele>
        <time>2026-03-30T14:47:15.000Z</time>
      </trkpt>
      <trkpt lat="49.50452" lon="-1.60018">
        <ele>102</ele>
        <time>2026-03-30T14:47:16.000Z</time>
      </trkpt>
      <trkpt lat="49.50453" lon="-1.6002">
        <ele>102.1</ele>
        <time>2026-03-30T14:47:17.000Z</time>
      </trkpt>
      <trkpt lat="49.50454" lon="-1.60022">
        <ele>102.9</ele>
        <time>2026-03-30T14:47:18.000Z</time>
      </trkpt>
      <trkpt lat="49.50455" lon="-1.60023">
        <ele>103.3</ele>
        <time>2026-03-30T14:47:19.000Z</time>
      </trkpt>
      <trkpt lat="49.50456" lon="-1.60025">
        <ele>103.7</ele>
        <time>2026-03-30T14:47:20.000Z</time>
      </trkpt>
      <trkpt lat="49.50457" lon="-1.60027">
        <ele>104.2</ele>
        <time>2026-03-30T14:47:21.000Z</time>
      </trkpt>
      <trkpt lat="49.50458" lon="-1.60029">
        <ele>104.4</ele>
        <time>2026-03-30T14:47:22.000Z</time>
      </trkpt>
      <trkpt lat="49.50458" lon="-1.60031">
        <ele>104.3</ele>
        <time>2026-03-30T14:47:23.000Z</time>
      </trkpt>
      <trkpt lat="49.50459" lon="-1.60033">
        <ele>103.9</ele>
        <time>2026-03-30T14:47:24.000Z</time>
      </trkpt>
      <trkpt lat="49.5046" lon="-1.60034">
        <ele>103.6</ele>
        <time>2026-03-30T14:47:25.000Z</time>
      </trkpt>
      <trkpt lat="49.50461" lon="-1.60036">
        <ele>104.3</ele>
        <time>2026-03-30T14:47:26.000Z</time>
      </trkpt>
      <trkpt lat="49.50461" lon="-1.60038">
        <ele>104.5</ele>
        <time>2026-03-30T14:47:27.000Z</time>
      </trkpt>
      <trkpt lat="49.50462" lon="-1.6004">
        <ele>103.8</ele>
        <time>2026-03-30T14:47:28.000Z</time>
      </trkpt>
      <trkpt lat="49.50463" lon="-1.60041">
        <ele>103.6</ele>
        <time>2026-03-30T14:47:29.000Z</time>
      </trkpt>
      <trkpt lat="49.50463" lon="-1.60043">
        <ele>103.3</ele>
        <time>2026-03-30T14:47:30.000Z</time>
      </trkpt>
      <trkpt lat="49.50464" lon="-1.60045">
        <ele>103.7</ele>
        <time>2026-03-30T14:47:31.000Z</time>
      </trkpt>
      <trkpt lat="49.50465" lon="-1.60047">
        <ele>103.5</ele>
        <time>2026-03-30T14:47:32.000Z</time>
      </trkpt>
      <trkpt lat="49.50466" lon="-1.60048">
        <ele>102.8</ele>
        <time>2026-03-30T14:47:33.000Z</time>
      </trkpt>
      <trkpt lat="49.50467" lon="-1.60049">
        <ele>102.7</ele>
        <time>2026-03-30T14:47:34.000Z</time>
      </trkpt>
      <trkpt lat="49.50468" lon="-1.60051">
        <ele>102.9</ele>
        <time>2026-03-30T14:47:35.000Z</time>
      </trkpt>
      <trkpt lat="49.50469" lon="-1.60052">
        <ele>102.4</ele>
        <time>2026-03-30T14:47:36.000Z</time>
      </trkpt>
      <trkpt lat="49.50469" lon="-1.60054">
        <ele>102.9</ele>
        <time>2026-03-30T14:47:37.000Z</time>
      </trkpt>
      <trkpt lat="49.5047" lon="-1.60056">
        <ele>102.8</ele>
        <time>2026-03-30T14:47:38.000Z</time>
      </trkpt>
      <trkpt lat="49.50471" lon="-1.60058">
        <ele>102.8</ele>
        <time>2026-03-30T14:47:39.000Z</time>
      </trkpt>
      <trkpt lat="49.50472" lon="-1.6006">
        <ele>103</ele>
        <time>2026-03-30T14:47:40.000Z</time>
      </trkpt>
      <trkpt lat="49.50472" lon="-1.60062">
        <ele>103</ele>
        <time>2026-03-30T14:47:41.000Z</time>
      </trkpt>
      <trkpt lat="49.50473" lon="-1.60064">
        <ele>103</ele>
        <time>2026-03-30T14:47:42.000Z</time>
      </trkpt>
      <trkpt lat="49.50474" lon="-1.60066">
        <ele>103.2</ele>
        <time>2026-03-30T14:47:43.000Z</time>
      </trkpt>
      <trkpt lat="49.50475" lon="-1.60068">
        <ele>103.7</ele>
        <time>2026-03-30T14:47:44.000Z</time>
      </trkpt>
      <trkpt lat="49.50475" lon="-1.60069">
        <ele>104.1</ele>
        <time>2026-03-30T14:47:45.000Z</time>
      </trkpt>
      <trkpt lat="49.50476" lon="-1.60071">
        <ele>104.2</ele>
        <time>2026-03-30T14:47:46.000Z</time>
      </trkpt>
      <trkpt lat="49.50477" lon="-1.60073">
        <ele>104.8</ele>
        <time>2026-03-30T14:47:47.000Z</time>
      </trkpt>
      <trkpt lat="49.50478" lon="-1.60075">
        <ele>105.2</ele>
        <time>2026-03-30T14:47:48.000Z</time>
      </trkpt>
      <trkpt lat="49.50479" lon="-1.60077">
        <ele>104.6</ele>
        <time>2026-03-30T14:47:49.000Z</time>
      </trkpt>
      <trkpt lat="49.5048" lon="-1.60078">
        <ele>105</ele>
        <time>2026-03-30T14:47:50.000Z</time>
      </trkpt>
      <trkpt lat="49.50481" lon="-1.60079">
        <ele>104.8</ele>
        <time>2026-03-30T14:47:51.000Z</time>
      </trkpt>
      <trkpt lat="49.50482" lon="-1.6008">
        <ele>105.2</ele>
        <time>2026-03-30T14:47:52.000Z</time>
      </trkpt>
      <trkpt lat="49.50483" lon="-1.60082">
        <ele>104.2</ele>
        <time>2026-03-30T14:47:53.000Z</time>
      </trkpt>
      <trkpt lat="49.50484" lon="-1.60084">
        <ele>103.9</ele>
        <time>2026-03-30T14:47:54.000Z</time>
      </trkpt>
      <trkpt lat="49.50484" lon="-1.60085">
        <ele>104.4</ele>
        <time>2026-03-30T14:47:55.000Z</time>
      </trkpt>
      <trkpt lat="49.50485" lon="-1.60087">
        <ele>103.6</ele>
        <time>2026-03-30T14:47:56.000Z</time>
      </trkpt>
      <trkpt lat="49.50486" lon="-1.60088">
        <ele>103.6</ele>
        <time>2026-03-30T14:47:57.000Z</time>
      </trkpt>
      <trkpt lat="49.50487" lon="-1.6009">
        <ele>103.9</ele>
        <time>2026-03-30T14:47:58.000Z</time>
      </trkpt>
      <trkpt lat="49.50488" lon="-1.60092">
        <ele>104.1</ele>
        <time>2026-03-30T14:47:59.000Z</time>
      </trkpt>
      <trkpt lat="49.50489" lon="-1.60093">
        <ele>104.2</ele>
        <time>2026-03-30T14:48:00.000Z</time>
      </trkpt>
      <trkpt lat="49.5049" lon="-1.60095">
        <ele>104.5</ele>
        <time>2026-03-30T14:48:01.000Z</time>
      </trkpt>
      <trkpt lat="49.50491" lon="-1.60097">
        <ele>104.8</ele>
        <time>2026-03-30T14:48:02.000Z</time>
      </trkpt>
      <trkpt lat="49.50492" lon="-1.60098">
        <ele>105</ele>
        <time>2026-03-30T14:48:03.000Z</time>
      </trkpt>
      <trkpt lat="49.50493" lon="-1.60099">
        <ele>104.9</ele>
        <time>2026-03-30T14:48:04.000Z</time>
      </trkpt>
      <trkpt lat="49.50495" lon="-1.601">
        <ele>105.5</ele>
        <time>2026-03-30T14:48:05.000Z</time>
      </trkpt>
      <trkpt lat="49.50496" lon="-1.60101">
        <ele>106.3</ele>
        <time>2026-03-30T14:48:06.000Z</time>
      </trkpt>
      <trkpt lat="49.50497" lon="-1.60102">
        <ele>107.3</ele>
        <time>2026-03-30T14:48:07.000Z</time>
      </trkpt>
      <trkpt lat="49.50498" lon="-1.60103">
        <ele>108.2</ele>
        <time>2026-03-30T14:48:08.000Z</time>
      </trkpt>
      <trkpt lat="49.505" lon="-1.60104">
        <ele>108.5</ele>
        <time>2026-03-30T14:48:09.000Z</time>
      </trkpt>
      <trkpt lat="49.50501" lon="-1.60105">
        <ele>108.6</ele>
        <time>2026-03-30T14:48:10.000Z</time>
      </trkpt>
      <trkpt lat="49.50502" lon="-1.60106">
        <ele>109.1</ele>
        <time>2026-03-30T14:48:11.000Z</time>
      </trkpt>
      <trkpt lat="49.50504" lon="-1.60107">
        <ele>108.7</ele>
        <time>2026-03-30T14:48:12.000Z</time>
      </trkpt>
      <trkpt lat="49.50505" lon="-1.60108">
        <ele>108.5</ele>
        <time>2026-03-30T14:48:13.000Z</time>
      </trkpt>
      <trkpt lat="49.50506" lon="-1.60108">
        <ele>109.4</ele>
        <time>2026-03-30T14:48:14.000Z</time>
      </trkpt>
      <trkpt lat="49.50508" lon="-1.60109">
        <ele>109</ele>
        <time>2026-03-30T14:48:15.000Z</time>
      </trkpt>
      <trkpt lat="49.50509" lon="-1.6011">
        <ele>109.1</ele>
        <time>2026-03-30T14:48:16.000Z</time>
      </trkpt>
      <trkpt lat="49.5051" lon="-1.6011">
        <ele>108.8</ele>
        <time>2026-03-30T14:48:17.000Z</time>
      </trkpt>
      <trkpt lat="49.50512" lon="-1.60111">
        <ele>108.7</ele>
        <time>2026-03-30T14:48:18.000Z</time>
      </trkpt>
      <trkpt lat="49.50513" lon="-1.60111">
        <ele>108.9</ele>
        <time>2026-03-30T14:48:19.000Z</time>
      </trkpt>
      <trkpt lat="49.50514" lon="-1.60112">
        <ele>108.8</ele>
        <time>2026-03-30T14:48:20.000Z</time>
      </trkpt>
      <trkpt lat="49.50516" lon="-1.60112">
        <ele>108.7</ele>
        <time>2026-03-30T14:48:21.000Z</time>
      </trkpt>
      <trkpt lat="49.50517" lon="-1.60113">
        <ele>108.3</ele>
        <time>2026-03-30T14:48:22.000Z</time>
      </trkpt>
      <trkpt lat="49.50518" lon="-1.60114">
        <ele>108.3</ele>
        <time>2026-03-30T14:48:23.000Z</time>
      </trkpt>
      <trkpt lat="49.5052" lon="-1.60114">
        <ele>107.9</ele>
        <time>2026-03-30T14:48:24.000Z</time>
      </trkpt>
      <trkpt lat="49.50521" lon="-1.60115">
        <ele>107.5</ele>
        <time>2026-03-30T14:48:25.000Z</time>
      </trkpt>
      <trkpt lat="49.50522" lon="-1.60116">
        <ele>107.2</ele>
        <time>2026-03-30T14:48:26.000Z</time>
      </trkpt>
      <trkpt lat="49.50523" lon="-1.60117">
        <ele>107.3</ele>
        <time>2026-03-30T14:48:27.000Z</time>
      </trkpt>
      <trkpt lat="49.50524" lon="-1.60118">
        <ele>106.5</ele>
        <time>2026-03-30T14:48:28.000Z</time>
      </trkpt>
      <trkpt lat="49.50525" lon="-1.60119">
        <ele>105.1</ele>
        <time>2026-03-30T14:48:29.000Z</time>
      </trkpt>
      <trkpt lat="49.50527" lon="-1.6012">
        <ele>104.6</ele>
        <time>2026-03-30T14:48:30.000Z</time>
      </trkpt>
      <trkpt lat="49.50528" lon="-1.60121">
        <ele>103.6</ele>
        <time>2026-03-30T14:48:31.000Z</time>
      </trkpt>
      <trkpt lat="49.50529" lon="-1.60122">
        <ele>103.6</ele>
        <time>2026-03-30T14:48:32.000Z</time>
      </trkpt>
      <trkpt lat="49.50531" lon="-1.60124">
        <ele>103.1</ele>
        <time>2026-03-30T14:48:33.000Z</time>
      </trkpt>
      <trkpt lat="49.50532" lon="-1.60125">
        <ele>102.8</ele>
        <time>2026-03-30T14:48:34.000Z</time>
      </trkpt>
      <trkpt lat="49.50533" lon="-1.60126">
        <ele>102.8</ele>
        <time>2026-03-30T14:48:35.000Z</time>
      </trkpt>
      <trkpt lat="49.50534" lon="-1.60128">
        <ele>103.4</ele>
        <time>2026-03-30T14:48:36.000Z</time>
      </trkpt>
      <trkpt lat="49.50535" lon="-1.60129">
        <ele>103.5</ele>
        <time>2026-03-30T14:48:37.000Z</time>
      </trkpt>
      <trkpt lat="49.50536" lon="-1.6013">
        <ele>103.2</ele>
        <time>2026-03-30T14:48:38.000Z</time>
      </trkpt>
      <trkpt lat="49.50537" lon="-1.60131">
        <ele>103.8</ele>
        <time>2026-03-30T14:48:39.000Z</time>
      </trkpt>
      <trkpt lat="49.50539" lon="-1.60132">
        <ele>104.4</ele>
        <time>2026-03-30T14:48:40.000Z</time>
      </trkpt>
      <trkpt lat="49.5054" lon="-1.60134">
        <ele>104.5</ele>
        <time>2026-03-30T14:48:41.000Z</time>
      </trkpt>
      <trkpt lat="49.50541" lon="-1.60135">
        <ele>105.1</ele>
        <time>2026-03-30T14:48:42.000Z</time>
      </trkpt>
      <trkpt lat="49.50542" lon="-1.60137">
        <ele>105.1</ele>
        <time>2026-03-30T14:48:43.000Z</time>
      </trkpt>
      <trkpt lat="49.50543" lon="-1.60138">
        <ele>105</ele>
        <time>2026-03-30T14:48:44.000Z</time>
      </trkpt>
      <trkpt lat="49.50544" lon="-1.60139">
        <ele>105.4</ele>
        <time>2026-03-30T14:48:45.000Z</time>
      </trkpt>
      <trkpt lat="49.50545" lon="-1.60141">
        <ele>105.8</ele>
        <time>2026-03-30T14:48:46.000Z</time>
      </trkpt>
      <trkpt lat="49.50546" lon="-1.60142">
        <ele>106</ele>
        <time>2026-03-30T14:48:47.000Z</time>
      </trkpt>
      <trkpt lat="49.50547" lon="-1.60143">
        <ele>106.1</ele>
        <time>2026-03-30T14:48:48.000Z</time>
      </trkpt>
      <trkpt lat="49.50548" lon="-1.60144">
        <ele>106.4</ele>
        <time>2026-03-30T14:48:49.000Z</time>
      </trkpt>
      <trkpt lat="49.5055" lon="-1.60145">
        <ele>106.7</ele>
        <time>2026-03-30T14:48:50.000Z</time>
      </trkpt>
      <trkpt lat="49.50551" lon="-1.60146">
        <ele>107</ele>
        <time>2026-03-30T14:48:51.000Z</time>
      </trkpt>
      <trkpt lat="49.50552" lon="-1.60147">
        <ele>107.3</ele>
        <time>2026-03-30T14:48:52.000Z</time>
      </trkpt>
      <trkpt lat="49.50553" lon="-1.60148">
        <ele>107.6</ele>
        <time>2026-03-30T14:48:53.000Z</time>
      </trkpt>
      <trkpt lat="49.50555" lon="-1.60149">
        <ele>108.2</ele>
        <time>2026-03-30T14:48:54.000Z</time>
      </trkpt>
      <trkpt lat="49.50556" lon="-1.6015">
        <ele>108.2</ele>
        <time>2026-03-30T14:48:55.000Z</time>
      </trkpt>
      <trkpt lat="49.50557" lon="-1.60151">
        <ele>108.9</ele>
        <time>2026-03-30T14:48:56.000Z</time>
      </trkpt>
      <trkpt lat="49.50558" lon="-1.60152">
        <ele>109.4</ele>
        <time>2026-03-30T14:48:57.000Z</time>
      </trkpt>
      <trkpt lat="49.5056" lon="-1.60153">
        <ele>109.6</ele>
        <time>2026-03-30T14:48:58.000Z</time>
      </trkpt>
      <trkpt lat="49.50561" lon="-1.60154">
        <ele>110.3</ele>
        <time>2026-03-30T14:48:59.000Z</time>
      </trkpt>
      <trkpt lat="49.50562" lon="-1.60155">
        <ele>110.7</ele>
        <time>2026-03-30T14:49:00.000Z</time>
      </trkpt>
      <trkpt lat="49.50563" lon="-1.60156">
        <ele>109.4</ele>
        <time>2026-03-30T14:49:01.000Z</time>
      </trkpt>
      <trkpt lat="49.50565" lon="-1.60158">
        <ele>109.5</ele>
        <time>2026-03-30T14:49:02.000Z</time>
      </trkpt>
      <trkpt lat="49.50566" lon="-1.60159">
        <ele>108.7</ele>
        <time>2026-03-30T14:49:03.000Z</time>
      </trkpt>
      <trkpt lat="49.50567" lon="-1.6016">
        <ele>109.5</ele>
        <time>2026-03-30T14:49:04.000Z</time>
      </trkpt>
      <trkpt lat="49.50569" lon="-1.60161">
        <ele>109.2</ele>
        <time>2026-03-30T14:49:05.000Z</time>
      </trkpt>
      <trkpt lat="49.5057" lon="-1.60162">
        <ele>108.6</ele>
        <time>2026-03-30T14:49:06.000Z</time>
      </trkpt>
      <trkpt lat="49.50571" lon="-1.60163">
        <ele>108.5</ele>
        <time>2026-03-30T14:49:07.000Z</time>
      </trkpt>
      <trkpt lat="49.50572" lon="-1.60164">
        <ele>108.5</ele>
        <time>2026-03-30T14:49:08.000Z</time>
      </trkpt>
      <trkpt lat="49.50573" lon="-1.60165">
        <ele>109</ele>
        <time>2026-03-30T14:49:09.000Z</time>
      </trkpt>
      <trkpt lat="49.50575" lon="-1.60166">
        <ele>109.5</ele>
        <time>2026-03-30T14:49:10.000Z</time>
      </trkpt>
      <trkpt lat="49.50576" lon="-1.60167">
        <ele>108.7</ele>
        <time>2026-03-30T14:49:11.000Z</time>
      </trkpt>
      <trkpt lat="49.50577" lon="-1.60169">
        <ele>108.2</ele>
        <time>2026-03-30T14:49:12.000Z</time>
      </trkpt>
      <trkpt lat="49.50578" lon="-1.6017">
        <ele>108.2</ele>
        <time>2026-03-30T14:49:13.000Z</time>
      </trkpt>
      <trkpt lat="49.5058" lon="-1.60171">
        <ele>108.4</ele>
        <time>2026-03-30T14:49:14.000Z</time>
      </trkpt>
      <trkpt lat="49.50581" lon="-1.60172">
        <ele>108.9</ele>
        <time>2026-03-30T14:49:15.000Z</time>
      </trkpt>
      <trkpt lat="49.50582" lon="-1.60173">
        <ele>108.7</ele>
        <time>2026-03-30T14:49:16.000Z</time>
      </trkpt>
      <trkpt lat="49.50583" lon="-1.60174">
        <ele>108.6</ele>
        <time>2026-03-30T14:49:17.000Z</time>
      </trkpt>
      <trkpt lat="49.50584" lon="-1.60175">
        <ele>108.4</ele>
        <time>2026-03-30T14:49:18.000Z</time>
      </trkpt>
      <trkpt lat="49.50586" lon="-1.60176">
        <ele>108.6</ele>
        <time>2026-03-30T14:49:19.000Z</time>
      </trkpt>
      <trkpt lat="49.50587" lon="-1.60177">
        <ele>108.9</ele>
        <time>2026-03-30T14:49:20.000Z</time>
      </trkpt>
      <trkpt lat="49.50588" lon="-1.60179">
        <ele>108.9</ele>
        <time>2026-03-30T14:49:21.000Z</time>
      </trkpt>
      <trkpt lat="49.50589" lon="-1.6018">
        <ele>109.4</ele>
        <time>2026-03-30T14:49:22.000Z</time>
      </trkpt>
      <trkpt lat="49.5059" lon="-1.60181">
        <ele>109.5</ele>
        <time>2026-03-30T14:49:23.000Z</time>
      </trkpt>
      <trkpt lat="49.50591" lon="-1.60183">
        <ele>109.5</ele>
        <time>2026-03-30T14:49:24.000Z</time>
      </trkpt>
      <trkpt lat="49.50592" lon="-1.60184">
        <ele>109.5</ele>
        <time>2026-03-30T14:49:25.000Z</time>
      </trkpt>
      <trkpt lat="49.50593" lon="-1.60185">
        <ele>109.4</ele>
        <time>2026-03-30T14:49:26.000Z</time>
      </trkpt>
      <trkpt lat="49.50594" lon="-1.60187">
        <ele>110.3</ele>
        <time>2026-03-30T14:49:27.000Z</time>
      </trkpt>
      <trkpt lat="49.50595" lon="-1.60188">
        <ele>110.6</ele>
        <time>2026-03-30T14:49:28.000Z</time>
      </trkpt>
      <trkpt lat="49.50596" lon="-1.6019">
        <ele>110.9</ele>
        <time>2026-03-30T14:49:29.000Z</time>
      </trkpt>
      <trkpt lat="49.50597" lon="-1.60192">
        <ele>111</ele>
        <time>2026-03-30T14:49:30.000Z</time>
      </trkpt>
      <trkpt lat="49.50598" lon="-1.60193">
        <ele>111.1</ele>
        <time>2026-03-30T14:49:31.000Z</time>
      </trkpt>
      <trkpt lat="49.50599" lon="-1.60194">
        <ele>111.3</ele>
        <time>2026-03-30T14:49:32.000Z</time>
      </trkpt>
      <trkpt lat="49.506" lon="-1.60196">
        <ele>110.9</ele>
        <time>2026-03-30T14:49:33.000Z</time>
      </trkpt>
      <trkpt lat="49.50601" lon="-1.60197">
        <ele>110.2</ele>
        <time>2026-03-30T14:49:34.000Z</time>
      </trkpt>
      <trkpt lat="49.50602" lon="-1.60199">
        <ele>109.9</ele>
        <time>2026-03-30T14:49:35.000Z</time>
      </trkpt>
      <trkpt lat="49.50603" lon="-1.602">
        <ele>109.2</ele>
        <time>2026-03-30T14:49:36.000Z</time>
      </trkpt>
      <trkpt lat="49.50603" lon="-1.60202">
        <ele>109.1</ele>
        <time>2026-03-30T14:49:37.000Z</time>
      </trkpt>
      <trkpt lat="49.50604" lon="-1.60204">
        <ele>108.7</ele>
        <time>2026-03-30T14:49:38.000Z</time>
      </trkpt>
      <trkpt lat="49.50605" lon="-1.60206">
        <ele>108.4</ele>
        <time>2026-03-30T14:49:39.000Z</time>
      </trkpt>
      <trkpt lat="49.50606" lon="-1.60208">
        <ele>108.7</ele>
        <time>2026-03-30T14:49:40.000Z</time>
      </trkpt>
      <trkpt lat="49.50607" lon="-1.60209">
        <ele>109.1</ele>
        <time>2026-03-30T14:49:41.000Z</time>
      </trkpt>
      <trkpt lat="49.50608" lon="-1.60211">
        <ele>109.4</ele>
        <time>2026-03-30T14:49:42.000Z</time>
      </trkpt>
      <trkpt lat="49.50609" lon="-1.60213">
        <ele>110</ele>
        <time>2026-03-30T14:49:43.000Z</time>
      </trkpt>
      <trkpt lat="49.5061" lon="-1.60215">
        <ele>110.3</ele>
        <time>2026-03-30T14:49:44.000Z</time>
      </trkpt>
      <trkpt lat="49.5061" lon="-1.60217">
        <ele>110.4</ele>
        <time>2026-03-30T14:49:45.000Z</time>
      </trkpt>
      <trkpt lat="49.50611" lon="-1.60219">
        <ele>110.1</ele>
        <time>2026-03-30T14:49:46.000Z</time>
      </trkpt>
      <trkpt lat="49.50611" lon="-1.60221">
        <ele>110.1</ele>
        <time>2026-03-30T14:49:47.000Z</time>
      </trkpt>
      <trkpt lat="49.50612" lon="-1.60223">
        <ele>110.3</ele>
        <time>2026-03-30T14:49:48.000Z</time>
      </trkpt>
      <trkpt lat="49.50612" lon="-1.60224">
        <ele>110.3</ele>
        <time>2026-03-30T14:49:49.000Z</time>
      </trkpt>
      <trkpt lat="49.50613" lon="-1.60226">
        <ele>110.5</ele>
        <time>2026-03-30T14:49:50.000Z</time>
      </trkpt>
      <trkpt lat="49.50614" lon="-1.60228">
        <ele>110.7</ele>
        <time>2026-03-30T14:49:51.000Z</time>
      </trkpt>
      <trkpt lat="49.50615" lon="-1.6023">
        <ele>110.7</ele>
        <time>2026-03-30T14:49:52.000Z</time>
      </trkpt>
      <trkpt lat="49.50615" lon="-1.60232">
        <ele>110.6</ele>
        <time>2026-03-30T14:49:53.000Z</time>
      </trkpt>
      <trkpt lat="49.50615" lon="-1.60234">
        <ele>110.4</ele>
        <time>2026-03-30T14:49:54.000Z</time>
      </trkpt>
      <trkpt lat="49.50616" lon="-1.60235">
        <ele>110.4</ele>
        <time>2026-03-30T14:49:55.000Z</time>
      </trkpt>
      <trkpt lat="49.50617" lon="-1.60237">
        <ele>111.2</ele>
        <time>2026-03-30T14:49:56.000Z</time>
      </trkpt>
      <trkpt lat="49.50618" lon="-1.60239">
        <ele>111.1</ele>
        <time>2026-03-30T14:49:57.000Z</time>
      </trkpt>
      <trkpt lat="49.50618" lon="-1.60241">
        <ele>110.6</ele>
        <time>2026-03-30T14:49:58.000Z</time>
      </trkpt>
      <trkpt lat="49.50619" lon="-1.60243">
        <ele>110.3</ele>
        <time>2026-03-30T14:49:59.000Z</time>
      </trkpt>
      <trkpt lat="49.50619" lon="-1.60245">
        <ele>110.6</ele>
        <time>2026-03-30T14:50:00.000Z</time>
      </trkpt>
      <trkpt lat="49.5062" lon="-1.60246">
        <ele>110.5</ele>
        <time>2026-03-30T14:50:01.000Z</time>
      </trkpt>
      <trkpt lat="49.50621" lon="-1.60248">
        <ele>110.2</ele>
        <time>2026-03-30T14:50:02.000Z</time>
      </trkpt>
      <trkpt lat="49.50622" lon="-1.6025">
        <ele>109.3</ele>
        <time>2026-03-30T14:50:03.000Z</time>
      </trkpt>
      <trkpt lat="49.50623" lon="-1.60251">
        <ele>109.1</ele>
        <time>2026-03-30T14:50:04.000Z</time>
      </trkpt>
      <trkpt lat="49.50624" lon="-1.60252">
        <ele>108.8</ele>
        <time>2026-03-30T14:50:05.000Z</time>
      </trkpt>
      <trkpt lat="49.50625" lon="-1.60254">
        <ele>108.5</ele>
        <time>2026-03-30T14:50:06.000Z</time>
      </trkpt>
      <trkpt lat="49.50626" lon="-1.60255">
        <ele>108.1</ele>
        <time>2026-03-30T14:50:07.000Z</time>
      </trkpt>
      <trkpt lat="49.50626" lon="-1.60257">
        <ele>108.1</ele>
        <time>2026-03-30T14:50:08.000Z</time>
      </trkpt>
      <trkpt lat="49.50627" lon="-1.60259">
        <ele>108.2</ele>
        <time>2026-03-30T14:50:09.000Z</time>
      </trkpt>
      <trkpt lat="49.50628" lon="-1.6026">
        <ele>108.6</ele>
        <time>2026-03-30T14:50:10.000Z</time>
      </trkpt>
      <trkpt lat="49.50628" lon="-1.60261">
        <ele>109.2</ele>
        <time>2026-03-30T14:50:11.000Z</time>
      </trkpt>
      <trkpt lat="49.50629" lon="-1.60262">
        <ele>109.2</ele>
        <time>2026-03-30T14:50:12.000Z</time>
      </trkpt>
      <trkpt lat="49.5063" lon="-1.60264">
        <ele>110.2</ele>
        <time>2026-03-30T14:50:13.000Z</time>
      </trkpt>
      <trkpt lat="49.50631" lon="-1.60265">
        <ele>110.7</ele>
        <time>2026-03-30T14:50:14.000Z</time>
      </trkpt>
      <trkpt lat="49.50632" lon="-1.60266">
        <ele>111.4</ele>
        <time>2026-03-30T14:50:15.000Z</time>
      </trkpt>
      <trkpt lat="49.50634" lon="-1.60267">
        <ele>111.7</ele>
        <time>2026-03-30T14:50:16.000Z</time>
      </trkpt>
      <trkpt lat="49.50635" lon="-1.60267">
        <ele>112.5</ele>
        <time>2026-03-30T14:50:17.000Z</time>
      </trkpt>
      <trkpt lat="49.50637" lon="-1.60268">
        <ele>112.7</ele>
        <time>2026-03-30T14:50:18.000Z</time>
      </trkpt>
      <trkpt lat="49.50638" lon="-1.60268">
        <ele>112.8</ele>
        <time>2026-03-30T14:50:19.000Z</time>
      </trkpt>
      <trkpt lat="49.5064" lon="-1.60269">
        <ele>113</ele>
        <time>2026-03-30T14:50:20.000Z</time>
      </trkpt>
      <trkpt lat="49.50641" lon="-1.60269">
        <ele>113.3</ele>
        <time>2026-03-30T14:50:21.000Z</time>
      </trkpt>
      <trkpt lat="49.50642" lon="-1.6027">
        <ele>113.6</ele>
        <time>2026-03-30T14:50:22.000Z</time>
      </trkpt>
      <trkpt lat="49.50644" lon="-1.60271">
        <ele>113.9</ele>
        <time>2026-03-30T14:50:23.000Z</time>
      </trkpt>
      <trkpt lat="49.50645" lon="-1.60272">
        <ele>114.9</ele>
        <time>2026-03-30T14:50:24.000Z</time>
      </trkpt>
      <trkpt lat="49.50646" lon="-1.60273">
        <ele>115.6</ele>
        <time>2026-03-30T14:50:25.000Z</time>
      </trkpt>
      <trkpt lat="49.50648" lon="-1.60273">
        <ele>117.1</ele>
        <time>2026-03-30T14:50:26.000Z</time>
      </trkpt>
      <trkpt lat="49.50649" lon="-1.60274">
        <ele>117.3</ele>
        <time>2026-03-30T14:50:27.000Z</time>
      </trkpt>
      <trkpt lat="49.5065" lon="-1.60275">
        <ele>116.8</ele>
        <time>2026-03-30T14:50:28.000Z</time>
      </trkpt>
      <trkpt lat="49.50652" lon="-1.60276">
        <ele>116.8</ele>
        <time>2026-03-30T14:50:29.000Z</time>
      </trkpt>
      <trkpt lat="49.50653" lon="-1.60277">
        <ele>116.7</ele>
        <time>2026-03-30T14:50:30.000Z</time>
      </trkpt>
      <trkpt lat="49.50654" lon="-1.60278">
        <ele>117.3</ele>
        <time>2026-03-30T14:50:31.000Z</time>
      </trkpt>
      <trkpt lat="49.50656" lon="-1.6028">
        <ele>117</ele>
        <time>2026-03-30T14:50:32.000Z</time>
      </trkpt>
      <trkpt lat="49.50657" lon="-1.60282">
        <ele>115.7</ele>
        <time>2026-03-30T14:50:33.000Z</time>
      </trkpt>
      <trkpt lat="49.50658" lon="-1.60283">
        <ele>115.7</ele>
        <time>2026-03-30T14:50:34.000Z</time>
      </trkpt>
      <trkpt lat="49.5066" lon="-1.60285">
        <ele>114.5</ele>
        <time>2026-03-30T14:50:35.000Z</time>
      </trkpt>
      <trkpt lat="49.50661" lon="-1.60286">
        <ele>114.4</ele>
        <time>2026-03-30T14:50:36.000Z</time>
      </trkpt>
      <trkpt lat="49.50662" lon="-1.60288">
        <ele>114.5</ele>
        <time>2026-03-30T14:50:37.000Z</time>
      </trkpt>
      <trkpt lat="49.50664" lon="-1.60289">
        <ele>114.3</ele>
        <time>2026-03-30T14:50:38.000Z</time>
      </trkpt>
      <trkpt lat="49.50665" lon="-1.60291">
        <ele>114.1</ele>
        <time>2026-03-30T14:50:39.000Z</time>
      </trkpt>
      <trkpt lat="49.50666" lon="-1.60292">
        <ele>114.3</ele>
        <time>2026-03-30T14:50:40.000Z</time>
      </trkpt>
      <trkpt lat="49.50667" lon="-1.60294">
        <ele>114.5</ele>
        <time>2026-03-30T14:50:41.000Z</time>
      </trkpt>
      <trkpt lat="49.50668" lon="-1.60295">
        <ele>114.1</ele>
        <time>2026-03-30T14:50:42.000Z</time>
      </trkpt>
      <trkpt lat="49.50669" lon="-1.60297">
        <ele>113.5</ele>
        <time>2026-03-30T14:50:43.000Z</time>
      </trkpt>
      <trkpt lat="49.5067" lon="-1.60298">
        <ele>113.9</ele>
        <time>2026-03-30T14:50:44.000Z</time>
      </trkpt>
      <trkpt lat="49.50671" lon="-1.60299">
        <ele>114</ele>
        <time>2026-03-30T14:50:45.000Z</time>
      </trkpt>
      <trkpt lat="49.50673" lon="-1.603">
        <ele>114.1</ele>
        <time>2026-03-30T14:50:46.000Z</time>
      </trkpt>
      <trkpt lat="49.50674" lon="-1.60301">
        <ele>114.7</ele>
        <time>2026-03-30T14:50:47.000Z</time>
      </trkpt>
      <trkpt lat="49.50675" lon="-1.60303">
        <ele>114.3</ele>
        <time>2026-03-30T14:50:48.000Z</time>
      </trkpt>
      <trkpt lat="49.50676" lon="-1.60304">
        <ele>113.9</ele>
        <time>2026-03-30T14:50:49.000Z</time>
      </trkpt>
      <trkpt lat="49.50677" lon="-1.60305">
        <ele>113.9</ele>
        <time>2026-03-30T14:50:50.000Z</time>
      </trkpt>
      <trkpt lat="49.50678" lon="-1.60306">
        <ele>114.1</ele>
        <time>2026-03-30T14:50:51.000Z</time>
      </trkpt>
      <trkpt lat="49.50679" lon="-1.60307">
        <ele>113.6</ele>
        <time>2026-03-30T14:50:52.000Z</time>
      </trkpt>
      <trkpt lat="49.5068" lon="-1.60308">
        <ele>113.1</ele>
        <time>2026-03-30T14:50:53.000Z</time>
      </trkpt>
      <trkpt lat="49.50681" lon="-1.60309">
        <ele>112.1</ele>
        <time>2026-03-30T14:50:54.000Z</time>
      </trkpt>
      <trkpt lat="49.50682" lon="-1.60311">
        <ele>112.2</ele>
        <time>2026-03-30T14:50:55.000Z</time>
      </trkpt>
      <trkpt lat="49.50683" lon="-1.60312">
        <ele>111.9</ele>
        <time>2026-03-30T14:50:56.000Z</time>
      </trkpt>
      <trkpt lat="49.50684" lon="-1.60313">
        <ele>111.9</ele>
        <time>2026-03-30T14:50:57.000Z</time>
      </trkpt>
      <trkpt lat="49.50685" lon="-1.60315">
        <ele>112</ele>
        <time>2026-03-30T14:50:58.000Z</time>
      </trkpt>
      <trkpt lat="49.50686" lon="-1.60317">
        <ele>111.8</ele>
        <time>2026-03-30T14:50:59.000Z</time>
      </trkpt>
      <trkpt lat="49.50687" lon="-1.60318">
        <ele>111.2</ele>
        <time>2026-03-30T14:51:00.000Z</time>
      </trkpt>
      <trkpt lat="49.50687" lon="-1.6032">
        <ele>111.3</ele>
        <time>2026-03-30T14:51:01.000Z</time>
      </trkpt>
      <trkpt lat="49.50689" lon="-1.60322">
        <ele>111.3</ele>
        <time>2026-03-30T14:51:02.000Z</time>
      </trkpt>
      <trkpt lat="49.5069" lon="-1.60323">
        <ele>111.7</ele>
        <time>2026-03-30T14:51:03.000Z</time>
      </trkpt>
      <trkpt lat="49.50691" lon="-1.60324">
        <ele>112.2</ele>
        <time>2026-03-30T14:51:04.000Z</time>
      </trkpt>
      <trkpt lat="49.50692" lon="-1.60326">
        <ele>113</ele>
        <time>2026-03-30T14:51:05.000Z</time>
      </trkpt>
      <trkpt lat="49.50692" lon="-1.60328">
        <ele>113.2</ele>
        <time>2026-03-30T14:51:06.000Z</time>
      </trkpt>
      <trkpt lat="49.50693" lon="-1.60329">
        <ele>113.7</ele>
        <time>2026-03-30T14:51:07.000Z</time>
      </trkpt>
      <trkpt lat="49.50694" lon="-1.6033">
        <ele>113.6</ele>
        <time>2026-03-30T14:51:08.000Z</time>
      </trkpt>
      <trkpt lat="49.50695" lon="-1.60331">
        <ele>113.2</ele>
        <time>2026-03-30T14:51:09.000Z</time>
      </trkpt>
      <trkpt lat="49.50697" lon="-1.60333">
        <ele>113.3</ele>
        <time>2026-03-30T14:51:10.000Z</time>
      </trkpt>
      <trkpt lat="49.50698" lon="-1.60334">
        <ele>113</ele>
        <time>2026-03-30T14:51:11.000Z</time>
      </trkpt>
      <trkpt lat="49.50699" lon="-1.60335">
        <ele>112.8</ele>
        <time>2026-03-30T14:51:12.000Z</time>
      </trkpt>
      <trkpt lat="49.507" lon="-1.60337">
        <ele>112.2</ele>
        <time>2026-03-30T14:51:13.000Z</time>
      </trkpt>
      <trkpt lat="49.507" lon="-1.60338">
        <ele>111.9</ele>
        <time>2026-03-30T14:51:14.000Z</time>
      </trkpt>
      <trkpt lat="49.50701" lon="-1.6034">
        <ele>111.9</ele>
        <time>2026-03-30T14:51:15.000Z</time>
      </trkpt>
      <trkpt lat="49.50702" lon="-1.60341">
        <ele>111.8</ele>
        <time>2026-03-30T14:51:16.000Z</time>
      </trkpt>
      <trkpt lat="49.50703" lon="-1.60343">
        <ele>112.5</ele>
        <time>2026-03-30T14:51:17.000Z</time>
      </trkpt>
      <trkpt lat="49.50704" lon="-1.60344">
        <ele>111.9</ele>
        <time>2026-03-30T14:51:18.000Z</time>
      </trkpt>
      <trkpt lat="49.50705" lon="-1.60346">
        <ele>111.6</ele>
        <time>2026-03-30T14:51:19.000Z</time>
      </trkpt>
      <trkpt lat="49.50705" lon="-1.60347">
        <ele>111.3</ele>
        <time>2026-03-30T14:51:20.000Z</time>
      </trkpt>
      <trkpt lat="49.50706" lon="-1.60349">
        <ele>111.5</ele>
        <time>2026-03-30T14:51:21.000Z</time>
      </trkpt>
      <trkpt lat="49.50707" lon="-1.60351">
        <ele>111.5</ele>
        <time>2026-03-30T14:51:22.000Z</time>
      </trkpt>
      <trkpt lat="49.50707" lon="-1.60353">
        <ele>111.8</ele>
        <time>2026-03-30T14:51:23.000Z</time>
      </trkpt>
      <trkpt lat="49.50708" lon="-1.60355">
        <ele>111.9</ele>
        <time>2026-03-30T14:51:24.000Z</time>
      </trkpt>
      <trkpt lat="49.50709" lon="-1.60356">
        <ele>111.8</ele>
        <time>2026-03-30T14:51:25.000Z</time>
      </trkpt>
      <trkpt lat="49.50709" lon="-1.60357">
        <ele>111.1</ele>
        <time>2026-03-30T14:51:26.000Z</time>
      </trkpt>
      <trkpt lat="49.50709" lon="-1.60357">
        <ele>111</ele>
        <time>2026-03-30T14:51:27.000Z</time>
      </trkpt>
      <trkpt lat="49.50709" lon="-1.60357">
        <ele>111</ele>
        <time>2026-03-30T14:51:28.000Z</time>
      </trkpt>
      <trkpt lat="49.50709" lon="-1.60357">
        <ele>111</ele>
        <time>2026-03-30T14:51:29.000Z</time>
      </trkpt>
      <trkpt lat="49.50709" lon="-1.60357">
        <ele>111</ele>
        <time>2026-03-30T14:51:30.000Z</time>
      </trkpt>
      <trkpt lat="49.5071" lon="-1.60358">
        <ele>111.2</ele>
        <time>2026-03-30T14:51:31.000Z</time>
      </trkpt>
      <trkpt lat="49.50711" lon="-1.60359">
        <ele>111.1</ele>
        <time>2026-03-30T14:51:32.000Z</time>
      </trkpt>
      <trkpt lat="49.50712" lon="-1.6036">
        <ele>111.2</ele>
        <time>2026-03-30T14:51:33.000Z</time>
      </trkpt>
      <trkpt lat="49.50714" lon="-1.60362">
        <ele>111.7</ele>
        <time>2026-03-30T14:51:34.000Z</time>
      </trkpt>
      <trkpt lat="49.50714" lon="-1.60364">
        <ele>111.9</ele>
        <time>2026-03-30T14:51:35.000Z</time>
      </trkpt>
      <trkpt lat="49.50715" lon="-1.60366">
        <ele>112</ele>
        <time>2026-03-30T14:51:36.000Z</time>
      </trkpt>
      <trkpt lat="49.50716" lon="-1.60368">
        <ele>111.7</ele>
        <time>2026-03-30T14:51:37.000Z</time>
      </trkpt>
      <trkpt lat="49.50717" lon="-1.6037">
        <ele>112.1</ele>
        <time>2026-03-30T14:51:38.000Z</time>
      </trkpt>
      <trkpt lat="49.50718" lon="-1.60372">
        <ele>111.6</ele>
        <time>2026-03-30T14:51:39.000Z</time>
      </trkpt>
      <trkpt lat="49.50719" lon="-1.60374">
        <ele>111.3</ele>
        <time>2026-03-30T14:51:40.000Z</time>
      </trkpt>
      <trkpt lat="49.5072" lon="-1.60376">
        <ele>110.8</ele>
        <time>2026-03-30T14:51:41.000Z</time>
      </trkpt>
      <trkpt lat="49.50721" lon="-1.60378">
        <ele>111</ele>
        <time>2026-03-30T14:51:42.000Z</time>
      </trkpt>
      <trkpt lat="49.50721" lon="-1.6038">
        <ele>111.2</ele>
        <time>2026-03-30T14:51:43.000Z</time>
      </trkpt>
      <trkpt lat="49.50722" lon="-1.60381">
        <ele>111.5</ele>
        <time>2026-03-30T14:51:44.000Z</time>
      </trkpt>
      <trkpt lat="49.50723" lon="-1.60383">
        <ele>111.5</ele>
        <time>2026-03-30T14:51:45.000Z</time>
      </trkpt>
      <trkpt lat="49.50724" lon="-1.60385">
        <ele>111.9</ele>
        <time>2026-03-30T14:51:46.000Z</time>
      </trkpt>
      <trkpt lat="49.50724" lon="-1.60386">
        <ele>111.4</ele>
        <time>2026-03-30T14:51:47.000Z</time>
      </trkpt>
      <trkpt lat="49.50724" lon="-1.60388">
        <ele>111.2</ele>
        <time>2026-03-30T14:51:48.000Z</time>
      </trkpt>
      <trkpt lat="49.50725" lon="-1.6039">
        <ele>110.7</ele>
        <time>2026-03-30T14:51:49.000Z</time>
      </trkpt>
      <trkpt lat="49.50725" lon="-1.60392">
        <ele>110.4</ele>
        <time>2026-03-30T14:51:50.000Z</time>
      </trkpt>
      <trkpt lat="49.50726" lon="-1.60393">
        <ele>110.4</ele>
        <time>2026-03-30T14:51:51.000Z</time>
      </trkpt>
      <trkpt lat="49.50728" lon="-1.60395">
        <ele>110.7</ele>
        <time>2026-03-30T14:51:52.000Z</time>
      </trkpt>
      <trkpt lat="49.50729" lon="-1.60396">
        <ele>110.8</ele>
        <time>2026-03-30T14:51:53.000Z</time>
      </trkpt>
      <trkpt lat="49.5073" lon="-1.60397">
        <ele>111.8</ele>
        <time>2026-03-30T14:51:54.000Z</time>
      </trkpt>
      <trkpt lat="49.50732" lon="-1.60399">
        <ele>111.9</ele>
        <time>2026-03-30T14:51:55.000Z</time>
      </trkpt>
      <trkpt lat="49.50733" lon="-1.60401">
        <ele>111.8</ele>
        <time>2026-03-30T14:51:56.000Z</time>
      </trkpt>
      <trkpt lat="49.50733" lon="-1.60403">
        <ele>112.3</ele>
        <time>2026-03-30T14:51:57.000Z</time>
      </trkpt>
      <trkpt lat="49.50734" lon="-1.60404">
        <ele>112.5</ele>
        <time>2026-03-30T14:51:58.000Z</time>
      </trkpt>
      <trkpt lat="49.50735" lon="-1.60406">
        <ele>112.7</ele>
        <time>2026-03-30T14:51:59.000Z</time>
      </trkpt>
      <trkpt lat="49.50736" lon="-1.60409">
        <ele>112.5</ele>
        <time>2026-03-30T14:52:00.000Z</time>
      </trkpt>
      <trkpt lat="49.50736" lon="-1.60411">
        <ele>112.2</ele>
        <time>2026-03-30T14:52:01.000Z</time>
      </trkpt>
      <trkpt lat="49.50737" lon="-1.60413">
        <ele>112.1</ele>
        <time>2026-03-30T14:52:02.000Z</time>
      </trkpt>
      <trkpt lat="49.50738" lon="-1.60415">
        <ele>111.8</ele>
        <time>2026-03-30T14:52:03.000Z</time>
      </trkpt>
      <trkpt lat="49.50739" lon="-1.60416">
        <ele>112.2</ele>
        <time>2026-03-30T14:52:04.000Z</time>
      </trkpt>
      <trkpt lat="49.5074" lon="-1.60418">
        <ele>111.6</ele>
        <time>2026-03-30T14:52:05.000Z</time>
      </trkpt>
      <trkpt lat="49.5074" lon="-1.6042">
        <ele>111.6</ele>
        <time>2026-03-30T14:52:06.000Z</time>
      </trkpt>
      <trkpt lat="49.50741" lon="-1.60422">
        <ele>111.2</ele>
        <time>2026-03-30T14:52:07.000Z</time>
      </trkpt>
      <trkpt lat="49.50742" lon="-1.60423">
        <ele>111.5</ele>
        <time>2026-03-30T14:52:08.000Z</time>
      </trkpt>
      <trkpt lat="49.50742" lon="-1.60425">
        <ele>111.8</ele>
        <time>2026-03-30T14:52:09.000Z</time>
      </trkpt>
      <trkpt lat="49.50743" lon="-1.60427">
        <ele>112</ele>
        <time>2026-03-30T14:52:10.000Z</time>
      </trkpt>
      <trkpt lat="49.50744" lon="-1.60428">
        <ele>112.9</ele>
        <time>2026-03-30T14:52:11.000Z</time>
      </trkpt>
      <trkpt lat="49.50745" lon="-1.6043">
        <ele>113.3</ele>
        <time>2026-03-30T14:52:12.000Z</time>
      </trkpt>
      <trkpt lat="49.50746" lon="-1.60431">
        <ele>114</ele>
        <time>2026-03-30T14:52:13.000Z</time>
      </trkpt>
      <trkpt lat="49.50747" lon="-1.60432">
        <ele>114.5</ele>
        <time>2026-03-30T14:52:14.000Z</time>
      </trkpt>
      <trkpt lat="49.50747" lon="-1.60434">
        <ele>114.6</ele>
        <time>2026-03-30T14:52:15.000Z</time>
      </trkpt>
      <trkpt lat="49.50748" lon="-1.60436">
        <ele>115.1</ele>
        <time>2026-03-30T14:52:16.000Z</time>
      </trkpt>
      <trkpt lat="49.50749" lon="-1.60438">
        <ele>115</ele>
        <time>2026-03-30T14:52:17.000Z</time>
      </trkpt>
      <trkpt lat="49.50749" lon="-1.60439">
        <ele>114.9</ele>
        <time>2026-03-30T14:52:18.000Z</time>
      </trkpt>
      <trkpt lat="49.5075" lon="-1.60441">
        <ele>114.4</ele>
        <time>2026-03-30T14:52:19.000Z</time>
      </trkpt>
      <trkpt lat="49.5075" lon="-1.60443">
        <ele>114.4</ele>
        <time>2026-03-30T14:52:20.000Z</time>
      </trkpt>
      <trkpt lat="49.50751" lon="-1.60445">
        <ele>113.9</ele>
        <time>2026-03-30T14:52:21.000Z</time>
      </trkpt>
      <trkpt lat="49.50751" lon="-1.60447">
        <ele>114.7</ele>
        <time>2026-03-30T14:52:22.000Z</time>
      </trkpt>
      <trkpt lat="49.50752" lon="-1.60449">
        <ele>114.9</ele>
        <time>2026-03-30T14:52:23.000Z</time>
      </trkpt>
      <trkpt lat="49.50753" lon="-1.60451">
        <ele>115.7</ele>
        <time>2026-03-30T14:52:24.000Z</time>
      </trkpt>
      <trkpt lat="49.50754" lon="-1.60454">
        <ele>115.8</ele>
        <time>2026-03-30T14:52:25.000Z</time>
      </trkpt>
      <trkpt lat="49.50754" lon="-1.60456">
        <ele>115.8</ele>
        <time>2026-03-30T14:52:26.000Z</time>
      </trkpt>
      <trkpt lat="49.50755" lon="-1.60458">
        <ele>116.2</ele>
        <time>2026-03-30T14:52:27.000Z</time>
      </trkpt>
      <trkpt lat="49.50755" lon="-1.6046">
        <ele>116.1</ele>
        <time>2026-03-30T14:52:28.000Z</time>
      </trkpt>
      <trkpt lat="49.50755" lon="-1.60462">
        <ele>115.9</ele>
        <time>2026-03-30T14:52:29.000Z</time>
      </trkpt>
      <trkpt lat="49.50756" lon="-1.60464">
        <ele>116</ele>
        <time>2026-03-30T14:52:30.000Z</time>
      </trkpt>
      <trkpt lat="49.50756" lon="-1.60467">
        <ele>116</ele>
        <time>2026-03-30T14:52:31.000Z</time>
      </trkpt>
      <trkpt lat="49.50756" lon="-1.60469">
        <ele>115.3</ele>
        <time>2026-03-30T14:52:32.000Z</time>
      </trkpt>
      <trkpt lat="49.50756" lon="-1.60471">
        <ele>115.1</ele>
        <time>2026-03-30T14:52:33.000Z</time>
      </trkpt>
      <trkpt lat="49.50757" lon="-1.60473">
        <ele>114.8</ele>
        <time>2026-03-30T14:52:34.000Z</time>
      </trkpt>
      <trkpt lat="49.50757" lon="-1.60475">
        <ele>114.6</ele>
        <time>2026-03-30T14:52:35.000Z</time>
      </trkpt>
      <trkpt lat="49.50758" lon="-1.60476">
        <ele>114.5</ele>
        <time>2026-03-30T14:52:36.000Z</time>
      </trkpt>
      <trkpt lat="49.50758" lon="-1.60479">
        <ele>114.2</ele>
        <time>2026-03-30T14:52:37.000Z</time>
      </trkpt>
      <trkpt lat="49.50758" lon="-1.60481">
        <ele>114.5</ele>
        <time>2026-03-30T14:52:38.000Z</time>
      </trkpt>
      <trkpt lat="49.50758" lon="-1.60483">
        <ele>114.8</ele>
        <time>2026-03-30T14:52:39.000Z</time>
      </trkpt>
      <trkpt lat="49.50759" lon="-1.60485">
        <ele>115.2</ele>
        <time>2026-03-30T14:52:40.000Z</time>
      </trkpt>
      <trkpt lat="49.50759" lon="-1.60488">
        <ele>115.3</ele>
        <time>2026-03-30T14:52:41.000Z</time>
      </trkpt>
      <trkpt lat="49.50759" lon="-1.6049">
        <ele>115.5</ele>
        <time>2026-03-30T14:52:42.000Z</time>
      </trkpt>
      <trkpt lat="49.5076" lon="-1.60492">
        <ele>116.2</ele>
        <time>2026-03-30T14:52:43.000Z</time>
      </trkpt>
      <trkpt lat="49.5076" lon="-1.60494">
        <ele>116.9</ele>
        <time>2026-03-30T14:52:44.000Z</time>
      </trkpt>
      <trkpt lat="49.50761" lon="-1.60496">
        <ele>117.6</ele>
        <time>2026-03-30T14:52:45.000Z</time>
      </trkpt>
      <trkpt lat="49.50761" lon="-1.60498">
        <ele>118.2</ele>
        <time>2026-03-30T14:52:46.000Z</time>
      </trkpt>
      <trkpt lat="49.50762" lon="-1.605">
        <ele>118.5</ele>
        <time>2026-03-30T14:52:47.000Z</time>
      </trkpt>
      <trkpt lat="49.50762" lon="-1.60502">
        <ele>118.9</ele>
        <time>2026-03-30T14:52:48.000Z</time>
      </trkpt>
      <trkpt lat="49.50763" lon="-1.60504">
        <ele>119.4</ele>
        <time>2026-03-30T14:52:49.000Z</time>
      </trkpt>
      <trkpt lat="49.50763" lon="-1.60506">
        <ele>119.6</ele>
        <time>2026-03-30T14:52:50.000Z</time>
      </trkpt>
      <trkpt lat="49.50764" lon="-1.60508">
        <ele>119.8</ele>
        <time>2026-03-30T14:52:51.000Z</time>
      </trkpt>
      <trkpt lat="49.50764" lon="-1.60511">
        <ele>120.2</ele>
        <time>2026-03-30T14:52:52.000Z</time>
      </trkpt>
      <trkpt lat="49.50765" lon="-1.60513">
        <ele>120.2</ele>
        <time>2026-03-30T14:52:53.000Z</time>
      </trkpt>
      <trkpt lat="49.50765" lon="-1.60515">
        <ele>120.4</ele>
        <time>2026-03-30T14:52:54.000Z</time>
      </trkpt>
      <trkpt lat="49.50766" lon="-1.60517">
        <ele>120.4</ele>
        <time>2026-03-30T14:52:55.000Z</time>
      </trkpt>
      <trkpt lat="49.50766" lon="-1.60519">
        <ele>120.6</ele>
        <time>2026-03-30T14:52:56.000Z</time>
      </trkpt>
      <trkpt lat="49.50766" lon="-1.60521">
        <ele>120.6</ele>
        <time>2026-03-30T14:52:57.000Z</time>
      </trkpt>
      <trkpt lat="49.50767" lon="-1.60523">
        <ele>121.2</ele>
        <time>2026-03-30T14:52:58.000Z</time>
      </trkpt>
      <trkpt lat="49.50767" lon="-1.60525">
        <ele>121.7</ele>
        <time>2026-03-30T14:52:59.000Z</time>
      </trkpt>
      <trkpt lat="49.50768" lon="-1.60527">
        <ele>122.3</ele>
        <time>2026-03-30T14:53:00.000Z</time>
      </trkpt>
      <trkpt lat="49.50768" lon="-1.60529">
        <ele>122.6</ele>
        <time>2026-03-30T14:53:01.000Z</time>
      </trkpt>
      <trkpt lat="49.50768" lon="-1.60531">
        <ele>122.7</ele>
        <time>2026-03-30T14:53:02.000Z</time>
      </trkpt>
      <trkpt lat="49.50768" lon="-1.60534">
        <ele>123</ele>
        <time>2026-03-30T14:53:03.000Z</time>
      </trkpt>
      <trkpt lat="49.50768" lon="-1.60536">
        <ele>122.6</ele>
        <time>2026-03-30T14:53:04.000Z</time>
      </trkpt>
      <trkpt lat="49.50769" lon="-1.60538">
        <ele>122.4</ele>
        <time>2026-03-30T14:53:05.000Z</time>
      </trkpt>
      <trkpt lat="49.50769" lon="-1.6054">
        <ele>122.2</ele>
        <time>2026-03-30T14:53:06.000Z</time>
      </trkpt>
      <trkpt lat="49.5077" lon="-1.60542">
        <ele>121.5</ele>
        <time>2026-03-30T14:53:07.000Z</time>
      </trkpt>
      <trkpt lat="49.5077" lon="-1.60544">
        <ele>121</ele>
        <time>2026-03-30T14:53:08.000Z</time>
      </trkpt>
      <trkpt lat="49.50771" lon="-1.60546">
        <ele>121.4</ele>
        <time>2026-03-30T14:53:09.000Z</time>
      </trkpt>
      <trkpt lat="49.50771" lon="-1.60548">
        <ele>120.6</ele>
        <time>2026-03-30T14:53:10.000Z</time>
      </trkpt>
      <trkpt lat="49.50771" lon="-1.6055">
        <ele>120.1</ele>
        <time>2026-03-30T14:53:11.000Z</time>
      </trkpt>
      <trkpt lat="49.50771" lon="-1.60552">
        <ele>119.9</ele>
        <time>2026-03-30T14:53:12.000Z</time>
      </trkpt>
      <trkpt lat="49.50771" lon="-1.60553">
        <ele>119.4</ele>
        <time>2026-03-30T14:53:13.000Z</time>
      </trkpt>
      <trkpt lat="49.50771" lon="-1.60556">
        <ele>119</ele>
        <time>2026-03-30T14:53:14.000Z</time>
      </trkpt>
      <trkpt lat="49.50772" lon="-1.60558">
        <ele>118.9</ele>
        <time>2026-03-30T14:53:15.000Z</time>
      </trkpt>
      <trkpt lat="49.50772" lon="-1.6056">
        <ele>118.6</ele>
        <time>2026-03-30T14:53:16.000Z</time>
      </trkpt>
      <trkpt lat="49.50772" lon="-1.60562">
        <ele>118.8</ele>
        <time>2026-03-30T14:53:17.000Z</time>
      </trkpt>
      <trkpt lat="49.50773" lon="-1.60564">
        <ele>119</ele>
        <time>2026-03-30T14:53:18.000Z</time>
      </trkpt>
      <trkpt lat="49.50773" lon="-1.60566">
        <ele>119.5</ele>
        <time>2026-03-30T14:53:19.000Z</time>
      </trkpt>
      <trkpt lat="49.50773" lon="-1.60568">
        <ele>119.1</ele>
        <time>2026-03-30T14:53:20.000Z</time>
      </trkpt>
      <trkpt lat="49.50774" lon="-1.6057">
        <ele>118.7</ele>
        <time>2026-03-30T14:53:21.000Z</time>
      </trkpt>
      <trkpt lat="49.50774" lon="-1.60572">
        <ele>119</ele>
        <time>2026-03-30T14:53:22.000Z</time>
      </trkpt>
      <trkpt lat="49.50775" lon="-1.60574">
        <ele>119.3</ele>
        <time>2026-03-30T14:53:23.000Z</time>
      </trkpt>
      <trkpt lat="49.50776" lon="-1.60576">
        <ele>119.2</ele>
        <time>2026-03-30T14:53:24.000Z</time>
      </trkpt>
      <trkpt lat="49.50776" lon="-1.60578">
        <ele>119.3</ele>
        <time>2026-03-30T14:53:25.000Z</time>
      </trkpt>
      <trkpt lat="49.50777" lon="-1.6058">
        <ele>119.4</ele>
        <time>2026-03-30T14:53:26.000Z</time>
      </trkpt>
      <trkpt lat="49.50777" lon="-1.60582">
        <ele>119.1</ele>
        <time>2026-03-30T14:53:27.000Z</time>
      </trkpt>
      <trkpt lat="49.50777" lon="-1.60584">
        <ele>118.8</ele>
        <time>2026-03-30T14:53:28.000Z</time>
      </trkpt>
      <trkpt lat="49.50778" lon="-1.60586">
        <ele>118.8</ele>
        <time>2026-03-30T14:53:29.000Z</time>
      </trkpt>
      <trkpt lat="49.50778" lon="-1.60588">
        <ele>118.7</ele>
        <time>2026-03-30T14:53:30.000Z</time>
      </trkpt>
      <trkpt lat="49.50779" lon="-1.6059">
        <ele>119</ele>
        <time>2026-03-30T14:53:31.000Z</time>
      </trkpt>
      <trkpt lat="49.50779" lon="-1.60592">
        <ele>119</ele>
        <time>2026-03-30T14:53:32.000Z</time>
      </trkpt>
      <trkpt lat="49.50779" lon="-1.60594">
        <ele>118.8</ele>
        <time>2026-03-30T14:53:33.000Z</time>
      </trkpt>
      <trkpt lat="49.50779" lon="-1.60597">
        <ele>119.6</ele>
        <time>2026-03-30T14:53:34.000Z</time>
      </trkpt>
      <trkpt lat="49.5078" lon="-1.60599">
        <ele>120.2</ele>
        <time>2026-03-30T14:53:35.000Z</time>
      </trkpt>
      <trkpt lat="49.5078" lon="-1.60601">
        <ele>120.5</ele>
        <time>2026-03-30T14:53:36.000Z</time>
      </trkpt>
      <trkpt lat="49.50781" lon="-1.60603">
        <ele>120.4</ele>
        <time>2026-03-30T14:53:37.000Z</time>
      </trkpt>
      <trkpt lat="49.50781" lon="-1.60605">
        <ele>120.8</ele>
        <time>2026-03-30T14:53:38.000Z</time>
      </trkpt>
      <trkpt lat="49.50781" lon="-1.60607">
        <ele>121.5</ele>
        <time>2026-03-30T14:53:39.000Z</time>
      </trkpt>
      <trkpt lat="49.50781" lon="-1.6061">
        <ele>122</ele>
        <time>2026-03-30T14:53:40.000Z</time>
      </trkpt>
      <trkpt lat="49.50781" lon="-1.60612">
        <ele>122.5</ele>
        <time>2026-03-30T14:53:41.000Z</time>
      </trkpt>
      <trkpt lat="49.50781" lon="-1.60614">
        <ele>122.8</ele>
        <time>2026-03-30T14:53:42.000Z</time>
      </trkpt>
      <trkpt lat="49.50782" lon="-1.60616">
        <ele>123.6</ele>
        <time>2026-03-30T14:53:43.000Z</time>
      </trkpt>
      <trkpt lat="49.50783" lon="-1.60618">
        <ele>124.1</ele>
        <time>2026-03-30T14:53:44.000Z</time>
      </trkpt>
      <trkpt lat="49.50783" lon="-1.6062">
        <ele>124.9</ele>
        <time>2026-03-30T14:53:45.000Z</time>
      </trkpt>
      <trkpt lat="49.50783" lon="-1.60622">
        <ele>124.9</ele>
        <time>2026-03-30T14:53:46.000Z</time>
      </trkpt>
      <trkpt lat="49.50784" lon="-1.60624">
        <ele>125.5</ele>
        <time>2026-03-30T14:53:47.000Z</time>
      </trkpt>
      <trkpt lat="49.50784" lon="-1.60626">
        <ele>125</ele>
        <time>2026-03-30T14:53:48.000Z</time>
      </trkpt>
      <trkpt lat="49.50785" lon="-1.60628">
        <ele>125.7</ele>
        <time>2026-03-30T14:53:49.000Z</time>
      </trkpt>
      <trkpt lat="49.50785" lon="-1.6063">
        <ele>126.5</ele>
        <time>2026-03-30T14:53:50.000Z</time>
      </trkpt>
      <trkpt lat="49.50785" lon="-1.60632">
        <ele>126.4</ele>
        <time>2026-03-30T14:53:51.000Z</time>
      </trkpt>
      <trkpt lat="49.50786" lon="-1.60634">
        <ele>126.3</ele>
        <time>2026-03-30T14:53:52.000Z</time>
      </trkpt>
      <trkpt lat="49.50786" lon="-1.60636">
        <ele>126.2</ele>
        <time>2026-03-30T14:53:53.000Z</time>
      </trkpt>
      <trkpt lat="49.50786" lon="-1.60638">
        <ele>126.1</ele>
        <time>2026-03-30T14:53:54.000Z</time>
      </trkpt>
      <trkpt lat="49.50787" lon="-1.6064">
        <ele>125.9</ele>
        <time>2026-03-30T14:53:55.000Z</time>
      </trkpt>
      <trkpt lat="49.50787" lon="-1.60642">
        <ele>125.4</ele>
        <time>2026-03-30T14:53:56.000Z</time>
      </trkpt>
      <trkpt lat="49.50787" lon="-1.60643">
        <ele>124.9</ele>
        <time>2026-03-30T14:53:57.000Z</time>
      </trkpt>
      <trkpt lat="49.50788" lon="-1.60645">
        <ele>124.6</ele>
        <time>2026-03-30T14:53:58.000Z</time>
      </trkpt>
      <trkpt lat="49.50788" lon="-1.60647">
        <ele>124.2</ele>
        <time>2026-03-30T14:53:59.000Z</time>
      </trkpt>
      <trkpt lat="49.50788" lon="-1.60649">
        <ele>123.7</ele>
        <time>2026-03-30T14:54:00.000Z</time>
      </trkpt>
      <trkpt lat="49.50788" lon="-1.60651">
        <ele>123.7</ele>
        <time>2026-03-30T14:54:01.000Z</time>
      </trkpt>
      <trkpt lat="49.50788" lon="-1.60652">
        <ele>123.5</ele>
        <time>2026-03-30T14:54:02.000Z</time>
      </trkpt>
      <trkpt lat="49.50788" lon="-1.60654">
        <ele>123.2</ele>
        <time>2026-03-30T14:54:03.000Z</time>
      </trkpt>
      <trkpt lat="49.50789" lon="-1.60656">
        <ele>122.6</ele>
        <time>2026-03-30T14:54:04.000Z</time>
      </trkpt>
      <trkpt lat="49.50789" lon="-1.60658">
        <ele>122</ele>
        <time>2026-03-30T14:54:05.000Z</time>
      </trkpt>
      <trkpt lat="49.50789" lon="-1.6066">
        <ele>121.8</ele>
        <time>2026-03-30T14:54:06.000Z</time>
      </trkpt>
      <trkpt lat="49.50789" lon="-1.60663">
        <ele>122</ele>
        <time>2026-03-30T14:54:07.000Z</time>
      </trkpt>
      <trkpt lat="49.5079" lon="-1.60665">
        <ele>122.7</ele>
        <time>2026-03-30T14:54:08.000Z</time>
      </trkpt>
      <trkpt lat="49.5079" lon="-1.60667">
        <ele>123.3</ele>
        <time>2026-03-30T14:54:09.000Z</time>
      </trkpt>
      <trkpt lat="49.5079" lon="-1.60669">
        <ele>123.1</ele>
        <time>2026-03-30T14:54:10.000Z</time>
      </trkpt>
      <trkpt lat="49.50791" lon="-1.60671">
        <ele>123.3</ele>
        <time>2026-03-30T14:54:11.000Z</time>
      </trkpt>
      <trkpt lat="49.50791" lon="-1.60673">
        <ele>123.1</ele>
        <time>2026-03-30T14:54:12.000Z</time>
      </trkpt>
      <trkpt lat="49.50791" lon="-1.60676">
        <ele>123.2</ele>
        <time>2026-03-30T14:54:13.000Z</time>
      </trkpt>
      <trkpt lat="49.50792" lon="-1.60678">
        <ele>123.6</ele>
        <time>2026-03-30T14:54:14.000Z</time>
      </trkpt>
      <trkpt lat="49.50792" lon="-1.6068">
        <ele>123.7</ele>
        <time>2026-03-30T14:54:15.000Z</time>
      </trkpt>
      <trkpt lat="49.50792" lon="-1.60682">
        <ele>123.8</ele>
        <time>2026-03-30T14:54:16.000Z</time>
      </trkpt>
      <trkpt lat="49.50793" lon="-1.60684">
        <ele>123.8</ele>
        <time>2026-03-30T14:54:17.000Z</time>
      </trkpt>
      <trkpt lat="49.50793" lon="-1.60686">
        <ele>124.1</ele>
        <time>2026-03-30T14:54:18.000Z</time>
      </trkpt>
      <trkpt lat="49.50793" lon="-1.60688">
        <ele>124.3</ele>
        <time>2026-03-30T14:54:19.000Z</time>
      </trkpt>
      <trkpt lat="49.50794" lon="-1.6069">
        <ele>123.9</ele>
        <time>2026-03-30T14:54:20.000Z</time>
      </trkpt>
      <trkpt lat="49.50794" lon="-1.60692">
        <ele>124.3</ele>
        <time>2026-03-30T14:54:21.000Z</time>
      </trkpt>
      <trkpt lat="49.50794" lon="-1.60694">
        <ele>124.4</ele>
        <time>2026-03-30T14:54:22.000Z</time>
      </trkpt>
      <trkpt lat="49.50795" lon="-1.60696">
        <ele>124.9</ele>
        <time>2026-03-30T14:54:23.000Z</time>
      </trkpt>
      <trkpt lat="49.50795" lon="-1.60698">
        <ele>124.7</ele>
        <time>2026-03-30T14:54:24.000Z</time>
      </trkpt>
      <trkpt lat="49.50795" lon="-1.607">
        <ele>124.5</ele>
        <time>2026-03-30T14:54:25.000Z</time>
      </trkpt>
      <trkpt lat="49.50795" lon="-1.60703">
        <ele>125.5</ele>
        <time>2026-03-30T14:54:26.000Z</time>
      </trkpt>
      <trkpt lat="49.50796" lon="-1.60705">
        <ele>125.3</ele>
        <time>2026-03-30T14:54:27.000Z</time>
      </trkpt>
      <trkpt lat="49.50796" lon="-1.60706">
        <ele>124.6</ele>
        <time>2026-03-30T14:54:28.000Z</time>
      </trkpt>
      <trkpt lat="49.50796" lon="-1.60708">
        <ele>124.4</ele>
        <time>2026-03-30T14:54:29.000Z</time>
      </trkpt>
      <trkpt lat="49.50797" lon="-1.60711">
        <ele>124.7</ele>
        <time>2026-03-30T14:54:30.000Z</time>
      </trkpt>
      <trkpt lat="49.50797" lon="-1.60713">
        <ele>124.8</ele>
        <time>2026-03-30T14:54:31.000Z</time>
      </trkpt>
      <trkpt lat="49.50797" lon="-1.60715">
        <ele>125.6</ele>
        <time>2026-03-30T14:54:32.000Z</time>
      </trkpt>
      <trkpt lat="49.50798" lon="-1.60717">
        <ele>126</ele>
        <time>2026-03-30T14:54:33.000Z</time>
      </trkpt>
      <trkpt lat="49.50798" lon="-1.60719">
        <ele>126</ele>
        <time>2026-03-30T14:54:34.000Z</time>
      </trkpt>
      <trkpt lat="49.50798" lon="-1.60721">
        <ele>126</ele>
        <time>2026-03-30T14:54:35.000Z</time>
      </trkpt>
      <trkpt lat="49.50799" lon="-1.60723">
        <ele>126.3</ele>
        <time>2026-03-30T14:54:36.000Z</time>
      </trkpt>
      <trkpt lat="49.50799" lon="-1.60725">
        <ele>126.7</ele>
        <time>2026-03-30T14:54:37.000Z</time>
      </trkpt>
      <trkpt lat="49.508" lon="-1.60727">
        <ele>127.4</ele>
        <time>2026-03-30T14:54:38.000Z</time>
      </trkpt>
      <trkpt lat="49.508" lon="-1.60728">
        <ele>125.3</ele>
        <time>2026-03-30T14:54:39.000Z</time>
      </trkpt>
      <trkpt lat="49.508" lon="-1.60731">
        <ele>126.3</ele>
        <time>2026-03-30T14:54:40.000Z</time>
      </trkpt>
      <trkpt lat="49.508" lon="-1.60733">
        <ele>126.9</ele>
        <time>2026-03-30T14:54:41.000Z</time>
      </trkpt>
      <trkpt lat="49.50799" lon="-1.60735">
        <ele>127.2</ele>
        <time>2026-03-30T14:54:42.000Z</time>
      </trkpt>
      <trkpt lat="49.50799" lon="-1.60737">
        <ele>127.5</ele>
        <time>2026-03-30T14:54:43.000Z</time>
      </trkpt>
      <trkpt lat="49.50799" lon="-1.60739">
        <ele>126.9</ele>
        <time>2026-03-30T14:54:44.000Z</time>
      </trkpt>
      <trkpt lat="49.50799" lon="-1.60741">
        <ele>127.3</ele>
        <time>2026-03-30T14:54:45.000Z</time>
      </trkpt>
      <trkpt lat="49.50798" lon="-1.60743">
        <ele>127.2</ele>
        <time>2026-03-30T14:54:46.000Z</time>
      </trkpt>
      <trkpt lat="49.50798" lon="-1.60745">
        <ele>127.7</ele>
        <time>2026-03-30T14:54:47.000Z</time>
      </trkpt>
      <trkpt lat="49.50797" lon="-1.60747">
        <ele>128.2</ele>
        <time>2026-03-30T14:54:48.000Z</time>
      </trkpt>
      <trkpt lat="49.50796" lon="-1.60749">
        <ele>128.6</ele>
        <time>2026-03-30T14:54:49.000Z</time>
      </trkpt>
      <trkpt lat="49.50795" lon="-1.6075">
        <ele>127.3</ele>
        <time>2026-03-30T14:54:50.000Z</time>
      </trkpt>
      <trkpt lat="49.50794" lon="-1.60752">
        <ele>127</ele>
        <time>2026-03-30T14:54:51.000Z</time>
      </trkpt>
      <trkpt lat="49.50793" lon="-1.60754">
        <ele>126.8</ele>
        <time>2026-03-30T14:54:52.000Z</time>
      </trkpt>
      <trkpt lat="49.50792" lon="-1.60755">
        <ele>126.8</ele>
        <time>2026-03-30T14:54:53.000Z</time>
      </trkpt>
      <trkpt lat="49.50791" lon="-1.60756">
        <ele>126.5</ele>
        <time>2026-03-30T14:54:54.000Z</time>
      </trkpt>
      <trkpt lat="49.50791" lon="-1.60757">
        <ele>126.2</ele>
        <time>2026-03-30T14:54:55.000Z</time>
      </trkpt>
      <trkpt lat="49.5079" lon="-1.60758">
        <ele>125.3</ele>
        <time>2026-03-30T14:54:56.000Z</time>
      </trkpt>
      <trkpt lat="49.50789" lon="-1.60759">
        <ele>124.7</ele>
        <time>2026-03-30T14:54:57.000Z</time>
      </trkpt>
      <trkpt lat="49.50788" lon="-1.60761">
        <ele>124.7</ele>
        <time>2026-03-30T14:54:58.000Z</time>
      </trkpt>
      <trkpt lat="49.50787" lon="-1.60762">
        <ele>124.6</ele>
        <time>2026-03-30T14:54:59.000Z</time>
      </trkpt>
      <trkpt lat="49.50786" lon="-1.60763">
        <ele>124</ele>
        <time>2026-03-30T14:55:00.000Z</time>
      </trkpt>
      <trkpt lat="49.50785" lon="-1.60764">
        <ele>123.4</ele>
        <time>2026-03-30T14:55:01.000Z</time>
      </trkpt>
      <trkpt lat="49.50784" lon="-1.60766">
        <ele>123.1</ele>
        <time>2026-03-30T14:55:02.000Z</time>
      </trkpt>
      <trkpt lat="49.50783" lon="-1.60767">
        <ele>123.2</ele>
        <time>2026-03-30T14:55:03.000Z</time>
      </trkpt>
      <trkpt lat="49.50782" lon="-1.60768">
        <ele>123.6</ele>
        <time>2026-03-30T14:55:04.000Z</time>
      </trkpt>
      <trkpt lat="49.5078" lon="-1.60768">
        <ele>123.3</ele>
        <time>2026-03-30T14:55:05.000Z</time>
      </trkpt>
      <trkpt lat="49.50779" lon="-1.60769">
        <ele>123.3</ele>
        <time>2026-03-30T14:55:06.000Z</time>
      </trkpt>
      <trkpt lat="49.50777" lon="-1.6077">
        <ele>122.7</ele>
        <time>2026-03-30T14:55:07.000Z</time>
      </trkpt>
      <trkpt lat="49.50776" lon="-1.60771">
        <ele>122.3</ele>
        <time>2026-03-30T14:55:08.000Z</time>
      </trkpt>
      <trkpt lat="49.50774" lon="-1.60772">
        <ele>122</ele>
        <time>2026-03-30T14:55:09.000Z</time>
      </trkpt>
      <trkpt lat="49.50773" lon="-1.60773">
        <ele>121.4</ele>
        <time>2026-03-30T14:55:10.000Z</time>
      </trkpt>
      <trkpt lat="49.50771" lon="-1.60774">
        <ele>121.2</ele>
        <time>2026-03-30T14:55:11.000Z</time>
      </trkpt>
      <trkpt lat="49.5077" lon="-1.60775">
        <ele>121.7</ele>
        <time>2026-03-30T14:55:12.000Z</time>
      </trkpt>
      <trkpt lat="49.50769" lon="-1.60776">
        <ele>121.2</ele>
        <time>2026-03-30T14:55:13.000Z</time>
      </trkpt>
      <trkpt lat="49.50767" lon="-1.60777">
        <ele>121.4</ele>
        <time>2026-03-30T14:55:14.000Z</time>
      </trkpt>
      <trkpt lat="49.50766" lon="-1.60778">
        <ele>121</ele>
        <time>2026-03-30T14:55:15.000Z</time>
      </trkpt>
      <trkpt lat="49.50765" lon="-1.60779">
        <ele>120.4</ele>
        <time>2026-03-30T14:55:16.000Z</time>
      </trkpt>
      <trkpt lat="49.50763" lon="-1.6078">
        <ele>120.1</ele>
        <time>2026-03-30T14:55:17.000Z</time>
      </trkpt>
      <trkpt lat="49.50762" lon="-1.60781">
        <ele>119.9</ele>
        <time>2026-03-30T14:55:18.000Z</time>
      </trkpt>
      <trkpt lat="49.5076" lon="-1.60782">
        <ele>119.7</ele>
        <time>2026-03-30T14:55:19.000Z</time>
      </trkpt>
      <trkpt lat="49.50759" lon="-1.60783">
        <ele>119.7</ele>
        <time>2026-03-30T14:55:20.000Z</time>
      </trkpt>
      <trkpt lat="49.50757" lon="-1.60783">
        <ele>119.2</ele>
        <time>2026-03-30T14:55:21.000Z</time>
      </trkpt>
      <trkpt lat="49.50756" lon="-1.60784">
        <ele>119.2</ele>
        <time>2026-03-30T14:55:22.000Z</time>
      </trkpt>
      <trkpt lat="49.50754" lon="-1.60785">
        <ele>119.9</ele>
        <time>2026-03-30T14:55:23.000Z</time>
      </trkpt>
      <trkpt lat="49.50753" lon="-1.60786">
        <ele>119.8</ele>
        <time>2026-03-30T14:55:24.000Z</time>
      </trkpt>
      <trkpt lat="49.50752" lon="-1.60787">
        <ele>119.6</ele>
        <time>2026-03-30T14:55:25.000Z</time>
      </trkpt>
      <trkpt lat="49.5075" lon="-1.60788">
        <ele>119.4</ele>
        <time>2026-03-30T14:55:26.000Z</time>
      </trkpt>
      <trkpt lat="49.50749" lon="-1.60789">
        <ele>119.3</ele>
        <time>2026-03-30T14:55:27.000Z</time>
      </trkpt>
      <trkpt lat="49.50747" lon="-1.60789">
        <ele>118.6</ele>
        <time>2026-03-30T14:55:28.000Z</time>
      </trkpt>
      <trkpt lat="49.50746" lon="-1.6079">
        <ele>118.2</ele>
        <time>2026-03-30T14:55:29.000Z</time>
      </trkpt>
      <trkpt lat="49.50744" lon="-1.60791">
        <ele>117.8</ele>
        <time>2026-03-30T14:55:30.000Z</time>
      </trkpt>
      <trkpt lat="49.50743" lon="-1.60793">
        <ele>117.7</ele>
        <time>2026-03-30T14:55:31.000Z</time>
      </trkpt>
      <trkpt lat="49.50742" lon="-1.60795">
        <ele>117.8</ele>
        <time>2026-03-30T14:55:32.000Z</time>
      </trkpt>
      <trkpt lat="49.50741" lon="-1.60796">
        <ele>117.4</ele>
        <time>2026-03-30T14:55:33.000Z</time>
      </trkpt>
      <trkpt lat="49.50739" lon="-1.60797">
        <ele>116.8</ele>
        <time>2026-03-30T14:55:34.000Z</time>
      </trkpt>
      <trkpt lat="49.50738" lon="-1.60798">
        <ele>116.4</ele>
        <time>2026-03-30T14:55:35.000Z</time>
      </trkpt>
      <trkpt lat="49.50737" lon="-1.60799">
        <ele>116.2</ele>
        <time>2026-03-30T14:55:36.000Z</time>
      </trkpt>
      <trkpt lat="49.50735" lon="-1.608">
        <ele>116.2</ele>
        <time>2026-03-30T14:55:37.000Z</time>
      </trkpt>
      <trkpt lat="49.50734" lon="-1.608">
        <ele>116.5</ele>
        <time>2026-03-30T14:55:38.000Z</time>
      </trkpt>
      <trkpt lat="49.50733" lon="-1.60802">
        <ele>116.6</ele>
        <time>2026-03-30T14:55:39.000Z</time>
      </trkpt>
      <trkpt lat="49.50732" lon="-1.60804">
        <ele>116.7</ele>
        <time>2026-03-30T14:55:40.000Z</time>
      </trkpt>
      <trkpt lat="49.5073" lon="-1.60806">
        <ele>116.3</ele>
        <time>2026-03-30T14:55:41.000Z</time>
      </trkpt>
      <trkpt lat="49.50729" lon="-1.60807">
        <ele>116.1</ele>
        <time>2026-03-30T14:55:42.000Z</time>
      </trkpt>
      <trkpt lat="49.50728" lon="-1.60809">
        <ele>115.4</ele>
        <time>2026-03-30T14:55:43.000Z</time>
      </trkpt>
      <trkpt lat="49.50727" lon="-1.6081">
        <ele>114.9</ele>
        <time>2026-03-30T14:55:44.000Z</time>
      </trkpt>
      <trkpt lat="49.50726" lon="-1.60812">
        <ele>115</ele>
        <time>2026-03-30T14:55:45.000Z</time>
      </trkpt>
      <trkpt lat="49.50725" lon="-1.60813">
        <ele>114.7</ele>
        <time>2026-03-30T14:55:46.000Z</time>
      </trkpt>
      <trkpt lat="49.50724" lon="-1.60815">
        <ele>114.8</ele>
        <time>2026-03-30T14:55:47.000Z</time>
      </trkpt>
      <trkpt lat="49.50722" lon="-1.60816">
        <ele>115.3</ele>
        <time>2026-03-30T14:55:48.000Z</time>
      </trkpt>
      <trkpt lat="49.50721" lon="-1.60818">
        <ele>115.1</ele>
        <time>2026-03-30T14:55:49.000Z</time>
      </trkpt>
      <trkpt lat="49.5072" lon="-1.60819">
        <ele>115.1</ele>
        <time>2026-03-30T14:55:50.000Z</time>
      </trkpt>
      <trkpt lat="49.50718" lon="-1.6082">
        <ele>114.8</ele>
        <time>2026-03-30T14:55:51.000Z</time>
      </trkpt>
      <trkpt lat="49.50717" lon="-1.60822">
        <ele>115.2</ele>
        <time>2026-03-30T14:55:52.000Z</time>
      </trkpt>
      <trkpt lat="49.50716" lon="-1.60824">
        <ele>115.7</ele>
        <time>2026-03-30T14:55:53.000Z</time>
      </trkpt>
      <trkpt lat="49.50715" lon="-1.60826">
        <ele>116</ele>
        <time>2026-03-30T14:55:54.000Z</time>
      </trkpt>
      <trkpt lat="49.50714" lon="-1.60828">
        <ele>116</ele>
        <time>2026-03-30T14:55:55.000Z</time>
      </trkpt>
      <trkpt lat="49.50713" lon="-1.6083">
        <ele>117</ele>
        <time>2026-03-30T14:55:56.000Z</time>
      </trkpt>
      <trkpt lat="49.50711" lon="-1.60831">
        <ele>115.6</ele>
        <time>2026-03-30T14:55:57.000Z</time>
      </trkpt>
      <trkpt lat="49.5071" lon="-1.60832">
        <ele>114.8</ele>
        <time>2026-03-30T14:55:58.000Z</time>
      </trkpt>
      <trkpt lat="49.50709" lon="-1.60834">
        <ele>114.4</ele>
        <time>2026-03-30T14:55:59.000Z</time>
      </trkpt>
      <trkpt lat="49.50708" lon="-1.60835">
        <ele>113.9</ele>
        <time>2026-03-30T14:56:00.000Z</time>
      </trkpt>
      <trkpt lat="49.50706" lon="-1.60836">
        <ele>113.3</ele>
        <time>2026-03-30T14:56:01.000Z</time>
      </trkpt>
      <trkpt lat="49.50705" lon="-1.60837">
        <ele>112.9</ele>
        <time>2026-03-30T14:56:02.000Z</time>
      </trkpt>
      <trkpt lat="49.50704" lon="-1.60839">
        <ele>112.6</ele>
        <time>2026-03-30T14:56:03.000Z</time>
      </trkpt>
      <trkpt lat="49.50703" lon="-1.6084">
        <ele>112.3</ele>
        <time>2026-03-30T14:56:04.000Z</time>
      </trkpt>
      <trkpt lat="49.50701" lon="-1.60842">
        <ele>112</ele>
        <time>2026-03-30T14:56:05.000Z</time>
      </trkpt>
      <trkpt lat="49.507" lon="-1.60843">
        <ele>112.4</ele>
        <time>2026-03-30T14:56:06.000Z</time>
      </trkpt>
      <trkpt lat="49.50699" lon="-1.60844">
        <ele>112.3</ele>
        <time>2026-03-30T14:56:07.000Z</time>
      </trkpt>
      <trkpt lat="49.50698" lon="-1.60845">
        <ele>112.5</ele>
        <time>2026-03-30T14:56:08.000Z</time>
      </trkpt>
      <trkpt lat="49.50697" lon="-1.60846">
        <ele>112.5</ele>
        <time>2026-03-30T14:56:09.000Z</time>
      </trkpt>
      <trkpt lat="49.50695" lon="-1.60848">
        <ele>113.1</ele>
        <time>2026-03-30T14:56:10.000Z</time>
      </trkpt>
      <trkpt lat="49.50694" lon="-1.60849">
        <ele>113.7</ele>
        <time>2026-03-30T14:56:11.000Z</time>
      </trkpt>
      <trkpt lat="49.50693" lon="-1.6085">
        <ele>113.9</ele>
        <time>2026-03-30T14:56:12.000Z</time>
      </trkpt>
      <trkpt lat="49.50691" lon="-1.60851">
        <ele>113.3</ele>
        <time>2026-03-30T14:56:13.000Z</time>
      </trkpt>
      <trkpt lat="49.5069" lon="-1.60852">
        <ele>113.1</ele>
        <time>2026-03-30T14:56:14.000Z</time>
      </trkpt>
      <trkpt lat="49.50689" lon="-1.60853">
        <ele>113</ele>
        <time>2026-03-30T14:56:15.000Z</time>
      </trkpt>
      <trkpt lat="49.50688" lon="-1.60854">
        <ele>112.8</ele>
        <time>2026-03-30T14:56:16.000Z</time>
      </trkpt>
      <trkpt lat="49.50686" lon="-1.60855">
        <ele>113.1</ele>
        <time>2026-03-30T14:56:17.000Z</time>
      </trkpt>
      <trkpt lat="49.50685" lon="-1.60856">
        <ele>113.1</ele>
        <time>2026-03-30T14:56:18.000Z</time>
      </trkpt>
      <trkpt lat="49.50684" lon="-1.60856">
        <ele>112.7</ele>
        <time>2026-03-30T14:56:19.000Z</time>
      </trkpt>
      <trkpt lat="49.50682" lon="-1.60857">
        <ele>112.1</ele>
        <time>2026-03-30T14:56:20.000Z</time>
      </trkpt>
      <trkpt lat="49.50681" lon="-1.60859">
        <ele>112.6</ele>
        <time>2026-03-30T14:56:21.000Z</time>
      </trkpt>
      <trkpt lat="49.5068" lon="-1.6086">
        <ele>112.9</ele>
        <time>2026-03-30T14:56:22.000Z</time>
      </trkpt>
      <trkpt lat="49.50679" lon="-1.60862">
        <ele>112.8</ele>
        <time>2026-03-30T14:56:23.000Z</time>
      </trkpt>
      <trkpt lat="49.50678" lon="-1.60863">
        <ele>113.6</ele>
        <time>2026-03-30T14:56:24.000Z</time>
      </trkpt>
      <trkpt lat="49.50677" lon="-1.60865">
        <ele>114.3</ele>
        <time>2026-03-30T14:56:25.000Z</time>
      </trkpt>
      <trkpt lat="49.50676" lon="-1.60867">
        <ele>114.5</ele>
        <time>2026-03-30T14:56:26.000Z</time>
      </trkpt>
      <trkpt lat="49.50675" lon="-1.60868">
        <ele>114.6</ele>
        <time>2026-03-30T14:56:27.000Z</time>
      </trkpt>
      <trkpt lat="49.50675" lon="-1.60869">
        <ele>115.4</ele>
        <time>2026-03-30T14:56:28.000Z</time>
      </trkpt>
      <trkpt lat="49.50674" lon="-1.6087">
        <ele>114.9</ele>
        <time>2026-03-30T14:56:29.000Z</time>
      </trkpt>
      <trkpt lat="49.50672" lon="-1.60872">
        <ele>115</ele>
        <time>2026-03-30T14:56:30.000Z</time>
      </trkpt>
      <trkpt lat="49.50671" lon="-1.60873">
        <ele>115.3</ele>
        <time>2026-03-30T14:56:31.000Z</time>
      </trkpt>
      <trkpt lat="49.5067" lon="-1.60875">
        <ele>115.7</ele>
        <time>2026-03-30T14:56:32.000Z</time>
      </trkpt>
      <trkpt lat="49.50669" lon="-1.60876">
        <ele>116.3</ele>
        <time>2026-03-30T14:56:33.000Z</time>
      </trkpt>
      <trkpt lat="49.50668" lon="-1.60878">
        <ele>116.7</ele>
        <time>2026-03-30T14:56:34.000Z</time>
      </trkpt>
      <trkpt lat="49.50667" lon="-1.60879">
        <ele>116.8</ele>
        <time>2026-03-30T14:56:35.000Z</time>
      </trkpt>
      <trkpt lat="49.50666" lon="-1.60881">
        <ele>116.4</ele>
        <time>2026-03-30T14:56:36.000Z</time>
      </trkpt>
      <trkpt lat="49.50664" lon="-1.60882">
        <ele>115.4</ele>
        <time>2026-03-30T14:56:37.000Z</time>
      </trkpt>
      <trkpt lat="49.50663" lon="-1.60883">
        <ele>115.5</ele>
        <time>2026-03-30T14:56:38.000Z</time>
      </trkpt>
      <trkpt lat="49.50662" lon="-1.60884">
        <ele>115.3</ele>
        <time>2026-03-30T14:56:39.000Z</time>
      </trkpt>
      <trkpt lat="49.50661" lon="-1.60885">
        <ele>114</ele>
        <time>2026-03-30T14:56:40.000Z</time>
      </trkpt>
      <trkpt lat="49.5066" lon="-1.60887">
        <ele>112.5</ele>
        <time>2026-03-30T14:56:41.000Z</time>
      </trkpt>
      <trkpt lat="49.50659" lon="-1.60888">
        <ele>112.6</ele>
        <time>2026-03-30T14:56:42.000Z</time>
      </trkpt>
      <trkpt lat="49.50657" lon="-1.60889">
        <ele>113</ele>
        <time>2026-03-30T14:56:43.000Z</time>
      </trkpt>
      <trkpt lat="49.50656" lon="-1.60891">
        <ele>112.3</ele>
        <time>2026-03-30T14:56:44.000Z</time>
      </trkpt>
      <trkpt lat="49.50655" lon="-1.60892">
        <ele>111.7</ele>
        <time>2026-03-30T14:56:45.000Z</time>
      </trkpt>
      <trkpt lat="49.50654" lon="-1.60893">
        <ele>111</ele>
        <time>2026-03-30T14:56:46.000Z</time>
      </trkpt>
      <trkpt lat="49.50653" lon="-1.60895">
        <ele>110.8</ele>
        <time>2026-03-30T14:56:47.000Z</time>
      </trkpt>
      <trkpt lat="49.50652" lon="-1.60896">
        <ele>110.1</ele>
        <time>2026-03-30T14:56:48.000Z</time>
      </trkpt>
      <trkpt lat="49.5065" lon="-1.60897">
        <ele>109.8</ele>
        <time>2026-03-30T14:56:49.000Z</time>
      </trkpt>
      <trkpt lat="49.50649" lon="-1.60898">
        <ele>110</ele>
        <time>2026-03-30T14:56:50.000Z</time>
      </trkpt>
      <trkpt lat="49.50648" lon="-1.60899">
        <ele>110.2</ele>
        <time>2026-03-30T14:56:51.000Z</time>
      </trkpt>
      <trkpt lat="49.50647" lon="-1.60901">
        <ele>110</ele>
        <time>2026-03-30T14:56:52.000Z</time>
      </trkpt>
      <trkpt lat="49.50646" lon="-1.60902">
        <ele>109.3</ele>
        <time>2026-03-30T14:56:53.000Z</time>
      </trkpt>
      <trkpt lat="49.50645" lon="-1.60903">
        <ele>109.2</ele>
        <time>2026-03-30T14:56:54.000Z</time>
      </trkpt>
      <trkpt lat="49.50643" lon="-1.60904">
        <ele>109.2</ele>
        <time>2026-03-30T14:56:55.000Z</time>
      </trkpt>
      <trkpt lat="49.50642" lon="-1.60906">
        <ele>109.4</ele>
        <time>2026-03-30T14:56:56.000Z</time>
      </trkpt>
      <trkpt lat="49.50641" lon="-1.60907">
        <ele>109.1</ele>
        <time>2026-03-30T14:56:57.000Z</time>
      </trkpt>
      <trkpt lat="49.5064" lon="-1.60908">
        <ele>108.6</ele>
        <time>2026-03-30T14:56:58.000Z</time>
      </trkpt>
      <trkpt lat="49.50639" lon="-1.6091">
        <ele>108.4</ele>
        <time>2026-03-30T14:56:59.000Z</time>
      </trkpt>
      <trkpt lat="49.50638" lon="-1.60911">
        <ele>108.8</ele>
        <time>2026-03-30T14:57:00.000Z</time>
      </trkpt>
      <trkpt lat="49.50637" lon="-1.60913">
        <ele>109.1</ele>
        <time>2026-03-30T14:57:01.000Z</time>
      </trkpt>
      <trkpt lat="49.50635" lon="-1.60914">
        <ele>109</ele>
        <time>2026-03-30T14:57:02.000Z</time>
      </trkpt>
      <trkpt lat="49.50634" lon="-1.60914">
        <ele>109.2</ele>
        <time>2026-03-30T14:57:03.000Z</time>
      </trkpt>
      <trkpt lat="49.50633" lon="-1.60915">
        <ele>108.8</ele>
        <time>2026-03-30T14:57:04.000Z</time>
      </trkpt>
      <trkpt lat="49.50631" lon="-1.60916">
        <ele>108.7</ele>
        <time>2026-03-30T14:57:05.000Z</time>
      </trkpt>
      <trkpt lat="49.5063" lon="-1.60917">
        <ele>108.8</ele>
        <time>2026-03-30T14:57:06.000Z</time>
      </trkpt>
      <trkpt lat="49.50629" lon="-1.60918">
        <ele>108.5</ele>
        <time>2026-03-30T14:57:07.000Z</time>
      </trkpt>
      <trkpt lat="49.50628" lon="-1.60919">
        <ele>108.4</ele>
        <time>2026-03-30T14:57:08.000Z</time>
      </trkpt>
      <trkpt lat="49.50626" lon="-1.6092">
        <ele>108.3</ele>
        <time>2026-03-30T14:57:09.000Z</time>
      </trkpt>
      <trkpt lat="49.50625" lon="-1.60922">
        <ele>108.8</ele>
        <time>2026-03-30T14:57:10.000Z</time>
      </trkpt>
      <trkpt lat="49.50624" lon="-1.60923">
        <ele>109.3</ele>
        <time>2026-03-30T14:57:11.000Z</time>
      </trkpt>
      <trkpt lat="49.50623" lon="-1.60924">
        <ele>109.5</ele>
        <time>2026-03-30T14:57:12.000Z</time>
      </trkpt>
      <trkpt lat="49.50622" lon="-1.60925">
        <ele>109.9</ele>
        <time>2026-03-30T14:57:13.000Z</time>
      </trkpt>
      <trkpt lat="49.50621" lon="-1.60927">
        <ele>109.9</ele>
        <time>2026-03-30T14:57:14.000Z</time>
      </trkpt>
      <trkpt lat="49.50619" lon="-1.60928">
        <ele>109.9</ele>
        <time>2026-03-30T14:57:15.000Z</time>
      </trkpt>
      <trkpt lat="49.50618" lon="-1.60929">
        <ele>110</ele>
        <time>2026-03-30T14:57:16.000Z</time>
      </trkpt>
      <trkpt lat="49.50617" lon="-1.6093">
        <ele>110.2</ele>
        <time>2026-03-30T14:57:17.000Z</time>
      </trkpt>
      <trkpt lat="49.50615" lon="-1.60931">
        <ele>110.7</ele>
        <time>2026-03-30T14:57:18.000Z</time>
      </trkpt>
      <trkpt lat="49.50614" lon="-1.60932">
        <ele>111.3</ele>
        <time>2026-03-30T14:57:19.000Z</time>
      </trkpt>
      <trkpt lat="49.50613" lon="-1.60933">
        <ele>113.3</ele>
        <time>2026-03-30T14:57:20.000Z</time>
      </trkpt>
      <trkpt lat="49.50611" lon="-1.60934">
        <ele>113.9</ele>
        <time>2026-03-30T14:57:21.000Z</time>
      </trkpt>
      <trkpt lat="49.5061" lon="-1.60935">
        <ele>113.8</ele>
        <time>2026-03-30T14:57:22.000Z</time>
      </trkpt>
      <trkpt lat="49.50609" lon="-1.60936">
        <ele>114</ele>
        <time>2026-03-30T14:57:23.000Z</time>
      </trkpt>
      <trkpt lat="49.50608" lon="-1.60937">
        <ele>113.3</ele>
        <time>2026-03-30T14:57:24.000Z</time>
      </trkpt>
      <trkpt lat="49.50606" lon="-1.60938">
        <ele>112.8</ele>
        <time>2026-03-30T14:57:25.000Z</time>
      </trkpt>
      <trkpt lat="49.50605" lon="-1.60939">
        <ele>112.8</ele>
        <time>2026-03-30T14:57:26.000Z</time>
      </trkpt>
      <trkpt lat="49.50604" lon="-1.6094">
        <ele>112.4</ele>
        <time>2026-03-30T14:57:27.000Z</time>
      </trkpt>
      <trkpt lat="49.50602" lon="-1.60941">
        <ele>111.9</ele>
        <time>2026-03-30T14:57:28.000Z</time>
      </trkpt>
      <trkpt lat="49.50601" lon="-1.60941">
        <ele>111.3</ele>
        <time>2026-03-30T14:57:29.000Z</time>
      </trkpt>
      <trkpt lat="49.50599" lon="-1.60942">
        <ele>110.8</ele>
        <time>2026-03-30T14:57:30.000Z</time>
      </trkpt>
      <trkpt lat="49.50598" lon="-1.60942">
        <ele>110.6</ele>
        <time>2026-03-30T14:57:31.000Z</time>
      </trkpt>
      <trkpt lat="49.50596" lon="-1.60942">
        <ele>110.2</ele>
        <time>2026-03-30T14:57:32.000Z</time>
      </trkpt>
      <trkpt lat="49.50595" lon="-1.60942">
        <ele>110.1</ele>
        <time>2026-03-30T14:57:33.000Z</time>
      </trkpt>
      <trkpt lat="49.50594" lon="-1.60943">
        <ele>110.4</ele>
        <time>2026-03-30T14:57:34.000Z</time>
      </trkpt>
      <trkpt lat="49.50592" lon="-1.60943">
        <ele>111.1</ele>
        <time>2026-03-30T14:57:35.000Z</time>
      </trkpt>
      <trkpt lat="49.50591" lon="-1.60943">
        <ele>111.1</ele>
        <time>2026-03-30T14:57:36.000Z</time>
      </trkpt>
      <trkpt lat="49.50589" lon="-1.60943">
        <ele>111.7</ele>
        <time>2026-03-30T14:57:37.000Z</time>
      </trkpt>
      <trkpt lat="49.50588" lon="-1.60943">
        <ele>111.9</ele>
        <time>2026-03-30T14:57:38.000Z</time>
      </trkpt>
      <trkpt lat="49.50587" lon="-1.60943">
        <ele>111.9</ele>
        <time>2026-03-30T14:57:39.000Z</time>
      </trkpt>
      <trkpt lat="49.50585" lon="-1.60943">
        <ele>111.7</ele>
        <time>2026-03-30T14:57:40.000Z</time>
      </trkpt>
      <trkpt lat="49.50584" lon="-1.60943">
        <ele>111.8</ele>
        <time>2026-03-30T14:57:41.000Z</time>
      </trkpt>
      <trkpt lat="49.50582" lon="-1.60943">
        <ele>112.1</ele>
        <time>2026-03-30T14:57:42.000Z</time>
      </trkpt>
      <trkpt lat="49.50581" lon="-1.60943">
        <ele>111.7</ele>
        <time>2026-03-30T14:57:43.000Z</time>
      </trkpt>
      <trkpt lat="49.5058" lon="-1.60942">
        <ele>112</ele>
        <time>2026-03-30T14:57:44.000Z</time>
      </trkpt>
      <trkpt lat="49.50578" lon="-1.60942">
        <ele>112.8</ele>
        <time>2026-03-30T14:57:45.000Z</time>
      </trkpt>
      <trkpt lat="49.50577" lon="-1.60942">
        <ele>113.1</ele>
        <time>2026-03-30T14:57:46.000Z</time>
      </trkpt>
      <trkpt lat="49.50575" lon="-1.60942">
        <ele>113.1</ele>
        <time>2026-03-30T14:57:47.000Z</time>
      </trkpt>
      <trkpt lat="49.50574" lon="-1.60942">
        <ele>113.6</ele>
        <time>2026-03-30T14:57:48.000Z</time>
      </trkpt>
      <trkpt lat="49.50573" lon="-1.60942">
        <ele>113.4</ele>
        <time>2026-03-30T14:57:49.000Z</time>
      </trkpt>
      <trkpt lat="49.50571" lon="-1.60942">
        <ele>113.9</ele>
        <time>2026-03-30T14:57:50.000Z</time>
      </trkpt>
      <trkpt lat="49.5057" lon="-1.60942">
        <ele>114.5</ele>
        <time>2026-03-30T14:57:51.000Z</time>
      </trkpt>
      <trkpt lat="49.50568" lon="-1.60943">
        <ele>115.2</ele>
        <time>2026-03-30T14:57:52.000Z</time>
      </trkpt>
      <trkpt lat="49.50567" lon="-1.60943">
        <ele>115.2</ele>
        <time>2026-03-30T14:57:53.000Z</time>
      </trkpt>
      <trkpt lat="49.50565" lon="-1.60943">
        <ele>115.3</ele>
        <time>2026-03-30T14:57:54.000Z</time>
      </trkpt>
      <trkpt lat="49.50564" lon="-1.60943">
        <ele>116</ele>
        <time>2026-03-30T14:57:55.000Z</time>
      </trkpt>
      <trkpt lat="49.50562" lon="-1.60943">
        <ele>116.1</ele>
        <time>2026-03-30T14:57:56.000Z</time>
      </trkpt>
      <trkpt lat="49.50561" lon="-1.60943">
        <ele>116.1</ele>
        <time>2026-03-30T14:57:57.000Z</time>
      </trkpt>
      <trkpt lat="49.50559" lon="-1.60943">
        <ele>117.1</ele>
        <time>2026-03-30T14:57:58.000Z</time>
      </trkpt>
      <trkpt lat="49.50557" lon="-1.60944">
        <ele>117</ele>
        <time>2026-03-30T14:57:59.000Z</time>
      </trkpt>
      <trkpt lat="49.50556" lon="-1.60944">
        <ele>117.1</ele>
        <time>2026-03-30T14:58:00.000Z</time>
      </trkpt>
      <trkpt lat="49.50555" lon="-1.60944">
        <ele>117.3</ele>
        <time>2026-03-30T14:58:01.000Z</time>
      </trkpt>
      <trkpt lat="49.50553" lon="-1.60944">
        <ele>118</ele>
        <time>2026-03-30T14:58:02.000Z</time>
      </trkpt>
      <trkpt lat="49.50552" lon="-1.60944">
        <ele>118.1</ele>
        <time>2026-03-30T14:58:03.000Z</time>
      </trkpt>
      <trkpt lat="49.50551" lon="-1.60944">
        <ele>118.4</ele>
        <time>2026-03-30T14:58:04.000Z</time>
      </trkpt>
      <trkpt lat="49.50549" lon="-1.60944">
        <ele>118.8</ele>
        <time>2026-03-30T14:58:05.000Z</time>
      </trkpt>
      <trkpt lat="49.50548" lon="-1.60944">
        <ele>119.3</ele>
        <time>2026-03-30T14:58:06.000Z</time>
      </trkpt>
      <trkpt lat="49.50546" lon="-1.60943">
        <ele>119</ele>
        <time>2026-03-30T14:58:07.000Z</time>
      </trkpt>
      <trkpt lat="49.50545" lon="-1.60943">
        <ele>119.9</ele>
        <time>2026-03-30T14:58:08.000Z</time>
      </trkpt>
      <trkpt lat="49.50543" lon="-1.60943">
        <ele>119.3</ele>
        <time>2026-03-30T14:58:09.000Z</time>
      </trkpt>
      <trkpt lat="49.50542" lon="-1.60943">
        <ele>119.9</ele>
        <time>2026-03-30T14:58:10.000Z</time>
      </trkpt>
      <trkpt lat="49.5054" lon="-1.60942">
        <ele>120.1</ele>
        <time>2026-03-30T14:58:11.000Z</time>
      </trkpt>
      <trkpt lat="49.50539" lon="-1.60942">
        <ele>120.6</ele>
        <time>2026-03-30T14:58:12.000Z</time>
      </trkpt>
      <trkpt lat="49.50537" lon="-1.60941">
        <ele>121</ele>
        <time>2026-03-30T14:58:13.000Z</time>
      </trkpt>
      <trkpt lat="49.50536" lon="-1.6094">
        <ele>122</ele>
        <time>2026-03-30T14:58:14.000Z</time>
      </trkpt>
      <trkpt lat="49.50535" lon="-1.6094">
        <ele>121.6</ele>
        <time>2026-03-30T14:58:15.000Z</time>
      </trkpt>
      <trkpt lat="49.50534" lon="-1.60942">
        <ele>121.3</ele>
        <time>2026-03-30T14:58:16.000Z</time>
      </trkpt>
      <trkpt lat="49.50533" lon="-1.60944">
        <ele>120.8</ele>
        <time>2026-03-30T14:58:17.000Z</time>
      </trkpt>
      <trkpt lat="49.50533" lon="-1.60946">
        <ele>120.3</ele>
        <time>2026-03-30T14:58:18.000Z</time>
      </trkpt>
      <trkpt lat="49.50534" lon="-1.60948">
        <ele>120.1</ele>
        <time>2026-03-30T14:58:19.000Z</time>
      </trkpt>
      <trkpt lat="49.50535" lon="-1.60949">
        <ele>119.5</ele>
        <time>2026-03-30T14:58:20.000Z</time>
      </trkpt>
      <trkpt lat="49.50535" lon="-1.60951">
        <ele>118.6</ele>
        <time>2026-03-30T14:58:21.000Z</time>
      </trkpt>
      <trkpt lat="49.50536" lon="-1.60952">
        <ele>119.1</ele>
        <time>2026-03-30T14:58:22.000Z</time>
      </trkpt>
      <trkpt lat="49.50536" lon="-1.60953">
        <ele>119.2</ele>
        <time>2026-03-30T14:58:23.000Z</time>
      </trkpt>
      <trkpt lat="49.50537" lon="-1.60954">
        <ele>118.9</ele>
        <time>2026-03-30T14:58:24.000Z</time>
      </trkpt>
      <trkpt lat="49.50536" lon="-1.60955">
        <ele>118.9</ele>
        <time>2026-03-30T14:58:25.000Z</time>
      </trkpt>
      <trkpt lat="49.50537" lon="-1.60957">
        <ele>119.3</ele>
        <time>2026-03-30T14:58:26.000Z</time>
      </trkpt>
      <trkpt lat="49.50537" lon="-1.60958">
        <ele>119</ele>
        <time>2026-03-30T14:58:27.000Z</time>
      </trkpt>
      <trkpt lat="49.50538" lon="-1.60959">
        <ele>119.9</ele>
        <time>2026-03-30T14:58:28.000Z</time>
      </trkpt>
      <trkpt lat="49.50538" lon="-1.60959">
        <ele>120.1</ele>
        <time>2026-03-30T14:58:29.000Z</time>
      </trkpt>
      <trkpt lat="49.50537" lon="-1.6096">
        <ele>120.4</ele>
        <time>2026-03-30T14:58:30.000Z</time>
      </trkpt>
      <trkpt lat="49.50537" lon="-1.60961">
        <ele>121.1</ele>
        <time>2026-03-30T14:58:31.000Z</time>
      </trkpt>
      <trkpt lat="49.50537" lon="-1.60962">
        <ele>121.5</ele>
        <time>2026-03-30T14:58:32.000Z</time>
      </trkpt>
      <trkpt lat="49.50537" lon="-1.60963">
        <ele>121.7</ele>
        <time>2026-03-30T14:58:33.000Z</time>
      </trkpt>
      <trkpt lat="49.50537" lon="-1.60965">
        <ele>121.3</ele>
        <time>2026-03-30T14:58:34.000Z</time>
      </trkpt>
      <trkpt lat="49.50537" lon="-1.60967">
        <ele>120.7</ele>
        <time>2026-03-30T14:58:35.000Z</time>
      </trkpt>
      <trkpt lat="49.50537" lon="-1.60968">
        <ele>121</ele>
        <time>2026-03-30T14:58:36.000Z</time>
      </trkpt>
      <trkpt lat="49.50536" lon="-1.60969">
        <ele>121</ele>
        <time>2026-03-30T14:58:37.000Z</time>
      </trkpt>
      <trkpt lat="49.50536" lon="-1.60971">
        <ele>120.7</ele>
        <time>2026-03-30T14:58:38.000Z</time>
      </trkpt>
      <trkpt lat="49.50536" lon="-1.60973">
        <ele>120</ele>
        <time>2026-03-30T14:58:39.000Z</time>
      </trkpt>
      <trkpt lat="49.50536" lon="-1.60976">
        <ele>120.2</ele>
        <time>2026-03-30T14:58:40.000Z</time>
      </trkpt>
      <trkpt lat="49.50536" lon="-1.60977">
        <ele>121.3</ele>
        <time>2026-03-30T14:58:41.000Z</time>
      </trkpt>
      <trkpt lat="49.50536" lon="-1.60978">
        <ele>120.6</ele>
        <time>2026-03-30T14:58:42.000Z</time>
      </trkpt>
      <trkpt lat="49.50536" lon="-1.60979">
        <ele>120.8</ele>
        <time>2026-03-30T14:58:43.000Z</time>
      </trkpt>
      <trkpt lat="49.50537" lon="-1.60981">
        <ele>120.8</ele>
        <time>2026-03-30T14:58:44.000Z</time>
      </trkpt>
      <trkpt lat="49.50537" lon="-1.60983">
        <ele>120.8</ele>
        <time>2026-03-30T14:58:45.000Z</time>
      </trkpt>
      <trkpt lat="49.50538" lon="-1.60985">
        <ele>121.7</ele>
        <time>2026-03-30T14:58:46.000Z</time>
      </trkpt>
      <trkpt lat="49.50538" lon="-1.60986">
        <ele>122.1</ele>
        <time>2026-03-30T14:58:47.000Z</time>
      </trkpt>
      <trkpt lat="49.50538" lon="-1.60987">
        <ele>122.6</ele>
        <time>2026-03-30T14:58:48.000Z</time>
      </trkpt>
      <trkpt lat="49.50537" lon="-1.60989">
        <ele>121.6</ele>
        <time>2026-03-30T14:58:49.000Z</time>
      </trkpt>
      <trkpt lat="49.50537" lon="-1.6099">
        <ele>121.8</ele>
        <time>2026-03-30T14:58:50.000Z</time>
      </trkpt>
      <trkpt lat="49.50538" lon="-1.60992">
        <ele>121.6</ele>
        <time>2026-03-30T14:58:51.000Z</time>
      </trkpt>
      <trkpt lat="49.50539" lon="-1.60993">
        <ele>121.1</ele>
        <time>2026-03-30T14:58:52.000Z</time>
      </trkpt>
      <trkpt lat="49.50539" lon="-1.60994">
        <ele>122.7</ele>
        <time>2026-03-30T14:58:53.000Z</time>
      </trkpt>
      <trkpt lat="49.50539" lon="-1.60995">
        <ele>123.5</ele>
        <time>2026-03-30T14:58:54.000Z</time>
      </trkpt>
      <trkpt lat="49.50539" lon="-1.60996">
        <ele>123.5</ele>
        <time>2026-03-30T14:58:55.000Z</time>
      </trkpt>
      <trkpt lat="49.50539" lon="-1.60998">
        <ele>124</ele>
        <time>2026-03-30T14:58:56.000Z</time>
      </trkpt>
      <trkpt lat="49.50539" lon="-1.60999">
        <ele>124.6</ele>
        <time>2026-03-30T14:58:57.000Z</time>
      </trkpt>
      <trkpt lat="49.50538" lon="-1.61">
        <ele>124.9</ele>
        <time>2026-03-30T14:58:58.000Z</time>
      </trkpt>
      <trkpt lat="49.50538" lon="-1.61002">
        <ele>125</ele>
        <time>2026-03-30T14:58:59.000Z</time>
      </trkpt>
      <trkpt lat="49.50538" lon="-1.61003">
        <ele>125</ele>
        <time>2026-03-30T14:59:00.000Z</time>
      </trkpt>
      <trkpt lat="49.50538" lon="-1.61005">
        <ele>124.8</ele>
        <time>2026-03-30T14:59:01.000Z</time>
      </trkpt>
      <trkpt lat="49.50539" lon="-1.61007">
        <ele>126</ele>
        <time>2026-03-30T14:59:02.000Z</time>
      </trkpt>
      <trkpt lat="49.50539" lon="-1.61008">
        <ele>126.5</ele>
        <time>2026-03-30T14:59:03.000Z</time>
      </trkpt>
      <trkpt lat="49.50539" lon="-1.61009">
        <ele>126.6</ele>
        <time>2026-03-30T14:59:04.000Z</time>
      </trkpt>
      <trkpt lat="49.50539" lon="-1.61011">
        <ele>126.4</ele>
        <time>2026-03-30T14:59:05.000Z</time>
      </trkpt>
      <trkpt lat="49.50539" lon="-1.61012">
        <ele>127.6</ele>
        <time>2026-03-30T14:59:06.000Z</time>
      </trkpt>
      <trkpt lat="49.50539" lon="-1.61014">
        <ele>127.7</ele>
        <time>2026-03-30T14:59:07.000Z</time>
      </trkpt>
      <trkpt lat="49.50539" lon="-1.61016">
        <ele>128.3</ele>
        <time>2026-03-30T14:59:08.000Z</time>
      </trkpt>
      <trkpt lat="49.50539" lon="-1.61017">
        <ele>128.1</ele>
        <time>2026-03-30T14:59:09.000Z</time>
      </trkpt>
      <trkpt lat="49.50539" lon="-1.61019">
        <ele>128.2</ele>
        <time>2026-03-30T14:59:10.000Z</time>
      </trkpt>
      <trkpt lat="49.50539" lon="-1.61021">
        <ele>128.6</ele>
        <time>2026-03-30T14:59:11.000Z</time>
      </trkpt>
      <trkpt lat="49.50539" lon="-1.61022">
        <ele>128.2</ele>
        <time>2026-03-30T14:59:12.000Z</time>
      </trkpt>
      <trkpt lat="49.5054" lon="-1.61024">
        <ele>128.1</ele>
        <time>2026-03-30T14:59:13.000Z</time>
      </trkpt>
      <trkpt lat="49.5054" lon="-1.61025">
        <ele>127.7</ele>
        <time>2026-03-30T14:59:14.000Z</time>
      </trkpt>
      <trkpt lat="49.5054" lon="-1.61027">
        <ele>128.4</ele>
        <time>2026-03-30T14:59:15.000Z</time>
      </trkpt>
      <trkpt lat="49.5054" lon="-1.61029">
        <ele>128.9</ele>
        <time>2026-03-30T14:59:16.000Z</time>
      </trkpt>
      <trkpt lat="49.50541" lon="-1.61031">
        <ele>129.1</ele>
        <time>2026-03-30T14:59:17.000Z</time>
      </trkpt>
      <trkpt lat="49.50541" lon="-1.61032">
        <ele>128.4</ele>
        <time>2026-03-30T14:59:18.000Z</time>
      </trkpt>
      <trkpt lat="49.50541" lon="-1.61034">
        <ele>128.3</ele>
        <time>2026-03-30T14:59:19.000Z</time>
      </trkpt>
      <trkpt lat="49.50541" lon="-1.61036">
        <ele>126</ele>
        <time>2026-03-30T14:59:20.000Z</time>
      </trkpt>
      <trkpt lat="49.50542" lon="-1.61037">
        <ele>125</ele>
        <time>2026-03-30T14:59:21.000Z</time>
      </trkpt>
      <trkpt lat="49.50543" lon="-1.61038">
        <ele>124.6</ele>
        <time>2026-03-30T14:59:22.000Z</time>
      </trkpt>
      <trkpt lat="49.50544" lon="-1.61039">
        <ele>124.4</ele>
        <time>2026-03-30T14:59:23.000Z</time>
      </trkpt>
      <trkpt lat="49.50544" lon="-1.61038">
        <ele>125.2</ele>
        <time>2026-03-30T14:59:24.000Z</time>
      </trkpt>
      <trkpt lat="49.50544" lon="-1.61038">
        <ele>125.1</ele>
        <time>2026-03-30T14:59:25.000Z</time>
      </trkpt>
      <trkpt lat="49.50545" lon="-1.61039">
        <ele>124.1</ele>
        <time>2026-03-30T14:59:26.000Z</time>
      </trkpt>
      <trkpt lat="49.50545" lon="-1.6104">
        <ele>123.8</ele>
        <time>2026-03-30T14:59:27.000Z</time>
      </trkpt>
      <trkpt lat="49.50545" lon="-1.61041">
        <ele>122.2</ele>
        <time>2026-03-30T14:59:28.000Z</time>
      </trkpt>
      <trkpt lat="49.50545" lon="-1.61043">
        <ele>121.7</ele>
        <time>2026-03-30T14:59:29.000Z</time>
      </trkpt>
      <trkpt lat="49.50546" lon="-1.61044">
        <ele>120.5</ele>
        <time>2026-03-30T14:59:30.000Z</time>
      </trkpt>
      <trkpt lat="49.50545" lon="-1.61044">
        <ele>121.4</ele>
        <time>2026-03-30T14:59:31.000Z</time>
      </trkpt>
      <trkpt lat="49.50545" lon="-1.61044">
        <ele>121.4</ele>
        <time>2026-03-30T14:59:32.000Z</time>
      </trkpt>
      <trkpt lat="49.50545" lon="-1.61044">
        <ele>121.4</ele>
        <time>2026-03-30T14:59:33.000Z</time>
      </trkpt>
      <trkpt lat="49.50545" lon="-1.61043">
        <ele>121.5</ele>
        <time>2026-03-30T14:59:34.000Z</time>
      </trkpt>
      <trkpt lat="49.50545" lon="-1.61043">
        <ele>121.7</ele>
        <time>2026-03-30T14:59:35.000Z</time>
      </trkpt>
      <trkpt lat="49.50545" lon="-1.61044">
        <ele>121.7</ele>
        <time>2026-03-30T14:59:36.000Z</time>
      </trkpt>
      <trkpt lat="49.50546" lon="-1.61044">
        <ele>121.6</ele>
        <time>2026-03-30T14:59:37.000Z</time>
      </trkpt>
      <trkpt lat="49.50547" lon="-1.61044">
        <ele>121.6</ele>
        <time>2026-03-30T14:59:38.000Z</time>
      </trkpt>
      <trkpt lat="49.50547" lon="-1.61045">
        <ele>122.3</ele>
        <time>2026-03-30T14:59:39.000Z</time>
      </trkpt>
      <trkpt lat="49.50547" lon="-1.61046">
        <ele>122.4</ele>
        <time>2026-03-30T14:59:40.000Z</time>
      </trkpt>
      <trkpt lat="49.50547" lon="-1.61048">
        <ele>123.2</ele>
        <time>2026-03-30T14:59:41.000Z</time>
      </trkpt>
      <trkpt lat="49.50547" lon="-1.61049">
        <ele>123.4</ele>
        <time>2026-03-30T14:59:42.000Z</time>
      </trkpt>
      <trkpt lat="49.50547" lon="-1.6105">
        <ele>123</ele>
        <time>2026-03-30T14:59:43.000Z</time>
      </trkpt>
      <trkpt lat="49.50547" lon="-1.61051">
        <ele>124.4</ele>
        <time>2026-03-30T14:59:44.000Z</time>
      </trkpt>
      <trkpt lat="49.50548" lon="-1.61052">
        <ele>124.5</ele>
        <time>2026-03-30T14:59:45.000Z</time>
      </trkpt>
      <trkpt lat="49.50548" lon="-1.61053">
        <ele>126.3</ele>
        <time>2026-03-30T14:59:46.000Z</time>
      </trkpt>
      <trkpt lat="49.50548" lon="-1.61054">
        <ele>126.2</ele>
        <time>2026-03-30T14:59:47.000Z</time>
      </trkpt>
      <trkpt lat="49.50549" lon="-1.61055">
        <ele>125.7</ele>
        <time>2026-03-30T14:59:48.000Z</time>
      </trkpt>
      <trkpt lat="49.50549" lon="-1.61056">
        <ele>125.6</ele>
        <time>2026-03-30T14:59:49.000Z</time>
      </trkpt>
      <trkpt lat="49.5055" lon="-1.61058">
        <ele>125.8</ele>
        <time>2026-03-30T14:59:50.000Z</time>
      </trkpt>
      <trkpt lat="49.5055" lon="-1.61059">
        <ele>127.7</ele>
        <time>2026-03-30T14:59:51.000Z</time>
      </trkpt>
      <trkpt lat="49.50551" lon="-1.61061">
        <ele>127.2</ele>
        <time>2026-03-30T14:59:52.000Z</time>
      </trkpt>
      <trkpt lat="49.50551" lon="-1.61063">
        <ele>127.6</ele>
        <time>2026-03-30T14:59:53.000Z</time>
      </trkpt>
      <trkpt lat="49.50552" lon="-1.61064">
        <ele>127.7</ele>
        <time>2026-03-30T14:59:54.000Z</time>
      </trkpt>
      <trkpt lat="49.50553" lon="-1.61065">
        <ele>128.2</ele>
        <time>2026-03-30T14:59:55.000Z</time>
      </trkpt>
      <trkpt lat="49.50553" lon="-1.61067">
        <ele>127.2</ele>
        <time>2026-03-30T14:59:56.000Z</time>
      </trkpt>
      <trkpt lat="49.50554" lon="-1.61069">
        <ele>127.2</ele>
        <time>2026-03-30T14:59:57.000Z</time>
      </trkpt>
      <trkpt lat="49.50554" lon="-1.61071">
        <ele>127.9</ele>
        <time>2026-03-30T14:59:58.000Z</time>
      </trkpt>
      <trkpt lat="49.50555" lon="-1.61072">
        <ele>127.6</ele>
        <time>2026-03-30T14:59:59.000Z</time>
      </trkpt>
      <trkpt lat="49.50555" lon="-1.61074">
        <ele>126.7</ele>
        <time>2026-03-30T15:00:00.000Z</time>
      </trkpt>
      <trkpt lat="49.50555" lon="-1.61075">
        <ele>126.8</ele>
        <time>2026-03-30T15:00:01.000Z</time>
      </trkpt>
      <trkpt lat="49.50555" lon="-1.61077">
        <ele>126.8</ele>
        <time>2026-03-30T15:00:02.000Z</time>
      </trkpt>
      <trkpt lat="49.50555" lon="-1.61079">
        <ele>127</ele>
        <time>2026-03-30T15:00:03.000Z</time>
      </trkpt>
      <trkpt lat="49.50555" lon="-1.61081">
        <ele>127.3</ele>
        <time>2026-03-30T15:00:04.000Z</time>
      </trkpt>
      <trkpt lat="49.50555" lon="-1.61083">
        <ele>128.2</ele>
        <time>2026-03-30T15:00:05.000Z</time>
      </trkpt>
      <trkpt lat="49.50555" lon="-1.61085">
        <ele>128</ele>
        <time>2026-03-30T15:00:06.000Z</time>
      </trkpt>
      <trkpt lat="49.50556" lon="-1.61086">
        <ele>128.1</ele>
        <time>2026-03-30T15:00:07.000Z</time>
      </trkpt>
      <trkpt lat="49.50557" lon="-1.61087">
        <ele>128.2</ele>
        <time>2026-03-30T15:00:08.000Z</time>
      </trkpt>
      <trkpt lat="49.50557" lon="-1.61088">
        <ele>128.6</ele>
        <time>2026-03-30T15:00:09.000Z</time>
      </trkpt>
      <trkpt lat="49.50558" lon="-1.61089">
        <ele>128.7</ele>
        <time>2026-03-30T15:00:10.000Z</time>
      </trkpt>
      <trkpt lat="49.50559" lon="-1.6109">
        <ele>128.5</ele>
        <time>2026-03-30T15:00:11.000Z</time>
      </trkpt>
      <trkpt lat="49.5056" lon="-1.61091">
        <ele>128.5</ele>
        <time>2026-03-30T15:00:12.000Z</time>
      </trkpt>
      <trkpt lat="49.5056" lon="-1.61093">
        <ele>127.8</ele>
        <time>2026-03-30T15:00:13.000Z</time>
      </trkpt>
      <trkpt lat="49.5056" lon="-1.61094">
        <ele>128.2</ele>
        <time>2026-03-30T15:00:14.000Z</time>
      </trkpt>
      <trkpt lat="49.5056" lon="-1.61096">
        <ele>127.3</ele>
        <time>2026-03-30T15:00:15.000Z</time>
      </trkpt>
      <trkpt lat="49.5056" lon="-1.61098">
        <ele>128.2</ele>
        <time>2026-03-30T15:00:16.000Z</time>
      </trkpt>
      <trkpt lat="49.50561" lon="-1.611">
        <ele>128</ele>
        <time>2026-03-30T15:00:17.000Z</time>
      </trkpt>
      <trkpt lat="49.50561" lon="-1.61101">
        <ele>127.8</ele>
        <time>2026-03-30T15:00:18.000Z</time>
      </trkpt>
      <trkpt lat="49.50562" lon="-1.61102">
        <ele>128.3</ele>
        <time>2026-03-30T15:00:19.000Z</time>
      </trkpt>
      <trkpt lat="49.50563" lon="-1.61103">
        <ele>128.2</ele>
        <time>2026-03-30T15:00:20.000Z</time>
      </trkpt>
      <trkpt lat="49.50564" lon="-1.61104">
        <ele>127.9</ele>
        <time>2026-03-30T15:00:21.000Z</time>
      </trkpt>
      <trkpt lat="49.50564" lon="-1.61104">
        <ele>128.1</ele>
        <time>2026-03-30T15:00:22.000Z</time>
      </trkpt>
      <trkpt lat="49.50565" lon="-1.61104">
        <ele>129.1</ele>
        <time>2026-03-30T15:00:23.000Z</time>
      </trkpt>
      <trkpt lat="49.50566" lon="-1.61105">
        <ele>130.5</ele>
        <time>2026-03-30T15:00:24.000Z</time>
      </trkpt>
      <trkpt lat="49.50566" lon="-1.61107">
        <ele>130.4</ele>
        <time>2026-03-30T15:00:25.000Z</time>
      </trkpt>
      <trkpt lat="49.50566" lon="-1.61108">
        <ele>130.2</ele>
        <time>2026-03-30T15:00:26.000Z</time>
      </trkpt>
      <trkpt lat="49.50567" lon="-1.61109">
        <ele>130</ele>
        <time>2026-03-30T15:00:27.000Z</time>
      </trkpt>
      <trkpt lat="49.50567" lon="-1.6111">
        <ele>130.8</ele>
        <time>2026-03-30T15:00:28.000Z</time>
      </trkpt>
      <trkpt lat="49.50567" lon="-1.61111">
        <ele>129.8</ele>
        <time>2026-03-30T15:00:29.000Z</time>
      </trkpt>
      <trkpt lat="49.50567" lon="-1.61113">
        <ele>128.6</ele>
        <time>2026-03-30T15:00:30.000Z</time>
      </trkpt>
      <trkpt lat="49.50567" lon="-1.61115">
        <ele>127.9</ele>
        <time>2026-03-30T15:00:31.000Z</time>
      </trkpt>
      <trkpt lat="49.50567" lon="-1.61117">
        <ele>127.5</ele>
        <time>2026-03-30T15:00:32.000Z</time>
      </trkpt>
      <trkpt lat="49.50568" lon="-1.61119">
        <ele>126.7</ele>
        <time>2026-03-30T15:00:33.000Z</time>
      </trkpt>
      <trkpt lat="49.50569" lon="-1.61121">
        <ele>126.8</ele>
        <time>2026-03-30T15:00:34.000Z</time>
      </trkpt>
      <trkpt lat="49.50569" lon="-1.61123">
        <ele>126.9</ele>
        <time>2026-03-30T15:00:35.000Z</time>
      </trkpt>
      <trkpt lat="49.50569" lon="-1.61125">
        <ele>126.4</ele>
        <time>2026-03-30T15:00:36.000Z</time>
      </trkpt>
      <trkpt lat="49.5057" lon="-1.61127">
        <ele>126</ele>
        <time>2026-03-30T15:00:37.000Z</time>
      </trkpt>
      <trkpt lat="49.50571" lon="-1.61129">
        <ele>127</ele>
        <time>2026-03-30T15:00:38.000Z</time>
      </trkpt>
      <trkpt lat="49.50571" lon="-1.6113">
        <ele>127.2</ele>
        <time>2026-03-30T15:00:39.000Z</time>
      </trkpt>
      <trkpt lat="49.50572" lon="-1.61132">
        <ele>127.4</ele>
        <time>2026-03-30T15:00:40.000Z</time>
      </trkpt>
      <trkpt lat="49.50572" lon="-1.61133">
        <ele>127.6</ele>
        <time>2026-03-30T15:00:41.000Z</time>
      </trkpt>
      <trkpt lat="49.50573" lon="-1.61135">
        <ele>128.5</ele>
        <time>2026-03-30T15:00:42.000Z</time>
      </trkpt>
      <trkpt lat="49.50574" lon="-1.61137">
        <ele>128.2</ele>
        <time>2026-03-30T15:00:43.000Z</time>
      </trkpt>
      <trkpt lat="49.50575" lon="-1.61138">
        <ele>128.7</ele>
        <time>2026-03-30T15:00:44.000Z</time>
      </trkpt>
      <trkpt lat="49.50575" lon="-1.6114">
        <ele>129</ele>
        <time>2026-03-30T15:00:45.000Z</time>
      </trkpt>
      <trkpt lat="49.50576" lon="-1.61142">
        <ele>128.4</ele>
        <time>2026-03-30T15:00:46.000Z</time>
      </trkpt>
      <trkpt lat="49.50576" lon="-1.61143">
        <ele>129.7</ele>
        <time>2026-03-30T15:00:47.000Z</time>
      </trkpt>
      <trkpt lat="49.50576" lon="-1.61145">
        <ele>129</ele>
        <time>2026-03-30T15:00:48.000Z</time>
      </trkpt>
      <trkpt lat="49.50577" lon="-1.61147">
        <ele>127.8</ele>
        <time>2026-03-30T15:00:49.000Z</time>
      </trkpt>
      <trkpt lat="49.50578" lon="-1.61149">
        <ele>126.9</ele>
        <time>2026-03-30T15:00:50.000Z</time>
      </trkpt>
      <trkpt lat="49.50578" lon="-1.6115">
        <ele>126.9</ele>
        <time>2026-03-30T15:00:51.000Z</time>
      </trkpt>
      <trkpt lat="49.50579" lon="-1.61151">
        <ele>127.1</ele>
        <time>2026-03-30T15:00:52.000Z</time>
      </trkpt>
      <trkpt lat="49.5058" lon="-1.61153">
        <ele>128</ele>
        <time>2026-03-30T15:00:53.000Z</time>
      </trkpt>
      <trkpt lat="49.50581" lon="-1.61154">
        <ele>127.9</ele>
        <time>2026-03-30T15:00:54.000Z</time>
      </trkpt>
      <trkpt lat="49.50581" lon="-1.61155">
        <ele>128</ele>
        <time>2026-03-30T15:00:55.000Z</time>
      </trkpt>
      <trkpt lat="49.50582" lon="-1.61157">
        <ele>127.5</ele>
        <time>2026-03-30T15:00:56.000Z</time>
      </trkpt>
      <trkpt lat="49.50582" lon="-1.61158">
        <ele>126.1</ele>
        <time>2026-03-30T15:00:57.000Z</time>
      </trkpt>
      <trkpt lat="49.50583" lon="-1.6116">
        <ele>126.6</ele>
        <time>2026-03-30T15:00:58.000Z</time>
      </trkpt>
      <trkpt lat="49.50583" lon="-1.61161">
        <ele>126.4</ele>
        <time>2026-03-30T15:00:59.000Z</time>
      </trkpt>
      <trkpt lat="49.50585" lon="-1.61163">
        <ele>128</ele>
        <time>2026-03-30T15:01:00.000Z</time>
      </trkpt>
      <trkpt lat="49.50586" lon="-1.61164">
        <ele>131</ele>
        <time>2026-03-30T15:01:01.000Z</time>
      </trkpt>
      <trkpt lat="49.50587" lon="-1.61166">
        <ele>131.1</ele>
        <time>2026-03-30T15:01:02.000Z</time>
      </trkpt>
      <trkpt lat="49.50588" lon="-1.61167">
        <ele>130.8</ele>
        <time>2026-03-30T15:01:03.000Z</time>
      </trkpt>
      <trkpt lat="49.50588" lon="-1.61168">
        <ele>131.3</ele>
        <time>2026-03-30T15:01:04.000Z</time>
      </trkpt>
      <trkpt lat="49.50589" lon="-1.6117">
        <ele>131.5</ele>
        <time>2026-03-30T15:01:05.000Z</time>
      </trkpt>
      <trkpt lat="49.50589" lon="-1.61171">
        <ele>131.5</ele>
        <time>2026-03-30T15:01:06.000Z</time>
      </trkpt>
      <trkpt lat="49.5059" lon="-1.61172">
        <ele>131.1</ele>
        <time>2026-03-30T15:01:07.000Z</time>
      </trkpt>
      <trkpt lat="49.5059" lon="-1.61174">
        <ele>131.1</ele>
        <time>2026-03-30T15:01:08.000Z</time>
      </trkpt>
      <trkpt lat="49.50591" lon="-1.61175">
        <ele>131.9</ele>
        <time>2026-03-30T15:01:09.000Z</time>
      </trkpt>
      <trkpt lat="49.50592" lon="-1.61176">
        <ele>131.7</ele>
        <time>2026-03-30T15:01:10.000Z</time>
      </trkpt>
      <trkpt lat="49.50593" lon="-1.61178">
        <ele>130.8</ele>
        <time>2026-03-30T15:01:11.000Z</time>
      </trkpt>
      <trkpt lat="49.50594" lon="-1.6118">
        <ele>129.8</ele>
        <time>2026-03-30T15:01:12.000Z</time>
      </trkpt>
      <trkpt lat="49.50594" lon="-1.61182">
        <ele>128.9</ele>
        <time>2026-03-30T15:01:13.000Z</time>
      </trkpt>
      <trkpt lat="49.50595" lon="-1.61184">
        <ele>128.8</ele>
        <time>2026-03-30T15:01:14.000Z</time>
      </trkpt>
      <trkpt lat="49.50596" lon="-1.61186">
        <ele>129.5</ele>
        <time>2026-03-30T15:01:15.000Z</time>
      </trkpt>
      <trkpt lat="49.50596" lon="-1.61187">
        <ele>130.5</ele>
        <time>2026-03-30T15:01:16.000Z</time>
      </trkpt>
      <trkpt lat="49.50597" lon="-1.61189">
        <ele>130.4</ele>
        <time>2026-03-30T15:01:17.000Z</time>
      </trkpt>
      <trkpt lat="49.50598" lon="-1.61191">
        <ele>130.9</ele>
        <time>2026-03-30T15:01:18.000Z</time>
      </trkpt>
      <trkpt lat="49.50598" lon="-1.61192">
        <ele>130.8</ele>
        <time>2026-03-30T15:01:19.000Z</time>
      </trkpt>
      <trkpt lat="49.50599" lon="-1.61194">
        <ele>130.5</ele>
        <time>2026-03-30T15:01:20.000Z</time>
      </trkpt>
      <trkpt lat="49.50599" lon="-1.61196">
        <ele>130.7</ele>
        <time>2026-03-30T15:01:21.000Z</time>
      </trkpt>
      <trkpt lat="49.506" lon="-1.61197">
        <ele>131.6</ele>
        <time>2026-03-30T15:01:22.000Z</time>
      </trkpt>
      <trkpt lat="49.50601" lon="-1.61199">
        <ele>132.5</ele>
        <time>2026-03-30T15:01:23.000Z</time>
      </trkpt>
      <trkpt lat="49.50601" lon="-1.61201">
        <ele>131.8</ele>
        <time>2026-03-30T15:01:24.000Z</time>
      </trkpt>
      <trkpt lat="49.50602" lon="-1.61203">
        <ele>131.7</ele>
        <time>2026-03-30T15:01:25.000Z</time>
      </trkpt>
      <trkpt lat="49.50603" lon="-1.61204">
        <ele>132</ele>
        <time>2026-03-30T15:01:26.000Z</time>
      </trkpt>
      <trkpt lat="49.50603" lon="-1.61206">
        <ele>132.5</ele>
        <time>2026-03-30T15:01:27.000Z</time>
      </trkpt>
      <trkpt lat="49.50604" lon="-1.61207">
        <ele>133.6</ele>
        <time>2026-03-30T15:01:28.000Z</time>
      </trkpt>
      <trkpt lat="49.50605" lon="-1.61209">
        <ele>134.6</ele>
        <time>2026-03-30T15:01:29.000Z</time>
      </trkpt>
      <trkpt lat="49.50605" lon="-1.6121">
        <ele>134.5</ele>
        <time>2026-03-30T15:01:30.000Z</time>
      </trkpt>
      <trkpt lat="49.50606" lon="-1.61212">
        <ele>134.3</ele>
        <time>2026-03-30T15:01:31.000Z</time>
      </trkpt>
      <trkpt lat="49.50606" lon="-1.61213">
        <ele>134.3</ele>
        <time>2026-03-30T15:01:32.000Z</time>
      </trkpt>
      <trkpt lat="49.50607" lon="-1.61215">
        <ele>134.5</ele>
        <time>2026-03-30T15:01:33.000Z</time>
      </trkpt>
      <trkpt lat="49.50607" lon="-1.61216">
        <ele>134.7</ele>
        <time>2026-03-30T15:01:34.000Z</time>
      </trkpt>
      <trkpt lat="49.50608" lon="-1.61218">
        <ele>134.7</ele>
        <time>2026-03-30T15:01:35.000Z</time>
      </trkpt>
      <trkpt lat="49.50609" lon="-1.61219">
        <ele>134.8</ele>
        <time>2026-03-30T15:01:36.000Z</time>
      </trkpt>
      <trkpt lat="49.5061" lon="-1.61221">
        <ele>135.3</ele>
        <time>2026-03-30T15:01:37.000Z</time>
      </trkpt>
      <trkpt lat="49.5061" lon="-1.61222">
        <ele>136.1</ele>
        <time>2026-03-30T15:01:38.000Z</time>
      </trkpt>
      <trkpt lat="49.50611" lon="-1.61224">
        <ele>134.8</ele>
        <time>2026-03-30T15:01:39.000Z</time>
      </trkpt>
      <trkpt lat="49.50612" lon="-1.61226">
        <ele>135</ele>
        <time>2026-03-30T15:01:40.000Z</time>
      </trkpt>
      <trkpt lat="49.50612" lon="-1.61228">
        <ele>134.9</ele>
        <time>2026-03-30T15:01:41.000Z</time>
      </trkpt>
      <trkpt lat="49.50613" lon="-1.61229">
        <ele>135.3</ele>
        <time>2026-03-30T15:01:42.000Z</time>
      </trkpt>
      <trkpt lat="49.50614" lon="-1.6123">
        <ele>136.5</ele>
        <time>2026-03-30T15:01:43.000Z</time>
      </trkpt>
      <trkpt lat="49.50615" lon="-1.61231">
        <ele>136.2</ele>
        <time>2026-03-30T15:01:44.000Z</time>
      </trkpt>
      <trkpt lat="49.50615" lon="-1.61233">
        <ele>135.7</ele>
        <time>2026-03-30T15:01:45.000Z</time>
      </trkpt>
      <trkpt lat="49.50616" lon="-1.61234">
        <ele>135</ele>
        <time>2026-03-30T15:01:46.000Z</time>
      </trkpt>
      <trkpt lat="49.50617" lon="-1.61236">
        <ele>135.2</ele>
        <time>2026-03-30T15:01:47.000Z</time>
      </trkpt>
      <trkpt lat="49.50617" lon="-1.61238">
        <ele>134.6</ele>
        <time>2026-03-30T15:01:48.000Z</time>
      </trkpt>
      <trkpt lat="49.50618" lon="-1.6124">
        <ele>135.1</ele>
        <time>2026-03-30T15:01:49.000Z</time>
      </trkpt>
      <trkpt lat="49.50619" lon="-1.61241">
        <ele>135.2</ele>
        <time>2026-03-30T15:01:50.000Z</time>
      </trkpt>
      <trkpt lat="49.50619" lon="-1.61243">
        <ele>135.5</ele>
        <time>2026-03-30T15:01:51.000Z</time>
      </trkpt>
      <trkpt lat="49.5062" lon="-1.61244">
        <ele>135.4</ele>
        <time>2026-03-30T15:01:52.000Z</time>
      </trkpt>
      <trkpt lat="49.50621" lon="-1.61246">
        <ele>135.8</ele>
        <time>2026-03-30T15:01:53.000Z</time>
      </trkpt>
      <trkpt lat="49.50621" lon="-1.61248">
        <ele>136.3</ele>
        <time>2026-03-30T15:01:54.000Z</time>
      </trkpt>
      <trkpt lat="49.50621" lon="-1.6125">
        <ele>136.3</ele>
        <time>2026-03-30T15:01:55.000Z</time>
      </trkpt>
      <trkpt lat="49.50622" lon="-1.61251">
        <ele>136.2</ele>
        <time>2026-03-30T15:01:56.000Z</time>
      </trkpt>
      <trkpt lat="49.50622" lon="-1.61253">
        <ele>136.2</ele>
        <time>2026-03-30T15:01:57.000Z</time>
      </trkpt>
      <trkpt lat="49.50623" lon="-1.61254">
        <ele>136.4</ele>
        <time>2026-03-30T15:01:58.000Z</time>
      </trkpt>
      <trkpt lat="49.50623" lon="-1.61256">
        <ele>134.6</ele>
        <time>2026-03-30T15:01:59.000Z</time>
      </trkpt>
      <trkpt lat="49.50624" lon="-1.61258">
        <ele>135</ele>
        <time>2026-03-30T15:02:00.000Z</time>
      </trkpt>
      <trkpt lat="49.50625" lon="-1.61259">
        <ele>135.8</ele>
        <time>2026-03-30T15:02:01.000Z</time>
      </trkpt>
      <trkpt lat="49.50625" lon="-1.61261">
        <ele>136.9</ele>
        <time>2026-03-30T15:02:02.000Z</time>
      </trkpt>
      <trkpt lat="49.50626" lon="-1.61262">
        <ele>136.1</ele>
        <time>2026-03-30T15:02:03.000Z</time>
      </trkpt>
      <trkpt lat="49.50627" lon="-1.61263">
        <ele>136</ele>
        <time>2026-03-30T15:02:04.000Z</time>
      </trkpt>
      <trkpt lat="49.50628" lon="-1.61264">
        <ele>135.9</ele>
        <time>2026-03-30T15:02:05.000Z</time>
      </trkpt>
      <trkpt lat="49.50628" lon="-1.61266">
        <ele>135.5</ele>
        <time>2026-03-30T15:02:06.000Z</time>
      </trkpt>
      <trkpt lat="49.50629" lon="-1.61267">
        <ele>136.2</ele>
        <time>2026-03-30T15:02:07.000Z</time>
      </trkpt>
      <trkpt lat="49.5063" lon="-1.61268">
        <ele>136.6</ele>
        <time>2026-03-30T15:02:08.000Z</time>
      </trkpt>
      <trkpt lat="49.5063" lon="-1.6127">
        <ele>136.5</ele>
        <time>2026-03-30T15:02:09.000Z</time>
      </trkpt>
      <trkpt lat="49.5063" lon="-1.61271">
        <ele>136</ele>
        <time>2026-03-30T15:02:10.000Z</time>
      </trkpt>
      <trkpt lat="49.50631" lon="-1.61272">
        <ele>136.2</ele>
        <time>2026-03-30T15:02:11.000Z</time>
      </trkpt>
      <trkpt lat="49.50631" lon="-1.61273">
        <ele>135.7</ele>
        <time>2026-03-30T15:02:12.000Z</time>
      </trkpt>
      <trkpt lat="49.50632" lon="-1.61274">
        <ele>135.4</ele>
        <time>2026-03-30T15:02:13.000Z</time>
      </trkpt>
      <trkpt lat="49.50633" lon="-1.61275">
        <ele>135.5</ele>
        <time>2026-03-30T15:02:14.000Z</time>
      </trkpt>
      <trkpt lat="49.50633" lon="-1.61276">
        <ele>136</ele>
        <time>2026-03-30T15:02:15.000Z</time>
      </trkpt>
      <trkpt lat="49.50634" lon="-1.61278">
        <ele>135.5</ele>
        <time>2026-03-30T15:02:16.000Z</time>
      </trkpt>
      <trkpt lat="49.50634" lon="-1.6128">
        <ele>135.9</ele>
        <time>2026-03-30T15:02:17.000Z</time>
      </trkpt>
      <trkpt lat="49.50634" lon="-1.61281">
        <ele>136</ele>
        <time>2026-03-30T15:02:18.000Z</time>
      </trkpt>
      <trkpt lat="49.50634" lon="-1.61283">
        <ele>136</ele>
        <time>2026-03-30T15:02:19.000Z</time>
      </trkpt>
      <trkpt lat="49.50635" lon="-1.61283">
        <ele>136</ele>
        <time>2026-03-30T15:02:20.000Z</time>
      </trkpt>
      <trkpt lat="49.50635" lon="-1.61284">
        <ele>135.6</ele>
        <time>2026-03-30T15:02:21.000Z</time>
      </trkpt>
      <trkpt lat="49.50636" lon="-1.61285">
        <ele>136.4</ele>
        <time>2026-03-30T15:02:22.000Z</time>
      </trkpt>
      <trkpt lat="49.50636" lon="-1.61287">
        <ele>136.2</ele>
        <time>2026-03-30T15:02:23.000Z</time>
      </trkpt>
      <trkpt lat="49.50637" lon="-1.61288">
        <ele>136.9</ele>
        <time>2026-03-30T15:02:24.000Z</time>
      </trkpt>
      <trkpt lat="49.50637" lon="-1.61289">
        <ele>137.6</ele>
        <time>2026-03-30T15:02:25.000Z</time>
      </trkpt>
      <trkpt lat="49.50638" lon="-1.61291">
        <ele>138.2</ele>
        <time>2026-03-30T15:02:26.000Z</time>
      </trkpt>
      <trkpt lat="49.50638" lon="-1.61292">
        <ele>138.5</ele>
        <time>2026-03-30T15:02:27.000Z</time>
      </trkpt>
      <trkpt lat="49.50639" lon="-1.61293">
        <ele>138.5</ele>
        <time>2026-03-30T15:02:28.000Z</time>
      </trkpt>
      <trkpt lat="49.50639" lon="-1.61294">
        <ele>138.8</ele>
        <time>2026-03-30T15:02:29.000Z</time>
      </trkpt>
      <trkpt lat="49.5064" lon="-1.61295">
        <ele>138.5</ele>
        <time>2026-03-30T15:02:30.000Z</time>
      </trkpt>
      <trkpt lat="49.50641" lon="-1.61296">
        <ele>139.5</ele>
        <time>2026-03-30T15:02:31.000Z</time>
      </trkpt>
      <trkpt lat="49.50641" lon="-1.61298">
        <ele>139.3</ele>
        <time>2026-03-30T15:02:32.000Z</time>
      </trkpt>
      <trkpt lat="49.50642" lon="-1.61299">
        <ele>139.1</ele>
        <time>2026-03-30T15:02:33.000Z</time>
      </trkpt>
      <trkpt lat="49.50642" lon="-1.613">
        <ele>138.7</ele>
        <time>2026-03-30T15:02:34.000Z</time>
      </trkpt>
      <trkpt lat="49.50643" lon="-1.61302">
        <ele>139</ele>
        <time>2026-03-30T15:02:35.000Z</time>
      </trkpt>
      <trkpt lat="49.50643" lon="-1.61303">
        <ele>139.2</ele>
        <time>2026-03-30T15:02:36.000Z</time>
      </trkpt>
      <trkpt lat="49.50644" lon="-1.61304">
        <ele>139.3</ele>
        <time>2026-03-30T15:02:37.000Z</time>
      </trkpt>
      <trkpt lat="49.50645" lon="-1.61306">
        <ele>139.1</ele>
        <time>2026-03-30T15:02:38.000Z</time>
      </trkpt>
      <trkpt lat="49.50645" lon="-1.61307">
        <ele>139.1</ele>
        <time>2026-03-30T15:02:39.000Z</time>
      </trkpt>
      <trkpt lat="49.50646" lon="-1.61308">
        <ele>140.1</ele>
        <time>2026-03-30T15:02:40.000Z</time>
      </trkpt>
      <trkpt lat="49.50646" lon="-1.61309">
        <ele>140.9</ele>
        <time>2026-03-30T15:02:41.000Z</time>
      </trkpt>
      <trkpt lat="49.50647" lon="-1.61311">
        <ele>141.6</ele>
        <time>2026-03-30T15:02:42.000Z</time>
      </trkpt>
      <trkpt lat="49.50647" lon="-1.61312">
        <ele>141.3</ele>
        <time>2026-03-30T15:02:43.000Z</time>
      </trkpt>
      <trkpt lat="49.50648" lon="-1.61314">
        <ele>141.1</ele>
        <time>2026-03-30T15:02:44.000Z</time>
      </trkpt>
      <trkpt lat="49.50648" lon="-1.61315">
        <ele>140.1</ele>
        <time>2026-03-30T15:02:45.000Z</time>
      </trkpt>
      <trkpt lat="49.50649" lon="-1.61317">
        <ele>139.5</ele>
        <time>2026-03-30T15:02:46.000Z</time>
      </trkpt>
      <trkpt lat="49.5065" lon="-1.61318">
        <ele>139.5</ele>
        <time>2026-03-30T15:02:47.000Z</time>
      </trkpt>
      <trkpt lat="49.50651" lon="-1.61319">
        <ele>139.5</ele>
        <time>2026-03-30T15:02:48.000Z</time>
      </trkpt>
      <trkpt lat="49.50651" lon="-1.61321">
        <ele>139.7</ele>
        <time>2026-03-30T15:02:49.000Z</time>
      </trkpt>
      <trkpt lat="49.50652" lon="-1.61322">
        <ele>139.2</ele>
        <time>2026-03-30T15:02:50.000Z</time>
      </trkpt>
      <trkpt lat="49.50653" lon="-1.61323">
        <ele>138.8</ele>
        <time>2026-03-30T15:02:51.000Z</time>
      </trkpt>
      <trkpt lat="49.50653" lon="-1.61324">
        <ele>138.6</ele>
        <time>2026-03-30T15:02:52.000Z</time>
      </trkpt>
      <trkpt lat="49.50654" lon="-1.61324">
        <ele>138.6</ele>
        <time>2026-03-30T15:02:53.000Z</time>
      </trkpt>
      <trkpt lat="49.50654" lon="-1.61324">
        <ele>138.8</ele>
        <time>2026-03-30T15:02:54.000Z</time>
      </trkpt>
      <trkpt lat="49.50655" lon="-1.61324">
        <ele>139.5</ele>
        <time>2026-03-30T15:02:55.000Z</time>
      </trkpt>
      <trkpt lat="49.50656" lon="-1.61325">
        <ele>138.2</ele>
        <time>2026-03-30T15:02:56.000Z</time>
      </trkpt>
      <trkpt lat="49.50656" lon="-1.61326">
        <ele>139.5</ele>
        <time>2026-03-30T15:02:57.000Z</time>
      </trkpt>
      <trkpt lat="49.50657" lon="-1.61327">
        <ele>138.8</ele>
        <time>2026-03-30T15:02:58.000Z</time>
      </trkpt>
      <trkpt lat="49.50657" lon="-1.61328">
        <ele>138</ele>
        <time>2026-03-30T15:02:59.000Z</time>
      </trkpt>
      <trkpt lat="49.50657" lon="-1.61327">
        <ele>138.3</ele>
        <time>2026-03-30T15:03:00.000Z</time>
      </trkpt>
      <trkpt lat="49.50657" lon="-1.61327">
        <ele>138.2</ele>
        <time>2026-03-30T15:03:01.000Z</time>
      </trkpt>
      <trkpt lat="49.50657" lon="-1.61327">
        <ele>138</ele>
        <time>2026-03-30T15:03:02.000Z</time>
      </trkpt>
      <trkpt lat="49.50657" lon="-1.61326">
        <ele>139.8</ele>
        <time>2026-03-30T15:03:03.000Z</time>
      </trkpt>
      <trkpt lat="49.50657" lon="-1.61326">
        <ele>139.3</ele>
        <time>2026-03-30T15:03:04.000Z</time>
      </trkpt>
      <trkpt lat="49.50657" lon="-1.61324">
        <ele>139</ele>
        <time>2026-03-30T15:03:05.000Z</time>
      </trkpt>
      <trkpt lat="49.50658" lon="-1.61323">
        <ele>138.6</ele>
        <time>2026-03-30T15:03:06.000Z</time>
      </trkpt>
      <trkpt lat="49.50658" lon="-1.61324">
        <ele>138.5</ele>
        <time>2026-03-30T15:03:07.000Z</time>
      </trkpt>
      <trkpt lat="49.50659" lon="-1.61325">
        <ele>138.5</ele>
        <time>2026-03-30T15:03:08.000Z</time>
      </trkpt>
      <trkpt lat="49.5066" lon="-1.61325">
        <ele>138.4</ele>
        <time>2026-03-30T15:03:09.000Z</time>
      </trkpt>
      <trkpt lat="49.5066" lon="-1.61326">
        <ele>138.7</ele>
        <time>2026-03-30T15:03:10.000Z</time>
      </trkpt>
      <trkpt lat="49.5066" lon="-1.61326">
        <ele>139.1</ele>
        <time>2026-03-30T15:03:11.000Z</time>
      </trkpt>
      <trkpt lat="49.50661" lon="-1.61327">
        <ele>139.3</ele>
        <time>2026-03-30T15:03:12.000Z</time>
      </trkpt>
      <trkpt lat="49.50662" lon="-1.61328">
        <ele>138.9</ele>
        <time>2026-03-30T15:03:13.000Z</time>
      </trkpt>
      <trkpt lat="49.50662" lon="-1.61329">
        <ele>139.8</ele>
        <time>2026-03-30T15:03:14.000Z</time>
      </trkpt>
      <trkpt lat="49.50662" lon="-1.6133">
        <ele>140.1</ele>
        <time>2026-03-30T15:03:15.000Z</time>
      </trkpt>
      <trkpt lat="49.50662" lon="-1.6133">
        <ele>140.5</ele>
        <time>2026-03-30T15:03:16.000Z</time>
      </trkpt>
      <trkpt lat="49.50662" lon="-1.6133">
        <ele>140.8</ele>
        <time>2026-03-30T15:03:17.000Z</time>
      </trkpt>
      <trkpt lat="49.50662" lon="-1.61331">
        <ele>141.2</ele>
        <time>2026-03-30T15:03:18.000Z</time>
      </trkpt>
      <trkpt lat="49.50662" lon="-1.61332">
        <ele>140.7</ele>
        <time>2026-03-30T15:03:19.000Z</time>
      </trkpt>
      <trkpt lat="49.50663" lon="-1.61333">
        <ele>140.2</ele>
        <time>2026-03-30T15:03:20.000Z</time>
      </trkpt>
      <trkpt lat="49.50663" lon="-1.61334">
        <ele>140.6</ele>
        <time>2026-03-30T15:03:21.000Z</time>
      </trkpt>
      <trkpt lat="49.50664" lon="-1.61336">
        <ele>140.3</ele>
        <time>2026-03-30T15:03:22.000Z</time>
      </trkpt>
      <trkpt lat="49.50664" lon="-1.61338">
        <ele>139.7</ele>
        <time>2026-03-30T15:03:23.000Z</time>
      </trkpt>
      <trkpt lat="49.50664" lon="-1.61339">
        <ele>140</ele>
        <time>2026-03-30T15:03:24.000Z</time>
      </trkpt>
      <trkpt lat="49.50665" lon="-1.61341">
        <ele>140.1</ele>
        <time>2026-03-30T15:03:25.000Z</time>
      </trkpt>
      <trkpt lat="49.50666" lon="-1.61342">
        <ele>140.2</ele>
        <time>2026-03-30T15:03:26.000Z</time>
      </trkpt>
      <trkpt lat="49.50667" lon="-1.61342">
        <ele>140.6</ele>
        <time>2026-03-30T15:03:27.000Z</time>
      </trkpt>
      <trkpt lat="49.50667" lon="-1.61343">
        <ele>140.9</ele>
        <time>2026-03-30T15:03:28.000Z</time>
      </trkpt>
      <trkpt lat="49.50668" lon="-1.61345">
        <ele>141</ele>
        <time>2026-03-30T15:03:29.000Z</time>
      </trkpt>
      <trkpt lat="49.50668" lon="-1.61346">
        <ele>140.9</ele>
        <time>2026-03-30T15:03:30.000Z</time>
      </trkpt>
      <trkpt lat="49.50669" lon="-1.61347">
        <ele>141</ele>
        <time>2026-03-30T15:03:31.000Z</time>
      </trkpt>
      <trkpt lat="49.50669" lon="-1.61348">
        <ele>140.7</ele>
        <time>2026-03-30T15:03:32.000Z</time>
      </trkpt>
      <trkpt lat="49.5067" lon="-1.61349">
        <ele>141.1</ele>
        <time>2026-03-30T15:03:33.000Z</time>
      </trkpt>
      <trkpt lat="49.5067" lon="-1.61351">
        <ele>141.2</ele>
        <time>2026-03-30T15:03:34.000Z</time>
      </trkpt>
      <trkpt lat="49.50671" lon="-1.61352">
        <ele>141.4</ele>
        <time>2026-03-30T15:03:35.000Z</time>
      </trkpt>
      <trkpt lat="49.50671" lon="-1.61353">
        <ele>141.6</ele>
        <time>2026-03-30T15:03:36.000Z</time>
      </trkpt>
      <trkpt lat="49.50672" lon="-1.61354">
        <ele>142.5</ele>
        <time>2026-03-30T15:03:37.000Z</time>
      </trkpt>
      <trkpt lat="49.50673" lon="-1.61355">
        <ele>142.6</ele>
        <time>2026-03-30T15:03:38.000Z</time>
      </trkpt>
      <trkpt lat="49.50674" lon="-1.61356">
        <ele>142.9</ele>
        <time>2026-03-30T15:03:39.000Z</time>
      </trkpt>
      <trkpt lat="49.50675" lon="-1.61357">
        <ele>143.3</ele>
        <time>2026-03-30T15:03:40.000Z</time>
      </trkpt>
      <trkpt lat="49.50676" lon="-1.61359">
        <ele>143.6</ele>
        <time>2026-03-30T15:03:41.000Z</time>
      </trkpt>
      <trkpt lat="49.50676" lon="-1.6136">
        <ele>142.8</ele>
        <time>2026-03-30T15:03:42.000Z</time>
      </trkpt>
      <trkpt lat="49.50676" lon="-1.61362">
        <ele>142.5</ele>
        <time>2026-03-30T15:03:43.000Z</time>
      </trkpt>
      <trkpt lat="49.50677" lon="-1.61364">
        <ele>143.1</ele>
        <time>2026-03-30T15:03:44.000Z</time>
      </trkpt>
      <trkpt lat="49.50678" lon="-1.61365">
        <ele>143.4</ele>
        <time>2026-03-30T15:03:45.000Z</time>
      </trkpt>
      <trkpt lat="49.50679" lon="-1.61366">
        <ele>142.7</ele>
        <time>2026-03-30T15:03:46.000Z</time>
      </trkpt>
      <trkpt lat="49.50679" lon="-1.61368">
        <ele>141.7</ele>
        <time>2026-03-30T15:03:47.000Z</time>
      </trkpt>
      <trkpt lat="49.5068" lon="-1.61369">
        <ele>142.9</ele>
        <time>2026-03-30T15:03:48.000Z</time>
      </trkpt>
      <trkpt lat="49.5068" lon="-1.6137">
        <ele>142</ele>
        <time>2026-03-30T15:03:49.000Z</time>
      </trkpt>
      <trkpt lat="49.50681" lon="-1.61371">
        <ele>141.7</ele>
        <time>2026-03-30T15:03:50.000Z</time>
      </trkpt>
      <trkpt lat="49.50681" lon="-1.61372">
        <ele>141.3</ele>
        <time>2026-03-30T15:03:51.000Z</time>
      </trkpt>
      <trkpt lat="49.50682" lon="-1.61373">
        <ele>141.1</ele>
        <time>2026-03-30T15:03:52.000Z</time>
      </trkpt>
      <trkpt lat="49.50682" lon="-1.61374">
        <ele>141.3</ele>
        <time>2026-03-30T15:03:53.000Z</time>
      </trkpt>
      <trkpt lat="49.50683" lon="-1.61376">
        <ele>142.2</ele>
        <time>2026-03-30T15:03:54.000Z</time>
      </trkpt>
      <trkpt lat="49.50683" lon="-1.61377">
        <ele>143.7</ele>
        <time>2026-03-30T15:03:55.000Z</time>
      </trkpt>
      <trkpt lat="49.50684" lon="-1.61379">
        <ele>143.2</ele>
        <time>2026-03-30T15:03:56.000Z</time>
      </trkpt>
      <trkpt lat="49.50684" lon="-1.6138">
        <ele>142.4</ele>
        <time>2026-03-30T15:03:57.000Z</time>
      </trkpt>
      <trkpt lat="49.50685" lon="-1.61381">
        <ele>142.4</ele>
        <time>2026-03-30T15:03:58.000Z</time>
      </trkpt>
      <trkpt lat="49.50685" lon="-1.61383">
        <ele>143.3</ele>
        <time>2026-03-30T15:03:59.000Z</time>
      </trkpt>
      <trkpt lat="49.50685" lon="-1.61384">
        <ele>143.8</ele>
        <time>2026-03-30T15:04:00.000Z</time>
      </trkpt>
      <trkpt lat="49.50686" lon="-1.61386">
        <ele>143.1</ele>
        <time>2026-03-30T15:04:01.000Z</time>
      </trkpt>
      <trkpt lat="49.50687" lon="-1.61387">
        <ele>143.8</ele>
        <time>2026-03-30T15:04:02.000Z</time>
      </trkpt>
      <trkpt lat="49.50688" lon="-1.61388">
        <ele>145.5</ele>
        <time>2026-03-30T15:04:03.000Z</time>
      </trkpt>
      <trkpt lat="49.50688" lon="-1.61389">
        <ele>145.5</ele>
        <time>2026-03-30T15:04:04.000Z</time>
      </trkpt>
      <trkpt lat="49.50689" lon="-1.6139">
        <ele>145.2</ele>
        <time>2026-03-30T15:04:05.000Z</time>
      </trkpt>
      <trkpt lat="49.50689" lon="-1.61391">
        <ele>145</ele>
        <time>2026-03-30T15:04:06.000Z</time>
      </trkpt>
      <trkpt lat="49.5069" lon="-1.61393">
        <ele>145.6</ele>
        <time>2026-03-30T15:04:07.000Z</time>
      </trkpt>
      <trkpt lat="49.5069" lon="-1.61394">
        <ele>145</ele>
        <time>2026-03-30T15:04:08.000Z</time>
      </trkpt>
      <trkpt lat="49.50691" lon="-1.61396">
        <ele>144.8</ele>
        <time>2026-03-30T15:04:09.000Z</time>
      </trkpt>
      <trkpt lat="49.50691" lon="-1.61397">
        <ele>144.3</ele>
        <time>2026-03-30T15:04:10.000Z</time>
      </trkpt>
      <trkpt lat="49.50692" lon="-1.61398">
        <ele>144.1</ele>
        <time>2026-03-30T15:04:11.000Z</time>
      </trkpt>
      <trkpt lat="49.50693" lon="-1.614">
        <ele>144</ele>
        <time>2026-03-30T15:04:12.000Z</time>
      </trkpt>
      <trkpt lat="49.50694" lon="-1.614">
        <ele>143.6</ele>
        <time>2026-03-30T15:04:13.000Z</time>
      </trkpt>
      <trkpt lat="49.50694" lon="-1.61402">
        <ele>143.2</ele>
        <time>2026-03-30T15:04:14.000Z</time>
      </trkpt>
      <trkpt lat="49.50695" lon="-1.61403">
        <ele>142.9</ele>
        <time>2026-03-30T15:04:15.000Z</time>
      </trkpt>
      <trkpt lat="49.50695" lon="-1.61405">
        <ele>143.5</ele>
        <time>2026-03-30T15:04:16.000Z</time>
      </trkpt>
      <trkpt lat="49.50696" lon="-1.61406">
        <ele>143.8</ele>
        <time>2026-03-30T15:04:17.000Z</time>
      </trkpt>
      <trkpt lat="49.50697" lon="-1.61407">
        <ele>142.8</ele>
        <time>2026-03-30T15:04:18.000Z</time>
      </trkpt>
      <trkpt lat="49.50698" lon="-1.61409">
        <ele>142.4</ele>
        <time>2026-03-30T15:04:19.000Z</time>
      </trkpt>
      <trkpt lat="49.50698" lon="-1.6141">
        <ele>142.3</ele>
        <time>2026-03-30T15:04:20.000Z</time>
      </trkpt>
      <trkpt lat="49.50699" lon="-1.61412">
        <ele>141.9</ele>
        <time>2026-03-30T15:04:21.000Z</time>
      </trkpt>
      <trkpt lat="49.507" lon="-1.61413">
        <ele>142.5</ele>
        <time>2026-03-30T15:04:22.000Z</time>
      </trkpt>
      <trkpt lat="49.507" lon="-1.61414">
        <ele>143.1</ele>
        <time>2026-03-30T15:04:23.000Z</time>
      </trkpt>
      <trkpt lat="49.50701" lon="-1.61415">
        <ele>141.9</ele>
        <time>2026-03-30T15:04:24.000Z</time>
      </trkpt>
      <trkpt lat="49.50702" lon="-1.61415">
        <ele>141.6</ele>
        <time>2026-03-30T15:04:25.000Z</time>
      </trkpt>
      <trkpt lat="49.50703" lon="-1.61416">
        <ele>141.9</ele>
        <time>2026-03-30T15:04:26.000Z</time>
      </trkpt>
      <trkpt lat="49.50704" lon="-1.61417">
        <ele>142</ele>
        <time>2026-03-30T15:04:27.000Z</time>
      </trkpt>
      <trkpt lat="49.50704" lon="-1.61418">
        <ele>142</ele>
        <time>2026-03-30T15:04:28.000Z</time>
      </trkpt>
      <trkpt lat="49.50705" lon="-1.61419">
        <ele>141.4</ele>
        <time>2026-03-30T15:04:29.000Z</time>
      </trkpt>
      <trkpt lat="49.50706" lon="-1.6142">
        <ele>141.7</ele>
        <time>2026-03-30T15:04:30.000Z</time>
      </trkpt>
      <trkpt lat="49.50707" lon="-1.61421">
        <ele>142.2</ele>
        <time>2026-03-30T15:04:31.000Z</time>
      </trkpt>
      <trkpt lat="49.50708" lon="-1.61423">
        <ele>143.7</ele>
        <time>2026-03-30T15:04:32.000Z</time>
      </trkpt>
      <trkpt lat="49.50709" lon="-1.61424">
        <ele>142.7</ele>
        <time>2026-03-30T15:04:33.000Z</time>
      </trkpt>
      <trkpt lat="49.5071" lon="-1.61425">
        <ele>142.7</ele>
        <time>2026-03-30T15:04:34.000Z</time>
      </trkpt>
      <trkpt lat="49.50711" lon="-1.61426">
        <ele>142.6</ele>
        <time>2026-03-30T15:04:35.000Z</time>
      </trkpt>
      <trkpt lat="49.50712" lon="-1.61427">
        <ele>142.9</ele>
        <time>2026-03-30T15:04:36.000Z</time>
      </trkpt>
      <trkpt lat="49.50713" lon="-1.61428">
        <ele>143.5</ele>
        <time>2026-03-30T15:04:37.000Z</time>
      </trkpt>
      <trkpt lat="49.50714" lon="-1.61429">
        <ele>143.8</ele>
        <time>2026-03-30T15:04:38.000Z</time>
      </trkpt>
      <trkpt lat="49.50715" lon="-1.6143">
        <ele>143.1</ele>
        <time>2026-03-30T15:04:39.000Z</time>
      </trkpt>
      <trkpt lat="49.50716" lon="-1.61431">
        <ele>143.2</ele>
        <time>2026-03-30T15:04:40.000Z</time>
      </trkpt>
      <trkpt lat="49.50717" lon="-1.61432">
        <ele>144</ele>
        <time>2026-03-30T15:04:41.000Z</time>
      </trkpt>
      <trkpt lat="49.50718" lon="-1.61433">
        <ele>145</ele>
        <time>2026-03-30T15:04:42.000Z</time>
      </trkpt>
      <trkpt lat="49.50719" lon="-1.61434">
        <ele>145.3</ele>
        <time>2026-03-30T15:04:43.000Z</time>
      </trkpt>
      <trkpt lat="49.5072" lon="-1.61435">
        <ele>145.4</ele>
        <time>2026-03-30T15:04:44.000Z</time>
      </trkpt>
      <trkpt lat="49.50721" lon="-1.61435">
        <ele>145.4</ele>
        <time>2026-03-30T15:04:45.000Z</time>
      </trkpt>
      <trkpt lat="49.50723" lon="-1.61436">
        <ele>145.5</ele>
        <time>2026-03-30T15:04:46.000Z</time>
      </trkpt>
      <trkpt lat="49.50724" lon="-1.61437">
        <ele>145</ele>
        <time>2026-03-30T15:04:47.000Z</time>
      </trkpt>
      <trkpt lat="49.50725" lon="-1.61437">
        <ele>144.1</ele>
        <time>2026-03-30T15:04:48.000Z</time>
      </trkpt>
      <trkpt lat="49.50726" lon="-1.61438">
        <ele>143.8</ele>
        <time>2026-03-30T15:04:49.000Z</time>
      </trkpt>
      <trkpt lat="49.50728" lon="-1.61439">
        <ele>143.7</ele>
        <time>2026-03-30T15:04:50.000Z</time>
      </trkpt>
      <trkpt lat="49.50729" lon="-1.6144">
        <ele>143.4</ele>
        <time>2026-03-30T15:04:51.000Z</time>
      </trkpt>
      <trkpt lat="49.5073" lon="-1.61441">
        <ele>143.7</ele>
        <time>2026-03-30T15:04:52.000Z</time>
      </trkpt>
      <trkpt lat="49.50731" lon="-1.61442">
        <ele>143.4</ele>
        <time>2026-03-30T15:04:53.000Z</time>
      </trkpt>
      <trkpt lat="49.50733" lon="-1.61443">
        <ele>142.7</ele>
        <time>2026-03-30T15:04:54.000Z</time>
      </trkpt>
      <trkpt lat="49.50734" lon="-1.61443">
        <ele>142.6</ele>
        <time>2026-03-30T15:04:55.000Z</time>
      </trkpt>
      <trkpt lat="49.50735" lon="-1.61444">
        <ele>142.3</ele>
        <time>2026-03-30T15:04:56.000Z</time>
      </trkpt>
      <trkpt lat="49.50736" lon="-1.61445">
        <ele>142.7</ele>
        <time>2026-03-30T15:04:57.000Z</time>
      </trkpt>
      <trkpt lat="49.50737" lon="-1.61445">
        <ele>142.1</ele>
        <time>2026-03-30T15:04:58.000Z</time>
      </trkpt>
      <trkpt lat="49.50739" lon="-1.61446">
        <ele>142.4</ele>
        <time>2026-03-30T15:04:59.000Z</time>
      </trkpt>
      <trkpt lat="49.5074" lon="-1.61446">
        <ele>141.9</ele>
        <time>2026-03-30T15:05:00.000Z</time>
      </trkpt>
      <trkpt lat="49.50741" lon="-1.61446">
        <ele>142.1</ele>
        <time>2026-03-30T15:05:01.000Z</time>
      </trkpt>
      <trkpt lat="49.50742" lon="-1.61447">
        <ele>141.9</ele>
        <time>2026-03-30T15:05:02.000Z</time>
      </trkpt>
      <trkpt lat="49.50744" lon="-1.61448">
        <ele>142</ele>
        <time>2026-03-30T15:05:03.000Z</time>
      </trkpt>
      <trkpt lat="49.50745" lon="-1.61449">
        <ele>142.5</ele>
        <time>2026-03-30T15:05:04.000Z</time>
      </trkpt>
      <trkpt lat="49.50746" lon="-1.61449">
        <ele>142.2</ele>
        <time>2026-03-30T15:05:05.000Z</time>
      </trkpt>
      <trkpt lat="49.50747" lon="-1.61449">
        <ele>142.4</ele>
        <time>2026-03-30T15:05:06.000Z</time>
      </trkpt>
      <trkpt lat="49.50748" lon="-1.6145">
        <ele>142</ele>
        <time>2026-03-30T15:05:07.000Z</time>
      </trkpt>
      <trkpt lat="49.50749" lon="-1.61451">
        <ele>141.9</ele>
        <time>2026-03-30T15:05:08.000Z</time>
      </trkpt>
      <trkpt lat="49.5075" lon="-1.61452">
        <ele>142</ele>
        <time>2026-03-30T15:05:09.000Z</time>
      </trkpt>
      <trkpt lat="49.50752" lon="-1.61453">
        <ele>142</ele>
        <time>2026-03-30T15:05:10.000Z</time>
      </trkpt>
      <trkpt lat="49.50753" lon="-1.61453">
        <ele>142.4</ele>
        <time>2026-03-30T15:05:11.000Z</time>
      </trkpt>
      <trkpt lat="49.50754" lon="-1.61454">
        <ele>141.8</ele>
        <time>2026-03-30T15:05:12.000Z</time>
      </trkpt>
      <trkpt lat="49.50755" lon="-1.61455">
        <ele>141.8</ele>
        <time>2026-03-30T15:05:13.000Z</time>
      </trkpt>
      <trkpt lat="49.50756" lon="-1.61456">
        <ele>142.1</ele>
        <time>2026-03-30T15:05:14.000Z</time>
      </trkpt>
      <trkpt lat="49.50758" lon="-1.61457">
        <ele>141.8</ele>
        <time>2026-03-30T15:05:15.000Z</time>
      </trkpt>
      <trkpt lat="49.50759" lon="-1.61457">
        <ele>142.5</ele>
        <time>2026-03-30T15:05:16.000Z</time>
      </trkpt>
      <trkpt lat="49.5076" lon="-1.61458">
        <ele>143</ele>
        <time>2026-03-30T15:05:17.000Z</time>
      </trkpt>
      <trkpt lat="49.50761" lon="-1.61459">
        <ele>143.4</ele>
        <time>2026-03-30T15:05:18.000Z</time>
      </trkpt>
      <trkpt lat="49.50762" lon="-1.6146">
        <ele>144.2</ele>
        <time>2026-03-30T15:05:19.000Z</time>
      </trkpt>
      <trkpt lat="49.50763" lon="-1.61462">
        <ele>144.2</ele>
        <time>2026-03-30T15:05:20.000Z</time>
      </trkpt>
      <trkpt lat="49.50765" lon="-1.61463">
        <ele>144.4</ele>
        <time>2026-03-30T15:05:21.000Z</time>
      </trkpt>
      <trkpt lat="49.50766" lon="-1.61464">
        <ele>144.1</ele>
        <time>2026-03-30T15:05:22.000Z</time>
      </trkpt>
      <trkpt lat="49.50766" lon="-1.61465">
        <ele>143.8</ele>
        <time>2026-03-30T15:05:23.000Z</time>
      </trkpt>
      <trkpt lat="49.50768" lon="-1.61466">
        <ele>144.1</ele>
        <time>2026-03-30T15:05:24.000Z</time>
      </trkpt>
      <trkpt lat="49.50768" lon="-1.61467">
        <ele>143.8</ele>
        <time>2026-03-30T15:05:25.000Z</time>
      </trkpt>
      <trkpt lat="49.50769" lon="-1.61468">
        <ele>143.7</ele>
        <time>2026-03-30T15:05:26.000Z</time>
      </trkpt>
      <trkpt lat="49.50771" lon="-1.61469">
        <ele>144.2</ele>
        <time>2026-03-30T15:05:27.000Z</time>
      </trkpt>
      <trkpt lat="49.50772" lon="-1.61469">
        <ele>144</ele>
        <time>2026-03-30T15:05:28.000Z</time>
      </trkpt>
      <trkpt lat="49.50772" lon="-1.6147">
        <ele>144</ele>
        <time>2026-03-30T15:05:29.000Z</time>
      </trkpt>
      <trkpt lat="49.50774" lon="-1.61471">
        <ele>144.3</ele>
        <time>2026-03-30T15:05:30.000Z</time>
      </trkpt>
      <trkpt lat="49.50775" lon="-1.61471">
        <ele>144.6</ele>
        <time>2026-03-30T15:05:31.000Z</time>
      </trkpt>
      <trkpt lat="49.50776" lon="-1.61472">
        <ele>144.7</ele>
        <time>2026-03-30T15:05:32.000Z</time>
      </trkpt>
      <trkpt lat="49.50776" lon="-1.61473">
        <ele>144.4</ele>
        <time>2026-03-30T15:05:33.000Z</time>
      </trkpt>
      <trkpt lat="49.50777" lon="-1.61475">
        <ele>145.1</ele>
        <time>2026-03-30T15:05:34.000Z</time>
      </trkpt>
      <trkpt lat="49.50779" lon="-1.61476">
        <ele>147.7</ele>
        <time>2026-03-30T15:05:35.000Z</time>
      </trkpt>
      <trkpt lat="49.50781" lon="-1.61477">
        <ele>148.4</ele>
        <time>2026-03-30T15:05:36.000Z</time>
      </trkpt>
      <trkpt lat="49.50783" lon="-1.61478">
        <ele>148.7</ele>
        <time>2026-03-30T15:05:37.000Z</time>
      </trkpt>
      <trkpt lat="49.50785" lon="-1.61479">
        <ele>149</ele>
        <time>2026-03-30T15:05:38.000Z</time>
      </trkpt>
      <trkpt lat="49.50786" lon="-1.61479">
        <ele>149.8</ele>
        <time>2026-03-30T15:05:39.000Z</time>
      </trkpt>
      <trkpt lat="49.50787" lon="-1.61479">
        <ele>149.8</ele>
        <time>2026-03-30T15:05:40.000Z</time>
      </trkpt>
      <trkpt lat="49.50788" lon="-1.61481">
        <ele>150.2</ele>
        <time>2026-03-30T15:05:41.000Z</time>
      </trkpt>
      <trkpt lat="49.50789" lon="-1.61482">
        <ele>151.2</ele>
        <time>2026-03-30T15:05:42.000Z</time>
      </trkpt>
      <trkpt lat="49.50791" lon="-1.61483">
        <ele>150.7</ele>
        <time>2026-03-30T15:05:43.000Z</time>
      </trkpt>
      <trkpt lat="49.50792" lon="-1.61485">
        <ele>151.4</ele>
        <time>2026-03-30T15:05:44.000Z</time>
      </trkpt>
      <trkpt lat="49.50793" lon="-1.61486">
        <ele>151.9</ele>
        <time>2026-03-30T15:05:45.000Z</time>
      </trkpt>
      <trkpt lat="49.50794" lon="-1.61487">
        <ele>151.6</ele>
        <time>2026-03-30T15:05:46.000Z</time>
      </trkpt>
      <trkpt lat="49.50795" lon="-1.61489">
        <ele>151.9</ele>
        <time>2026-03-30T15:05:47.000Z</time>
      </trkpt>
      <trkpt lat="49.50796" lon="-1.6149">
        <ele>152.2</ele>
        <time>2026-03-30T15:05:48.000Z</time>
      </trkpt>
      <trkpt lat="49.50796" lon="-1.61492">
        <ele>152.5</ele>
        <time>2026-03-30T15:05:49.000Z</time>
      </trkpt>
      <trkpt lat="49.50797" lon="-1.61493">
        <ele>153.1</ele>
        <time>2026-03-30T15:05:50.000Z</time>
      </trkpt>
      <trkpt lat="49.50798" lon="-1.61494">
        <ele>153.2</ele>
        <time>2026-03-30T15:05:51.000Z</time>
      </trkpt>
      <trkpt lat="49.50799" lon="-1.61496">
        <ele>153.2</ele>
        <time>2026-03-30T15:05:52.000Z</time>
      </trkpt>
      <trkpt lat="49.508" lon="-1.61498">
        <ele>153.3</ele>
        <time>2026-03-30T15:05:53.000Z</time>
      </trkpt>
      <trkpt lat="49.50801" lon="-1.61499">
        <ele>153.7</ele>
        <time>2026-03-30T15:05:54.000Z</time>
      </trkpt>
      <trkpt lat="49.50802" lon="-1.615">
        <ele>153.5</ele>
        <time>2026-03-30T15:05:55.000Z</time>
      </trkpt>
      <trkpt lat="49.50803" lon="-1.61501">
        <ele>153.2</ele>
        <time>2026-03-30T15:05:56.000Z</time>
      </trkpt>
      <trkpt lat="49.50804" lon="-1.61503">
        <ele>153.2</ele>
        <time>2026-03-30T15:05:57.000Z</time>
      </trkpt>
      <trkpt lat="49.50806" lon="-1.61504">
        <ele>153.5</ele>
        <time>2026-03-30T15:05:58.000Z</time>
      </trkpt>
      <trkpt lat="49.50807" lon="-1.61505">
        <ele>153.9</ele>
        <time>2026-03-30T15:05:59.000Z</time>
      </trkpt>
      <trkpt lat="49.50808" lon="-1.61506">
        <ele>154.3</ele>
        <time>2026-03-30T15:06:00.000Z</time>
      </trkpt>
      <trkpt lat="49.50809" lon="-1.61507">
        <ele>154.7</ele>
        <time>2026-03-30T15:06:01.000Z</time>
      </trkpt>
      <trkpt lat="49.5081" lon="-1.61509">
        <ele>154.7</ele>
        <time>2026-03-30T15:06:02.000Z</time>
      </trkpt>
      <trkpt lat="49.5081" lon="-1.6151">
        <ele>153.4</ele>
        <time>2026-03-30T15:06:03.000Z</time>
      </trkpt>
      <trkpt lat="49.50811" lon="-1.61511">
        <ele>154</ele>
        <time>2026-03-30T15:06:04.000Z</time>
      </trkpt>
      <trkpt lat="49.50812" lon="-1.61512">
        <ele>154.6</ele>
        <time>2026-03-30T15:06:05.000Z</time>
      </trkpt>
      <trkpt lat="49.50813" lon="-1.61513">
        <ele>154.9</ele>
        <time>2026-03-30T15:06:06.000Z</time>
      </trkpt>
      <trkpt lat="49.50814" lon="-1.61514">
        <ele>155.2</ele>
        <time>2026-03-30T15:06:07.000Z</time>
      </trkpt>
      <trkpt lat="49.50815" lon="-1.61515">
        <ele>154.7</ele>
        <time>2026-03-30T15:06:08.000Z</time>
      </trkpt>
      <trkpt lat="49.50816" lon="-1.61516">
        <ele>154.6</ele>
        <time>2026-03-30T15:06:09.000Z</time>
      </trkpt>
      <trkpt lat="49.50817" lon="-1.61516">
        <ele>154.3</ele>
        <time>2026-03-30T15:06:10.000Z</time>
      </trkpt>
      <trkpt lat="49.50818" lon="-1.61517">
        <ele>154.2</ele>
        <time>2026-03-30T15:06:11.000Z</time>
      </trkpt>
      <trkpt lat="49.50819" lon="-1.61518">
        <ele>154.6</ele>
        <time>2026-03-30T15:06:12.000Z</time>
      </trkpt>
      <trkpt lat="49.50821" lon="-1.61518">
        <ele>154.7</ele>
        <time>2026-03-30T15:06:13.000Z</time>
      </trkpt>
      <trkpt lat="49.50822" lon="-1.61519">
        <ele>155</ele>
        <time>2026-03-30T15:06:14.000Z</time>
      </trkpt>
      <trkpt lat="49.50823" lon="-1.61519">
        <ele>155.7</ele>
        <time>2026-03-30T15:06:15.000Z</time>
      </trkpt>
      <trkpt lat="49.50824" lon="-1.6152">
        <ele>153.7</ele>
        <time>2026-03-30T15:06:16.000Z</time>
      </trkpt>
      <trkpt lat="49.50825" lon="-1.6152">
        <ele>152.9</ele>
        <time>2026-03-30T15:06:17.000Z</time>
      </trkpt>
      <trkpt lat="49.50826" lon="-1.61518">
        <ele>153.6</ele>
        <time>2026-03-30T15:06:18.000Z</time>
      </trkpt>
      <trkpt lat="49.50826" lon="-1.61517">
        <ele>153.8</ele>
        <time>2026-03-30T15:06:19.000Z</time>
      </trkpt>
      <trkpt lat="49.50826" lon="-1.61518">
        <ele>152.9</ele>
        <time>2026-03-30T15:06:20.000Z</time>
      </trkpt>
      <trkpt lat="49.50826" lon="-1.61518">
        <ele>152.9</ele>
        <time>2026-03-30T15:06:21.000Z</time>
      </trkpt>
      <trkpt lat="49.50826" lon="-1.61518">
        <ele>153.4</ele>
        <time>2026-03-30T15:06:22.000Z</time>
      </trkpt>
      <trkpt lat="49.50826" lon="-1.61518">
        <ele>153.4</ele>
        <time>2026-03-30T15:06:23.000Z</time>
      </trkpt>
      <trkpt lat="49.50826" lon="-1.61517">
        <ele>154.1</ele>
        <time>2026-03-30T15:06:24.000Z</time>
      </trkpt>
      <trkpt lat="49.50826" lon="-1.61517">
        <ele>153.9</ele>
        <time>2026-03-30T15:06:25.000Z</time>
      </trkpt>
      <trkpt lat="49.50827" lon="-1.61518">
        <ele>153.8</ele>
        <time>2026-03-30T15:06:26.000Z</time>
      </trkpt>
      <trkpt lat="49.50827" lon="-1.61518">
        <ele>153.4</ele>
        <time>2026-03-30T15:06:27.000Z</time>
      </trkpt>
      <trkpt lat="49.50828" lon="-1.61519">
        <ele>153</ele>
        <time>2026-03-30T15:06:28.000Z</time>
      </trkpt>
      <trkpt lat="49.50829" lon="-1.61519">
        <ele>153.1</ele>
        <time>2026-03-30T15:06:29.000Z</time>
      </trkpt>
      <trkpt lat="49.5083" lon="-1.6152">
        <ele>153.5</ele>
        <time>2026-03-30T15:06:30.000Z</time>
      </trkpt>
      <trkpt lat="49.50832" lon="-1.61519">
        <ele>153.6</ele>
        <time>2026-03-30T15:06:31.000Z</time>
      </trkpt>
      <trkpt lat="49.50833" lon="-1.61517">
        <ele>155.2</ele>
        <time>2026-03-30T15:06:32.000Z</time>
      </trkpt>
      <trkpt lat="49.50834" lon="-1.61516">
        <ele>155.8</ele>
        <time>2026-03-30T15:06:33.000Z</time>
      </trkpt>
      <trkpt lat="49.50835" lon="-1.61514">
        <ele>156.5</ele>
        <time>2026-03-30T15:06:34.000Z</time>
      </trkpt>
      <trkpt lat="49.50836" lon="-1.61513">
        <ele>156.7</ele>
        <time>2026-03-30T15:06:35.000Z</time>
      </trkpt>
      <trkpt lat="49.50837" lon="-1.61512">
        <ele>156.9</ele>
        <time>2026-03-30T15:06:36.000Z</time>
      </trkpt>
      <trkpt lat="49.50838" lon="-1.6151">
        <ele>157</ele>
        <time>2026-03-30T15:06:37.000Z</time>
      </trkpt>
      <trkpt lat="49.50839" lon="-1.61509">
        <ele>157.1</ele>
        <time>2026-03-30T15:06:38.000Z</time>
      </trkpt>
      <trkpt lat="49.5084" lon="-1.61508">
        <ele>157.3</ele>
        <time>2026-03-30T15:06:39.000Z</time>
      </trkpt>
      <trkpt lat="49.50841" lon="-1.61506">
        <ele>156.7</ele>
        <time>2026-03-30T15:06:40.000Z</time>
      </trkpt>
      <trkpt lat="49.50842" lon="-1.61504">
        <ele>156.2</ele>
        <time>2026-03-30T15:06:41.000Z</time>
      </trkpt>
      <trkpt lat="49.50843" lon="-1.61503">
        <ele>155.8</ele>
        <time>2026-03-30T15:06:42.000Z</time>
      </trkpt>
      <trkpt lat="49.50844" lon="-1.61501">
        <ele>155.8</ele>
        <time>2026-03-30T15:06:43.000Z</time>
      </trkpt>
      <trkpt lat="49.50845" lon="-1.615">
        <ele>155.5</ele>
        <time>2026-03-30T15:06:44.000Z</time>
      </trkpt>
      <trkpt lat="49.50846" lon="-1.61498">
        <ele>155.4</ele>
        <time>2026-03-30T15:06:45.000Z</time>
      </trkpt>
      <trkpt lat="49.50847" lon="-1.61497">
        <ele>155.1</ele>
        <time>2026-03-30T15:06:46.000Z</time>
      </trkpt>
      <trkpt lat="49.50848" lon="-1.61495">
        <ele>155.3</ele>
        <time>2026-03-30T15:06:47.000Z</time>
      </trkpt>
      <trkpt lat="49.50849" lon="-1.61494">
        <ele>155.5</ele>
        <time>2026-03-30T15:06:48.000Z</time>
      </trkpt>
      <trkpt lat="49.5085" lon="-1.61492">
        <ele>156</ele>
        <time>2026-03-30T15:06:49.000Z</time>
      </trkpt>
      <trkpt lat="49.5085" lon="-1.6149">
        <ele>156.3</ele>
        <time>2026-03-30T15:06:50.000Z</time>
      </trkpt>
      <trkpt lat="49.50851" lon="-1.61489">
        <ele>155.9</ele>
        <time>2026-03-30T15:06:51.000Z</time>
      </trkpt>
      <trkpt lat="49.50852" lon="-1.61488">
        <ele>155.5</ele>
        <time>2026-03-30T15:06:52.000Z</time>
      </trkpt>
      <trkpt lat="49.50853" lon="-1.61487">
        <ele>155.4</ele>
        <time>2026-03-30T15:06:53.000Z</time>
      </trkpt>
      <trkpt lat="49.50854" lon="-1.61486">
        <ele>155.6</ele>
        <time>2026-03-30T15:06:54.000Z</time>
      </trkpt>
      <trkpt lat="49.50855" lon="-1.61485">
        <ele>155.8</ele>
        <time>2026-03-30T15:06:55.000Z</time>
      </trkpt>
      <trkpt lat="49.50856" lon="-1.61483">
        <ele>155.7</ele>
        <time>2026-03-30T15:06:56.000Z</time>
      </trkpt>
      <trkpt lat="49.50857" lon="-1.61482">
        <ele>155.6</ele>
        <time>2026-03-30T15:06:57.000Z</time>
      </trkpt>
      <trkpt lat="49.50858" lon="-1.6148">
        <ele>155.3</ele>
        <time>2026-03-30T15:06:58.000Z</time>
      </trkpt>
      <trkpt lat="49.50859" lon="-1.61479">
        <ele>155.3</ele>
        <time>2026-03-30T15:06:59.000Z</time>
      </trkpt>
      <trkpt lat="49.5086" lon="-1.61477">
        <ele>155.3</ele>
        <time>2026-03-30T15:07:00.000Z</time>
      </trkpt>
      <trkpt lat="49.50861" lon="-1.61476">
        <ele>155.9</ele>
        <time>2026-03-30T15:07:01.000Z</time>
      </trkpt>
      <trkpt lat="49.50862" lon="-1.61475">
        <ele>157.2</ele>
        <time>2026-03-30T15:07:02.000Z</time>
      </trkpt>
      <trkpt lat="49.50863" lon="-1.61473">
        <ele>158.1</ele>
        <time>2026-03-30T15:07:03.000Z</time>
      </trkpt>
      <trkpt lat="49.50864" lon="-1.6147">
        <ele>159.2</ele>
        <time>2026-03-30T15:07:04.000Z</time>
      </trkpt>
      <trkpt lat="49.50864" lon="-1.61468">
        <ele>159.2</ele>
        <time>2026-03-30T15:07:05.000Z</time>
      </trkpt>
      <trkpt lat="49.50865" lon="-1.61466">
        <ele>158.4</ele>
        <time>2026-03-30T15:07:06.000Z</time>
      </trkpt>
      <trkpt lat="49.50867" lon="-1.61464">
        <ele>158.6</ele>
        <time>2026-03-30T15:07:07.000Z</time>
      </trkpt>
      <trkpt lat="49.50868" lon="-1.61462">
        <ele>158.9</ele>
        <time>2026-03-30T15:07:08.000Z</time>
      </trkpt>
      <trkpt lat="49.50868" lon="-1.61461">
        <ele>161</ele>
        <time>2026-03-30T15:07:09.000Z</time>
      </trkpt>
      <trkpt lat="49.50868" lon="-1.61459">
        <ele>162.1</ele>
        <time>2026-03-30T15:07:10.000Z</time>
      </trkpt>
      <trkpt lat="49.50869" lon="-1.61458">
        <ele>164.2</ele>
        <time>2026-03-30T15:07:11.000Z</time>
      </trkpt>
      <trkpt lat="49.50868" lon="-1.61458">
        <ele>162.8</ele>
        <time>2026-03-30T15:07:12.000Z</time>
      </trkpt>
      <trkpt lat="49.50867" lon="-1.61459">
        <ele>162.9</ele>
        <time>2026-03-30T15:07:13.000Z</time>
      </trkpt>
      <trkpt lat="49.50867" lon="-1.61459">
        <ele>162.9</ele>
        <time>2026-03-30T15:07:14.000Z</time>
      </trkpt>
      <trkpt lat="49.50867" lon="-1.61459">
        <ele>162.9</ele>
        <time>2026-03-30T15:07:15.000Z</time>
      </trkpt>
      <trkpt lat="49.50867" lon="-1.61459">
        <ele>162.9</ele>
        <time>2026-03-30T15:07:16.000Z</time>
      </trkpt>
      <trkpt lat="49.50868" lon="-1.61459">
        <ele>162.9</ele>
        <time>2026-03-30T15:07:17.000Z</time>
      </trkpt>
      <trkpt lat="49.50869" lon="-1.61459">
        <ele>162.5</ele>
        <time>2026-03-30T15:07:18.000Z</time>
      </trkpt>
      <trkpt lat="49.5087" lon="-1.61458">
        <ele>162.5</ele>
        <time>2026-03-30T15:07:19.000Z</time>
      </trkpt>
      <trkpt lat="49.50871" lon="-1.61457">
        <ele>162.7</ele>
        <time>2026-03-30T15:07:20.000Z</time>
      </trkpt>
      <trkpt lat="49.50872" lon="-1.61455">
        <ele>162.4</ele>
        <time>2026-03-30T15:07:21.000Z</time>
      </trkpt>
      <trkpt lat="49.50873" lon="-1.61453">
        <ele>162.3</ele>
        <time>2026-03-30T15:07:22.000Z</time>
      </trkpt>
      <trkpt lat="49.50874" lon="-1.61452">
        <ele>162.7</ele>
        <time>2026-03-30T15:07:23.000Z</time>
      </trkpt>
      <trkpt lat="49.50875" lon="-1.61449">
        <ele>162.9</ele>
        <time>2026-03-30T15:07:24.000Z</time>
      </trkpt>
      <trkpt lat="49.50874" lon="-1.61447">
        <ele>162.8</ele>
        <time>2026-03-30T15:07:25.000Z</time>
      </trkpt>
      <trkpt lat="49.50873" lon="-1.61445">
        <ele>162.5</ele>
        <time>2026-03-30T15:07:26.000Z</time>
      </trkpt>
      <trkpt lat="49.50871" lon="-1.61446">
        <ele>163.4</ele>
        <time>2026-03-30T15:07:27.000Z</time>
      </trkpt>
      <trkpt lat="49.50871" lon="-1.61447">
        <ele>162.4</ele>
        <time>2026-03-30T15:07:28.000Z</time>
      </trkpt>
      <trkpt lat="49.50873" lon="-1.61447">
        <ele>162</ele>
        <time>2026-03-30T15:07:29.000Z</time>
      </trkpt>
      <trkpt lat="49.50873" lon="-1.61447">
        <ele>162.4</ele>
        <time>2026-03-30T15:07:30.000Z</time>
      </trkpt>
      <trkpt lat="49.50873" lon="-1.61447">
        <ele>162.4</ele>
        <time>2026-03-30T15:07:31.000Z</time>
      </trkpt>
      <trkpt lat="49.50874" lon="-1.61447">
        <ele>162.9</ele>
        <time>2026-03-30T15:07:32.000Z</time>
      </trkpt>
      <trkpt lat="49.50875" lon="-1.61446">
        <ele>163.4</ele>
        <time>2026-03-30T15:07:33.000Z</time>
      </trkpt>
      <trkpt lat="49.50875" lon="-1.61444">
        <ele>162.7</ele>
        <time>2026-03-30T15:07:34.000Z</time>
      </trkpt>
      <trkpt lat="49.50877" lon="-1.61443">
        <ele>163.1</ele>
        <time>2026-03-30T15:07:35.000Z</time>
      </trkpt>
      <trkpt lat="49.50878" lon="-1.61441">
        <ele>162.9</ele>
        <time>2026-03-30T15:07:36.000Z</time>
      </trkpt>
      <trkpt lat="49.50879" lon="-1.6144">
        <ele>162.8</ele>
        <time>2026-03-30T15:07:37.000Z</time>
      </trkpt>
      <trkpt lat="49.5088" lon="-1.61439">
        <ele>163.2</ele>
        <time>2026-03-30T15:07:38.000Z</time>
      </trkpt>
      <trkpt lat="49.50881" lon="-1.61439">
        <ele>163.1</ele>
        <time>2026-03-30T15:07:39.000Z</time>
      </trkpt>
      <trkpt lat="49.50881" lon="-1.61438">
        <ele>162.8</ele>
        <time>2026-03-30T15:07:40.000Z</time>
      </trkpt>
      <trkpt lat="49.50882" lon="-1.61436">
        <ele>161.8</ele>
        <time>2026-03-30T15:07:41.000Z</time>
      </trkpt>
      <trkpt lat="49.50883" lon="-1.61435">
        <ele>161.6</ele>
        <time>2026-03-30T15:07:42.000Z</time>
      </trkpt>
      <trkpt lat="49.50883" lon="-1.61434">
        <ele>162.4</ele>
        <time>2026-03-30T15:07:43.000Z</time>
      </trkpt>
      <trkpt lat="49.50884" lon="-1.61432">
        <ele>162.3</ele>
        <time>2026-03-30T15:07:44.000Z</time>
      </trkpt>
      <trkpt lat="49.50884" lon="-1.61431">
        <ele>162.1</ele>
        <time>2026-03-30T15:07:45.000Z</time>
      </trkpt>
      <trkpt lat="49.50885" lon="-1.61429">
        <ele>162.4</ele>
        <time>2026-03-30T15:07:46.000Z</time>
      </trkpt>
      <trkpt lat="49.50886" lon="-1.61428">
        <ele>162.4</ele>
        <time>2026-03-30T15:07:47.000Z</time>
      </trkpt>
      <trkpt lat="49.50886" lon="-1.61426">
        <ele>161.8</ele>
        <time>2026-03-30T15:07:48.000Z</time>
      </trkpt>
      <trkpt lat="49.50887" lon="-1.61425">
        <ele>162.2</ele>
        <time>2026-03-30T15:07:49.000Z</time>
      </trkpt>
      <trkpt lat="49.50888" lon="-1.61423">
        <ele>161.9</ele>
        <time>2026-03-30T15:07:50.000Z</time>
      </trkpt>
      <trkpt lat="49.50889" lon="-1.61421">
        <ele>162.1</ele>
        <time>2026-03-30T15:07:51.000Z</time>
      </trkpt>
      <trkpt lat="49.5089" lon="-1.6142">
        <ele>161.9</ele>
        <time>2026-03-30T15:07:52.000Z</time>
      </trkpt>
      <trkpt lat="49.5089" lon="-1.61418">
        <ele>161.9</ele>
        <time>2026-03-30T15:07:53.000Z</time>
      </trkpt>
      <trkpt lat="49.50891" lon="-1.61416">
        <ele>162.2</ele>
        <time>2026-03-30T15:07:54.000Z</time>
      </trkpt>
      <trkpt lat="49.50892" lon="-1.61415">
        <ele>161.9</ele>
        <time>2026-03-30T15:07:55.000Z</time>
      </trkpt>
      <trkpt lat="49.50893" lon="-1.61413">
        <ele>161.7</ele>
        <time>2026-03-30T15:07:56.000Z</time>
      </trkpt>
      <trkpt lat="49.50893" lon="-1.61411">
        <ele>161.9</ele>
        <time>2026-03-30T15:07:57.000Z</time>
      </trkpt>
      <trkpt lat="49.50894" lon="-1.61409">
        <ele>161.8</ele>
        <time>2026-03-30T15:07:58.000Z</time>
      </trkpt>
      <trkpt lat="49.50895" lon="-1.61408">
        <ele>161.7</ele>
        <time>2026-03-30T15:07:59.000Z</time>
      </trkpt>
      <trkpt lat="49.50896" lon="-1.61407">
        <ele>161.3</ele>
        <time>2026-03-30T15:08:00.000Z</time>
      </trkpt>
      <trkpt lat="49.50898" lon="-1.61405">
        <ele>161</ele>
        <time>2026-03-30T15:08:01.000Z</time>
      </trkpt>
      <trkpt lat="49.50899" lon="-1.61404">
        <ele>161.2</ele>
        <time>2026-03-30T15:08:02.000Z</time>
      </trkpt>
      <trkpt lat="49.509" lon="-1.61403">
        <ele>161.2</ele>
        <time>2026-03-30T15:08:03.000Z</time>
      </trkpt>
      <trkpt lat="49.50901" lon="-1.61401">
        <ele>161.2</ele>
        <time>2026-03-30T15:08:04.000Z</time>
      </trkpt>
      <trkpt lat="49.50901" lon="-1.61399">
        <ele>161.1</ele>
        <time>2026-03-30T15:08:05.000Z</time>
      </trkpt>
      <trkpt lat="49.50902" lon="-1.61398">
        <ele>160.9</ele>
        <time>2026-03-30T15:08:06.000Z</time>
      </trkpt>
      <trkpt lat="49.50903" lon="-1.61396">
        <ele>160.8</ele>
        <time>2026-03-30T15:08:07.000Z</time>
      </trkpt>
      <trkpt lat="49.50904" lon="-1.61395">
        <ele>161</ele>
        <time>2026-03-30T15:08:08.000Z</time>
      </trkpt>
      <trkpt lat="49.50906" lon="-1.61393">
        <ele>160.4</ele>
        <time>2026-03-30T15:08:09.000Z</time>
      </trkpt>
      <trkpt lat="49.50907" lon="-1.61392">
        <ele>160.4</ele>
        <time>2026-03-30T15:08:10.000Z</time>
      </trkpt>
      <trkpt lat="49.50907" lon="-1.6139">
        <ele>160.2</ele>
        <time>2026-03-30T15:08:11.000Z</time>
      </trkpt>
      <trkpt lat="49.50908" lon="-1.61388">
        <ele>159.7</ele>
        <time>2026-03-30T15:08:12.000Z</time>
      </trkpt>
      <trkpt lat="49.50909" lon="-1.61387">
        <ele>159.4</ele>
        <time>2026-03-30T15:08:13.000Z</time>
      </trkpt>
      <trkpt lat="49.5091" lon="-1.61385">
        <ele>159.6</ele>
        <time>2026-03-30T15:08:14.000Z</time>
      </trkpt>
      <trkpt lat="49.5091" lon="-1.61383">
        <ele>159.5</ele>
        <time>2026-03-30T15:08:15.000Z</time>
      </trkpt>
      <trkpt lat="49.50911" lon="-1.61382">
        <ele>158.7</ele>
        <time>2026-03-30T15:08:16.000Z</time>
      </trkpt>
      <trkpt lat="49.50911" lon="-1.6138">
        <ele>158.9</ele>
        <time>2026-03-30T15:08:17.000Z</time>
      </trkpt>
      <trkpt lat="49.50911" lon="-1.61378">
        <ele>159.5</ele>
        <time>2026-03-30T15:08:18.000Z</time>
      </trkpt>
      <trkpt lat="49.50912" lon="-1.61376">
        <ele>161.1</ele>
        <time>2026-03-30T15:08:19.000Z</time>
      </trkpt>
      <trkpt lat="49.50914" lon="-1.61374">
        <ele>161.7</ele>
        <time>2026-03-30T15:08:20.000Z</time>
      </trkpt>
      <trkpt lat="49.50914" lon="-1.61372">
        <ele>161.9</ele>
        <time>2026-03-30T15:08:21.000Z</time>
      </trkpt>
      <trkpt lat="49.50915" lon="-1.6137">
        <ele>162</ele>
        <time>2026-03-30T15:08:22.000Z</time>
      </trkpt>
      <trkpt lat="49.50915" lon="-1.61369">
        <ele>162.5</ele>
        <time>2026-03-30T15:08:23.000Z</time>
      </trkpt>
      <trkpt lat="49.50916" lon="-1.61367">
        <ele>162.3</ele>
        <time>2026-03-30T15:08:24.000Z</time>
      </trkpt>
      <trkpt lat="49.50917" lon="-1.61365">
        <ele>162.1</ele>
        <time>2026-03-30T15:08:25.000Z</time>
      </trkpt>
      <trkpt lat="49.50918" lon="-1.61364">
        <ele>163.4</ele>
        <time>2026-03-30T15:08:26.000Z</time>
      </trkpt>
      <trkpt lat="49.50919" lon="-1.61362">
        <ele>163.4</ele>
        <time>2026-03-30T15:08:27.000Z</time>
      </trkpt>
      <trkpt lat="49.5092" lon="-1.61359">
        <ele>164</ele>
        <time>2026-03-30T15:08:28.000Z</time>
      </trkpt>
      <trkpt lat="49.50921" lon="-1.61358">
        <ele>164</ele>
        <time>2026-03-30T15:08:29.000Z</time>
      </trkpt>
      <trkpt lat="49.50923" lon="-1.61356">
        <ele>164.2</ele>
        <time>2026-03-30T15:08:30.000Z</time>
      </trkpt>
      <trkpt lat="49.50924" lon="-1.61355">
        <ele>163.4</ele>
        <time>2026-03-30T15:08:31.000Z</time>
      </trkpt>
      <trkpt lat="49.50925" lon="-1.61354">
        <ele>162.7</ele>
        <time>2026-03-30T15:08:32.000Z</time>
      </trkpt>
      <trkpt lat="49.50926" lon="-1.61352">
        <ele>162.3</ele>
        <time>2026-03-30T15:08:33.000Z</time>
      </trkpt>
      <trkpt lat="49.50927" lon="-1.6135">
        <ele>161.9</ele>
        <time>2026-03-30T15:08:34.000Z</time>
      </trkpt>
      <trkpt lat="49.50929" lon="-1.61348">
        <ele>161.8</ele>
        <time>2026-03-30T15:08:35.000Z</time>
      </trkpt>
      <trkpt lat="49.5093" lon="-1.61347">
        <ele>161.8</ele>
        <time>2026-03-30T15:08:36.000Z</time>
      </trkpt>
      <trkpt lat="49.5093" lon="-1.61345">
        <ele>161.7</ele>
        <time>2026-03-30T15:08:37.000Z</time>
      </trkpt>
      <trkpt lat="49.50932" lon="-1.61344">
        <ele>161.5</ele>
        <time>2026-03-30T15:08:38.000Z</time>
      </trkpt>
      <trkpt lat="49.50932" lon="-1.61342">
        <ele>161</ele>
        <time>2026-03-30T15:08:39.000Z</time>
      </trkpt>
      <trkpt lat="49.50934" lon="-1.61341">
        <ele>160.9</ele>
        <time>2026-03-30T15:08:40.000Z</time>
      </trkpt>
      <trkpt lat="49.50935" lon="-1.61339">
        <ele>161</ele>
        <time>2026-03-30T15:08:41.000Z</time>
      </trkpt>
      <trkpt lat="49.50936" lon="-1.61337">
        <ele>161.8</ele>
        <time>2026-03-30T15:08:42.000Z</time>
      </trkpt>
      <trkpt lat="49.50937" lon="-1.61336">
        <ele>162</ele>
        <time>2026-03-30T15:08:43.000Z</time>
      </trkpt>
      <trkpt lat="49.50939" lon="-1.61334">
        <ele>162.1</ele>
        <time>2026-03-30T15:08:44.000Z</time>
      </trkpt>
      <trkpt lat="49.5094" lon="-1.61333">
        <ele>161.8</ele>
        <time>2026-03-30T15:08:45.000Z</time>
      </trkpt>
      <trkpt lat="49.50942" lon="-1.61332">
        <ele>161.8</ele>
        <time>2026-03-30T15:08:46.000Z</time>
      </trkpt>
      <trkpt lat="49.50943" lon="-1.6133">
        <ele>161.8</ele>
        <time>2026-03-30T15:08:47.000Z</time>
      </trkpt>
      <trkpt lat="49.50944" lon="-1.61329">
        <ele>162.2</ele>
        <time>2026-03-30T15:08:48.000Z</time>
      </trkpt>
      <trkpt lat="49.50945" lon="-1.61327">
        <ele>162.2</ele>
        <time>2026-03-30T15:08:49.000Z</time>
      </trkpt>
      <trkpt lat="49.50947" lon="-1.61325">
        <ele>162.4</ele>
        <time>2026-03-30T15:08:50.000Z</time>
      </trkpt>
      <trkpt lat="49.50948" lon="-1.61324">
        <ele>162.2</ele>
        <time>2026-03-30T15:08:51.000Z</time>
      </trkpt>
      <trkpt lat="49.50949" lon="-1.61323">
        <ele>162.5</ele>
        <time>2026-03-30T15:08:52.000Z</time>
      </trkpt>
      <trkpt lat="49.5095" lon="-1.61321">
        <ele>162.2</ele>
        <time>2026-03-30T15:08:53.000Z</time>
      </trkpt>
      <trkpt lat="49.50952" lon="-1.6132">
        <ele>162.3</ele>
        <time>2026-03-30T15:08:54.000Z</time>
      </trkpt>
      <trkpt lat="49.50953" lon="-1.61318">
        <ele>162.5</ele>
        <time>2026-03-30T15:08:55.000Z</time>
      </trkpt>
      <trkpt lat="49.50955" lon="-1.61317">
        <ele>162.3</ele>
        <time>2026-03-30T15:08:56.000Z</time>
      </trkpt>
      <trkpt lat="49.50956" lon="-1.61316">
        <ele>162.4</ele>
        <time>2026-03-30T15:08:57.000Z</time>
      </trkpt>
      <trkpt lat="49.50957" lon="-1.61315">
        <ele>162.8</ele>
        <time>2026-03-30T15:08:58.000Z</time>
      </trkpt>
      <trkpt lat="49.50959" lon="-1.61314">
        <ele>162.7</ele>
        <time>2026-03-30T15:08:59.000Z</time>
      </trkpt>
      <trkpt lat="49.5096" lon="-1.61313">
        <ele>162.7</ele>
        <time>2026-03-30T15:09:00.000Z</time>
      </trkpt>
      <trkpt lat="49.50961" lon="-1.61312">
        <ele>162.6</ele>
        <time>2026-03-30T15:09:01.000Z</time>
      </trkpt>
      <trkpt lat="49.50963" lon="-1.61311">
        <ele>163</ele>
        <time>2026-03-30T15:09:02.000Z</time>
      </trkpt>
      <trkpt lat="49.50964" lon="-1.61309">
        <ele>162.7</ele>
        <time>2026-03-30T15:09:03.000Z</time>
      </trkpt>
      <trkpt lat="49.50965" lon="-1.61309">
        <ele>160.1</ele>
        <time>2026-03-30T15:09:04.000Z</time>
      </trkpt>
      <trkpt lat="49.50966" lon="-1.61308">
        <ele>159.3</ele>
        <time>2026-03-30T15:09:05.000Z</time>
      </trkpt>
      <trkpt lat="49.50968" lon="-1.61307">
        <ele>159</ele>
        <time>2026-03-30T15:09:06.000Z</time>
      </trkpt>
      <trkpt lat="49.50969" lon="-1.61305">
        <ele>159.7</ele>
        <time>2026-03-30T15:09:07.000Z</time>
      </trkpt>
      <trkpt lat="49.5097" lon="-1.61304">
        <ele>160.4</ele>
        <time>2026-03-30T15:09:08.000Z</time>
      </trkpt>
      <trkpt lat="49.50972" lon="-1.61304">
        <ele>160.7</ele>
        <time>2026-03-30T15:09:09.000Z</time>
      </trkpt>
      <trkpt lat="49.50973" lon="-1.61303">
        <ele>160</ele>
        <time>2026-03-30T15:09:10.000Z</time>
      </trkpt>
      <trkpt lat="49.50974" lon="-1.61303">
        <ele>160.1</ele>
        <time>2026-03-30T15:09:11.000Z</time>
      </trkpt>
      <trkpt lat="49.50975" lon="-1.61302">
        <ele>159.7</ele>
        <time>2026-03-30T15:09:12.000Z</time>
      </trkpt>
      <trkpt lat="49.50976" lon="-1.613">
        <ele>159.7</ele>
        <time>2026-03-30T15:09:13.000Z</time>
      </trkpt>
      <trkpt lat="49.50977" lon="-1.613">
        <ele>159.3</ele>
        <time>2026-03-30T15:09:14.000Z</time>
      </trkpt>
      <trkpt lat="49.50978" lon="-1.61298">
        <ele>160.1</ele>
        <time>2026-03-30T15:09:15.000Z</time>
      </trkpt>
      <trkpt lat="49.5098" lon="-1.61297">
        <ele>160.3</ele>
        <time>2026-03-30T15:09:16.000Z</time>
      </trkpt>
      <trkpt lat="49.50981" lon="-1.61296">
        <ele>160.7</ele>
        <time>2026-03-30T15:09:17.000Z</time>
      </trkpt>
      <trkpt lat="49.50982" lon="-1.61295">
        <ele>158.9</ele>
        <time>2026-03-30T15:09:18.000Z</time>
      </trkpt>
      <trkpt lat="49.50984" lon="-1.61294">
        <ele>159.2</ele>
        <time>2026-03-30T15:09:19.000Z</time>
      </trkpt>
      <trkpt lat="49.50985" lon="-1.61292">
        <ele>160.2</ele>
        <time>2026-03-30T15:09:20.000Z</time>
      </trkpt>
      <trkpt lat="49.50986" lon="-1.6129">
        <ele>160.8</ele>
        <time>2026-03-30T15:09:21.000Z</time>
      </trkpt>
      <trkpt lat="49.50987" lon="-1.61288">
        <ele>162.3</ele>
        <time>2026-03-30T15:09:22.000Z</time>
      </trkpt>
      <trkpt lat="49.50989" lon="-1.61287">
        <ele>161.5</ele>
        <time>2026-03-30T15:09:23.000Z</time>
      </trkpt>
      <trkpt lat="49.5099" lon="-1.61286">
        <ele>161</ele>
        <time>2026-03-30T15:09:24.000Z</time>
      </trkpt>
      <trkpt lat="49.50992" lon="-1.61285">
        <ele>160.2</ele>
        <time>2026-03-30T15:09:25.000Z</time>
      </trkpt>
      <trkpt lat="49.50993" lon="-1.61284">
        <ele>160.5</ele>
        <time>2026-03-30T15:09:26.000Z</time>
      </trkpt>
      <trkpt lat="49.50995" lon="-1.61282">
        <ele>160.3</ele>
        <time>2026-03-30T15:09:27.000Z</time>
      </trkpt>
      <trkpt lat="49.50996" lon="-1.6128">
        <ele>160.6</ele>
        <time>2026-03-30T15:09:28.000Z</time>
      </trkpt>
      <trkpt lat="49.50997" lon="-1.61279">
        <ele>161.4</ele>
        <time>2026-03-30T15:09:29.000Z</time>
      </trkpt>
      <trkpt lat="49.50998" lon="-1.61278">
        <ele>161.8</ele>
        <time>2026-03-30T15:09:30.000Z</time>
      </trkpt>
      <trkpt lat="49.50999" lon="-1.61277">
        <ele>162.9</ele>
        <time>2026-03-30T15:09:31.000Z</time>
      </trkpt>
      <trkpt lat="49.51" lon="-1.61276">
        <ele>163.3</ele>
        <time>2026-03-30T15:09:32.000Z</time>
      </trkpt>
      <trkpt lat="49.51001" lon="-1.61275">
        <ele>162.9</ele>
        <time>2026-03-30T15:09:33.000Z</time>
      </trkpt>
      <trkpt lat="49.51003" lon="-1.61274">
        <ele>162.3</ele>
        <time>2026-03-30T15:09:34.000Z</time>
      </trkpt>
      <trkpt lat="49.51004" lon="-1.61273">
        <ele>162.8</ele>
        <time>2026-03-30T15:09:35.000Z</time>
      </trkpt>
      <trkpt lat="49.51005" lon="-1.61272">
        <ele>163</ele>
        <time>2026-03-30T15:09:36.000Z</time>
      </trkpt>
      <trkpt lat="49.51006" lon="-1.61271">
        <ele>162.9</ele>
        <time>2026-03-30T15:09:37.000Z</time>
      </trkpt>
      <trkpt lat="49.51008" lon="-1.61268">
        <ele>166.6</ele>
        <time>2026-03-30T15:09:38.000Z</time>
      </trkpt>
      <trkpt lat="49.51009" lon="-1.61266">
        <ele>167</ele>
        <time>2026-03-30T15:09:39.000Z</time>
      </trkpt>
      <trkpt lat="49.5101" lon="-1.61264">
        <ele>167.7</ele>
        <time>2026-03-30T15:09:40.000Z</time>
      </trkpt>
      <trkpt lat="49.51011" lon="-1.61262">
        <ele>168.1</ele>
        <time>2026-03-30T15:09:41.000Z</time>
      </trkpt>
      <trkpt lat="49.51012" lon="-1.6126">
        <ele>168.4</ele>
        <time>2026-03-30T15:09:42.000Z</time>
      </trkpt>
      <trkpt lat="49.51013" lon="-1.61258">
        <ele>168.7</ele>
        <time>2026-03-30T15:09:43.000Z</time>
      </trkpt>
      <trkpt lat="49.51014" lon="-1.61257">
        <ele>168.4</ele>
        <time>2026-03-30T15:09:44.000Z</time>
      </trkpt>
      <trkpt lat="49.51015" lon="-1.61256">
        <ele>168.8</ele>
        <time>2026-03-30T15:09:45.000Z</time>
      </trkpt>
      <trkpt lat="49.51016" lon="-1.61255">
        <ele>170.1</ele>
        <time>2026-03-30T15:09:46.000Z</time>
      </trkpt>
      <trkpt lat="49.51017" lon="-1.61254">
        <ele>169.3</ele>
        <time>2026-03-30T15:09:47.000Z</time>
      </trkpt>
      <trkpt lat="49.51019" lon="-1.61253">
        <ele>168.2</ele>
        <time>2026-03-30T15:09:48.000Z</time>
      </trkpt>
      <trkpt lat="49.5102" lon="-1.61252">
        <ele>168.3</ele>
        <time>2026-03-30T15:09:49.000Z</time>
      </trkpt>
      <trkpt lat="49.51021" lon="-1.6125">
        <ele>168.6</ele>
        <time>2026-03-30T15:09:50.000Z</time>
      </trkpt>
      <trkpt lat="49.51022" lon="-1.61249">
        <ele>169.4</ele>
        <time>2026-03-30T15:09:51.000Z</time>
      </trkpt>
      <trkpt lat="49.51024" lon="-1.61248">
        <ele>170.1</ele>
        <time>2026-03-30T15:09:52.000Z</time>
      </trkpt>
      <trkpt lat="49.51025" lon="-1.61246">
        <ele>170.3</ele>
        <time>2026-03-30T15:09:53.000Z</time>
      </trkpt>
      <trkpt lat="49.51026" lon="-1.61245">
        <ele>170.4</ele>
        <time>2026-03-30T15:09:54.000Z</time>
      </trkpt>
      <trkpt lat="49.51027" lon="-1.61244">
        <ele>170.4</ele>
        <time>2026-03-30T15:09:55.000Z</time>
      </trkpt>
      <trkpt lat="49.51029" lon="-1.61243">
        <ele>170.2</ele>
        <time>2026-03-30T15:09:56.000Z</time>
      </trkpt>
      <trkpt lat="49.5103" lon="-1.61241">
        <ele>170.4</ele>
        <time>2026-03-30T15:09:57.000Z</time>
      </trkpt>
      <trkpt lat="49.51031" lon="-1.6124">
        <ele>169.6</ele>
        <time>2026-03-30T15:09:58.000Z</time>
      </trkpt>
      <trkpt lat="49.51032" lon="-1.61239">
        <ele>169.6</ele>
        <time>2026-03-30T15:09:59.000Z</time>
      </trkpt>
      <trkpt lat="49.51033" lon="-1.61238">
        <ele>168.7</ele>
        <time>2026-03-30T15:10:00.000Z</time>
      </trkpt>
      <trkpt lat="49.51034" lon="-1.61237">
        <ele>168.7</ele>
        <time>2026-03-30T15:10:01.000Z</time>
      </trkpt>
      <trkpt lat="49.51036" lon="-1.61236">
        <ele>168.5</ele>
        <time>2026-03-30T15:10:02.000Z</time>
      </trkpt>
      <trkpt lat="49.51037" lon="-1.61236">
        <ele>166.9</ele>
        <time>2026-03-30T15:10:03.000Z</time>
      </trkpt>
      <trkpt lat="49.51039" lon="-1.61236">
        <ele>165.5</ele>
        <time>2026-03-30T15:10:04.000Z</time>
      </trkpt>
      <trkpt lat="49.5104" lon="-1.61236">
        <ele>165</ele>
        <time>2026-03-30T15:10:05.000Z</time>
      </trkpt>
      <trkpt lat="49.51041" lon="-1.61234">
        <ele>164.9</ele>
        <time>2026-03-30T15:10:06.000Z</time>
      </trkpt>
      <trkpt lat="49.51043" lon="-1.61233">
        <ele>166.1</ele>
        <time>2026-03-30T15:10:07.000Z</time>
      </trkpt>
      <trkpt lat="49.51044" lon="-1.61232">
        <ele>166</ele>
        <time>2026-03-30T15:10:08.000Z</time>
      </trkpt>
      <trkpt lat="49.51046" lon="-1.61231">
        <ele>164.6</ele>
        <time>2026-03-30T15:10:09.000Z</time>
      </trkpt>
      <trkpt lat="49.51047" lon="-1.6123">
        <ele>165.1</ele>
        <time>2026-03-30T15:10:10.000Z</time>
      </trkpt>
      <trkpt lat="49.51049" lon="-1.61229">
        <ele>164.9</ele>
        <time>2026-03-30T15:10:11.000Z</time>
      </trkpt>
      <trkpt lat="49.5105" lon="-1.61228">
        <ele>166.1</ele>
        <time>2026-03-30T15:10:12.000Z</time>
      </trkpt>
      <trkpt lat="49.51052" lon="-1.61227">
        <ele>166.3</ele>
        <time>2026-03-30T15:10:13.000Z</time>
      </trkpt>
      <trkpt lat="49.51053" lon="-1.61226">
        <ele>166.4</ele>
        <time>2026-03-30T15:10:14.000Z</time>
      </trkpt>
      <trkpt lat="49.51055" lon="-1.61225">
        <ele>167</ele>
        <time>2026-03-30T15:10:15.000Z</time>
      </trkpt>
      <trkpt lat="49.51056" lon="-1.61224">
        <ele>167.2</ele>
        <time>2026-03-30T15:10:16.000Z</time>
      </trkpt>
      <trkpt lat="49.51058" lon="-1.61223">
        <ele>166.5</ele>
        <time>2026-03-30T15:10:17.000Z</time>
      </trkpt>
      <trkpt lat="49.51059" lon="-1.61222">
        <ele>165.8</ele>
        <time>2026-03-30T15:10:18.000Z</time>
      </trkpt>
      <trkpt lat="49.5106" lon="-1.61221">
        <ele>165.5</ele>
        <time>2026-03-30T15:10:19.000Z</time>
      </trkpt>
      <trkpt lat="49.51061" lon="-1.61219">
        <ele>165.5</ele>
        <time>2026-03-30T15:10:20.000Z</time>
      </trkpt>
      <trkpt lat="49.51062" lon="-1.61217">
        <ele>165.5</ele>
        <time>2026-03-30T15:10:21.000Z</time>
      </trkpt>
      <trkpt lat="49.51063" lon="-1.61215">
        <ele>166.3</ele>
        <time>2026-03-30T15:10:22.000Z</time>
      </trkpt>
      <trkpt lat="49.51064" lon="-1.61213">
        <ele>166.4</ele>
        <time>2026-03-30T15:10:23.000Z</time>
      </trkpt>
      <trkpt lat="49.51064" lon="-1.61213">
        <ele>166</ele>
        <time>2026-03-30T15:10:24.000Z</time>
      </trkpt>
      <trkpt lat="49.51064" lon="-1.61211">
        <ele>165.6</ele>
        <time>2026-03-30T15:10:25.000Z</time>
      </trkpt>
      <trkpt lat="49.51065" lon="-1.61211">
        <ele>165</ele>
        <time>2026-03-30T15:10:26.000Z</time>
      </trkpt>
      <trkpt lat="49.51066" lon="-1.6121">
        <ele>164.4</ele>
        <time>2026-03-30T15:10:27.000Z</time>
      </trkpt>
      <trkpt lat="49.51067" lon="-1.61209">
        <ele>164</ele>
        <time>2026-03-30T15:10:28.000Z</time>
      </trkpt>
      <trkpt lat="49.51068" lon="-1.61207">
        <ele>163.1</ele>
        <time>2026-03-30T15:10:29.000Z</time>
      </trkpt>
      <trkpt lat="49.51068" lon="-1.61206">
        <ele>162.7</ele>
        <time>2026-03-30T15:10:30.000Z</time>
      </trkpt>
      <trkpt lat="49.51069" lon="-1.61205">
        <ele>163</ele>
        <time>2026-03-30T15:10:31.000Z</time>
      </trkpt>
      <trkpt lat="49.5107" lon="-1.61204">
        <ele>162.8</ele>
        <time>2026-03-30T15:10:32.000Z</time>
      </trkpt>
      <trkpt lat="49.51072" lon="-1.61203">
        <ele>163.4</ele>
        <time>2026-03-30T15:10:33.000Z</time>
      </trkpt>
      <trkpt lat="49.51073" lon="-1.61202">
        <ele>164.7</ele>
        <time>2026-03-30T15:10:34.000Z</time>
      </trkpt>
      <trkpt lat="49.51074" lon="-1.61201">
        <ele>164.2</ele>
        <time>2026-03-30T15:10:35.000Z</time>
      </trkpt>
      <trkpt lat="49.51075" lon="-1.61201">
        <ele>163.6</ele>
        <time>2026-03-30T15:10:36.000Z</time>
      </trkpt>
      <trkpt lat="49.51075" lon="-1.61199">
        <ele>163.1</ele>
        <time>2026-03-30T15:10:37.000Z</time>
      </trkpt>
      <trkpt lat="49.51076" lon="-1.61198">
        <ele>164.5</ele>
        <time>2026-03-30T15:10:38.000Z</time>
      </trkpt>
      <trkpt lat="49.51077" lon="-1.61197">
        <ele>164.3</ele>
        <time>2026-03-30T15:10:39.000Z</time>
      </trkpt>
      <trkpt lat="49.51078" lon="-1.61195">
        <ele>165.8</ele>
        <time>2026-03-30T15:10:40.000Z</time>
      </trkpt>
      <trkpt lat="49.51079" lon="-1.61193">
        <ele>167.4</ele>
        <time>2026-03-30T15:10:41.000Z</time>
      </trkpt>
      <trkpt lat="49.5108" lon="-1.61192">
        <ele>167.3</ele>
        <time>2026-03-30T15:10:42.000Z</time>
      </trkpt>
      <trkpt lat="49.51081" lon="-1.6119">
        <ele>167.3</ele>
        <time>2026-03-30T15:10:43.000Z</time>
      </trkpt>
      <trkpt lat="49.51082" lon="-1.61188">
        <ele>167.2</ele>
        <time>2026-03-30T15:10:44.000Z</time>
      </trkpt>
      <trkpt lat="49.51083" lon="-1.61187">
        <ele>167.6</ele>
        <time>2026-03-30T15:10:45.000Z</time>
      </trkpt>
      <trkpt lat="49.51084" lon="-1.61186">
        <ele>166.9</ele>
        <time>2026-03-30T15:10:46.000Z</time>
      </trkpt>
      <trkpt lat="49.51085" lon="-1.61185">
        <ele>167.4</ele>
        <time>2026-03-30T15:10:47.000Z</time>
      </trkpt>
      <trkpt lat="49.51087" lon="-1.61183">
        <ele>167.2</ele>
        <time>2026-03-30T15:10:48.000Z</time>
      </trkpt>
      <trkpt lat="49.51088" lon="-1.61182">
        <ele>167</ele>
        <time>2026-03-30T15:10:49.000Z</time>
      </trkpt>
      <trkpt lat="49.51089" lon="-1.61181">
        <ele>167.2</ele>
        <time>2026-03-30T15:10:50.000Z</time>
      </trkpt>
      <trkpt lat="49.5109" lon="-1.61179">
        <ele>166.1</ele>
        <time>2026-03-30T15:10:51.000Z</time>
      </trkpt>
      <trkpt lat="49.51091" lon="-1.61179">
        <ele>166.9</ele>
        <time>2026-03-30T15:10:52.000Z</time>
      </trkpt>
      <trkpt lat="49.51092" lon="-1.61177">
        <ele>166</ele>
        <time>2026-03-30T15:10:53.000Z</time>
      </trkpt>
      <trkpt lat="49.51093" lon="-1.61176">
        <ele>165.2</ele>
        <time>2026-03-30T15:10:54.000Z</time>
      </trkpt>
      <trkpt lat="49.51094" lon="-1.61174">
        <ele>163.7</ele>
        <time>2026-03-30T15:10:55.000Z</time>
      </trkpt>
      <trkpt lat="49.51096" lon="-1.61173">
        <ele>162.8</ele>
        <time>2026-03-30T15:10:56.000Z</time>
      </trkpt>
      <trkpt lat="49.51097" lon="-1.61172">
        <ele>161.2</ele>
        <time>2026-03-30T15:10:57.000Z</time>
      </trkpt>
      <trkpt lat="49.51098" lon="-1.61171">
        <ele>160.5</ele>
        <time>2026-03-30T15:10:58.000Z</time>
      </trkpt>
      <trkpt lat="49.51099" lon="-1.6117">
        <ele>158.8</ele>
        <time>2026-03-30T15:10:59.000Z</time>
      </trkpt>
      <trkpt lat="49.51099" lon="-1.61168">
        <ele>156.9</ele>
        <time>2026-03-30T15:11:00.000Z</time>
      </trkpt>
      <trkpt lat="49.511" lon="-1.61165">
        <ele>155.5</ele>
        <time>2026-03-30T15:11:01.000Z</time>
      </trkpt>
      <trkpt lat="49.51101" lon="-1.61163">
        <ele>155.2</ele>
        <time>2026-03-30T15:11:02.000Z</time>
      </trkpt>
      <trkpt lat="49.51102" lon="-1.61161">
        <ele>155.7</ele>
        <time>2026-03-30T15:11:03.000Z</time>
      </trkpt>
      <trkpt lat="49.51104" lon="-1.6116">
        <ele>155.4</ele>
        <time>2026-03-30T15:11:04.000Z</time>
      </trkpt>
      <trkpt lat="49.51106" lon="-1.61159">
        <ele>155.6</ele>
        <time>2026-03-30T15:11:05.000Z</time>
      </trkpt>
      <trkpt lat="49.51109" lon="-1.61158">
        <ele>156.6</ele>
        <time>2026-03-30T15:11:06.000Z</time>
      </trkpt>
      <trkpt lat="49.5111" lon="-1.61157">
        <ele>156.3</ele>
        <time>2026-03-30T15:11:07.000Z</time>
      </trkpt>
      <trkpt lat="49.51112" lon="-1.61155">
        <ele>156.6</ele>
        <time>2026-03-30T15:11:08.000Z</time>
      </trkpt>
      <trkpt lat="49.51113" lon="-1.61154">
        <ele>157.1</ele>
        <time>2026-03-30T15:11:09.000Z</time>
      </trkpt>
      <trkpt lat="49.51114" lon="-1.61152">
        <ele>158.6</ele>
        <time>2026-03-30T15:11:10.000Z</time>
      </trkpt>
      <trkpt lat="49.51115" lon="-1.61151">
        <ele>158.8</ele>
        <time>2026-03-30T15:11:11.000Z</time>
      </trkpt>
      <trkpt lat="49.51116" lon="-1.61149">
        <ele>158.2</ele>
        <time>2026-03-30T15:11:12.000Z</time>
      </trkpt>
      <trkpt lat="49.51117" lon="-1.61147">
        <ele>157.5</ele>
        <time>2026-03-30T15:11:13.000Z</time>
      </trkpt>
      <trkpt lat="49.51117" lon="-1.61145">
        <ele>158.8</ele>
        <time>2026-03-30T15:11:14.000Z</time>
      </trkpt>
      <trkpt lat="49.51118" lon="-1.61142">
        <ele>157.9</ele>
        <time>2026-03-30T15:11:15.000Z</time>
      </trkpt>
      <trkpt lat="49.51119" lon="-1.6114">
        <ele>157.4</ele>
        <time>2026-03-30T15:11:16.000Z</time>
      </trkpt>
      <trkpt lat="49.5112" lon="-1.61138">
        <ele>157.3</ele>
        <time>2026-03-30T15:11:17.000Z</time>
      </trkpt>
      <trkpt lat="49.51121" lon="-1.61136">
        <ele>157.1</ele>
        <time>2026-03-30T15:11:18.000Z</time>
      </trkpt>
      <trkpt lat="49.51121" lon="-1.61135">
        <ele>156.4</ele>
        <time>2026-03-30T15:11:19.000Z</time>
      </trkpt>
      <trkpt lat="49.51122" lon="-1.61134">
        <ele>157.1</ele>
        <time>2026-03-30T15:11:20.000Z</time>
      </trkpt>
      <trkpt lat="49.51122" lon="-1.61134">
        <ele>156.6</ele>
        <time>2026-03-30T15:11:21.000Z</time>
      </trkpt>
      <trkpt lat="49.51123" lon="-1.61135">
        <ele>157</ele>
        <time>2026-03-30T15:11:22.000Z</time>
      </trkpt>
      <trkpt lat="49.51124" lon="-1.61136">
        <ele>157</ele>
        <time>2026-03-30T15:11:23.000Z</time>
      </trkpt>
      <trkpt lat="49.51124" lon="-1.61136">
        <ele>156.8</ele>
        <time>2026-03-30T15:11:24.000Z</time>
      </trkpt>
      <trkpt lat="49.51124" lon="-1.61136">
        <ele>156.4</ele>
        <time>2026-03-30T15:11:25.000Z</time>
      </trkpt>
      <trkpt lat="49.51124" lon="-1.61136">
        <ele>156.5</ele>
        <time>2026-03-30T15:11:26.000Z</time>
      </trkpt>
      <trkpt lat="49.51123" lon="-1.61134">
        <ele>156.8</ele>
        <time>2026-03-30T15:11:27.000Z</time>
      </trkpt>
      <trkpt lat="49.51122" lon="-1.61133">
        <ele>156.5</ele>
        <time>2026-03-30T15:11:28.000Z</time>
      </trkpt>
      <trkpt lat="49.51122" lon="-1.61131">
        <ele>156.6</ele>
        <time>2026-03-30T15:11:29.000Z</time>
      </trkpt>
      <trkpt lat="49.51121" lon="-1.61129">
        <ele>156.7</ele>
        <time>2026-03-30T15:11:30.000Z</time>
      </trkpt>
      <trkpt lat="49.5112" lon="-1.61127">
        <ele>156.2</ele>
        <time>2026-03-30T15:11:31.000Z</time>
      </trkpt>
      <trkpt lat="49.5112" lon="-1.61125">
        <ele>156.3</ele>
        <time>2026-03-30T15:11:32.000Z</time>
      </trkpt>
      <trkpt lat="49.5112" lon="-1.61122">
        <ele>156.4</ele>
        <time>2026-03-30T15:11:33.000Z</time>
      </trkpt>
      <trkpt lat="49.51119" lon="-1.61119">
        <ele>155.9</ele>
        <time>2026-03-30T15:11:34.000Z</time>
      </trkpt>
      <trkpt lat="49.51119" lon="-1.61117">
        <ele>155.6</ele>
        <time>2026-03-30T15:11:35.000Z</time>
      </trkpt>
      <trkpt lat="49.51119" lon="-1.61114">
        <ele>155.4</ele>
        <time>2026-03-30T15:11:36.000Z</time>
      </trkpt>
      <trkpt lat="49.51119" lon="-1.61112">
        <ele>154.4</ele>
        <time>2026-03-30T15:11:37.000Z</time>
      </trkpt>
      <trkpt lat="49.51119" lon="-1.6111">
        <ele>154.4</ele>
        <time>2026-03-30T15:11:38.000Z</time>
      </trkpt>
      <trkpt lat="49.51118" lon="-1.61107">
        <ele>154</ele>
        <time>2026-03-30T15:11:39.000Z</time>
      </trkpt>
      <trkpt lat="49.51118" lon="-1.61105">
        <ele>154.3</ele>
        <time>2026-03-30T15:11:40.000Z</time>
      </trkpt>
      <trkpt lat="49.51118" lon="-1.61102">
        <ele>155.2</ele>
        <time>2026-03-30T15:11:41.000Z</time>
      </trkpt>
      <trkpt lat="49.51117" lon="-1.611">
        <ele>155.3</ele>
        <time>2026-03-30T15:11:42.000Z</time>
      </trkpt>
      <trkpt lat="49.51116" lon="-1.61098">
        <ele>155.5</ele>
        <time>2026-03-30T15:11:43.000Z</time>
      </trkpt>
      <trkpt lat="49.51116" lon="-1.61096">
        <ele>155.9</ele>
        <time>2026-03-30T15:11:44.000Z</time>
      </trkpt>
      <trkpt lat="49.51116" lon="-1.61093">
        <ele>154.8</ele>
        <time>2026-03-30T15:11:45.000Z</time>
      </trkpt>
      <trkpt lat="49.51116" lon="-1.61091">
        <ele>154.5</ele>
        <time>2026-03-30T15:11:46.000Z</time>
      </trkpt>
      <trkpt lat="49.51116" lon="-1.61089">
        <ele>154.1</ele>
        <time>2026-03-30T15:11:47.000Z</time>
      </trkpt>
      <trkpt lat="49.51116" lon="-1.61087">
        <ele>153.8</ele>
        <time>2026-03-30T15:11:48.000Z</time>
      </trkpt>
      <trkpt lat="49.51115" lon="-1.61085">
        <ele>153.7</ele>
        <time>2026-03-30T15:11:49.000Z</time>
      </trkpt>
      <trkpt lat="49.51115" lon="-1.61082">
        <ele>153.6</ele>
        <time>2026-03-30T15:11:50.000Z</time>
      </trkpt>
      <trkpt lat="49.51115" lon="-1.6108">
        <ele>153.7</ele>
        <time>2026-03-30T15:11:51.000Z</time>
      </trkpt>
      <trkpt lat="49.51115" lon="-1.61078">
        <ele>153.9</ele>
        <time>2026-03-30T15:11:52.000Z</time>
      </trkpt>
      <trkpt lat="49.51114" lon="-1.61076">
        <ele>154.1</ele>
        <time>2026-03-30T15:11:53.000Z</time>
      </trkpt>
      <trkpt lat="49.51114" lon="-1.61074">
        <ele>154.2</ele>
        <time>2026-03-30T15:11:54.000Z</time>
      </trkpt>
      <trkpt lat="49.51114" lon="-1.61072">
        <ele>153.2</ele>
        <time>2026-03-30T15:11:55.000Z</time>
      </trkpt>
      <trkpt lat="49.51114" lon="-1.61069">
        <ele>153.4</ele>
        <time>2026-03-30T15:11:56.000Z</time>
      </trkpt>
      <trkpt lat="49.51113" lon="-1.61067">
        <ele>153.6</ele>
        <time>2026-03-30T15:11:57.000Z</time>
      </trkpt>
      <trkpt lat="49.51113" lon="-1.61065">
        <ele>153.5</ele>
        <time>2026-03-30T15:11:58.000Z</time>
      </trkpt>
      <trkpt lat="49.51113" lon="-1.61063">
        <ele>153.4</ele>
        <time>2026-03-30T15:11:59.000Z</time>
      </trkpt>
      <trkpt lat="49.51112" lon="-1.6106">
        <ele>153.8</ele>
        <time>2026-03-30T15:12:00.000Z</time>
      </trkpt>
      <trkpt lat="49.51111" lon="-1.61058">
        <ele>153.1</ele>
        <time>2026-03-30T15:12:01.000Z</time>
      </trkpt>
      <trkpt lat="49.51111" lon="-1.61056">
        <ele>151.6</ele>
        <time>2026-03-30T15:12:02.000Z</time>
      </trkpt>
      <trkpt lat="49.5111" lon="-1.61053">
        <ele>151</ele>
        <time>2026-03-30T15:12:03.000Z</time>
      </trkpt>
      <trkpt lat="49.51109" lon="-1.61051">
        <ele>150.8</ele>
        <time>2026-03-30T15:12:04.000Z</time>
      </trkpt>
      <trkpt lat="49.51109" lon="-1.61049">
        <ele>150.8</ele>
        <time>2026-03-30T15:12:05.000Z</time>
      </trkpt>
      <trkpt lat="49.51108" lon="-1.61046">
        <ele>151</ele>
        <time>2026-03-30T15:12:06.000Z</time>
      </trkpt>
      <trkpt lat="49.51107" lon="-1.61044">
        <ele>150.4</ele>
        <time>2026-03-30T15:12:07.000Z</time>
      </trkpt>
      <trkpt lat="49.51107" lon="-1.61041">
        <ele>150.3</ele>
        <time>2026-03-30T15:12:08.000Z</time>
      </trkpt>
      <trkpt lat="49.51107" lon="-1.61038">
        <ele>150.6</ele>
        <time>2026-03-30T15:12:09.000Z</time>
      </trkpt>
      <trkpt lat="49.51107" lon="-1.61035">
        <ele>149.4</ele>
        <time>2026-03-30T15:12:10.000Z</time>
      </trkpt>
      <trkpt lat="49.51106" lon="-1.61033">
        <ele>149.6</ele>
        <time>2026-03-30T15:12:11.000Z</time>
      </trkpt>
      <trkpt lat="49.51106" lon="-1.6103">
        <ele>148.5</ele>
        <time>2026-03-30T15:12:12.000Z</time>
      </trkpt>
      <trkpt lat="49.51105" lon="-1.61027">
        <ele>148.2</ele>
        <time>2026-03-30T15:12:13.000Z</time>
      </trkpt>
      <trkpt lat="49.51105" lon="-1.61024">
        <ele>148</ele>
        <time>2026-03-30T15:12:14.000Z</time>
      </trkpt>
      <trkpt lat="49.51104" lon="-1.61022">
        <ele>148.4</ele>
        <time>2026-03-30T15:12:15.000Z</time>
      </trkpt>
      <trkpt lat="49.51104" lon="-1.61019">
        <ele>148.2</ele>
        <time>2026-03-30T15:12:16.000Z</time>
      </trkpt>
      <trkpt lat="49.51104" lon="-1.61016">
        <ele>147.8</ele>
        <time>2026-03-30T15:12:17.000Z</time>
      </trkpt>
      <trkpt lat="49.51103" lon="-1.61014">
        <ele>147.8</ele>
        <time>2026-03-30T15:12:18.000Z</time>
      </trkpt>
      <trkpt lat="49.51103" lon="-1.61011">
        <ele>147.6</ele>
        <time>2026-03-30T15:12:19.000Z</time>
      </trkpt>
      <trkpt lat="49.51102" lon="-1.61009">
        <ele>147.5</ele>
        <time>2026-03-30T15:12:20.000Z</time>
      </trkpt>
      <trkpt lat="49.51101" lon="-1.61007">
        <ele>147.5</ele>
        <time>2026-03-30T15:12:21.000Z</time>
      </trkpt>
      <trkpt lat="49.51101" lon="-1.61004">
        <ele>146.4</ele>
        <time>2026-03-30T15:12:22.000Z</time>
      </trkpt>
      <trkpt lat="49.51101" lon="-1.61001">
        <ele>146.5</ele>
        <time>2026-03-30T15:12:23.000Z</time>
      </trkpt>
      <trkpt lat="49.511" lon="-1.60999">
        <ele>146.8</ele>
        <time>2026-03-30T15:12:24.000Z</time>
      </trkpt>
      <trkpt lat="49.511" lon="-1.60996">
        <ele>146.5</ele>
        <time>2026-03-30T15:12:25.000Z</time>
      </trkpt>
      <trkpt lat="49.511" lon="-1.60994">
        <ele>146.6</ele>
        <time>2026-03-30T15:12:26.000Z</time>
      </trkpt>
      <trkpt lat="49.51099" lon="-1.60991">
        <ele>147.2</ele>
        <time>2026-03-30T15:12:27.000Z</time>
      </trkpt>
      <trkpt lat="49.51099" lon="-1.60989">
        <ele>147.3</ele>
        <time>2026-03-30T15:12:28.000Z</time>
      </trkpt>
      <trkpt lat="49.51098" lon="-1.60987">
        <ele>146.7</ele>
        <time>2026-03-30T15:12:29.000Z</time>
      </trkpt>
      <trkpt lat="49.51097" lon="-1.60984">
        <ele>146.4</ele>
        <time>2026-03-30T15:12:30.000Z</time>
      </trkpt>
      <trkpt lat="49.51097" lon="-1.60982">
        <ele>146.4</ele>
        <time>2026-03-30T15:12:31.000Z</time>
      </trkpt>
      <trkpt lat="49.51096" lon="-1.60979">
        <ele>146.1</ele>
        <time>2026-03-30T15:12:32.000Z</time>
      </trkpt>
      <trkpt lat="49.51096" lon="-1.60976">
        <ele>145.7</ele>
        <time>2026-03-30T15:12:33.000Z</time>
      </trkpt>
      <trkpt lat="49.51095" lon="-1.60974">
        <ele>145.4</ele>
        <time>2026-03-30T15:12:34.000Z</time>
      </trkpt>
      <trkpt lat="49.51094" lon="-1.60971">
        <ele>145.7</ele>
        <time>2026-03-30T15:12:35.000Z</time>
      </trkpt>
      <trkpt lat="49.51094" lon="-1.60969">
        <ele>145.6</ele>
        <time>2026-03-30T15:12:36.000Z</time>
      </trkpt>
      <trkpt lat="49.51094" lon="-1.60966">
        <ele>146.1</ele>
        <time>2026-03-30T15:12:37.000Z</time>
      </trkpt>
      <trkpt lat="49.51093" lon="-1.60964">
        <ele>145.7</ele>
        <time>2026-03-30T15:12:38.000Z</time>
      </trkpt>
      <trkpt lat="49.51093" lon="-1.60961">
        <ele>144.6</ele>
        <time>2026-03-30T15:12:39.000Z</time>
      </trkpt>
      <trkpt lat="49.51093" lon="-1.60958">
        <ele>144.7</ele>
        <time>2026-03-30T15:12:40.000Z</time>
      </trkpt>
      <trkpt lat="49.51092" lon="-1.60955">
        <ele>144.8</ele>
        <time>2026-03-30T15:12:41.000Z</time>
      </trkpt>
      <trkpt lat="49.51092" lon="-1.60952">
        <ele>144.8</ele>
        <time>2026-03-30T15:12:42.000Z</time>
      </trkpt>
      <trkpt lat="49.51091" lon="-1.6095">
        <ele>147</ele>
        <time>2026-03-30T15:12:43.000Z</time>
      </trkpt>
      <trkpt lat="49.5109" lon="-1.60947">
        <ele>145.9</ele>
        <time>2026-03-30T15:12:44.000Z</time>
      </trkpt>
      <trkpt lat="49.51089" lon="-1.60943">
        <ele>145.1</ele>
        <time>2026-03-30T15:12:45.000Z</time>
      </trkpt>
      <trkpt lat="49.51087" lon="-1.6094">
        <ele>145</ele>
        <time>2026-03-30T15:12:46.000Z</time>
      </trkpt>
      <trkpt lat="49.51087" lon="-1.60938">
        <ele>144.3</ele>
        <time>2026-03-30T15:12:47.000Z</time>
      </trkpt>
      <trkpt lat="49.51086" lon="-1.60936">
        <ele>143.7</ele>
        <time>2026-03-30T15:12:48.000Z</time>
      </trkpt>
      <trkpt lat="49.51086" lon="-1.60934">
        <ele>143.9</ele>
        <time>2026-03-30T15:12:49.000Z</time>
      </trkpt>
      <trkpt lat="49.51085" lon="-1.60932">
        <ele>143.7</ele>
        <time>2026-03-30T15:12:50.000Z</time>
      </trkpt>
      <trkpt lat="49.51085" lon="-1.6093">
        <ele>143.5</ele>
        <time>2026-03-30T15:12:51.000Z</time>
      </trkpt>
      <trkpt lat="49.51085" lon="-1.60928">
        <ele>142.8</ele>
        <time>2026-03-30T15:12:52.000Z</time>
      </trkpt>
      <trkpt lat="49.51084" lon="-1.60926">
        <ele>142</ele>
        <time>2026-03-30T15:12:53.000Z</time>
      </trkpt>
      <trkpt lat="49.51084" lon="-1.60924">
        <ele>141.8</ele>
        <time>2026-03-30T15:12:54.000Z</time>
      </trkpt>
      <trkpt lat="49.51084" lon="-1.60921">
        <ele>142.4</ele>
        <time>2026-03-30T15:12:55.000Z</time>
      </trkpt>
      <trkpt lat="49.51084" lon="-1.60919">
        <ele>142.3</ele>
        <time>2026-03-30T15:12:56.000Z</time>
      </trkpt>
      <trkpt lat="49.51083" lon="-1.60916">
        <ele>142.1</ele>
        <time>2026-03-30T15:12:57.000Z</time>
      </trkpt>
      <trkpt lat="49.51082" lon="-1.60914">
        <ele>142.2</ele>
        <time>2026-03-30T15:12:58.000Z</time>
      </trkpt>
      <trkpt lat="49.51081" lon="-1.60911">
        <ele>142.6</ele>
        <time>2026-03-30T15:12:59.000Z</time>
      </trkpt>
      <trkpt lat="49.51081" lon="-1.60909">
        <ele>142.4</ele>
        <time>2026-03-30T15:13:00.000Z</time>
      </trkpt>
      <trkpt lat="49.5108" lon="-1.60907">
        <ele>141.8</ele>
        <time>2026-03-30T15:13:01.000Z</time>
      </trkpt>
      <trkpt lat="49.5108" lon="-1.60905">
        <ele>142.3</ele>
        <time>2026-03-30T15:13:02.000Z</time>
      </trkpt>
      <trkpt lat="49.51079" lon="-1.60903">
        <ele>142</ele>
        <time>2026-03-30T15:13:03.000Z</time>
      </trkpt>
      <trkpt lat="49.51079" lon="-1.609">
        <ele>141.1</ele>
        <time>2026-03-30T15:13:04.000Z</time>
      </trkpt>
      <trkpt lat="49.51079" lon="-1.60898">
        <ele>140.4</ele>
        <time>2026-03-30T15:13:05.000Z</time>
      </trkpt>
      <trkpt lat="49.51078" lon="-1.60895">
        <ele>140.2</ele>
        <time>2026-03-30T15:13:06.000Z</time>
      </trkpt>
      <trkpt lat="49.51078" lon="-1.60892">
        <ele>140.7</ele>
        <time>2026-03-30T15:13:07.000Z</time>
      </trkpt>
      <trkpt lat="49.51077" lon="-1.6089">
        <ele>140.1</ele>
        <time>2026-03-30T15:13:08.000Z</time>
      </trkpt>
      <trkpt lat="49.51077" lon="-1.60888">
        <ele>139.7</ele>
        <time>2026-03-30T15:13:09.000Z</time>
      </trkpt>
      <trkpt lat="49.51077" lon="-1.60886">
        <ele>138.9</ele>
        <time>2026-03-30T15:13:10.000Z</time>
      </trkpt>
      <trkpt lat="49.51078" lon="-1.60884">
        <ele>137.7</ele>
        <time>2026-03-30T15:13:11.000Z</time>
      </trkpt>
      <trkpt lat="49.51077" lon="-1.60881">
        <ele>137.7</ele>
        <time>2026-03-30T15:13:12.000Z</time>
      </trkpt>
      <trkpt lat="49.51076" lon="-1.60879">
        <ele>137.4</ele>
        <time>2026-03-30T15:13:13.000Z</time>
      </trkpt>
      <trkpt lat="49.51076" lon="-1.60876">
        <ele>137.8</ele>
        <time>2026-03-30T15:13:14.000Z</time>
      </trkpt>
      <trkpt lat="49.51076" lon="-1.60874">
        <ele>137.7</ele>
        <time>2026-03-30T15:13:15.000Z</time>
      </trkpt>
      <trkpt lat="49.51076" lon="-1.60872">
        <ele>137.5</ele>
        <time>2026-03-30T15:13:16.000Z</time>
      </trkpt>
      <trkpt lat="49.51077" lon="-1.6087">
        <ele>136.7</ele>
        <time>2026-03-30T15:13:17.000Z</time>
      </trkpt>
      <trkpt lat="49.51078" lon="-1.60868">
        <ele>136.8</ele>
        <time>2026-03-30T15:13:18.000Z</time>
      </trkpt>
      <trkpt lat="49.51079" lon="-1.60866">
        <ele>136.4</ele>
        <time>2026-03-30T15:13:19.000Z</time>
      </trkpt>
      <trkpt lat="49.5108" lon="-1.60865">
        <ele>136.6</ele>
        <time>2026-03-30T15:13:20.000Z</time>
      </trkpt>
      <trkpt lat="49.51081" lon="-1.60863">
        <ele>137.2</ele>
        <time>2026-03-30T15:13:21.000Z</time>
      </trkpt>
      <trkpt lat="49.51082" lon="-1.60861">
        <ele>138.2</ele>
        <time>2026-03-30T15:13:22.000Z</time>
      </trkpt>
      <trkpt lat="49.51083" lon="-1.6086">
        <ele>138.5</ele>
        <time>2026-03-30T15:13:23.000Z</time>
      </trkpt>
      <trkpt lat="49.51084" lon="-1.60859">
        <ele>138.5</ele>
        <time>2026-03-30T15:13:24.000Z</time>
      </trkpt>
      <trkpt lat="49.51085" lon="-1.60857">
        <ele>138</ele>
        <time>2026-03-30T15:13:25.000Z</time>
      </trkpt>
      <trkpt lat="49.51086" lon="-1.60856">
        <ele>137.7</ele>
        <time>2026-03-30T15:13:26.000Z</time>
      </trkpt>
      <trkpt lat="49.51087" lon="-1.60854">
        <ele>136.8</ele>
        <time>2026-03-30T15:13:27.000Z</time>
      </trkpt>
      <trkpt lat="49.51088" lon="-1.60853">
        <ele>136.1</ele>
        <time>2026-03-30T15:13:28.000Z</time>
      </trkpt>
      <trkpt lat="49.51089" lon="-1.60851">
        <ele>136.3</ele>
        <time>2026-03-30T15:13:29.000Z</time>
      </trkpt>
      <trkpt lat="49.5109" lon="-1.60849">
        <ele>136.3</ele>
        <time>2026-03-30T15:13:30.000Z</time>
      </trkpt>
      <trkpt lat="49.51091" lon="-1.60847">
        <ele>136.3</ele>
        <time>2026-03-30T15:13:31.000Z</time>
      </trkpt>
      <trkpt lat="49.51092" lon="-1.60846">
        <ele>136.4</ele>
        <time>2026-03-30T15:13:32.000Z</time>
      </trkpt>
      <trkpt lat="49.51093" lon="-1.60844">
        <ele>136.4</ele>
        <time>2026-03-30T15:13:33.000Z</time>
      </trkpt>
      <trkpt lat="49.51094" lon="-1.60842">
        <ele>136.4</ele>
        <time>2026-03-30T15:13:34.000Z</time>
      </trkpt>
      <trkpt lat="49.51095" lon="-1.6084">
        <ele>136.2</ele>
        <time>2026-03-30T15:13:35.000Z</time>
      </trkpt>
      <trkpt lat="49.51096" lon="-1.60839">
        <ele>136.7</ele>
        <time>2026-03-30T15:13:36.000Z</time>
      </trkpt>
      <trkpt lat="49.51098" lon="-1.60837">
        <ele>136</ele>
        <time>2026-03-30T15:13:37.000Z</time>
      </trkpt>
      <trkpt lat="49.51099" lon="-1.60835">
        <ele>135.1</ele>
        <time>2026-03-30T15:13:38.000Z</time>
      </trkpt>
      <trkpt lat="49.511" lon="-1.60833">
        <ele>134.3</ele>
        <time>2026-03-30T15:13:39.000Z</time>
      </trkpt>
      <trkpt lat="49.51101" lon="-1.60832">
        <ele>134.3</ele>
        <time>2026-03-30T15:13:40.000Z</time>
      </trkpt>
      <trkpt lat="49.51102" lon="-1.60831">
        <ele>134.7</ele>
        <time>2026-03-30T15:13:41.000Z</time>
      </trkpt>
      <trkpt lat="49.51103" lon="-1.60829">
        <ele>134.9</ele>
        <time>2026-03-30T15:13:42.000Z</time>
      </trkpt>
      <trkpt lat="49.51104" lon="-1.60827">
        <ele>135.1</ele>
        <time>2026-03-30T15:13:43.000Z</time>
      </trkpt>
      <trkpt lat="49.51104" lon="-1.60825">
        <ele>135.3</ele>
        <time>2026-03-30T15:13:44.000Z</time>
      </trkpt>
      <trkpt lat="49.51105" lon="-1.60823">
        <ele>135.1</ele>
        <time>2026-03-30T15:13:45.000Z</time>
      </trkpt>
      <trkpt lat="49.51106" lon="-1.60821">
        <ele>135.1</ele>
        <time>2026-03-30T15:13:46.000Z</time>
      </trkpt>
      <trkpt lat="49.51107" lon="-1.60819">
        <ele>134.4</ele>
        <time>2026-03-30T15:13:47.000Z</time>
      </trkpt>
      <trkpt lat="49.51107" lon="-1.60817">
        <ele>134.2</ele>
        <time>2026-03-30T15:13:48.000Z</time>
      </trkpt>
      <trkpt lat="49.51108" lon="-1.60815">
        <ele>133.6</ele>
        <time>2026-03-30T15:13:49.000Z</time>
      </trkpt>
      <trkpt lat="49.51109" lon="-1.60813">
        <ele>133.3</ele>
        <time>2026-03-30T15:13:50.000Z</time>
      </trkpt>
      <trkpt lat="49.51109" lon="-1.60811">
        <ele>133.1</ele>
        <time>2026-03-30T15:13:51.000Z</time>
      </trkpt>
      <trkpt lat="49.5111" lon="-1.60808">
        <ele>133.4</ele>
        <time>2026-03-30T15:13:52.000Z</time>
      </trkpt>
      <trkpt lat="49.5111" lon="-1.60806">
        <ele>133.3</ele>
        <time>2026-03-30T15:13:53.000Z</time>
      </trkpt>
      <trkpt lat="49.5111" lon="-1.60803">
        <ele>133.3</ele>
        <time>2026-03-30T15:13:54.000Z</time>
      </trkpt>
      <trkpt lat="49.5111" lon="-1.60801">
        <ele>133.7</ele>
        <time>2026-03-30T15:13:55.000Z</time>
      </trkpt>
      <trkpt lat="49.5111" lon="-1.60799">
        <ele>133.4</ele>
        <time>2026-03-30T15:13:56.000Z</time>
      </trkpt>
      <trkpt lat="49.51111" lon="-1.60796">
        <ele>133.2</ele>
        <time>2026-03-30T15:13:57.000Z</time>
      </trkpt>
      <trkpt lat="49.51111" lon="-1.60794">
        <ele>133.4</ele>
        <time>2026-03-30T15:13:58.000Z</time>
      </trkpt>
      <trkpt lat="49.51111" lon="-1.60792">
        <ele>133.3</ele>
        <time>2026-03-30T15:13:59.000Z</time>
      </trkpt>
      <trkpt lat="49.51111" lon="-1.6079">
        <ele>133.5</ele>
        <time>2026-03-30T15:14:00.000Z</time>
      </trkpt>
      <trkpt lat="49.51111" lon="-1.60787">
        <ele>133.5</ele>
        <time>2026-03-30T15:14:01.000Z</time>
      </trkpt>
      <trkpt lat="49.51111" lon="-1.60785">
        <ele>133.6</ele>
        <time>2026-03-30T15:14:02.000Z</time>
      </trkpt>
      <trkpt lat="49.51111" lon="-1.60783">
        <ele>133.5</ele>
        <time>2026-03-30T15:14:03.000Z</time>
      </trkpt>
      <trkpt lat="49.51112" lon="-1.6078">
        <ele>133.5</ele>
        <time>2026-03-30T15:14:04.000Z</time>
      </trkpt>
      <trkpt lat="49.51111" lon="-1.60778">
        <ele>133.4</ele>
        <time>2026-03-30T15:14:05.000Z</time>
      </trkpt>
      <trkpt lat="49.51111" lon="-1.60775">
        <ele>133.4</ele>
        <time>2026-03-30T15:14:06.000Z</time>
      </trkpt>
      <trkpt lat="49.51111" lon="-1.60773">
        <ele>133.1</ele>
        <time>2026-03-30T15:14:07.000Z</time>
      </trkpt>
      <trkpt lat="49.51112" lon="-1.60771">
        <ele>133.2</ele>
        <time>2026-03-30T15:14:08.000Z</time>
      </trkpt>
      <trkpt lat="49.51112" lon="-1.60768">
        <ele>133.4</ele>
        <time>2026-03-30T15:14:09.000Z</time>
      </trkpt>
      <trkpt lat="49.51112" lon="-1.60766">
        <ele>133.2</ele>
        <time>2026-03-30T15:14:10.000Z</time>
      </trkpt>
      <trkpt lat="49.51111" lon="-1.60764">
        <ele>132.7</ele>
        <time>2026-03-30T15:14:11.000Z</time>
      </trkpt>
      <trkpt lat="49.51111" lon="-1.60762">
        <ele>133.5</ele>
        <time>2026-03-30T15:14:12.000Z</time>
      </trkpt>
      <trkpt lat="49.51111" lon="-1.60759">
        <ele>133.9</ele>
        <time>2026-03-30T15:14:13.000Z</time>
      </trkpt>
      <trkpt lat="49.51111" lon="-1.60757">
        <ele>133.7</ele>
        <time>2026-03-30T15:14:14.000Z</time>
      </trkpt>
      <trkpt lat="49.51111" lon="-1.60755">
        <ele>133.6</ele>
        <time>2026-03-30T15:14:15.000Z</time>
      </trkpt>
      <trkpt lat="49.5111" lon="-1.60752">
        <ele>133.5</ele>
        <time>2026-03-30T15:14:16.000Z</time>
      </trkpt>
      <trkpt lat="49.5111" lon="-1.6075">
        <ele>133.4</ele>
        <time>2026-03-30T15:14:17.000Z</time>
      </trkpt>
      <trkpt lat="49.5111" lon="-1.60748">
        <ele>133.2</ele>
        <time>2026-03-30T15:14:18.000Z</time>
      </trkpt>
      <trkpt lat="49.5111" lon="-1.60745">
        <ele>134.3</ele>
        <time>2026-03-30T15:14:19.000Z</time>
      </trkpt>
      <trkpt lat="49.51109" lon="-1.60743">
        <ele>134</ele>
        <time>2026-03-30T15:14:20.000Z</time>
      </trkpt>
      <trkpt lat="49.51109" lon="-1.6074">
        <ele>134.2</ele>
        <time>2026-03-30T15:14:21.000Z</time>
      </trkpt>
      <trkpt lat="49.51109" lon="-1.60738">
        <ele>133.5</ele>
        <time>2026-03-30T15:14:22.000Z</time>
      </trkpt>
      <trkpt lat="49.51108" lon="-1.60735">
        <ele>133.5</ele>
        <time>2026-03-30T15:14:23.000Z</time>
      </trkpt>
      <trkpt lat="49.51108" lon="-1.60733">
        <ele>133.1</ele>
        <time>2026-03-30T15:14:24.000Z</time>
      </trkpt>
      <trkpt lat="49.51108" lon="-1.60731">
        <ele>133.2</ele>
        <time>2026-03-30T15:14:25.000Z</time>
      </trkpt>
      <trkpt lat="49.51108" lon="-1.60728">
        <ele>133.7</ele>
        <time>2026-03-30T15:14:26.000Z</time>
      </trkpt>
      <trkpt lat="49.51107" lon="-1.60726">
        <ele>134.3</ele>
        <time>2026-03-30T15:14:27.000Z</time>
      </trkpt>
      <trkpt lat="49.51107" lon="-1.60724">
        <ele>135.2</ele>
        <time>2026-03-30T15:14:28.000Z</time>
      </trkpt>
      <trkpt lat="49.51106" lon="-1.60721">
        <ele>135.4</ele>
        <time>2026-03-30T15:14:29.000Z</time>
      </trkpt>
      <trkpt lat="49.51105" lon="-1.60719">
        <ele>135.5</ele>
        <time>2026-03-30T15:14:30.000Z</time>
      </trkpt>
      <trkpt lat="49.51104" lon="-1.60717">
        <ele>134.8</ele>
        <time>2026-03-30T15:14:31.000Z</time>
      </trkpt>
      <trkpt lat="49.51104" lon="-1.60715">
        <ele>134.5</ele>
        <time>2026-03-30T15:14:32.000Z</time>
      </trkpt>
      <trkpt lat="49.51103" lon="-1.60712">
        <ele>134.7</ele>
        <time>2026-03-30T15:14:33.000Z</time>
      </trkpt>
      <trkpt lat="49.51103" lon="-1.6071">
        <ele>135</ele>
        <time>2026-03-30T15:14:34.000Z</time>
      </trkpt>
      <trkpt lat="49.51103" lon="-1.60708">
        <ele>135.1</ele>
        <time>2026-03-30T15:14:35.000Z</time>
      </trkpt>
      <trkpt lat="49.51102" lon="-1.60706">
        <ele>135.3</ele>
        <time>2026-03-30T15:14:36.000Z</time>
      </trkpt>
      <trkpt lat="49.51102" lon="-1.60703">
        <ele>135.5</ele>
        <time>2026-03-30T15:14:37.000Z</time>
      </trkpt>
      <trkpt lat="49.51102" lon="-1.60701">
        <ele>135.2</ele>
        <time>2026-03-30T15:14:38.000Z</time>
      </trkpt>
      <trkpt lat="49.51101" lon="-1.60699">
        <ele>135.2</ele>
        <time>2026-03-30T15:14:39.000Z</time>
      </trkpt>
      <trkpt lat="49.511" lon="-1.60697">
        <ele>134.9</ele>
        <time>2026-03-30T15:14:40.000Z</time>
      </trkpt>
      <trkpt lat="49.511" lon="-1.60694">
        <ele>135.1</ele>
        <time>2026-03-30T15:14:41.000Z</time>
      </trkpt>
      <trkpt lat="49.51099" lon="-1.60692">
        <ele>135.1</ele>
        <time>2026-03-30T15:14:42.000Z</time>
      </trkpt>
      <trkpt lat="49.51099" lon="-1.6069">
        <ele>134.4</ele>
        <time>2026-03-30T15:14:43.000Z</time>
      </trkpt>
      <trkpt lat="49.51099" lon="-1.60687">
        <ele>134</ele>
        <time>2026-03-30T15:14:44.000Z</time>
      </trkpt>
      <trkpt lat="49.51098" lon="-1.60685">
        <ele>133.4</ele>
        <time>2026-03-30T15:14:45.000Z</time>
      </trkpt>
      <trkpt lat="49.51098" lon="-1.60683">
        <ele>133</ele>
        <time>2026-03-30T15:14:46.000Z</time>
      </trkpt>
      <trkpt lat="49.51097" lon="-1.6068">
        <ele>132.5</ele>
        <time>2026-03-30T15:14:47.000Z</time>
      </trkpt>
      <trkpt lat="49.51097" lon="-1.60678">
        <ele>131.9</ele>
        <time>2026-03-30T15:14:48.000Z</time>
      </trkpt>
      <trkpt lat="49.51097" lon="-1.60676">
        <ele>131.3</ele>
        <time>2026-03-30T15:14:49.000Z</time>
      </trkpt>
      <trkpt lat="49.51097" lon="-1.60674">
        <ele>130.2</ele>
        <time>2026-03-30T15:14:50.000Z</time>
      </trkpt>
      <trkpt lat="49.51096" lon="-1.60672">
        <ele>130.2</ele>
        <time>2026-03-30T15:14:51.000Z</time>
      </trkpt>
      <trkpt lat="49.51096" lon="-1.6067">
        <ele>129.9</ele>
        <time>2026-03-30T15:14:52.000Z</time>
      </trkpt>
      <trkpt lat="49.51095" lon="-1.60668">
        <ele>130.1</ele>
        <time>2026-03-30T15:14:53.000Z</time>
      </trkpt>
      <trkpt lat="49.51095" lon="-1.60665">
        <ele>130.6</ele>
        <time>2026-03-30T15:14:54.000Z</time>
      </trkpt>
      <trkpt lat="49.51095" lon="-1.60663">
        <ele>131.5</ele>
        <time>2026-03-30T15:14:55.000Z</time>
      </trkpt>
      <trkpt lat="49.51095" lon="-1.60661">
        <ele>131.3</ele>
        <time>2026-03-30T15:14:56.000Z</time>
      </trkpt>
      <trkpt lat="49.51094" lon="-1.60659">
        <ele>131.1</ele>
        <time>2026-03-30T15:14:57.000Z</time>
      </trkpt>
      <trkpt lat="49.51094" lon="-1.60656">
        <ele>130.9</ele>
        <time>2026-03-30T15:14:58.000Z</time>
      </trkpt>
      <trkpt lat="49.51094" lon="-1.60654">
        <ele>130.6</ele>
        <time>2026-03-30T15:14:59.000Z</time>
      </trkpt>
      <trkpt lat="49.51094" lon="-1.60652">
        <ele>130.6</ele>
        <time>2026-03-30T15:15:00.000Z</time>
      </trkpt>
      <trkpt lat="49.51093" lon="-1.60649">
        <ele>129.9</ele>
        <time>2026-03-30T15:15:01.000Z</time>
      </trkpt>
      <trkpt lat="49.51093" lon="-1.60647">
        <ele>130.4</ele>
        <time>2026-03-30T15:15:02.000Z</time>
      </trkpt>
      <trkpt lat="49.51093" lon="-1.60644">
        <ele>130.4</ele>
        <time>2026-03-30T15:15:03.000Z</time>
      </trkpt>
      <trkpt lat="49.51092" lon="-1.60642">
        <ele>131.6</ele>
        <time>2026-03-30T15:15:04.000Z</time>
      </trkpt>
      <trkpt lat="49.51092" lon="-1.60639">
        <ele>132.1</ele>
        <time>2026-03-30T15:15:05.000Z</time>
      </trkpt>
      <trkpt lat="49.51091" lon="-1.60637">
        <ele>131.6</ele>
        <time>2026-03-30T15:15:06.000Z</time>
      </trkpt>
      <trkpt lat="49.51091" lon="-1.60635">
        <ele>131.1</ele>
        <time>2026-03-30T15:15:07.000Z</time>
      </trkpt>
      <trkpt lat="49.51091" lon="-1.60632">
        <ele>131</ele>
        <time>2026-03-30T15:15:08.000Z</time>
      </trkpt>
      <trkpt lat="49.5109" lon="-1.6063">
        <ele>131.2</ele>
        <time>2026-03-30T15:15:09.000Z</time>
      </trkpt>
      <trkpt lat="49.5109" lon="-1.60628">
        <ele>131.1</ele>
        <time>2026-03-30T15:15:10.000Z</time>
      </trkpt>
      <trkpt lat="49.51089" lon="-1.60625">
        <ele>131.4</ele>
        <time>2026-03-30T15:15:11.000Z</time>
      </trkpt>
      <trkpt lat="49.51089" lon="-1.60623">
        <ele>131.5</ele>
        <time>2026-03-30T15:15:12.000Z</time>
      </trkpt>
      <trkpt lat="49.51088" lon="-1.6062">
        <ele>131.6</ele>
        <time>2026-03-30T15:15:13.000Z</time>
      </trkpt>
      <trkpt lat="49.51088" lon="-1.60618">
        <ele>130.3</ele>
        <time>2026-03-30T15:15:14.000Z</time>
      </trkpt>
      <trkpt lat="49.51088" lon="-1.60615">
        <ele>130</ele>
        <time>2026-03-30T15:15:15.000Z</time>
      </trkpt>
      <trkpt lat="49.51088" lon="-1.60613">
        <ele>129.9</ele>
        <time>2026-03-30T15:15:16.000Z</time>
      </trkpt>
      <trkpt lat="49.51088" lon="-1.60611">
        <ele>129.5</ele>
        <time>2026-03-30T15:15:17.000Z</time>
      </trkpt>
      <trkpt lat="49.51087" lon="-1.60608">
        <ele>128.9</ele>
        <time>2026-03-30T15:15:18.000Z</time>
      </trkpt>
      <trkpt lat="49.51088" lon="-1.60606">
        <ele>127.5</ele>
        <time>2026-03-30T15:15:19.000Z</time>
      </trkpt>
      <trkpt lat="49.51087" lon="-1.60603">
        <ele>127.5</ele>
        <time>2026-03-30T15:15:20.000Z</time>
      </trkpt>
      <trkpt lat="49.51087" lon="-1.60601">
        <ele>127.1</ele>
        <time>2026-03-30T15:15:21.000Z</time>
      </trkpt>
      <trkpt lat="49.51087" lon="-1.60598">
        <ele>127.9</ele>
        <time>2026-03-30T15:15:22.000Z</time>
      </trkpt>
      <trkpt lat="49.51087" lon="-1.60596">
        <ele>128.2</ele>
        <time>2026-03-30T15:15:23.000Z</time>
      </trkpt>
      <trkpt lat="49.51087" lon="-1.60594">
        <ele>128.4</ele>
        <time>2026-03-30T15:15:24.000Z</time>
      </trkpt>
      <trkpt lat="49.51086" lon="-1.60591">
        <ele>128.1</ele>
        <time>2026-03-30T15:15:25.000Z</time>
      </trkpt>
      <trkpt lat="49.51086" lon="-1.60589">
        <ele>128.5</ele>
        <time>2026-03-30T15:15:26.000Z</time>
      </trkpt>
      <trkpt lat="49.51086" lon="-1.60586">
        <ele>129</ele>
        <time>2026-03-30T15:15:27.000Z</time>
      </trkpt>
      <trkpt lat="49.51085" lon="-1.60584">
        <ele>128.9</ele>
        <time>2026-03-30T15:15:28.000Z</time>
      </trkpt>
      <trkpt lat="49.51085" lon="-1.60582">
        <ele>129.7</ele>
        <time>2026-03-30T15:15:29.000Z</time>
      </trkpt>
      <trkpt lat="49.51085" lon="-1.6058">
        <ele>130.4</ele>
        <time>2026-03-30T15:15:30.000Z</time>
      </trkpt>
      <trkpt lat="49.51085" lon="-1.60577">
        <ele>130.6</ele>
        <time>2026-03-30T15:15:31.000Z</time>
      </trkpt>
      <trkpt lat="49.51085" lon="-1.60575">
        <ele>130.1</ele>
        <time>2026-03-30T15:15:32.000Z</time>
      </trkpt>
      <trkpt lat="49.51085" lon="-1.60573">
        <ele>130.4</ele>
        <time>2026-03-30T15:15:33.000Z</time>
      </trkpt>
      <trkpt lat="49.51085" lon="-1.6057">
        <ele>130.6</ele>
        <time>2026-03-30T15:15:34.000Z</time>
      </trkpt>
      <trkpt lat="49.51085" lon="-1.60568">
        <ele>130.7</ele>
        <time>2026-03-30T15:15:35.000Z</time>
      </trkpt>
      <trkpt lat="49.51084" lon="-1.60566">
        <ele>130.4</ele>
        <time>2026-03-30T15:15:36.000Z</time>
      </trkpt>
      <trkpt lat="49.51084" lon="-1.60563">
        <ele>130.5</ele>
        <time>2026-03-30T15:15:37.000Z</time>
      </trkpt>
      <trkpt lat="49.51084" lon="-1.60561">
        <ele>130.2</ele>
        <time>2026-03-30T15:15:38.000Z</time>
      </trkpt>
      <trkpt lat="49.51084" lon="-1.60559">
        <ele>130.4</ele>
        <time>2026-03-30T15:15:39.000Z</time>
      </trkpt>
      <trkpt lat="49.51084" lon="-1.60556">
        <ele>130.5</ele>
        <time>2026-03-30T15:15:40.000Z</time>
      </trkpt>
      <trkpt lat="49.51084" lon="-1.60554">
        <ele>130.4</ele>
        <time>2026-03-30T15:15:41.000Z</time>
      </trkpt>
      <trkpt lat="49.51085" lon="-1.60552">
        <ele>130.1</ele>
        <time>2026-03-30T15:15:42.000Z</time>
      </trkpt>
      <trkpt lat="49.51085" lon="-1.60549">
        <ele>130.1</ele>
        <time>2026-03-30T15:15:43.000Z</time>
      </trkpt>
      <trkpt lat="49.51085" lon="-1.60547">
        <ele>130</ele>
        <time>2026-03-30T15:15:44.000Z</time>
      </trkpt>
      <trkpt lat="49.51085" lon="-1.60544">
        <ele>129.3</ele>
        <time>2026-03-30T15:15:45.000Z</time>
      </trkpt>
      <trkpt lat="49.51085" lon="-1.60542">
        <ele>129.6</ele>
        <time>2026-03-30T15:15:46.000Z</time>
      </trkpt>
      <trkpt lat="49.51085" lon="-1.6054">
        <ele>128.8</ele>
        <time>2026-03-30T15:15:47.000Z</time>
      </trkpt>
      <trkpt lat="49.51084" lon="-1.60537">
        <ele>129.2</ele>
        <time>2026-03-30T15:15:48.000Z</time>
      </trkpt>
      <trkpt lat="49.51084" lon="-1.60535">
        <ele>128.8</ele>
        <time>2026-03-30T15:15:49.000Z</time>
      </trkpt>
      <trkpt lat="49.51085" lon="-1.60533">
        <ele>128.6</ele>
        <time>2026-03-30T15:15:50.000Z</time>
      </trkpt>
      <trkpt lat="49.51084" lon="-1.60531">
        <ele>128.6</ele>
        <time>2026-03-30T15:15:51.000Z</time>
      </trkpt>
      <trkpt lat="49.51084" lon="-1.60528">
        <ele>128.2</ele>
        <time>2026-03-30T15:15:52.000Z</time>
      </trkpt>
      <trkpt lat="49.51085" lon="-1.60526">
        <ele>128.3</ele>
        <time>2026-03-30T15:15:53.000Z</time>
      </trkpt>
      <trkpt lat="49.51084" lon="-1.60524">
        <ele>128.5</ele>
        <time>2026-03-30T15:15:54.000Z</time>
      </trkpt>
      <trkpt lat="49.51084" lon="-1.60521">
        <ele>128.4</ele>
        <time>2026-03-30T15:15:55.000Z</time>
      </trkpt>
      <trkpt lat="49.51083" lon="-1.60519">
        <ele>128.9</ele>
        <time>2026-03-30T15:15:56.000Z</time>
      </trkpt>
      <trkpt lat="49.51083" lon="-1.60516">
        <ele>128.4</ele>
        <time>2026-03-30T15:15:57.000Z</time>
      </trkpt>
      <trkpt lat="49.51083" lon="-1.60514">
        <ele>128</ele>
        <time>2026-03-30T15:15:58.000Z</time>
      </trkpt>
      <trkpt lat="49.51083" lon="-1.60511">
        <ele>127.9</ele>
        <time>2026-03-30T15:15:59.000Z</time>
      </trkpt>
      <trkpt lat="49.51083" lon="-1.60509">
        <ele>128.2</ele>
        <time>2026-03-30T15:16:00.000Z</time>
      </trkpt>
      <trkpt lat="49.51082" lon="-1.60506">
        <ele>129.1</ele>
        <time>2026-03-30T15:16:01.000Z</time>
      </trkpt>
      <trkpt lat="49.51082" lon="-1.60504">
        <ele>129.7</ele>
        <time>2026-03-30T15:16:02.000Z</time>
      </trkpt>
      <trkpt lat="49.51081" lon="-1.60502">
        <ele>129.8</ele>
        <time>2026-03-30T15:16:03.000Z</time>
      </trkpt>
      <trkpt lat="49.51081" lon="-1.60499">
        <ele>129.1</ele>
        <time>2026-03-30T15:16:04.000Z</time>
      </trkpt>
      <trkpt lat="49.51081" lon="-1.60497">
        <ele>128.6</ele>
        <time>2026-03-30T15:16:05.000Z</time>
      </trkpt>
      <trkpt lat="49.5108" lon="-1.60495">
        <ele>128.2</ele>
        <time>2026-03-30T15:16:06.000Z</time>
      </trkpt>
      <trkpt lat="49.51079" lon="-1.60492">
        <ele>127.8</ele>
        <time>2026-03-30T15:16:07.000Z</time>
      </trkpt>
      <trkpt lat="49.51079" lon="-1.6049">
        <ele>127.7</ele>
        <time>2026-03-30T15:16:08.000Z</time>
      </trkpt>
      <trkpt lat="49.51078" lon="-1.60488">
        <ele>128</ele>
        <time>2026-03-30T15:16:09.000Z</time>
      </trkpt>
      <trkpt lat="49.51078" lon="-1.60485">
        <ele>128.3</ele>
        <time>2026-03-30T15:16:10.000Z</time>
      </trkpt>
      <trkpt lat="49.51077" lon="-1.60483">
        <ele>128.5</ele>
        <time>2026-03-30T15:16:11.000Z</time>
      </trkpt>
      <trkpt lat="49.51077" lon="-1.60481">
        <ele>128.2</ele>
        <time>2026-03-30T15:16:12.000Z</time>
      </trkpt>
      <trkpt lat="49.51076" lon="-1.60479">
        <ele>128.3</ele>
        <time>2026-03-30T15:16:13.000Z</time>
      </trkpt>
      <trkpt lat="49.51076" lon="-1.60477">
        <ele>128.2</ele>
        <time>2026-03-30T15:16:14.000Z</time>
      </trkpt>
      <trkpt lat="49.51075" lon="-1.60475">
        <ele>127.9</ele>
        <time>2026-03-30T15:16:15.000Z</time>
      </trkpt>
      <trkpt lat="49.51075" lon="-1.60472">
        <ele>127.8</ele>
        <time>2026-03-30T15:16:16.000Z</time>
      </trkpt>
      <trkpt lat="49.51074" lon="-1.60471">
        <ele>128.1</ele>
        <time>2026-03-30T15:16:17.000Z</time>
      </trkpt>
      <trkpt lat="49.51073" lon="-1.60469">
        <ele>128.1</ele>
        <time>2026-03-30T15:16:18.000Z</time>
      </trkpt>
      <trkpt lat="49.51073" lon="-1.60467">
        <ele>128.8</ele>
        <time>2026-03-30T15:16:19.000Z</time>
      </trkpt>
      <trkpt lat="49.51072" lon="-1.60465">
        <ele>129.2</ele>
        <time>2026-03-30T15:16:20.000Z</time>
      </trkpt>
      <trkpt lat="49.51071" lon="-1.60463">
        <ele>129.5</ele>
        <time>2026-03-30T15:16:21.000Z</time>
      </trkpt>
      <trkpt lat="49.5107" lon="-1.60461">
        <ele>129</ele>
        <time>2026-03-30T15:16:22.000Z</time>
      </trkpt>
      <trkpt lat="49.5107" lon="-1.60458">
        <ele>128.8</ele>
        <time>2026-03-30T15:16:23.000Z</time>
      </trkpt>
      <trkpt lat="49.51069" lon="-1.60456">
        <ele>129.4</ele>
        <time>2026-03-30T15:16:24.000Z</time>
      </trkpt>
      <trkpt lat="49.51069" lon="-1.60454">
        <ele>129.7</ele>
        <time>2026-03-30T15:16:25.000Z</time>
      </trkpt>
      <trkpt lat="49.51068" lon="-1.60452">
        <ele>130.3</ele>
        <time>2026-03-30T15:16:26.000Z</time>
      </trkpt>
      <trkpt lat="49.51068" lon="-1.60449">
        <ele>130.1</ele>
        <time>2026-03-30T15:16:27.000Z</time>
      </trkpt>
      <trkpt lat="49.51067" lon="-1.60447">
        <ele>129.5</ele>
        <time>2026-03-30T15:16:28.000Z</time>
      </trkpt>
      <trkpt lat="49.51067" lon="-1.60444">
        <ele>129.6</ele>
        <time>2026-03-30T15:16:29.000Z</time>
      </trkpt>
      <trkpt lat="49.51067" lon="-1.60442">
        <ele>129.3</ele>
        <time>2026-03-30T15:16:30.000Z</time>
      </trkpt>
      <trkpt lat="49.51068" lon="-1.60439">
        <ele>129.2</ele>
        <time>2026-03-30T15:16:31.000Z</time>
      </trkpt>
      <trkpt lat="49.51069" lon="-1.60437">
        <ele>128.5</ele>
        <time>2026-03-30T15:16:32.000Z</time>
      </trkpt>
      <trkpt lat="49.5107" lon="-1.60435">
        <ele>128.2</ele>
        <time>2026-03-30T15:16:33.000Z</time>
      </trkpt>
      <trkpt lat="49.51072" lon="-1.60434">
        <ele>127.7</ele>
        <time>2026-03-30T15:16:34.000Z</time>
      </trkpt>
      <trkpt lat="49.51073" lon="-1.60433">
        <ele>126.9</ele>
        <time>2026-03-30T15:16:35.000Z</time>
      </trkpt>
      <trkpt lat="49.51075" lon="-1.60432">
        <ele>126.7</ele>
        <time>2026-03-30T15:16:36.000Z</time>
      </trkpt>
      <trkpt lat="49.51077" lon="-1.60431">
        <ele>126.4</ele>
        <time>2026-03-30T15:16:37.000Z</time>
      </trkpt>
      <trkpt lat="49.51078" lon="-1.6043">
        <ele>125.9</ele>
        <time>2026-03-30T15:16:38.000Z</time>
      </trkpt>
      <trkpt lat="49.5108" lon="-1.60429">
        <ele>125.6</ele>
        <time>2026-03-30T15:16:39.000Z</time>
      </trkpt>
      <trkpt lat="49.51082" lon="-1.60428">
        <ele>125.3</ele>
        <time>2026-03-30T15:16:40.000Z</time>
      </trkpt>
      <trkpt lat="49.51083" lon="-1.60428">
        <ele>125.2</ele>
        <time>2026-03-30T15:16:41.000Z</time>
      </trkpt>
      <trkpt lat="49.51085" lon="-1.60427">
        <ele>125.7</ele>
        <time>2026-03-30T15:16:42.000Z</time>
      </trkpt>
      <trkpt lat="49.51086" lon="-1.60426">
        <ele>125.8</ele>
        <time>2026-03-30T15:16:43.000Z</time>
      </trkpt>
      <trkpt lat="49.51088" lon="-1.60425">
        <ele>125.8</ele>
        <time>2026-03-30T15:16:44.000Z</time>
      </trkpt>
      <trkpt lat="49.5109" lon="-1.60425">
        <ele>125.6</ele>
        <time>2026-03-30T15:16:45.000Z</time>
      </trkpt>
      <trkpt lat="49.51091" lon="-1.60424">
        <ele>124.7</ele>
        <time>2026-03-30T15:16:46.000Z</time>
      </trkpt>
      <trkpt lat="49.51093" lon="-1.60424">
        <ele>124.5</ele>
        <time>2026-03-30T15:16:47.000Z</time>
      </trkpt>
      <trkpt lat="49.51094" lon="-1.60424">
        <ele>124.2</ele>
        <time>2026-03-30T15:16:48.000Z</time>
      </trkpt>
      <trkpt lat="49.51096" lon="-1.60423">
        <ele>124.1</ele>
        <time>2026-03-30T15:16:49.000Z</time>
      </trkpt>
      <trkpt lat="49.51097" lon="-1.60423">
        <ele>124.4</ele>
        <time>2026-03-30T15:16:50.000Z</time>
      </trkpt>
      <trkpt lat="49.51099" lon="-1.60422">
        <ele>124.4</ele>
        <time>2026-03-30T15:16:51.000Z</time>
      </trkpt>
      <trkpt lat="49.511" lon="-1.60421">
        <ele>124.6</ele>
        <time>2026-03-30T15:16:52.000Z</time>
      </trkpt>
      <trkpt lat="49.51102" lon="-1.60421">
        <ele>124.7</ele>
        <time>2026-03-30T15:16:53.000Z</time>
      </trkpt>
      <trkpt lat="49.51103" lon="-1.6042">
        <ele>125.2</ele>
        <time>2026-03-30T15:16:54.000Z</time>
      </trkpt>
      <trkpt lat="49.51105" lon="-1.60419">
        <ele>125.5</ele>
        <time>2026-03-30T15:16:55.000Z</time>
      </trkpt>
      <trkpt lat="49.51106" lon="-1.60419">
        <ele>125.5</ele>
        <time>2026-03-30T15:16:56.000Z</time>
      </trkpt>
      <trkpt lat="49.51108" lon="-1.60419">
        <ele>125.6</ele>
        <time>2026-03-30T15:16:57.000Z</time>
      </trkpt>
      <trkpt lat="49.51109" lon="-1.60419">
        <ele>125.6</ele>
        <time>2026-03-30T15:16:58.000Z</time>
      </trkpt>
      <trkpt lat="49.51111" lon="-1.60419">
        <ele>125.3</ele>
        <time>2026-03-30T15:16:59.000Z</time>
      </trkpt>
      <trkpt lat="49.51112" lon="-1.60418">
        <ele>125</ele>
        <time>2026-03-30T15:17:00.000Z</time>
      </trkpt>
      <trkpt lat="49.51114" lon="-1.60418">
        <ele>124.7</ele>
        <time>2026-03-30T15:17:01.000Z</time>
      </trkpt>
      <trkpt lat="49.51115" lon="-1.60418">
        <ele>124.6</ele>
        <time>2026-03-30T15:17:02.000Z</time>
      </trkpt>
      <trkpt lat="49.51117" lon="-1.60418">
        <ele>123.7</ele>
        <time>2026-03-30T15:17:03.000Z</time>
      </trkpt>
      <trkpt lat="49.51118" lon="-1.60418">
        <ele>123.1</ele>
        <time>2026-03-30T15:17:04.000Z</time>
      </trkpt>
      <trkpt lat="49.5112" lon="-1.60417">
        <ele>122.3</ele>
        <time>2026-03-30T15:17:05.000Z</time>
      </trkpt>
      <trkpt lat="49.51122" lon="-1.60417">
        <ele>121.4</ele>
        <time>2026-03-30T15:17:06.000Z</time>
      </trkpt>
      <trkpt lat="49.51123" lon="-1.60417">
        <ele>121</ele>
        <time>2026-03-30T15:17:07.000Z</time>
      </trkpt>
      <trkpt lat="49.51124" lon="-1.60417">
        <ele>120.8</ele>
        <time>2026-03-30T15:17:08.000Z</time>
      </trkpt>
      <trkpt lat="49.51126" lon="-1.60417">
        <ele>120.7</ele>
        <time>2026-03-30T15:17:09.000Z</time>
      </trkpt>
      <trkpt lat="49.51127" lon="-1.60417">
        <ele>120.8</ele>
        <time>2026-03-30T15:17:10.000Z</time>
      </trkpt>
      <trkpt lat="49.51129" lon="-1.60417">
        <ele>120.3</ele>
        <time>2026-03-30T15:17:11.000Z</time>
      </trkpt>
      <trkpt lat="49.5113" lon="-1.60417">
        <ele>120.8</ele>
        <time>2026-03-30T15:17:12.000Z</time>
      </trkpt>
      <trkpt lat="49.51131" lon="-1.60416">
        <ele>120.8</ele>
        <time>2026-03-30T15:17:13.000Z</time>
      </trkpt>
      <trkpt lat="49.51133" lon="-1.60416">
        <ele>121</ele>
        <time>2026-03-30T15:17:14.000Z</time>
      </trkpt>
      <trkpt lat="49.51134" lon="-1.60415">
        <ele>121.7</ele>
        <time>2026-03-30T15:17:15.000Z</time>
      </trkpt>
      <trkpt lat="49.51136" lon="-1.60414">
        <ele>122</ele>
        <time>2026-03-30T15:17:16.000Z</time>
      </trkpt>
      <trkpt lat="49.51137" lon="-1.60413">
        <ele>121.7</ele>
        <time>2026-03-30T15:17:17.000Z</time>
      </trkpt>
      <trkpt lat="49.51138" lon="-1.60411">
        <ele>121.7</ele>
        <time>2026-03-30T15:17:18.000Z</time>
      </trkpt>
      <trkpt lat="49.51139" lon="-1.60409">
        <ele>121.6</ele>
        <time>2026-03-30T15:17:19.000Z</time>
      </trkpt>
      <trkpt lat="49.51139" lon="-1.60407">
        <ele>121.2</ele>
        <time>2026-03-30T15:17:20.000Z</time>
      </trkpt>
      <trkpt lat="49.5114" lon="-1.60405">
        <ele>120.3</ele>
        <time>2026-03-30T15:17:21.000Z</time>
      </trkpt>
      <trkpt lat="49.51141" lon="-1.60403">
        <ele>120.7</ele>
        <time>2026-03-30T15:17:22.000Z</time>
      </trkpt>
      <trkpt lat="49.51142" lon="-1.60401">
        <ele>121</ele>
        <time>2026-03-30T15:17:23.000Z</time>
      </trkpt>
      <trkpt lat="49.51142" lon="-1.60398">
        <ele>121.4</ele>
        <time>2026-03-30T15:17:24.000Z</time>
      </trkpt>
      <trkpt lat="49.51143" lon="-1.60396">
        <ele>122</ele>
        <time>2026-03-30T15:17:25.000Z</time>
      </trkpt>
      <trkpt lat="49.51143" lon="-1.60393">
        <ele>122.2</ele>
        <time>2026-03-30T15:17:26.000Z</time>
      </trkpt>
      <trkpt lat="49.51143" lon="-1.60391">
        <ele>122.4</ele>
        <time>2026-03-30T15:17:27.000Z</time>
      </trkpt>
      <trkpt lat="49.51143" lon="-1.60388">
        <ele>122.6</ele>
        <time>2026-03-30T15:17:28.000Z</time>
      </trkpt>
      <trkpt lat="49.51143" lon="-1.60386">
        <ele>122.9</ele>
        <time>2026-03-30T15:17:29.000Z</time>
      </trkpt>
      <trkpt lat="49.51143" lon="-1.60384">
        <ele>123.2</ele>
        <time>2026-03-30T15:17:30.000Z</time>
      </trkpt>
      <trkpt lat="49.51143" lon="-1.60381">
        <ele>123.9</ele>
        <time>2026-03-30T15:17:31.000Z</time>
      </trkpt>
      <trkpt lat="49.51143" lon="-1.60379">
        <ele>124.2</ele>
        <time>2026-03-30T15:17:32.000Z</time>
      </trkpt>
      <trkpt lat="49.51143" lon="-1.60377">
        <ele>124.4</ele>
        <time>2026-03-30T15:17:33.000Z</time>
      </trkpt>
      <trkpt lat="49.51143" lon="-1.60375">
        <ele>125.1</ele>
        <time>2026-03-30T15:17:34.000Z</time>
      </trkpt>
      <trkpt lat="49.51143" lon="-1.60373">
        <ele>124.8</ele>
        <time>2026-03-30T15:17:35.000Z</time>
      </trkpt>
      <trkpt lat="49.51143" lon="-1.60371">
        <ele>124.9</ele>
        <time>2026-03-30T15:17:36.000Z</time>
      </trkpt>
      <trkpt lat="49.51143" lon="-1.60369">
        <ele>125.5</ele>
        <time>2026-03-30T15:17:37.000Z</time>
      </trkpt>
      <trkpt lat="49.51144" lon="-1.60367">
        <ele>125.7</ele>
        <time>2026-03-30T15:17:38.000Z</time>
      </trkpt>
      <trkpt lat="49.51145" lon="-1.60365">
        <ele>125.3</ele>
        <time>2026-03-30T15:17:39.000Z</time>
      </trkpt>
      <trkpt lat="49.51146" lon="-1.60364">
        <ele>125.2</ele>
        <time>2026-03-30T15:17:40.000Z</time>
      </trkpt>
      <trkpt lat="49.51148" lon="-1.60363">
        <ele>124.8</ele>
        <time>2026-03-30T15:17:41.000Z</time>
      </trkpt>
      <trkpt lat="49.51149" lon="-1.60361">
        <ele>124</ele>
        <time>2026-03-30T15:17:42.000Z</time>
      </trkpt>
      <trkpt lat="49.5115" lon="-1.60361">
        <ele>123</ele>
        <time>2026-03-30T15:17:43.000Z</time>
      </trkpt>
      <trkpt lat="49.51152" lon="-1.6036">
        <ele>121.9</ele>
        <time>2026-03-30T15:17:44.000Z</time>
      </trkpt>
      <trkpt lat="49.51153" lon="-1.60359">
        <ele>121.6</ele>
        <time>2026-03-30T15:17:45.000Z</time>
      </trkpt>
      <trkpt lat="49.51155" lon="-1.60358">
        <ele>121.4</ele>
        <time>2026-03-30T15:17:46.000Z</time>
      </trkpt>
      <trkpt lat="49.51156" lon="-1.60358">
        <ele>121.3</ele>
        <time>2026-03-30T15:17:47.000Z</time>
      </trkpt>
      <trkpt lat="49.51158" lon="-1.60357">
        <ele>121.5</ele>
        <time>2026-03-30T15:17:48.000Z</time>
      </trkpt>
      <trkpt lat="49.51159" lon="-1.60357">
        <ele>121.8</ele>
        <time>2026-03-30T15:17:49.000Z</time>
      </trkpt>
      <trkpt lat="49.5116" lon="-1.60356">
        <ele>122.2</ele>
        <time>2026-03-30T15:17:50.000Z</time>
      </trkpt>
      <trkpt lat="49.51161" lon="-1.60356">
        <ele>121.3</ele>
        <time>2026-03-30T15:17:51.000Z</time>
      </trkpt>
      <trkpt lat="49.51163" lon="-1.60355">
        <ele>121.3</ele>
        <time>2026-03-30T15:17:52.000Z</time>
      </trkpt>
      <trkpt lat="49.51164" lon="-1.60355">
        <ele>121.5</ele>
        <time>2026-03-30T15:17:53.000Z</time>
      </trkpt>
      <trkpt lat="49.51166" lon="-1.60354">
        <ele>121.5</ele>
        <time>2026-03-30T15:17:54.000Z</time>
      </trkpt>
      <trkpt lat="49.51167" lon="-1.60354">
        <ele>120.7</ele>
        <time>2026-03-30T15:17:55.000Z</time>
      </trkpt>
      <trkpt lat="49.51169" lon="-1.60353">
        <ele>120.3</ele>
        <time>2026-03-30T15:17:56.000Z</time>
      </trkpt>
      <trkpt lat="49.5117" lon="-1.60353">
        <ele>120.3</ele>
        <time>2026-03-30T15:17:57.000Z</time>
      </trkpt>
      <trkpt lat="49.51172" lon="-1.60353">
        <ele>119.9</ele>
        <time>2026-03-30T15:17:58.000Z</time>
      </trkpt>
      <trkpt lat="49.51173" lon="-1.60352">
        <ele>120.4</ele>
        <time>2026-03-30T15:17:59.000Z</time>
      </trkpt>
      <trkpt lat="49.51175" lon="-1.60351">
        <ele>120.5</ele>
        <time>2026-03-30T15:18:00.000Z</time>
      </trkpt>
      <trkpt lat="49.51176" lon="-1.60351">
        <ele>121</ele>
        <time>2026-03-30T15:18:01.000Z</time>
      </trkpt>
      <trkpt lat="49.51177" lon="-1.6035">
        <ele>121.5</ele>
        <time>2026-03-30T15:18:02.000Z</time>
      </trkpt>
      <trkpt lat="49.51179" lon="-1.60349">
        <ele>121.7</ele>
        <time>2026-03-30T15:18:03.000Z</time>
      </trkpt>
      <trkpt lat="49.5118" lon="-1.60349">
        <ele>121.8</ele>
        <time>2026-03-30T15:18:04.000Z</time>
      </trkpt>
      <trkpt lat="49.51181" lon="-1.60348">
        <ele>122</ele>
        <time>2026-03-30T15:18:05.000Z</time>
      </trkpt>
      <trkpt lat="49.51183" lon="-1.60348">
        <ele>122.1</ele>
        <time>2026-03-30T15:18:06.000Z</time>
      </trkpt>
      <trkpt lat="49.51184" lon="-1.60347">
        <ele>122.2</ele>
        <time>2026-03-30T15:18:07.000Z</time>
      </trkpt>
      <trkpt lat="49.51186" lon="-1.60347">
        <ele>122.3</ele>
        <time>2026-03-30T15:18:08.000Z</time>
      </trkpt>
      <trkpt lat="49.51187" lon="-1.60347">
        <ele>122.3</ele>
        <time>2026-03-30T15:18:09.000Z</time>
      </trkpt>
      <trkpt lat="49.51188" lon="-1.60346">
        <ele>122.4</ele>
        <time>2026-03-30T15:18:10.000Z</time>
      </trkpt>
      <trkpt lat="49.5119" lon="-1.60345">
        <ele>122.2</ele>
        <time>2026-03-30T15:18:11.000Z</time>
      </trkpt>
      <trkpt lat="49.51191" lon="-1.60345">
        <ele>122.7</ele>
        <time>2026-03-30T15:18:12.000Z</time>
      </trkpt>
      <trkpt lat="49.51193" lon="-1.60344">
        <ele>122.5</ele>
        <time>2026-03-30T15:18:13.000Z</time>
      </trkpt>
      <trkpt lat="49.51194" lon="-1.60343">
        <ele>122.9</ele>
        <time>2026-03-30T15:18:14.000Z</time>
      </trkpt>
      <trkpt lat="49.51196" lon="-1.60343">
        <ele>122.7</ele>
        <time>2026-03-30T15:18:15.000Z</time>
      </trkpt>
      <trkpt lat="49.51198" lon="-1.60342">
        <ele>122.2</ele>
        <time>2026-03-30T15:18:16.000Z</time>
      </trkpt>
      <trkpt lat="49.51199" lon="-1.60341">
        <ele>122.3</ele>
        <time>2026-03-30T15:18:17.000Z</time>
      </trkpt>
      <trkpt lat="49.51201" lon="-1.60341">
        <ele>121.7</ele>
        <time>2026-03-30T15:18:18.000Z</time>
      </trkpt>
      <trkpt lat="49.51202" lon="-1.6034">
        <ele>121.8</ele>
        <time>2026-03-30T15:18:19.000Z</time>
      </trkpt>
      <trkpt lat="49.51204" lon="-1.60339">
        <ele>121.7</ele>
        <time>2026-03-30T15:18:20.000Z</time>
      </trkpt>
      <trkpt lat="49.51205" lon="-1.60339">
        <ele>121</ele>
        <time>2026-03-30T15:18:21.000Z</time>
      </trkpt>
      <trkpt lat="49.51207" lon="-1.60338">
        <ele>120.6</ele>
        <time>2026-03-30T15:18:22.000Z</time>
      </trkpt>
      <trkpt lat="49.51208" lon="-1.60338">
        <ele>120.7</ele>
        <time>2026-03-30T15:18:23.000Z</time>
      </trkpt>
      <trkpt lat="49.5121" lon="-1.60338">
        <ele>120</ele>
        <time>2026-03-30T15:18:24.000Z</time>
      </trkpt>
      <trkpt lat="49.51211" lon="-1.60338">
        <ele>119.6</ele>
        <time>2026-03-30T15:18:25.000Z</time>
      </trkpt>
      <trkpt lat="49.51213" lon="-1.60337">
        <ele>119.9</ele>
        <time>2026-03-30T15:18:26.000Z</time>
      </trkpt>
      <trkpt lat="49.51214" lon="-1.60337">
        <ele>120</ele>
        <time>2026-03-30T15:18:27.000Z</time>
      </trkpt>
      <trkpt lat="49.51216" lon="-1.60337">
        <ele>119.6</ele>
        <time>2026-03-30T15:18:28.000Z</time>
      </trkpt>
      <trkpt lat="49.51217" lon="-1.60336">
        <ele>119.8</ele>
        <time>2026-03-30T15:18:29.000Z</time>
      </trkpt>
      <trkpt lat="49.51218" lon="-1.60336">
        <ele>120.1</ele>
        <time>2026-03-30T15:18:30.000Z</time>
      </trkpt>
      <trkpt lat="49.5122" lon="-1.60335">
        <ele>120.5</ele>
        <time>2026-03-30T15:18:31.000Z</time>
      </trkpt>
      <trkpt lat="49.51221" lon="-1.60335">
        <ele>120.9</ele>
        <time>2026-03-30T15:18:32.000Z</time>
      </trkpt>
      <trkpt lat="49.51223" lon="-1.60334">
        <ele>121.2</ele>
        <time>2026-03-30T15:18:33.000Z</time>
      </trkpt>
      <trkpt lat="49.51224" lon="-1.60334">
        <ele>121.1</ele>
        <time>2026-03-30T15:18:34.000Z</time>
      </trkpt>
      <trkpt lat="49.51225" lon="-1.60333">
        <ele>121</ele>
        <time>2026-03-30T15:18:35.000Z</time>
      </trkpt>
      <trkpt lat="49.51227" lon="-1.60332">
        <ele>121</ele>
        <time>2026-03-30T15:18:36.000Z</time>
      </trkpt>
      <trkpt lat="49.51228" lon="-1.60331">
        <ele>121.3</ele>
        <time>2026-03-30T15:18:37.000Z</time>
      </trkpt>
      <trkpt lat="49.51229" lon="-1.60331">
        <ele>121</ele>
        <time>2026-03-30T15:18:38.000Z</time>
      </trkpt>
      <trkpt lat="49.51231" lon="-1.6033">
        <ele>120.8</ele>
        <time>2026-03-30T15:18:39.000Z</time>
      </trkpt>
      <trkpt lat="49.51232" lon="-1.6033">
        <ele>121</ele>
        <time>2026-03-30T15:18:40.000Z</time>
      </trkpt>
      <trkpt lat="49.51234" lon="-1.60329">
        <ele>121.1</ele>
        <time>2026-03-30T15:18:41.000Z</time>
      </trkpt>
      <trkpt lat="49.51235" lon="-1.60329">
        <ele>121</ele>
        <time>2026-03-30T15:18:42.000Z</time>
      </trkpt>
      <trkpt lat="49.51237" lon="-1.60328">
        <ele>121</ele>
        <time>2026-03-30T15:18:43.000Z</time>
      </trkpt>
      <trkpt lat="49.51238" lon="-1.60328">
        <ele>121.2</ele>
        <time>2026-03-30T15:18:44.000Z</time>
      </trkpt>
      <trkpt lat="49.5124" lon="-1.60327">
        <ele>120.9</ele>
        <time>2026-03-30T15:18:45.000Z</time>
      </trkpt>
      <trkpt lat="49.51241" lon="-1.60326">
        <ele>121</ele>
        <time>2026-03-30T15:18:46.000Z</time>
      </trkpt>
      <trkpt lat="49.51242" lon="-1.60325">
        <ele>121.5</ele>
        <time>2026-03-30T15:18:47.000Z</time>
      </trkpt>
      <trkpt lat="49.51244" lon="-1.60323">
        <ele>121.1</ele>
        <time>2026-03-30T15:18:48.000Z</time>
      </trkpt>
      <trkpt lat="49.51245" lon="-1.60322">
        <ele>121.1</ele>
        <time>2026-03-30T15:18:49.000Z</time>
      </trkpt>
      <trkpt lat="49.51246" lon="-1.60321">
        <ele>120.8</ele>
        <time>2026-03-30T15:18:50.000Z</time>
      </trkpt>
      <trkpt lat="49.51247" lon="-1.60319">
        <ele>120.4</ele>
        <time>2026-03-30T15:18:51.000Z</time>
      </trkpt>
      <trkpt lat="49.51248" lon="-1.60318">
        <ele>120.6</ele>
        <time>2026-03-30T15:18:52.000Z</time>
      </trkpt>
      <trkpt lat="49.51249" lon="-1.60316">
        <ele>120.6</ele>
        <time>2026-03-30T15:18:53.000Z</time>
      </trkpt>
      <trkpt lat="49.51249" lon="-1.60314">
        <ele>120.9</ele>
        <time>2026-03-30T15:18:54.000Z</time>
      </trkpt>
      <trkpt lat="49.5125" lon="-1.60312">
        <ele>121</ele>
        <time>2026-03-30T15:18:55.000Z</time>
      </trkpt>
      <trkpt lat="49.5125" lon="-1.60309">
        <ele>121.1</ele>
        <time>2026-03-30T15:18:56.000Z</time>
      </trkpt>
      <trkpt lat="49.51251" lon="-1.60307">
        <ele>120.4</ele>
        <time>2026-03-30T15:18:57.000Z</time>
      </trkpt>
      <trkpt lat="49.51251" lon="-1.60305">
        <ele>120.4</ele>
        <time>2026-03-30T15:18:58.000Z</time>
      </trkpt>
      <trkpt lat="49.51251" lon="-1.60302">
        <ele>120.2</ele>
        <time>2026-03-30T15:18:59.000Z</time>
      </trkpt>
      <trkpt lat="49.51251" lon="-1.60299">
        <ele>120.2</ele>
        <time>2026-03-30T15:19:00.000Z</time>
      </trkpt>
      <trkpt lat="49.51251" lon="-1.60297">
        <ele>119.8</ele>
        <time>2026-03-30T15:19:01.000Z</time>
      </trkpt>
      <trkpt lat="49.51251" lon="-1.60294">
        <ele>119.8</ele>
        <time>2026-03-30T15:19:02.000Z</time>
      </trkpt>
      <trkpt lat="49.51251" lon="-1.60292">
        <ele>119.7</ele>
        <time>2026-03-30T15:19:03.000Z</time>
      </trkpt>
      <trkpt lat="49.51251" lon="-1.60289">
        <ele>119.4</ele>
        <time>2026-03-30T15:19:04.000Z</time>
      </trkpt>
      <trkpt lat="49.51251" lon="-1.60287">
        <ele>118.6</ele>
        <time>2026-03-30T15:19:05.000Z</time>
      </trkpt>
      <trkpt lat="49.51251" lon="-1.60285">
        <ele>117.5</ele>
        <time>2026-03-30T15:19:06.000Z</time>
      </trkpt>
      <trkpt lat="49.51251" lon="-1.60283">
        <ele>116.7</ele>
        <time>2026-03-30T15:19:07.000Z</time>
      </trkpt>
      <trkpt lat="49.51252" lon="-1.60281">
        <ele>116.6</ele>
        <time>2026-03-30T15:19:08.000Z</time>
      </trkpt>
      <trkpt lat="49.51253" lon="-1.60279">
        <ele>116.2</ele>
        <time>2026-03-30T15:19:09.000Z</time>
      </trkpt>
      <trkpt lat="49.51254" lon="-1.60277">
        <ele>116.5</ele>
        <time>2026-03-30T15:19:10.000Z</time>
      </trkpt>
      <trkpt lat="49.51256" lon="-1.60276">
        <ele>116.6</ele>
        <time>2026-03-30T15:19:11.000Z</time>
      </trkpt>
      <trkpt lat="49.51257" lon="-1.60274">
        <ele>116.5</ele>
        <time>2026-03-30T15:19:12.000Z</time>
      </trkpt>
      <trkpt lat="49.51258" lon="-1.60273">
        <ele>116.9</ele>
        <time>2026-03-30T15:19:13.000Z</time>
      </trkpt>
      <trkpt lat="49.51259" lon="-1.60272">
        <ele>117.7</ele>
        <time>2026-03-30T15:19:14.000Z</time>
      </trkpt>
      <trkpt lat="49.5126" lon="-1.6027">
        <ele>118.7</ele>
        <time>2026-03-30T15:19:15.000Z</time>
      </trkpt>
      <trkpt lat="49.51262" lon="-1.60269">
        <ele>118.7</ele>
        <time>2026-03-30T15:19:16.000Z</time>
      </trkpt>
      <trkpt lat="49.51263" lon="-1.60267">
        <ele>118.5</ele>
        <time>2026-03-30T15:19:17.000Z</time>
      </trkpt>
      <trkpt lat="49.51264" lon="-1.60266">
        <ele>118.4</ele>
        <time>2026-03-30T15:19:18.000Z</time>
      </trkpt>
      <trkpt lat="49.51265" lon="-1.60265">
        <ele>118</ele>
        <time>2026-03-30T15:19:19.000Z</time>
      </trkpt>
      <trkpt lat="49.51266" lon="-1.60264">
        <ele>117.5</ele>
        <time>2026-03-30T15:19:20.000Z</time>
      </trkpt>
      <trkpt lat="49.51268" lon="-1.60263">
        <ele>116.9</ele>
        <time>2026-03-30T15:19:21.000Z</time>
      </trkpt>
      <trkpt lat="49.51269" lon="-1.60261">
        <ele>117.2</ele>
        <time>2026-03-30T15:19:22.000Z</time>
      </trkpt>
      <trkpt lat="49.5127" lon="-1.6026">
        <ele>117.1</ele>
        <time>2026-03-30T15:19:23.000Z</time>
      </trkpt>
      <trkpt lat="49.51271" lon="-1.60258">
        <ele>117.2</ele>
        <time>2026-03-30T15:19:24.000Z</time>
      </trkpt>
      <trkpt lat="49.51272" lon="-1.60257">
        <ele>117.7</ele>
        <time>2026-03-30T15:19:25.000Z</time>
      </trkpt>
      <trkpt lat="49.51273" lon="-1.60255">
        <ele>118.1</ele>
        <time>2026-03-30T15:19:26.000Z</time>
      </trkpt>
      <trkpt lat="49.51275" lon="-1.60254">
        <ele>118.6</ele>
        <time>2026-03-30T15:19:27.000Z</time>
      </trkpt>
      <trkpt lat="49.51276" lon="-1.60253">
        <ele>118.7</ele>
        <time>2026-03-30T15:19:28.000Z</time>
      </trkpt>
      <trkpt lat="49.51277" lon="-1.60252">
        <ele>118.3</ele>
        <time>2026-03-30T15:19:29.000Z</time>
      </trkpt>
      <trkpt lat="49.51278" lon="-1.60251">
        <ele>118.2</ele>
        <time>2026-03-30T15:19:30.000Z</time>
      </trkpt>
      <trkpt lat="49.5128" lon="-1.60249">
        <ele>118.3</ele>
        <time>2026-03-30T15:19:31.000Z</time>
      </trkpt>
      <trkpt lat="49.51281" lon="-1.60248">
        <ele>117.6</ele>
        <time>2026-03-30T15:19:32.000Z</time>
      </trkpt>
      <trkpt lat="49.51282" lon="-1.60247">
        <ele>117.7</ele>
        <time>2026-03-30T15:19:33.000Z</time>
      </trkpt>
      <trkpt lat="49.51283" lon="-1.60246">
        <ele>117.4</ele>
        <time>2026-03-30T15:19:34.000Z</time>
      </trkpt>
      <trkpt lat="49.51284" lon="-1.60245">
        <ele>117.6</ele>
        <time>2026-03-30T15:19:35.000Z</time>
      </trkpt>
      <trkpt lat="49.51285" lon="-1.60243">
        <ele>118.4</ele>
        <time>2026-03-30T15:19:36.000Z</time>
      </trkpt>
      <trkpt lat="49.51286" lon="-1.60242">
        <ele>118.8</ele>
        <time>2026-03-30T15:19:37.000Z</time>
      </trkpt>
      <trkpt lat="49.51288" lon="-1.6024">
        <ele>118.8</ele>
        <time>2026-03-30T15:19:38.000Z</time>
      </trkpt>
      <trkpt lat="49.51289" lon="-1.60239">
        <ele>119.2</ele>
        <time>2026-03-30T15:19:39.000Z</time>
      </trkpt>
      <trkpt lat="49.5129" lon="-1.60237">
        <ele>118.8</ele>
        <time>2026-03-30T15:19:40.000Z</time>
      </trkpt>
      <trkpt lat="49.51291" lon="-1.60236">
        <ele>118.7</ele>
        <time>2026-03-30T15:19:41.000Z</time>
      </trkpt>
      <trkpt lat="49.51293" lon="-1.60235">
        <ele>118.6</ele>
        <time>2026-03-30T15:19:42.000Z</time>
      </trkpt>
      <trkpt lat="49.51294" lon="-1.60233">
        <ele>118.8</ele>
        <time>2026-03-30T15:19:43.000Z</time>
      </trkpt>
      <trkpt lat="49.51295" lon="-1.60232">
        <ele>118.6</ele>
        <time>2026-03-30T15:19:44.000Z</time>
      </trkpt>
      <trkpt lat="49.51296" lon="-1.6023">
        <ele>118.6</ele>
        <time>2026-03-30T15:19:45.000Z</time>
      </trkpt>
      <trkpt lat="49.51298" lon="-1.60229">
        <ele>118.3</ele>
        <time>2026-03-30T15:19:46.000Z</time>
      </trkpt>
      <trkpt lat="49.51299" lon="-1.60227">
        <ele>118.2</ele>
        <time>2026-03-30T15:19:47.000Z</time>
      </trkpt>
      <trkpt lat="49.513" lon="-1.60225">
        <ele>118.2</ele>
        <time>2026-03-30T15:19:48.000Z</time>
      </trkpt>
      <trkpt lat="49.51301" lon="-1.60224">
        <ele>118.3</ele>
        <time>2026-03-30T15:19:49.000Z</time>
      </trkpt>
      <trkpt lat="49.51302" lon="-1.60222">
        <ele>118.9</ele>
        <time>2026-03-30T15:19:50.000Z</time>
      </trkpt>
      <trkpt lat="49.51304" lon="-1.60221">
        <ele>118.8</ele>
        <time>2026-03-30T15:19:51.000Z</time>
      </trkpt>
      <trkpt lat="49.51305" lon="-1.60219">
        <ele>119.4</ele>
        <time>2026-03-30T15:19:52.000Z</time>
      </trkpt>
      <trkpt lat="49.51306" lon="-1.60217">
        <ele>119.5</ele>
        <time>2026-03-30T15:19:53.000Z</time>
      </trkpt>
      <trkpt lat="49.51307" lon="-1.60216">
        <ele>119.9</ele>
        <time>2026-03-30T15:19:54.000Z</time>
      </trkpt>
      <trkpt lat="49.51309" lon="-1.60215">
        <ele>120.2</ele>
        <time>2026-03-30T15:19:55.000Z</time>
      </trkpt>
      <trkpt lat="49.5131" lon="-1.60213">
        <ele>120</ele>
        <time>2026-03-30T15:19:56.000Z</time>
      </trkpt>
      <trkpt lat="49.51311" lon="-1.60212">
        <ele>119.7</ele>
        <time>2026-03-30T15:19:57.000Z</time>
      </trkpt>
      <trkpt lat="49.51313" lon="-1.60211">
        <ele>119.9</ele>
        <time>2026-03-30T15:19:58.000Z</time>
      </trkpt>
      <trkpt lat="49.51314" lon="-1.60209">
        <ele>119.9</ele>
        <time>2026-03-30T15:19:59.000Z</time>
      </trkpt>
      <trkpt lat="49.51315" lon="-1.60208">
        <ele>119.7</ele>
        <time>2026-03-30T15:20:00.000Z</time>
      </trkpt>
      <trkpt lat="49.51316" lon="-1.60207">
        <ele>118.9</ele>
        <time>2026-03-30T15:20:01.000Z</time>
      </trkpt>
      <trkpt lat="49.51317" lon="-1.60206">
        <ele>119</ele>
        <time>2026-03-30T15:20:02.000Z</time>
      </trkpt>
      <trkpt lat="49.51319" lon="-1.60205">
        <ele>119.1</ele>
        <time>2026-03-30T15:20:03.000Z</time>
      </trkpt>
      <trkpt lat="49.5132" lon="-1.60204">
        <ele>118.9</ele>
        <time>2026-03-30T15:20:04.000Z</time>
      </trkpt>
      <trkpt lat="49.51322" lon="-1.60204">
        <ele>118.7</ele>
        <time>2026-03-30T15:20:05.000Z</time>
      </trkpt>
      <trkpt lat="49.51323" lon="-1.60203">
        <ele>118.5</ele>
        <time>2026-03-30T15:20:06.000Z</time>
      </trkpt>
      <trkpt lat="49.51325" lon="-1.60203">
        <ele>117.9</ele>
        <time>2026-03-30T15:20:07.000Z</time>
      </trkpt>
      <trkpt lat="49.51326" lon="-1.60203">
        <ele>118.3</ele>
        <time>2026-03-30T15:20:08.000Z</time>
      </trkpt>
      <trkpt lat="49.51328" lon="-1.60202">
        <ele>118.1</ele>
        <time>2026-03-30T15:20:09.000Z</time>
      </trkpt>
      <trkpt lat="49.51329" lon="-1.60202">
        <ele>118</ele>
        <time>2026-03-30T15:20:10.000Z</time>
      </trkpt>
      <trkpt lat="49.5133" lon="-1.60202">
        <ele>118</ele>
        <time>2026-03-30T15:20:11.000Z</time>
      </trkpt>
      <trkpt lat="49.51332" lon="-1.60202">
        <ele>118.1</ele>
        <time>2026-03-30T15:20:12.000Z</time>
      </trkpt>
      <trkpt lat="49.51333" lon="-1.60201">
        <ele>117.4</ele>
        <time>2026-03-30T15:20:13.000Z</time>
      </trkpt>
      <trkpt lat="49.51334" lon="-1.60201">
        <ele>116.7</ele>
        <time>2026-03-30T15:20:14.000Z</time>
      </trkpt>
      <trkpt lat="49.51336" lon="-1.60201">
        <ele>116.6</ele>
        <time>2026-03-30T15:20:15.000Z</time>
      </trkpt>
      <trkpt lat="49.51337" lon="-1.60199">
        <ele>116.7</ele>
        <time>2026-03-30T15:20:16.000Z</time>
      </trkpt>
      <trkpt lat="49.51339" lon="-1.60199">
        <ele>116.4</ele>
        <time>2026-03-30T15:20:17.000Z</time>
      </trkpt>
      <trkpt lat="49.5134" lon="-1.60198">
        <ele>117</ele>
        <time>2026-03-30T15:20:18.000Z</time>
      </trkpt>
      <trkpt lat="49.51342" lon="-1.60197">
        <ele>117.5</ele>
        <time>2026-03-30T15:20:19.000Z</time>
      </trkpt>
      <trkpt lat="49.51343" lon="-1.60196">
        <ele>117.7</ele>
        <time>2026-03-30T15:20:20.000Z</time>
      </trkpt>
      <trkpt lat="49.51344" lon="-1.60195">
        <ele>118.6</ele>
        <time>2026-03-30T15:20:21.000Z</time>
      </trkpt>
      <trkpt lat="49.51346" lon="-1.60194">
        <ele>119.2</ele>
        <time>2026-03-30T15:20:22.000Z</time>
      </trkpt>
      <trkpt lat="49.51347" lon="-1.60193">
        <ele>119.4</ele>
        <time>2026-03-30T15:20:23.000Z</time>
      </trkpt>
      <trkpt lat="49.51348" lon="-1.60192">
        <ele>119.9</ele>
        <time>2026-03-30T15:20:24.000Z</time>
      </trkpt>
      <trkpt lat="49.5135" lon="-1.60191">
        <ele>120.1</ele>
        <time>2026-03-30T15:20:25.000Z</time>
      </trkpt>
      <trkpt lat="49.51351" lon="-1.60189">
        <ele>120.5</ele>
        <time>2026-03-30T15:20:26.000Z</time>
      </trkpt>
      <trkpt lat="49.51352" lon="-1.60188">
        <ele>121.1</ele>
        <time>2026-03-30T15:20:27.000Z</time>
      </trkpt>
      <trkpt lat="49.51353" lon="-1.60187">
        <ele>121.9</ele>
        <time>2026-03-30T15:20:28.000Z</time>
      </trkpt>
      <trkpt lat="49.51355" lon="-1.60186">
        <ele>122.6</ele>
        <time>2026-03-30T15:20:29.000Z</time>
      </trkpt>
      <trkpt lat="49.51356" lon="-1.60185">
        <ele>122.4</ele>
        <time>2026-03-30T15:20:30.000Z</time>
      </trkpt>
      <trkpt lat="49.51358" lon="-1.60184">
        <ele>122.1</ele>
        <time>2026-03-30T15:20:31.000Z</time>
      </trkpt>
      <trkpt lat="49.51359" lon="-1.60183">
        <ele>122.5</ele>
        <time>2026-03-30T15:20:32.000Z</time>
      </trkpt>
      <trkpt lat="49.51361" lon="-1.60182">
        <ele>121.9</ele>
        <time>2026-03-30T15:20:33.000Z</time>
      </trkpt>
      <trkpt lat="49.51362" lon="-1.60182">
        <ele>121.9</ele>
        <time>2026-03-30T15:20:34.000Z</time>
      </trkpt>
      <trkpt lat="49.51364" lon="-1.60181">
        <ele>121.8</ele>
        <time>2026-03-30T15:20:35.000Z</time>
      </trkpt>
      <trkpt lat="49.51365" lon="-1.60181">
        <ele>121.3</ele>
        <time>2026-03-30T15:20:36.000Z</time>
      </trkpt>
      <trkpt lat="49.51367" lon="-1.6018">
        <ele>121.4</ele>
        <time>2026-03-30T15:20:37.000Z</time>
      </trkpt>
      <trkpt lat="49.51368" lon="-1.60179">
        <ele>121.5</ele>
        <time>2026-03-30T15:20:38.000Z</time>
      </trkpt>
      <trkpt lat="49.51369" lon="-1.60178">
        <ele>121.6</ele>
        <time>2026-03-30T15:20:39.000Z</time>
      </trkpt>
      <trkpt lat="49.51371" lon="-1.60177">
        <ele>120.4</ele>
        <time>2026-03-30T15:20:40.000Z</time>
      </trkpt>
      <trkpt lat="49.51372" lon="-1.60177">
        <ele>120.1</ele>
        <time>2026-03-30T15:20:41.000Z</time>
      </trkpt>
      <trkpt lat="49.51374" lon="-1.60176">
        <ele>120.2</ele>
        <time>2026-03-30T15:20:42.000Z</time>
      </trkpt>
      <trkpt lat="49.51375" lon="-1.60175">
        <ele>120</ele>
        <time>2026-03-30T15:20:43.000Z</time>
      </trkpt>
      <trkpt lat="49.51377" lon="-1.60174">
        <ele>120.5</ele>
        <time>2026-03-30T15:20:44.000Z</time>
      </trkpt>
      <trkpt lat="49.51378" lon="-1.60174">
        <ele>120.7</ele>
        <time>2026-03-30T15:20:45.000Z</time>
      </trkpt>
      <trkpt lat="49.51379" lon="-1.60173">
        <ele>121.4</ele>
        <time>2026-03-30T15:20:46.000Z</time>
      </trkpt>
      <trkpt lat="49.51381" lon="-1.60173">
        <ele>121.3</ele>
        <time>2026-03-30T15:20:47.000Z</time>
      </trkpt>
      <trkpt lat="49.51382" lon="-1.60172">
        <ele>121.3</ele>
        <time>2026-03-30T15:20:48.000Z</time>
      </trkpt>
      <trkpt lat="49.51383" lon="-1.60171">
        <ele>121.3</ele>
        <time>2026-03-30T15:20:49.000Z</time>
      </trkpt>
      <trkpt lat="49.51385" lon="-1.6017">
        <ele>121.2</ele>
        <time>2026-03-30T15:20:50.000Z</time>
      </trkpt>
      <trkpt lat="49.51386" lon="-1.6017">
        <ele>120.2</ele>
        <time>2026-03-30T15:20:51.000Z</time>
      </trkpt>
      <trkpt lat="49.51387" lon="-1.60169">
        <ele>119.7</ele>
        <time>2026-03-30T15:20:52.000Z</time>
      </trkpt>
      <trkpt lat="49.51389" lon="-1.60168">
        <ele>120.2</ele>
        <time>2026-03-30T15:20:53.000Z</time>
      </trkpt>
      <trkpt lat="49.5139" lon="-1.60168">
        <ele>120</ele>
        <time>2026-03-30T15:20:54.000Z</time>
      </trkpt>
      <trkpt lat="49.51391" lon="-1.60167">
        <ele>119.8</ele>
        <time>2026-03-30T15:20:55.000Z</time>
      </trkpt>
      <trkpt lat="49.51393" lon="-1.60166">
        <ele>119.1</ele>
        <time>2026-03-30T15:20:56.000Z</time>
      </trkpt>
      <trkpt lat="49.51394" lon="-1.60165">
        <ele>118.6</ele>
        <time>2026-03-30T15:20:57.000Z</time>
      </trkpt>
      <trkpt lat="49.51396" lon="-1.60164">
        <ele>119</ele>
        <time>2026-03-30T15:20:58.000Z</time>
      </trkpt>
      <trkpt lat="49.51397" lon="-1.60163">
        <ele>119.4</ele>
        <time>2026-03-30T15:20:59.000Z</time>
      </trkpt>
      <trkpt lat="49.51399" lon="-1.60162">
        <ele>119.1</ele>
        <time>2026-03-30T15:21:00.000Z</time>
      </trkpt>
      <trkpt lat="49.514" lon="-1.60162">
        <ele>119.2</ele>
        <time>2026-03-30T15:21:01.000Z</time>
      </trkpt>
      <trkpt lat="49.51401" lon="-1.60161">
        <ele>119.2</ele>
        <time>2026-03-30T15:21:02.000Z</time>
      </trkpt>
      <trkpt lat="49.51403" lon="-1.6016">
        <ele>119.4</ele>
        <time>2026-03-30T15:21:03.000Z</time>
      </trkpt>
      <trkpt lat="49.51404" lon="-1.60159">
        <ele>118.9</ele>
        <time>2026-03-30T15:21:04.000Z</time>
      </trkpt>
      <trkpt lat="49.51406" lon="-1.60158">
        <ele>118.8</ele>
        <time>2026-03-30T15:21:05.000Z</time>
      </trkpt>
      <trkpt lat="49.51407" lon="-1.60157">
        <ele>118.6</ele>
        <time>2026-03-30T15:21:06.000Z</time>
      </trkpt>
      <trkpt lat="49.51409" lon="-1.60156">
        <ele>118.6</ele>
        <time>2026-03-30T15:21:07.000Z</time>
      </trkpt>
      <trkpt lat="49.5141" lon="-1.60155">
        <ele>118.4</ele>
        <time>2026-03-30T15:21:08.000Z</time>
      </trkpt>
      <trkpt lat="49.51411" lon="-1.60155">
        <ele>117.8</ele>
        <time>2026-03-30T15:21:09.000Z</time>
      </trkpt>
      <trkpt lat="49.51412" lon="-1.60154">
        <ele>118.3</ele>
        <time>2026-03-30T15:21:10.000Z</time>
      </trkpt>
      <trkpt lat="49.51414" lon="-1.60153">
        <ele>118.3</ele>
        <time>2026-03-30T15:21:11.000Z</time>
      </trkpt>
      <trkpt lat="49.51415" lon="-1.60152">
        <ele>118.7</ele>
        <time>2026-03-30T15:21:12.000Z</time>
      </trkpt>
      <trkpt lat="49.51416" lon="-1.60151">
        <ele>118.7</ele>
        <time>2026-03-30T15:21:13.000Z</time>
      </trkpt>
      <trkpt lat="49.51418" lon="-1.6015">
        <ele>119</ele>
        <time>2026-03-30T15:21:14.000Z</time>
      </trkpt>
      <trkpt lat="49.51419" lon="-1.60149">
        <ele>118.9</ele>
        <time>2026-03-30T15:21:15.000Z</time>
      </trkpt>
      <trkpt lat="49.5142" lon="-1.60148">
        <ele>118.5</ele>
        <time>2026-03-30T15:21:16.000Z</time>
      </trkpt>
      <trkpt lat="49.51421" lon="-1.60147">
        <ele>117.9</ele>
        <time>2026-03-30T15:21:17.000Z</time>
      </trkpt>
      <trkpt lat="49.51423" lon="-1.60146">
        <ele>117.7</ele>
        <time>2026-03-30T15:21:18.000Z</time>
      </trkpt>
      <trkpt lat="49.51424" lon="-1.60145">
        <ele>117.4</ele>
        <time>2026-03-30T15:21:19.000Z</time>
      </trkpt>
      <trkpt lat="49.51426" lon="-1.60144">
        <ele>117.3</ele>
        <time>2026-03-30T15:21:20.000Z</time>
      </trkpt>
      <trkpt lat="49.51427" lon="-1.60143">
        <ele>117.6</ele>
        <time>2026-03-30T15:21:21.000Z</time>
      </trkpt>
      <trkpt lat="49.51429" lon="-1.60142">
        <ele>117.4</ele>
        <time>2026-03-30T15:21:22.000Z</time>
      </trkpt>
      <trkpt lat="49.5143" lon="-1.60142">
        <ele>116.8</ele>
        <time>2026-03-30T15:21:23.000Z</time>
      </trkpt>
      <trkpt lat="49.51431" lon="-1.60141">
        <ele>116.2</ele>
        <time>2026-03-30T15:21:24.000Z</time>
      </trkpt>
      <trkpt lat="49.51433" lon="-1.6014">
        <ele>115.6</ele>
        <time>2026-03-30T15:21:25.000Z</time>
      </trkpt>
      <trkpt lat="49.51434" lon="-1.60139">
        <ele>115.6</ele>
        <time>2026-03-30T15:21:26.000Z</time>
      </trkpt>
      <trkpt lat="49.51436" lon="-1.60139">
        <ele>114.8</ele>
        <time>2026-03-30T15:21:27.000Z</time>
      </trkpt>
      <trkpt lat="49.51437" lon="-1.60138">
        <ele>114</ele>
        <time>2026-03-30T15:21:28.000Z</time>
      </trkpt>
      <trkpt lat="49.51439" lon="-1.60138">
        <ele>113.6</ele>
        <time>2026-03-30T15:21:29.000Z</time>
      </trkpt>
      <trkpt lat="49.5144" lon="-1.60137">
        <ele>114.1</ele>
        <time>2026-03-30T15:21:30.000Z</time>
      </trkpt>
      <trkpt lat="49.51441" lon="-1.60136">
        <ele>114.4</ele>
        <time>2026-03-30T15:21:31.000Z</time>
      </trkpt>
      <trkpt lat="49.51443" lon="-1.60135">
        <ele>115.4</ele>
        <time>2026-03-30T15:21:32.000Z</time>
      </trkpt>
      <trkpt lat="49.51444" lon="-1.60134">
        <ele>115.8</ele>
        <time>2026-03-30T15:21:33.000Z</time>
      </trkpt>
      <trkpt lat="49.51445" lon="-1.60133">
        <ele>115.3</ele>
        <time>2026-03-30T15:21:34.000Z</time>
      </trkpt>
      <trkpt lat="49.51447" lon="-1.60132">
        <ele>115.8</ele>
        <time>2026-03-30T15:21:35.000Z</time>
      </trkpt>
      <trkpt lat="49.51448" lon="-1.60131">
        <ele>115.8</ele>
        <time>2026-03-30T15:21:36.000Z</time>
      </trkpt>
      <trkpt lat="49.51449" lon="-1.6013">
        <ele>115.5</ele>
        <time>2026-03-30T15:21:37.000Z</time>
      </trkpt>
      <trkpt lat="49.51451" lon="-1.60129">
        <ele>115</ele>
        <time>2026-03-30T15:21:38.000Z</time>
      </trkpt>
      <trkpt lat="49.51452" lon="-1.60128">
        <ele>114.9</ele>
        <time>2026-03-30T15:21:39.000Z</time>
      </trkpt>
      <trkpt lat="49.51454" lon="-1.60127">
        <ele>115</ele>
        <time>2026-03-30T15:21:40.000Z</time>
      </trkpt>
      <trkpt lat="49.51455" lon="-1.60126">
        <ele>114.7</ele>
        <time>2026-03-30T15:21:41.000Z</time>
      </trkpt>
      <trkpt lat="49.51457" lon="-1.60125">
        <ele>114.6</ele>
        <time>2026-03-30T15:21:42.000Z</time>
      </trkpt>
      <trkpt lat="49.51458" lon="-1.60124">
        <ele>115</ele>
        <time>2026-03-30T15:21:43.000Z</time>
      </trkpt>
      <trkpt lat="49.51459" lon="-1.60123">
        <ele>115.1</ele>
        <time>2026-03-30T15:21:44.000Z</time>
      </trkpt>
      <trkpt lat="49.51461" lon="-1.60122">
        <ele>115.5</ele>
        <time>2026-03-30T15:21:45.000Z</time>
      </trkpt>
      <trkpt lat="49.51462" lon="-1.60121">
        <ele>116</ele>
        <time>2026-03-30T15:21:46.000Z</time>
      </trkpt>
      <trkpt lat="49.51464" lon="-1.6012">
        <ele>116</ele>
        <time>2026-03-30T15:21:47.000Z</time>
      </trkpt>
      <trkpt lat="49.51465" lon="-1.6012">
        <ele>115.3</ele>
        <time>2026-03-30T15:21:48.000Z</time>
      </trkpt>
      <trkpt lat="49.51466" lon="-1.60118">
        <ele>115.8</ele>
        <time>2026-03-30T15:21:49.000Z</time>
      </trkpt>
      <trkpt lat="49.51467" lon="-1.60117">
        <ele>116.2</ele>
        <time>2026-03-30T15:21:50.000Z</time>
      </trkpt>
      <trkpt lat="49.51469" lon="-1.60116">
        <ele>117.3</ele>
        <time>2026-03-30T15:21:51.000Z</time>
      </trkpt>
      <trkpt lat="49.5147" lon="-1.60114">
        <ele>117.6</ele>
        <time>2026-03-30T15:21:52.000Z</time>
      </trkpt>
      <trkpt lat="49.51471" lon="-1.60113">
        <ele>117.4</ele>
        <time>2026-03-30T15:21:53.000Z</time>
      </trkpt>
      <trkpt lat="49.51472" lon="-1.60112">
        <ele>117.2</ele>
        <time>2026-03-30T15:21:54.000Z</time>
      </trkpt>
      <trkpt lat="49.51474" lon="-1.60111">
        <ele>116.9</ele>
        <time>2026-03-30T15:21:55.000Z</time>
      </trkpt>
      <trkpt lat="49.51475" lon="-1.6011">
        <ele>116.6</ele>
        <time>2026-03-30T15:21:56.000Z</time>
      </trkpt>
      <trkpt lat="49.51476" lon="-1.60108">
        <ele>118.3</ele>
        <time>2026-03-30T15:21:57.000Z</time>
      </trkpt>
      <trkpt lat="49.51477" lon="-1.60107">
        <ele>118.6</ele>
        <time>2026-03-30T15:21:58.000Z</time>
      </trkpt>
      <trkpt lat="49.51479" lon="-1.60106">
        <ele>117.5</ele>
        <time>2026-03-30T15:21:59.000Z</time>
      </trkpt>
      <trkpt lat="49.5148" lon="-1.60104">
        <ele>117.5</ele>
        <time>2026-03-30T15:22:00.000Z</time>
      </trkpt>
      <trkpt lat="49.51482" lon="-1.60103">
        <ele>117.5</ele>
        <time>2026-03-30T15:22:01.000Z</time>
      </trkpt>
      <trkpt lat="49.51483" lon="-1.60102">
        <ele>117.5</ele>
        <time>2026-03-30T15:22:02.000Z</time>
      </trkpt>
      <trkpt lat="49.51484" lon="-1.60101">
        <ele>117.5</ele>
        <time>2026-03-30T15:22:03.000Z</time>
      </trkpt>
      <trkpt lat="49.51485" lon="-1.60099">
        <ele>117.8</ele>
        <time>2026-03-30T15:22:04.000Z</time>
      </trkpt>
      <trkpt lat="49.51486" lon="-1.60098">
        <ele>117.4</ele>
        <time>2026-03-30T15:22:05.000Z</time>
      </trkpt>
      <trkpt lat="49.51487" lon="-1.60096">
        <ele>117.7</ele>
        <time>2026-03-30T15:22:06.000Z</time>
      </trkpt>
      <trkpt lat="49.51488" lon="-1.60094">
        <ele>117.3</ele>
        <time>2026-03-30T15:22:07.000Z</time>
      </trkpt>
      <trkpt lat="49.51489" lon="-1.60092">
        <ele>116.7</ele>
        <time>2026-03-30T15:22:08.000Z</time>
      </trkpt>
      <trkpt lat="49.5149" lon="-1.60091">
        <ele>116.9</ele>
        <time>2026-03-30T15:22:09.000Z</time>
      </trkpt>
      <trkpt lat="49.51492" lon="-1.60089">
        <ele>116.7</ele>
        <time>2026-03-30T15:22:10.000Z</time>
      </trkpt>
      <trkpt lat="49.51493" lon="-1.60087">
        <ele>116.7</ele>
        <time>2026-03-30T15:22:11.000Z</time>
      </trkpt>
      <trkpt lat="49.51494" lon="-1.60085">
        <ele>117</ele>
        <time>2026-03-30T15:22:12.000Z</time>
      </trkpt>
      <trkpt lat="49.51495" lon="-1.60083">
        <ele>117.2</ele>
        <time>2026-03-30T15:22:13.000Z</time>
      </trkpt>
      <trkpt lat="49.51495" lon="-1.60081">
        <ele>117.1</ele>
        <time>2026-03-30T15:22:14.000Z</time>
      </trkpt>
      <trkpt lat="49.51496" lon="-1.6008">
        <ele>117.3</ele>
        <time>2026-03-30T15:22:15.000Z</time>
      </trkpt>
      <trkpt lat="49.51497" lon="-1.60078">
        <ele>117.3</ele>
        <time>2026-03-30T15:22:16.000Z</time>
      </trkpt>
      <trkpt lat="49.51498" lon="-1.60076">
        <ele>116.9</ele>
        <time>2026-03-30T15:22:17.000Z</time>
      </trkpt>
      <trkpt lat="49.51499" lon="-1.60074">
        <ele>116.7</ele>
        <time>2026-03-30T15:22:18.000Z</time>
      </trkpt>
      <trkpt lat="49.515" lon="-1.60072">
        <ele>116.4</ele>
        <time>2026-03-30T15:22:19.000Z</time>
      </trkpt>
      <trkpt lat="49.51501" lon="-1.60069">
        <ele>116.4</ele>
        <time>2026-03-30T15:22:20.000Z</time>
      </trkpt>
      <trkpt lat="49.51501" lon="-1.60067">
        <ele>116.2</ele>
        <time>2026-03-30T15:22:21.000Z</time>
      </trkpt>
      <trkpt lat="49.51503" lon="-1.60065">
        <ele>115.7</ele>
        <time>2026-03-30T15:22:22.000Z</time>
      </trkpt>
      <trkpt lat="49.51504" lon="-1.60064">
        <ele>115.5</ele>
        <time>2026-03-30T15:22:23.000Z</time>
      </trkpt>
      <trkpt lat="49.51505" lon="-1.60061">
        <ele>115</ele>
        <time>2026-03-30T15:22:24.000Z</time>
      </trkpt>
      <trkpt lat="49.51505" lon="-1.60059">
        <ele>114.4</ele>
        <time>2026-03-30T15:22:25.000Z</time>
      </trkpt>
      <trkpt lat="49.51506" lon="-1.60057">
        <ele>114</ele>
        <time>2026-03-30T15:22:26.000Z</time>
      </trkpt>
      <trkpt lat="49.51507" lon="-1.60055">
        <ele>113.8</ele>
        <time>2026-03-30T15:22:27.000Z</time>
      </trkpt>
      <trkpt lat="49.51508" lon="-1.60053">
        <ele>114</ele>
        <time>2026-03-30T15:22:28.000Z</time>
      </trkpt>
      <trkpt lat="49.51508" lon="-1.60051">
        <ele>113.8</ele>
        <time>2026-03-30T15:22:29.000Z</time>
      </trkpt>
      <trkpt lat="49.51509" lon="-1.60049">
        <ele>113.7</ele>
        <time>2026-03-30T15:22:30.000Z</time>
      </trkpt>
      <trkpt lat="49.51509" lon="-1.60048">
        <ele>113.9</ele>
        <time>2026-03-30T15:22:31.000Z</time>
      </trkpt>
      <trkpt lat="49.5151" lon="-1.60046">
        <ele>114</ele>
        <time>2026-03-30T15:22:32.000Z</time>
      </trkpt>
      <trkpt lat="49.51511" lon="-1.60044">
        <ele>114</ele>
        <time>2026-03-30T15:22:33.000Z</time>
      </trkpt>
      <trkpt lat="49.51512" lon="-1.60042">
        <ele>113.9</ele>
        <time>2026-03-30T15:22:34.000Z</time>
      </trkpt>
      <trkpt lat="49.51512" lon="-1.6004">
        <ele>113.3</ele>
        <time>2026-03-30T15:22:35.000Z</time>
      </trkpt>
      <trkpt lat="49.51513" lon="-1.60038">
        <ele>112.1</ele>
        <time>2026-03-30T15:22:36.000Z</time>
      </trkpt>
      <trkpt lat="49.51514" lon="-1.60035">
        <ele>112</ele>
        <time>2026-03-30T15:22:37.000Z</time>
      </trkpt>
      <trkpt lat="49.51514" lon="-1.60033">
        <ele>112.3</ele>
        <time>2026-03-30T15:22:38.000Z</time>
      </trkpt>
      <trkpt lat="49.51515" lon="-1.6003">
        <ele>111.9</ele>
        <time>2026-03-30T15:22:39.000Z</time>
      </trkpt>
      <trkpt lat="49.51515" lon="-1.60028">
        <ele>112.2</ele>
        <time>2026-03-30T15:22:40.000Z</time>
      </trkpt>
      <trkpt lat="49.51515" lon="-1.60026">
        <ele>112.4</ele>
        <time>2026-03-30T15:22:41.000Z</time>
      </trkpt>
      <trkpt lat="49.51515" lon="-1.60024">
        <ele>112.7</ele>
        <time>2026-03-30T15:22:42.000Z</time>
      </trkpt>
      <trkpt lat="49.51516" lon="-1.60023">
        <ele>112.5</ele>
        <time>2026-03-30T15:22:43.000Z</time>
      </trkpt>
      <trkpt lat="49.51516" lon="-1.60021">
        <ele>113.5</ele>
        <time>2026-03-30T15:22:44.000Z</time>
      </trkpt>
      <trkpt lat="49.51517" lon="-1.60018">
        <ele>113.5</ele>
        <time>2026-03-30T15:22:45.000Z</time>
      </trkpt>
      <trkpt lat="49.51517" lon="-1.60016">
        <ele>114.1</ele>
        <time>2026-03-30T15:22:46.000Z</time>
      </trkpt>
      <trkpt lat="49.51518" lon="-1.60014">
        <ele>114.8</ele>
        <time>2026-03-30T15:22:47.000Z</time>
      </trkpt>
      <trkpt lat="49.51519" lon="-1.60011">
        <ele>114.5</ele>
        <time>2026-03-30T15:22:48.000Z</time>
      </trkpt>
      <trkpt lat="49.51519" lon="-1.60009">
        <ele>113.7</ele>
        <time>2026-03-30T15:22:49.000Z</time>
      </trkpt>
      <trkpt lat="49.5152" lon="-1.60007">
        <ele>113.1</ele>
        <time>2026-03-30T15:22:50.000Z</time>
      </trkpt>
      <trkpt lat="49.51521" lon="-1.60005">
        <ele>112.1</ele>
        <time>2026-03-30T15:22:51.000Z</time>
      </trkpt>
      <trkpt lat="49.51522" lon="-1.60003">
        <ele>112.6</ele>
        <time>2026-03-30T15:22:52.000Z</time>
      </trkpt>
      <trkpt lat="49.51522" lon="-1.6">
        <ele>112.5</ele>
        <time>2026-03-30T15:22:53.000Z</time>
      </trkpt>
      <trkpt lat="49.51523" lon="-1.59998">
        <ele>113.5</ele>
        <time>2026-03-30T15:22:54.000Z</time>
      </trkpt>
      <trkpt lat="49.51524" lon="-1.59995">
        <ele>113.2</ele>
        <time>2026-03-30T15:22:55.000Z</time>
      </trkpt>
      <trkpt lat="49.51524" lon="-1.59993">
        <ele>113.2</ele>
        <time>2026-03-30T15:22:56.000Z</time>
      </trkpt>
      <trkpt lat="49.51525" lon="-1.59991">
        <ele>111.9</ele>
        <time>2026-03-30T15:22:57.000Z</time>
      </trkpt>
      <trkpt lat="49.51526" lon="-1.59989">
        <ele>111.8</ele>
        <time>2026-03-30T15:22:58.000Z</time>
      </trkpt>
      <trkpt lat="49.51527" lon="-1.59986">
        <ele>111.9</ele>
        <time>2026-03-30T15:22:59.000Z</time>
      </trkpt>
      <trkpt lat="49.51527" lon="-1.59984">
        <ele>112</ele>
        <time>2026-03-30T15:23:00.000Z</time>
      </trkpt>
      <trkpt lat="49.51528" lon="-1.59982">
        <ele>112.5</ele>
        <time>2026-03-30T15:23:01.000Z</time>
      </trkpt>
      <trkpt lat="49.51528" lon="-1.59979">
        <ele>112.6</ele>
        <time>2026-03-30T15:23:02.000Z</time>
      </trkpt>
      <trkpt lat="49.51529" lon="-1.59977">
        <ele>112.3</ele>
        <time>2026-03-30T15:23:03.000Z</time>
      </trkpt>
      <trkpt lat="49.5153" lon="-1.59975">
        <ele>112.7</ele>
        <time>2026-03-30T15:23:04.000Z</time>
      </trkpt>
      <trkpt lat="49.5153" lon="-1.59972">
        <ele>113.3</ele>
        <time>2026-03-30T15:23:05.000Z</time>
      </trkpt>
      <trkpt lat="49.51531" lon="-1.5997">
        <ele>113.4</ele>
        <time>2026-03-30T15:23:06.000Z</time>
      </trkpt>
      <trkpt lat="49.51532" lon="-1.59968">
        <ele>114.2</ele>
        <time>2026-03-30T15:23:07.000Z</time>
      </trkpt>
      <trkpt lat="49.51532" lon="-1.59965">
        <ele>114.1</ele>
        <time>2026-03-30T15:23:08.000Z</time>
      </trkpt>
      <trkpt lat="49.51533" lon="-1.59963">
        <ele>113.8</ele>
        <time>2026-03-30T15:23:09.000Z</time>
      </trkpt>
      <trkpt lat="49.51534" lon="-1.59961">
        <ele>113.9</ele>
        <time>2026-03-30T15:23:10.000Z</time>
      </trkpt>
      <trkpt lat="49.51535" lon="-1.59958">
        <ele>113.7</ele>
        <time>2026-03-30T15:23:11.000Z</time>
      </trkpt>
      <trkpt lat="49.51536" lon="-1.59956">
        <ele>113</ele>
        <time>2026-03-30T15:23:12.000Z</time>
      </trkpt>
      <trkpt lat="49.51536" lon="-1.59954">
        <ele>112.6</ele>
        <time>2026-03-30T15:23:13.000Z</time>
      </trkpt>
      <trkpt lat="49.51537" lon="-1.59951">
        <ele>112.5</ele>
        <time>2026-03-30T15:23:14.000Z</time>
      </trkpt>
      <trkpt lat="49.51537" lon="-1.59949">
        <ele>112.4</ele>
        <time>2026-03-30T15:23:15.000Z</time>
      </trkpt>
      <trkpt lat="49.51538" lon="-1.59947">
        <ele>111.9</ele>
        <time>2026-03-30T15:23:16.000Z</time>
      </trkpt>
      <trkpt lat="49.51539" lon="-1.59945">
        <ele>111.3</ele>
        <time>2026-03-30T15:23:17.000Z</time>
      </trkpt>
      <trkpt lat="49.5154" lon="-1.59943">
        <ele>111.8</ele>
        <time>2026-03-30T15:23:18.000Z</time>
      </trkpt>
      <trkpt lat="49.51541" lon="-1.59941">
        <ele>111.3</ele>
        <time>2026-03-30T15:23:19.000Z</time>
      </trkpt>
      <trkpt lat="49.51541" lon="-1.59939">
        <ele>112.1</ele>
        <time>2026-03-30T15:23:20.000Z</time>
      </trkpt>
      <trkpt lat="49.51542" lon="-1.59937">
        <ele>113</ele>
        <time>2026-03-30T15:23:21.000Z</time>
      </trkpt>
      <trkpt lat="49.51543" lon="-1.59935">
        <ele>112.5</ele>
        <time>2026-03-30T15:23:22.000Z</time>
      </trkpt>
      <trkpt lat="49.51544" lon="-1.59933">
        <ele>112.3</ele>
        <time>2026-03-30T15:23:23.000Z</time>
      </trkpt>
      <trkpt lat="49.51545" lon="-1.59931">
        <ele>112.6</ele>
        <time>2026-03-30T15:23:24.000Z</time>
      </trkpt>
      <trkpt lat="49.51545" lon="-1.59929">
        <ele>111.6</ele>
        <time>2026-03-30T15:23:25.000Z</time>
      </trkpt>
      <trkpt lat="49.51546" lon="-1.59927">
        <ele>111.5</ele>
        <time>2026-03-30T15:23:26.000Z</time>
      </trkpt>
      <trkpt lat="49.51547" lon="-1.59925">
        <ele>110.9</ele>
        <time>2026-03-30T15:23:27.000Z</time>
      </trkpt>
      <trkpt lat="49.51548" lon="-1.59923">
        <ele>111.2</ele>
        <time>2026-03-30T15:23:28.000Z</time>
      </trkpt>
      <trkpt lat="49.51549" lon="-1.59921">
        <ele>111.8</ele>
        <time>2026-03-30T15:23:29.000Z</time>
      </trkpt>
      <trkpt lat="49.51549" lon="-1.59919">
        <ele>111.4</ele>
        <time>2026-03-30T15:23:30.000Z</time>
      </trkpt>
      <trkpt lat="49.5155" lon="-1.59917">
        <ele>112</ele>
        <time>2026-03-30T15:23:31.000Z</time>
      </trkpt>
      <trkpt lat="49.51551" lon="-1.59915">
        <ele>112.7</ele>
        <time>2026-03-30T15:23:32.000Z</time>
      </trkpt>
      <trkpt lat="49.51552" lon="-1.59913">
        <ele>112.6</ele>
        <time>2026-03-30T15:23:33.000Z</time>
      </trkpt>
      <trkpt lat="49.51553" lon="-1.59911">
        <ele>112.1</ele>
        <time>2026-03-30T15:23:34.000Z</time>
      </trkpt>
      <trkpt lat="49.51555" lon="-1.5991">
        <ele>111.5</ele>
        <time>2026-03-30T15:23:35.000Z</time>
      </trkpt>
      <trkpt lat="49.51556" lon="-1.59908">
        <ele>110.9</ele>
        <time>2026-03-30T15:23:36.000Z</time>
      </trkpt>
      <trkpt lat="49.51557" lon="-1.59906">
        <ele>110.7</ele>
        <time>2026-03-30T15:23:37.000Z</time>
      </trkpt>
      <trkpt lat="49.51558" lon="-1.59905">
        <ele>110.3</ele>
        <time>2026-03-30T15:23:38.000Z</time>
      </trkpt>
      <trkpt lat="49.5156" lon="-1.59903">
        <ele>109.1</ele>
        <time>2026-03-30T15:23:39.000Z</time>
      </trkpt>
      <trkpt lat="49.51561" lon="-1.59902">
        <ele>108.5</ele>
        <time>2026-03-30T15:23:40.000Z</time>
      </trkpt>
      <trkpt lat="49.51563" lon="-1.59901">
        <ele>107.6</ele>
        <time>2026-03-30T15:23:41.000Z</time>
      </trkpt>
      <trkpt lat="49.51564" lon="-1.59901">
        <ele>107</ele>
        <time>2026-03-30T15:23:42.000Z</time>
      </trkpt>
      <trkpt lat="49.51566" lon="-1.599">
        <ele>106.7</ele>
        <time>2026-03-30T15:23:43.000Z</time>
      </trkpt>
      <trkpt lat="49.51568" lon="-1.59899">
        <ele>107.2</ele>
        <time>2026-03-30T15:23:44.000Z</time>
      </trkpt>
      <trkpt lat="49.51569" lon="-1.59898">
        <ele>107.5</ele>
        <time>2026-03-30T15:23:45.000Z</time>
      </trkpt>
      <trkpt lat="49.5157" lon="-1.59897">
        <ele>107.9</ele>
        <time>2026-03-30T15:23:46.000Z</time>
      </trkpt>
      <trkpt lat="49.51572" lon="-1.59896">
        <ele>107.7</ele>
        <time>2026-03-30T15:23:47.000Z</time>
      </trkpt>
      <trkpt lat="49.51573" lon="-1.59895">
        <ele>108</ele>
        <time>2026-03-30T15:23:48.000Z</time>
      </trkpt>
      <trkpt lat="49.51574" lon="-1.59895">
        <ele>107.8</ele>
        <time>2026-03-30T15:23:49.000Z</time>
      </trkpt>
      <trkpt lat="49.51576" lon="-1.59895">
        <ele>107.3</ele>
        <time>2026-03-30T15:23:50.000Z</time>
      </trkpt>
      <trkpt lat="49.51578" lon="-1.59895">
        <ele>107.4</ele>
        <time>2026-03-30T15:23:51.000Z</time>
      </trkpt>
      <trkpt lat="49.51579" lon="-1.59895">
        <ele>107.6</ele>
        <time>2026-03-30T15:23:52.000Z</time>
      </trkpt>
      <trkpt lat="49.51581" lon="-1.59895">
        <ele>107.5</ele>
        <time>2026-03-30T15:23:53.000Z</time>
      </trkpt>
      <trkpt lat="49.51582" lon="-1.59894">
        <ele>108.2</ele>
        <time>2026-03-30T15:23:54.000Z</time>
      </trkpt>
      <trkpt lat="49.51584" lon="-1.59893">
        <ele>109</ele>
        <time>2026-03-30T15:23:55.000Z</time>
      </trkpt>
      <trkpt lat="49.51585" lon="-1.59892">
        <ele>108.9</ele>
        <time>2026-03-30T15:23:56.000Z</time>
      </trkpt>
      <trkpt lat="49.51587" lon="-1.59892">
        <ele>109.4</ele>
        <time>2026-03-30T15:23:57.000Z</time>
      </trkpt>
      <trkpt lat="49.51588" lon="-1.59892">
        <ele>109.2</ele>
        <time>2026-03-30T15:23:58.000Z</time>
      </trkpt>
      <trkpt lat="49.5159" lon="-1.59892">
        <ele>109.1</ele>
        <time>2026-03-30T15:23:59.000Z</time>
      </trkpt>
      <trkpt lat="49.51592" lon="-1.59892">
        <ele>109.4</ele>
        <time>2026-03-30T15:24:00.000Z</time>
      </trkpt>
      <trkpt lat="49.51594" lon="-1.59892">
        <ele>110</ele>
        <time>2026-03-30T15:24:01.000Z</time>
      </trkpt>
      <trkpt lat="49.51596" lon="-1.59892">
        <ele>109.9</ele>
        <time>2026-03-30T15:24:02.000Z</time>
      </trkpt>
      <trkpt lat="49.51597" lon="-1.59892">
        <ele>110.2</ele>
        <time>2026-03-30T15:24:03.000Z</time>
      </trkpt>
      <trkpt lat="49.51599" lon="-1.59892">
        <ele>109.9</ele>
        <time>2026-03-30T15:24:04.000Z</time>
      </trkpt>
      <trkpt lat="49.516" lon="-1.59891">
        <ele>109.7</ele>
        <time>2026-03-30T15:24:05.000Z</time>
      </trkpt>
      <trkpt lat="49.51602" lon="-1.59892">
        <ele>108.9</ele>
        <time>2026-03-30T15:24:06.000Z</time>
      </trkpt>
      <trkpt lat="49.51604" lon="-1.59892">
        <ele>108.8</ele>
        <time>2026-03-30T15:24:07.000Z</time>
      </trkpt>
      <trkpt lat="49.51605" lon="-1.59892">
        <ele>109.3</ele>
        <time>2026-03-30T15:24:08.000Z</time>
      </trkpt>
      <trkpt lat="49.51607" lon="-1.59892">
        <ele>109.7</ele>
        <time>2026-03-30T15:24:09.000Z</time>
      </trkpt>
      <trkpt lat="49.51608" lon="-1.59892">
        <ele>109.7</ele>
        <time>2026-03-30T15:24:10.000Z</time>
      </trkpt>
      <trkpt lat="49.5161" lon="-1.59892">
        <ele>110.5</ele>
        <time>2026-03-30T15:24:11.000Z</time>
      </trkpt>
      <trkpt lat="49.51611" lon="-1.59893">
        <ele>111.8</ele>
        <time>2026-03-30T15:24:12.000Z</time>
      </trkpt>
      <trkpt lat="49.51613" lon="-1.59893">
        <ele>111.1</ele>
        <time>2026-03-30T15:24:13.000Z</time>
      </trkpt>
      <trkpt lat="49.51615" lon="-1.59893">
        <ele>110.8</ele>
        <time>2026-03-30T15:24:14.000Z</time>
      </trkpt>
      <trkpt lat="49.51616" lon="-1.59893">
        <ele>110.5</ele>
        <time>2026-03-30T15:24:15.000Z</time>
      </trkpt>
      <trkpt lat="49.51617" lon="-1.59892">
        <ele>111.4</ele>
        <time>2026-03-30T15:24:16.000Z</time>
      </trkpt>
      <trkpt lat="49.51619" lon="-1.59891">
        <ele>111.6</ele>
        <time>2026-03-30T15:24:17.000Z</time>
      </trkpt>
      <trkpt lat="49.5162" lon="-1.59891">
        <ele>112.2</ele>
        <time>2026-03-30T15:24:18.000Z</time>
      </trkpt>
      <trkpt lat="49.51622" lon="-1.59892">
        <ele>111.7</ele>
        <time>2026-03-30T15:24:19.000Z</time>
      </trkpt>
      <trkpt lat="49.51623" lon="-1.59892">
        <ele>111.3</ele>
        <time>2026-03-30T15:24:20.000Z</time>
      </trkpt>
      <trkpt lat="49.51625" lon="-1.59892">
        <ele>111.8</ele>
        <time>2026-03-30T15:24:21.000Z</time>
      </trkpt>
      <trkpt lat="49.51626" lon="-1.59892">
        <ele>111.3</ele>
        <time>2026-03-30T15:24:22.000Z</time>
      </trkpt>
      <trkpt lat="49.51628" lon="-1.59891">
        <ele>111.2</ele>
        <time>2026-03-30T15:24:23.000Z</time>
      </trkpt>
      <trkpt lat="49.51629" lon="-1.59892">
        <ele>109.6</ele>
        <time>2026-03-30T15:24:24.000Z</time>
      </trkpt>
      <trkpt lat="49.5163" lon="-1.59893">
        <ele>108.4</ele>
        <time>2026-03-30T15:24:25.000Z</time>
      </trkpt>
      <trkpt lat="49.51632" lon="-1.59893">
        <ele>109.1</ele>
        <time>2026-03-30T15:24:26.000Z</time>
      </trkpt>
      <trkpt lat="49.51633" lon="-1.59893">
        <ele>108.9</ele>
        <time>2026-03-30T15:24:27.000Z</time>
      </trkpt>
      <trkpt lat="49.51635" lon="-1.59892">
        <ele>109.4</ele>
        <time>2026-03-30T15:24:28.000Z</time>
      </trkpt>
      <trkpt lat="49.51636" lon="-1.59892">
        <ele>109.3</ele>
        <time>2026-03-30T15:24:29.000Z</time>
      </trkpt>
      <trkpt lat="49.51638" lon="-1.59892">
        <ele>108.7</ele>
        <time>2026-03-30T15:24:30.000Z</time>
      </trkpt>
      <trkpt lat="49.5164" lon="-1.59891">
        <ele>108.9</ele>
        <time>2026-03-30T15:24:31.000Z</time>
      </trkpt>
      <trkpt lat="49.51641" lon="-1.59891">
        <ele>108.8</ele>
        <time>2026-03-30T15:24:32.000Z</time>
      </trkpt>
      <trkpt lat="49.51643" lon="-1.5989">
        <ele>108.4</ele>
        <time>2026-03-30T15:24:33.000Z</time>
      </trkpt>
      <trkpt lat="49.51645" lon="-1.5989">
        <ele>107.8</ele>
        <time>2026-03-30T15:24:34.000Z</time>
      </trkpt>
      <trkpt lat="49.51646" lon="-1.59889">
        <ele>107.5</ele>
        <time>2026-03-30T15:24:35.000Z</time>
      </trkpt>
      <trkpt lat="49.51647" lon="-1.59889">
        <ele>107</ele>
        <time>2026-03-30T15:24:36.000Z</time>
      </trkpt>
      <trkpt lat="49.51649" lon="-1.59889">
        <ele>106.6</ele>
        <time>2026-03-30T15:24:37.000Z</time>
      </trkpt>
      <trkpt lat="49.5165" lon="-1.59888">
        <ele>105.9</ele>
        <time>2026-03-30T15:24:38.000Z</time>
      </trkpt>
      <trkpt lat="49.51652" lon="-1.59888">
        <ele>105.3</ele>
        <time>2026-03-30T15:24:39.000Z</time>
      </trkpt>
      <trkpt lat="49.51653" lon="-1.59887">
        <ele>105.2</ele>
        <time>2026-03-30T15:24:40.000Z</time>
      </trkpt>
      <trkpt lat="49.51655" lon="-1.59886">
        <ele>105.5</ele>
        <time>2026-03-30T15:24:41.000Z</time>
      </trkpt>
      <trkpt lat="49.51656" lon="-1.59886">
        <ele>105.5</ele>
        <time>2026-03-30T15:24:42.000Z</time>
      </trkpt>
      <trkpt lat="49.51658" lon="-1.59885">
        <ele>105.5</ele>
        <time>2026-03-30T15:24:43.000Z</time>
      </trkpt>
      <trkpt lat="49.51659" lon="-1.59884">
        <ele>105.5</ele>
        <time>2026-03-30T15:24:44.000Z</time>
      </trkpt>
      <trkpt lat="49.5166" lon="-1.59883">
        <ele>105</ele>
        <time>2026-03-30T15:24:45.000Z</time>
      </trkpt>
      <trkpt lat="49.51662" lon="-1.59882">
        <ele>104.4</ele>
        <time>2026-03-30T15:24:46.000Z</time>
      </trkpt>
      <trkpt lat="49.51663" lon="-1.59881">
        <ele>103.9</ele>
        <time>2026-03-30T15:24:47.000Z</time>
      </trkpt>
      <trkpt lat="49.51664" lon="-1.5988">
        <ele>103.2</ele>
        <time>2026-03-30T15:24:48.000Z</time>
      </trkpt>
      <trkpt lat="49.51665" lon="-1.59879">
        <ele>103.3</ele>
        <time>2026-03-30T15:24:49.000Z</time>
      </trkpt>
      <trkpt lat="49.51666" lon="-1.59878">
        <ele>102.3</ele>
        <time>2026-03-30T15:24:50.000Z</time>
      </trkpt>
      <trkpt lat="49.51667" lon="-1.59877">
        <ele>102</ele>
        <time>2026-03-30T15:24:51.000Z</time>
      </trkpt>
      <trkpt lat="49.51668" lon="-1.59875">
        <ele>102.2</ele>
        <time>2026-03-30T15:24:52.000Z</time>
      </trkpt>
      <trkpt lat="49.5167" lon="-1.59874">
        <ele>102.6</ele>
        <time>2026-03-30T15:24:53.000Z</time>
      </trkpt>
      <trkpt lat="49.51671" lon="-1.59873">
        <ele>102.4</ele>
        <time>2026-03-30T15:24:54.000Z</time>
      </trkpt>
      <trkpt lat="49.51672" lon="-1.59871">
        <ele>102.7</ele>
        <time>2026-03-30T15:24:55.000Z</time>
      </trkpt>
      <trkpt lat="49.51673" lon="-1.5987">
        <ele>102.9</ele>
        <time>2026-03-30T15:24:56.000Z</time>
      </trkpt>
      <trkpt lat="49.51674" lon="-1.59868">
        <ele>103.2</ele>
        <time>2026-03-30T15:24:57.000Z</time>
      </trkpt>
      <trkpt lat="49.51675" lon="-1.59866">
        <ele>103.4</ele>
        <time>2026-03-30T15:24:58.000Z</time>
      </trkpt>
      <trkpt lat="49.51676" lon="-1.59865">
        <ele>103.6</ele>
        <time>2026-03-30T15:24:59.000Z</time>
      </trkpt>
      <trkpt lat="49.51677" lon="-1.59863">
        <ele>103.6</ele>
        <time>2026-03-30T15:25:00.000Z</time>
      </trkpt>
      <trkpt lat="49.51678" lon="-1.59862">
        <ele>103.7</ele>
        <time>2026-03-30T15:25:01.000Z</time>
      </trkpt>
      <trkpt lat="49.51679" lon="-1.5986">
        <ele>104.5</ele>
        <time>2026-03-30T15:25:02.000Z</time>
      </trkpt>
      <trkpt lat="49.51679" lon="-1.59858">
        <ele>104.8</ele>
        <time>2026-03-30T15:25:03.000Z</time>
      </trkpt>
      <trkpt lat="49.5168" lon="-1.59857">
        <ele>104.9</ele>
        <time>2026-03-30T15:25:04.000Z</time>
      </trkpt>
      <trkpt lat="49.51681" lon="-1.59855">
        <ele>104.8</ele>
        <time>2026-03-30T15:25:05.000Z</time>
      </trkpt>
      <trkpt lat="49.51682" lon="-1.59853">
        <ele>105.2</ele>
        <time>2026-03-30T15:25:06.000Z</time>
      </trkpt>
      <trkpt lat="49.51683" lon="-1.59852">
        <ele>105.5</ele>
        <time>2026-03-30T15:25:07.000Z</time>
      </trkpt>
      <trkpt lat="49.51684" lon="-1.5985">
        <ele>105.9</ele>
        <time>2026-03-30T15:25:08.000Z</time>
      </trkpt>
      <trkpt lat="49.51685" lon="-1.59849">
        <ele>105.5</ele>
        <time>2026-03-30T15:25:09.000Z</time>
      </trkpt>
      <trkpt lat="49.51686" lon="-1.59847">
        <ele>105.5</ele>
        <time>2026-03-30T15:25:10.000Z</time>
      </trkpt>
      <trkpt lat="49.51687" lon="-1.59845">
        <ele>105.5</ele>
        <time>2026-03-30T15:25:11.000Z</time>
      </trkpt>
      <trkpt lat="49.51688" lon="-1.59843">
        <ele>105.6</ele>
        <time>2026-03-30T15:25:12.000Z</time>
      </trkpt>
      <trkpt lat="49.51689" lon="-1.59841">
        <ele>105.2</ele>
        <time>2026-03-30T15:25:13.000Z</time>
      </trkpt>
      <trkpt lat="49.5169" lon="-1.59839">
        <ele>105.2</ele>
        <time>2026-03-30T15:25:14.000Z</time>
      </trkpt>
      <trkpt lat="49.5169" lon="-1.59838">
        <ele>105</ele>
        <time>2026-03-30T15:25:15.000Z</time>
      </trkpt>
      <trkpt lat="49.51692" lon="-1.59836">
        <ele>105</ele>
        <time>2026-03-30T15:25:16.000Z</time>
      </trkpt>
      <trkpt lat="49.51693" lon="-1.59834">
        <ele>104.9</ele>
        <time>2026-03-30T15:25:17.000Z</time>
      </trkpt>
      <trkpt lat="49.51694" lon="-1.59833">
        <ele>104.5</ele>
        <time>2026-03-30T15:25:18.000Z</time>
      </trkpt>
      <trkpt lat="49.51695" lon="-1.59831">
        <ele>104.3</ele>
        <time>2026-03-30T15:25:19.000Z</time>
      </trkpt>
      <trkpt lat="49.51696" lon="-1.5983">
        <ele>104</ele>
        <time>2026-03-30T15:25:20.000Z</time>
      </trkpt>
      <trkpt lat="49.51697" lon="-1.59828">
        <ele>103.7</ele>
        <time>2026-03-30T15:25:21.000Z</time>
      </trkpt>
      <trkpt lat="49.51699" lon="-1.59827">
        <ele>103.4</ele>
        <time>2026-03-30T15:25:22.000Z</time>
      </trkpt>
      <trkpt lat="49.517" lon="-1.59825">
        <ele>103.5</ele>
        <time>2026-03-30T15:25:23.000Z</time>
      </trkpt>
      <trkpt lat="49.51701" lon="-1.59824">
        <ele>103.1</ele>
        <time>2026-03-30T15:25:24.000Z</time>
      </trkpt>
      <trkpt lat="49.51702" lon="-1.59823">
        <ele>102.9</ele>
        <time>2026-03-30T15:25:25.000Z</time>
      </trkpt>
      <trkpt lat="49.51703" lon="-1.59821">
        <ele>103.1</ele>
        <time>2026-03-30T15:25:26.000Z</time>
      </trkpt>
      <trkpt lat="49.51705" lon="-1.5982">
        <ele>103</ele>
        <time>2026-03-30T15:25:27.000Z</time>
      </trkpt>
      <trkpt lat="49.51706" lon="-1.59819">
        <ele>102.8</ele>
        <time>2026-03-30T15:25:28.000Z</time>
      </trkpt>
      <trkpt lat="49.51707" lon="-1.59818">
        <ele>102.4</ele>
        <time>2026-03-30T15:25:29.000Z</time>
      </trkpt>
      <trkpt lat="49.51708" lon="-1.59816">
        <ele>101.9</ele>
        <time>2026-03-30T15:25:30.000Z</time>
      </trkpt>
      <trkpt lat="49.51709" lon="-1.59815">
        <ele>101.2</ele>
        <time>2026-03-30T15:25:31.000Z</time>
      </trkpt>
      <trkpt lat="49.5171" lon="-1.59813">
        <ele>101.1</ele>
        <time>2026-03-30T15:25:32.000Z</time>
      </trkpt>
      <trkpt lat="49.51711" lon="-1.59812">
        <ele>100.5</ele>
        <time>2026-03-30T15:25:33.000Z</time>
      </trkpt>
      <trkpt lat="49.51712" lon="-1.59811">
        <ele>99.4</ele>
        <time>2026-03-30T15:25:34.000Z</time>
      </trkpt>
      <trkpt lat="49.51713" lon="-1.59809">
        <ele>99</ele>
        <time>2026-03-30T15:25:35.000Z</time>
      </trkpt>
      <trkpt lat="49.51714" lon="-1.59808">
        <ele>99.1</ele>
        <time>2026-03-30T15:25:36.000Z</time>
      </trkpt>
      <trkpt lat="49.51716" lon="-1.59807">
        <ele>99</ele>
        <time>2026-03-30T15:25:37.000Z</time>
      </trkpt>
      <trkpt lat="49.51717" lon="-1.59805">
        <ele>99.3</ele>
        <time>2026-03-30T15:25:38.000Z</time>
      </trkpt>
      <trkpt lat="49.51718" lon="-1.59804">
        <ele>99.8</ele>
        <time>2026-03-30T15:25:39.000Z</time>
      </trkpt>
      <trkpt lat="49.51719" lon="-1.59802">
        <ele>100.6</ele>
        <time>2026-03-30T15:25:40.000Z</time>
      </trkpt>
      <trkpt lat="49.5172" lon="-1.59801">
        <ele>101</ele>
        <time>2026-03-30T15:25:41.000Z</time>
      </trkpt>
      <trkpt lat="49.51721" lon="-1.598">
        <ele>101.2</ele>
        <time>2026-03-30T15:25:42.000Z</time>
      </trkpt>
      <trkpt lat="49.51722" lon="-1.59798">
        <ele>101.6</ele>
        <time>2026-03-30T15:25:43.000Z</time>
      </trkpt>
      <trkpt lat="49.51723" lon="-1.59797">
        <ele>101.9</ele>
        <time>2026-03-30T15:25:44.000Z</time>
      </trkpt>
      <trkpt lat="49.51724" lon="-1.59795">
        <ele>101.6</ele>
        <time>2026-03-30T15:25:45.000Z</time>
      </trkpt>
      <trkpt lat="49.51725" lon="-1.59794">
        <ele>101.5</ele>
        <time>2026-03-30T15:25:46.000Z</time>
      </trkpt>
      <trkpt lat="49.51726" lon="-1.59792">
        <ele>101.3</ele>
        <time>2026-03-30T15:25:47.000Z</time>
      </trkpt>
      <trkpt lat="49.51727" lon="-1.59791">
        <ele>101</ele>
        <time>2026-03-30T15:25:48.000Z</time>
      </trkpt>
      <trkpt lat="49.51728" lon="-1.59789">
        <ele>101</ele>
        <time>2026-03-30T15:25:49.000Z</time>
      </trkpt>
      <trkpt lat="49.5173" lon="-1.59788">
        <ele>101.3</ele>
        <time>2026-03-30T15:25:50.000Z</time>
      </trkpt>
      <trkpt lat="49.51731" lon="-1.59787">
        <ele>100.4</ele>
        <time>2026-03-30T15:25:51.000Z</time>
      </trkpt>
      <trkpt lat="49.51732" lon="-1.59786">
        <ele>99.9</ele>
        <time>2026-03-30T15:25:52.000Z</time>
      </trkpt>
      <trkpt lat="49.51733" lon="-1.59784">
        <ele>99.2</ele>
        <time>2026-03-30T15:25:53.000Z</time>
      </trkpt>
      <trkpt lat="49.51734" lon="-1.59783">
        <ele>99.3</ele>
        <time>2026-03-30T15:25:54.000Z</time>
      </trkpt>
      <trkpt lat="49.51735" lon="-1.59781">
        <ele>99.5</ele>
        <time>2026-03-30T15:25:55.000Z</time>
      </trkpt>
      <trkpt lat="49.51736" lon="-1.59779">
        <ele>99.9</ele>
        <time>2026-03-30T15:25:56.000Z</time>
      </trkpt>
      <trkpt lat="49.51738" lon="-1.59778">
        <ele>99.8</ele>
        <time>2026-03-30T15:25:57.000Z</time>
      </trkpt>
      <trkpt lat="49.51739" lon="-1.59777">
        <ele>100.3</ele>
        <time>2026-03-30T15:25:58.000Z</time>
      </trkpt>
      <trkpt lat="49.5174" lon="-1.59775">
        <ele>101.7</ele>
        <time>2026-03-30T15:25:59.000Z</time>
      </trkpt>
      <trkpt lat="49.51741" lon="-1.59774">
        <ele>100.9</ele>
        <time>2026-03-30T15:26:00.000Z</time>
      </trkpt>
      <trkpt lat="49.51742" lon="-1.59773">
        <ele>100.4</ele>
        <time>2026-03-30T15:26:01.000Z</time>
      </trkpt>
      <trkpt lat="49.51744" lon="-1.59772">
        <ele>99.7</ele>
        <time>2026-03-30T15:26:02.000Z</time>
      </trkpt>
      <trkpt lat="49.51745" lon="-1.59771">
        <ele>99.3</ele>
        <time>2026-03-30T15:26:03.000Z</time>
      </trkpt>
      <trkpt lat="49.51746" lon="-1.59769">
        <ele>98.6</ele>
        <time>2026-03-30T15:26:04.000Z</time>
      </trkpt>
      <trkpt lat="49.51747" lon="-1.59767">
        <ele>98.4</ele>
        <time>2026-03-30T15:26:05.000Z</time>
      </trkpt>
      <trkpt lat="49.51748" lon="-1.59766">
        <ele>97.8</ele>
        <time>2026-03-30T15:26:06.000Z</time>
      </trkpt>
      <trkpt lat="49.51749" lon="-1.59765">
        <ele>98.3</ele>
        <time>2026-03-30T15:26:07.000Z</time>
      </trkpt>
      <trkpt lat="49.5175" lon="-1.59763">
        <ele>98.4</ele>
        <time>2026-03-30T15:26:08.000Z</time>
      </trkpt>
      <trkpt lat="49.51751" lon="-1.59762">
        <ele>98.5</ele>
        <time>2026-03-30T15:26:09.000Z</time>
      </trkpt>
      <trkpt lat="49.51753" lon="-1.5976">
        <ele>98.5</ele>
        <time>2026-03-30T15:26:10.000Z</time>
      </trkpt>
      <trkpt lat="49.51754" lon="-1.59758">
        <ele>97.7</ele>
        <time>2026-03-30T15:26:11.000Z</time>
      </trkpt>
      <trkpt lat="49.51755" lon="-1.59757">
        <ele>97.6</ele>
        <time>2026-03-30T15:26:12.000Z</time>
      </trkpt>
      <trkpt lat="49.51757" lon="-1.59756">
        <ele>97.2</ele>
        <time>2026-03-30T15:26:13.000Z</time>
      </trkpt>
      <trkpt lat="49.51758" lon="-1.59755">
        <ele>97.3</ele>
        <time>2026-03-30T15:26:14.000Z</time>
      </trkpt>
      <trkpt lat="49.51759" lon="-1.59754">
        <ele>96.9</ele>
        <time>2026-03-30T15:26:15.000Z</time>
      </trkpt>
      <trkpt lat="49.51761" lon="-1.59753">
        <ele>96.3</ele>
        <time>2026-03-30T15:26:16.000Z</time>
      </trkpt>
      <trkpt lat="49.51762" lon="-1.59752">
        <ele>96.5</ele>
        <time>2026-03-30T15:26:17.000Z</time>
      </trkpt>
      <trkpt lat="49.51764" lon="-1.5975">
        <ele>95.9</ele>
        <time>2026-03-30T15:26:18.000Z</time>
      </trkpt>
      <trkpt lat="49.51765" lon="-1.59749">
        <ele>95.7</ele>
        <time>2026-03-30T15:26:19.000Z</time>
      </trkpt>
      <trkpt lat="49.51766" lon="-1.59748">
        <ele>96.1</ele>
        <time>2026-03-30T15:26:20.000Z</time>
      </trkpt>
      <trkpt lat="49.51767" lon="-1.59746">
        <ele>97.1</ele>
        <time>2026-03-30T15:26:21.000Z</time>
      </trkpt>
      <trkpt lat="49.51768" lon="-1.59744">
        <ele>96.7</ele>
        <time>2026-03-30T15:26:22.000Z</time>
      </trkpt>
      <trkpt lat="49.51769" lon="-1.59742">
        <ele>97.4</ele>
        <time>2026-03-30T15:26:23.000Z</time>
      </trkpt>
      <trkpt lat="49.5177" lon="-1.5974">
        <ele>97.6</ele>
        <time>2026-03-30T15:26:24.000Z</time>
      </trkpt>
      <trkpt lat="49.51771" lon="-1.59737">
        <ele>97</ele>
        <time>2026-03-30T15:26:25.000Z</time>
      </trkpt>
      <trkpt lat="49.51772" lon="-1.59735">
        <ele>97</ele>
        <time>2026-03-30T15:26:26.000Z</time>
      </trkpt>
      <trkpt lat="49.51773" lon="-1.59734">
        <ele>97.6</ele>
        <time>2026-03-30T15:26:27.000Z</time>
      </trkpt>
      <trkpt lat="49.51774" lon="-1.59733">
        <ele>97.5</ele>
        <time>2026-03-30T15:26:28.000Z</time>
      </trkpt>
      <trkpt lat="49.51776" lon="-1.59732">
        <ele>98</ele>
        <time>2026-03-30T15:26:29.000Z</time>
      </trkpt>
      <trkpt lat="49.51777" lon="-1.59731">
        <ele>98.7</ele>
        <time>2026-03-30T15:26:30.000Z</time>
      </trkpt>
      <trkpt lat="49.51778" lon="-1.5973">
        <ele>99.1</ele>
        <time>2026-03-30T15:26:31.000Z</time>
      </trkpt>
      <trkpt lat="49.5178" lon="-1.59729">
        <ele>99.1</ele>
        <time>2026-03-30T15:26:32.000Z</time>
      </trkpt>
      <trkpt lat="49.51781" lon="-1.59729">
        <ele>99.2</ele>
        <time>2026-03-30T15:26:33.000Z</time>
      </trkpt>
      <trkpt lat="49.51783" lon="-1.59728">
        <ele>99.4</ele>
        <time>2026-03-30T15:26:34.000Z</time>
      </trkpt>
      <trkpt lat="49.51784" lon="-1.59727">
        <ele>99.2</ele>
        <time>2026-03-30T15:26:35.000Z</time>
      </trkpt>
      <trkpt lat="49.51785" lon="-1.59727">
        <ele>98.8</ele>
        <time>2026-03-30T15:26:36.000Z</time>
      </trkpt>
      <trkpt lat="49.51786" lon="-1.59726">
        <ele>98.8</ele>
        <time>2026-03-30T15:26:37.000Z</time>
      </trkpt>
      <trkpt lat="49.51787" lon="-1.59725">
        <ele>99.2</ele>
        <time>2026-03-30T15:26:38.000Z</time>
      </trkpt>
      <trkpt lat="49.51789" lon="-1.59724">
        <ele>99</ele>
        <time>2026-03-30T15:26:39.000Z</time>
      </trkpt>
      <trkpt lat="49.5179" lon="-1.59723">
        <ele>98.4</ele>
        <time>2026-03-30T15:26:40.000Z</time>
      </trkpt>
      <trkpt lat="49.51791" lon="-1.59722">
        <ele>98.6</ele>
        <time>2026-03-30T15:26:41.000Z</time>
      </trkpt>
      <trkpt lat="49.51792" lon="-1.59721">
        <ele>98.6</ele>
        <time>2026-03-30T15:26:42.000Z</time>
      </trkpt>
      <trkpt lat="49.51794" lon="-1.5972">
        <ele>98.5</ele>
        <time>2026-03-30T15:26:43.000Z</time>
      </trkpt>
      <trkpt lat="49.51795" lon="-1.59719">
        <ele>98.4</ele>
        <time>2026-03-30T15:26:44.000Z</time>
      </trkpt>
      <trkpt lat="49.51796" lon="-1.59718">
        <ele>98.5</ele>
        <time>2026-03-30T15:26:45.000Z</time>
      </trkpt>
      <trkpt lat="49.51797" lon="-1.59717">
        <ele>98.6</ele>
        <time>2026-03-30T15:26:46.000Z</time>
      </trkpt>
      <trkpt lat="49.51798" lon="-1.59715">
        <ele>99</ele>
        <time>2026-03-30T15:26:47.000Z</time>
      </trkpt>
      <trkpt lat="49.51799" lon="-1.59713">
        <ele>98.9</ele>
        <time>2026-03-30T15:26:48.000Z</time>
      </trkpt>
      <trkpt lat="49.51801" lon="-1.59712">
        <ele>99.2</ele>
        <time>2026-03-30T15:26:49.000Z</time>
      </trkpt>
      <trkpt lat="49.51802" lon="-1.5971">
        <ele>99</ele>
        <time>2026-03-30T15:26:50.000Z</time>
      </trkpt>
      <trkpt lat="49.51803" lon="-1.5971">
        <ele>98.7</ele>
        <time>2026-03-30T15:26:51.000Z</time>
      </trkpt>
      <trkpt lat="49.51805" lon="-1.59708">
        <ele>98.8</ele>
        <time>2026-03-30T15:26:52.000Z</time>
      </trkpt>
      <trkpt lat="49.51806" lon="-1.59707">
        <ele>98.5</ele>
        <time>2026-03-30T15:26:53.000Z</time>
      </trkpt>
      <trkpt lat="49.51807" lon="-1.59706">
        <ele>98.8</ele>
        <time>2026-03-30T15:26:54.000Z</time>
      </trkpt>
      <trkpt lat="49.51808" lon="-1.59704">
        <ele>98.8</ele>
        <time>2026-03-30T15:26:55.000Z</time>
      </trkpt>
      <trkpt lat="49.5181" lon="-1.59703">
        <ele>99.1</ele>
        <time>2026-03-30T15:26:56.000Z</time>
      </trkpt>
      <trkpt lat="49.51811" lon="-1.59701">
        <ele>99.7</ele>
        <time>2026-03-30T15:26:57.000Z</time>
      </trkpt>
      <trkpt lat="49.51812" lon="-1.59699">
        <ele>100.8</ele>
        <time>2026-03-30T15:26:58.000Z</time>
      </trkpt>
      <trkpt lat="49.51813" lon="-1.59698">
        <ele>100.5</ele>
        <time>2026-03-30T15:26:59.000Z</time>
      </trkpt>
      <trkpt lat="49.51814" lon="-1.59696">
        <ele>100</ele>
        <time>2026-03-30T15:27:00.000Z</time>
      </trkpt>
      <trkpt lat="49.51816" lon="-1.59696">
        <ele>99.1</ele>
        <time>2026-03-30T15:27:01.000Z</time>
      </trkpt>
      <trkpt lat="49.51817" lon="-1.59696">
        <ele>99.4</ele>
        <time>2026-03-30T15:27:02.000Z</time>
      </trkpt>
      <trkpt lat="49.51819" lon="-1.59694">
        <ele>98.9</ele>
        <time>2026-03-30T15:27:03.000Z</time>
      </trkpt>
      <trkpt lat="49.5182" lon="-1.59693">
        <ele>98.3</ele>
        <time>2026-03-30T15:27:04.000Z</time>
      </trkpt>
      <trkpt lat="49.51821" lon="-1.59694">
        <ele>97.7</ele>
        <time>2026-03-30T15:27:05.000Z</time>
      </trkpt>
      <trkpt lat="49.51822" lon="-1.59693">
        <ele>97.1</ele>
        <time>2026-03-30T15:27:06.000Z</time>
      </trkpt>
      <trkpt lat="49.51823" lon="-1.59693">
        <ele>96.6</ele>
        <time>2026-03-30T15:27:07.000Z</time>
      </trkpt>
      <trkpt lat="49.51824" lon="-1.59692">
        <ele>95.4</ele>
        <time>2026-03-30T15:27:08.000Z</time>
      </trkpt>
      <trkpt lat="49.51825" lon="-1.59692">
        <ele>94.7</ele>
        <time>2026-03-30T15:27:09.000Z</time>
      </trkpt>
      <trkpt lat="49.51826" lon="-1.59691">
        <ele>95.3</ele>
        <time>2026-03-30T15:27:10.000Z</time>
      </trkpt>
      <trkpt lat="49.51828" lon="-1.5969">
        <ele>95.6</ele>
        <time>2026-03-30T15:27:11.000Z</time>
      </trkpt>
      <trkpt lat="49.51829" lon="-1.59689">
        <ele>96.6</ele>
        <time>2026-03-30T15:27:12.000Z</time>
      </trkpt>
      <trkpt lat="49.5183" lon="-1.59687">
        <ele>97.6</ele>
        <time>2026-03-30T15:27:13.000Z</time>
      </trkpt>
      <trkpt lat="49.51832" lon="-1.59686">
        <ele>98.1</ele>
        <time>2026-03-30T15:27:14.000Z</time>
      </trkpt>
      <trkpt lat="49.51833" lon="-1.59685">
        <ele>97.7</ele>
        <time>2026-03-30T15:27:15.000Z</time>
      </trkpt>
      <trkpt lat="49.51835" lon="-1.59684">
        <ele>98.5</ele>
        <time>2026-03-30T15:27:16.000Z</time>
      </trkpt>
      <trkpt lat="49.51836" lon="-1.59683">
        <ele>98.5</ele>
        <time>2026-03-30T15:27:17.000Z</time>
      </trkpt>
      <trkpt lat="49.51837" lon="-1.59681">
        <ele>99.7</ele>
        <time>2026-03-30T15:27:18.000Z</time>
      </trkpt>
      <trkpt lat="49.51838" lon="-1.5968">
        <ele>99.9</ele>
        <time>2026-03-30T15:27:19.000Z</time>
      </trkpt>
      <trkpt lat="49.5184" lon="-1.59679">
        <ele>99.6</ele>
        <time>2026-03-30T15:27:20.000Z</time>
      </trkpt>
      <trkpt lat="49.51841" lon="-1.59678">
        <ele>99.2</ele>
        <time>2026-03-30T15:27:21.000Z</time>
      </trkpt>
      <trkpt lat="49.51843" lon="-1.59677">
        <ele>99.6</ele>
        <time>2026-03-30T15:27:22.000Z</time>
      </trkpt>
      <trkpt lat="49.51845" lon="-1.59676">
        <ele>99.2</ele>
        <time>2026-03-30T15:27:23.000Z</time>
      </trkpt>
      <trkpt lat="49.51846" lon="-1.59675">
        <ele>98.9</ele>
        <time>2026-03-30T15:27:24.000Z</time>
      </trkpt>
      <trkpt lat="49.51847" lon="-1.59674">
        <ele>98.3</ele>
        <time>2026-03-30T15:27:25.000Z</time>
      </trkpt>
      <trkpt lat="49.51849" lon="-1.59672">
        <ele>101</ele>
        <time>2026-03-30T15:27:26.000Z</time>
      </trkpt>
      <trkpt lat="49.5185" lon="-1.5967">
        <ele>102.9</ele>
        <time>2026-03-30T15:27:27.000Z</time>
      </trkpt>
      <trkpt lat="49.51851" lon="-1.59668">
        <ele>102.7</ele>
        <time>2026-03-30T15:27:28.000Z</time>
      </trkpt>
      <trkpt lat="49.51853" lon="-1.59667">
        <ele>102.8</ele>
        <time>2026-03-30T15:27:29.000Z</time>
      </trkpt>
      <trkpt lat="49.51854" lon="-1.59666">
        <ele>102.4</ele>
        <time>2026-03-30T15:27:30.000Z</time>
      </trkpt>
      <trkpt lat="49.51856" lon="-1.59665">
        <ele>102.7</ele>
        <time>2026-03-30T15:27:31.000Z</time>
      </trkpt>
      <trkpt lat="49.51857" lon="-1.59664">
        <ele>102.9</ele>
        <time>2026-03-30T15:27:32.000Z</time>
      </trkpt>
      <trkpt lat="49.51858" lon="-1.59663">
        <ele>102</ele>
        <time>2026-03-30T15:27:33.000Z</time>
      </trkpt>
      <trkpt lat="49.5186" lon="-1.59662">
        <ele>102.2</ele>
        <time>2026-03-30T15:27:34.000Z</time>
      </trkpt>
      <trkpt lat="49.51861" lon="-1.59661">
        <ele>101.7</ele>
        <time>2026-03-30T15:27:35.000Z</time>
      </trkpt>
      <trkpt lat="49.51863" lon="-1.5966">
        <ele>101.1</ele>
        <time>2026-03-30T15:27:36.000Z</time>
      </trkpt>
      <trkpt lat="49.51864" lon="-1.5966">
        <ele>100.7</ele>
        <time>2026-03-30T15:27:37.000Z</time>
      </trkpt>
      <trkpt lat="49.51866" lon="-1.59659">
        <ele>100.1</ele>
        <time>2026-03-30T15:27:38.000Z</time>
      </trkpt>
      <trkpt lat="49.51867" lon="-1.59658">
        <ele>99.9</ele>
        <time>2026-03-30T15:27:39.000Z</time>
      </trkpt>
      <trkpt lat="49.51869" lon="-1.59657">
        <ele>99</ele>
        <time>2026-03-30T15:27:40.000Z</time>
      </trkpt>
      <trkpt lat="49.51871" lon="-1.59657">
        <ele>98.6</ele>
        <time>2026-03-30T15:27:41.000Z</time>
      </trkpt>
      <trkpt lat="49.51872" lon="-1.59656">
        <ele>98.5</ele>
        <time>2026-03-30T15:27:42.000Z</time>
      </trkpt>
      <trkpt lat="49.51874" lon="-1.59655">
        <ele>98.4</ele>
        <time>2026-03-30T15:27:43.000Z</time>
      </trkpt>
      <trkpt lat="49.51875" lon="-1.59654">
        <ele>98</ele>
        <time>2026-03-30T15:27:44.000Z</time>
      </trkpt>
      <trkpt lat="49.51876" lon="-1.59654">
        <ele>97.8</ele>
        <time>2026-03-30T15:27:45.000Z</time>
      </trkpt>
      <trkpt lat="49.51878" lon="-1.59653">
        <ele>97.2</ele>
        <time>2026-03-30T15:27:46.000Z</time>
      </trkpt>
      <trkpt lat="49.51879" lon="-1.59652">
        <ele>96.8</ele>
        <time>2026-03-30T15:27:47.000Z</time>
      </trkpt>
      <trkpt lat="49.51881" lon="-1.59651">
        <ele>96.4</ele>
        <time>2026-03-30T15:27:48.000Z</time>
      </trkpt>
      <trkpt lat="49.51882" lon="-1.5965">
        <ele>96.1</ele>
        <time>2026-03-30T15:27:49.000Z</time>
      </trkpt>
      <trkpt lat="49.51883" lon="-1.5965">
        <ele>95.9</ele>
        <time>2026-03-30T15:27:50.000Z</time>
      </trkpt>
      <trkpt lat="49.51885" lon="-1.59649">
        <ele>95.5</ele>
        <time>2026-03-30T15:27:51.000Z</time>
      </trkpt>
      <trkpt lat="49.51886" lon="-1.59649">
        <ele>95.2</ele>
        <time>2026-03-30T15:27:52.000Z</time>
      </trkpt>
      <trkpt lat="49.51887" lon="-1.59648">
        <ele>94.9</ele>
        <time>2026-03-30T15:27:53.000Z</time>
      </trkpt>
      <trkpt lat="49.51889" lon="-1.59648">
        <ele>94.9</ele>
        <time>2026-03-30T15:27:54.000Z</time>
      </trkpt>
      <trkpt lat="49.5189" lon="-1.59647">
        <ele>95.4</ele>
        <time>2026-03-30T15:27:55.000Z</time>
      </trkpt>
      <trkpt lat="49.51891" lon="-1.59646">
        <ele>95.3</ele>
        <time>2026-03-30T15:27:56.000Z</time>
      </trkpt>
      <trkpt lat="49.51893" lon="-1.59646">
        <ele>95.3</ele>
        <time>2026-03-30T15:27:57.000Z</time>
      </trkpt>
      <trkpt lat="49.51894" lon="-1.59645">
        <ele>95.1</ele>
        <time>2026-03-30T15:27:58.000Z</time>
      </trkpt>
      <trkpt lat="49.51895" lon="-1.59645">
        <ele>95</ele>
        <time>2026-03-30T15:27:59.000Z</time>
      </trkpt>
      <trkpt lat="49.51897" lon="-1.59644">
        <ele>95</ele>
        <time>2026-03-30T15:28:00.000Z</time>
      </trkpt>
      <trkpt lat="49.51898" lon="-1.59644">
        <ele>95</ele>
        <time>2026-03-30T15:28:01.000Z</time>
      </trkpt>
      <trkpt lat="49.51899" lon="-1.59643">
        <ele>96.1</ele>
        <time>2026-03-30T15:28:02.000Z</time>
      </trkpt>
      <trkpt lat="49.519" lon="-1.59642">
        <ele>96.4</ele>
        <time>2026-03-30T15:28:03.000Z</time>
      </trkpt>
      <trkpt lat="49.51902" lon="-1.59641">
        <ele>96.1</ele>
        <time>2026-03-30T15:28:04.000Z</time>
      </trkpt>
      <trkpt lat="49.51903" lon="-1.59641">
        <ele>95.7</ele>
        <time>2026-03-30T15:28:05.000Z</time>
      </trkpt>
      <trkpt lat="49.51904" lon="-1.5964">
        <ele>95.8</ele>
        <time>2026-03-30T15:28:06.000Z</time>
      </trkpt>
      <trkpt lat="49.51906" lon="-1.59639">
        <ele>95.9</ele>
        <time>2026-03-30T15:28:07.000Z</time>
      </trkpt>
      <trkpt lat="49.51907" lon="-1.59638">
        <ele>96</ele>
        <time>2026-03-30T15:28:08.000Z</time>
      </trkpt>
      <trkpt lat="49.51908" lon="-1.59637">
        <ele>96.3</ele>
        <time>2026-03-30T15:28:09.000Z</time>
      </trkpt>
      <trkpt lat="49.5191" lon="-1.59636">
        <ele>96.7</ele>
        <time>2026-03-30T15:28:10.000Z</time>
      </trkpt>
      <trkpt lat="49.51911" lon="-1.59634">
        <ele>96.7</ele>
        <time>2026-03-30T15:28:11.000Z</time>
      </trkpt>
      <trkpt lat="49.51912" lon="-1.59633">
        <ele>97.3</ele>
        <time>2026-03-30T15:28:12.000Z</time>
      </trkpt>
      <trkpt lat="49.51914" lon="-1.59633">
        <ele>97</ele>
        <time>2026-03-30T15:28:13.000Z</time>
      </trkpt>
      <trkpt lat="49.51915" lon="-1.59632">
        <ele>96.5</ele>
        <time>2026-03-30T15:28:14.000Z</time>
      </trkpt>
      <trkpt lat="49.51917" lon="-1.59632">
        <ele>96.7</ele>
        <time>2026-03-30T15:28:15.000Z</time>
      </trkpt>
      <trkpt lat="49.51918" lon="-1.59631">
        <ele>96.6</ele>
        <time>2026-03-30T15:28:16.000Z</time>
      </trkpt>
      <trkpt lat="49.5192" lon="-1.5963">
        <ele>96.5</ele>
        <time>2026-03-30T15:28:17.000Z</time>
      </trkpt>
      <trkpt lat="49.51921" lon="-1.59629">
        <ele>96.4</ele>
        <time>2026-03-30T15:28:18.000Z</time>
      </trkpt>
      <trkpt lat="49.51922" lon="-1.59628">
        <ele>96.1</ele>
        <time>2026-03-30T15:28:19.000Z</time>
      </trkpt>
      <trkpt lat="49.51924" lon="-1.59627">
        <ele>96.1</ele>
        <time>2026-03-30T15:28:20.000Z</time>
      </trkpt>
      <trkpt lat="49.51925" lon="-1.59626">
        <ele>96.1</ele>
        <time>2026-03-30T15:28:21.000Z</time>
      </trkpt>
      <trkpt lat="49.51927" lon="-1.59625">
        <ele>96</ele>
        <time>2026-03-30T15:28:22.000Z</time>
      </trkpt>
      <trkpt lat="49.51928" lon="-1.59624">
        <ele>96.2</ele>
        <time>2026-03-30T15:28:23.000Z</time>
      </trkpt>
      <trkpt lat="49.51929" lon="-1.59623">
        <ele>97.5</ele>
        <time>2026-03-30T15:28:24.000Z</time>
      </trkpt>
      <trkpt lat="49.5193" lon="-1.59621">
        <ele>98</ele>
        <time>2026-03-30T15:28:25.000Z</time>
      </trkpt>
      <trkpt lat="49.51932" lon="-1.5962">
        <ele>98</ele>
        <time>2026-03-30T15:28:26.000Z</time>
      </trkpt>
      <trkpt lat="49.51933" lon="-1.5962">
        <ele>98</ele>
        <time>2026-03-30T15:28:27.000Z</time>
      </trkpt>
      <trkpt lat="49.51934" lon="-1.59619">
        <ele>98</ele>
        <time>2026-03-30T15:28:28.000Z</time>
      </trkpt>
      <trkpt lat="49.51936" lon="-1.59617">
        <ele>98.4</ele>
        <time>2026-03-30T15:28:29.000Z</time>
      </trkpt>
      <trkpt lat="49.51937" lon="-1.59616">
        <ele>98.6</ele>
        <time>2026-03-30T15:28:30.000Z</time>
      </trkpt>
      <trkpt lat="49.51938" lon="-1.59615">
        <ele>99.8</ele>
        <time>2026-03-30T15:28:31.000Z</time>
      </trkpt>
      <trkpt lat="49.51939" lon="-1.59613">
        <ele>99.9</ele>
        <time>2026-03-30T15:28:32.000Z</time>
      </trkpt>
      <trkpt lat="49.5194" lon="-1.59612">
        <ele>100.1</ele>
        <time>2026-03-30T15:28:33.000Z</time>
      </trkpt>
      <trkpt lat="49.51942" lon="-1.5961">
        <ele>100.9</ele>
        <time>2026-03-30T15:28:34.000Z</time>
      </trkpt>
      <trkpt lat="49.51943" lon="-1.59607">
        <ele>103.9</ele>
        <time>2026-03-30T15:28:35.000Z</time>
      </trkpt>
      <trkpt lat="49.51943" lon="-1.59604">
        <ele>105</ele>
        <time>2026-03-30T15:28:36.000Z</time>
      </trkpt>
      <trkpt lat="49.51944" lon="-1.59602">
        <ele>105.1</ele>
        <time>2026-03-30T15:28:37.000Z</time>
      </trkpt>
      <trkpt lat="49.51946" lon="-1.59601">
        <ele>105.9</ele>
        <time>2026-03-30T15:28:38.000Z</time>
      </trkpt>
      <trkpt lat="49.51947" lon="-1.59599">
        <ele>106.3</ele>
        <time>2026-03-30T15:28:39.000Z</time>
      </trkpt>
      <trkpt lat="49.51948" lon="-1.59597">
        <ele>106.5</ele>
        <time>2026-03-30T15:28:40.000Z</time>
      </trkpt>
      <trkpt lat="49.51949" lon="-1.59596">
        <ele>106</ele>
        <time>2026-03-30T15:28:41.000Z</time>
      </trkpt>
      <trkpt lat="49.5195" lon="-1.59595">
        <ele>106.2</ele>
        <time>2026-03-30T15:28:42.000Z</time>
      </trkpt>
      <trkpt lat="49.51951" lon="-1.59593">
        <ele>106.3</ele>
        <time>2026-03-30T15:28:43.000Z</time>
      </trkpt>
      <trkpt lat="49.51952" lon="-1.59592">
        <ele>106.7</ele>
        <time>2026-03-30T15:28:44.000Z</time>
      </trkpt>
      <trkpt lat="49.51954" lon="-1.59591">
        <ele>108.3</ele>
        <time>2026-03-30T15:28:45.000Z</time>
      </trkpt>
      <trkpt lat="49.51955" lon="-1.5959">
        <ele>108.2</ele>
        <time>2026-03-30T15:28:46.000Z</time>
      </trkpt>
      <trkpt lat="49.51956" lon="-1.59588">
        <ele>108.6</ele>
        <time>2026-03-30T15:28:47.000Z</time>
      </trkpt>
      <trkpt lat="49.51957" lon="-1.59586">
        <ele>108.9</ele>
        <time>2026-03-30T15:28:48.000Z</time>
      </trkpt>
      <trkpt lat="49.51959" lon="-1.59585">
        <ele>108.7</ele>
        <time>2026-03-30T15:28:49.000Z</time>
      </trkpt>
      <trkpt lat="49.5196" lon="-1.59584">
        <ele>108.2</ele>
        <time>2026-03-30T15:28:50.000Z</time>
      </trkpt>
      <trkpt lat="49.51962" lon="-1.59583">
        <ele>108.1</ele>
        <time>2026-03-30T15:28:51.000Z</time>
      </trkpt>
      <trkpt lat="49.51963" lon="-1.59582">
        <ele>108.1</ele>
        <time>2026-03-30T15:28:52.000Z</time>
      </trkpt>
      <trkpt lat="49.51964" lon="-1.59581">
        <ele>108.4</ele>
        <time>2026-03-30T15:28:53.000Z</time>
      </trkpt>
      <trkpt lat="49.51966" lon="-1.5958">
        <ele>107.6</ele>
        <time>2026-03-30T15:28:54.000Z</time>
      </trkpt>
      <trkpt lat="49.51967" lon="-1.59579">
        <ele>107.2</ele>
        <time>2026-03-30T15:28:55.000Z</time>
      </trkpt>
      <trkpt lat="49.51968" lon="-1.59577">
        <ele>107.4</ele>
        <time>2026-03-30T15:28:56.000Z</time>
      </trkpt>
      <trkpt lat="49.5197" lon="-1.59576">
        <ele>106.1</ele>
        <time>2026-03-30T15:28:57.000Z</time>
      </trkpt>
      <trkpt lat="49.51971" lon="-1.59575">
        <ele>106.3</ele>
        <time>2026-03-30T15:28:58.000Z</time>
      </trkpt>
      <trkpt lat="49.51973" lon="-1.59573">
        <ele>106.3</ele>
        <time>2026-03-30T15:28:59.000Z</time>
      </trkpt>
      <trkpt lat="49.51974" lon="-1.59572">
        <ele>105.7</ele>
        <time>2026-03-30T15:29:00.000Z</time>
      </trkpt>
      <trkpt lat="49.51975" lon="-1.59571">
        <ele>105.1</ele>
        <time>2026-03-30T15:29:01.000Z</time>
      </trkpt>
      <trkpt lat="49.51977" lon="-1.5957">
        <ele>104.8</ele>
        <time>2026-03-30T15:29:02.000Z</time>
      </trkpt>
      <trkpt lat="49.51978" lon="-1.59569">
        <ele>104.6</ele>
        <time>2026-03-30T15:29:03.000Z</time>
      </trkpt>
      <trkpt lat="49.51979" lon="-1.59568">
        <ele>104.9</ele>
        <time>2026-03-30T15:29:04.000Z</time>
      </trkpt>
      <trkpt lat="49.5198" lon="-1.59567">
        <ele>104.2</ele>
        <time>2026-03-30T15:29:05.000Z</time>
      </trkpt>
      <trkpt lat="49.51981" lon="-1.59566">
        <ele>103.3</ele>
        <time>2026-03-30T15:29:06.000Z</time>
      </trkpt>
      <trkpt lat="49.51982" lon="-1.59564">
        <ele>102.4</ele>
        <time>2026-03-30T15:29:07.000Z</time>
      </trkpt>
      <trkpt lat="49.51984" lon="-1.59562">
        <ele>101.7</ele>
        <time>2026-03-30T15:29:08.000Z</time>
      </trkpt>
      <trkpt lat="49.51985" lon="-1.59561">
        <ele>101.4</ele>
        <time>2026-03-30T15:29:09.000Z</time>
      </trkpt>
      <trkpt lat="49.51986" lon="-1.5956">
        <ele>101.1</ele>
        <time>2026-03-30T15:29:10.000Z</time>
      </trkpt>
      <trkpt lat="49.51987" lon="-1.59558">
        <ele>101.1</ele>
        <time>2026-03-30T15:29:11.000Z</time>
      </trkpt>
      <trkpt lat="49.51989" lon="-1.59557">
        <ele>102</ele>
        <time>2026-03-30T15:29:12.000Z</time>
      </trkpt>
      <trkpt lat="49.5199" lon="-1.59555">
        <ele>102.7</ele>
        <time>2026-03-30T15:29:13.000Z</time>
      </trkpt>
      <trkpt lat="49.51991" lon="-1.59554">
        <ele>103.5</ele>
        <time>2026-03-30T15:29:14.000Z</time>
      </trkpt>
      <trkpt lat="49.51992" lon="-1.59552">
        <ele>103.4</ele>
        <time>2026-03-30T15:29:15.000Z</time>
      </trkpt>
      <trkpt lat="49.51993" lon="-1.59551">
        <ele>103.7</ele>
        <time>2026-03-30T15:29:16.000Z</time>
      </trkpt>
      <trkpt lat="49.51994" lon="-1.59549">
        <ele>103.7</ele>
        <time>2026-03-30T15:29:17.000Z</time>
      </trkpt>
      <trkpt lat="49.51995" lon="-1.59547">
        <ele>103.7</ele>
        <time>2026-03-30T15:29:18.000Z</time>
      </trkpt>
      <trkpt lat="49.51996" lon="-1.59546">
        <ele>103.7</ele>
        <time>2026-03-30T15:29:19.000Z</time>
      </trkpt>
      <trkpt lat="49.51997" lon="-1.59544">
        <ele>104.1</ele>
        <time>2026-03-30T15:29:20.000Z</time>
      </trkpt>
      <trkpt lat="49.51998" lon="-1.59542">
        <ele>104.5</ele>
        <time>2026-03-30T15:29:21.000Z</time>
      </trkpt>
      <trkpt lat="49.51999" lon="-1.5954">
        <ele>103.5</ele>
        <time>2026-03-30T15:29:22.000Z</time>
      </trkpt>
      <trkpt lat="49.52" lon="-1.59539">
        <ele>102.9</ele>
        <time>2026-03-30T15:29:23.000Z</time>
      </trkpt>
      <trkpt lat="49.52001" lon="-1.59537">
        <ele>103</ele>
        <time>2026-03-30T15:29:24.000Z</time>
      </trkpt>
      <trkpt lat="49.52001" lon="-1.59536">
        <ele>102.6</ele>
        <time>2026-03-30T15:29:25.000Z</time>
      </trkpt>
      <trkpt lat="49.52002" lon="-1.59534">
        <ele>102.1</ele>
        <time>2026-03-30T15:29:26.000Z</time>
      </trkpt>
      <trkpt lat="49.52003" lon="-1.59533">
        <ele>101.7</ele>
        <time>2026-03-30T15:29:27.000Z</time>
      </trkpt>
      <trkpt lat="49.52005" lon="-1.59531">
        <ele>101.6</ele>
        <time>2026-03-30T15:29:28.000Z</time>
      </trkpt>
      <trkpt lat="49.52006" lon="-1.5953">
        <ele>101.1</ele>
        <time>2026-03-30T15:29:29.000Z</time>
      </trkpt>
      <trkpt lat="49.52007" lon="-1.59529">
        <ele>100.7</ele>
        <time>2026-03-30T15:29:30.000Z</time>
      </trkpt>
      <trkpt lat="49.52008" lon="-1.59528">
        <ele>100.6</ele>
        <time>2026-03-30T15:29:31.000Z</time>
      </trkpt>
      <trkpt lat="49.5201" lon="-1.59526">
        <ele>100.4</ele>
        <time>2026-03-30T15:29:32.000Z</time>
      </trkpt>
      <trkpt lat="49.52011" lon="-1.59525">
        <ele>101.8</ele>
        <time>2026-03-30T15:29:33.000Z</time>
      </trkpt>
      <trkpt lat="49.52012" lon="-1.59523">
        <ele>101.2</ele>
        <time>2026-03-30T15:29:34.000Z</time>
      </trkpt>
      <trkpt lat="49.52013" lon="-1.59522">
        <ele>100.9</ele>
        <time>2026-03-30T15:29:35.000Z</time>
      </trkpt>
      <trkpt lat="49.52014" lon="-1.5952">
        <ele>101.2</ele>
        <time>2026-03-30T15:29:36.000Z</time>
      </trkpt>
      <trkpt lat="49.52015" lon="-1.59518">
        <ele>101.7</ele>
        <time>2026-03-30T15:29:37.000Z</time>
      </trkpt>
      <trkpt lat="49.52016" lon="-1.59516">
        <ele>102.1</ele>
        <time>2026-03-30T15:29:38.000Z</time>
      </trkpt>
      <trkpt lat="49.52017" lon="-1.59514">
        <ele>103.3</ele>
        <time>2026-03-30T15:29:39.000Z</time>
      </trkpt>
      <trkpt lat="49.52018" lon="-1.59512">
        <ele>104.4</ele>
        <time>2026-03-30T15:29:40.000Z</time>
      </trkpt>
      <trkpt lat="49.52019" lon="-1.5951">
        <ele>104</ele>
        <time>2026-03-30T15:29:41.000Z</time>
      </trkpt>
      <trkpt lat="49.5202" lon="-1.59509">
        <ele>104.3</ele>
        <time>2026-03-30T15:29:42.000Z</time>
      </trkpt>
      <trkpt lat="49.52021" lon="-1.59507">
        <ele>104.4</ele>
        <time>2026-03-30T15:29:43.000Z</time>
      </trkpt>
      <trkpt lat="49.52022" lon="-1.59506">
        <ele>104.8</ele>
        <time>2026-03-30T15:29:44.000Z</time>
      </trkpt>
      <trkpt lat="49.52023" lon="-1.59504">
        <ele>105.3</ele>
        <time>2026-03-30T15:29:45.000Z</time>
      </trkpt>
      <trkpt lat="49.52024" lon="-1.59502">
        <ele>105.3</ele>
        <time>2026-03-30T15:29:46.000Z</time>
      </trkpt>
      <trkpt lat="49.52025" lon="-1.595">
        <ele>105.1</ele>
        <time>2026-03-30T15:29:47.000Z</time>
      </trkpt>
      <trkpt lat="49.52026" lon="-1.59499">
        <ele>105.1</ele>
        <time>2026-03-30T15:29:48.000Z</time>
      </trkpt>
      <trkpt lat="49.52027" lon="-1.59497">
        <ele>105.4</ele>
        <time>2026-03-30T15:29:49.000Z</time>
      </trkpt>
      <trkpt lat="49.52028" lon="-1.59496">
        <ele>105.4</ele>
        <time>2026-03-30T15:29:50.000Z</time>
      </trkpt>
      <trkpt lat="49.52029" lon="-1.59494">
        <ele>105.4</ele>
        <time>2026-03-30T15:29:51.000Z</time>
      </trkpt>
      <trkpt lat="49.5203" lon="-1.59493">
        <ele>105.7</ele>
        <time>2026-03-30T15:29:52.000Z</time>
      </trkpt>
      <trkpt lat="49.52031" lon="-1.59491">
        <ele>105.7</ele>
        <time>2026-03-30T15:29:53.000Z</time>
      </trkpt>
      <trkpt lat="49.52032" lon="-1.59489">
        <ele>106.1</ele>
        <time>2026-03-30T15:29:54.000Z</time>
      </trkpt>
      <trkpt lat="49.52033" lon="-1.59488">
        <ele>106.5</ele>
        <time>2026-03-30T15:29:55.000Z</time>
      </trkpt>
      <trkpt lat="49.52035" lon="-1.59487">
        <ele>106</ele>
        <time>2026-03-30T15:29:56.000Z</time>
      </trkpt>
      <trkpt lat="49.52036" lon="-1.59485">
        <ele>105.5</ele>
        <time>2026-03-30T15:29:57.000Z</time>
      </trkpt>
      <trkpt lat="49.52037" lon="-1.59484">
        <ele>105.2</ele>
        <time>2026-03-30T15:29:58.000Z</time>
      </trkpt>
      <trkpt lat="49.52038" lon="-1.59482">
        <ele>104.8</ele>
        <time>2026-03-30T15:29:59.000Z</time>
      </trkpt>
      <trkpt lat="49.52039" lon="-1.59481">
        <ele>103.6</ele>
        <time>2026-03-30T15:30:00.000Z</time>
      </trkpt>
      <trkpt lat="49.52041" lon="-1.59479">
        <ele>103</ele>
        <time>2026-03-30T15:30:01.000Z</time>
      </trkpt>
      <trkpt lat="49.52042" lon="-1.59478">
        <ele>102.4</ele>
        <time>2026-03-30T15:30:02.000Z</time>
      </trkpt>
      <trkpt lat="49.52043" lon="-1.59476">
        <ele>101.4</ele>
        <time>2026-03-30T15:30:03.000Z</time>
      </trkpt>
      <trkpt lat="49.52044" lon="-1.59475">
        <ele>100.6</ele>
        <time>2026-03-30T15:30:04.000Z</time>
      </trkpt>
      <trkpt lat="49.52045" lon="-1.59473">
        <ele>99.4</ele>
        <time>2026-03-30T15:30:05.000Z</time>
      </trkpt>
      <trkpt lat="49.52046" lon="-1.59471">
        <ele>99.1</ele>
        <time>2026-03-30T15:30:06.000Z</time>
      </trkpt>
      <trkpt lat="49.52047" lon="-1.59469">
        <ele>99</ele>
        <time>2026-03-30T15:30:07.000Z</time>
      </trkpt>
      <trkpt lat="49.52048" lon="-1.59468">
        <ele>98.5</ele>
        <time>2026-03-30T15:30:08.000Z</time>
      </trkpt>
      <trkpt lat="49.52049" lon="-1.59466">
        <ele>98.9</ele>
        <time>2026-03-30T15:30:09.000Z</time>
      </trkpt>
      <trkpt lat="49.5205" lon="-1.59463">
        <ele>100.3</ele>
        <time>2026-03-30T15:30:10.000Z</time>
      </trkpt>
      <trkpt lat="49.52051" lon="-1.59461">
        <ele>100.9</ele>
        <time>2026-03-30T15:30:11.000Z</time>
      </trkpt>
      <trkpt lat="49.52053" lon="-1.59459">
        <ele>101.4</ele>
        <time>2026-03-30T15:30:12.000Z</time>
      </trkpt>
      <trkpt lat="49.52054" lon="-1.59457">
        <ele>101.6</ele>
        <time>2026-03-30T15:30:13.000Z</time>
      </trkpt>
      <trkpt lat="49.52055" lon="-1.59455">
        <ele>102.1</ele>
        <time>2026-03-30T15:30:14.000Z</time>
      </trkpt>
      <trkpt lat="49.52057" lon="-1.59453">
        <ele>103.2</ele>
        <time>2026-03-30T15:30:15.000Z</time>
      </trkpt>
      <trkpt lat="49.52058" lon="-1.59452">
        <ele>103.5</ele>
        <time>2026-03-30T15:30:16.000Z</time>
      </trkpt>
      <trkpt lat="49.52059" lon="-1.5945">
        <ele>104.1</ele>
        <time>2026-03-30T15:30:17.000Z</time>
      </trkpt>
      <trkpt lat="49.52059" lon="-1.59448">
        <ele>105.6</ele>
        <time>2026-03-30T15:30:18.000Z</time>
      </trkpt>
      <trkpt lat="49.5206" lon="-1.59446">
        <ele>106</ele>
        <time>2026-03-30T15:30:19.000Z</time>
      </trkpt>
      <trkpt lat="49.5206" lon="-1.59444">
        <ele>106.9</ele>
        <time>2026-03-30T15:30:20.000Z</time>
      </trkpt>
      <trkpt lat="49.5206" lon="-1.59443">
        <ele>108.5</ele>
        <time>2026-03-30T15:30:21.000Z</time>
      </trkpt>
      <trkpt lat="49.52061" lon="-1.59441">
        <ele>110.2</ele>
        <time>2026-03-30T15:30:22.000Z</time>
      </trkpt>
      <trkpt lat="49.52061" lon="-1.59439">
        <ele>111</ele>
        <time>2026-03-30T15:30:23.000Z</time>
      </trkpt>
      <trkpt lat="49.52062" lon="-1.59437">
        <ele>112</ele>
        <time>2026-03-30T15:30:24.000Z</time>
      </trkpt>
      <trkpt lat="49.52062" lon="-1.59435">
        <ele>112.3</ele>
        <time>2026-03-30T15:30:25.000Z</time>
      </trkpt>
      <trkpt lat="49.52063" lon="-1.59434">
        <ele>111.7</ele>
        <time>2026-03-30T15:30:26.000Z</time>
      </trkpt>
      <trkpt lat="49.52064" lon="-1.59432">
        <ele>111.1</ele>
        <time>2026-03-30T15:30:27.000Z</time>
      </trkpt>
      <trkpt lat="49.52065" lon="-1.5943">
        <ele>110</ele>
        <time>2026-03-30T15:30:28.000Z</time>
      </trkpt>
      <trkpt lat="49.52066" lon="-1.59428">
        <ele>109.5</ele>
        <time>2026-03-30T15:30:29.000Z</time>
      </trkpt>
      <trkpt lat="49.52066" lon="-1.59426">
        <ele>108.4</ele>
        <time>2026-03-30T15:30:30.000Z</time>
      </trkpt>
      <trkpt lat="49.52067" lon="-1.59424">
        <ele>107.8</ele>
        <time>2026-03-30T15:30:31.000Z</time>
      </trkpt>
      <trkpt lat="49.52067" lon="-1.59422">
        <ele>107.2</ele>
        <time>2026-03-30T15:30:32.000Z</time>
      </trkpt>
      <trkpt lat="49.52068" lon="-1.59421">
        <ele>107.2</ele>
        <time>2026-03-30T15:30:33.000Z</time>
      </trkpt>
      <trkpt lat="49.52068" lon="-1.59418">
        <ele>107.2</ele>
        <time>2026-03-30T15:30:34.000Z</time>
      </trkpt>
      <trkpt lat="49.5207" lon="-1.59417">
        <ele>105.7</ele>
        <time>2026-03-30T15:30:35.000Z</time>
      </trkpt>
      <trkpt lat="49.5207" lon="-1.59415">
        <ele>105.4</ele>
        <time>2026-03-30T15:30:36.000Z</time>
      </trkpt>
      <trkpt lat="49.52071" lon="-1.59413">
        <ele>105.2</ele>
        <time>2026-03-30T15:30:37.000Z</time>
      </trkpt>
      <trkpt lat="49.52072" lon="-1.59411">
        <ele>104.3</ele>
        <time>2026-03-30T15:30:38.000Z</time>
      </trkpt>
      <trkpt lat="49.52073" lon="-1.5941">
        <ele>103.4</ele>
        <time>2026-03-30T15:30:39.000Z</time>
      </trkpt>
      <trkpt lat="49.52074" lon="-1.59408">
        <ele>102.5</ele>
        <time>2026-03-30T15:30:40.000Z</time>
      </trkpt>
      <trkpt lat="49.52075" lon="-1.59407">
        <ele>101.5</ele>
        <time>2026-03-30T15:30:41.000Z</time>
      </trkpt>
      <trkpt lat="49.52076" lon="-1.59405">
        <ele>101.2</ele>
        <time>2026-03-30T15:30:42.000Z</time>
      </trkpt>
      <trkpt lat="49.52077" lon="-1.59403">
        <ele>101</ele>
        <time>2026-03-30T15:30:43.000Z</time>
      </trkpt>
      <trkpt lat="49.52078" lon="-1.59401">
        <ele>101.2</ele>
        <time>2026-03-30T15:30:44.000Z</time>
      </trkpt>
      <trkpt lat="49.52079" lon="-1.59399">
        <ele>101.4</ele>
        <time>2026-03-30T15:30:45.000Z</time>
      </trkpt>
      <trkpt lat="49.52079" lon="-1.59397">
        <ele>101.6</ele>
        <time>2026-03-30T15:30:46.000Z</time>
      </trkpt>
      <trkpt lat="49.5208" lon="-1.59396">
        <ele>102</ele>
        <time>2026-03-30T15:30:47.000Z</time>
      </trkpt>
      <trkpt lat="49.52081" lon="-1.59394">
        <ele>103.5</ele>
        <time>2026-03-30T15:30:48.000Z</time>
      </trkpt>
      <trkpt lat="49.52081" lon="-1.59393">
        <ele>103.6</ele>
        <time>2026-03-30T15:30:49.000Z</time>
      </trkpt>
      <trkpt lat="49.5208" lon="-1.59392">
        <ele>104.4</ele>
        <time>2026-03-30T15:30:50.000Z</time>
      </trkpt>
      <trkpt lat="49.5208" lon="-1.59392">
        <ele>104.4</ele>
        <time>2026-03-30T15:30:51.000Z</time>
      </trkpt>
      <trkpt lat="49.5208" lon="-1.5939">
        <ele>104.9</ele>
        <time>2026-03-30T15:30:52.000Z</time>
      </trkpt>
      <trkpt lat="49.52081" lon="-1.59388">
        <ele>104.7</ele>
        <time>2026-03-30T15:30:53.000Z</time>
      </trkpt>
      <trkpt lat="49.52081" lon="-1.59386">
        <ele>104.2</ele>
        <time>2026-03-30T15:30:54.000Z</time>
      </trkpt>
      <trkpt lat="49.52082" lon="-1.59384">
        <ele>103.7</ele>
        <time>2026-03-30T15:30:55.000Z</time>
      </trkpt>
      <trkpt lat="49.52083" lon="-1.59382">
        <ele>103.4</ele>
        <time>2026-03-30T15:30:56.000Z</time>
      </trkpt>
      <trkpt lat="49.52083" lon="-1.5938">
        <ele>103.7</ele>
        <time>2026-03-30T15:30:57.000Z</time>
      </trkpt>
      <trkpt lat="49.52084" lon="-1.59378">
        <ele>103.4</ele>
        <time>2026-03-30T15:30:58.000Z</time>
      </trkpt>
      <trkpt lat="49.52085" lon="-1.59376">
        <ele>103.2</ele>
        <time>2026-03-30T15:30:59.000Z</time>
      </trkpt>
      <trkpt lat="49.52085" lon="-1.59375">
        <ele>103.3</ele>
        <time>2026-03-30T15:31:00.000Z</time>
      </trkpt>
      <trkpt lat="49.52086" lon="-1.59373">
        <ele>102.6</ele>
        <time>2026-03-30T15:31:01.000Z</time>
      </trkpt>
      <trkpt lat="49.52087" lon="-1.59371">
        <ele>101.9</ele>
        <time>2026-03-30T15:31:02.000Z</time>
      </trkpt>
      <trkpt lat="49.52087" lon="-1.59369">
        <ele>101.8</ele>
        <time>2026-03-30T15:31:03.000Z</time>
      </trkpt>
      <trkpt lat="49.52087" lon="-1.59366">
        <ele>101.2</ele>
        <time>2026-03-30T15:31:04.000Z</time>
      </trkpt>
      <trkpt lat="49.52088" lon="-1.59364">
        <ele>100.8</ele>
        <time>2026-03-30T15:31:05.000Z</time>
      </trkpt>
      <trkpt lat="49.52088" lon="-1.59362">
        <ele>100.1</ele>
        <time>2026-03-30T15:31:06.000Z</time>
      </trkpt>
      <trkpt lat="49.52089" lon="-1.5936">
        <ele>99.3</ele>
        <time>2026-03-30T15:31:07.000Z</time>
      </trkpt>
      <trkpt lat="49.52089" lon="-1.59358">
        <ele>98.8</ele>
        <time>2026-03-30T15:31:08.000Z</time>
      </trkpt>
      <trkpt lat="49.52089" lon="-1.59356">
        <ele>99.2</ele>
        <time>2026-03-30T15:31:09.000Z</time>
      </trkpt>
      <trkpt lat="49.52089" lon="-1.59354">
        <ele>98.7</ele>
        <time>2026-03-30T15:31:10.000Z</time>
      </trkpt>
      <trkpt lat="49.5209" lon="-1.59352">
        <ele>98.8</ele>
        <time>2026-03-30T15:31:11.000Z</time>
      </trkpt>
      <trkpt lat="49.5209" lon="-1.5935">
        <ele>99.1</ele>
        <time>2026-03-30T15:31:12.000Z</time>
      </trkpt>
      <trkpt lat="49.5209" lon="-1.59348">
        <ele>99.8</ele>
        <time>2026-03-30T15:31:13.000Z</time>
      </trkpt>
      <trkpt lat="49.5209" lon="-1.59346">
        <ele>99.6</ele>
        <time>2026-03-30T15:31:14.000Z</time>
      </trkpt>
      <trkpt lat="49.52091" lon="-1.59344">
        <ele>99.4</ele>
        <time>2026-03-30T15:31:15.000Z</time>
      </trkpt>
      <trkpt lat="49.52091" lon="-1.59341">
        <ele>99.3</ele>
        <time>2026-03-30T15:31:16.000Z</time>
      </trkpt>
      <trkpt lat="49.52091" lon="-1.59339">
        <ele>100.7</ele>
        <time>2026-03-30T15:31:17.000Z</time>
      </trkpt>
      <trkpt lat="49.52091" lon="-1.59336">
        <ele>100.8</ele>
        <time>2026-03-30T15:31:18.000Z</time>
      </trkpt>
      <trkpt lat="49.52091" lon="-1.59334">
        <ele>100.1</ele>
        <time>2026-03-30T15:31:19.000Z</time>
      </trkpt>
      <trkpt lat="49.52092" lon="-1.59331">
        <ele>99.9</ele>
        <time>2026-03-30T15:31:20.000Z</time>
      </trkpt>
      <trkpt lat="49.52092" lon="-1.59329">
        <ele>100.2</ele>
        <time>2026-03-30T15:31:21.000Z</time>
      </trkpt>
      <trkpt lat="49.52092" lon="-1.59327">
        <ele>99.9</ele>
        <time>2026-03-30T15:31:22.000Z</time>
      </trkpt>
      <trkpt lat="49.52092" lon="-1.59324">
        <ele>100</ele>
        <time>2026-03-30T15:31:23.000Z</time>
      </trkpt>
      <trkpt lat="49.52092" lon="-1.59322">
        <ele>99.8</ele>
        <time>2026-03-30T15:31:24.000Z</time>
      </trkpt>
      <trkpt lat="49.52092" lon="-1.5932">
        <ele>99.3</ele>
        <time>2026-03-30T15:31:25.000Z</time>
      </trkpt>
      <trkpt lat="49.52093" lon="-1.59318">
        <ele>99</ele>
        <time>2026-03-30T15:31:26.000Z</time>
      </trkpt>
      <trkpt lat="49.52093" lon="-1.59316">
        <ele>99.1</ele>
        <time>2026-03-30T15:31:27.000Z</time>
      </trkpt>
      <trkpt lat="49.52094" lon="-1.59314">
        <ele>99.9</ele>
        <time>2026-03-30T15:31:28.000Z</time>
      </trkpt>
      <trkpt lat="49.52094" lon="-1.59312">
        <ele>99.7</ele>
        <time>2026-03-30T15:31:29.000Z</time>
      </trkpt>
      <trkpt lat="49.52094" lon="-1.59309">
        <ele>99.6</ele>
        <time>2026-03-30T15:31:30.000Z</time>
      </trkpt>
      <trkpt lat="49.52095" lon="-1.59307">
        <ele>99.7</ele>
        <time>2026-03-30T15:31:31.000Z</time>
      </trkpt>
      <trkpt lat="49.52095" lon="-1.59305">
        <ele>100.4</ele>
        <time>2026-03-30T15:31:32.000Z</time>
      </trkpt>
      <trkpt lat="49.52096" lon="-1.59303">
        <ele>100.3</ele>
        <time>2026-03-30T15:31:33.000Z</time>
      </trkpt>
      <trkpt lat="49.52096" lon="-1.59301">
        <ele>100</ele>
        <time>2026-03-30T15:31:34.000Z</time>
      </trkpt>
      <trkpt lat="49.52096" lon="-1.59299">
        <ele>99.1</ele>
        <time>2026-03-30T15:31:35.000Z</time>
      </trkpt>
      <trkpt lat="49.52096" lon="-1.59297">
        <ele>99.3</ele>
        <time>2026-03-30T15:31:36.000Z</time>
      </trkpt>
      <trkpt lat="49.52096" lon="-1.59295">
        <ele>99</ele>
        <time>2026-03-30T15:31:37.000Z</time>
      </trkpt>
      <trkpt lat="49.52095" lon="-1.59293">
        <ele>98</ele>
        <time>2026-03-30T15:31:38.000Z</time>
      </trkpt>
      <trkpt lat="49.52095" lon="-1.59291">
        <ele>98.3</ele>
        <time>2026-03-30T15:31:39.000Z</time>
      </trkpt>
      <trkpt lat="49.52095" lon="-1.59289">
        <ele>97.7</ele>
        <time>2026-03-30T15:31:40.000Z</time>
      </trkpt>
      <trkpt lat="49.52095" lon="-1.59287">
        <ele>97.1</ele>
        <time>2026-03-30T15:31:41.000Z</time>
      </trkpt>
      <trkpt lat="49.52095" lon="-1.59285">
        <ele>97.6</ele>
        <time>2026-03-30T15:31:42.000Z</time>
      </trkpt>
      <trkpt lat="49.52095" lon="-1.59283">
        <ele>96.5</ele>
        <time>2026-03-30T15:31:43.000Z</time>
      </trkpt>
      <trkpt lat="49.52095" lon="-1.59281">
        <ele>96.8</ele>
        <time>2026-03-30T15:31:44.000Z</time>
      </trkpt>
      <trkpt lat="49.52095" lon="-1.59279">
        <ele>95.9</ele>
        <time>2026-03-30T15:31:45.000Z</time>
      </trkpt>
      <trkpt lat="49.52095" lon="-1.59277">
        <ele>96.1</ele>
        <time>2026-03-30T15:31:46.000Z</time>
      </trkpt>
      <trkpt lat="49.52096" lon="-1.59274">
        <ele>95.8</ele>
        <time>2026-03-30T15:31:47.000Z</time>
      </trkpt>
      <trkpt lat="49.52096" lon="-1.59272">
        <ele>96</ele>
        <time>2026-03-30T15:31:48.000Z</time>
      </trkpt>
      <trkpt lat="49.52097" lon="-1.5927">
        <ele>96.2</ele>
        <time>2026-03-30T15:31:49.000Z</time>
      </trkpt>
      <trkpt lat="49.52098" lon="-1.59268">
        <ele>96.5</ele>
        <time>2026-03-30T15:31:50.000Z</time>
      </trkpt>
      <trkpt lat="49.52099" lon="-1.59267">
        <ele>96.8</ele>
        <time>2026-03-30T15:31:51.000Z</time>
      </trkpt>
      <trkpt lat="49.52101" lon="-1.59266">
        <ele>97.4</ele>
        <time>2026-03-30T15:31:52.000Z</time>
      </trkpt>
      <trkpt lat="49.52103" lon="-1.59266">
        <ele>97.2</ele>
        <time>2026-03-30T15:31:53.000Z</time>
      </trkpt>
      <trkpt lat="49.52105" lon="-1.59267">
        <ele>96.9</ele>
        <time>2026-03-30T15:31:54.000Z</time>
      </trkpt>
      <trkpt lat="49.52106" lon="-1.59268">
        <ele>96.7</ele>
        <time>2026-03-30T15:31:55.000Z</time>
      </trkpt>
      <trkpt lat="49.52108" lon="-1.59268">
        <ele>96.5</ele>
        <time>2026-03-30T15:31:56.000Z</time>
      </trkpt>
      <trkpt lat="49.5211" lon="-1.59269">
        <ele>96.4</ele>
        <time>2026-03-30T15:31:57.000Z</time>
      </trkpt>
      <trkpt lat="49.52111" lon="-1.59269">
        <ele>96.3</ele>
        <time>2026-03-30T15:31:58.000Z</time>
      </trkpt>
      <trkpt lat="49.52113" lon="-1.5927">
        <ele>96.2</ele>
        <time>2026-03-30T15:31:59.000Z</time>
      </trkpt>
      <trkpt lat="49.52114" lon="-1.59271">
        <ele>96.3</ele>
        <time>2026-03-30T15:32:00.000Z</time>
      </trkpt>
      <trkpt lat="49.52116" lon="-1.59272">
        <ele>96.2</ele>
        <time>2026-03-30T15:32:01.000Z</time>
      </trkpt>
      <trkpt lat="49.52117" lon="-1.59272">
        <ele>96.1</ele>
        <time>2026-03-30T15:32:02.000Z</time>
      </trkpt>
      <trkpt lat="49.52119" lon="-1.59272">
        <ele>96.6</ele>
        <time>2026-03-30T15:32:03.000Z</time>
      </trkpt>
      <trkpt lat="49.52119" lon="-1.59271">
        <ele>96.9</ele>
        <time>2026-03-30T15:32:04.000Z</time>
      </trkpt>
      <trkpt lat="49.52118" lon="-1.5927">
        <ele>97.2</ele>
        <time>2026-03-30T15:32:05.000Z</time>
      </trkpt>
      <trkpt lat="49.52117" lon="-1.59271">
        <ele>97.1</ele>
        <time>2026-03-30T15:32:06.000Z</time>
      </trkpt>
      <trkpt lat="49.52116" lon="-1.59272">
        <ele>97.1</ele>
        <time>2026-03-30T15:32:07.000Z</time>
      </trkpt>
      <trkpt lat="49.52116" lon="-1.59272">
        <ele>97.1</ele>
        <time>2026-03-30T15:32:08.000Z</time>
      </trkpt>
      <trkpt lat="49.52116" lon="-1.59272">
        <ele>97.1</ele>
        <time>2026-03-30T15:32:09.000Z</time>
      </trkpt>
      <trkpt lat="49.52116" lon="-1.59272">
        <ele>97.1</ele>
        <time>2026-03-30T15:32:10.000Z</time>
      </trkpt>
      <trkpt lat="49.52116" lon="-1.59272">
        <ele>97.1</ele>
        <time>2026-03-30T15:32:11.000Z</time>
      </trkpt>
      <trkpt lat="49.52116" lon="-1.59272">
        <ele>97.1</ele>
        <time>2026-03-30T15:32:12.000Z</time>
      </trkpt>
      <trkpt lat="49.52116" lon="-1.5927">
        <ele>97.2</ele>
        <time>2026-03-30T15:32:13.000Z</time>
      </trkpt>
      <trkpt lat="49.52116" lon="-1.59268">
        <ele>97.4</ele>
        <time>2026-03-30T15:32:14.000Z</time>
      </trkpt>
      <trkpt lat="49.52115" lon="-1.59264">
        <ele>97.2</ele>
        <time>2026-03-30T15:32:15.000Z</time>
      </trkpt>
      <trkpt lat="49.52114" lon="-1.5926">
        <ele>96.9</ele>
        <time>2026-03-30T15:32:16.000Z</time>
      </trkpt>
      <trkpt lat="49.52112" lon="-1.59257">
        <ele>96</ele>
        <time>2026-03-30T15:32:17.000Z</time>
      </trkpt>
      <trkpt lat="49.52111" lon="-1.59254">
        <ele>95.5</ele>
        <time>2026-03-30T15:32:18.000Z</time>
      </trkpt>
      <trkpt lat="49.5211" lon="-1.59252">
        <ele>96.1</ele>
        <time>2026-03-30T15:32:19.000Z</time>
      </trkpt>
      <trkpt lat="49.5211" lon="-1.59251">
        <ele>95.7</ele>
        <time>2026-03-30T15:32:20.000Z</time>
      </trkpt>
      <trkpt lat="49.5211" lon="-1.59249">
        <ele>95.5</ele>
        <time>2026-03-30T15:32:21.000Z</time>
      </trkpt>
      <trkpt lat="49.52109" lon="-1.59248">
        <ele>94.9</ele>
        <time>2026-03-30T15:32:22.000Z</time>
      </trkpt>
      <trkpt lat="49.52108" lon="-1.59248">
        <ele>94.6</ele>
        <time>2026-03-30T15:32:23.000Z</time>
      </trkpt>
      <trkpt lat="49.52107" lon="-1.59247">
        <ele>94.3</ele>
        <time>2026-03-30T15:32:24.000Z</time>
      </trkpt>
      <trkpt lat="49.52106" lon="-1.59247">
        <ele>93.9</ele>
        <time>2026-03-30T15:32:25.000Z</time>
      </trkpt>
      <trkpt lat="49.52105" lon="-1.59245">
        <ele>93.6</ele>
        <time>2026-03-30T15:32:26.000Z</time>
      </trkpt>
      <trkpt lat="49.52104" lon="-1.59244">
        <ele>93</ele>
        <time>2026-03-30T15:32:27.000Z</time>
      </trkpt>
      <trkpt lat="49.52103" lon="-1.59243">
        <ele>92.9</ele>
        <time>2026-03-30T15:32:28.000Z</time>
      </trkpt>
      <trkpt lat="49.52102" lon="-1.59241">
        <ele>93.4</ele>
        <time>2026-03-30T15:32:29.000Z</time>
      </trkpt>
      <trkpt lat="49.52101" lon="-1.5924">
        <ele>93.3</ele>
        <time>2026-03-30T15:32:30.000Z</time>
      </trkpt>
      <trkpt lat="49.52101" lon="-1.59238">
        <ele>93.1</ele>
        <time>2026-03-30T15:32:31.000Z</time>
      </trkpt>
      <trkpt lat="49.52099" lon="-1.59236">
        <ele>94.4</ele>
        <time>2026-03-30T15:32:32.000Z</time>
      </trkpt>
      <trkpt lat="49.52098" lon="-1.59234">
        <ele>93.9</ele>
        <time>2026-03-30T15:32:33.000Z</time>
      </trkpt>
      <trkpt lat="49.52097" lon="-1.59232">
        <ele>94.3</ele>
        <time>2026-03-30T15:32:34.000Z</time>
      </trkpt>
      <trkpt lat="49.52096" lon="-1.59231">
        <ele>94</ele>
        <time>2026-03-30T15:32:35.000Z</time>
      </trkpt>
      <trkpt lat="49.52095" lon="-1.59229">
        <ele>93.6</ele>
        <time>2026-03-30T15:32:36.000Z</time>
      </trkpt>
      <trkpt lat="49.52094" lon="-1.59227">
        <ele>92.2</ele>
        <time>2026-03-30T15:32:37.000Z</time>
      </trkpt>
      <trkpt lat="49.52094" lon="-1.59225">
        <ele>92.2</ele>
        <time>2026-03-30T15:32:38.000Z</time>
      </trkpt>
      <trkpt lat="49.52093" lon="-1.59223">
        <ele>92.6</ele>
        <time>2026-03-30T15:32:39.000Z</time>
      </trkpt>
      <trkpt lat="49.52093" lon="-1.59221">
        <ele>92.7</ele>
        <time>2026-03-30T15:32:40.000Z</time>
      </trkpt>
      <trkpt lat="49.52092" lon="-1.59219">
        <ele>92.7</ele>
        <time>2026-03-30T15:32:41.000Z</time>
      </trkpt>
      <trkpt lat="49.52091" lon="-1.59218">
        <ele>92.9</ele>
        <time>2026-03-30T15:32:42.000Z</time>
      </trkpt>
      <trkpt lat="49.52091" lon="-1.59216">
        <ele>93.3</ele>
        <time>2026-03-30T15:32:43.000Z</time>
      </trkpt>
      <trkpt lat="49.52091" lon="-1.59214">
        <ele>93.4</ele>
        <time>2026-03-30T15:32:44.000Z</time>
      </trkpt>
      <trkpt lat="49.52091" lon="-1.59212">
        <ele>93.9</ele>
        <time>2026-03-30T15:32:45.000Z</time>
      </trkpt>
      <trkpt lat="49.52091" lon="-1.5921">
        <ele>93.4</ele>
        <time>2026-03-30T15:32:46.000Z</time>
      </trkpt>
      <trkpt lat="49.52091" lon="-1.59208">
        <ele>92.8</ele>
        <time>2026-03-30T15:32:47.000Z</time>
      </trkpt>
      <trkpt lat="49.52091" lon="-1.59206">
        <ele>92.2</ele>
        <time>2026-03-30T15:32:48.000Z</time>
      </trkpt>
      <trkpt lat="49.52092" lon="-1.59204">
        <ele>91.9</ele>
        <time>2026-03-30T15:32:49.000Z</time>
      </trkpt>
      <trkpt lat="49.52092" lon="-1.59202">
        <ele>92</ele>
        <time>2026-03-30T15:32:50.000Z</time>
      </trkpt>
      <trkpt lat="49.52093" lon="-1.59199">
        <ele>91.7</ele>
        <time>2026-03-30T15:32:51.000Z</time>
      </trkpt>
      <trkpt lat="49.52093" lon="-1.59198">
        <ele>90.5</ele>
        <time>2026-03-30T15:32:52.000Z</time>
      </trkpt>
      <trkpt lat="49.52095" lon="-1.59196">
        <ele>90</ele>
        <time>2026-03-30T15:32:53.000Z</time>
      </trkpt>
      <trkpt lat="49.52096" lon="-1.59195">
        <ele>89.8</ele>
        <time>2026-03-30T15:32:54.000Z</time>
      </trkpt>
      <trkpt lat="49.52097" lon="-1.59193">
        <ele>89.8</ele>
        <time>2026-03-30T15:32:55.000Z</time>
      </trkpt>
      <trkpt lat="49.52097" lon="-1.59192">
        <ele>89.5</ele>
        <time>2026-03-30T15:32:56.000Z</time>
      </trkpt>
      <trkpt lat="49.52099" lon="-1.59191">
        <ele>89.2</ele>
        <time>2026-03-30T15:32:57.000Z</time>
      </trkpt>
      <trkpt lat="49.521" lon="-1.5919">
        <ele>88.7</ele>
        <time>2026-03-30T15:32:58.000Z</time>
      </trkpt>
      <trkpt lat="49.52101" lon="-1.59189">
        <ele>89.1</ele>
        <time>2026-03-30T15:32:59.000Z</time>
      </trkpt>
      <trkpt lat="49.52102" lon="-1.59187">
        <ele>89.6</ele>
        <time>2026-03-30T15:33:00.000Z</time>
      </trkpt>
      <trkpt lat="49.52104" lon="-1.59185">
        <ele>89.8</ele>
        <time>2026-03-30T15:33:01.000Z</time>
      </trkpt>
      <trkpt lat="49.52105" lon="-1.59185">
        <ele>89.2</ele>
        <time>2026-03-30T15:33:02.000Z</time>
      </trkpt>
      <trkpt lat="49.52107" lon="-1.59184">
        <ele>89</ele>
        <time>2026-03-30T15:33:03.000Z</time>
      </trkpt>
      <trkpt lat="49.52109" lon="-1.59183">
        <ele>88.7</ele>
        <time>2026-03-30T15:33:04.000Z</time>
      </trkpt>
      <trkpt lat="49.5211" lon="-1.59182">
        <ele>88.1</ele>
        <time>2026-03-30T15:33:05.000Z</time>
      </trkpt>
      <trkpt lat="49.52112" lon="-1.59181">
        <ele>87.7</ele>
        <time>2026-03-30T15:33:06.000Z</time>
      </trkpt>
      <trkpt lat="49.52113" lon="-1.5918">
        <ele>87.6</ele>
        <time>2026-03-30T15:33:07.000Z</time>
      </trkpt>
      <trkpt lat="49.52115" lon="-1.59179">
        <ele>87.5</ele>
        <time>2026-03-30T15:33:08.000Z</time>
      </trkpt>
      <trkpt lat="49.52117" lon="-1.59178">
        <ele>87.4</ele>
        <time>2026-03-30T15:33:09.000Z</time>
      </trkpt>
      <trkpt lat="49.52118" lon="-1.59178">
        <ele>87.8</ele>
        <time>2026-03-30T15:33:10.000Z</time>
      </trkpt>
      <trkpt lat="49.5212" lon="-1.59176">
        <ele>88.5</ele>
        <time>2026-03-30T15:33:11.000Z</time>
      </trkpt>
      <trkpt lat="49.52121" lon="-1.59175">
        <ele>88.7</ele>
        <time>2026-03-30T15:33:12.000Z</time>
      </trkpt>
      <trkpt lat="49.52123" lon="-1.59174">
        <ele>88.8</ele>
        <time>2026-03-30T15:33:13.000Z</time>
      </trkpt>
      <trkpt lat="49.52124" lon="-1.59173">
        <ele>89.4</ele>
        <time>2026-03-30T15:33:14.000Z</time>
      </trkpt>
      <trkpt lat="49.52125" lon="-1.59172">
        <ele>89.6</ele>
        <time>2026-03-30T15:33:15.000Z</time>
      </trkpt>
      <trkpt lat="49.52127" lon="-1.59171">
        <ele>89.3</ele>
        <time>2026-03-30T15:33:16.000Z</time>
      </trkpt>
      <trkpt lat="49.52128" lon="-1.5917">
        <ele>89</ele>
        <time>2026-03-30T15:33:17.000Z</time>
      </trkpt>
      <trkpt lat="49.5213" lon="-1.59169">
        <ele>88.4</ele>
        <time>2026-03-30T15:33:18.000Z</time>
      </trkpt>
      <trkpt lat="49.52131" lon="-1.59168">
        <ele>88.1</ele>
        <time>2026-03-30T15:33:19.000Z</time>
      </trkpt>
      <trkpt lat="49.52133" lon="-1.59167">
        <ele>88.1</ele>
        <time>2026-03-30T15:33:20.000Z</time>
      </trkpt>
      <trkpt lat="49.52134" lon="-1.59166">
        <ele>87.7</ele>
        <time>2026-03-30T15:33:21.000Z</time>
      </trkpt>
      <trkpt lat="49.52136" lon="-1.59165">
        <ele>87.5</ele>
        <time>2026-03-30T15:33:22.000Z</time>
      </trkpt>
      <trkpt lat="49.52138" lon="-1.59164">
        <ele>87.6</ele>
        <time>2026-03-30T15:33:23.000Z</time>
      </trkpt>
      <trkpt lat="49.52139" lon="-1.59163">
        <ele>87</ele>
        <time>2026-03-30T15:33:24.000Z</time>
      </trkpt>
      <trkpt lat="49.5214" lon="-1.59162">
        <ele>87.2</ele>
        <time>2026-03-30T15:33:25.000Z</time>
      </trkpt>
      <trkpt lat="49.52142" lon="-1.59161">
        <ele>88</ele>
        <time>2026-03-30T15:33:26.000Z</time>
      </trkpt>
      <trkpt lat="49.52143" lon="-1.5916">
        <ele>88.1</ele>
        <time>2026-03-30T15:33:27.000Z</time>
      </trkpt>
      <trkpt lat="49.52144" lon="-1.59159">
        <ele>88.2</ele>
        <time>2026-03-30T15:33:28.000Z</time>
      </trkpt>
      <trkpt lat="49.52146" lon="-1.59159">
        <ele>88.1</ele>
        <time>2026-03-30T15:33:29.000Z</time>
      </trkpt>
      <trkpt lat="49.52147" lon="-1.59157">
        <ele>88.2</ele>
        <time>2026-03-30T15:33:30.000Z</time>
      </trkpt>
      <trkpt lat="49.52148" lon="-1.59156">
        <ele>88</ele>
        <time>2026-03-30T15:33:31.000Z</time>
      </trkpt>
      <trkpt lat="49.52149" lon="-1.59155">
        <ele>88.1</ele>
        <time>2026-03-30T15:33:32.000Z</time>
      </trkpt>
      <trkpt lat="49.52151" lon="-1.59155">
        <ele>87.6</ele>
        <time>2026-03-30T15:33:33.000Z</time>
      </trkpt>
      <trkpt lat="49.52152" lon="-1.59154">
        <ele>87.3</ele>
        <time>2026-03-30T15:33:34.000Z</time>
      </trkpt>
      <trkpt lat="49.52153" lon="-1.59154">
        <ele>87.1</ele>
        <time>2026-03-30T15:33:35.000Z</time>
      </trkpt>
      <trkpt lat="49.52155" lon="-1.59153">
        <ele>87.8</ele>
        <time>2026-03-30T15:33:36.000Z</time>
      </trkpt>
      <trkpt lat="49.52156" lon="-1.59152">
        <ele>87.8</ele>
        <time>2026-03-30T15:33:37.000Z</time>
      </trkpt>
      <trkpt lat="49.52157" lon="-1.59152">
        <ele>87.9</ele>
        <time>2026-03-30T15:33:38.000Z</time>
      </trkpt>
      <trkpt lat="49.52159" lon="-1.59151">
        <ele>87.8</ele>
        <time>2026-03-30T15:33:39.000Z</time>
      </trkpt>
      <trkpt lat="49.5216" lon="-1.5915">
        <ele>87.8</ele>
        <time>2026-03-30T15:33:40.000Z</time>
      </trkpt>
      <trkpt lat="49.52161" lon="-1.59149">
        <ele>87.4</ele>
        <time>2026-03-30T15:33:41.000Z</time>
      </trkpt>
      <trkpt lat="49.52162" lon="-1.59148">
        <ele>87.5</ele>
        <time>2026-03-30T15:33:42.000Z</time>
      </trkpt>
      <trkpt lat="49.52164" lon="-1.59147">
        <ele>87.4</ele>
        <time>2026-03-30T15:33:43.000Z</time>
      </trkpt>
      <trkpt lat="49.52165" lon="-1.59146">
        <ele>87.8</ele>
        <time>2026-03-30T15:33:44.000Z</time>
      </trkpt>
      <trkpt lat="49.52166" lon="-1.59145">
        <ele>88</ele>
        <time>2026-03-30T15:33:45.000Z</time>
      </trkpt>
      <trkpt lat="49.52168" lon="-1.59144">
        <ele>87.8</ele>
        <time>2026-03-30T15:33:46.000Z</time>
      </trkpt>
      <trkpt lat="49.52169" lon="-1.59143">
        <ele>88.3</ele>
        <time>2026-03-30T15:33:47.000Z</time>
      </trkpt>
      <trkpt lat="49.52171" lon="-1.59143">
        <ele>88.7</ele>
        <time>2026-03-30T15:33:48.000Z</time>
      </trkpt>
      <trkpt lat="49.52172" lon="-1.59142">
        <ele>88.4</ele>
        <time>2026-03-30T15:33:49.000Z</time>
      </trkpt>
      <trkpt lat="49.52173" lon="-1.59141">
        <ele>88.6</ele>
        <time>2026-03-30T15:33:50.000Z</time>
      </trkpt>
      <trkpt lat="49.52175" lon="-1.5914">
        <ele>89</ele>
        <time>2026-03-30T15:33:51.000Z</time>
      </trkpt>
      <trkpt lat="49.52176" lon="-1.59139">
        <ele>89.9</ele>
        <time>2026-03-30T15:33:52.000Z</time>
      </trkpt>
      <trkpt lat="49.52178" lon="-1.59138">
        <ele>90.5</ele>
        <time>2026-03-30T15:33:53.000Z</time>
      </trkpt>
      <trkpt lat="49.52179" lon="-1.59137">
        <ele>90.3</ele>
        <time>2026-03-30T15:33:54.000Z</time>
      </trkpt>
      <trkpt lat="49.52181" lon="-1.59136">
        <ele>89.5</ele>
        <time>2026-03-30T15:33:55.000Z</time>
      </trkpt>
      <trkpt lat="49.52182" lon="-1.59136">
        <ele>89.5</ele>
        <time>2026-03-30T15:33:56.000Z</time>
      </trkpt>
      <trkpt lat="49.52183" lon="-1.59136">
        <ele>89.5</ele>
        <time>2026-03-30T15:33:57.000Z</time>
      </trkpt>
      <trkpt lat="49.52185" lon="-1.59135">
        <ele>89.3</ele>
        <time>2026-03-30T15:33:58.000Z</time>
      </trkpt>
      <trkpt lat="49.52186" lon="-1.59134">
        <ele>89.3</ele>
        <time>2026-03-30T15:33:59.000Z</time>
      </trkpt>
      <trkpt lat="49.52188" lon="-1.59133">
        <ele>89.1</ele>
        <time>2026-03-30T15:34:00.000Z</time>
      </trkpt>
      <trkpt lat="49.52189" lon="-1.59133">
        <ele>89.3</ele>
        <time>2026-03-30T15:34:01.000Z</time>
      </trkpt>
      <trkpt lat="49.52191" lon="-1.59132">
        <ele>89.2</ele>
        <time>2026-03-30T15:34:02.000Z</time>
      </trkpt>
      <trkpt lat="49.52192" lon="-1.59131">
        <ele>89</ele>
        <time>2026-03-30T15:34:03.000Z</time>
      </trkpt>
      <trkpt lat="49.52194" lon="-1.5913">
        <ele>88.9</ele>
        <time>2026-03-30T15:34:04.000Z</time>
      </trkpt>
      <trkpt lat="49.52195" lon="-1.59129">
        <ele>89.1</ele>
        <time>2026-03-30T15:34:05.000Z</time>
      </trkpt>
      <trkpt lat="49.52197" lon="-1.59129">
        <ele>89</ele>
        <time>2026-03-30T15:34:06.000Z</time>
      </trkpt>
      <trkpt lat="49.52198" lon="-1.59128">
        <ele>89</ele>
        <time>2026-03-30T15:34:07.000Z</time>
      </trkpt>
      <trkpt lat="49.522" lon="-1.59127">
        <ele>89.3</ele>
        <time>2026-03-30T15:34:08.000Z</time>
      </trkpt>
      <trkpt lat="49.52201" lon="-1.59126">
        <ele>88.7</ele>
        <time>2026-03-30T15:34:09.000Z</time>
      </trkpt>
      <trkpt lat="49.52203" lon="-1.59125">
        <ele>88.4</ele>
        <time>2026-03-30T15:34:10.000Z</time>
      </trkpt>
      <trkpt lat="49.52204" lon="-1.59125">
        <ele>88.5</ele>
        <time>2026-03-30T15:34:11.000Z</time>
      </trkpt>
      <trkpt lat="49.52205" lon="-1.59124">
        <ele>88.3</ele>
        <time>2026-03-30T15:34:12.000Z</time>
      </trkpt>
      <trkpt lat="49.52206" lon="-1.59122">
        <ele>88</ele>
        <time>2026-03-30T15:34:13.000Z</time>
      </trkpt>
      <trkpt lat="49.52208" lon="-1.59122">
        <ele>88.1</ele>
        <time>2026-03-30T15:34:14.000Z</time>
      </trkpt>
      <trkpt lat="49.52209" lon="-1.59121">
        <ele>88.3</ele>
        <time>2026-03-30T15:34:15.000Z</time>
      </trkpt>
      <trkpt lat="49.52211" lon="-1.5912">
        <ele>88.8</ele>
        <time>2026-03-30T15:34:16.000Z</time>
      </trkpt>
      <trkpt lat="49.52212" lon="-1.5912">
        <ele>88.5</ele>
        <time>2026-03-30T15:34:17.000Z</time>
      </trkpt>
      <trkpt lat="49.52214" lon="-1.59119">
        <ele>87.9</ele>
        <time>2026-03-30T15:34:18.000Z</time>
      </trkpt>
      <trkpt lat="49.52216" lon="-1.59119">
        <ele>88.1</ele>
        <time>2026-03-30T15:34:19.000Z</time>
      </trkpt>
      <trkpt lat="49.52217" lon="-1.59118">
        <ele>88.3</ele>
        <time>2026-03-30T15:34:20.000Z</time>
      </trkpt>
      <trkpt lat="49.52219" lon="-1.59117">
        <ele>88.2</ele>
        <time>2026-03-30T15:34:21.000Z</time>
      </trkpt>
      <trkpt lat="49.5222" lon="-1.59116">
        <ele>87.5</ele>
        <time>2026-03-30T15:34:22.000Z</time>
      </trkpt>
      <trkpt lat="49.52221" lon="-1.59115">
        <ele>87.4</ele>
        <time>2026-03-30T15:34:23.000Z</time>
      </trkpt>
      <trkpt lat="49.52223" lon="-1.59114">
        <ele>88.2</ele>
        <time>2026-03-30T15:34:24.000Z</time>
      </trkpt>
      <trkpt lat="49.52224" lon="-1.59113">
        <ele>88</ele>
        <time>2026-03-30T15:34:25.000Z</time>
      </trkpt>
      <trkpt lat="49.52226" lon="-1.59113">
        <ele>88.1</ele>
        <time>2026-03-30T15:34:26.000Z</time>
      </trkpt>
      <trkpt lat="49.52227" lon="-1.59112">
        <ele>87.8</ele>
        <time>2026-03-30T15:34:27.000Z</time>
      </trkpt>
      <trkpt lat="49.52229" lon="-1.59111">
        <ele>87.8</ele>
        <time>2026-03-30T15:34:28.000Z</time>
      </trkpt>
      <trkpt lat="49.52231" lon="-1.5911">
        <ele>87.8</ele>
        <time>2026-03-30T15:34:29.000Z</time>
      </trkpt>
      <trkpt lat="49.52232" lon="-1.59109">
        <ele>87.7</ele>
        <time>2026-03-30T15:34:30.000Z</time>
      </trkpt>
      <trkpt lat="49.52233" lon="-1.59109">
        <ele>87.4</ele>
        <time>2026-03-30T15:34:31.000Z</time>
      </trkpt>
      <trkpt lat="49.52235" lon="-1.59108">
        <ele>86.8</ele>
        <time>2026-03-30T15:34:32.000Z</time>
      </trkpt>
      <trkpt lat="49.52236" lon="-1.59108">
        <ele>86.4</ele>
        <time>2026-03-30T15:34:33.000Z</time>
      </trkpt>
      <trkpt lat="49.52238" lon="-1.59107">
        <ele>86.3</ele>
        <time>2026-03-30T15:34:34.000Z</time>
      </trkpt>
      <trkpt lat="49.52239" lon="-1.59106">
        <ele>86.3</ele>
        <time>2026-03-30T15:34:35.000Z</time>
      </trkpt>
      <trkpt lat="49.52241" lon="-1.59105">
        <ele>85.8</ele>
        <time>2026-03-30T15:34:36.000Z</time>
      </trkpt>
      <trkpt lat="49.52242" lon="-1.59105">
        <ele>85.7</ele>
        <time>2026-03-30T15:34:37.000Z</time>
      </trkpt>
      <trkpt lat="49.52244" lon="-1.59104">
        <ele>85.3</ele>
        <time>2026-03-30T15:34:38.000Z</time>
      </trkpt>
      <trkpt lat="49.52245" lon="-1.59104">
        <ele>85.1</ele>
        <time>2026-03-30T15:34:39.000Z</time>
      </trkpt>
      <trkpt lat="49.52247" lon="-1.59103">
        <ele>85.5</ele>
        <time>2026-03-30T15:34:40.000Z</time>
      </trkpt>
      <trkpt lat="49.52248" lon="-1.59103">
        <ele>85.9</ele>
        <time>2026-03-30T15:34:41.000Z</time>
      </trkpt>
      <trkpt lat="49.5225" lon="-1.59102">
        <ele>85.8</ele>
        <time>2026-03-30T15:34:42.000Z</time>
      </trkpt>
      <trkpt lat="49.52251" lon="-1.59101">
        <ele>86</ele>
        <time>2026-03-30T15:34:43.000Z</time>
      </trkpt>
      <trkpt lat="49.52253" lon="-1.591">
        <ele>85.9</ele>
        <time>2026-03-30T15:34:44.000Z</time>
      </trkpt>
      <trkpt lat="49.52254" lon="-1.591">
        <ele>85.7</ele>
        <time>2026-03-30T15:34:45.000Z</time>
      </trkpt>
      <trkpt lat="49.52256" lon="-1.59099">
        <ele>85.5</ele>
        <time>2026-03-30T15:34:46.000Z</time>
      </trkpt>
      <trkpt lat="49.52257" lon="-1.59099">
        <ele>85.8</ele>
        <time>2026-03-30T15:34:47.000Z</time>
      </trkpt>
      <trkpt lat="49.52259" lon="-1.59099">
        <ele>85.3</ele>
        <time>2026-03-30T15:34:48.000Z</time>
      </trkpt>
      <trkpt lat="49.5226" lon="-1.59098">
        <ele>85.2</ele>
        <time>2026-03-30T15:34:49.000Z</time>
      </trkpt>
      <trkpt lat="49.52262" lon="-1.59098">
        <ele>86.6</ele>
        <time>2026-03-30T15:34:50.000Z</time>
      </trkpt>
      <trkpt lat="49.52263" lon="-1.59098">
        <ele>85.9</ele>
        <time>2026-03-30T15:34:51.000Z</time>
      </trkpt>
      <trkpt lat="49.52264" lon="-1.59097">
        <ele>85.6</ele>
        <time>2026-03-30T15:34:52.000Z</time>
      </trkpt>
      <trkpt lat="49.52266" lon="-1.59097">
        <ele>85.3</ele>
        <time>2026-03-30T15:34:53.000Z</time>
      </trkpt>
      <trkpt lat="49.52267" lon="-1.59096">
        <ele>85.1</ele>
        <time>2026-03-30T15:34:54.000Z</time>
      </trkpt>
      <trkpt lat="49.52269" lon="-1.59096">
        <ele>85.7</ele>
        <time>2026-03-30T15:34:55.000Z</time>
      </trkpt>
      <trkpt lat="49.5227" lon="-1.59095">
        <ele>85.8</ele>
        <time>2026-03-30T15:34:56.000Z</time>
      </trkpt>
      <trkpt lat="49.52271" lon="-1.59095">
        <ele>86</ele>
        <time>2026-03-30T15:34:57.000Z</time>
      </trkpt>
      <trkpt lat="49.52273" lon="-1.59094">
        <ele>86.5</ele>
        <time>2026-03-30T15:34:58.000Z</time>
      </trkpt>
      <trkpt lat="49.52274" lon="-1.59094">
        <ele>86.5</ele>
        <time>2026-03-30T15:34:59.000Z</time>
      </trkpt>
      <trkpt lat="49.52276" lon="-1.59094">
        <ele>86.7</ele>
        <time>2026-03-30T15:35:00.000Z</time>
      </trkpt>
      <trkpt lat="49.52277" lon="-1.59093">
        <ele>86.8</ele>
        <time>2026-03-30T15:35:01.000Z</time>
      </trkpt>
      <trkpt lat="49.52278" lon="-1.59093">
        <ele>86.9</ele>
        <time>2026-03-30T15:35:02.000Z</time>
      </trkpt>
      <trkpt lat="49.5228" lon="-1.59093">
        <ele>87</ele>
        <time>2026-03-30T15:35:03.000Z</time>
      </trkpt>
      <trkpt lat="49.52281" lon="-1.59093">
        <ele>86.8</ele>
        <time>2026-03-30T15:35:04.000Z</time>
      </trkpt>
      <trkpt lat="49.52282" lon="-1.59093">
        <ele>86.8</ele>
        <time>2026-03-30T15:35:05.000Z</time>
      </trkpt>
      <trkpt lat="49.52283" lon="-1.59093">
        <ele>86.7</ele>
        <time>2026-03-30T15:35:06.000Z</time>
      </trkpt>
      <trkpt lat="49.52285" lon="-1.59094">
        <ele>87.1</ele>
        <time>2026-03-30T15:35:07.000Z</time>
      </trkpt>
      <trkpt lat="49.52286" lon="-1.59094">
        <ele>87.1</ele>
        <time>2026-03-30T15:35:08.000Z</time>
      </trkpt>
      <trkpt lat="49.52287" lon="-1.59095">
        <ele>87.3</ele>
        <time>2026-03-30T15:35:09.000Z</time>
      </trkpt>
      <trkpt lat="49.52289" lon="-1.59096">
        <ele>87.6</ele>
        <time>2026-03-30T15:35:10.000Z</time>
      </trkpt>
      <trkpt lat="49.5229" lon="-1.59096">
        <ele>87.7</ele>
        <time>2026-03-30T15:35:11.000Z</time>
      </trkpt>
      <trkpt lat="49.52291" lon="-1.59097">
        <ele>87.8</ele>
        <time>2026-03-30T15:35:12.000Z</time>
      </trkpt>
      <trkpt lat="49.52293" lon="-1.59097">
        <ele>87.8</ele>
        <time>2026-03-30T15:35:13.000Z</time>
      </trkpt>
      <trkpt lat="49.52294" lon="-1.59098">
        <ele>88.3</ele>
        <time>2026-03-30T15:35:14.000Z</time>
      </trkpt>
      <trkpt lat="49.52295" lon="-1.59098">
        <ele>87.8</ele>
        <time>2026-03-30T15:35:15.000Z</time>
      </trkpt>
      <trkpt lat="49.52297" lon="-1.59099">
        <ele>88.2</ele>
        <time>2026-03-30T15:35:16.000Z</time>
      </trkpt>
      <trkpt lat="49.52298" lon="-1.59099">
        <ele>88.6</ele>
        <time>2026-03-30T15:35:17.000Z</time>
      </trkpt>
      <trkpt lat="49.52299" lon="-1.59099">
        <ele>88.7</ele>
        <time>2026-03-30T15:35:18.000Z</time>
      </trkpt>
      <trkpt lat="49.52301" lon="-1.591">
        <ele>88.1</ele>
        <time>2026-03-30T15:35:19.000Z</time>
      </trkpt>
      <trkpt lat="49.52302" lon="-1.591">
        <ele>87.6</ele>
        <time>2026-03-30T15:35:20.000Z</time>
      </trkpt>
      <trkpt lat="49.52304" lon="-1.591">
        <ele>87.4</ele>
        <time>2026-03-30T15:35:21.000Z</time>
      </trkpt>
      <trkpt lat="49.52305" lon="-1.591">
        <ele>87.8</ele>
        <time>2026-03-30T15:35:22.000Z</time>
      </trkpt>
      <trkpt lat="49.52307" lon="-1.59099">
        <ele>88</ele>
        <time>2026-03-30T15:35:23.000Z</time>
      </trkpt>
      <trkpt lat="49.52308" lon="-1.59099">
        <ele>87.7</ele>
        <time>2026-03-30T15:35:24.000Z</time>
      </trkpt>
      <trkpt lat="49.5231" lon="-1.59098">
        <ele>88</ele>
        <time>2026-03-30T15:35:25.000Z</time>
      </trkpt>
      <trkpt lat="49.52311" lon="-1.59097">
        <ele>88.1</ele>
        <time>2026-03-30T15:35:26.000Z</time>
      </trkpt>
      <trkpt lat="49.52313" lon="-1.59095">
        <ele>88.5</ele>
        <time>2026-03-30T15:35:27.000Z</time>
      </trkpt>
      <trkpt lat="49.52314" lon="-1.59094">
        <ele>88.7</ele>
        <time>2026-03-30T15:35:28.000Z</time>
      </trkpt>
      <trkpt lat="49.52316" lon="-1.59094">
        <ele>88.6</ele>
        <time>2026-03-30T15:35:29.000Z</time>
      </trkpt>
      <trkpt lat="49.52317" lon="-1.59093">
        <ele>88.8</ele>
        <time>2026-03-30T15:35:30.000Z</time>
      </trkpt>
      <trkpt lat="49.52319" lon="-1.59093">
        <ele>89.1</ele>
        <time>2026-03-30T15:35:31.000Z</time>
      </trkpt>
      <trkpt lat="49.5232" lon="-1.59093">
        <ele>89.6</ele>
        <time>2026-03-30T15:35:32.000Z</time>
      </trkpt>
      <trkpt lat="49.52321" lon="-1.59094">
        <ele>88.7</ele>
        <time>2026-03-30T15:35:33.000Z</time>
      </trkpt>
      <trkpt lat="49.52323" lon="-1.59093">
        <ele>89.3</ele>
        <time>2026-03-30T15:35:34.000Z</time>
      </trkpt>
      <trkpt lat="49.52324" lon="-1.59093">
        <ele>89.4</ele>
        <time>2026-03-30T15:35:35.000Z</time>
      </trkpt>
      <trkpt lat="49.52326" lon="-1.59093">
        <ele>89.6</ele>
        <time>2026-03-30T15:35:36.000Z</time>
      </trkpt>
      <trkpt lat="49.52327" lon="-1.59093">
        <ele>89.8</ele>
        <time>2026-03-30T15:35:37.000Z</time>
      </trkpt>
      <trkpt lat="49.52329" lon="-1.59093">
        <ele>89.9</ele>
        <time>2026-03-30T15:35:38.000Z</time>
      </trkpt>
      <trkpt lat="49.5233" lon="-1.59093">
        <ele>90.3</ele>
        <time>2026-03-30T15:35:39.000Z</time>
      </trkpt>
      <trkpt lat="49.52332" lon="-1.59094">
        <ele>90.5</ele>
        <time>2026-03-30T15:35:40.000Z</time>
      </trkpt>
      <trkpt lat="49.52333" lon="-1.59094">
        <ele>90.2</ele>
        <time>2026-03-30T15:35:41.000Z</time>
      </trkpt>
      <trkpt lat="49.52334" lon="-1.59094">
        <ele>90.1</ele>
        <time>2026-03-30T15:35:42.000Z</time>
      </trkpt>
      <trkpt lat="49.52336" lon="-1.59094">
        <ele>90.3</ele>
        <time>2026-03-30T15:35:43.000Z</time>
      </trkpt>
      <trkpt lat="49.52337" lon="-1.59095">
        <ele>90.9</ele>
        <time>2026-03-30T15:35:44.000Z</time>
      </trkpt>
      <trkpt lat="49.52338" lon="-1.59095">
        <ele>91.3</ele>
        <time>2026-03-30T15:35:45.000Z</time>
      </trkpt>
      <trkpt lat="49.5234" lon="-1.59095">
        <ele>91.4</ele>
        <time>2026-03-30T15:35:46.000Z</time>
      </trkpt>
      <trkpt lat="49.52341" lon="-1.59096">
        <ele>91.9</ele>
        <time>2026-03-30T15:35:47.000Z</time>
      </trkpt>
      <trkpt lat="49.52343" lon="-1.59096">
        <ele>92.2</ele>
        <time>2026-03-30T15:35:48.000Z</time>
      </trkpt>
      <trkpt lat="49.52344" lon="-1.59096">
        <ele>92.6</ele>
        <time>2026-03-30T15:35:49.000Z</time>
      </trkpt>
      <trkpt lat="49.52346" lon="-1.59096">
        <ele>93.1</ele>
        <time>2026-03-30T15:35:50.000Z</time>
      </trkpt>
      <trkpt lat="49.52347" lon="-1.59097">
        <ele>93.4</ele>
        <time>2026-03-30T15:35:51.000Z</time>
      </trkpt>
      <trkpt lat="49.52348" lon="-1.59097">
        <ele>93.5</ele>
        <time>2026-03-30T15:35:52.000Z</time>
      </trkpt>
      <trkpt lat="49.52349" lon="-1.59097">
        <ele>93.7</ele>
        <time>2026-03-30T15:35:53.000Z</time>
      </trkpt>
      <trkpt lat="49.52351" lon="-1.59098">
        <ele>93.7</ele>
        <time>2026-03-30T15:35:54.000Z</time>
      </trkpt>
      <trkpt lat="49.52352" lon="-1.59098">
        <ele>94.1</ele>
        <time>2026-03-30T15:35:55.000Z</time>
      </trkpt>
      <trkpt lat="49.52353" lon="-1.59099">
        <ele>93.9</ele>
        <time>2026-03-30T15:35:56.000Z</time>
      </trkpt>
      <trkpt lat="49.52355" lon="-1.59099">
        <ele>94.4</ele>
        <time>2026-03-30T15:35:57.000Z</time>
      </trkpt>
      <trkpt lat="49.52356" lon="-1.591">
        <ele>92.1</ele>
        <time>2026-03-30T15:35:58.000Z</time>
      </trkpt>
      <trkpt lat="49.52357" lon="-1.591">
        <ele>92.9</ele>
        <time>2026-03-30T15:35:59.000Z</time>
      </trkpt>
      <trkpt lat="49.52358" lon="-1.591">
        <ele>93.3</ele>
        <time>2026-03-30T15:36:00.000Z</time>
      </trkpt>
      <trkpt lat="49.5236" lon="-1.591">
        <ele>94</ele>
        <time>2026-03-30T15:36:01.000Z</time>
      </trkpt>
      <trkpt lat="49.52361" lon="-1.59101">
        <ele>94.4</ele>
        <time>2026-03-30T15:36:02.000Z</time>
      </trkpt>
      <trkpt lat="49.52362" lon="-1.59102">
        <ele>94.6</ele>
        <time>2026-03-30T15:36:03.000Z</time>
      </trkpt>
      <trkpt lat="49.52363" lon="-1.59102">
        <ele>94.7</ele>
        <time>2026-03-30T15:36:04.000Z</time>
      </trkpt>
      <trkpt lat="49.52365" lon="-1.59103">
        <ele>94.7</ele>
        <time>2026-03-30T15:36:05.000Z</time>
      </trkpt>
      <trkpt lat="49.52366" lon="-1.59104">
        <ele>94.2</ele>
        <time>2026-03-30T15:36:06.000Z</time>
      </trkpt>
      <trkpt lat="49.52368" lon="-1.59104">
        <ele>94.5</ele>
        <time>2026-03-30T15:36:07.000Z</time>
      </trkpt>
      <trkpt lat="49.52369" lon="-1.59105">
        <ele>94.7</ele>
        <time>2026-03-30T15:36:08.000Z</time>
      </trkpt>
      <trkpt lat="49.52371" lon="-1.59105">
        <ele>94.8</ele>
        <time>2026-03-30T15:36:09.000Z</time>
      </trkpt>
      <trkpt lat="49.52373" lon="-1.59106">
        <ele>94.7</ele>
        <time>2026-03-30T15:36:10.000Z</time>
      </trkpt>
      <trkpt lat="49.52374" lon="-1.59106">
        <ele>94.6</ele>
        <time>2026-03-30T15:36:11.000Z</time>
      </trkpt>
      <trkpt lat="49.52376" lon="-1.59106">
        <ele>94.8</ele>
        <time>2026-03-30T15:36:12.000Z</time>
      </trkpt>
      <trkpt lat="49.52377" lon="-1.59107">
        <ele>94.5</ele>
        <time>2026-03-30T15:36:13.000Z</time>
      </trkpt>
      <trkpt lat="49.52379" lon="-1.59107">
        <ele>94.5</ele>
        <time>2026-03-30T15:36:14.000Z</time>
      </trkpt>
      <trkpt lat="49.5238" lon="-1.59107">
        <ele>94.9</ele>
        <time>2026-03-30T15:36:15.000Z</time>
      </trkpt>
      <trkpt lat="49.52382" lon="-1.59108">
        <ele>95.2</ele>
        <time>2026-03-30T15:36:16.000Z</time>
      </trkpt>
      <trkpt lat="49.52383" lon="-1.59108">
        <ele>95.5</ele>
        <time>2026-03-30T15:36:17.000Z</time>
      </trkpt>
      <trkpt lat="49.52385" lon="-1.59109">
        <ele>95.5</ele>
        <time>2026-03-30T15:36:18.000Z</time>
      </trkpt>
      <trkpt lat="49.52386" lon="-1.59109">
        <ele>95.6</ele>
        <time>2026-03-30T15:36:19.000Z</time>
      </trkpt>
      <trkpt lat="49.52387" lon="-1.5911">
        <ele>95.9</ele>
        <time>2026-03-30T15:36:20.000Z</time>
      </trkpt>
      <trkpt lat="49.52389" lon="-1.5911">
        <ele>95.6</ele>
        <time>2026-03-30T15:36:21.000Z</time>
      </trkpt>
      <trkpt lat="49.5239" lon="-1.59111">
        <ele>95.9</ele>
        <time>2026-03-30T15:36:22.000Z</time>
      </trkpt>
      <trkpt lat="49.52391" lon="-1.59112">
        <ele>96.2</ele>
        <time>2026-03-30T15:36:23.000Z</time>
      </trkpt>
      <trkpt lat="49.52393" lon="-1.59113">
        <ele>96.2</ele>
        <time>2026-03-30T15:36:24.000Z</time>
      </trkpt>
      <trkpt lat="49.52394" lon="-1.59113">
        <ele>96.2</ele>
        <time>2026-03-30T15:36:25.000Z</time>
      </trkpt>
      <trkpt lat="49.52395" lon="-1.59113">
        <ele>96.6</ele>
        <time>2026-03-30T15:36:26.000Z</time>
      </trkpt>
      <trkpt lat="49.52396" lon="-1.59114">
        <ele>96.6</ele>
        <time>2026-03-30T15:36:27.000Z</time>
      </trkpt>
      <trkpt lat="49.52398" lon="-1.59115">
        <ele>96.6</ele>
        <time>2026-03-30T15:36:28.000Z</time>
      </trkpt>
      <trkpt lat="49.52399" lon="-1.59116">
        <ele>96.5</ele>
        <time>2026-03-30T15:36:29.000Z</time>
      </trkpt>
      <trkpt lat="49.524" lon="-1.59116">
        <ele>96.8</ele>
        <time>2026-03-30T15:36:30.000Z</time>
      </trkpt>
      <trkpt lat="49.52402" lon="-1.59117">
        <ele>97.2</ele>
        <time>2026-03-30T15:36:31.000Z</time>
      </trkpt>
      <trkpt lat="49.52403" lon="-1.59117">
        <ele>97.6</ele>
        <time>2026-03-30T15:36:32.000Z</time>
      </trkpt>
      <trkpt lat="49.52404" lon="-1.59117">
        <ele>97.6</ele>
        <time>2026-03-30T15:36:33.000Z</time>
      </trkpt>
      <trkpt lat="49.52405" lon="-1.59118">
        <ele>97.5</ele>
        <time>2026-03-30T15:36:34.000Z</time>
      </trkpt>
      <trkpt lat="49.52407" lon="-1.59118">
        <ele>97.9</ele>
        <time>2026-03-30T15:36:35.000Z</time>
      </trkpt>
      <trkpt lat="49.52408" lon="-1.59119">
        <ele>98.2</ele>
        <time>2026-03-30T15:36:36.000Z</time>
      </trkpt>
      <trkpt lat="49.52409" lon="-1.59119">
        <ele>98.1</ele>
        <time>2026-03-30T15:36:37.000Z</time>
      </trkpt>
      <trkpt lat="49.52411" lon="-1.59119">
        <ele>97.8</ele>
        <time>2026-03-30T15:36:38.000Z</time>
      </trkpt>
      <trkpt lat="49.52412" lon="-1.5912">
        <ele>97.9</ele>
        <time>2026-03-30T15:36:39.000Z</time>
      </trkpt>
      <trkpt lat="49.52413" lon="-1.59121">
        <ele>97.5</ele>
        <time>2026-03-30T15:36:40.000Z</time>
      </trkpt>
      <trkpt lat="49.52415" lon="-1.59121">
        <ele>97.4</ele>
        <time>2026-03-30T15:36:41.000Z</time>
      </trkpt>
      <trkpt lat="49.52416" lon="-1.59122">
        <ele>96.9</ele>
        <time>2026-03-30T15:36:42.000Z</time>
      </trkpt>
      <trkpt lat="49.52417" lon="-1.59123">
        <ele>97</ele>
        <time>2026-03-30T15:36:43.000Z</time>
      </trkpt>
      <trkpt lat="49.52419" lon="-1.59124">
        <ele>96.6</ele>
        <time>2026-03-30T15:36:44.000Z</time>
      </trkpt>
      <trkpt lat="49.5242" lon="-1.59124">
        <ele>96.9</ele>
        <time>2026-03-30T15:36:45.000Z</time>
      </trkpt>
      <trkpt lat="49.52422" lon="-1.59125">
        <ele>96.5</ele>
        <time>2026-03-30T15:36:46.000Z</time>
      </trkpt>
      <trkpt lat="49.52423" lon="-1.59126">
        <ele>96.1</ele>
        <time>2026-03-30T15:36:47.000Z</time>
      </trkpt>
      <trkpt lat="49.52424" lon="-1.59126">
        <ele>95.5</ele>
        <time>2026-03-30T15:36:48.000Z</time>
      </trkpt>
      <trkpt lat="49.52426" lon="-1.59127">
        <ele>95.4</ele>
        <time>2026-03-30T15:36:49.000Z</time>
      </trkpt>
      <trkpt lat="49.52427" lon="-1.59127">
        <ele>95</ele>
        <time>2026-03-30T15:36:50.000Z</time>
      </trkpt>
      <trkpt lat="49.52429" lon="-1.59128">
        <ele>95</ele>
        <time>2026-03-30T15:36:51.000Z</time>
      </trkpt>
      <trkpt lat="49.5243" lon="-1.59129">
        <ele>95</ele>
        <time>2026-03-30T15:36:52.000Z</time>
      </trkpt>
      <trkpt lat="49.52431" lon="-1.5913">
        <ele>95.1</ele>
        <time>2026-03-30T15:36:53.000Z</time>
      </trkpt>
      <trkpt lat="49.52433" lon="-1.5913">
        <ele>95.1</ele>
        <time>2026-03-30T15:36:54.000Z</time>
      </trkpt>
      <trkpt lat="49.52434" lon="-1.59131">
        <ele>95.4</ele>
        <time>2026-03-30T15:36:55.000Z</time>
      </trkpt>
      <trkpt lat="49.52436" lon="-1.59131">
        <ele>95.7</ele>
        <time>2026-03-30T15:36:56.000Z</time>
      </trkpt>
      <trkpt lat="49.52437" lon="-1.59132">
        <ele>96.1</ele>
        <time>2026-03-30T15:36:57.000Z</time>
      </trkpt>
      <trkpt lat="49.52439" lon="-1.59133">
        <ele>96.2</ele>
        <time>2026-03-30T15:36:58.000Z</time>
      </trkpt>
      <trkpt lat="49.5244" lon="-1.59134">
        <ele>96.6</ele>
        <time>2026-03-30T15:36:59.000Z</time>
      </trkpt>
      <trkpt lat="49.52442" lon="-1.59134">
        <ele>97.2</ele>
        <time>2026-03-30T15:37:00.000Z</time>
      </trkpt>
      <trkpt lat="49.52443" lon="-1.59135">
        <ele>97.3</ele>
        <time>2026-03-30T15:37:01.000Z</time>
      </trkpt>
      <trkpt lat="49.52445" lon="-1.59136">
        <ele>97.3</ele>
        <time>2026-03-30T15:37:02.000Z</time>
      </trkpt>
      <trkpt lat="49.52446" lon="-1.59137">
        <ele>97.3</ele>
        <time>2026-03-30T15:37:03.000Z</time>
      </trkpt>
      <trkpt lat="49.52448" lon="-1.59138">
        <ele>97</ele>
        <time>2026-03-30T15:37:04.000Z</time>
      </trkpt>
      <trkpt lat="49.52449" lon="-1.59139">
        <ele>97</ele>
        <time>2026-03-30T15:37:05.000Z</time>
      </trkpt>
      <trkpt lat="49.5245" lon="-1.5914">
        <ele>96.4</ele>
        <time>2026-03-30T15:37:06.000Z</time>
      </trkpt>
      <trkpt lat="49.52452" lon="-1.5914">
        <ele>96.9</ele>
        <time>2026-03-30T15:37:07.000Z</time>
      </trkpt>
      <trkpt lat="49.52453" lon="-1.59141">
        <ele>96.9</ele>
        <time>2026-03-30T15:37:08.000Z</time>
      </trkpt>
      <trkpt lat="49.52455" lon="-1.59142">
        <ele>96.6</ele>
        <time>2026-03-30T15:37:09.000Z</time>
      </trkpt>
      <trkpt lat="49.52456" lon="-1.59142">
        <ele>96.6</ele>
        <time>2026-03-30T15:37:10.000Z</time>
      </trkpt>
      <trkpt lat="49.52457" lon="-1.59143">
        <ele>96.5</ele>
        <time>2026-03-30T15:37:11.000Z</time>
      </trkpt>
      <trkpt lat="49.52459" lon="-1.59143">
        <ele>96.3</ele>
        <time>2026-03-30T15:37:12.000Z</time>
      </trkpt>
      <trkpt lat="49.5246" lon="-1.59144">
        <ele>96.8</ele>
        <time>2026-03-30T15:37:13.000Z</time>
      </trkpt>
      <trkpt lat="49.52462" lon="-1.59146">
        <ele>96.2</ele>
        <time>2026-03-30T15:37:14.000Z</time>
      </trkpt>
      <trkpt lat="49.52463" lon="-1.59147">
        <ele>95.8</ele>
        <time>2026-03-30T15:37:15.000Z</time>
      </trkpt>
      <trkpt lat="49.52464" lon="-1.59148">
        <ele>96</ele>
        <time>2026-03-30T15:37:16.000Z</time>
      </trkpt>
      <trkpt lat="49.52465" lon="-1.5915">
        <ele>96</ele>
        <time>2026-03-30T15:37:17.000Z</time>
      </trkpt>
      <trkpt lat="49.52467" lon="-1.59151">
        <ele>96.5</ele>
        <time>2026-03-30T15:37:18.000Z</time>
      </trkpt>
      <trkpt lat="49.52468" lon="-1.59152">
        <ele>97.1</ele>
        <time>2026-03-30T15:37:19.000Z</time>
      </trkpt>
      <trkpt lat="49.52469" lon="-1.59153">
        <ele>96.8</ele>
        <time>2026-03-30T15:37:20.000Z</time>
      </trkpt>
      <trkpt lat="49.52471" lon="-1.59154">
        <ele>96.5</ele>
        <time>2026-03-30T15:37:21.000Z</time>
      </trkpt>
      <trkpt lat="49.52472" lon="-1.59155">
        <ele>95.8</ele>
        <time>2026-03-30T15:37:22.000Z</time>
      </trkpt>
      <trkpt lat="49.52474" lon="-1.59156">
        <ele>95.8</ele>
        <time>2026-03-30T15:37:23.000Z</time>
      </trkpt>
      <trkpt lat="49.52476" lon="-1.59157">
        <ele>95.2</ele>
        <time>2026-03-30T15:37:24.000Z</time>
      </trkpt>
      <trkpt lat="49.52477" lon="-1.59158">
        <ele>95</ele>
        <time>2026-03-30T15:37:25.000Z</time>
      </trkpt>
      <trkpt lat="49.52479" lon="-1.59159">
        <ele>95.1</ele>
        <time>2026-03-30T15:37:26.000Z</time>
      </trkpt>
      <trkpt lat="49.5248" lon="-1.5916">
        <ele>95.5</ele>
        <time>2026-03-30T15:37:27.000Z</time>
      </trkpt>
      <trkpt lat="49.52481" lon="-1.59162">
        <ele>95.5</ele>
        <time>2026-03-30T15:37:28.000Z</time>
      </trkpt>
      <trkpt lat="49.52482" lon="-1.59163">
        <ele>95</ele>
        <time>2026-03-30T15:37:29.000Z</time>
      </trkpt>
      <trkpt lat="49.52483" lon="-1.59164">
        <ele>94.8</ele>
        <time>2026-03-30T15:37:30.000Z</time>
      </trkpt>
      <trkpt lat="49.52484" lon="-1.59166">
        <ele>94.9</ele>
        <time>2026-03-30T15:37:31.000Z</time>
      </trkpt>
      <trkpt lat="49.52485" lon="-1.59167">
        <ele>94.2</ele>
        <time>2026-03-30T15:37:32.000Z</time>
      </trkpt>
      <trkpt lat="49.52486" lon="-1.59169">
        <ele>94</ele>
        <time>2026-03-30T15:37:33.000Z</time>
      </trkpt>
      <trkpt lat="49.52488" lon="-1.5917">
        <ele>93.8</ele>
        <time>2026-03-30T15:37:34.000Z</time>
      </trkpt>
      <trkpt lat="49.52489" lon="-1.59171">
        <ele>94.1</ele>
        <time>2026-03-30T15:37:35.000Z</time>
      </trkpt>
      <trkpt lat="49.5249" lon="-1.59172">
        <ele>94.4</ele>
        <time>2026-03-30T15:37:36.000Z</time>
      </trkpt>
      <trkpt lat="49.52492" lon="-1.59174">
        <ele>94.2</ele>
        <time>2026-03-30T15:37:37.000Z</time>
      </trkpt>
      <trkpt lat="49.52493" lon="-1.59175">
        <ele>93.9</ele>
        <time>2026-03-30T15:37:38.000Z</time>
      </trkpt>
      <trkpt lat="49.52494" lon="-1.59177">
        <ele>94</ele>
        <time>2026-03-30T15:37:39.000Z</time>
      </trkpt>
      <trkpt lat="49.52495" lon="-1.59178">
        <ele>94.1</ele>
        <time>2026-03-30T15:37:40.000Z</time>
      </trkpt>
      <trkpt lat="49.52496" lon="-1.59179">
        <ele>94.7</ele>
        <time>2026-03-30T15:37:41.000Z</time>
      </trkpt>
      <trkpt lat="49.52497" lon="-1.5918">
        <ele>94.8</ele>
        <time>2026-03-30T15:37:42.000Z</time>
      </trkpt>
      <trkpt lat="49.52499" lon="-1.59182">
        <ele>95.1</ele>
        <time>2026-03-30T15:37:43.000Z</time>
      </trkpt>
      <trkpt lat="49.525" lon="-1.59184">
        <ele>95.2</ele>
        <time>2026-03-30T15:37:44.000Z</time>
      </trkpt>
      <trkpt lat="49.52501" lon="-1.59185">
        <ele>95.1</ele>
        <time>2026-03-30T15:37:45.000Z</time>
      </trkpt>
      <trkpt lat="49.52502" lon="-1.59187">
        <ele>95.2</ele>
        <time>2026-03-30T15:37:46.000Z</time>
      </trkpt>
      <trkpt lat="49.52503" lon="-1.59189">
        <ele>95.5</ele>
        <time>2026-03-30T15:37:47.000Z</time>
      </trkpt>
      <trkpt lat="49.52504" lon="-1.5919">
        <ele>95.4</ele>
        <time>2026-03-30T15:37:48.000Z</time>
      </trkpt>
      <trkpt lat="49.52506" lon="-1.59191">
        <ele>96.3</ele>
        <time>2026-03-30T15:37:49.000Z</time>
      </trkpt>
      <trkpt lat="49.52507" lon="-1.59193">
        <ele>96.3</ele>
        <time>2026-03-30T15:37:50.000Z</time>
      </trkpt>
      <trkpt lat="49.52508" lon="-1.59195">
        <ele>96.3</ele>
        <time>2026-03-30T15:37:51.000Z</time>
      </trkpt>
      <trkpt lat="49.52509" lon="-1.59197">
        <ele>96</ele>
        <time>2026-03-30T15:37:52.000Z</time>
      </trkpt>
      <trkpt lat="49.5251" lon="-1.59198">
        <ele>95.8</ele>
        <time>2026-03-30T15:37:53.000Z</time>
      </trkpt>
      <trkpt lat="49.52511" lon="-1.592">
        <ele>96.1</ele>
        <time>2026-03-30T15:37:54.000Z</time>
      </trkpt>
      <trkpt lat="49.52512" lon="-1.59202">
        <ele>96.1</ele>
        <time>2026-03-30T15:37:55.000Z</time>
      </trkpt>
      <trkpt lat="49.52513" lon="-1.59204">
        <ele>95.9</ele>
        <time>2026-03-30T15:37:56.000Z</time>
      </trkpt>
      <trkpt lat="49.52514" lon="-1.59206">
        <ele>96.2</ele>
        <time>2026-03-30T15:37:57.000Z</time>
      </trkpt>
      <trkpt lat="49.52515" lon="-1.59208">
        <ele>96.5</ele>
        <time>2026-03-30T15:37:58.000Z</time>
      </trkpt>
      <trkpt lat="49.52516" lon="-1.59209">
        <ele>96.7</ele>
        <time>2026-03-30T15:37:59.000Z</time>
      </trkpt>
      <trkpt lat="49.52517" lon="-1.59211">
        <ele>96.7</ele>
        <time>2026-03-30T15:38:00.000Z</time>
      </trkpt>
      <trkpt lat="49.52518" lon="-1.59212">
        <ele>96.5</ele>
        <time>2026-03-30T15:38:01.000Z</time>
      </trkpt>
      <trkpt lat="49.52519" lon="-1.59214">
        <ele>96.9</ele>
        <time>2026-03-30T15:38:02.000Z</time>
      </trkpt>
      <trkpt lat="49.5252" lon="-1.59216">
        <ele>97.5</ele>
        <time>2026-03-30T15:38:03.000Z</time>
      </trkpt>
      <trkpt lat="49.52521" lon="-1.59218">
        <ele>97.5</ele>
        <time>2026-03-30T15:38:04.000Z</time>
      </trkpt>
      <trkpt lat="49.52522" lon="-1.59219">
        <ele>97.3</ele>
        <time>2026-03-30T15:38:05.000Z</time>
      </trkpt>
      <trkpt lat="49.52523" lon="-1.59221">
        <ele>97.5</ele>
        <time>2026-03-30T15:38:06.000Z</time>
      </trkpt>
      <trkpt lat="49.52524" lon="-1.59222">
        <ele>97.5</ele>
        <time>2026-03-30T15:38:07.000Z</time>
      </trkpt>
      <trkpt lat="49.52525" lon="-1.59223">
        <ele>97.2</ele>
        <time>2026-03-30T15:38:08.000Z</time>
      </trkpt>
      <trkpt lat="49.52527" lon="-1.59225">
        <ele>97.6</ele>
        <time>2026-03-30T15:38:09.000Z</time>
      </trkpt>
      <trkpt lat="49.52528" lon="-1.59226">
        <ele>97.6</ele>
        <time>2026-03-30T15:38:10.000Z</time>
      </trkpt>
      <trkpt lat="49.52529" lon="-1.59228">
        <ele>98</ele>
        <time>2026-03-30T15:38:11.000Z</time>
      </trkpt>
      <trkpt lat="49.52529" lon="-1.5923">
        <ele>97.9</ele>
        <time>2026-03-30T15:38:12.000Z</time>
      </trkpt>
      <trkpt lat="49.5253" lon="-1.59231">
        <ele>98.3</ele>
        <time>2026-03-30T15:38:13.000Z</time>
      </trkpt>
      <trkpt lat="49.52531" lon="-1.59233">
        <ele>97.8</ele>
        <time>2026-03-30T15:38:14.000Z</time>
      </trkpt>
      <trkpt lat="49.52532" lon="-1.59234">
        <ele>97.2</ele>
        <time>2026-03-30T15:38:15.000Z</time>
      </trkpt>
      <trkpt lat="49.52533" lon="-1.59236">
        <ele>96.5</ele>
        <time>2026-03-30T15:38:16.000Z</time>
      </trkpt>
      <trkpt lat="49.52534" lon="-1.59238">
        <ele>96.6</ele>
        <time>2026-03-30T15:38:17.000Z</time>
      </trkpt>
      <trkpt lat="49.52534" lon="-1.5924">
        <ele>96.7</ele>
        <time>2026-03-30T15:38:18.000Z</time>
      </trkpt>
      <trkpt lat="49.52535" lon="-1.59241">
        <ele>95.6</ele>
        <time>2026-03-30T15:38:19.000Z</time>
      </trkpt>
      <trkpt lat="49.52536" lon="-1.59244">
        <ele>95.2</ele>
        <time>2026-03-30T15:38:20.000Z</time>
      </trkpt>
      <trkpt lat="49.52537" lon="-1.59246">
        <ele>95</ele>
        <time>2026-03-30T15:38:21.000Z</time>
      </trkpt>
      <trkpt lat="49.52538" lon="-1.59248">
        <ele>94.5</ele>
        <time>2026-03-30T15:38:22.000Z</time>
      </trkpt>
      <trkpt lat="49.52539" lon="-1.5925">
        <ele>93.9</ele>
        <time>2026-03-30T15:38:23.000Z</time>
      </trkpt>
      <trkpt lat="49.52539" lon="-1.59252">
        <ele>94</ele>
        <time>2026-03-30T15:38:24.000Z</time>
      </trkpt>
      <trkpt lat="49.5254" lon="-1.59253">
        <ele>94</ele>
        <time>2026-03-30T15:38:25.000Z</time>
      </trkpt>
      <trkpt lat="49.52541" lon="-1.59255">
        <ele>93.1</ele>
        <time>2026-03-30T15:38:26.000Z</time>
      </trkpt>
      <trkpt lat="49.52542" lon="-1.59257">
        <ele>92.9</ele>
        <time>2026-03-30T15:38:27.000Z</time>
      </trkpt>
      <trkpt lat="49.52543" lon="-1.59259">
        <ele>92.1</ele>
        <time>2026-03-30T15:38:28.000Z</time>
      </trkpt>
      <trkpt lat="49.52543" lon="-1.5926">
        <ele>91.4</ele>
        <time>2026-03-30T15:38:29.000Z</time>
      </trkpt>
      <trkpt lat="49.52544" lon="-1.59262">
        <ele>92.6</ele>
        <time>2026-03-30T15:38:30.000Z</time>
      </trkpt>
      <trkpt lat="49.52545" lon="-1.59264">
        <ele>91.6</ele>
        <time>2026-03-30T15:38:31.000Z</time>
      </trkpt>
      <trkpt lat="49.52546" lon="-1.59266">
        <ele>91.2</ele>
        <time>2026-03-30T15:38:32.000Z</time>
      </trkpt>
      <trkpt lat="49.52546" lon="-1.59269">
        <ele>90.6</ele>
        <time>2026-03-30T15:38:33.000Z</time>
      </trkpt>
      <trkpt lat="49.52547" lon="-1.5927">
        <ele>90.8</ele>
        <time>2026-03-30T15:38:34.000Z</time>
      </trkpt>
      <trkpt lat="49.52548" lon="-1.59272">
        <ele>90.7</ele>
        <time>2026-03-30T15:38:35.000Z</time>
      </trkpt>
      <trkpt lat="49.52549" lon="-1.59274">
        <ele>90.6</ele>
        <time>2026-03-30T15:38:36.000Z</time>
      </trkpt>
      <trkpt lat="49.52549" lon="-1.59276">
        <ele>90.5</ele>
        <time>2026-03-30T15:38:37.000Z</time>
      </trkpt>
      <trkpt lat="49.52551" lon="-1.59277">
        <ele>90.5</ele>
        <time>2026-03-30T15:38:38.000Z</time>
      </trkpt>
      <trkpt lat="49.52552" lon="-1.59279">
        <ele>90.5</ele>
        <time>2026-03-30T15:38:39.000Z</time>
      </trkpt>
      <trkpt lat="49.52553" lon="-1.59281">
        <ele>90.6</ele>
        <time>2026-03-30T15:38:40.000Z</time>
      </trkpt>
      <trkpt lat="49.52554" lon="-1.59283">
        <ele>90.2</ele>
        <time>2026-03-30T15:38:41.000Z</time>
      </trkpt>
      <trkpt lat="49.52555" lon="-1.59285">
        <ele>90.1</ele>
        <time>2026-03-30T15:38:42.000Z</time>
      </trkpt>
      <trkpt lat="49.52556" lon="-1.59287">
        <ele>90.1</ele>
        <time>2026-03-30T15:38:43.000Z</time>
      </trkpt>
      <trkpt lat="49.52557" lon="-1.59288">
        <ele>89.8</ele>
        <time>2026-03-30T15:38:44.000Z</time>
      </trkpt>
      <trkpt lat="49.52558" lon="-1.5929">
        <ele>89.9</ele>
        <time>2026-03-30T15:38:45.000Z</time>
      </trkpt>
      <trkpt lat="49.52559" lon="-1.59292">
        <ele>89.4</ele>
        <time>2026-03-30T15:38:46.000Z</time>
      </trkpt>
      <trkpt lat="49.5256" lon="-1.59292">
        <ele>89.3</ele>
        <time>2026-03-30T15:38:47.000Z</time>
      </trkpt>
      <trkpt lat="49.52562" lon="-1.59292">
        <ele>89.4</ele>
        <time>2026-03-30T15:38:48.000Z</time>
      </trkpt>
      <trkpt lat="49.52563" lon="-1.59292">
        <ele>89.1</ele>
        <time>2026-03-30T15:38:49.000Z</time>
      </trkpt>
      <trkpt lat="49.52564" lon="-1.59292">
        <ele>89.2</ele>
        <time>2026-03-30T15:38:50.000Z</time>
      </trkpt>
      <trkpt lat="49.52566" lon="-1.59292">
        <ele>89.2</ele>
        <time>2026-03-30T15:38:51.000Z</time>
      </trkpt>
      <trkpt lat="49.52567" lon="-1.59293">
        <ele>88.9</ele>
        <time>2026-03-30T15:38:52.000Z</time>
      </trkpt>
      <trkpt lat="49.52568" lon="-1.59292">
        <ele>88.8</ele>
        <time>2026-03-30T15:38:53.000Z</time>
      </trkpt>
      <trkpt lat="49.5257" lon="-1.59292">
        <ele>88.8</ele>
        <time>2026-03-30T15:38:54.000Z</time>
      </trkpt>
      <trkpt lat="49.52571" lon="-1.59292">
        <ele>89</ele>
        <time>2026-03-30T15:38:55.000Z</time>
      </trkpt>
      <trkpt lat="49.52573" lon="-1.59293">
        <ele>89.3</ele>
        <time>2026-03-30T15:38:56.000Z</time>
      </trkpt>
      <trkpt lat="49.52574" lon="-1.59294">
        <ele>89.7</ele>
        <time>2026-03-30T15:38:57.000Z</time>
      </trkpt>
      <trkpt lat="49.52575" lon="-1.59295">
        <ele>90.1</ele>
        <time>2026-03-30T15:38:58.000Z</time>
      </trkpt>
      <trkpt lat="49.52577" lon="-1.59297">
        <ele>90.3</ele>
        <time>2026-03-30T15:38:59.000Z</time>
      </trkpt>
      <trkpt lat="49.52578" lon="-1.59299">
        <ele>90.3</ele>
        <time>2026-03-30T15:39:00.000Z</time>
      </trkpt>
      <trkpt lat="49.52579" lon="-1.593">
        <ele>90</ele>
        <time>2026-03-30T15:39:01.000Z</time>
      </trkpt>
      <trkpt lat="49.52581" lon="-1.59302">
        <ele>89.8</ele>
        <time>2026-03-30T15:39:02.000Z</time>
      </trkpt>
      <trkpt lat="49.52582" lon="-1.59303">
        <ele>90.2</ele>
        <time>2026-03-30T15:39:03.000Z</time>
      </trkpt>
      <trkpt lat="49.52583" lon="-1.59304">
        <ele>90.3</ele>
        <time>2026-03-30T15:39:04.000Z</time>
      </trkpt>
      <trkpt lat="49.52584" lon="-1.59306">
        <ele>90.5</ele>
        <time>2026-03-30T15:39:05.000Z</time>
      </trkpt>
      <trkpt lat="49.52585" lon="-1.59308">
        <ele>89.6</ele>
        <time>2026-03-30T15:39:06.000Z</time>
      </trkpt>
      <trkpt lat="49.52586" lon="-1.59309">
        <ele>90</ele>
        <time>2026-03-30T15:39:07.000Z</time>
      </trkpt>
      <trkpt lat="49.52587" lon="-1.5931">
        <ele>89.7</ele>
        <time>2026-03-30T15:39:08.000Z</time>
      </trkpt>
      <trkpt lat="49.52588" lon="-1.59311">
        <ele>89.8</ele>
        <time>2026-03-30T15:39:09.000Z</time>
      </trkpt>
      <trkpt lat="49.52589" lon="-1.59312">
        <ele>90.2</ele>
        <time>2026-03-30T15:39:10.000Z</time>
      </trkpt>
      <trkpt lat="49.5259" lon="-1.59312">
        <ele>89.6</ele>
        <time>2026-03-30T15:39:11.000Z</time>
      </trkpt>
      <trkpt lat="49.52592" lon="-1.59312">
        <ele>89.7</ele>
        <time>2026-03-30T15:39:12.000Z</time>
      </trkpt>
      <trkpt lat="49.52593" lon="-1.59312">
        <ele>90.1</ele>
        <time>2026-03-30T15:39:13.000Z</time>
      </trkpt>
      <trkpt lat="49.52595" lon="-1.59311">
        <ele>90.3</ele>
        <time>2026-03-30T15:39:14.000Z</time>
      </trkpt>
      <trkpt lat="49.52596" lon="-1.59311">
        <ele>90.7</ele>
        <time>2026-03-30T15:39:15.000Z</time>
      </trkpt>
      <trkpt lat="49.52597" lon="-1.59311">
        <ele>91.1</ele>
        <time>2026-03-30T15:39:16.000Z</time>
      </trkpt>
      <trkpt lat="49.52599" lon="-1.5931">
        <ele>91.1</ele>
        <time>2026-03-30T15:39:17.000Z</time>
      </trkpt>
      <trkpt lat="49.526" lon="-1.5931">
        <ele>90.8</ele>
        <time>2026-03-30T15:39:18.000Z</time>
      </trkpt>
      <trkpt lat="49.52602" lon="-1.59309">
        <ele>92.1</ele>
        <time>2026-03-30T15:39:19.000Z</time>
      </trkpt>
      <trkpt lat="49.52603" lon="-1.59308">
        <ele>92.6</ele>
        <time>2026-03-30T15:39:20.000Z</time>
      </trkpt>
      <trkpt lat="49.52604" lon="-1.59308">
        <ele>92.6</ele>
        <time>2026-03-30T15:39:21.000Z</time>
      </trkpt>
      <trkpt lat="49.52605" lon="-1.59308">
        <ele>92.8</ele>
        <time>2026-03-30T15:39:22.000Z</time>
      </trkpt>
      <trkpt lat="49.52606" lon="-1.59308">
        <ele>91.4</ele>
        <time>2026-03-30T15:39:23.000Z</time>
      </trkpt>
      <trkpt lat="49.52608" lon="-1.59309">
        <ele>91</ele>
        <time>2026-03-30T15:39:24.000Z</time>
      </trkpt>
      <trkpt lat="49.52609" lon="-1.59309">
        <ele>91.1</ele>
        <time>2026-03-30T15:39:25.000Z</time>
      </trkpt>
      <trkpt lat="49.52611" lon="-1.59309">
        <ele>92</ele>
        <time>2026-03-30T15:39:26.000Z</time>
      </trkpt>
      <trkpt lat="49.52612" lon="-1.59309">
        <ele>92.2</ele>
        <time>2026-03-30T15:39:27.000Z</time>
      </trkpt>
      <trkpt lat="49.52614" lon="-1.5931">
        <ele>92.2</ele>
        <time>2026-03-30T15:39:28.000Z</time>
      </trkpt>
      <trkpt lat="49.52615" lon="-1.5931">
        <ele>92.3</ele>
        <time>2026-03-30T15:39:29.000Z</time>
      </trkpt>
      <trkpt lat="49.52616" lon="-1.59312">
        <ele>91.8</ele>
        <time>2026-03-30T15:39:30.000Z</time>
      </trkpt>
      <trkpt lat="49.52618" lon="-1.59313">
        <ele>91.8</ele>
        <time>2026-03-30T15:39:31.000Z</time>
      </trkpt>
      <trkpt lat="49.52619" lon="-1.59314">
        <ele>91.7</ele>
        <time>2026-03-30T15:39:32.000Z</time>
      </trkpt>
      <trkpt lat="49.5262" lon="-1.59315">
        <ele>91.3</ele>
        <time>2026-03-30T15:39:33.000Z</time>
      </trkpt>
      <trkpt lat="49.52622" lon="-1.59316">
        <ele>90.9</ele>
        <time>2026-03-30T15:39:34.000Z</time>
      </trkpt>
      <trkpt lat="49.52623" lon="-1.59317">
        <ele>90.6</ele>
        <time>2026-03-30T15:39:35.000Z</time>
      </trkpt>
      <trkpt lat="49.52625" lon="-1.59316">
        <ele>90</ele>
        <time>2026-03-30T15:39:36.000Z</time>
      </trkpt>
      <trkpt lat="49.52624" lon="-1.59313">
        <ele>91</ele>
        <time>2026-03-30T15:39:37.000Z</time>
      </trkpt>
      <trkpt lat="49.52624" lon="-1.5931">
        <ele>91</ele>
        <time>2026-03-30T15:39:38.000Z</time>
      </trkpt>
      <trkpt lat="49.52624" lon="-1.59307">
        <ele>91.2</ele>
        <time>2026-03-30T15:39:39.000Z</time>
      </trkpt>
      <trkpt lat="49.52624" lon="-1.59307">
        <ele>91.2</ele>
        <time>2026-03-30T15:39:40.000Z</time>
      </trkpt>
      <trkpt lat="49.52624" lon="-1.59307">
        <ele>91.1</ele>
        <time>2026-03-30T15:39:41.000Z</time>
      </trkpt>
      <trkpt lat="49.52624" lon="-1.59308">
        <ele>91.1</ele>
        <time>2026-03-30T15:39:42.000Z</time>
      </trkpt>
      <trkpt lat="49.52624" lon="-1.59308">
        <ele>90.8</ele>
        <time>2026-03-30T15:39:43.000Z</time>
      </trkpt>
      <trkpt lat="49.52624" lon="-1.59306">
        <ele>90.6</ele>
        <time>2026-03-30T15:39:44.000Z</time>
      </trkpt>
      <trkpt lat="49.52624" lon="-1.59304">
        <ele>89.7</ele>
        <time>2026-03-30T15:39:45.000Z</time>
      </trkpt>
      <trkpt lat="49.52624" lon="-1.59305">
        <ele>89.8</ele>
        <time>2026-03-30T15:39:46.000Z</time>
      </trkpt>
    </trkseg>
  </trk>
</gpx>